<?xml version="1.0" encoding="UTF-8" standalone="no" ?>
<gpx xmlns="http://www.topografix.com/GPX/1/1" xmlns:gpxtpx="http://www.garmin.com/xmlschemas/TrackPointExtension/v1" creator="OruxMaps v.6.0.7 Donate" version="1.1" xmlns:xsi="http://www.w3.org/2001/XMLSchema-instance" xsi:schemaLocation="http://www.topografix.com/GPX/1/1 http://www.topografix.com/GPX/1/1/gpx.xsd">
<metadata>
<name><![CDATA[2015-04-29 10:15]]></name>
<desc><![CDATA[]]></desc>
<link href="http://www.oruxmaps.com">
<text>OruxMaps</text>
</link>
<time>2015-04-29T07:15:37Z</time><bounds maxlat="34.9834054" maxlon="32.9399454" minlat="34.8798379" minlon="32.8227848"/>
</metadata>
<trk>
<name><![CDATA[2015-04-29 10:15]]></name>
<desc><![CDATA[<h1>OruxMaps</h1><br /><hr align="center" width="480" style="height: 2px; width: 517px"/><h2>Name: 2015-04-29 10:15</h2><br /><p>Start time: 04/29/2015 10:16</p><p>Finish time: 04/29/2015 20:30</p><p>Distance: 69.5km (10:14)</p><p>Moving time: 07:02</p><p>Average speed: 6.8km/h</p><p>Avg. Speed Mov.: 9.9km/h</p><p>Max. Speed: 52.7km/h</p><p>Minimum altitude: 801m</p><p>Maximum altitude: 1475m</p><p>Ascent speed: 383.6m/h</p><p>Descent speed: -889.4m/h</p><p>Elevation gain: 2301m</p><p>Elevation loss: -2298m</p><p>Ascent time: 05:59</p><p>Descent time: 02:35</p><hr align="center" width="480" style="height: 2px; width: 517px"/>]]></desc>
<type>Undefined</type>
<extensions>
<om:oruxmapsextensions xmlns:om="http://www.oruxmaps.com/oruxmapsextensions/1/0">
<om:ext type="TYPE" subtype="0">0</om:ext>
</om:oruxmapsextensions>
</extensions>
<trkseg>
<trkpt lat="34.9676974" lon="32.8275838">
<ele>1149.76</ele>
<time>2015-04-29T07:16:00Z</time>
</trkpt>
<trkpt lat="34.9677000" lon="32.8276435">
<ele>1147.26</ele>
<time>2015-04-29T07:16:01Z</time>
</trkpt>
<trkpt lat="34.9677607" lon="32.8276774">
<ele>1146.51</ele>
<time>2015-04-29T07:16:02Z</time>
</trkpt>
<trkpt lat="34.9678277" lon="32.8277035">
<ele>1147.20</ele>
<time>2015-04-29T07:16:04Z</time>
</trkpt>
<trkpt lat="34.9677726" lon="32.8277339">
<ele>1155.87</ele>
<time>2015-04-29T07:16:06Z</time>
</trkpt>
<trkpt lat="34.9677366" lon="32.8276980">
<ele>1163.77</ele>
<time>2015-04-29T07:16:09Z</time>
</trkpt>
<trkpt lat="34.9677860" lon="32.8276975">
<ele>1139.63</ele>
<time>2015-04-29T07:16:32Z</time>
</trkpt>
<trkpt lat="34.9677711" lon="32.8276377">
<ele>1127.41</ele>
<time>2015-04-29T07:16:49Z</time>
</trkpt>
<trkpt lat="34.9677295" lon="32.8275970">
<ele>1126.84</ele>
<time>2015-04-29T07:16:52Z</time>
</trkpt>
<trkpt lat="34.9676876" lon="32.8275666">
<ele>1125.28</ele>
<time>2015-04-29T07:16:54Z</time>
</trkpt>
<trkpt lat="34.9676478" lon="32.8275352">
<ele>1123.64</ele>
<time>2015-04-29T07:16:56Z</time>
</trkpt>
<trkpt lat="34.9676052" lon="32.8275078">
<ele>1123.23</ele>
<time>2015-04-29T07:16:58Z</time>
</trkpt>
<trkpt lat="34.9675553" lon="32.8274908">
<ele>1123.13</ele>
<time>2015-04-29T07:17:00Z</time>
</trkpt>
<trkpt lat="34.9674994" lon="32.8274724">
<ele>1122.85</ele>
<time>2015-04-29T07:17:02Z</time>
</trkpt>
<trkpt lat="34.9674443" lon="32.8274560">
<ele>1122.78</ele>
<time>2015-04-29T07:17:04Z</time>
</trkpt>
<trkpt lat="34.9673934" lon="32.8274466">
<ele>1122.77</ele>
<time>2015-04-29T07:17:06Z</time>
</trkpt>
<trkpt lat="34.9673442" lon="32.8274366">
<ele>1122.51</ele>
<time>2015-04-29T07:17:08Z</time>
</trkpt>
<trkpt lat="34.9672935" lon="32.8274404">
<ele>1122.70</ele>
<time>2015-04-29T07:17:10Z</time>
</trkpt>
<trkpt lat="34.9672470" lon="32.8274472">
<ele>1121.99</ele>
<time>2015-04-29T07:17:12Z</time>
</trkpt>
<trkpt lat="34.9671808" lon="32.8274445">
<ele>1121.16</ele>
<time>2015-04-29T07:17:15Z</time>
</trkpt>
<trkpt lat="34.9671212" lon="32.8274429">
<ele>1119.94</ele>
<time>2015-04-29T07:17:18Z</time>
</trkpt>
<trkpt lat="34.9670683" lon="32.8274479">
<ele>1121.02</ele>
<time>2015-04-29T07:17:22Z</time>
</trkpt>
<trkpt lat="34.9670192" lon="32.8274702">
<ele>1119.09</ele>
<time>2015-04-29T07:17:26Z</time>
</trkpt>
<trkpt lat="34.9669755" lon="32.8274879">
<ele>1118.43</ele>
<time>2015-04-29T07:17:29Z</time>
</trkpt>
<trkpt lat="34.9669258" lon="32.8275120">
<ele>1118.80</ele>
<time>2015-04-29T07:17:33Z</time>
</trkpt>
<trkpt lat="34.9668739" lon="32.8275366">
<ele>1117.45</ele>
<time>2015-04-29T07:17:37Z</time>
</trkpt>
<trkpt lat="34.9668261" lon="32.8275645">
<ele>1118.22</ele>
<time>2015-04-29T07:17:40Z</time>
</trkpt>
<trkpt lat="34.9667855" lon="32.8276108">
<ele>1119.82</ele>
<time>2015-04-29T07:17:43Z</time>
</trkpt>
<trkpt lat="34.9667398" lon="32.8276587">
<ele>1119.64</ele>
<time>2015-04-29T07:17:46Z</time>
</trkpt>
<trkpt lat="34.9666992" lon="32.8276938">
<ele>1118.87</ele>
<time>2015-04-29T07:17:49Z</time>
</trkpt>
<trkpt lat="34.9666522" lon="32.8277257">
<ele>1118.33</ele>
<time>2015-04-29T07:17:53Z</time>
</trkpt>
<trkpt lat="34.9666111" lon="32.8277705">
<ele>1120.11</ele>
<time>2015-04-29T07:17:57Z</time>
</trkpt>
<trkpt lat="34.9665674" lon="32.8277998">
<ele>1121.47</ele>
<time>2015-04-29T07:18:01Z</time>
</trkpt>
<trkpt lat="34.9665264" lon="32.8278407">
<ele>1120.87</ele>
<time>2015-04-29T07:18:05Z</time>
</trkpt>
<trkpt lat="34.9664845" lon="32.8278756">
<ele>1122.39</ele>
<time>2015-04-29T07:18:09Z</time>
</trkpt>
<trkpt lat="34.9664395" lon="32.8279044">
<ele>1122.17</ele>
<time>2015-04-29T07:18:13Z</time>
</trkpt>
<trkpt lat="34.9663978" lon="32.8279294">
<ele>1122.66</ele>
<time>2015-04-29T07:18:17Z</time>
</trkpt>
<trkpt lat="34.9663529" lon="32.8279596">
<ele>1123.50</ele>
<time>2015-04-29T07:18:21Z</time>
</trkpt>
<trkpt lat="34.9663028" lon="32.8279899">
<ele>1124.43</ele>
<time>2015-04-29T07:18:25Z</time>
</trkpt>
<trkpt lat="34.9662615" lon="32.8280165">
<ele>1124.72</ele>
<time>2015-04-29T07:18:28Z</time>
</trkpt>
<trkpt lat="34.9662211" lon="32.8280456">
<ele>1125.63</ele>
<time>2015-04-29T07:18:31Z</time>
</trkpt>
<trkpt lat="34.9661802" lon="32.8280749">
<ele>1124.99</ele>
<time>2015-04-29T07:18:34Z</time>
</trkpt>
<trkpt lat="34.9661292" lon="32.8281118">
<ele>1125.77</ele>
<time>2015-04-29T07:18:38Z</time>
</trkpt>
<trkpt lat="34.9660906" lon="32.8281398">
<ele>1127.26</ele>
<time>2015-04-29T07:18:41Z</time>
</trkpt>
<trkpt lat="34.9660432" lon="32.8281708">
<ele>1126.79</ele>
<time>2015-04-29T07:18:45Z</time>
</trkpt>
<trkpt lat="34.9659993" lon="32.8282089">
<ele>1126.57</ele>
<time>2015-04-29T07:18:49Z</time>
</trkpt>
<trkpt lat="34.9659603" lon="32.8282592">
<ele>1128.31</ele>
<time>2015-04-29T07:18:53Z</time>
</trkpt>
<trkpt lat="34.9659106" lon="32.8282990">
<ele>1127.36</ele>
<time>2015-04-29T07:18:57Z</time>
</trkpt>
<trkpt lat="34.9658709" lon="32.8283282">
<ele>1127.73</ele>
<time>2015-04-29T07:19:01Z</time>
</trkpt>
<trkpt lat="34.9658275" lon="32.8283569">
<ele>1129.32</ele>
<time>2015-04-29T07:19:05Z</time>
</trkpt>
<trkpt lat="34.9657908" lon="32.8283948">
<ele>1131.33</ele>
<time>2015-04-29T07:19:08Z</time>
</trkpt>
<trkpt lat="34.9657520" lon="32.8284333">
<ele>1132.21</ele>
<time>2015-04-29T07:19:11Z</time>
</trkpt>
<trkpt lat="34.9657122" lon="32.8284760">
<ele>1133.44</ele>
<time>2015-04-29T07:19:14Z</time>
</trkpt>
<trkpt lat="34.9656722" lon="32.8285133">
<ele>1133.35</ele>
<time>2015-04-29T07:19:17Z</time>
</trkpt>
<trkpt lat="34.9656406" lon="32.8285613">
<ele>1134.71</ele>
<time>2015-04-29T07:19:20Z</time>
</trkpt>
<trkpt lat="34.9655903" lon="32.8285864">
<ele>1134.76</ele>
<time>2015-04-29T07:19:25Z</time>
</trkpt>
<trkpt lat="34.9655540" lon="32.8286370">
<ele>1135.76</ele>
<time>2015-04-29T07:19:29Z</time>
</trkpt>
<trkpt lat="34.9655172" lon="32.8286699">
<ele>1136.64</ele>
<time>2015-04-29T07:19:32Z</time>
</trkpt>
<trkpt lat="34.9654804" lon="32.8287038">
<ele>1136.74</ele>
<time>2015-04-29T07:19:35Z</time>
</trkpt>
<trkpt lat="34.9654403" lon="32.8287436">
<ele>1136.76</ele>
<time>2015-04-29T07:19:38Z</time>
</trkpt>
<trkpt lat="34.9653954" lon="32.8287793">
<ele>1136.76</ele>
<time>2015-04-29T07:19:41Z</time>
</trkpt>
<trkpt lat="34.9653566" lon="32.8288085">
<ele>1138.64</ele>
<time>2015-04-29T07:19:44Z</time>
</trkpt>
<trkpt lat="34.9653206" lon="32.8288414">
<ele>1140.87</ele>
<time>2015-04-29T07:19:47Z</time>
</trkpt>
<trkpt lat="34.9652823" lon="32.8288713">
<ele>1142.15</ele>
<time>2015-04-29T07:19:50Z</time>
</trkpt>
<trkpt lat="34.9652427" lon="32.8288985">
<ele>1143.43</ele>
<time>2015-04-29T07:19:53Z</time>
</trkpt>
<trkpt lat="34.9652145" lon="32.8289468">
<ele>1143.72</ele>
<time>2015-04-29T07:19:56Z</time>
</trkpt>
<trkpt lat="34.9651680" lon="32.8289891">
<ele>1143.26</ele>
<time>2015-04-29T07:20:00Z</time>
</trkpt>
<trkpt lat="34.9651187" lon="32.8290324">
<ele>1142.79</ele>
<time>2015-04-29T07:20:04Z</time>
</trkpt>
<trkpt lat="34.9650709" lon="32.8290659">
<ele>1142.64</ele>
<time>2015-04-29T07:20:08Z</time>
</trkpt>
<trkpt lat="34.9650252" lon="32.8290905">
<ele>1144.50</ele>
<time>2015-04-29T07:20:12Z</time>
</trkpt>
<trkpt lat="34.9649737" lon="32.8291194">
<ele>1143.29</ele>
<time>2015-04-29T07:20:18Z</time>
</trkpt>
<trkpt lat="34.9649241" lon="32.8291248">
<ele>1141.58</ele>
<time>2015-04-29T07:20:21Z</time>
</trkpt>
<trkpt lat="34.9648754" lon="32.8291202">
<ele>1140.11</ele>
<time>2015-04-29T07:20:24Z</time>
</trkpt>
<trkpt lat="34.9648164" lon="32.8291164">
<ele>1138.34</ele>
<time>2015-04-29T07:20:28Z</time>
</trkpt>
<trkpt lat="34.9647619" lon="32.8291093">
<ele>1138.30</ele>
<time>2015-04-29T07:20:32Z</time>
</trkpt>
<trkpt lat="34.9647170" lon="32.8290911">
<ele>1139.95</ele>
<time>2015-04-29T07:20:35Z</time>
</trkpt>
<trkpt lat="34.9646700" lon="32.8290719">
<ele>1140.16</ele>
<time>2015-04-29T07:20:38Z</time>
</trkpt>
<trkpt lat="34.9646209" lon="32.8290550">
<ele>1140.18</ele>
<time>2015-04-29T07:20:41Z</time>
</trkpt>
<trkpt lat="34.9645731" lon="32.8290249">
<ele>1140.94</ele>
<time>2015-04-29T07:20:44Z</time>
</trkpt>
<trkpt lat="34.9645254" lon="32.8290008">
<ele>1141.66</ele>
<time>2015-04-29T07:20:47Z</time>
</trkpt>
<trkpt lat="34.9644754" lon="32.8289844">
<ele>1141.87</ele>
<time>2015-04-29T07:20:50Z</time>
</trkpt>
<trkpt lat="34.9644283" lon="32.8289733">
<ele>1141.77</ele>
<time>2015-04-29T07:20:53Z</time>
</trkpt>
<trkpt lat="34.9643862" lon="32.8289531">
<ele>1140.01</ele>
<time>2015-04-29T07:20:56Z</time>
</trkpt>
<trkpt lat="34.9643302" lon="32.8289391">
<ele>1139.21</ele>
<time>2015-04-29T07:21:00Z</time>
</trkpt>
<trkpt lat="34.9642739" lon="32.8289322">
<ele>1138.16</ele>
<time>2015-04-29T07:21:04Z</time>
</trkpt>
<trkpt lat="34.9642246" lon="32.8289317">
<ele>1139.44</ele>
<time>2015-04-29T07:21:07Z</time>
</trkpt>
<trkpt lat="34.9641725" lon="32.8289289">
<ele>1140.47</ele>
<time>2015-04-29T07:21:10Z</time>
</trkpt>
<trkpt lat="34.9641258" lon="32.8289312">
<ele>1140.72</ele>
<time>2015-04-29T07:21:13Z</time>
</trkpt>
<trkpt lat="34.9640766" lon="32.8289336">
<ele>1140.76</ele>
<time>2015-04-29T07:21:16Z</time>
</trkpt>
<trkpt lat="34.9640201" lon="32.8289406">
<ele>1140.88</ele>
<time>2015-04-29T07:21:19Z</time>
</trkpt>
<trkpt lat="34.9639654" lon="32.8289317">
<ele>1141.53</ele>
<time>2015-04-29T07:21:22Z</time>
</trkpt>
<trkpt lat="34.9639075" lon="32.8289318">
<ele>1142.36</ele>
<time>2015-04-29T07:21:25Z</time>
</trkpt>
<trkpt lat="34.9638566" lon="32.8289244">
<ele>1142.71</ele>
<time>2015-04-29T07:21:28Z</time>
</trkpt>
<trkpt lat="34.9637968" lon="32.8289126">
<ele>1142.19</ele>
<time>2015-04-29T07:21:32Z</time>
</trkpt>
<trkpt lat="34.9637474" lon="32.8289161">
<ele>1141.06</ele>
<time>2015-04-29T07:21:35Z</time>
</trkpt>
<trkpt lat="34.9636995" lon="32.8289175">
<ele>1144.42</ele>
<time>2015-04-29T07:21:38Z</time>
</trkpt>
<trkpt lat="34.9636525" lon="32.8289208">
<ele>1144.22</ele>
<time>2015-04-29T07:21:41Z</time>
</trkpt>
<trkpt lat="34.9636034" lon="32.8289157">
<ele>1144.94</ele>
<time>2015-04-29T07:21:44Z</time>
</trkpt>
<trkpt lat="34.9635484" lon="32.8289199">
<ele>1146.91</ele>
<time>2015-04-29T07:21:47Z</time>
</trkpt>
<trkpt lat="34.9634988" lon="32.8289186">
<ele>1146.78</ele>
<time>2015-04-29T07:21:50Z</time>
</trkpt>
<trkpt lat="34.9634414" lon="32.8289295">
<ele>1149.01</ele>
<time>2015-04-29T07:21:54Z</time>
</trkpt>
<trkpt lat="34.9633794" lon="32.8289340">
<ele>1148.78</ele>
<time>2015-04-29T07:21:58Z</time>
</trkpt>
<trkpt lat="34.9633284" lon="32.8289428">
<ele>1149.89</ele>
<time>2015-04-29T07:22:01Z</time>
</trkpt>
<trkpt lat="34.9632661" lon="32.8289653">
<ele>1152.39</ele>
<time>2015-04-29T07:22:05Z</time>
</trkpt>
<trkpt lat="34.9632060" lon="32.8289708">
<ele>1152.84</ele>
<time>2015-04-29T07:22:08Z</time>
</trkpt>
<trkpt lat="34.9631478" lon="32.8289822">
<ele>1153.64</ele>
<time>2015-04-29T07:22:11Z</time>
</trkpt>
<trkpt lat="34.9630936" lon="32.8289897">
<ele>1153.00</ele>
<time>2015-04-29T07:22:14Z</time>
</trkpt>
<trkpt lat="34.9630480" lon="32.8289903">
<ele>1152.79</ele>
<time>2015-04-29T07:22:17Z</time>
</trkpt>
<trkpt lat="34.9630017" lon="32.8289906">
<ele>1153.14</ele>
<time>2015-04-29T07:22:20Z</time>
</trkpt>
<trkpt lat="34.9629560" lon="32.8289883">
<ele>1152.81</ele>
<time>2015-04-29T07:22:23Z</time>
</trkpt>
<trkpt lat="34.9629027" lon="32.8289693">
<ele>1153.20</ele>
<time>2015-04-29T07:22:27Z</time>
</trkpt>
<trkpt lat="34.9628576" lon="32.8289568">
<ele>1154.57</ele>
<time>2015-04-29T07:22:30Z</time>
</trkpt>
<trkpt lat="34.9628095" lon="32.8289421">
<ele>1154.74</ele>
<time>2015-04-29T07:22:33Z</time>
</trkpt>
<trkpt lat="34.9627662" lon="32.8289237">
<ele>1156.13</ele>
<time>2015-04-29T07:22:36Z</time>
</trkpt>
<trkpt lat="34.9627103" lon="32.8289034">
<ele>1155.78</ele>
<time>2015-04-29T07:22:40Z</time>
</trkpt>
<trkpt lat="34.9626608" lon="32.8289007">
<ele>1155.76</ele>
<time>2015-04-29T07:22:43Z</time>
</trkpt>
<trkpt lat="34.9626108" lon="32.8288943">
<ele>1156.51</ele>
<time>2015-04-29T07:22:46Z</time>
</trkpt>
<trkpt lat="34.9625552" lon="32.8288985">
<ele>1158.10</ele>
<time>2015-04-29T07:22:49Z</time>
</trkpt>
<trkpt lat="34.9624996" lon="32.8289022">
<ele>1158.68</ele>
<time>2015-04-29T07:22:52Z</time>
</trkpt>
<trkpt lat="34.9624490" lon="32.8289140">
<ele>1159.00</ele>
<time>2015-04-29T07:22:55Z</time>
</trkpt>
<trkpt lat="34.9624009" lon="32.8289227">
<ele>1158.79</ele>
<time>2015-04-29T07:22:58Z</time>
</trkpt>
<trkpt lat="34.9623551" lon="32.8289311">
<ele>1159.51</ele>
<time>2015-04-29T07:23:01Z</time>
</trkpt>
<trkpt lat="34.9623084" lon="32.8289405">
<ele>1159.73</ele>
<time>2015-04-29T07:23:04Z</time>
</trkpt>
<trkpt lat="34.9622606" lon="32.8289342">
<ele>1160.51</ele>
<time>2015-04-29T07:23:07Z</time>
</trkpt>
<trkpt lat="34.9622018" lon="32.8289398">
<ele>1160.74</ele>
<time>2015-04-29T07:23:11Z</time>
</trkpt>
<trkpt lat="34.9621516" lon="32.8289452">
<ele>1161.63</ele>
<time>2015-04-29T07:23:14Z</time>
</trkpt>
<trkpt lat="34.9620990" lon="32.8289553">
<ele>1162.62</ele>
<time>2015-04-29T07:23:17Z</time>
</trkpt>
<trkpt lat="34.9620506" lon="32.8289632">
<ele>1162.74</ele>
<time>2015-04-29T07:23:20Z</time>
</trkpt>
<trkpt lat="34.9619995" lon="32.8289708">
<ele>1162.76</ele>
<time>2015-04-29T07:23:23Z</time>
</trkpt>
<trkpt lat="34.9619502" lon="32.8289705">
<ele>1164.13</ele>
<time>2015-04-29T07:23:26Z</time>
</trkpt>
<trkpt lat="34.9618910" lon="32.8289628">
<ele>1163.66</ele>
<time>2015-04-29T07:23:30Z</time>
</trkpt>
<trkpt lat="34.9618378" lon="32.8289490">
<ele>1165.24</ele>
<time>2015-04-29T07:23:37Z</time>
</trkpt>
<trkpt lat="34.9617915" lon="32.8289389">
<ele>1167.42</ele>
<time>2015-04-29T07:23:41Z</time>
</trkpt>
<trkpt lat="34.9617566" lon="32.8288924">
<ele>1168.24</ele>
<time>2015-04-29T07:23:45Z</time>
</trkpt>
<trkpt lat="34.9617556" lon="32.8288297">
<ele>1167.73</ele>
<time>2015-04-29T07:23:49Z</time>
</trkpt>
<trkpt lat="34.9617781" lon="32.8287776">
<ele>1170.70</ele>
<time>2015-04-29T07:23:54Z</time>
</trkpt>
<trkpt lat="34.9618225" lon="32.8287603">
<ele>1171.32</ele>
<time>2015-04-29T07:23:58Z</time>
</trkpt>
<trkpt lat="34.9618699" lon="32.8287541">
<ele>1171.08</ele>
<time>2015-04-29T07:24:01Z</time>
</trkpt>
<trkpt lat="34.9619280" lon="32.8287496">
<ele>1170.67</ele>
<time>2015-04-29T07:24:04Z</time>
</trkpt>
<trkpt lat="34.9619934" lon="32.8287395">
<ele>1170.25</ele>
<time>2015-04-29T07:24:07Z</time>
</trkpt>
<trkpt lat="34.9620435" lon="32.8287348">
<ele>1172.63</ele>
<time>2015-04-29T07:24:09Z</time>
</trkpt>
<trkpt lat="34.9621061" lon="32.8287212">
<ele>1172.74</ele>
<time>2015-04-29T07:24:12Z</time>
</trkpt>
<trkpt lat="34.9621483" lon="32.8287000">
<ele>1173.13</ele>
<time>2015-04-29T07:24:15Z</time>
</trkpt>
<trkpt lat="34.9621885" lon="32.8286666">
<ele>1174.56</ele>
<time>2015-04-29T07:24:18Z</time>
</trkpt>
<trkpt lat="34.9622265" lon="32.8286148">
<ele>1175.25</ele>
<time>2015-04-29T07:24:22Z</time>
</trkpt>
<trkpt lat="34.9622601" lon="32.8285527">
<ele>1174.73</ele>
<time>2015-04-29T07:24:26Z</time>
</trkpt>
<trkpt lat="34.9622965" lon="32.8285190">
<ele>1175.38</ele>
<time>2015-04-29T07:24:29Z</time>
</trkpt>
<trkpt lat="34.9623425" lon="32.8285110">
<ele>1175.34</ele>
<time>2015-04-29T07:24:32Z</time>
</trkpt>
<trkpt lat="34.9623998" lon="32.8285135">
<ele>1174.86</ele>
<time>2015-04-29T07:24:36Z</time>
</trkpt>
<trkpt lat="34.9624441" lon="32.8285293">
<ele>1173.02</ele>
<time>2015-04-29T07:24:39Z</time>
</trkpt>
<trkpt lat="34.9624997" lon="32.8285187">
<ele>1171.53</ele>
<time>2015-04-29T07:24:43Z</time>
</trkpt>
<trkpt lat="34.9625579" lon="32.8285146">
<ele>1172.62</ele>
<time>2015-04-29T07:24:47Z</time>
</trkpt>
<trkpt lat="34.9626155" lon="32.8285186">
<ele>1174.13</ele>
<time>2015-04-29T07:24:51Z</time>
</trkpt>
<trkpt lat="34.9626603" lon="32.8285068">
<ele>1172.35</ele>
<time>2015-04-29T07:24:53Z</time>
</trkpt>
<trkpt lat="34.9627067" lon="32.8284959">
<ele>1171.16</ele>
<time>2015-04-29T07:24:55Z</time>
</trkpt>
<trkpt lat="34.9627408" lon="32.8285327">
<ele>1169.22</ele>
<time>2015-04-29T07:24:59Z</time>
</trkpt>
<trkpt lat="34.9627901" lon="32.8285306">
<ele>1169.57</ele>
<time>2015-04-29T07:25:02Z</time>
</trkpt>
<trkpt lat="34.9628484" lon="32.8285104">
<ele>1170.36</ele>
<time>2015-04-29T07:25:05Z</time>
</trkpt>
<trkpt lat="34.9629093" lon="32.8284928">
<ele>1171.21</ele>
<time>2015-04-29T07:25:08Z</time>
</trkpt>
<trkpt lat="34.9629658" lon="32.8284759">
<ele>1172.44</ele>
<time>2015-04-29T07:25:11Z</time>
</trkpt>
<trkpt lat="34.9630172" lon="32.8284597">
<ele>1173.93</ele>
<time>2015-04-29T07:25:13Z</time>
</trkpt>
<trkpt lat="34.9630814" lon="32.8284506">
<ele>1176.28</ele>
<time>2015-04-29T07:25:16Z</time>
</trkpt>
<trkpt lat="34.9631450" lon="32.8284462">
<ele>1176.70</ele>
<time>2015-04-29T07:25:19Z</time>
</trkpt>
<trkpt lat="34.9631962" lon="32.8284323">
<ele>1175.74</ele>
<time>2015-04-29T07:25:21Z</time>
</trkpt>
<trkpt lat="34.9632578" lon="32.8284222">
<ele>1176.76</ele>
<time>2015-04-29T07:25:24Z</time>
</trkpt>
<trkpt lat="34.9633148" lon="32.8284161">
<ele>1178.38</ele>
<time>2015-04-29T07:25:27Z</time>
</trkpt>
<trkpt lat="34.9633667" lon="32.8284135">
<ele>1178.71</ele>
<time>2015-04-29T07:25:30Z</time>
</trkpt>
<trkpt lat="34.9634173" lon="32.8284012">
<ele>1178.00</ele>
<time>2015-04-29T07:25:33Z</time>
</trkpt>
<trkpt lat="34.9634688" lon="32.8283851">
<ele>1178.54</ele>
<time>2015-04-29T07:25:36Z</time>
</trkpt>
<trkpt lat="34.9635347" lon="32.8283750">
<ele>1181.23</ele>
<time>2015-04-29T07:25:39Z</time>
</trkpt>
<trkpt lat="34.9635853" lon="32.8283682">
<ele>1182.13</ele>
<time>2015-04-29T07:25:41Z</time>
</trkpt>
<trkpt lat="34.9636373" lon="32.8283632">
<ele>1182.10</ele>
<time>2015-04-29T07:25:43Z</time>
</trkpt>
<trkpt lat="34.9636886" lon="32.8283676">
<ele>1183.10</ele>
<time>2015-04-29T07:25:45Z</time>
</trkpt>
<trkpt lat="34.9637357" lon="32.8283750">
<ele>1183.09</ele>
<time>2015-04-29T07:25:47Z</time>
</trkpt>
<trkpt lat="34.9637858" lon="32.8283809">
<ele>1184.09</ele>
<time>2015-04-29T07:25:49Z</time>
</trkpt>
<trkpt lat="34.9638468" lon="32.8283801">
<ele>1184.18</ele>
<time>2015-04-29T07:25:52Z</time>
</trkpt>
<trkpt lat="34.9638944" lon="32.8283566">
<ele>1182.41</ele>
<time>2015-04-29T07:25:56Z</time>
</trkpt>
<trkpt lat="34.9639068" lon="32.8282972">
<ele>1185.24</ele>
<time>2015-04-29T07:26:00Z</time>
</trkpt>
<trkpt lat="34.9638597" lon="32.8282731">
<ele>1183.91</ele>
<time>2015-04-29T07:26:04Z</time>
</trkpt>
<trkpt lat="34.9638084" lon="32.8282666">
<ele>1184.52</ele>
<time>2015-04-29T07:26:08Z</time>
</trkpt>
<trkpt lat="34.9637627" lon="32.8282616">
<ele>1187.81</ele>
<time>2015-04-29T07:26:12Z</time>
</trkpt>
<trkpt lat="34.9637070" lon="32.8282648">
<ele>1187.95</ele>
<time>2015-04-29T07:26:16Z</time>
</trkpt>
<trkpt lat="34.9636617" lon="32.8282694">
<ele>1186.41</ele>
<time>2015-04-29T07:26:19Z</time>
</trkpt>
<trkpt lat="34.9636154" lon="32.8282698">
<ele>1186.59</ele>
<time>2015-04-29T07:26:22Z</time>
</trkpt>
<trkpt lat="34.9635624" lon="32.8282883">
<ele>1187.62</ele>
<time>2015-04-29T07:26:26Z</time>
</trkpt>
<trkpt lat="34.9635040" lon="32.8282969">
<ele>1189.44</ele>
<time>2015-04-29T07:26:30Z</time>
</trkpt>
<trkpt lat="34.9634607" lon="32.8282786">
<ele>1189.72</ele>
<time>2015-04-29T07:26:33Z</time>
</trkpt>
<trkpt lat="34.9634155" lon="32.8282835">
<ele>1189.63</ele>
<time>2015-04-29T07:26:36Z</time>
</trkpt>
<trkpt lat="34.9633734" lon="32.8283034">
<ele>1189.24</ele>
<time>2015-04-29T07:26:39Z</time>
</trkpt>
<trkpt lat="34.9633181" lon="32.8282876">
<ele>1188.35</ele>
<time>2015-04-29T07:26:43Z</time>
</trkpt>
<trkpt lat="34.9632729" lon="32.8282847">
<ele>1189.58</ele>
<time>2015-04-29T07:26:46Z</time>
</trkpt>
<trkpt lat="34.9632208" lon="32.8282714">
<ele>1187.81</ele>
<time>2015-04-29T07:26:50Z</time>
</trkpt>
<trkpt lat="34.9631728" lon="32.8282768">
<ele>1189.20</ele>
<time>2015-04-29T07:26:54Z</time>
</trkpt>
<trkpt lat="34.9631243" lon="32.8282755">
<ele>1190.94</ele>
<time>2015-04-29T07:26:57Z</time>
</trkpt>
<trkpt lat="34.9630767" lon="32.8282582">
<ele>1191.03</ele>
<time>2015-04-29T07:27:00Z</time>
</trkpt>
<trkpt lat="34.9630206" lon="32.8282348">
<ele>1191.09</ele>
<time>2015-04-29T07:27:04Z</time>
</trkpt>
<trkpt lat="34.9629714" lon="32.8282099">
<ele>1191.66</ele>
<time>2015-04-29T07:27:08Z</time>
</trkpt>
<trkpt lat="34.9629248" lon="32.8281831">
<ele>1191.75</ele>
<time>2015-04-29T07:27:12Z</time>
</trkpt>
<trkpt lat="34.9628751" lon="32.8281648">
<ele>1191.38</ele>
<time>2015-04-29T07:27:16Z</time>
</trkpt>
<trkpt lat="34.9628280" lon="32.8281315">
<ele>1191.74</ele>
<time>2015-04-29T07:27:20Z</time>
</trkpt>
<trkpt lat="34.9627743" lon="32.8281246">
<ele>1191.88</ele>
<time>2015-04-29T07:27:24Z</time>
</trkpt>
<trkpt lat="34.9627165" lon="32.8281028">
<ele>1191.83</ele>
<time>2015-04-29T07:27:28Z</time>
</trkpt>
<trkpt lat="34.9626658" lon="32.8280759">
<ele>1190.83</ele>
<time>2015-04-29T07:27:32Z</time>
</trkpt>
<trkpt lat="34.9626205" lon="32.8280425">
<ele>1189.45</ele>
<time>2015-04-29T07:27:36Z</time>
</trkpt>
<trkpt lat="34.9625714" lon="32.8280107">
<ele>1188.37</ele>
<time>2015-04-29T07:27:40Z</time>
</trkpt>
<trkpt lat="34.9625298" lon="32.8279876">
<ele>1187.96</ele>
<time>2015-04-29T07:27:43Z</time>
</trkpt>
<trkpt lat="34.9624822" lon="32.8279642">
<ele>1191.04</ele>
<time>2015-04-29T07:27:46Z</time>
</trkpt>
<trkpt lat="34.9624321" lon="32.8279533">
<ele>1193.29</ele>
<time>2015-04-29T07:27:49Z</time>
</trkpt>
<trkpt lat="34.9623783" lon="32.8279574">
<ele>1195.33</ele>
<time>2015-04-29T07:27:52Z</time>
</trkpt>
<trkpt lat="34.9623326" lon="32.8279528">
<ele>1195.08</ele>
<time>2015-04-29T07:27:55Z</time>
</trkpt>
<trkpt lat="34.9622825" lon="32.8279397">
<ele>1194.93</ele>
<time>2015-04-29T07:27:58Z</time>
</trkpt>
<trkpt lat="34.9622286" lon="32.8279368">
<ele>1196.41</ele>
<time>2015-04-29T07:28:01Z</time>
</trkpt>
<trkpt lat="34.9621701" lon="32.8279425">
<ele>1200.59</ele>
<time>2015-04-29T07:28:04Z</time>
</trkpt>
<trkpt lat="34.9621237" lon="32.8279419">
<ele>1200.36</ele>
<time>2015-04-29T07:28:07Z</time>
</trkpt>
<trkpt lat="34.9620652" lon="32.8279412">
<ele>1200.30</ele>
<time>2015-04-29T07:28:11Z</time>
</trkpt>
<trkpt lat="34.9620218" lon="32.8279559">
<ele>1202.08</ele>
<time>2015-04-29T07:28:14Z</time>
</trkpt>
<trkpt lat="34.9619697" lon="32.8279752">
<ele>1200.84</ele>
<time>2015-04-29T07:28:18Z</time>
</trkpt>
<trkpt lat="34.9619148" lon="32.8279782">
<ele>1200.45</ele>
<time>2015-04-29T07:28:22Z</time>
</trkpt>
<trkpt lat="34.9618563" lon="32.8279896">
<ele>1202.18</ele>
<time>2015-04-29T07:28:26Z</time>
</trkpt>
<trkpt lat="34.9618110" lon="32.8279830">
<ele>1202.69</ele>
<time>2015-04-29T07:28:29Z</time>
</trkpt>
<trkpt lat="34.9617538" lon="32.8279699">
<ele>1199.88</ele>
<time>2015-04-29T07:28:33Z</time>
</trkpt>
<trkpt lat="34.9617055" lon="32.8279498">
<ele>1199.58</ele>
<time>2015-04-29T07:28:37Z</time>
</trkpt>
<trkpt lat="34.9616532" lon="32.8279344">
<ele>1200.69</ele>
<time>2015-04-29T07:28:41Z</time>
</trkpt>
<trkpt lat="34.9615978" lon="32.8279275">
<ele>1203.32</ele>
<time>2015-04-29T07:28:45Z</time>
</trkpt>
<trkpt lat="34.9615512" lon="32.8279203">
<ele>1205.08</ele>
<time>2015-04-29T07:28:48Z</time>
</trkpt>
<trkpt lat="34.9615071" lon="32.8279041">
<ele>1205.55</ele>
<time>2015-04-29T07:28:51Z</time>
</trkpt>
<trkpt lat="34.9614566" lon="32.8278796">
<ele>1203.25</ele>
<time>2015-04-29T07:28:55Z</time>
</trkpt>
<trkpt lat="34.9614125" lon="32.8278409">
<ele>1202.85</ele>
<time>2015-04-29T07:28:59Z</time>
</trkpt>
<trkpt lat="34.9613694" lon="32.8277972">
<ele>1202.39</ele>
<time>2015-04-29T07:29:03Z</time>
</trkpt>
<trkpt lat="34.9613222" lon="32.8277752">
<ele>1204.09</ele>
<time>2015-04-29T07:29:06Z</time>
</trkpt>
<trkpt lat="34.9612745" lon="32.8277510">
<ele>1204.80</ele>
<time>2015-04-29T07:29:09Z</time>
</trkpt>
<trkpt lat="34.9612346" lon="32.8277183">
<ele>1204.02</ele>
<time>2015-04-29T07:29:12Z</time>
</trkpt>
<trkpt lat="34.9611960" lon="32.8276654">
<ele>1204.96</ele>
<time>2015-04-29T07:29:16Z</time>
</trkpt>
<trkpt lat="34.9611515" lon="32.8276370">
<ele>1206.04</ele>
<time>2015-04-29T07:29:19Z</time>
</trkpt>
<trkpt lat="34.9611065" lon="32.8275970">
<ele>1204.92</ele>
<time>2015-04-29T07:29:22Z</time>
</trkpt>
<trkpt lat="34.9610624" lon="32.8275580">
<ele>1204.90</ele>
<time>2015-04-29T07:29:25Z</time>
</trkpt>
<trkpt lat="34.9610318" lon="32.8275131">
<ele>1204.78</ele>
<time>2015-04-29T07:29:28Z</time>
</trkpt>
<trkpt lat="34.9609975" lon="32.8274554">
<ele>1206.20</ele>
<time>2015-04-29T07:29:32Z</time>
</trkpt>
<trkpt lat="34.9609560" lon="32.8274051">
<ele>1208.91</ele>
<time>2015-04-29T07:29:36Z</time>
</trkpt>
<trkpt lat="34.9609041" lon="32.8273816">
<ele>1210.03</ele>
<time>2015-04-29T07:29:39Z</time>
</trkpt>
<trkpt lat="34.9608495" lon="32.8273624">
<ele>1210.92</ele>
<time>2015-04-29T07:29:42Z</time>
</trkpt>
<trkpt lat="34.9607967" lon="32.8273330">
<ele>1212.15</ele>
<time>2015-04-29T07:29:45Z</time>
</trkpt>
<trkpt lat="34.9607582" lon="32.8272828">
<ele>1210.41</ele>
<time>2015-04-29T07:29:49Z</time>
</trkpt>
<trkpt lat="34.9607458" lon="32.8272252">
<ele>1210.24</ele>
<time>2015-04-29T07:29:53Z</time>
</trkpt>
<trkpt lat="34.9607195" lon="32.8271800">
<ele>1211.48</ele>
<time>2015-04-29T07:29:57Z</time>
</trkpt>
<trkpt lat="34.9606696" lon="32.8271567">
<ele>1214.55</ele>
<time>2015-04-29T07:30:01Z</time>
</trkpt>
<trkpt lat="34.9606268" lon="32.8271324">
<ele>1214.87</ele>
<time>2015-04-29T07:30:05Z</time>
</trkpt>
<trkpt lat="34.9605726" lon="32.8271144">
<ele>1212.39</ele>
<time>2015-04-29T07:30:09Z</time>
</trkpt>
<trkpt lat="34.9605098" lon="32.8271168">
<ele>1212.86</ele>
<time>2015-04-29T07:30:13Z</time>
</trkpt>
<trkpt lat="34.9604591" lon="32.8271257">
<ele>1213.65</ele>
<time>2015-04-29T07:30:16Z</time>
</trkpt>
<trkpt lat="34.9604042" lon="32.8271333">
<ele>1216.32</ele>
<time>2015-04-29T07:30:20Z</time>
</trkpt>
<trkpt lat="34.9603564" lon="32.8271390">
<ele>1218.08</ele>
<time>2015-04-29T07:30:23Z</time>
</trkpt>
<trkpt lat="34.9603050" lon="32.8271363">
<ele>1217.80</ele>
<time>2015-04-29T07:30:26Z</time>
</trkpt>
<trkpt lat="34.9602565" lon="32.8271270">
<ele>1217.39</ele>
<time>2015-04-29T07:30:29Z</time>
</trkpt>
<trkpt lat="34.9602083" lon="32.8271187">
<ele>1216.34</ele>
<time>2015-04-29T07:30:32Z</time>
</trkpt>
<trkpt lat="34.9601600" lon="32.8271104">
<ele>1216.58</ele>
<time>2015-04-29T07:30:35Z</time>
</trkpt>
<trkpt lat="34.9601128" lon="32.8270986">
<ele>1217.24</ele>
<time>2015-04-29T07:30:38Z</time>
</trkpt>
<trkpt lat="34.9600634" lon="32.8270810">
<ele>1217.69</ele>
<time>2015-04-29T07:30:41Z</time>
</trkpt>
<trkpt lat="34.9600175" lon="32.8270709">
<ele>1219.00</ele>
<time>2015-04-29T07:30:44Z</time>
</trkpt>
<trkpt lat="34.9599671" lon="32.8270643">
<ele>1217.92</ele>
<time>2015-04-29T07:30:47Z</time>
</trkpt>
<trkpt lat="34.9599200" lon="32.8270479">
<ele>1218.28</ele>
<time>2015-04-29T07:30:50Z</time>
</trkpt>
<trkpt lat="34.9598679" lon="32.8270400">
<ele>1218.73</ele>
<time>2015-04-29T07:30:54Z</time>
</trkpt>
<trkpt lat="34.9598185" lon="32.8270144">
<ele>1215.58</ele>
<time>2015-04-29T07:31:03Z</time>
</trkpt>
<trkpt lat="34.9597618" lon="32.8270157">
<ele>1216.19</ele>
<time>2015-04-29T07:31:07Z</time>
</trkpt>
<trkpt lat="34.9597039" lon="32.8270338">
<ele>1217.47</ele>
<time>2015-04-29T07:31:11Z</time>
</trkpt>
<trkpt lat="34.9596576" lon="32.8270547">
<ele>1215.85</ele>
<time>2015-04-29T07:31:14Z</time>
</trkpt>
<trkpt lat="34.9596105" lon="32.8270900">
<ele>1216.52</ele>
<time>2015-04-29T07:31:17Z</time>
</trkpt>
<trkpt lat="34.9595723" lon="32.8271372">
<ele>1218.86</ele>
<time>2015-04-29T07:31:20Z</time>
</trkpt>
<trkpt lat="34.9595438" lon="32.8271845">
<ele>1219.90</ele>
<time>2015-04-29T07:31:23Z</time>
</trkpt>
<trkpt lat="34.9595191" lon="32.8272356">
<ele>1219.90</ele>
<time>2015-04-29T07:31:26Z</time>
</trkpt>
<trkpt lat="34.9595140" lon="32.8272903">
<ele>1220.28</ele>
<time>2015-04-29T07:31:29Z</time>
</trkpt>
<trkpt lat="34.9595241" lon="32.8273484">
<ele>1222.07</ele>
<time>2015-04-29T07:31:32Z</time>
</trkpt>
<trkpt lat="34.9595322" lon="32.8274074">
<ele>1220.80</ele>
<time>2015-04-29T07:31:35Z</time>
</trkpt>
<trkpt lat="34.9595225" lon="32.8274668">
<ele>1220.26</ele>
<time>2015-04-29T07:31:38Z</time>
</trkpt>
<trkpt lat="34.9595243" lon="32.8275253">
<ele>1217.32</ele>
<time>2015-04-29T07:31:41Z</time>
</trkpt>
<trkpt lat="34.9595465" lon="32.8275855">
<ele>1216.08</ele>
<time>2015-04-29T07:31:44Z</time>
</trkpt>
<trkpt lat="34.9595730" lon="32.8276522">
<ele>1216.68</ele>
<time>2015-04-29T07:31:47Z</time>
</trkpt>
<trkpt lat="34.9595919" lon="32.8277196">
<ele>1218.87</ele>
<time>2015-04-29T07:31:50Z</time>
</trkpt>
<trkpt lat="34.9596049" lon="32.8277862">
<ele>1219.27</ele>
<time>2015-04-29T07:31:53Z</time>
</trkpt>
<trkpt lat="34.9596074" lon="32.8278511">
<ele>1218.95</ele>
<time>2015-04-29T07:31:56Z</time>
</trkpt>
<trkpt lat="34.9595920" lon="32.8279141">
<ele>1219.66</ele>
<time>2015-04-29T07:31:59Z</time>
</trkpt>
<trkpt lat="34.9595730" lon="32.8279722">
<ele>1221.12</ele>
<time>2015-04-29T07:32:02Z</time>
</trkpt>
<trkpt lat="34.9595544" lon="32.8280245">
<ele>1220.18</ele>
<time>2015-04-29T07:32:05Z</time>
</trkpt>
<trkpt lat="34.9595170" lon="32.8280695">
<ele>1220.10</ele>
<time>2015-04-29T07:32:09Z</time>
</trkpt>
<trkpt lat="34.9594694" lon="32.8281140">
<ele>1222.59</ele>
<time>2015-04-29T07:32:13Z</time>
</trkpt>
<trkpt lat="34.9594243" lon="32.8281458">
<ele>1224.11</ele>
<time>2015-04-29T07:32:16Z</time>
</trkpt>
<trkpt lat="34.9593800" lon="32.8281780">
<ele>1226.68</ele>
<time>2015-04-29T07:32:19Z</time>
</trkpt>
<trkpt lat="34.9593361" lon="32.8282129">
<ele>1227.62</ele>
<time>2015-04-29T07:32:22Z</time>
</trkpt>
<trkpt lat="34.9592865" lon="32.8282379">
<ele>1228.74</ele>
<time>2015-04-29T07:32:25Z</time>
</trkpt>
<trkpt lat="34.9592398" lon="32.8282608">
<ele>1229.51</ele>
<time>2015-04-29T07:32:28Z</time>
</trkpt>
<trkpt lat="34.9592026" lon="32.8282930">
<ele>1230.60</ele>
<time>2015-04-29T07:32:31Z</time>
</trkpt>
<trkpt lat="34.9591669" lon="32.8283405">
<ele>1230.94</ele>
<time>2015-04-29T07:32:35Z</time>
</trkpt>
<trkpt lat="34.9591353" lon="32.8283919">
<ele>1230.91</ele>
<time>2015-04-29T07:32:38Z</time>
</trkpt>
<trkpt lat="34.9591330" lon="32.8284503">
<ele>1232.03</ele>
<time>2015-04-29T07:32:41Z</time>
</trkpt>
<trkpt lat="34.9591538" lon="32.8285016">
<ele>1232.67</ele>
<time>2015-04-29T07:32:44Z</time>
</trkpt>
<trkpt lat="34.9591542" lon="32.8285683">
<ele>1232.00</ele>
<time>2015-04-29T07:32:48Z</time>
</trkpt>
<trkpt lat="34.9591725" lon="32.8286329">
<ele>1230.09</ele>
<time>2015-04-29T07:32:52Z</time>
</trkpt>
<trkpt lat="34.9591943" lon="32.8286959">
<ele>1230.34</ele>
<time>2015-04-29T07:32:56Z</time>
</trkpt>
<trkpt lat="34.9592280" lon="32.8287570">
<ele>1232.86</ele>
<time>2015-04-29T07:33:00Z</time>
</trkpt>
<trkpt lat="34.9592320" lon="32.8288183">
<ele>1233.58</ele>
<time>2015-04-29T07:33:04Z</time>
</trkpt>
<trkpt lat="34.9592190" lon="32.8288772">
<ele>1233.94</ele>
<time>2015-04-29T07:33:08Z</time>
</trkpt>
<trkpt lat="34.9591924" lon="32.8289283">
<ele>1234.46</ele>
<time>2015-04-29T07:33:12Z</time>
</trkpt>
<trkpt lat="34.9591627" lon="32.8289839">
<ele>1235.75</ele>
<time>2015-04-29T07:33:17Z</time>
</trkpt>
<trkpt lat="34.9591214" lon="32.8290273">
<ele>1236.32</ele>
<time>2015-04-29T07:33:21Z</time>
</trkpt>
<trkpt lat="34.9590784" lon="32.8290592">
<ele>1236.46</ele>
<time>2015-04-29T07:33:24Z</time>
</trkpt>
<trkpt lat="34.9590225" lon="32.8290823">
<ele>1238.47</ele>
<time>2015-04-29T07:33:27Z</time>
</trkpt>
<trkpt lat="34.9589622" lon="32.8290981">
<ele>1239.97</ele>
<time>2015-04-29T07:33:30Z</time>
</trkpt>
<trkpt lat="34.9589077" lon="32.8291081">
<ele>1241.04</ele>
<time>2015-04-29T07:33:33Z</time>
</trkpt>
<trkpt lat="34.9588579" lon="32.8291197">
<ele>1240.54</ele>
<time>2015-04-29T07:33:36Z</time>
</trkpt>
<trkpt lat="34.9588127" lon="32.8291291">
<ele>1240.73</ele>
<time>2015-04-29T07:33:39Z</time>
</trkpt>
<trkpt lat="34.9587672" lon="32.8291371">
<ele>1240.13</ele>
<time>2015-04-29T07:33:42Z</time>
</trkpt>
<trkpt lat="34.9587178" lon="32.8291502">
<ele>1241.43</ele>
<time>2015-04-29T07:33:45Z</time>
</trkpt>
<trkpt lat="34.9586584" lon="32.8291559">
<ele>1240.74</ele>
<time>2015-04-29T07:33:49Z</time>
</trkpt>
<trkpt lat="34.9586087" lon="32.8291528">
<ele>1241.51</ele>
<time>2015-04-29T07:33:52Z</time>
</trkpt>
<trkpt lat="34.9585564" lon="32.8291559">
<ele>1241.85</ele>
<time>2015-04-29T07:33:55Z</time>
</trkpt>
<trkpt lat="34.9585037" lon="32.8291638">
<ele>1242.65</ele>
<time>2015-04-29T07:33:58Z</time>
</trkpt>
<trkpt lat="34.9584572" lon="32.8291796">
<ele>1242.37</ele>
<time>2015-04-29T07:34:01Z</time>
</trkpt>
<trkpt lat="34.9584082" lon="32.8291887">
<ele>1243.46</ele>
<time>2015-04-29T07:34:04Z</time>
</trkpt>
<trkpt lat="34.9583489" lon="32.8291922">
<ele>1242.55</ele>
<time>2015-04-29T07:34:08Z</time>
</trkpt>
<trkpt lat="34.9582911" lon="32.8291940">
<ele>1242.37</ele>
<time>2015-04-29T07:34:12Z</time>
</trkpt>
<trkpt lat="34.9582339" lon="32.8292176">
<ele>1243.61</ele>
<time>2015-04-29T07:34:16Z</time>
</trkpt>
<trkpt lat="34.9581883" lon="32.8292326">
<ele>1243.24</ele>
<time>2015-04-29T07:34:19Z</time>
</trkpt>
<trkpt lat="34.9581478" lon="32.8292568">
<ele>1241.95</ele>
<time>2015-04-29T07:34:22Z</time>
</trkpt>
<trkpt lat="34.9581088" lon="32.8292859">
<ele>1242.53</ele>
<time>2015-04-29T07:34:25Z</time>
</trkpt>
<trkpt lat="34.9580758" lon="32.8293239">
<ele>1243.36</ele>
<time>2015-04-29T07:34:28Z</time>
</trkpt>
<trkpt lat="34.9580516" lon="32.8293784">
<ele>1243.73</ele>
<time>2015-04-29T07:34:32Z</time>
</trkpt>
<trkpt lat="34.9580315" lon="32.8294412">
<ele>1245.45</ele>
<time>2015-04-29T07:34:36Z</time>
</trkpt>
<trkpt lat="34.9580285" lon="32.8294966">
<ele>1246.10</ele>
<time>2015-04-29T07:34:39Z</time>
</trkpt>
<trkpt lat="34.9580234" lon="32.8295646">
<ele>1247.22</ele>
<time>2015-04-29T07:34:43Z</time>
</trkpt>
<trkpt lat="34.9580178" lon="32.8296200">
<ele>1247.57</ele>
<time>2015-04-29T07:34:46Z</time>
</trkpt>
<trkpt lat="34.9580023" lon="32.8296748">
<ele>1243.99</ele>
<time>2015-04-29T07:34:49Z</time>
</trkpt>
<trkpt lat="34.9579952" lon="32.8297304">
<ele>1243.79</ele>
<time>2015-04-29T07:34:52Z</time>
</trkpt>
<trkpt lat="34.9579998" lon="32.8297888">
<ele>1244.64</ele>
<time>2015-04-29T07:34:55Z</time>
</trkpt>
<trkpt lat="34.9580100" lon="32.8298450">
<ele>1243.74</ele>
<time>2015-04-29T07:34:58Z</time>
</trkpt>
<trkpt lat="34.9580266" lon="32.8299151">
<ele>1245.07</ele>
<time>2015-04-29T07:35:02Z</time>
</trkpt>
<trkpt lat="34.9580547" lon="32.8299662">
<ele>1247.80</ele>
<time>2015-04-29T07:35:05Z</time>
</trkpt>
<trkpt lat="34.9580963" lon="32.8300135">
<ele>1249.01</ele>
<time>2015-04-29T07:35:08Z</time>
</trkpt>
<trkpt lat="34.9581248" lon="32.8300608">
<ele>1249.67</ele>
<time>2015-04-29T07:35:11Z</time>
</trkpt>
<trkpt lat="34.9581524" lon="32.8301044">
<ele>1251.37</ele>
<time>2015-04-29T07:35:14Z</time>
</trkpt>
<trkpt lat="34.9581857" lon="32.8301436">
<ele>1252.46</ele>
<time>2015-04-29T07:35:17Z</time>
</trkpt>
<trkpt lat="34.9582249" lon="32.8301973">
<ele>1254.87</ele>
<time>2015-04-29T07:35:21Z</time>
</trkpt>
<trkpt lat="34.9582609" lon="32.8302538">
<ele>1254.33</ele>
<time>2015-04-29T07:35:25Z</time>
</trkpt>
<trkpt lat="34.9582825" lon="32.8303202">
<ele>1254.73</ele>
<time>2015-04-29T07:35:29Z</time>
</trkpt>
<trkpt lat="34.9582904" lon="32.8303742">
<ele>1255.63</ele>
<time>2015-04-29T07:35:32Z</time>
</trkpt>
<trkpt lat="34.9582990" lon="32.8304455">
<ele>1254.88</ele>
<time>2015-04-29T07:35:36Z</time>
</trkpt>
<trkpt lat="34.9583009" lon="32.8305167">
<ele>1254.58</ele>
<time>2015-04-29T07:35:40Z</time>
</trkpt>
<trkpt lat="34.9583026" lon="32.8305889">
<ele>1256.81</ele>
<time>2015-04-29T07:35:44Z</time>
</trkpt>
<trkpt lat="34.9582990" lon="32.8306588">
<ele>1257.26</ele>
<time>2015-04-29T07:35:48Z</time>
</trkpt>
<trkpt lat="34.9582905" lon="32.8307286">
<ele>1259.85</ele>
<time>2015-04-29T07:35:52Z</time>
</trkpt>
<trkpt lat="34.9582635" lon="32.8307734">
<ele>1260.65</ele>
<time>2015-04-29T07:35:55Z</time>
</trkpt>
<trkpt lat="34.9582175" lon="32.8308072">
<ele>1262.38</ele>
<time>2015-04-29T07:35:59Z</time>
</trkpt>
<trkpt lat="34.9581812" lon="32.8308512">
<ele>1262.17</ele>
<time>2015-04-29T07:36:03Z</time>
</trkpt>
<trkpt lat="34.9581400" lon="32.8308836">
<ele>1262.29</ele>
<time>2015-04-29T07:36:07Z</time>
</trkpt>
<trkpt lat="34.9580897" lon="32.8308996">
<ele>1263.08</ele>
<time>2015-04-29T07:36:10Z</time>
</trkpt>
<trkpt lat="34.9580321" lon="32.8309234">
<ele>1262.05</ele>
<time>2015-04-29T07:36:13Z</time>
</trkpt>
<trkpt lat="34.9579804" lon="32.8309490">
<ele>1261.67</ele>
<time>2015-04-29T07:36:16Z</time>
</trkpt>
<trkpt lat="34.9579361" lon="32.8309674">
<ele>1261.50</ele>
<time>2015-04-29T07:36:19Z</time>
</trkpt>
<trkpt lat="34.9578952" lon="32.8309912">
<ele>1261.10</ele>
<time>2015-04-29T07:36:22Z</time>
</trkpt>
<trkpt lat="34.9578555" lon="32.8310199">
<ele>1261.68</ele>
<time>2015-04-29T07:36:25Z</time>
</trkpt>
<trkpt lat="34.9578099" lon="32.8310410">
<ele>1262.50</ele>
<time>2015-04-29T07:36:28Z</time>
</trkpt>
<trkpt lat="34.9577706" lon="32.8310734">
<ele>1263.60</ele>
<time>2015-04-29T07:36:31Z</time>
</trkpt>
<trkpt lat="34.9577271" lon="32.8311115">
<ele>1263.99</ele>
<time>2015-04-29T07:36:34Z</time>
</trkpt>
<trkpt lat="34.9576881" lon="32.8311520">
<ele>1264.54</ele>
<time>2015-04-29T07:36:37Z</time>
</trkpt>
<trkpt lat="34.9576491" lon="32.8311955">
<ele>1266.23</ele>
<time>2015-04-29T07:36:40Z</time>
</trkpt>
<trkpt lat="34.9576149" lon="32.8312547">
<ele>1266.66</ele>
<time>2015-04-29T07:36:44Z</time>
</trkpt>
<trkpt lat="34.9576026" lon="32.8313096">
<ele>1267.62</ele>
<time>2015-04-29T07:36:47Z</time>
</trkpt>
<trkpt lat="34.9575939" lon="32.8313794">
<ele>1267.69</ele>
<time>2015-04-29T07:36:51Z</time>
</trkpt>
<trkpt lat="34.9575893" lon="32.8314342">
<ele>1269.13</ele>
<time>2015-04-29T07:36:54Z</time>
</trkpt>
<trkpt lat="34.9575728" lon="32.8315023">
<ele>1268.97</ele>
<time>2015-04-29T07:36:58Z</time>
</trkpt>
<trkpt lat="34.9575527" lon="32.8315684">
<ele>1268.90</ele>
<time>2015-04-29T07:37:02Z</time>
</trkpt>
<trkpt lat="34.9575390" lon="32.8316344">
<ele>1269.02</ele>
<time>2015-04-29T07:37:06Z</time>
</trkpt>
<trkpt lat="34.9575194" lon="32.8316920">
<ele>1269.28</ele>
<time>2015-04-29T07:37:10Z</time>
</trkpt>
<trkpt lat="34.9575116" lon="32.8317508">
<ele>1269.73</ele>
<time>2015-04-29T07:37:14Z</time>
</trkpt>
<trkpt lat="34.9574871" lon="32.8318114">
<ele>1270.26</ele>
<time>2015-04-29T07:37:18Z</time>
</trkpt>
<trkpt lat="34.9574669" lon="32.8318634">
<ele>1268.82</ele>
<time>2015-04-29T07:37:21Z</time>
</trkpt>
<trkpt lat="34.9574876" lon="32.8319171">
<ele>1267.95</ele>
<time>2015-04-29T07:37:48Z</time>
</trkpt>
<trkpt lat="34.9574396" lon="32.8319062">
<ele>1270.93</ele>
<time>2015-04-29T07:41:51Z</time>
</trkpt>
<trkpt lat="34.9574329" lon="32.8319624">
<ele>1273.07</ele>
<time>2015-04-29T07:41:58Z</time>
</trkpt>
<trkpt lat="34.9574457" lon="32.8320187">
<ele>1276.10</ele>
<time>2015-04-29T07:42:13Z</time>
</trkpt>
<trkpt lat="34.9574728" lon="32.8320748">
<ele>1276.03</ele>
<time>2015-04-29T07:42:17Z</time>
</trkpt>
<trkpt lat="34.9575174" lon="32.8321136">
<ele>1274.84</ele>
<time>2015-04-29T07:42:21Z</time>
</trkpt>
<trkpt lat="34.9575802" lon="32.8321251">
<ele>1278.08</ele>
<time>2015-04-29T07:42:25Z</time>
</trkpt>
<trkpt lat="34.9576413" lon="32.8321232">
<ele>1280.17</ele>
<time>2015-04-29T07:42:28Z</time>
</trkpt>
<trkpt lat="34.9576952" lon="32.8321255">
<ele>1279.94</ele>
<time>2015-04-29T07:42:31Z</time>
</trkpt>
<trkpt lat="34.9577475" lon="32.8321239">
<ele>1279.28</ele>
<time>2015-04-29T07:42:34Z</time>
</trkpt>
<trkpt lat="34.9577919" lon="32.8321059">
<ele>1278.83</ele>
<time>2015-04-29T07:42:37Z</time>
</trkpt>
<trkpt lat="34.9578502" lon="32.8321013">
<ele>1280.08</ele>
<time>2015-04-29T07:42:41Z</time>
</trkpt>
<trkpt lat="34.9579088" lon="32.8320967">
<ele>1279.78</ele>
<time>2015-04-29T07:42:45Z</time>
</trkpt>
<trkpt lat="34.9579561" lon="32.8320935">
<ele>1278.76</ele>
<time>2015-04-29T07:42:48Z</time>
</trkpt>
<trkpt lat="34.9580057" lon="32.8320999">
<ele>1277.76</ele>
<time>2015-04-29T07:42:51Z</time>
</trkpt>
<trkpt lat="34.9580565" lon="32.8321295">
<ele>1277.76</ele>
<time>2015-04-29T07:42:54Z</time>
</trkpt>
<trkpt lat="34.9580989" lon="32.8321716">
<ele>1279.89</ele>
<time>2015-04-29T07:42:57Z</time>
</trkpt>
<trkpt lat="34.9581347" lon="32.8322186">
<ele>1280.65</ele>
<time>2015-04-29T07:43:00Z</time>
</trkpt>
<trkpt lat="34.9581788" lon="32.8322508">
<ele>1282.50</ele>
<time>2015-04-29T07:43:03Z</time>
</trkpt>
<trkpt lat="34.9582165" lon="32.8322910">
<ele>1284.10</ele>
<time>2015-04-29T07:43:06Z</time>
</trkpt>
<trkpt lat="34.9582564" lon="32.8323326">
<ele>1283.80</ele>
<time>2015-04-29T07:43:09Z</time>
</trkpt>
<trkpt lat="34.9583006" lon="32.8323782">
<ele>1283.77</ele>
<time>2015-04-29T07:43:12Z</time>
</trkpt>
<trkpt lat="34.9583360" lon="32.8324268">
<ele>1283.76</ele>
<time>2015-04-29T07:43:15Z</time>
</trkpt>
<trkpt lat="34.9583736" lon="32.8324742">
<ele>1283.76</ele>
<time>2015-04-29T07:43:18Z</time>
</trkpt>
<trkpt lat="34.9584212" lon="32.8325140">
<ele>1283.89</ele>
<time>2015-04-29T07:43:21Z</time>
</trkpt>
<trkpt lat="34.9584732" lon="32.8325578">
<ele>1283.78</ele>
<time>2015-04-29T07:43:24Z</time>
</trkpt>
<trkpt lat="34.9585063" lon="32.8325955">
<ele>1283.26</ele>
<time>2015-04-29T07:43:26Z</time>
</trkpt>
<trkpt lat="34.9585511" lon="32.8326539">
<ele>1282.07</ele>
<time>2015-04-29T07:43:29Z</time>
</trkpt>
<trkpt lat="34.9585945" lon="32.8327146">
<ele>1282.67</ele>
<time>2015-04-29T07:43:32Z</time>
</trkpt>
<trkpt lat="34.9586402" lon="32.8327650">
<ele>1282.75</ele>
<time>2015-04-29T07:43:35Z</time>
</trkpt>
<trkpt lat="34.9586792" lon="32.8328200">
<ele>1282.76</ele>
<time>2015-04-29T07:43:38Z</time>
</trkpt>
<trkpt lat="34.9587212" lon="32.8328677">
<ele>1282.26</ele>
<time>2015-04-29T07:43:41Z</time>
</trkpt>
<trkpt lat="34.9587619" lon="32.8329248">
<ele>1282.32</ele>
<time>2015-04-29T07:43:44Z</time>
</trkpt>
<trkpt lat="34.9587859" lon="32.8329824">
<ele>1282.71</ele>
<time>2015-04-29T07:43:47Z</time>
</trkpt>
<trkpt lat="34.9588211" lon="32.8330295">
<ele>1282.38</ele>
<time>2015-04-29T07:43:50Z</time>
</trkpt>
<trkpt lat="34.9588517" lon="32.8330833">
<ele>1282.71</ele>
<time>2015-04-29T07:43:53Z</time>
</trkpt>
<trkpt lat="34.9588738" lon="32.8331429">
<ele>1282.75</ele>
<time>2015-04-29T07:43:56Z</time>
</trkpt>
<trkpt lat="34.9588993" lon="32.8332051">
<ele>1284.38</ele>
<time>2015-04-29T07:43:59Z</time>
</trkpt>
<trkpt lat="34.9589262" lon="32.8332698">
<ele>1284.71</ele>
<time>2015-04-29T07:44:02Z</time>
</trkpt>
<trkpt lat="34.9589483" lon="32.8333384">
<ele>1284.88</ele>
<time>2015-04-29T07:44:05Z</time>
</trkpt>
<trkpt lat="34.9589605" lon="32.8334086">
<ele>1284.77</ele>
<time>2015-04-29T07:44:08Z</time>
</trkpt>
<trkpt lat="34.9589690" lon="32.8334768">
<ele>1283.89</ele>
<time>2015-04-29T07:44:11Z</time>
</trkpt>
<trkpt lat="34.9589735" lon="32.8335395">
<ele>1284.40</ele>
<time>2015-04-29T07:44:14Z</time>
</trkpt>
<trkpt lat="34.9589665" lon="32.8336083">
<ele>1282.55</ele>
<time>2015-04-29T07:44:18Z</time>
</trkpt>
<trkpt lat="34.9589617" lon="32.8336814">
<ele>1282.56</ele>
<time>2015-04-29T07:44:22Z</time>
</trkpt>
<trkpt lat="34.9589567" lon="32.8337489">
<ele>1281.87</ele>
<time>2015-04-29T07:44:26Z</time>
</trkpt>
<trkpt lat="34.9589597" lon="32.8338080">
<ele>1283.15</ele>
<time>2015-04-29T07:44:29Z</time>
</trkpt>
<trkpt lat="34.9589770" lon="32.8338704">
<ele>1282.81</ele>
<time>2015-04-29T07:44:32Z</time>
</trkpt>
<trkpt lat="34.9589929" lon="32.8339364">
<ele>1282.77</ele>
<time>2015-04-29T07:44:35Z</time>
</trkpt>
<trkpt lat="34.9590061" lon="32.8340025">
<ele>1284.26</ele>
<time>2015-04-29T07:44:38Z</time>
</trkpt>
<trkpt lat="34.9590126" lon="32.8340668">
<ele>1283.82</ele>
<time>2015-04-29T07:44:41Z</time>
</trkpt>
<trkpt lat="34.9590265" lon="32.8341372">
<ele>1287.39</ele>
<time>2015-04-29T07:44:44Z</time>
</trkpt>
<trkpt lat="34.9590450" lon="32.8342071">
<ele>1288.84</ele>
<time>2015-04-29T07:44:47Z</time>
</trkpt>
<trkpt lat="34.9590502" lon="32.8342684">
<ele>1286.64</ele>
<time>2015-04-29T07:44:50Z</time>
</trkpt>
<trkpt lat="34.9590411" lon="32.8343319">
<ele>1287.50</ele>
<time>2015-04-29T07:44:53Z</time>
</trkpt>
<trkpt lat="34.9590174" lon="32.8343939">
<ele>1288.60</ele>
<time>2015-04-29T07:44:56Z</time>
</trkpt>
<trkpt lat="34.9590011" lon="32.8344511">
<ele>1287.37</ele>
<time>2015-04-29T07:44:59Z</time>
</trkpt>
<trkpt lat="34.9589880" lon="32.8345048">
<ele>1287.84</ele>
<time>2015-04-29T07:45:02Z</time>
</trkpt>
<trkpt lat="34.9589733" lon="32.8345608">
<ele>1289.27</ele>
<time>2015-04-29T07:45:05Z</time>
</trkpt>
<trkpt lat="34.9589451" lon="32.8346096">
<ele>1290.45</ele>
<time>2015-04-29T07:45:08Z</time>
</trkpt>
<trkpt lat="34.9589188" lon="32.8346567">
<ele>1291.22</ele>
<time>2015-04-29T07:45:11Z</time>
</trkpt>
<trkpt lat="34.9589018" lon="32.8347180">
<ele>1291.73</ele>
<time>2015-04-29T07:45:15Z</time>
</trkpt>
<trkpt lat="34.9588808" lon="32.8347752">
<ele>1291.76</ele>
<time>2015-04-29T07:45:19Z</time>
</trkpt>
<trkpt lat="34.9588373" lon="32.8348216">
<ele>1292.13</ele>
<time>2015-04-29T07:45:23Z</time>
</trkpt>
<trkpt lat="34.9588065" lon="32.8348645">
<ele>1290.31</ele>
<time>2015-04-29T07:45:26Z</time>
</trkpt>
<trkpt lat="34.9587738" lon="32.8349046">
<ele>1289.83</ele>
<time>2015-04-29T07:45:29Z</time>
</trkpt>
<trkpt lat="34.9587466" lon="32.8349683">
<ele>1289.14</ele>
<time>2015-04-29T07:45:33Z</time>
</trkpt>
<trkpt lat="34.9587254" lon="32.8350230">
<ele>1290.72</ele>
<time>2015-04-29T07:45:37Z</time>
</trkpt>
<trkpt lat="34.9587137" lon="32.8350825">
<ele>1292.38</ele>
<time>2015-04-29T07:45:41Z</time>
</trkpt>
<trkpt lat="34.9586871" lon="32.8351328">
<ele>1296.30</ele>
<time>2015-04-29T07:45:45Z</time>
</trkpt>
<trkpt lat="34.9586481" lon="32.8351713">
<ele>1296.95</ele>
<time>2015-04-29T07:45:48Z</time>
</trkpt>
<trkpt lat="34.9586137" lon="32.8352186">
<ele>1297.16</ele>
<time>2015-04-29T07:45:51Z</time>
</trkpt>
<trkpt lat="34.9585736" lon="32.8352612">
<ele>1296.81</ele>
<time>2015-04-29T07:45:54Z</time>
</trkpt>
<trkpt lat="34.9585516" lon="32.8353110">
<ele>1295.52</ele>
<time>2015-04-29T07:45:57Z</time>
</trkpt>
<trkpt lat="34.9585535" lon="32.8353728">
<ele>1296.85</ele>
<time>2015-04-29T07:46:00Z</time>
</trkpt>
<trkpt lat="34.9585480" lon="32.8354310">
<ele>1294.52</ele>
<time>2015-04-29T07:46:03Z</time>
</trkpt>
<trkpt lat="34.9585566" lon="32.8354981">
<ele>1294.18</ele>
<time>2015-04-29T07:46:07Z</time>
</trkpt>
<trkpt lat="34.9585837" lon="32.8355515">
<ele>1295.94</ele>
<time>2015-04-29T07:46:10Z</time>
</trkpt>
<trkpt lat="34.9586084" lon="32.8356008">
<ele>1297.28</ele>
<time>2015-04-29T07:46:13Z</time>
</trkpt>
<trkpt lat="34.9586499" lon="32.8356536">
<ele>1297.54</ele>
<time>2015-04-29T07:46:17Z</time>
</trkpt>
<trkpt lat="34.9586947" lon="32.8356858">
<ele>1299.86</ele>
<time>2015-04-29T07:46:20Z</time>
</trkpt>
<trkpt lat="34.9587520" lon="32.8357092">
<ele>1302.90</ele>
<time>2015-04-29T07:46:23Z</time>
</trkpt>
<trkpt lat="34.9588027" lon="32.8357337">
<ele>1302.90</ele>
<time>2015-04-29T07:46:26Z</time>
</trkpt>
<trkpt lat="34.9588448" lon="32.8357565">
<ele>1302.03</ele>
<time>2015-04-29T07:46:29Z</time>
</trkpt>
<trkpt lat="34.9588920" lon="32.8357611">
<ele>1301.54</ele>
<time>2015-04-29T07:46:32Z</time>
</trkpt>
<trkpt lat="34.9589408" lon="32.8357728">
<ele>1301.73</ele>
<time>2015-04-29T07:46:35Z</time>
</trkpt>
<trkpt lat="34.9589970" lon="32.8357848">
<ele>1302.20</ele>
<time>2015-04-29T07:46:39Z</time>
</trkpt>
<trkpt lat="34.9590479" lon="32.8358039">
<ele>1299.97</ele>
<time>2015-04-29T07:46:43Z</time>
</trkpt>
<trkpt lat="34.9591052" lon="32.8358138">
<ele>1300.27</ele>
<time>2015-04-29T07:46:47Z</time>
</trkpt>
<trkpt lat="34.9591600" lon="32.8358345">
<ele>1301.42</ele>
<time>2015-04-29T07:46:51Z</time>
</trkpt>
<trkpt lat="34.9591992" lon="32.8358637">
<ele>1300.97</ele>
<time>2015-04-29T07:46:54Z</time>
</trkpt>
<trkpt lat="34.9592372" lon="32.8358943">
<ele>1300.54</ele>
<time>2015-04-29T07:46:57Z</time>
</trkpt>
<trkpt lat="34.9592734" lon="32.8359322">
<ele>1300.73</ele>
<time>2015-04-29T07:47:00Z</time>
</trkpt>
<trkpt lat="34.9593072" lon="32.8359721">
<ele>1301.26</ele>
<time>2015-04-29T07:47:03Z</time>
</trkpt>
<trkpt lat="34.9593406" lon="32.8360122">
<ele>1301.45</ele>
<time>2015-04-29T07:47:06Z</time>
</trkpt>
<trkpt lat="34.9593649" lon="32.8360590">
<ele>1303.10</ele>
<time>2015-04-29T07:47:09Z</time>
</trkpt>
<trkpt lat="34.9593876" lon="32.8361071">
<ele>1304.43</ele>
<time>2015-04-29T07:47:12Z</time>
</trkpt>
<trkpt lat="34.9594168" lon="32.8361732">
<ele>1306.68</ele>
<time>2015-04-29T07:47:16Z</time>
</trkpt>
<trkpt lat="34.9594406" lon="32.8362207">
<ele>1308.00</ele>
<time>2015-04-29T07:47:19Z</time>
</trkpt>
<trkpt lat="34.9594511" lon="32.8362900">
<ele>1310.46</ele>
<time>2015-04-29T07:47:23Z</time>
</trkpt>
<trkpt lat="34.9594611" lon="32.8363545">
<ele>1311.87</ele>
<time>2015-04-29T07:47:27Z</time>
</trkpt>
<trkpt lat="34.9594710" lon="32.8364206">
<ele>1312.20</ele>
<time>2015-04-29T07:47:31Z</time>
</trkpt>
<trkpt lat="34.9594742" lon="32.8364760">
<ele>1312.07</ele>
<time>2015-04-29T07:47:34Z</time>
</trkpt>
<trkpt lat="34.9594784" lon="32.8365425">
<ele>1310.90</ele>
<time>2015-04-29T07:47:38Z</time>
</trkpt>
<trkpt lat="34.9594848" lon="32.8366085">
<ele>1310.77</ele>
<time>2015-04-29T07:47:42Z</time>
</trkpt>
<trkpt lat="34.9595065" lon="32.8366746">
<ele>1311.57</ele>
<time>2015-04-29T07:47:46Z</time>
</trkpt>
<trkpt lat="34.9595236" lon="32.8367257">
<ele>1310.36</ele>
<time>2015-04-29T07:47:49Z</time>
</trkpt>
<trkpt lat="34.9595276" lon="32.8367805">
<ele>1312.34</ele>
<time>2015-04-29T07:47:52Z</time>
</trkpt>
<trkpt lat="34.9595198" lon="32.8368457">
<ele>1311.92</ele>
<time>2015-04-29T07:47:56Z</time>
</trkpt>
<trkpt lat="34.9595070" lon="32.8369077">
<ele>1310.52</ele>
<time>2015-04-29T07:48:00Z</time>
</trkpt>
<trkpt lat="34.9594924" lon="32.8369603">
<ele>1306.81</ele>
<time>2015-04-29T07:48:04Z</time>
</trkpt>
<trkpt lat="34.9594849" lon="32.8370187">
<ele>1308.01</ele>
<time>2015-04-29T07:48:08Z</time>
</trkpt>
<trkpt lat="34.9594920" lon="32.8370753">
<ele>1310.42</ele>
<time>2015-04-29T07:48:11Z</time>
</trkpt>
<trkpt lat="34.9594838" lon="32.8371321">
<ele>1311.09</ele>
<time>2015-04-29T07:48:14Z</time>
</trkpt>
<trkpt lat="34.9594533" lon="32.8371877">
<ele>1310.84</ele>
<time>2015-04-29T07:48:18Z</time>
</trkpt>
<trkpt lat="34.9594329" lon="32.8372449">
<ele>1310.77</ele>
<time>2015-04-29T07:48:22Z</time>
</trkpt>
<trkpt lat="34.9593879" lon="32.8372694">
<ele>1310.76</ele>
<time>2015-04-29T07:48:26Z</time>
</trkpt>
<trkpt lat="34.9593346" lon="32.8372676">
<ele>1309.79</ele>
<time>2015-04-29T07:48:31Z</time>
</trkpt>
<trkpt lat="34.9593769" lon="32.8373095">
<ele>1310.70</ele>
<time>2015-04-29T07:48:52Z</time>
</trkpt>
<trkpt lat="34.9594305" lon="32.8373486">
<ele>1311.63</ele>
<time>2015-04-29T07:48:55Z</time>
</trkpt>
<trkpt lat="34.9594723" lon="32.8373736">
<ele>1312.73</ele>
<time>2015-04-29T07:48:57Z</time>
</trkpt>
<trkpt lat="34.9595135" lon="32.8373987">
<ele>1313.00</ele>
<time>2015-04-29T07:48:59Z</time>
</trkpt>
<trkpt lat="34.9595556" lon="32.8374298">
<ele>1314.32</ele>
<time>2015-04-29T07:49:01Z</time>
</trkpt>
<trkpt lat="34.9595975" lon="32.8374600">
<ele>1314.65</ele>
<time>2015-04-29T07:49:03Z</time>
</trkpt>
<trkpt lat="34.9596330" lon="32.8374981">
<ele>1314.98</ele>
<time>2015-04-29T07:49:05Z</time>
</trkpt>
<trkpt lat="34.9596744" lon="32.8375561">
<ele>1314.29</ele>
<time>2015-04-29T07:49:08Z</time>
</trkpt>
<trkpt lat="34.9597129" lon="32.8376166">
<ele>1314.45</ele>
<time>2015-04-29T07:49:11Z</time>
</trkpt>
<trkpt lat="34.9597507" lon="32.8376616">
<ele>1314.72</ele>
<time>2015-04-29T07:49:14Z</time>
</trkpt>
<trkpt lat="34.9596911" lon="32.8376352">
<ele>1310.42</ele>
<time>2015-04-29T07:49:59Z</time>
</trkpt>
<trkpt lat="34.9596485" lon="32.8375713">
<ele>1310.72</ele>
<time>2015-04-29T07:50:02Z</time>
</trkpt>
<trkpt lat="34.9596015" lon="32.8375258">
<ele>1310.75</ele>
<time>2015-04-29T07:50:04Z</time>
</trkpt>
<trkpt lat="34.9595612" lon="32.8374897">
<ele>1311.51</ele>
<time>2015-04-29T07:50:06Z</time>
</trkpt>
<trkpt lat="34.9595190" lon="32.8374595">
<ele>1311.70</ele>
<time>2015-04-29T07:50:08Z</time>
</trkpt>
<trkpt lat="34.9594760" lon="32.8374247">
<ele>1312.24</ele>
<time>2015-04-29T07:50:10Z</time>
</trkpt>
<trkpt lat="34.9594324" lon="32.8373939">
<ele>1313.38</ele>
<time>2015-04-29T07:50:12Z</time>
</trkpt>
<trkpt lat="34.9593879" lon="32.8373620">
<ele>1313.67</ele>
<time>2015-04-29T07:50:14Z</time>
</trkpt>
<trkpt lat="34.9593447" lon="32.8373332">
<ele>1312.99</ele>
<time>2015-04-29T07:50:16Z</time>
</trkpt>
<trkpt lat="34.9593003" lon="32.8372792">
<ele>1314.16</ele>
<time>2015-04-29T07:50:19Z</time>
</trkpt>
<trkpt lat="34.9592589" lon="32.8372552">
<ele>1313.84</ele>
<time>2015-04-29T07:50:24Z</time>
</trkpt>
<trkpt lat="34.9592128" lon="32.8372713">
<ele>1312.95</ele>
<time>2015-04-29T07:50:28Z</time>
</trkpt>
<trkpt lat="34.9591660" lon="32.8372822">
<ele>1313.16</ele>
<time>2015-04-29T07:50:31Z</time>
</trkpt>
<trkpt lat="34.9591090" lon="32.8372897">
<ele>1313.72</ele>
<time>2015-04-29T07:50:35Z</time>
</trkpt>
<trkpt lat="34.9590495" lon="32.8372910">
<ele>1315.45</ele>
<time>2015-04-29T07:50:39Z</time>
</trkpt>
<trkpt lat="34.9590026" lon="32.8372914">
<ele>1314.47</ele>
<time>2015-04-29T07:50:42Z</time>
</trkpt>
<trkpt lat="34.9589458" lon="32.8372842">
<ele>1314.74</ele>
<time>2015-04-29T07:50:46Z</time>
</trkpt>
<trkpt lat="34.9588955" lon="32.8372651">
<ele>1316.38</ele>
<time>2015-04-29T07:50:49Z</time>
</trkpt>
<trkpt lat="34.9588379" lon="32.8372611">
<ele>1316.71</ele>
<time>2015-04-29T07:50:52Z</time>
</trkpt>
<trkpt lat="34.9587814" lon="32.8372463">
<ele>1315.75</ele>
<time>2015-04-29T07:50:55Z</time>
</trkpt>
<trkpt lat="34.9587238" lon="32.8372418">
<ele>1315.88</ele>
<time>2015-04-29T07:50:58Z</time>
</trkpt>
<trkpt lat="34.9586696" lon="32.8372241">
<ele>1315.03</ele>
<time>2015-04-29T07:51:01Z</time>
</trkpt>
<trkpt lat="34.9586193" lon="32.8372039">
<ele>1314.79</ele>
<time>2015-04-29T07:51:04Z</time>
</trkpt>
<trkpt lat="34.9585712" lon="32.8371850">
<ele>1316.01</ele>
<time>2015-04-29T07:51:07Z</time>
</trkpt>
<trkpt lat="34.9585192" lon="32.8371721">
<ele>1318.04</ele>
<time>2015-04-29T07:51:10Z</time>
</trkpt>
<trkpt lat="34.9584589" lon="32.8371677">
<ele>1319.92</ele>
<time>2015-04-29T07:51:13Z</time>
</trkpt>
<trkpt lat="34.9584039" lon="32.8371526">
<ele>1320.91</ele>
<time>2015-04-29T07:51:16Z</time>
</trkpt>
<trkpt lat="34.9583491" lon="32.8371380">
<ele>1321.53</ele>
<time>2015-04-29T07:51:19Z</time>
</trkpt>
<trkpt lat="34.9582900" lon="32.8371244">
<ele>1322.61</ele>
<time>2015-04-29T07:51:22Z</time>
</trkpt>
<trkpt lat="34.9582304" lon="32.8371125">
<ele>1325.62</ele>
<time>2015-04-29T07:51:25Z</time>
</trkpt>
<trkpt lat="34.9581748" lon="32.8370957">
<ele>1326.12</ele>
<time>2015-04-29T07:51:28Z</time>
</trkpt>
<trkpt lat="34.9581245" lon="32.8370765">
<ele>1325.05</ele>
<time>2015-04-29T07:51:31Z</time>
</trkpt>
<trkpt lat="34.9580715" lon="32.8370626">
<ele>1325.67</ele>
<time>2015-04-29T07:51:34Z</time>
</trkpt>
<trkpt lat="34.9580227" lon="32.8370440">
<ele>1325.75</ele>
<time>2015-04-29T07:51:37Z</time>
</trkpt>
<trkpt lat="34.9579762" lon="32.8370272">
<ele>1326.26</ele>
<time>2015-04-29T07:51:40Z</time>
</trkpt>
<trkpt lat="34.9579224" lon="32.8370031">
<ele>1326.23</ele>
<time>2015-04-29T07:51:44Z</time>
</trkpt>
<trkpt lat="34.9578756" lon="32.8369895">
<ele>1326.23</ele>
<time>2015-04-29T07:51:48Z</time>
</trkpt>
<trkpt lat="34.9578271" lon="32.8369660">
<ele>1325.65</ele>
<time>2015-04-29T07:51:53Z</time>
</trkpt>
<trkpt lat="34.9577783" lon="32.8369347">
<ele>1326.85</ele>
<time>2015-04-29T07:51:58Z</time>
</trkpt>
<trkpt lat="34.9577331" lon="32.8369114">
<ele>1325.89</ele>
<time>2015-04-29T07:52:02Z</time>
</trkpt>
<trkpt lat="34.9576932" lon="32.8368855">
<ele>1326.21</ele>
<time>2015-04-29T07:52:06Z</time>
</trkpt>
<trkpt lat="34.9576421" lon="32.8368721">
<ele>1325.34</ele>
<time>2015-04-29T07:52:11Z</time>
</trkpt>
<trkpt lat="34.9575972" lon="32.8368514">
<ele>1329.63</ele>
<time>2015-04-29T07:52:36Z</time>
</trkpt>
<trkpt lat="34.9575374" lon="32.8368495">
<ele>1329.99</ele>
<time>2015-04-29T07:52:39Z</time>
</trkpt>
<trkpt lat="34.9574809" lon="32.8368331">
<ele>1330.32</ele>
<time>2015-04-29T07:52:41Z</time>
</trkpt>
<trkpt lat="34.9574169" lon="32.8368055">
<ele>1328.40</ele>
<time>2015-04-29T07:52:43Z</time>
</trkpt>
<trkpt lat="34.9573382" lon="32.8367707">
<ele>1327.67</ele>
<time>2015-04-29T07:52:45Z</time>
</trkpt>
<trkpt lat="34.9572660" lon="32.8367465">
<ele>1329.49</ele>
<time>2015-04-29T07:52:47Z</time>
</trkpt>
<trkpt lat="34.9572071" lon="32.8367147">
<ele>1331.19</ele>
<time>2015-04-29T07:52:49Z</time>
</trkpt>
<trkpt lat="34.9571678" lon="32.8366810">
<ele>1332.37</ele>
<time>2015-04-29T07:52:51Z</time>
</trkpt>
<trkpt lat="34.9571070" lon="32.8366610">
<ele>1333.59</ele>
<time>2015-04-29T07:52:54Z</time>
</trkpt>
<trkpt lat="34.9570648" lon="32.8366269">
<ele>1333.75</ele>
<time>2015-04-29T07:52:58Z</time>
</trkpt>
<trkpt lat="34.9570288" lon="32.8365756">
<ele>1334.13</ele>
<time>2015-04-29T07:53:02Z</time>
</trkpt>
<trkpt lat="34.9570383" lon="32.8365014">
<ele>1334.92</ele>
<time>2015-04-29T07:55:27Z</time>
</trkpt>
<trkpt lat="34.9570418" lon="32.8364213">
<ele>1335.66</ele>
<time>2015-04-29T07:55:30Z</time>
</trkpt>
<trkpt lat="34.9570614" lon="32.8363619">
<ele>1336.48</ele>
<time>2015-04-29T07:55:32Z</time>
</trkpt>
<trkpt lat="34.9570865" lon="32.8363087">
<ele>1336.69</ele>
<time>2015-04-29T07:55:34Z</time>
</trkpt>
<trkpt lat="34.9571102" lon="32.8362567">
<ele>1336.24</ele>
<time>2015-04-29T07:55:36Z</time>
</trkpt>
<trkpt lat="34.9571297" lon="32.8361953">
<ele>1335.45</ele>
<time>2015-04-29T07:55:39Z</time>
</trkpt>
<trkpt lat="34.9571481" lon="32.8361420">
<ele>1335.22</ele>
<time>2015-04-29T07:55:42Z</time>
</trkpt>
<trkpt lat="34.9571472" lon="32.8360806">
<ele>1334.32</ele>
<time>2015-04-29T07:55:45Z</time>
</trkpt>
<trkpt lat="34.9571662" lon="32.8360184">
<ele>1333.58</ele>
<time>2015-04-29T07:55:48Z</time>
</trkpt>
<trkpt lat="34.9571854" lon="32.8359543">
<ele>1334.49</ele>
<time>2015-04-29T07:55:51Z</time>
</trkpt>
<trkpt lat="34.9571856" lon="32.8358841">
<ele>1332.60</ele>
<time>2015-04-29T07:55:54Z</time>
</trkpt>
<trkpt lat="34.9571837" lon="32.8358138">
<ele>1332.37</ele>
<time>2015-04-29T07:55:57Z</time>
</trkpt>
<trkpt lat="34.9571708" lon="32.8357368">
<ele>1333.59</ele>
<time>2015-04-29T07:56:00Z</time>
</trkpt>
<trkpt lat="34.9571601" lon="32.8356651">
<ele>1335.36</ele>
<time>2015-04-29T07:56:03Z</time>
</trkpt>
<trkpt lat="34.9571642" lon="32.8355920">
<ele>1336.09</ele>
<time>2015-04-29T07:56:06Z</time>
</trkpt>
<trkpt lat="34.9571512" lon="32.8355254">
<ele>1335.68</ele>
<time>2015-04-29T07:56:09Z</time>
</trkpt>
<trkpt lat="34.9571270" lon="32.8354622">
<ele>1337.37</ele>
<time>2015-04-29T07:56:12Z</time>
</trkpt>
<trkpt lat="34.9571100" lon="32.8354004">
<ele>1338.21</ele>
<time>2015-04-29T07:56:15Z</time>
</trkpt>
<trkpt lat="34.9570975" lon="32.8353384">
<ele>1337.44</ele>
<time>2015-04-29T07:56:18Z</time>
</trkpt>
<trkpt lat="34.9571019" lon="32.8352582">
<ele>1337.72</ele>
<time>2015-04-29T07:56:21Z</time>
</trkpt>
<trkpt lat="34.9571257" lon="32.8351828">
<ele>1339.26</ele>
<time>2015-04-29T07:56:24Z</time>
</trkpt>
<trkpt lat="34.9571445" lon="32.8351255">
<ele>1339.38</ele>
<time>2015-04-29T07:56:26Z</time>
</trkpt>
<trkpt lat="34.9571709" lon="32.8350648">
<ele>1341.17</ele>
<time>2015-04-29T07:56:28Z</time>
</trkpt>
<trkpt lat="34.9572101" lon="32.8349981">
<ele>1341.86</ele>
<time>2015-04-29T07:56:30Z</time>
</trkpt>
<trkpt lat="34.9572475" lon="32.8349318">
<ele>1342.04</ele>
<time>2015-04-29T07:56:32Z</time>
</trkpt>
<trkpt lat="34.9572886" lon="32.8348725">
<ele>1341.83</ele>
<time>2015-04-29T07:56:34Z</time>
</trkpt>
<trkpt lat="34.9573356" lon="32.8348248">
<ele>1341.78</ele>
<time>2015-04-29T07:56:36Z</time>
</trkpt>
<trkpt lat="34.9573761" lon="32.8347807">
<ele>1342.26</ele>
<time>2015-04-29T07:56:38Z</time>
</trkpt>
<trkpt lat="34.9574176" lon="32.8347372">
<ele>1343.39</ele>
<time>2015-04-29T07:56:40Z</time>
</trkpt>
<trkpt lat="34.9574554" lon="32.8347029">
<ele>1343.67</ele>
<time>2015-04-29T07:56:42Z</time>
</trkpt>
<trkpt lat="34.9574906" lon="32.8346652">
<ele>1343.74</ele>
<time>2015-04-29T07:56:44Z</time>
</trkpt>
<trkpt lat="34.9575303" lon="32.8346343">
<ele>1343.75</ele>
<time>2015-04-29T07:56:46Z</time>
</trkpt>
<trkpt lat="34.9575791" lon="32.8345869">
<ele>1343.26</ele>
<time>2015-04-29T07:56:49Z</time>
</trkpt>
<trkpt lat="34.9576158" lon="32.8345346">
<ele>1342.70</ele>
<time>2015-04-29T07:56:52Z</time>
</trkpt>
<trkpt lat="34.9576328" lon="32.8344740">
<ele>1344.13</ele>
<time>2015-04-29T07:56:55Z</time>
</trkpt>
<trkpt lat="34.9576263" lon="32.8344088">
<ele>1344.68</ele>
<time>2015-04-29T07:56:58Z</time>
</trkpt>
<trkpt lat="34.9576018" lon="32.8343482">
<ele>1344.75</ele>
<time>2015-04-29T07:57:01Z</time>
</trkpt>
<trkpt lat="34.9575726" lon="32.8342915">
<ele>1345.51</ele>
<time>2015-04-29T07:57:04Z</time>
</trkpt>
<trkpt lat="34.9575385" lon="32.8342408">
<ele>1346.23</ele>
<time>2015-04-29T07:57:07Z</time>
</trkpt>
<trkpt lat="34.9574980" lon="32.8342052">
<ele>1347.44</ele>
<time>2015-04-29T07:57:10Z</time>
</trkpt>
<trkpt lat="34.9574502" lon="32.8341798">
<ele>1347.72</ele>
<time>2015-04-29T07:57:13Z</time>
</trkpt>
<trkpt lat="34.9574000" lon="32.8341615">
<ele>1347.76</ele>
<time>2015-04-29T07:57:16Z</time>
</trkpt>
<trkpt lat="34.9573470" lon="32.8341601">
<ele>1348.88</ele>
<time>2015-04-29T07:57:19Z</time>
</trkpt>
<trkpt lat="34.9572949" lon="32.8341635">
<ele>1349.53</ele>
<time>2015-04-29T07:57:22Z</time>
</trkpt>
<trkpt lat="34.9572449" lon="32.8341748">
<ele>1351.36</ele>
<time>2015-04-29T07:57:25Z</time>
</trkpt>
<trkpt lat="34.9571952" lon="32.8341701">
<ele>1351.21</ele>
<time>2015-04-29T07:57:28Z</time>
</trkpt>
<trkpt lat="34.9571393" lon="32.8341654">
<ele>1351.69</ele>
<time>2015-04-29T07:57:31Z</time>
</trkpt>
<trkpt lat="34.9570865" lon="32.8341549">
<ele>1353.13</ele>
<time>2015-04-29T07:57:34Z</time>
</trkpt>
<trkpt lat="34.9570373" lon="32.8341372">
<ele>1353.68</ele>
<time>2015-04-29T07:57:37Z</time>
</trkpt>
<trkpt lat="34.9569918" lon="32.8341095">
<ele>1353.75</ele>
<time>2015-04-29T07:57:40Z</time>
</trkpt>
<trkpt lat="34.9569499" lon="32.8340723">
<ele>1352.13</ele>
<time>2015-04-29T07:57:43Z</time>
</trkpt>
<trkpt lat="34.9569016" lon="32.8340526">
<ele>1353.31</ele>
<time>2015-04-29T07:57:46Z</time>
</trkpt>
<trkpt lat="34.9568513" lon="32.8340256">
<ele>1353.70</ele>
<time>2015-04-29T07:57:49Z</time>
</trkpt>
<trkpt lat="34.9567969" lon="32.8340030">
<ele>1354.50</ele>
<time>2015-04-29T07:57:52Z</time>
</trkpt>
<trkpt lat="34.9567476" lon="32.8339760">
<ele>1356.85</ele>
<time>2015-04-29T07:57:55Z</time>
</trkpt>
<trkpt lat="34.9567034" lon="32.8339510">
<ele>1358.15</ele>
<time>2015-04-29T07:57:58Z</time>
</trkpt>
<trkpt lat="34.9566457" lon="32.8339314">
<ele>1359.85</ele>
<time>2015-04-29T07:58:02Z</time>
</trkpt>
<trkpt lat="34.9566006" lon="32.8339156">
<ele>1360.15</ele>
<time>2015-04-29T07:58:05Z</time>
</trkpt>
<trkpt lat="34.9565578" lon="32.8338930">
<ele>1360.31</ele>
<time>2015-04-29T07:58:08Z</time>
</trkpt>
<trkpt lat="34.9565087" lon="32.8338884">
<ele>1360.70</ele>
<time>2015-04-29T07:58:11Z</time>
</trkpt>
<trkpt lat="34.9564558" lon="32.8338744">
<ele>1361.88</ele>
<time>2015-04-29T07:58:14Z</time>
</trkpt>
<trkpt lat="34.9564009" lon="32.8338608">
<ele>1361.90</ele>
<time>2015-04-29T07:58:17Z</time>
</trkpt>
<trkpt lat="34.9563450" lon="32.8338548">
<ele>1361.40</ele>
<time>2015-04-29T07:58:20Z</time>
</trkpt>
<trkpt lat="34.9562914" lon="32.8338539">
<ele>1361.72</ele>
<time>2015-04-29T07:58:23Z</time>
</trkpt>
<trkpt lat="34.9562405" lon="32.8338585">
<ele>1362.50</ele>
<time>2015-04-29T07:58:26Z</time>
</trkpt>
<trkpt lat="34.9561890" lon="32.8338721">
<ele>1362.23</ele>
<time>2015-04-29T07:58:29Z</time>
</trkpt>
<trkpt lat="34.9561384" lon="32.8338879">
<ele>1363.19</ele>
<time>2015-04-29T07:58:32Z</time>
</trkpt>
<trkpt lat="34.9560936" lon="32.8339202">
<ele>1363.69</ele>
<time>2015-04-29T07:58:35Z</time>
</trkpt>
<trkpt lat="34.9560414" lon="32.8339461">
<ele>1363.75</ele>
<time>2015-04-29T07:58:38Z</time>
</trkpt>
<trkpt lat="34.9559952" lon="32.8339792">
<ele>1363.76</ele>
<time>2015-04-29T07:58:41Z</time>
</trkpt>
<trkpt lat="34.9559487" lon="32.8340122">
<ele>1365.01</ele>
<time>2015-04-29T07:58:44Z</time>
</trkpt>
<trkpt lat="34.9558998" lon="32.8340487">
<ele>1364.92</ele>
<time>2015-04-29T07:58:47Z</time>
</trkpt>
<trkpt lat="34.9558496" lon="32.8340883">
<ele>1365.40</ele>
<time>2015-04-29T07:58:50Z</time>
</trkpt>
<trkpt lat="34.9558120" lon="32.8341376">
<ele>1366.47</ele>
<time>2015-04-29T07:58:53Z</time>
</trkpt>
<trkpt lat="34.9557721" lon="32.8341653">
<ele>1366.72</ele>
<time>2015-04-29T07:58:56Z</time>
</trkpt>
<trkpt lat="34.9557285" lon="32.8342153">
<ele>1367.13</ele>
<time>2015-04-29T07:59:00Z</time>
</trkpt>
<trkpt lat="34.9556839" lon="32.8342408">
<ele>1367.68</ele>
<time>2015-04-29T07:59:03Z</time>
</trkpt>
<trkpt lat="34.9556419" lon="32.8342743">
<ele>1367.13</ele>
<time>2015-04-29T07:59:06Z</time>
</trkpt>
<trkpt lat="34.9555991" lon="32.8342950">
<ele>1367.68</ele>
<time>2015-04-29T07:59:09Z</time>
</trkpt>
<trkpt lat="34.9555564" lon="32.8343305">
<ele>1368.50</ele>
<time>2015-04-29T07:59:12Z</time>
</trkpt>
<trkpt lat="34.9555158" lon="32.8343746">
<ele>1367.85</ele>
<time>2015-04-29T07:59:15Z</time>
</trkpt>
<trkpt lat="34.9554769" lon="32.8344117">
<ele>1369.02</ele>
<time>2015-04-29T07:59:18Z</time>
</trkpt>
<trkpt lat="34.9554370" lon="32.8344483">
<ele>1368.79</ele>
<time>2015-04-29T07:59:21Z</time>
</trkpt>
<trkpt lat="34.9553907" lon="32.8344748">
<ele>1369.51</ele>
<time>2015-04-29T07:59:24Z</time>
</trkpt>
<trkpt lat="34.9553406" lon="32.8345025">
<ele>1369.73</ele>
<time>2015-04-29T07:59:27Z</time>
</trkpt>
<trkpt lat="34.9552975" lon="32.8345367">
<ele>1368.88</ele>
<time>2015-04-29T07:59:30Z</time>
</trkpt>
<trkpt lat="34.9552634" lon="32.8345751">
<ele>1368.78</ele>
<time>2015-04-29T07:59:33Z</time>
</trkpt>
<trkpt lat="34.9552211" lon="32.8345995">
<ele>1369.64</ele>
<time>2015-04-29T07:59:36Z</time>
</trkpt>
<trkpt lat="34.9551707" lon="32.8346389">
<ele>1369.25</ele>
<time>2015-04-29T07:59:40Z</time>
</trkpt>
<trkpt lat="34.9551312" lon="32.8346701">
<ele>1370.20</ele>
<time>2015-04-29T07:59:43Z</time>
</trkpt>
<trkpt lat="34.9550805" lon="32.8347012">
<ele>1371.94</ele>
<time>2015-04-29T07:59:46Z</time>
</trkpt>
<trkpt lat="34.9550295" lon="32.8347399">
<ele>1372.03</ele>
<time>2015-04-29T07:59:49Z</time>
</trkpt>
<trkpt lat="34.9549830" lon="32.8347783">
<ele>1372.67</ele>
<time>2015-04-29T07:59:52Z</time>
</trkpt>
<trkpt lat="34.9549338" lon="32.8348205">
<ele>1372.25</ele>
<time>2015-04-29T07:59:55Z</time>
</trkpt>
<trkpt lat="34.9548757" lon="32.8348583">
<ele>1372.70</ele>
<time>2015-04-29T07:59:58Z</time>
</trkpt>
<trkpt lat="34.9548124" lon="32.8348871">
<ele>1372.75</ele>
<time>2015-04-29T08:00:01Z</time>
</trkpt>
<trkpt lat="34.9547539" lon="32.8349213">
<ele>1373.63</ele>
<time>2015-04-29T08:00:04Z</time>
</trkpt>
<trkpt lat="34.9546968" lon="32.8349540">
<ele>1372.99</ele>
<time>2015-04-29T08:00:07Z</time>
</trkpt>
<trkpt lat="34.9546359" lon="32.8349732">
<ele>1372.79</ele>
<time>2015-04-29T08:00:10Z</time>
</trkpt>
<trkpt lat="34.9545797" lon="32.8349796">
<ele>1373.64</ele>
<time>2015-04-29T08:00:13Z</time>
</trkpt>
<trkpt lat="34.9545219" lon="32.8349769">
<ele>1374.24</ele>
<time>2015-04-29T08:00:16Z</time>
</trkpt>
<trkpt lat="34.9544628" lon="32.8349767">
<ele>1374.70</ele>
<time>2015-04-29T08:00:19Z</time>
</trkpt>
<trkpt lat="34.9544026" lon="32.8349814">
<ele>1375.25</ele>
<time>2015-04-29T08:00:22Z</time>
</trkpt>
<trkpt lat="34.9543413" lon="32.8349760">
<ele>1376.82</ele>
<time>2015-04-29T08:00:25Z</time>
</trkpt>
<trkpt lat="34.9542829" lon="32.8349637">
<ele>1376.39</ele>
<time>2015-04-29T08:00:28Z</time>
</trkpt>
<trkpt lat="34.9542289" lon="32.8349437">
<ele>1377.59</ele>
<time>2015-04-29T08:00:31Z</time>
</trkpt>
<trkpt lat="34.9541742" lon="32.8349324">
<ele>1377.74</ele>
<time>2015-04-29T08:00:34Z</time>
</trkpt>
<trkpt lat="34.9541184" lon="32.8349272">
<ele>1378.13</ele>
<time>2015-04-29T08:00:37Z</time>
</trkpt>
<trkpt lat="34.9540665" lon="32.8349022">
<ele>1377.31</ele>
<time>2015-04-29T08:00:40Z</time>
</trkpt>
<trkpt lat="34.9540166" lon="32.8348665">
<ele>1374.70</ele>
<time>2015-04-29T08:00:43Z</time>
</trkpt>
<trkpt lat="34.9539645" lon="32.8348443">
<ele>1376.38</ele>
<time>2015-04-29T08:00:46Z</time>
</trkpt>
<trkpt lat="34.9539156" lon="32.8348147">
<ele>1374.84</ele>
<time>2015-04-29T08:00:49Z</time>
</trkpt>
<trkpt lat="34.9538766" lon="32.8347704">
<ele>1376.64</ele>
<time>2015-04-29T08:00:52Z</time>
</trkpt>
<trkpt lat="34.9538275" lon="32.8347348">
<ele>1377.50</ele>
<time>2015-04-29T08:00:55Z</time>
</trkpt>
<trkpt lat="34.9537737" lon="32.8346860">
<ele>1379.23</ele>
<time>2015-04-29T08:00:58Z</time>
</trkpt>
<trkpt lat="34.9537515" lon="32.8346279">
<ele>1380.13</ele>
<time>2015-04-29T08:01:00Z</time>
</trkpt>
<trkpt lat="34.9537310" lon="32.8345695">
<ele>1379.85</ele>
<time>2015-04-29T08:01:02Z</time>
</trkpt>
<trkpt lat="34.9537131" lon="32.8345168">
<ele>1380.28</ele>
<time>2015-04-29T08:01:04Z</time>
</trkpt>
<trkpt lat="34.9537026" lon="32.8344449">
<ele>1380.70</ele>
<time>2015-04-29T08:01:07Z</time>
</trkpt>
<trkpt lat="34.9536828" lon="32.8343804">
<ele>1381.50</ele>
<time>2015-04-29T08:01:10Z</time>
</trkpt>
<trkpt lat="34.9536702" lon="32.8343189">
<ele>1382.10</ele>
<time>2015-04-29T08:01:13Z</time>
</trkpt>
<trkpt lat="34.9536532" lon="32.8342615">
<ele>1381.30</ele>
<time>2015-04-29T08:01:16Z</time>
</trkpt>
<trkpt lat="34.9536337" lon="32.8342022">
<ele>1380.83</ele>
<time>2015-04-29T08:01:19Z</time>
</trkpt>
<trkpt lat="34.9536109" lon="32.8341367">
<ele>1382.02</ele>
<time>2015-04-29T08:01:22Z</time>
</trkpt>
<trkpt lat="34.9535894" lon="32.8340754">
<ele>1383.79</ele>
<time>2015-04-29T08:01:25Z</time>
</trkpt>
<trkpt lat="34.9535785" lon="32.8340114">
<ele>1384.14</ele>
<time>2015-04-29T08:01:29Z</time>
</trkpt>
<trkpt lat="34.9535539" lon="32.8339586">
<ele>1385.60</ele>
<time>2015-04-29T08:01:33Z</time>
</trkpt>
<trkpt lat="34.9535161" lon="32.8339258">
<ele>1384.86</ele>
<time>2015-04-29T08:01:36Z</time>
</trkpt>
<trkpt lat="34.9534611" lon="32.8338938">
<ele>1385.27</ele>
<time>2015-04-29T08:01:40Z</time>
</trkpt>
<trkpt lat="34.9534184" lon="32.8338609">
<ele>1384.82</ele>
<time>2015-04-29T08:01:43Z</time>
</trkpt>
<trkpt lat="34.9533783" lon="32.8338312">
<ele>1383.89</ele>
<time>2015-04-29T08:01:46Z</time>
</trkpt>
<trkpt lat="34.9533362" lon="32.8338103">
<ele>1381.53</ele>
<time>2015-04-29T08:01:49Z</time>
</trkpt>
<trkpt lat="34.9532802" lon="32.8337875">
<ele>1381.50</ele>
<time>2015-04-29T08:01:53Z</time>
</trkpt>
<trkpt lat="34.9532372" lon="32.8337710">
<ele>1381.48</ele>
<time>2015-04-29T08:01:56Z</time>
</trkpt>
<trkpt lat="34.9531780" lon="32.8337544">
<ele>1381.49</ele>
<time>2015-04-29T08:02:00Z</time>
</trkpt>
<trkpt lat="34.9531305" lon="32.8337520">
<ele>1381.98</ele>
<time>2015-04-29T08:02:03Z</time>
</trkpt>
<trkpt lat="34.9530802" lon="32.8337403">
<ele>1384.29</ele>
<time>2015-04-29T08:02:06Z</time>
</trkpt>
<trkpt lat="34.9530326" lon="32.8337317">
<ele>1383.83</ele>
<time>2015-04-29T08:02:09Z</time>
</trkpt>
<trkpt lat="34.9529832" lon="32.8337203">
<ele>1385.39</ele>
<time>2015-04-29T08:02:12Z</time>
</trkpt>
<trkpt lat="34.9529326" lon="32.8337121">
<ele>1385.71</ele>
<time>2015-04-29T08:02:15Z</time>
</trkpt>
<trkpt lat="34.9528833" lon="32.8337125">
<ele>1385.88</ele>
<time>2015-04-29T08:02:18Z</time>
</trkpt>
<trkpt lat="34.9528310" lon="32.8337086">
<ele>1384.02</ele>
<time>2015-04-29T08:02:21Z</time>
</trkpt>
<trkpt lat="34.9527830" lon="32.8336966">
<ele>1384.67</ele>
<time>2015-04-29T08:02:24Z</time>
</trkpt>
<trkpt lat="34.9527280" lon="32.8336840">
<ele>1386.38</ele>
<time>2015-04-29T08:02:28Z</time>
</trkpt>
<trkpt lat="34.9526824" lon="32.8336466">
<ele>1387.30</ele>
<time>2015-04-29T08:02:32Z</time>
</trkpt>
<trkpt lat="34.9526558" lon="32.8335840">
<ele>1387.23</ele>
<time>2015-04-29T08:02:36Z</time>
</trkpt>
<trkpt lat="34.9526121" lon="32.8335384">
<ele>1390.35</ele>
<time>2015-04-29T08:02:40Z</time>
</trkpt>
<trkpt lat="34.9525946" lon="32.8334782">
<ele>1393.05</ele>
<time>2015-04-29T08:02:44Z</time>
</trkpt>
<trkpt lat="34.9525946" lon="32.8334080">
<ele>1392.78</ele>
<time>2015-04-29T08:02:48Z</time>
</trkpt>
<trkpt lat="34.9525895" lon="32.8333352">
<ele>1394.45</ele>
<time>2015-04-29T08:02:52Z</time>
</trkpt>
<trkpt lat="34.9525757" lon="32.8332825">
<ele>1394.60</ele>
<time>2015-04-29T08:02:55Z</time>
</trkpt>
<trkpt lat="34.9525468" lon="32.8332378">
<ele>1395.61</ele>
<time>2015-04-29T08:02:58Z</time>
</trkpt>
<trkpt lat="34.9525582" lon="32.8331641">
<ele>1396.63</ele>
<time>2015-04-29T08:03:02Z</time>
</trkpt>
<trkpt lat="34.9525849" lon="32.8331083">
<ele>1396.74</ele>
<time>2015-04-29T08:03:05Z</time>
</trkpt>
<trkpt lat="34.9526048" lon="32.8330512">
<ele>1397.26</ele>
<time>2015-04-29T08:03:08Z</time>
</trkpt>
<trkpt lat="34.9525911" lon="32.8329974">
<ele>1396.64</ele>
<time>2015-04-29T08:03:14Z</time>
</trkpt>
<trkpt lat="34.9525469" lon="32.8330179">
<ele>1393.48</ele>
<time>2015-04-29T08:05:03Z</time>
</trkpt>
<trkpt lat="34.9524988" lon="32.8330522">
<ele>1395.06</ele>
<time>2015-04-29T08:05:27Z</time>
</trkpt>
<trkpt lat="34.9524477" lon="32.8330690">
<ele>1393.67</ele>
<time>2015-04-29T08:05:30Z</time>
</trkpt>
<trkpt lat="34.9523980" lon="32.8330765">
<ele>1394.50</ele>
<time>2015-04-29T08:05:33Z</time>
</trkpt>
<trkpt lat="34.9523427" lon="32.8330908">
<ele>1395.24</ele>
<time>2015-04-29T08:05:37Z</time>
</trkpt>
<trkpt lat="34.9522957" lon="32.8331025">
<ele>1396.60</ele>
<time>2015-04-29T08:05:41Z</time>
</trkpt>
<trkpt lat="34.9522488" lon="32.8331252">
<ele>1399.81</ele>
<time>2015-04-29T08:05:45Z</time>
</trkpt>
<trkpt lat="34.9521997" lon="32.8331653">
<ele>1399.45</ele>
<time>2015-04-29T08:05:49Z</time>
</trkpt>
<trkpt lat="34.9521476" lon="32.8331982">
<ele>1398.99</ele>
<time>2015-04-29T08:05:53Z</time>
</trkpt>
<trkpt lat="34.9521089" lon="32.8332300">
<ele>1397.91</ele>
<time>2015-04-29T08:05:56Z</time>
</trkpt>
<trkpt lat="34.9520533" lon="32.8332553">
<ele>1397.39</ele>
<time>2015-04-29T08:06:00Z</time>
</trkpt>
<trkpt lat="34.9520043" lon="32.8332691">
<ele>1397.96</ele>
<time>2015-04-29T08:06:03Z</time>
</trkpt>
<trkpt lat="34.9519555" lon="32.8332782">
<ele>1399.66</ele>
<time>2015-04-29T08:06:06Z</time>
</trkpt>
<trkpt lat="34.9519099" lon="32.8332720">
<ele>1400.62</ele>
<time>2015-04-29T08:06:09Z</time>
</trkpt>
<trkpt lat="34.9518512" lon="32.8332666">
<ele>1400.00</ele>
<time>2015-04-29T08:06:13Z</time>
</trkpt>
<trkpt lat="34.9517915" lon="32.8332693">
<ele>1400.21</ele>
<time>2015-04-29T08:06:17Z</time>
</trkpt>
<trkpt lat="34.9517462" lon="32.8332538">
<ele>1400.32</ele>
<time>2015-04-29T08:06:20Z</time>
</trkpt>
<trkpt lat="34.9517010" lon="32.8332502">
<ele>1400.70</ele>
<time>2015-04-29T08:06:23Z</time>
</trkpt>
<trkpt lat="34.9516556" lon="32.8332452">
<ele>1399.13</ele>
<time>2015-04-29T08:06:26Z</time>
</trkpt>
<trkpt lat="34.9516104" lon="32.8332538">
<ele>1400.81</ele>
<time>2015-04-29T08:06:29Z</time>
</trkpt>
<trkpt lat="34.9515609" lon="32.8332683">
<ele>1400.77</ele>
<time>2015-04-29T08:06:32Z</time>
</trkpt>
<trkpt lat="34.9515107" lon="32.8332780">
<ele>1401.51</ele>
<time>2015-04-29T08:06:35Z</time>
</trkpt>
<trkpt lat="34.9514550" lon="32.8332878">
<ele>1402.48</ele>
<time>2015-04-29T08:06:38Z</time>
</trkpt>
<trkpt lat="34.9514047" lon="32.8332939">
<ele>1403.60</ele>
<time>2015-04-29T08:06:41Z</time>
</trkpt>
<trkpt lat="34.9513605" lon="32.8333053">
<ele>1404.61</ele>
<time>2015-04-29T08:06:44Z</time>
</trkpt>
<trkpt lat="34.9513056" lon="32.8333265">
<ele>1405.25</ele>
<time>2015-04-29T08:06:48Z</time>
</trkpt>
<trkpt lat="34.9512680" lon="32.8333619">
<ele>1405.70</ele>
<time>2015-04-29T08:06:51Z</time>
</trkpt>
<trkpt lat="34.9512244" lon="32.8333865">
<ele>1406.63</ele>
<time>2015-04-29T08:06:54Z</time>
</trkpt>
<trkpt lat="34.9511666" lon="32.8334016">
<ele>1406.87</ele>
<time>2015-04-29T08:06:57Z</time>
</trkpt>
<trkpt lat="34.9511141" lon="32.8334406">
<ele>1407.15</ele>
<time>2015-04-29T08:07:00Z</time>
</trkpt>
<trkpt lat="34.9510609" lon="32.8334762">
<ele>1408.43</ele>
<time>2015-04-29T08:07:03Z</time>
</trkpt>
<trkpt lat="34.9510179" lon="32.8334998">
<ele>1409.68</ele>
<time>2015-04-29T08:07:05Z</time>
</trkpt>
<trkpt lat="34.9509756" lon="32.8335219">
<ele>1410.49</ele>
<time>2015-04-29T08:07:07Z</time>
</trkpt>
<trkpt lat="34.9509162" lon="32.8335469">
<ele>1409.35</ele>
<time>2015-04-29T08:07:10Z</time>
</trkpt>
<trkpt lat="34.9508669" lon="32.8335834">
<ele>1408.08</ele>
<time>2015-04-29T08:07:13Z</time>
</trkpt>
<trkpt lat="34.9508157" lon="32.8336104">
<ele>1406.93</ele>
<time>2015-04-29T08:07:16Z</time>
</trkpt>
<trkpt lat="34.9507473" lon="32.8336076">
<ele>1406.16</ele>
<time>2015-04-29T08:07:19Z</time>
</trkpt>
<trkpt lat="34.9506943" lon="32.8335895">
<ele>1405.36</ele>
<time>2015-04-29T08:07:21Z</time>
</trkpt>
<trkpt lat="34.9506301" lon="32.8335556">
<ele>1405.16</ele>
<time>2015-04-29T08:07:23Z</time>
</trkpt>
<trkpt lat="34.9505693" lon="32.8335120">
<ele>1405.36</ele>
<time>2015-04-29T08:07:25Z</time>
</trkpt>
<trkpt lat="34.9505124" lon="32.8334671">
<ele>1405.41</ele>
<time>2015-04-29T08:07:27Z</time>
</trkpt>
<trkpt lat="34.9504573" lon="32.8334105">
<ele>1405.67</ele>
<time>2015-04-29T08:07:29Z</time>
</trkpt>
<trkpt lat="34.9504075" lon="32.8333441">
<ele>1408.24</ele>
<time>2015-04-29T08:07:31Z</time>
</trkpt>
<trkpt lat="34.9503561" lon="32.8332740">
<ele>1409.38</ele>
<time>2015-04-29T08:07:33Z</time>
</trkpt>
<trkpt lat="34.9503065" lon="32.8332100">
<ele>1410.16</ele>
<time>2015-04-29T08:07:35Z</time>
</trkpt>
<trkpt lat="34.9502600" lon="32.8331448">
<ele>1409.86</ele>
<time>2015-04-29T08:07:37Z</time>
</trkpt>
<trkpt lat="34.9502222" lon="32.8330896">
<ele>1408.54</ele>
<time>2015-04-29T08:07:39Z</time>
</trkpt>
<trkpt lat="34.9501946" lon="32.8330342">
<ele>1409.20</ele>
<time>2015-04-29T08:07:41Z</time>
</trkpt>
<trkpt lat="34.9501720" lon="32.8329831">
<ele>1408.87</ele>
<time>2015-04-29T08:07:43Z</time>
</trkpt>
<trkpt lat="34.9501460" lon="32.8329378">
<ele>1409.54</ele>
<time>2015-04-29T08:07:45Z</time>
</trkpt>
<trkpt lat="34.9501276" lon="32.8328857">
<ele>1410.20</ele>
<time>2015-04-29T08:07:47Z</time>
</trkpt>
<trkpt lat="34.9501080" lon="32.8328317">
<ele>1411.12</ele>
<time>2015-04-29T08:07:49Z</time>
</trkpt>
<trkpt lat="34.9500851" lon="32.8327767">
<ele>1411.85</ele>
<time>2015-04-29T08:07:51Z</time>
</trkpt>
<trkpt lat="34.9500573" lon="32.8327188">
<ele>1413.28</ele>
<time>2015-04-29T08:07:53Z</time>
</trkpt>
<trkpt lat="34.9500344" lon="32.8326626">
<ele>1414.89</ele>
<time>2015-04-29T08:07:55Z</time>
</trkpt>
<trkpt lat="34.9499973" lon="32.8326281">
<ele>1416.29</ele>
<time>2015-04-29T08:07:57Z</time>
</trkpt>
<trkpt lat="34.9499453" lon="32.8326381">
<ele>1420.42</ele>
<time>2015-04-29T08:08:01Z</time>
</trkpt>
<trkpt lat="34.9499197" lon="32.8326903">
<ele>1421.66</ele>
<time>2015-04-29T08:08:06Z</time>
</trkpt>
<trkpt lat="34.9499645" lon="32.8326955">
<ele>1417.90</ele>
<time>2015-04-29T08:08:21Z</time>
</trkpt>
<trkpt lat="34.9499138" lon="32.8327036">
<ele>1413.25</ele>
<time>2015-04-29T08:09:22Z</time>
</trkpt>
<trkpt lat="34.9498664" lon="32.8326678">
<ele>1412.61</ele>
<time>2015-04-29T08:09:35Z</time>
</trkpt>
<trkpt lat="34.9498169" lon="32.8326254">
<ele>1410.19</ele>
<time>2015-04-29T08:09:39Z</time>
</trkpt>
<trkpt lat="34.9497565" lon="32.8326524">
<ele>1408.19</ele>
<time>2015-04-29T08:09:42Z</time>
</trkpt>
<trkpt lat="34.9497224" lon="32.8326915">
<ele>1407.87</ele>
<time>2015-04-29T08:09:44Z</time>
</trkpt>
<trkpt lat="34.9496741" lon="32.8327448">
<ele>1407.40</ele>
<time>2015-04-29T08:09:47Z</time>
</trkpt>
<trkpt lat="34.9496271" lon="32.8328008">
<ele>1408.46</ele>
<time>2015-04-29T08:09:50Z</time>
</trkpt>
<trkpt lat="34.9495746" lon="32.8328490">
<ele>1407.85</ele>
<time>2015-04-29T08:09:53Z</time>
</trkpt>
<trkpt lat="34.9495138" lon="32.8328823">
<ele>1408.02</ele>
<time>2015-04-29T08:09:56Z</time>
</trkpt>
<trkpt lat="34.9494729" lon="32.8329275">
<ele>1409.54</ele>
<time>2015-04-29T08:09:59Z</time>
</trkpt>
<trkpt lat="34.9495164" lon="32.8329500">
<ele>1406.32</ele>
<time>2015-04-29T08:12:00Z</time>
</trkpt>
<trkpt lat="34.9495631" lon="32.8329290">
<ele>1405.83</ele>
<time>2015-04-29T08:12:03Z</time>
</trkpt>
<trkpt lat="34.9495990" lon="32.8328810">
<ele>1406.53</ele>
<time>2015-04-29T08:12:05Z</time>
</trkpt>
<trkpt lat="34.9496241" lon="32.8328255">
<ele>1405.95</ele>
<time>2015-04-29T08:12:07Z</time>
</trkpt>
<trkpt lat="34.9496513" lon="32.8327713">
<ele>1405.56</ele>
<time>2015-04-29T08:12:09Z</time>
</trkpt>
<trkpt lat="34.9496852" lon="32.8327252">
<ele>1404.96</ele>
<time>2015-04-29T08:12:11Z</time>
</trkpt>
<trkpt lat="34.9497160" lon="32.8326847">
<ele>1404.06</ele>
<time>2015-04-29T08:12:13Z</time>
</trkpt>
<trkpt lat="34.9497574" lon="32.8326463">
<ele>1403.03</ele>
<time>2015-04-29T08:12:17Z</time>
</trkpt>
<trkpt lat="34.9498084" lon="32.8326149">
<ele>1402.82</ele>
<time>2015-04-29T08:13:03Z</time>
</trkpt>
<trkpt lat="34.9498565" lon="32.8325954">
<ele>1402.78</ele>
<time>2015-04-29T08:13:05Z</time>
</trkpt>
<trkpt lat="34.9499108" lon="32.8326121">
<ele>1403.26</ele>
<time>2015-04-29T08:13:07Z</time>
</trkpt>
<trkpt lat="34.9499501" lon="32.8326694">
<ele>1403.64</ele>
<time>2015-04-29T08:13:09Z</time>
</trkpt>
<trkpt lat="34.9499742" lon="32.8327368">
<ele>1403.48</ele>
<time>2015-04-29T08:13:11Z</time>
</trkpt>
<trkpt lat="34.9500045" lon="32.8327970">
<ele>1403.19</ele>
<time>2015-04-29T08:13:13Z</time>
</trkpt>
<trkpt lat="34.9500344" lon="32.8328542">
<ele>1403.12</ele>
<time>2015-04-29T08:13:15Z</time>
</trkpt>
<trkpt lat="34.9500638" lon="32.8329133">
<ele>1402.80</ele>
<time>2015-04-29T08:13:18Z</time>
</trkpt>
<trkpt lat="34.9500857" lon="32.8329663">
<ele>1403.64</ele>
<time>2015-04-29T08:13:21Z</time>
</trkpt>
<trkpt lat="34.9501085" lon="32.8330185">
<ele>1403.87</ele>
<time>2015-04-29T08:13:24Z</time>
</trkpt>
<trkpt lat="34.9501313" lon="32.8330705">
<ele>1403.77</ele>
<time>2015-04-29T08:13:27Z</time>
</trkpt>
<trkpt lat="34.9501547" lon="32.8331356">
<ele>1404.20</ele>
<time>2015-04-29T08:13:31Z</time>
</trkpt>
<trkpt lat="34.9501764" lon="32.8331842">
<ele>1405.19</ele>
<time>2015-04-29T08:13:34Z</time>
</trkpt>
<trkpt lat="34.9502038" lon="32.8332486">
<ele>1404.91</ele>
<time>2015-04-29T08:13:38Z</time>
</trkpt>
<trkpt lat="34.9502282" lon="32.8333013">
<ele>1402.28</ele>
<time>2015-04-29T08:13:41Z</time>
</trkpt>
<trkpt lat="34.9502533" lon="32.8333648">
<ele>1400.70</ele>
<time>2015-04-29T08:13:44Z</time>
</trkpt>
<trkpt lat="34.9502734" lon="32.8334247">
<ele>1400.75</ele>
<time>2015-04-29T08:13:47Z</time>
</trkpt>
<trkpt lat="34.9502955" lon="32.8334801">
<ele>1400.38</ele>
<time>2015-04-29T08:13:50Z</time>
</trkpt>
<trkpt lat="34.9503091" lon="32.8335335">
<ele>1401.59</ele>
<time>2015-04-29T08:13:53Z</time>
</trkpt>
<trkpt lat="34.9503124" lon="32.8336038">
<ele>1405.99</ele>
<time>2015-04-29T08:13:56Z</time>
</trkpt>
<trkpt lat="34.9503135" lon="32.8336728">
<ele>1409.41</ele>
<time>2015-04-29T08:13:59Z</time>
</trkpt>
<trkpt lat="34.9503030" lon="32.8337373">
<ele>1410.34</ele>
<time>2015-04-29T08:14:02Z</time>
</trkpt>
<trkpt lat="34.9502952" lon="32.8338017">
<ele>1411.21</ele>
<time>2015-04-29T08:14:05Z</time>
</trkpt>
<trkpt lat="34.9502819" lon="32.8338652">
<ele>1414.57</ele>
<time>2015-04-29T08:14:08Z</time>
</trkpt>
<trkpt lat="34.9502793" lon="32.8339323">
<ele>1415.11</ele>
<time>2015-04-29T08:14:11Z</time>
</trkpt>
<trkpt lat="34.9502648" lon="32.8339951">
<ele>1415.55</ele>
<time>2015-04-29T08:14:14Z</time>
</trkpt>
<trkpt lat="34.9502459" lon="32.8340511">
<ele>1416.61</ele>
<time>2015-04-29T08:14:17Z</time>
</trkpt>
<trkpt lat="34.9502171" lon="32.8340938">
<ele>1416.24</ele>
<time>2015-04-29T08:14:20Z</time>
</trkpt>
<trkpt lat="34.9501825" lon="32.8341493">
<ele>1418.57</ele>
<time>2015-04-29T08:14:23Z</time>
</trkpt>
<trkpt lat="34.9501384" lon="32.8341959">
<ele>1422.86</ele>
<time>2015-04-29T08:14:26Z</time>
</trkpt>
<trkpt lat="34.9501003" lon="32.8342504">
<ele>1425.40</ele>
<time>2015-04-29T08:14:29Z</time>
</trkpt>
<trkpt lat="34.9500788" lon="32.8343179">
<ele>1428.46</ele>
<time>2015-04-29T08:14:32Z</time>
</trkpt>
<trkpt lat="34.9500609" lon="32.8343896">
<ele>1429.85</ele>
<time>2015-04-29T08:14:35Z</time>
</trkpt>
<trkpt lat="34.9500385" lon="32.8344624">
<ele>1430.65</ele>
<time>2015-04-29T08:14:38Z</time>
</trkpt>
<trkpt lat="34.9500202" lon="32.8345287">
<ele>1430.00</ele>
<time>2015-04-29T08:14:41Z</time>
</trkpt>
<trkpt lat="34.9500054" lon="32.8345912">
<ele>1426.04</ele>
<time>2015-04-29T08:14:44Z</time>
</trkpt>
<trkpt lat="34.9499522" lon="32.8346240">
<ele>1420.53</ele>
<time>2015-04-29T08:14:48Z</time>
</trkpt>
<trkpt lat="34.9499269" lon="32.8346907">
<ele>1418.50</ele>
<time>2015-04-29T08:14:52Z</time>
</trkpt>
<trkpt lat="34.9499002" lon="32.8347518">
<ele>1417.12</ele>
<time>2015-04-29T08:14:56Z</time>
</trkpt>
<trkpt lat="34.9498976" lon="32.8348136">
<ele>1417.43</ele>
<time>2015-04-29T08:14:59Z</time>
</trkpt>
<trkpt lat="34.9498970" lon="32.8348733">
<ele>1418.97</ele>
<time>2015-04-29T08:15:02Z</time>
</trkpt>
<trkpt lat="34.9498902" lon="32.8349310">
<ele>1420.41</ele>
<time>2015-04-29T08:15:05Z</time>
</trkpt>
<trkpt lat="34.9498905" lon="32.8349900">
<ele>1421.59</ele>
<time>2015-04-29T08:15:08Z</time>
</trkpt>
<trkpt lat="34.9498859" lon="32.8350501">
<ele>1423.86</ele>
<time>2015-04-29T08:15:11Z</time>
</trkpt>
<trkpt lat="34.9498825" lon="32.8351071">
<ele>1423.77</ele>
<time>2015-04-29T08:15:14Z</time>
</trkpt>
<trkpt lat="34.9498634" lon="32.8351585">
<ele>1425.76</ele>
<time>2015-04-29T08:15:17Z</time>
</trkpt>
<trkpt lat="34.9498269" lon="32.8352268">
<ele>1433.89</ele>
<time>2015-04-29T08:15:20Z</time>
</trkpt>
<trkpt lat="34.9498083" lon="32.8352773">
<ele>1436.40</ele>
<time>2015-04-29T08:15:23Z</time>
</trkpt>
<trkpt lat="34.9498019" lon="32.8353336">
<ele>1432.29</ele>
<time>2015-04-29T08:15:36Z</time>
</trkpt>
<trkpt lat="34.9497739" lon="32.8353891">
<ele>1433.33</ele>
<time>2015-04-29T08:15:39Z</time>
</trkpt>
<trkpt lat="34.9497441" lon="32.8354344">
<ele>1435.65</ele>
<time>2015-04-29T08:15:41Z</time>
</trkpt>
<trkpt lat="34.9497094" lon="32.8354876">
<ele>1436.48</ele>
<time>2015-04-29T08:15:43Z</time>
</trkpt>
<trkpt lat="34.9496759" lon="32.8355381">
<ele>1436.19</ele>
<time>2015-04-29T08:15:45Z</time>
</trkpt>
<trkpt lat="34.9496292" lon="32.8355975">
<ele>1436.06</ele>
<time>2015-04-29T08:15:48Z</time>
</trkpt>
<trkpt lat="34.9495997" lon="32.8356427">
<ele>1435.59</ele>
<time>2015-04-29T08:15:50Z</time>
</trkpt>
<trkpt lat="34.9495712" lon="32.8356898">
<ele>1434.47</ele>
<time>2015-04-29T08:15:52Z</time>
</trkpt>
<trkpt lat="34.9495530" lon="32.8357636">
<ele>1432.85</ele>
<time>2015-04-29T08:15:55Z</time>
</trkpt>
<trkpt lat="34.9495563" lon="32.8358437">
<ele>1430.15</ele>
<time>2015-04-29T08:15:58Z</time>
</trkpt>
<trkpt lat="34.9495550" lon="32.8359016">
<ele>1431.36</ele>
<time>2015-04-29T08:16:00Z</time>
</trkpt>
<trkpt lat="34.9495489" lon="32.8359671">
<ele>1430.91</ele>
<time>2015-04-29T08:16:02Z</time>
</trkpt>
<trkpt lat="34.9495543" lon="32.8360339">
<ele>1429.80</ele>
<time>2015-04-29T08:16:04Z</time>
</trkpt>
<trkpt lat="34.9495658" lon="32.8361032">
<ele>1429.02</ele>
<time>2015-04-29T08:16:06Z</time>
</trkpt>
<trkpt lat="34.9495786" lon="32.8361803">
<ele>1428.32</ele>
<time>2015-04-29T08:16:08Z</time>
</trkpt>
<trkpt lat="34.9495955" lon="32.8362612">
<ele>1427.90</ele>
<time>2015-04-29T08:16:10Z</time>
</trkpt>
<trkpt lat="34.9496109" lon="32.8363207">
<ele>1427.83</ele>
<time>2015-04-29T08:16:11Z</time>
</trkpt>
<trkpt lat="34.9496406" lon="32.8364213">
<ele>1428.28</ele>
<time>2015-04-29T08:16:13Z</time>
</trkpt>
<trkpt lat="34.9496634" lon="32.8365219">
<ele>1429.89</ele>
<time>2015-04-29T08:16:15Z</time>
</trkpt>
<trkpt lat="34.9496806" lon="32.8366232">
<ele>1429.54</ele>
<time>2015-04-29T08:16:17Z</time>
</trkpt>
<trkpt lat="34.9497030" lon="32.8367165">
<ele>1427.46</ele>
<time>2015-04-29T08:16:19Z</time>
</trkpt>
<trkpt lat="34.9497196" lon="32.8368217">
<ele>1426.93</ele>
<time>2015-04-29T08:16:21Z</time>
</trkpt>
<trkpt lat="34.9497124" lon="32.8369168">
<ele>1424.80</ele>
<time>2015-04-29T08:16:23Z</time>
</trkpt>
<trkpt lat="34.9496704" lon="32.8369626">
<ele>1424.78</ele>
<time>2015-04-29T08:16:24Z</time>
</trkpt>
<trkpt lat="34.9495979" lon="32.8370267">
<ele>1425.02</ele>
<time>2015-04-29T08:16:26Z</time>
</trkpt>
<trkpt lat="34.9495184" lon="32.8370744">
<ele>1426.57</ele>
<time>2015-04-29T08:16:28Z</time>
</trkpt>
<trkpt lat="34.9494411" lon="32.8371224">
<ele>1428.21</ele>
<time>2015-04-29T08:16:30Z</time>
</trkpt>
<trkpt lat="34.9493624" lon="32.8371756">
<ele>1427.37</ele>
<time>2015-04-29T08:16:32Z</time>
</trkpt>
<trkpt lat="34.9492826" lon="32.8372141">
<ele>1428.07</ele>
<time>2015-04-29T08:16:33Z</time>
</trkpt>
<trkpt lat="34.9492005" lon="32.8372632">
<ele>1428.09</ele>
<time>2015-04-29T08:16:35Z</time>
</trkpt>
<trkpt lat="34.9491514" lon="32.8372834">
<ele>1427.92</ele>
<time>2015-04-29T08:16:36Z</time>
</trkpt>
<trkpt lat="34.9490981" lon="32.8372966">
<ele>1427.84</ele>
<time>2015-04-29T08:16:37Z</time>
</trkpt>
<trkpt lat="34.9490423" lon="32.8373084">
<ele>1427.80</ele>
<time>2015-04-29T08:16:38Z</time>
</trkpt>
<trkpt lat="34.9489972" lon="32.8373119">
<ele>1427.28</ele>
<time>2015-04-29T08:16:39Z</time>
</trkpt>
<trkpt lat="34.9489351" lon="32.8372511">
<ele>1426.89</ele>
<time>2015-04-29T08:16:41Z</time>
</trkpt>
<trkpt lat="34.9489083" lon="32.8371710">
<ele>1429.04</ele>
<time>2015-04-29T08:16:43Z</time>
</trkpt>
<trkpt lat="34.9489009" lon="32.8370937">
<ele>1431.08</ele>
<time>2015-04-29T08:16:45Z</time>
</trkpt>
<trkpt lat="34.9488801" lon="32.8370097">
<ele>1430.84</ele>
<time>2015-04-29T08:16:47Z</time>
</trkpt>
<trkpt lat="34.9488436" lon="32.8369503">
<ele>1430.78</ele>
<time>2015-04-29T08:16:49Z</time>
</trkpt>
<trkpt lat="34.9487896" lon="32.8369132">
<ele>1432.77</ele>
<time>2015-04-29T08:16:51Z</time>
</trkpt>
<trkpt lat="34.9487348" lon="32.8368783">
<ele>1432.01</ele>
<time>2015-04-29T08:16:53Z</time>
</trkpt>
<trkpt lat="34.9486768" lon="32.8368468">
<ele>1431.07</ele>
<time>2015-04-29T08:16:55Z</time>
</trkpt>
<trkpt lat="34.9486124" lon="32.8368113">
<ele>1429.59</ele>
<time>2015-04-29T08:16:57Z</time>
</trkpt>
<trkpt lat="34.9485478" lon="32.8367697">
<ele>1428.47</ele>
<time>2015-04-29T08:16:59Z</time>
</trkpt>
<trkpt lat="34.9484770" lon="32.8367166">
<ele>1426.69</ele>
<time>2015-04-29T08:17:01Z</time>
</trkpt>
<trkpt lat="34.9484195" lon="32.8366807">
<ele>1426.72</ele>
<time>2015-04-29T08:17:02Z</time>
</trkpt>
<trkpt lat="34.9483750" lon="32.8366536">
<ele>1426.24</ele>
<time>2015-04-29T08:17:03Z</time>
</trkpt>
<trkpt lat="34.9483205" lon="32.8366215">
<ele>1426.00</ele>
<time>2015-04-29T08:17:04Z</time>
</trkpt>
<trkpt lat="34.9482845" lon="32.8365818">
<ele>1425.88</ele>
<time>2015-04-29T08:17:05Z</time>
</trkpt>
<trkpt lat="34.9482408" lon="32.8365445">
<ele>1425.82</ele>
<time>2015-04-29T08:17:06Z</time>
</trkpt>
<trkpt lat="34.9481961" lon="32.8365068">
<ele>1426.79</ele>
<time>2015-04-29T08:17:07Z</time>
</trkpt>
<trkpt lat="34.9481530" lon="32.8364689">
<ele>1428.28</ele>
<time>2015-04-29T08:17:08Z</time>
</trkpt>
<trkpt lat="34.9481126" lon="32.8364269">
<ele>1429.52</ele>
<time>2015-04-29T08:17:09Z</time>
</trkpt>
<trkpt lat="34.9480444" lon="32.8363665">
<ele>1430.45</ele>
<time>2015-04-29T08:17:11Z</time>
</trkpt>
<trkpt lat="34.9479916" lon="32.8363301">
<ele>1430.60</ele>
<time>2015-04-29T08:17:12Z</time>
</trkpt>
<trkpt lat="34.9479157" lon="32.8363074">
<ele>1433.47</ele>
<time>2015-04-29T08:17:14Z</time>
</trkpt>
<trkpt lat="34.9478599" lon="32.8362806">
<ele>1436.19</ele>
<time>2015-04-29T08:17:16Z</time>
</trkpt>
<trkpt lat="34.9478169" lon="32.8362600">
<ele>1433.29</ele>
<time>2015-04-29T08:17:20Z</time>
</trkpt>
<trkpt lat="34.9477694" lon="32.8362700">
<ele>1431.95</ele>
<time>2015-04-29T08:17:23Z</time>
</trkpt>
<trkpt lat="34.9477220" lon="32.8363040">
<ele>1432.28</ele>
<time>2015-04-29T08:17:26Z</time>
</trkpt>
<trkpt lat="34.9476867" lon="32.8363426">
<ele>1431.89</ele>
<time>2015-04-29T08:17:28Z</time>
</trkpt>
<trkpt lat="34.9476332" lon="32.8363866">
<ele>1429.29</ele>
<time>2015-04-29T08:17:30Z</time>
</trkpt>
<trkpt lat="34.9475668" lon="32.8364489">
<ele>1428.39</ele>
<time>2015-04-29T08:17:32Z</time>
</trkpt>
<trkpt lat="34.9474982" lon="32.8365122">
<ele>1430.17</ele>
<time>2015-04-29T08:17:34Z</time>
</trkpt>
<trkpt lat="34.9473913" lon="32.8365742">
<ele>1430.11</ele>
<time>2015-04-29T08:17:36Z</time>
</trkpt>
<trkpt lat="34.9473380" lon="32.8365906">
<ele>1428.94</ele>
<time>2015-04-29T08:17:37Z</time>
</trkpt>
<trkpt lat="34.9472932" lon="32.8366068">
<ele>1428.85</ele>
<time>2015-04-29T08:17:38Z</time>
</trkpt>
<trkpt lat="34.9472142" lon="32.8366306">
<ele>1429.53</ele>
<time>2015-04-29T08:17:40Z</time>
</trkpt>
<trkpt lat="34.9471472" lon="32.8366560">
<ele>1428.20</ele>
<time>2015-04-29T08:17:42Z</time>
</trkpt>
<trkpt lat="34.9470936" lon="32.8367278">
<ele>1427.87</ele>
<time>2015-04-29T08:17:44Z</time>
</trkpt>
<trkpt lat="34.9470644" lon="32.8367883">
<ele>1427.82</ele>
<time>2015-04-29T08:17:45Z</time>
</trkpt>
<trkpt lat="34.9470241" lon="32.8368607">
<ele>1427.79</ele>
<time>2015-04-29T08:17:46Z</time>
</trkpt>
<trkpt lat="34.9469784" lon="32.8369256">
<ele>1427.27</ele>
<time>2015-04-29T08:17:47Z</time>
</trkpt>
<trkpt lat="34.9469434" lon="32.8369925">
<ele>1427.52</ele>
<time>2015-04-29T08:17:48Z</time>
</trkpt>
<trkpt lat="34.9468925" lon="32.8370585">
<ele>1427.64</ele>
<time>2015-04-29T08:17:49Z</time>
</trkpt>
<trkpt lat="34.9468330" lon="32.8371103">
<ele>1428.20</ele>
<time>2015-04-29T08:17:50Z</time>
</trkpt>
<trkpt lat="34.9467812" lon="32.8371707">
<ele>1427.98</ele>
<time>2015-04-29T08:17:51Z</time>
</trkpt>
<trkpt lat="34.9467317" lon="32.8372283">
<ele>1428.37</ele>
<time>2015-04-29T08:17:52Z</time>
</trkpt>
<trkpt lat="34.9466756" lon="32.8372790">
<ele>1427.56</ele>
<time>2015-04-29T08:17:53Z</time>
</trkpt>
<trkpt lat="34.9466177" lon="32.8373382">
<ele>1426.66</ele>
<time>2015-04-29T08:17:54Z</time>
</trkpt>
<trkpt lat="34.9465622" lon="32.8373854">
<ele>1424.71</ele>
<time>2015-04-29T08:17:55Z</time>
</trkpt>
<trkpt lat="34.9464919" lon="32.8374480">
<ele>1422.74</ele>
<time>2015-04-29T08:17:56Z</time>
</trkpt>
<trkpt lat="34.9464245" lon="32.8374973">
<ele>1421.25</ele>
<time>2015-04-29T08:17:57Z</time>
</trkpt>
<trkpt lat="34.9463519" lon="32.8375384">
<ele>1420.00</ele>
<time>2015-04-29T08:17:58Z</time>
</trkpt>
<trkpt lat="34.9462751" lon="32.8375633">
<ele>1419.38</ele>
<time>2015-04-29T08:17:59Z</time>
</trkpt>
<trkpt lat="34.9462022" lon="32.8375940">
<ele>1418.57</ele>
<time>2015-04-29T08:18:00Z</time>
</trkpt>
<trkpt lat="34.9461237" lon="32.8376054">
<ele>1418.17</ele>
<time>2015-04-29T08:18:01Z</time>
</trkpt>
<trkpt lat="34.9460587" lon="32.8376473">
<ele>1417.46</ele>
<time>2015-04-29T08:18:02Z</time>
</trkpt>
<trkpt lat="34.9459986" lon="32.8376792">
<ele>1417.11</ele>
<time>2015-04-29T08:18:03Z</time>
</trkpt>
<trkpt lat="34.9459524" lon="32.8377232">
<ele>1416.94</ele>
<time>2015-04-29T08:18:04Z</time>
</trkpt>
<trkpt lat="34.9459058" lon="32.8377506">
<ele>1417.35</ele>
<time>2015-04-29T08:18:05Z</time>
</trkpt>
<trkpt lat="34.9458444" lon="32.8377916">
<ele>1419.16</ele>
<time>2015-04-29T08:18:07Z</time>
</trkpt>
<trkpt lat="34.9458245" lon="32.8378503">
<ele>1414.14</ele>
<time>2015-04-29T08:18:42Z</time>
</trkpt>
<trkpt lat="34.9457918" lon="32.8378963">
<ele>1412.43</ele>
<time>2015-04-29T08:18:45Z</time>
</trkpt>
<trkpt lat="34.9457693" lon="32.8379555">
<ele>1413.68</ele>
<time>2015-04-29T08:18:47Z</time>
</trkpt>
<trkpt lat="34.9457371" lon="32.8380197">
<ele>1415.24</ele>
<time>2015-04-29T08:18:49Z</time>
</trkpt>
<trkpt lat="34.9457093" lon="32.8380870">
<ele>1416.88</ele>
<time>2015-04-29T08:18:51Z</time>
</trkpt>
<trkpt lat="34.9456806" lon="32.8381453">
<ele>1418.79</ele>
<time>2015-04-29T08:18:53Z</time>
</trkpt>
<trkpt lat="34.9456454" lon="32.8381883">
<ele>1422.26</ele>
<time>2015-04-29T08:18:56Z</time>
</trkpt>
<trkpt lat="34.9456807" lon="32.8381300">
<ele>1424.26</ele>
<time>2015-04-29T08:19:11Z</time>
</trkpt>
<trkpt lat="34.9457100" lon="32.8380816">
<ele>1424.13</ele>
<time>2015-04-29T08:19:13Z</time>
</trkpt>
<trkpt lat="34.9457374" lon="32.8380273">
<ele>1423.85</ele>
<time>2015-04-29T08:19:15Z</time>
</trkpt>
<trkpt lat="34.9457652" lon="32.8379735">
<ele>1424.53</ele>
<time>2015-04-29T08:19:17Z</time>
</trkpt>
<trkpt lat="34.9458023" lon="32.8379268">
<ele>1423.70</ele>
<time>2015-04-29T08:19:19Z</time>
</trkpt>
<trkpt lat="34.9458472" lon="32.8378757">
<ele>1423.00</ele>
<time>2015-04-29T08:19:21Z</time>
</trkpt>
<trkpt lat="34.9459064" lon="32.8378209">
<ele>1421.57</ele>
<time>2015-04-29T08:19:23Z</time>
</trkpt>
<trkpt lat="34.9459859" lon="32.8377620">
<ele>1420.16</ele>
<time>2015-04-29T08:19:24Z</time>
</trkpt>
<trkpt lat="34.9460298" lon="32.8377426">
<ele>1418.96</ele>
<time>2015-04-29T08:19:25Z</time>
</trkpt>
<trkpt lat="34.9460714" lon="32.8377025">
<ele>1417.86</ele>
<time>2015-04-29T08:19:26Z</time>
</trkpt>
<trkpt lat="34.9461128" lon="32.8376726">
<ele>1416.81</ele>
<time>2015-04-29T08:19:27Z</time>
</trkpt>
<trkpt lat="34.9461635" lon="32.8376464">
<ele>1417.29</ele>
<time>2015-04-29T08:19:28Z</time>
</trkpt>
<trkpt lat="34.9462121" lon="32.8376401">
<ele>1418.02</ele>
<time>2015-04-29T08:19:29Z</time>
</trkpt>
<trkpt lat="34.9462782" lon="32.8376139">
<ele>1418.58</ele>
<time>2015-04-29T08:19:31Z</time>
</trkpt>
<trkpt lat="34.9463226" lon="32.8376004">
<ele>1422.54</ele>
<time>2015-04-29T08:19:36Z</time>
</trkpt>
<trkpt lat="34.9462756" lon="32.8376141">
<ele>1426.79</ele>
<time>2015-04-29T08:19:53Z</time>
</trkpt>
<trkpt lat="34.9462527" lon="32.8376670">
<ele>1428.84</ele>
<time>2015-04-29T08:19:59Z</time>
</trkpt>
<trkpt lat="34.9462177" lon="32.8377031">
<ele>1429.59</ele>
<time>2015-04-29T08:20:05Z</time>
</trkpt>
<trkpt lat="34.9461936" lon="32.8377542">
<ele>1432.90</ele>
<time>2015-04-29T08:20:20Z</time>
</trkpt>
<trkpt lat="34.9461828" lon="32.8378131">
<ele>1432.98</ele>
<time>2015-04-29T08:20:25Z</time>
</trkpt>
<trkpt lat="34.9461728" lon="32.8378678">
<ele>1431.83</ele>
<time>2015-04-29T08:20:31Z</time>
</trkpt>
<trkpt lat="34.9461738" lon="32.8379227">
<ele>1431.11</ele>
<time>2015-04-29T08:20:40Z</time>
</trkpt>
<trkpt lat="34.9461841" lon="32.8379771">
<ele>1432.91</ele>
<time>2015-04-29T08:20:56Z</time>
</trkpt>
<trkpt lat="34.9461802" lon="32.8380354">
<ele>1433.77</ele>
<time>2015-04-29T08:21:06Z</time>
</trkpt>
<trkpt lat="34.9461583" lon="32.8380848">
<ele>1436.81</ele>
<time>2015-04-29T08:21:14Z</time>
</trkpt>
<trkpt lat="34.9461616" lon="32.8381447">
<ele>1439.43</ele>
<time>2015-04-29T08:21:23Z</time>
</trkpt>
<trkpt lat="34.9461544" lon="32.8381992">
<ele>1440.30</ele>
<time>2015-04-29T08:21:31Z</time>
</trkpt>
<trkpt lat="34.9461471" lon="32.8382534">
<ele>1442.03</ele>
<time>2015-04-29T08:21:39Z</time>
</trkpt>
<trkpt lat="34.9461310" lon="32.8383106">
<ele>1443.28</ele>
<time>2015-04-29T08:21:46Z</time>
</trkpt>
<trkpt lat="34.9460969" lon="32.8383599">
<ele>1443.02</ele>
<time>2015-04-29T08:21:52Z</time>
</trkpt>
<trkpt lat="34.9460784" lon="32.8384192">
<ele>1440.92</ele>
<time>2015-04-29T08:22:05Z</time>
</trkpt>
<trkpt lat="34.9460401" lon="32.8384518">
<ele>1441.74</ele>
<time>2015-04-29T08:22:16Z</time>
</trkpt>
<trkpt lat="34.9459951" lon="32.8384962">
<ele>1441.32</ele>
<time>2015-04-29T08:22:20Z</time>
</trkpt>
<trkpt lat="34.9459383" lon="32.8385429">
<ele>1439.83</ele>
<time>2015-04-29T08:22:23Z</time>
</trkpt>
<trkpt lat="34.9458895" lon="32.8385686">
<ele>1441.53</ele>
<time>2015-04-29T08:22:25Z</time>
</trkpt>
<trkpt lat="34.9458376" lon="32.8385955">
<ele>1443.70</ele>
<time>2015-04-29T08:22:27Z</time>
</trkpt>
<trkpt lat="34.9457893" lon="32.8386334">
<ele>1444.50</ele>
<time>2015-04-29T08:22:29Z</time>
</trkpt>
<trkpt lat="34.9457423" lon="32.8386761">
<ele>1444.19</ele>
<time>2015-04-29T08:22:31Z</time>
</trkpt>
<trkpt lat="34.9456958" lon="32.8387176">
<ele>1444.12</ele>
<time>2015-04-29T08:22:33Z</time>
</trkpt>
<trkpt lat="34.9456520" lon="32.8387489">
<ele>1444.35</ele>
<time>2015-04-29T08:22:35Z</time>
</trkpt>
<trkpt lat="34.9456090" lon="32.8387705">
<ele>1444.41</ele>
<time>2015-04-29T08:22:37Z</time>
</trkpt>
<trkpt lat="34.9455607" lon="32.8388233">
<ele>1443.59</ele>
<time>2015-04-29T08:22:40Z</time>
</trkpt>
<trkpt lat="34.9455183" lon="32.8388422">
<ele>1442.47</ele>
<time>2015-04-29T08:22:42Z</time>
</trkpt>
<trkpt lat="34.9454706" lon="32.8388667">
<ele>1441.19</ele>
<time>2015-04-29T08:22:44Z</time>
</trkpt>
<trkpt lat="34.9454338" lon="32.8389111">
<ele>1440.87</ele>
<time>2015-04-29T08:22:46Z</time>
</trkpt>
<trkpt lat="34.9453925" lon="32.8389525">
<ele>1440.79</ele>
<time>2015-04-29T08:22:48Z</time>
</trkpt>
<trkpt lat="34.9453438" lon="32.8389761">
<ele>1441.02</ele>
<time>2015-04-29T08:22:50Z</time>
</trkpt>
<trkpt lat="34.9452942" lon="32.8389714">
<ele>1440.07</ele>
<time>2015-04-29T08:22:52Z</time>
</trkpt>
<trkpt lat="34.9452623" lon="32.8389269">
<ele>1438.00</ele>
<time>2015-04-29T08:23:02Z</time>
</trkpt>
<trkpt lat="34.9452235" lon="32.8388696">
<ele>1431.03</ele>
<time>2015-04-29T08:23:10Z</time>
</trkpt>
<trkpt lat="34.9451789" lon="32.8388224">
<ele>1430.58</ele>
<time>2015-04-29T08:23:12Z</time>
</trkpt>
<trkpt lat="34.9451286" lon="32.8387837">
<ele>1431.71</ele>
<time>2015-04-29T08:23:14Z</time>
</trkpt>
<trkpt lat="34.9450842" lon="32.8387448">
<ele>1433.00</ele>
<time>2015-04-29T08:23:16Z</time>
</trkpt>
<trkpt lat="34.9450374" lon="32.8387088">
<ele>1433.82</ele>
<time>2015-04-29T08:23:18Z</time>
</trkpt>
<trkpt lat="34.9449794" lon="32.8386840">
<ele>1432.02</ele>
<time>2015-04-29T08:23:20Z</time>
</trkpt>
<trkpt lat="34.9449068" lon="32.8386819">
<ele>1429.83</ele>
<time>2015-04-29T08:23:22Z</time>
</trkpt>
<trkpt lat="34.9448344" lon="32.8387026">
<ele>1427.53</ele>
<time>2015-04-29T08:23:24Z</time>
</trkpt>
<trkpt lat="34.9447788" lon="32.8387252">
<ele>1426.45</ele>
<time>2015-04-29T08:23:26Z</time>
</trkpt>
<trkpt lat="34.9447201" lon="32.8387354">
<ele>1429.18</ele>
<time>2015-04-29T08:23:28Z</time>
</trkpt>
<trkpt lat="34.9446610" lon="32.8387432">
<ele>1431.62</ele>
<time>2015-04-29T08:23:30Z</time>
</trkpt>
<trkpt lat="34.9446055" lon="32.8387656">
<ele>1433.72</ele>
<time>2015-04-29T08:23:32Z</time>
</trkpt>
<trkpt lat="34.9445471" lon="32.8387957">
<ele>1433.25</ele>
<time>2015-04-29T08:23:34Z</time>
</trkpt>
<trkpt lat="34.9444941" lon="32.8388198">
<ele>1433.01</ele>
<time>2015-04-29T08:23:35Z</time>
</trkpt>
<trkpt lat="34.9444170" lon="32.8388136">
<ele>1433.07</ele>
<time>2015-04-29T08:23:37Z</time>
</trkpt>
<trkpt lat="34.9443470" lon="32.8388258">
<ele>1433.09</ele>
<time>2015-04-29T08:23:39Z</time>
</trkpt>
<trkpt lat="34.9442689" lon="32.8388429">
<ele>1432.59</ele>
<time>2015-04-29T08:23:41Z</time>
</trkpt>
<trkpt lat="34.9442006" lon="32.8388828">
<ele>1433.97</ele>
<time>2015-04-29T08:23:43Z</time>
</trkpt>
<trkpt lat="34.9441192" lon="32.8389181">
<ele>1434.56</ele>
<time>2015-04-29T08:23:45Z</time>
</trkpt>
<trkpt lat="34.9440392" lon="32.8389455">
<ele>1435.46</ele>
<time>2015-04-29T08:23:47Z</time>
</trkpt>
<trkpt lat="34.9439624" lon="32.8389479">
<ele>1435.94</ele>
<time>2015-04-29T08:23:49Z</time>
</trkpt>
<trkpt lat="34.9438974" lon="32.8389381">
<ele>1434.05</ele>
<time>2015-04-29T08:23:51Z</time>
</trkpt>
<trkpt lat="34.9438381" lon="32.8389338">
<ele>1434.58</ele>
<time>2015-04-29T08:23:53Z</time>
</trkpt>
<trkpt lat="34.9437876" lon="32.8389484">
<ele>1436.22</ele>
<time>2015-04-29T08:23:55Z</time>
</trkpt>
<trkpt lat="34.9437346" lon="32.8389743">
<ele>1436.62</ele>
<time>2015-04-29T08:23:57Z</time>
</trkpt>
<trkpt lat="34.9436788" lon="32.8389930">
<ele>1435.98</ele>
<time>2015-04-29T08:23:59Z</time>
</trkpt>
<trkpt lat="34.9436191" lon="32.8390253">
<ele>1436.31</ele>
<time>2015-04-29T08:24:01Z</time>
</trkpt>
<trkpt lat="34.9435595" lon="32.8390468">
<ele>1437.40</ele>
<time>2015-04-29T08:24:03Z</time>
</trkpt>
<trkpt lat="34.9434977" lon="32.8390595">
<ele>1437.17</ele>
<time>2015-04-29T08:24:05Z</time>
</trkpt>
<trkpt lat="34.9434393" lon="32.8390750">
<ele>1436.36</ele>
<time>2015-04-29T08:24:07Z</time>
</trkpt>
<trkpt lat="34.9433825" lon="32.8391018">
<ele>1436.66</ele>
<time>2015-04-29T08:24:09Z</time>
</trkpt>
<trkpt lat="34.9433268" lon="32.8391265">
<ele>1436.74</ele>
<time>2015-04-29T08:24:11Z</time>
</trkpt>
<trkpt lat="34.9432685" lon="32.8391330">
<ele>1436.00</ele>
<time>2015-04-29T08:24:13Z</time>
</trkpt>
<trkpt lat="34.9432108" lon="32.8391150">
<ele>1434.32</ele>
<time>2015-04-29T08:24:15Z</time>
</trkpt>
<trkpt lat="34.9431565" lon="32.8391081">
<ele>1432.65</ele>
<time>2015-04-29T08:24:17Z</time>
</trkpt>
<trkpt lat="34.9430967" lon="32.8391072">
<ele>1433.25</ele>
<time>2015-04-29T08:24:20Z</time>
</trkpt>
<trkpt lat="34.9430359" lon="32.8391016">
<ele>1433.70</ele>
<time>2015-04-29T08:24:23Z</time>
</trkpt>
<trkpt lat="34.9429775" lon="32.8391325">
<ele>1435.88</ele>
<time>2015-04-29T08:24:26Z</time>
</trkpt>
<trkpt lat="34.9429347" lon="32.8391708">
<ele>1438.15</ele>
<time>2015-04-29T08:24:29Z</time>
</trkpt>
<trkpt lat="34.9429098" lon="32.8392189">
<ele>1439.47</ele>
<time>2015-04-29T08:24:33Z</time>
</trkpt>
<trkpt lat="34.9428714" lon="32.8392731">
<ele>1441.37</ele>
<time>2015-04-29T08:24:37Z</time>
</trkpt>
<trkpt lat="34.9428430" lon="32.8393367">
<ele>1443.17</ele>
<time>2015-04-29T08:24:41Z</time>
</trkpt>
<trkpt lat="34.9428152" lon="32.8393849">
<ele>1443.69</ele>
<time>2015-04-29T08:24:44Z</time>
</trkpt>
<trkpt lat="34.9427941" lon="32.8394440">
<ele>1441.88</ele>
<time>2015-04-29T08:24:48Z</time>
</trkpt>
<trkpt lat="34.9427867" lon="32.8395057">
<ele>1441.08</ele>
<time>2015-04-29T08:24:52Z</time>
</trkpt>
<trkpt lat="34.9427776" lon="32.8395728">
<ele>1444.03</ele>
<time>2015-04-29T08:24:56Z</time>
</trkpt>
<trkpt lat="34.9427809" lon="32.8396427">
<ele>1444.09</ele>
<time>2015-04-29T08:25:00Z</time>
</trkpt>
<trkpt lat="34.9427703" lon="32.8397137">
<ele>1446.91</ele>
<time>2015-04-29T08:25:04Z</time>
</trkpt>
<trkpt lat="34.9427704" lon="32.8397792">
<ele>1448.89</ele>
<time>2015-04-29T08:25:08Z</time>
</trkpt>
<trkpt lat="34.9427418" lon="32.8398374">
<ele>1453.02</ele>
<time>2015-04-29T08:25:12Z</time>
</trkpt>
<trkpt lat="34.9427280" lon="32.8399065">
<ele>1452.84</ele>
<time>2015-04-29T08:25:16Z</time>
</trkpt>
<trkpt lat="34.9427164" lon="32.8399681">
<ele>1450.27</ele>
<time>2015-04-29T08:25:19Z</time>
</trkpt>
<trkpt lat="34.9426965" lon="32.8400274">
<ele>1448.45</ele>
<time>2015-04-29T08:25:22Z</time>
</trkpt>
<trkpt lat="34.9426788" lon="32.8400805">
<ele>1448.35</ele>
<time>2015-04-29T08:25:25Z</time>
</trkpt>
<trkpt lat="34.9426586" lon="32.8401505">
<ele>1451.23</ele>
<time>2015-04-29T08:25:29Z</time>
</trkpt>
<trkpt lat="34.9426340" lon="32.8402092">
<ele>1457.69</ele>
<time>2015-04-29T08:25:32Z</time>
</trkpt>
<trkpt lat="34.9425937" lon="32.8402571">
<ele>1459.63</ele>
<time>2015-04-29T08:25:35Z</time>
</trkpt>
<trkpt lat="34.9425449" lon="32.8402945">
<ele>1459.37</ele>
<time>2015-04-29T08:25:38Z</time>
</trkpt>
<trkpt lat="34.9424995" lon="32.8403235">
<ele>1457.84</ele>
<time>2015-04-29T08:25:41Z</time>
</trkpt>
<trkpt lat="34.9424595" lon="32.8403517">
<ele>1457.52</ele>
<time>2015-04-29T08:25:44Z</time>
</trkpt>
<trkpt lat="34.9424110" lon="32.8403875">
<ele>1458.49</ele>
<time>2015-04-29T08:25:48Z</time>
</trkpt>
<trkpt lat="34.9423767" lon="32.8404423">
<ele>1457.12</ele>
<time>2015-04-29T08:25:52Z</time>
</trkpt>
<trkpt lat="34.9423413" lon="32.8404779">
<ele>1457.93</ele>
<time>2015-04-29T08:25:55Z</time>
</trkpt>
<trkpt lat="34.9422969" lon="32.8405202">
<ele>1458.27</ele>
<time>2015-04-29T08:25:59Z</time>
</trkpt>
<trkpt lat="34.9422520" lon="32.8405588">
<ele>1459.10</ele>
<time>2015-04-29T08:26:03Z</time>
</trkpt>
<trkpt lat="34.9422095" lon="32.8406012">
<ele>1460.22</ele>
<time>2015-04-29T08:26:07Z</time>
</trkpt>
<trkpt lat="34.9421776" lon="32.8406559">
<ele>1459.10</ele>
<time>2015-04-29T08:26:11Z</time>
</trkpt>
<trkpt lat="34.9421413" lon="32.8406915">
<ele>1460.93</ele>
<time>2015-04-29T08:26:14Z</time>
</trkpt>
<trkpt lat="34.9420978" lon="32.8407193">
<ele>1462.91</ele>
<time>2015-04-29T08:26:17Z</time>
</trkpt>
<trkpt lat="34.9420515" lon="32.8407482">
<ele>1464.58</ele>
<time>2015-04-29T08:26:21Z</time>
</trkpt>
<trkpt lat="34.9419976" lon="32.8407640">
<ele>1464.81</ele>
<time>2015-04-29T08:26:25Z</time>
</trkpt>
<trkpt lat="34.9419414" lon="32.8407718">
<ele>1464.01</ele>
<time>2015-04-29T08:26:29Z</time>
</trkpt>
<trkpt lat="34.9418827" lon="32.8407816">
<ele>1463.03</ele>
<time>2015-04-29T08:26:33Z</time>
</trkpt>
<trkpt lat="34.9418261" lon="32.8407930">
<ele>1462.96</ele>
<time>2015-04-29T08:26:37Z</time>
</trkpt>
<trkpt lat="34.9417733" lon="32.8408227">
<ele>1460.71</ele>
<time>2015-04-29T08:26:41Z</time>
</trkpt>
<trkpt lat="34.9417144" lon="32.8408130">
<ele>1458.51</ele>
<time>2015-04-29T08:26:45Z</time>
</trkpt>
<trkpt lat="34.9416656" lon="32.8408166">
<ele>1459.23</ele>
<time>2015-04-29T08:26:48Z</time>
</trkpt>
<trkpt lat="34.9416152" lon="32.8408250">
<ele>1458.82</ele>
<time>2015-04-29T08:26:51Z</time>
</trkpt>
<trkpt lat="34.9415619" lon="32.8408259">
<ele>1460.14</ele>
<time>2015-04-29T08:26:54Z</time>
</trkpt>
<trkpt lat="34.9415150" lon="32.8408361">
<ele>1460.18</ele>
<time>2015-04-29T08:26:57Z</time>
</trkpt>
<trkpt lat="34.9414657" lon="32.8408677">
<ele>1460.69</ele>
<time>2015-04-29T08:27:00Z</time>
</trkpt>
<trkpt lat="34.9414211" lon="32.8409067">
<ele>1459.75</ele>
<time>2015-04-29T08:27:03Z</time>
</trkpt>
<trkpt lat="34.9413797" lon="32.8409532">
<ele>1459.38</ele>
<time>2015-04-29T08:27:06Z</time>
</trkpt>
<trkpt lat="34.9413559" lon="32.8410100">
<ele>1460.71</ele>
<time>2015-04-29T08:27:09Z</time>
</trkpt>
<trkpt lat="34.9413428" lon="32.8410787">
<ele>1459.88</ele>
<time>2015-04-29T08:27:12Z</time>
</trkpt>
<trkpt lat="34.9413440" lon="32.8411338">
<ele>1459.54</ele>
<time>2015-04-29T08:27:14Z</time>
</trkpt>
<trkpt lat="34.9413504" lon="32.8411884">
<ele>1459.70</ele>
<time>2015-04-29T08:27:16Z</time>
</trkpt>
<trkpt lat="34.9413733" lon="32.8412538">
<ele>1459.25</ele>
<time>2015-04-29T08:27:19Z</time>
</trkpt>
<trkpt lat="34.9413900" lon="32.8413059">
<ele>1460.07</ele>
<time>2015-04-29T08:27:22Z</time>
</trkpt>
<trkpt lat="34.9414022" lon="32.8413706">
<ele>1460.55</ele>
<time>2015-04-29T08:27:25Z</time>
</trkpt>
<trkpt lat="34.9414149" lon="32.8414436">
<ele>1461.73</ele>
<time>2015-04-29T08:27:28Z</time>
</trkpt>
<trkpt lat="34.9414277" lon="32.8415101">
<ele>1463.13</ele>
<time>2015-04-29T08:27:31Z</time>
</trkpt>
<trkpt lat="34.9414364" lon="32.8415781">
<ele>1468.56</ele>
<time>2015-04-29T08:27:34Z</time>
</trkpt>
<trkpt lat="34.9414400" lon="32.8416464">
<ele>1469.23</ele>
<time>2015-04-29T08:27:37Z</time>
</trkpt>
<trkpt lat="34.9414620" lon="32.8417167">
<ele>1470.07</ele>
<time>2015-04-29T08:27:40Z</time>
</trkpt>
<trkpt lat="34.9414860" lon="32.8417860">
<ele>1472.05</ele>
<time>2015-04-29T08:27:43Z</time>
</trkpt>
<trkpt lat="34.9414994" lon="32.8418494">
<ele>1472.80</ele>
<time>2015-04-29T08:27:46Z</time>
</trkpt>
<trkpt lat="34.9415193" lon="32.8419176">
<ele>1474.64</ele>
<time>2015-04-29T08:27:49Z</time>
</trkpt>
<trkpt lat="34.9415367" lon="32.8419975">
<ele>1471.99</ele>
<time>2015-04-29T08:27:52Z</time>
</trkpt>
<trkpt lat="34.9415598" lon="32.8420668">
<ele>1470.04</ele>
<time>2015-04-29T08:27:55Z</time>
</trkpt>
<trkpt lat="34.9415694" lon="32.8421296">
<ele>1469.17</ele>
<time>2015-04-29T08:27:58Z</time>
</trkpt>
<trkpt lat="34.9415625" lon="32.8421970">
<ele>1469.06</ele>
<time>2015-04-29T08:28:01Z</time>
</trkpt>
<trkpt lat="34.9415430" lon="32.8422703">
<ele>1467.30</ele>
<time>2015-04-29T08:28:04Z</time>
</trkpt>
<trkpt lat="34.9415152" lon="32.8423357">
<ele>1465.08</ele>
<time>2015-04-29T08:28:07Z</time>
</trkpt>
<trkpt lat="34.9414928" lon="32.8424035">
<ele>1466.17</ele>
<time>2015-04-29T08:28:10Z</time>
</trkpt>
<trkpt lat="34.9414866" lon="32.8424584">
<ele>1465.86</ele>
<time>2015-04-29T08:28:12Z</time>
</trkpt>
<trkpt lat="34.9414826" lon="32.8425164">
<ele>1465.79</ele>
<time>2015-04-29T08:28:14Z</time>
</trkpt>
<trkpt lat="34.9414778" lon="32.8425748">
<ele>1464.02</ele>
<time>2015-04-29T08:28:16Z</time>
</trkpt>
<trkpt lat="34.9414716" lon="32.8426399">
<ele>1467.32</ele>
<time>2015-04-29T08:28:18Z</time>
</trkpt>
<trkpt lat="34.9414732" lon="32.8427019">
<ele>1468.65</ele>
<time>2015-04-29T08:28:20Z</time>
</trkpt>
<trkpt lat="34.9414727" lon="32.8427578">
<ele>1470.73</ele>
<time>2015-04-29T08:28:22Z</time>
</trkpt>
<trkpt lat="34.9414677" lon="32.8428356">
<ele>1471.63</ele>
<time>2015-04-29T08:28:25Z</time>
</trkpt>
<trkpt lat="34.9414590" lon="32.8429116">
<ele>1469.74</ele>
<time>2015-04-29T08:28:28Z</time>
</trkpt>
<trkpt lat="34.9414525" lon="32.8429729">
<ele>1470.26</ele>
<time>2015-04-29T08:28:31Z</time>
</trkpt>
<trkpt lat="34.9414544" lon="32.8430278">
<ele>1469.40</ele>
<time>2015-04-29T08:28:44Z</time>
</trkpt>
<trkpt lat="34.9413955" lon="32.8430409">
<ele>1467.21</ele>
<time>2015-04-29T08:28:58Z</time>
</trkpt>
<trkpt lat="34.9413454" lon="32.8430534">
<ele>1467.69</ele>
<time>2015-04-29T08:29:01Z</time>
</trkpt>
<trkpt lat="34.9412992" lon="32.8430594">
<ele>1466.26</ele>
<time>2015-04-29T08:29:18Z</time>
</trkpt>
<trkpt lat="34.9412466" lon="32.8430304">
<ele>1467.71</ele>
<time>2015-04-29T08:29:23Z</time>
</trkpt>
<trkpt lat="34.9412084" lon="32.8429855">
<ele>1469.00</ele>
<time>2015-04-29T08:29:26Z</time>
</trkpt>
<trkpt lat="34.9411663" lon="32.8429417">
<ele>1471.42</ele>
<time>2015-04-29T08:29:29Z</time>
</trkpt>
<trkpt lat="34.9411294" lon="32.8429090">
<ele>1473.92</ele>
<time>2015-04-29T08:29:31Z</time>
</trkpt>
<trkpt lat="34.9410857" lon="32.8428710">
<ele>1475.05</ele>
<time>2015-04-29T08:29:33Z</time>
</trkpt>
<trkpt lat="34.9410442" lon="32.8428327">
<ele>1475.08</ele>
<time>2015-04-29T08:29:35Z</time>
</trkpt>
<trkpt lat="34.9410026" lon="32.8427887">
<ele>1474.59</ele>
<time>2015-04-29T08:29:37Z</time>
</trkpt>
<trkpt lat="34.9409600" lon="32.8427577">
<ele>1472.72</ele>
<time>2015-04-29T08:29:39Z</time>
</trkpt>
<trkpt lat="34.9409132" lon="32.8427345">
<ele>1471.00</ele>
<time>2015-04-29T08:29:41Z</time>
</trkpt>
<trkpt lat="34.9408686" lon="32.8427007">
<ele>1470.32</ele>
<time>2015-04-29T08:29:43Z</time>
</trkpt>
<trkpt lat="34.9408185" lon="32.8426694">
<ele>1470.15</ele>
<time>2015-04-29T08:29:45Z</time>
</trkpt>
<trkpt lat="34.9407683" lon="32.8426556">
<ele>1467.86</ele>
<time>2015-04-29T08:29:47Z</time>
</trkpt>
<trkpt lat="34.9407165" lon="32.8426431">
<ele>1464.53</ele>
<time>2015-04-29T08:29:49Z</time>
</trkpt>
<trkpt lat="34.9406722" lon="32.8426294">
<ele>1461.20</ele>
<time>2015-04-29T08:29:51Z</time>
</trkpt>
<trkpt lat="34.9406245" lon="32.8426070">
<ele>1459.87</ele>
<time>2015-04-29T08:29:53Z</time>
</trkpt>
<trkpt lat="34.9405763" lon="32.8425693">
<ele>1458.29</ele>
<time>2015-04-29T08:29:55Z</time>
</trkpt>
<trkpt lat="34.9405183" lon="32.8425208">
<ele>1458.64</ele>
<time>2015-04-29T08:29:57Z</time>
</trkpt>
<trkpt lat="34.9404498" lon="32.8424709">
<ele>1458.98</ele>
<time>2015-04-29T08:29:59Z</time>
</trkpt>
<trkpt lat="34.9403765" lon="32.8424354">
<ele>1456.82</ele>
<time>2015-04-29T08:30:01Z</time>
</trkpt>
<trkpt lat="34.9403021" lon="32.8424254">
<ele>1454.77</ele>
<time>2015-04-29T08:30:03Z</time>
</trkpt>
<trkpt lat="34.9402311" lon="32.8424440">
<ele>1453.26</ele>
<time>2015-04-29T08:30:05Z</time>
</trkpt>
<trkpt lat="34.9401673" lon="32.8424707">
<ele>1453.64</ele>
<time>2015-04-29T08:30:07Z</time>
</trkpt>
<trkpt lat="34.9401126" lon="32.8425184">
<ele>1452.48</ele>
<time>2015-04-29T08:30:09Z</time>
</trkpt>
<trkpt lat="34.9400607" lon="32.8425780">
<ele>1452.69</ele>
<time>2015-04-29T08:30:11Z</time>
</trkpt>
<trkpt lat="34.9399963" lon="32.8426395">
<ele>1451.24</ele>
<time>2015-04-29T08:30:13Z</time>
</trkpt>
<trkpt lat="34.9399282" lon="32.8426995">
<ele>1451.13</ele>
<time>2015-04-29T08:30:15Z</time>
</trkpt>
<trkpt lat="34.9398886" lon="32.8427291">
<ele>1451.45</ele>
<time>2015-04-29T08:30:16Z</time>
</trkpt>
<trkpt lat="34.9398124" lon="32.8427692">
<ele>1451.60</ele>
<time>2015-04-29T08:30:17Z</time>
</trkpt>
<trkpt lat="34.9397615" lon="32.8427694">
<ele>1452.18</ele>
<time>2015-04-29T08:30:18Z</time>
</trkpt>
<trkpt lat="34.9397067" lon="32.8427564">
<ele>1452.47</ele>
<time>2015-04-29T08:30:19Z</time>
</trkpt>
<trkpt lat="34.9396509" lon="32.8427498">
<ele>1452.62</ele>
<time>2015-04-29T08:30:20Z</time>
</trkpt>
<trkpt lat="34.9395746" lon="32.8427446">
<ele>1452.72</ele>
<time>2015-04-29T08:30:22Z</time>
</trkpt>
<trkpt lat="34.9394845" lon="32.8427472">
<ele>1453.00</ele>
<time>2015-04-29T08:30:24Z</time>
</trkpt>
<trkpt lat="34.9394362" lon="32.8427731">
<ele>1452.88</ele>
<time>2015-04-29T08:30:25Z</time>
</trkpt>
<trkpt lat="34.9393867" lon="32.8427834">
<ele>1453.32</ele>
<time>2015-04-29T08:30:26Z</time>
</trkpt>
<trkpt lat="34.9393146" lon="32.8428418">
<ele>1454.15</ele>
<time>2015-04-29T08:30:28Z</time>
</trkpt>
<trkpt lat="34.9392671" lon="32.8428566">
<ele>1454.46</ele>
<time>2015-04-29T08:30:29Z</time>
</trkpt>
<trkpt lat="34.9392205" lon="32.8428562">
<ele>1454.11</ele>
<time>2015-04-29T08:30:30Z</time>
</trkpt>
<trkpt lat="34.9391755" lon="32.8428406">
<ele>1452.43</ele>
<time>2015-04-29T08:30:31Z</time>
</trkpt>
<trkpt lat="34.9391336" lon="32.8428150">
<ele>1452.10</ele>
<time>2015-04-29T08:30:32Z</time>
</trkpt>
<trkpt lat="34.9390805" lon="32.8427536">
<ele>1453.09</ele>
<time>2015-04-29T08:30:34Z</time>
</trkpt>
<trkpt lat="34.9390390" lon="32.8426915">
<ele>1453.59</ele>
<time>2015-04-29T08:30:36Z</time>
</trkpt>
<trkpt lat="34.9389824" lon="32.8426500">
<ele>1454.47</ele>
<time>2015-04-29T08:30:38Z</time>
</trkpt>
<trkpt lat="34.9389289" lon="32.8425993">
<ele>1454.69</ele>
<time>2015-04-29T08:30:40Z</time>
</trkpt>
<trkpt lat="34.9388701" lon="32.8425290">
<ele>1456.24</ele>
<time>2015-04-29T08:30:42Z</time>
</trkpt>
<trkpt lat="34.9388218" lon="32.8424782">
<ele>1457.00</ele>
<time>2015-04-29T08:30:43Z</time>
</trkpt>
<trkpt lat="34.9387814" lon="32.8424373">
<ele>1456.38</ele>
<time>2015-04-29T08:30:44Z</time>
</trkpt>
<trkpt lat="34.9387443" lon="32.8423912">
<ele>1454.57</ele>
<time>2015-04-29T08:30:45Z</time>
</trkpt>
<trkpt lat="34.9386691" lon="32.8423285">
<ele>1451.46</ele>
<time>2015-04-29T08:30:47Z</time>
</trkpt>
<trkpt lat="34.9385933" lon="32.8422849">
<ele>1450.44</ele>
<time>2015-04-29T08:30:49Z</time>
</trkpt>
<trkpt lat="34.9385191" lon="32.8422632">
<ele>1449.68</ele>
<time>2015-04-29T08:30:51Z</time>
</trkpt>
<trkpt lat="34.9384485" lon="32.8422592">
<ele>1448.24</ele>
<time>2015-04-29T08:30:53Z</time>
</trkpt>
<trkpt lat="34.9383837" lon="32.8422584">
<ele>1446.38</ele>
<time>2015-04-29T08:30:55Z</time>
</trkpt>
<trkpt lat="34.9383260" lon="32.8422872">
<ele>1444.21</ele>
<time>2015-04-29T08:30:58Z</time>
</trkpt>
<trkpt lat="34.9382648" lon="32.8423227">
<ele>1442.19</ele>
<time>2015-04-29T08:31:01Z</time>
</trkpt>
<trkpt lat="34.9382188" lon="32.8423631">
<ele>1441.62</ele>
<time>2015-04-29T08:31:03Z</time>
</trkpt>
<trkpt lat="34.9381621" lon="32.8424205">
<ele>1440.97</ele>
<time>2015-04-29T08:31:05Z</time>
</trkpt>
<trkpt lat="34.9380968" lon="32.8424908">
<ele>1440.87</ele>
<time>2015-04-29T08:31:06Z</time>
</trkpt>
<trkpt lat="34.9380174" lon="32.8425708">
<ele>1440.04</ele>
<time>2015-04-29T08:31:08Z</time>
</trkpt>
<trkpt lat="34.9379742" lon="32.8426014">
<ele>1439.90</ele>
<time>2015-04-29T08:31:09Z</time>
</trkpt>
<trkpt lat="34.9379243" lon="32.8426298">
<ele>1439.33</ele>
<time>2015-04-29T08:31:10Z</time>
</trkpt>
<trkpt lat="34.9378766" lon="32.8426335">
<ele>1438.04</ele>
<time>2015-04-29T08:31:11Z</time>
</trkpt>
<trkpt lat="34.9378246" lon="32.8426299">
<ele>1437.90</ele>
<time>2015-04-29T08:31:12Z</time>
</trkpt>
<trkpt lat="34.9377789" lon="32.8426120">
<ele>1437.33</ele>
<time>2015-04-29T08:31:13Z</time>
</trkpt>
<trkpt lat="34.9376949" lon="32.8425895">
<ele>1436.15</ele>
<time>2015-04-29T08:31:15Z</time>
</trkpt>
<trkpt lat="34.9376539" lon="32.8425575">
<ele>1435.46</ele>
<time>2015-04-29T08:31:16Z</time>
</trkpt>
<trkpt lat="34.9376197" lon="32.8425173">
<ele>1434.61</ele>
<time>2015-04-29T08:31:17Z</time>
</trkpt>
<trkpt lat="34.9375919" lon="32.8424697">
<ele>1435.18</ele>
<time>2015-04-29T08:31:18Z</time>
</trkpt>
<trkpt lat="34.9375490" lon="32.8423811">
<ele>1436.62</ele>
<time>2015-04-29T08:31:20Z</time>
</trkpt>
<trkpt lat="34.9375357" lon="32.8423147">
<ele>1438.22</ele>
<time>2015-04-29T08:31:22Z</time>
</trkpt>
<trkpt lat="34.9375288" lon="32.8422420">
<ele>1437.99</ele>
<time>2015-04-29T08:31:23Z</time>
</trkpt>
<trkpt lat="34.9375283" lon="32.8421817">
<ele>1437.88</ele>
<time>2015-04-29T08:31:24Z</time>
</trkpt>
<trkpt lat="34.9374911" lon="32.8420928">
<ele>1437.79</ele>
<time>2015-04-29T08:31:26Z</time>
</trkpt>
<trkpt lat="34.9374830" lon="32.8420172">
<ele>1436.77</ele>
<time>2015-04-29T08:31:27Z</time>
</trkpt>
<trkpt lat="34.9374813" lon="32.8419609">
<ele>1436.77</ele>
<time>2015-04-29T08:31:28Z</time>
</trkpt>
<trkpt lat="34.9374560" lon="32.8419096">
<ele>1436.26</ele>
<time>2015-04-29T08:31:29Z</time>
</trkpt>
<trkpt lat="34.9374460" lon="32.8418497">
<ele>1435.51</ele>
<time>2015-04-29T08:31:30Z</time>
</trkpt>
<trkpt lat="34.9374450" lon="32.8417857">
<ele>1436.64</ele>
<time>2015-04-29T08:31:31Z</time>
</trkpt>
<trkpt lat="34.9374253" lon="32.8417354">
<ele>1437.20</ele>
<time>2015-04-29T08:31:32Z</time>
</trkpt>
<trkpt lat="34.9373983" lon="32.8416370">
<ele>1437.12</ele>
<time>2015-04-29T08:31:34Z</time>
</trkpt>
<trkpt lat="34.9373753" lon="32.8415578">
<ele>1437.44</ele>
<time>2015-04-29T08:31:35Z</time>
</trkpt>
<trkpt lat="34.9373511" lon="32.8414700">
<ele>1439.10</ele>
<time>2015-04-29T08:31:36Z</time>
</trkpt>
<trkpt lat="34.9373261" lon="32.8413947">
<ele>1439.93</ele>
<time>2015-04-29T08:31:37Z</time>
</trkpt>
<trkpt lat="34.9373026" lon="32.8413184">
<ele>1439.84</ele>
<time>2015-04-29T08:31:38Z</time>
</trkpt>
<trkpt lat="34.9372754" lon="32.8412573">
<ele>1438.80</ele>
<time>2015-04-29T08:31:39Z</time>
</trkpt>
<trkpt lat="34.9372361" lon="32.8411694">
<ele>1438.28</ele>
<time>2015-04-29T08:31:40Z</time>
</trkpt>
<trkpt lat="34.9371993" lon="32.8411013">
<ele>1438.52</ele>
<time>2015-04-29T08:31:41Z</time>
</trkpt>
<trkpt lat="34.9371556" lon="32.8410239">
<ele>1439.14</ele>
<time>2015-04-29T08:31:42Z</time>
</trkpt>
<trkpt lat="34.9370946" lon="32.8409796">
<ele>1439.45</ele>
<time>2015-04-29T08:31:43Z</time>
</trkpt>
<trkpt lat="34.9370423" lon="32.8409314">
<ele>1438.61</ele>
<time>2015-04-29T08:31:44Z</time>
</trkpt>
<trkpt lat="34.9369892" lon="32.8408910">
<ele>1438.18</ele>
<time>2015-04-29T08:31:45Z</time>
</trkpt>
<trkpt lat="34.9369424" lon="32.8408598">
<ele>1437.97</ele>
<time>2015-04-29T08:31:46Z</time>
</trkpt>
<trkpt lat="34.9368752" lon="32.8408216">
<ele>1441.06</ele>
<time>2015-04-29T08:31:48Z</time>
</trkpt>
<trkpt lat="34.9368276" lon="32.8407773">
<ele>1441.84</ele>
<time>2015-04-29T08:31:50Z</time>
</trkpt>
<trkpt lat="34.9367858" lon="32.8407534">
<ele>1442.03</ele>
<time>2015-04-29T08:31:52Z</time>
</trkpt>
<trkpt lat="34.9367533" lon="32.8407108">
<ele>1440.04</ele>
<time>2015-04-29T08:31:55Z</time>
</trkpt>
<trkpt lat="34.9367154" lon="32.8406713">
<ele>1440.33</ele>
<time>2015-04-29T08:31:57Z</time>
</trkpt>
<trkpt lat="34.9366702" lon="32.8406348">
<ele>1441.15</ele>
<time>2015-04-29T08:31:59Z</time>
</trkpt>
<trkpt lat="34.9366238" lon="32.8405848">
<ele>1440.36</ele>
<time>2015-04-29T08:32:01Z</time>
</trkpt>
<trkpt lat="34.9365802" lon="32.8405299">
<ele>1440.16</ele>
<time>2015-04-29T08:32:03Z</time>
</trkpt>
<trkpt lat="34.9365343" lon="32.8404817">
<ele>1439.86</ele>
<time>2015-04-29T08:32:05Z</time>
</trkpt>
<trkpt lat="34.9364825" lon="32.8404476">
<ele>1439.78</ele>
<time>2015-04-29T08:32:07Z</time>
</trkpt>
<trkpt lat="34.9364286" lon="32.8404099">
<ele>1438.52</ele>
<time>2015-04-29T08:32:09Z</time>
</trkpt>
<trkpt lat="34.9363785" lon="32.8403659">
<ele>1437.20</ele>
<time>2015-04-29T08:32:11Z</time>
</trkpt>
<trkpt lat="34.9363341" lon="32.8403159">
<ele>1436.87</ele>
<time>2015-04-29T08:32:13Z</time>
</trkpt>
<trkpt lat="34.9362958" lon="32.8402692">
<ele>1436.29</ele>
<time>2015-04-29T08:32:15Z</time>
</trkpt>
<trkpt lat="34.9362580" lon="32.8402287">
<ele>1436.89</ele>
<time>2015-04-29T08:32:17Z</time>
</trkpt>
<trkpt lat="34.9362224" lon="32.8401896">
<ele>1437.29</ele>
<time>2015-04-29T08:32:19Z</time>
</trkpt>
<trkpt lat="34.9361932" lon="32.8401466">
<ele>1437.39</ele>
<time>2015-04-29T08:32:21Z</time>
</trkpt>
<trkpt lat="34.9361618" lon="32.8401041">
<ele>1437.92</ele>
<time>2015-04-29T08:32:23Z</time>
</trkpt>
<trkpt lat="34.9361198" lon="32.8400544">
<ele>1438.05</ele>
<time>2015-04-29T08:32:25Z</time>
</trkpt>
<trkpt lat="34.9360708" lon="32.8400106">
<ele>1440.83</ele>
<time>2015-04-29T08:32:27Z</time>
</trkpt>
<trkpt lat="34.9360180" lon="32.8399692">
<ele>1440.53</ele>
<time>2015-04-29T08:32:29Z</time>
</trkpt>
<trkpt lat="34.9359676" lon="32.8399315">
<ele>1440.20</ele>
<time>2015-04-29T08:32:31Z</time>
</trkpt>
<trkpt lat="34.9359134" lon="32.8399029">
<ele>1440.87</ele>
<time>2015-04-29T08:32:33Z</time>
</trkpt>
<trkpt lat="34.9358634" lon="32.8398687">
<ele>1443.04</ele>
<time>2015-04-29T08:32:35Z</time>
</trkpt>
<trkpt lat="34.9358182" lon="32.8398326">
<ele>1443.08</ele>
<time>2015-04-29T08:32:37Z</time>
</trkpt>
<trkpt lat="34.9357768" lon="32.8397934">
<ele>1442.59</ele>
<time>2015-04-29T08:32:39Z</time>
</trkpt>
<trkpt lat="34.9357339" lon="32.8397588">
<ele>1441.97</ele>
<time>2015-04-29T08:32:41Z</time>
</trkpt>
<trkpt lat="34.9356823" lon="32.8397356">
<ele>1441.06</ele>
<time>2015-04-29T08:32:43Z</time>
</trkpt>
<trkpt lat="34.9356312" lon="32.8397222">
<ele>1440.34</ele>
<time>2015-04-29T08:32:45Z</time>
</trkpt>
<trkpt lat="34.9355776" lon="32.8397157">
<ele>1439.40</ele>
<time>2015-04-29T08:32:47Z</time>
</trkpt>
<trkpt lat="34.9355284" lon="32.8397066">
<ele>1438.42</ele>
<time>2015-04-29T08:32:49Z</time>
</trkpt>
<trkpt lat="34.9354790" lon="32.8396973">
<ele>1438.43</ele>
<time>2015-04-29T08:32:51Z</time>
</trkpt>
<trkpt lat="34.9354249" lon="32.8396808">
<ele>1439.68</ele>
<time>2015-04-29T08:32:53Z</time>
</trkpt>
<trkpt lat="34.9353728" lon="32.8396709">
<ele>1439.24</ele>
<time>2015-04-29T08:32:55Z</time>
</trkpt>
<trkpt lat="34.9353225" lon="32.8396618">
<ele>1438.13</ele>
<time>2015-04-29T08:32:57Z</time>
</trkpt>
<trkpt lat="34.9352585" lon="32.8396424">
<ele>1440.18</ele>
<time>2015-04-29T08:33:00Z</time>
</trkpt>
<trkpt lat="34.9351991" lon="32.8396082">
<ele>1441.31</ele>
<time>2015-04-29T08:33:03Z</time>
</trkpt>
<trkpt lat="34.9351372" lon="32.8395945">
<ele>1442.58</ele>
<time>2015-04-29T08:33:06Z</time>
</trkpt>
<trkpt lat="34.9350864" lon="32.8396083">
<ele>1440.99</ele>
<time>2015-04-29T08:33:09Z</time>
</trkpt>
<trkpt lat="34.9350563" lon="32.8396602">
<ele>1440.77</ele>
<time>2015-04-29T08:33:13Z</time>
</trkpt>
<trkpt lat="34.9350480" lon="32.8397181">
<ele>1441.64</ele>
<time>2015-04-29T08:33:16Z</time>
</trkpt>
<trkpt lat="34.9350393" lon="32.8397862">
<ele>1443.37</ele>
<time>2015-04-29T08:33:19Z</time>
</trkpt>
<trkpt lat="34.9350118" lon="32.8398489">
<ele>1444.84</ele>
<time>2015-04-29T08:33:22Z</time>
</trkpt>
<trkpt lat="34.9349755" lon="32.8399176">
<ele>1444.64</ele>
<time>2015-04-29T08:33:25Z</time>
</trkpt>
<trkpt lat="34.9349440" lon="32.8399632">
<ele>1444.98</ele>
<time>2015-04-29T08:33:27Z</time>
</trkpt>
<trkpt lat="34.9349030" lon="32.8400062">
<ele>1445.32</ele>
<time>2015-04-29T08:33:29Z</time>
</trkpt>
<trkpt lat="34.9348686" lon="32.8400567">
<ele>1445.65</ele>
<time>2015-04-29T08:33:31Z</time>
</trkpt>
<trkpt lat="34.9348350" lon="32.8401109">
<ele>1445.48</ele>
<time>2015-04-29T08:33:33Z</time>
</trkpt>
<trkpt lat="34.9347984" lon="32.8401573">
<ele>1446.44</ele>
<time>2015-04-29T08:33:35Z</time>
</trkpt>
<trkpt lat="34.9347626" lon="32.8402070">
<ele>1446.68</ele>
<time>2015-04-29T08:33:37Z</time>
</trkpt>
<trkpt lat="34.9347316" lon="32.8402487">
<ele>1446.24</ele>
<time>2015-04-29T08:33:39Z</time>
</trkpt>
<trkpt lat="34.9346800" lon="32.8402943">
<ele>1444.94</ele>
<time>2015-04-29T08:33:42Z</time>
</trkpt>
<trkpt lat="34.9346350" lon="32.8403354">
<ele>1445.91</ele>
<time>2015-04-29T08:33:45Z</time>
</trkpt>
<trkpt lat="34.9345984" lon="32.8403758">
<ele>1445.78</ele>
<time>2015-04-29T08:33:48Z</time>
</trkpt>
<trkpt lat="34.9345493" lon="32.8404057">
<ele>1446.26</ele>
<time>2015-04-29T08:33:52Z</time>
</trkpt>
<trkpt lat="34.9345056" lon="32.8404404">
<ele>1453.01</ele>
<time>2015-04-29T08:35:07Z</time>
</trkpt>
<trkpt lat="34.9344550" lon="32.8404997">
<ele>1452.82</ele>
<time>2015-04-29T08:35:09Z</time>
</trkpt>
<trkpt lat="34.9344091" lon="32.8405641">
<ele>1453.03</ele>
<time>2015-04-29T08:35:11Z</time>
</trkpt>
<trkpt lat="34.9343684" lon="32.8406225">
<ele>1453.58</ele>
<time>2015-04-29T08:35:13Z</time>
</trkpt>
<trkpt lat="34.9343306" lon="32.8406675">
<ele>1455.21</ele>
<time>2015-04-29T08:35:15Z</time>
</trkpt>
<trkpt lat="34.9342952" lon="32.8407048">
<ele>1456.37</ele>
<time>2015-04-29T08:35:17Z</time>
</trkpt>
<trkpt lat="34.9342485" lon="32.8407358">
<ele>1455.41</ele>
<time>2015-04-29T08:35:19Z</time>
</trkpt>
<trkpt lat="34.9341976" lon="32.8407557">
<ele>1454.17</ele>
<time>2015-04-29T08:35:21Z</time>
</trkpt>
<trkpt lat="34.9341440" lon="32.8407602">
<ele>1451.86</ele>
<time>2015-04-29T08:35:23Z</time>
</trkpt>
<trkpt lat="34.9340924" lon="32.8407298">
<ele>1451.04</ele>
<time>2015-04-29T08:35:25Z</time>
</trkpt>
<trkpt lat="34.9340410" lon="32.8406882">
<ele>1451.58</ele>
<time>2015-04-29T08:35:27Z</time>
</trkpt>
<trkpt lat="34.9339818" lon="32.8406623">
<ele>1450.21</ele>
<time>2015-04-29T08:35:29Z</time>
</trkpt>
<trkpt lat="34.9339227" lon="32.8406638">
<ele>1449.37</ele>
<time>2015-04-29T08:35:31Z</time>
</trkpt>
<trkpt lat="34.9338685" lon="32.8406922">
<ele>1448.16</ele>
<time>2015-04-29T08:35:33Z</time>
</trkpt>
<trkpt lat="34.9338245" lon="32.8407334">
<ele>1448.36</ele>
<time>2015-04-29T08:35:35Z</time>
</trkpt>
<trkpt lat="34.9337777" lon="32.8407804">
<ele>1448.41</ele>
<time>2015-04-29T08:35:37Z</time>
</trkpt>
<trkpt lat="34.9337237" lon="32.8408209">
<ele>1449.17</ele>
<time>2015-04-29T08:35:39Z</time>
</trkpt>
<trkpt lat="34.9336623" lon="32.8408406">
<ele>1449.36</ele>
<time>2015-04-29T08:35:41Z</time>
</trkpt>
<trkpt lat="34.9336045" lon="32.8408352">
<ele>1448.16</ele>
<time>2015-04-29T08:35:43Z</time>
</trkpt>
<trkpt lat="34.9335475" lon="32.8408117">
<ele>1450.11</ele>
<time>2015-04-29T08:35:45Z</time>
</trkpt>
<trkpt lat="34.9334943" lon="32.8407842">
<ele>1450.10</ele>
<time>2015-04-29T08:35:47Z</time>
</trkpt>
<trkpt lat="34.9334353" lon="32.8407561">
<ele>1449.09</ele>
<time>2015-04-29T08:35:49Z</time>
</trkpt>
<trkpt lat="34.9333760" lon="32.8407324">
<ele>1449.84</ele>
<time>2015-04-29T08:35:51Z</time>
</trkpt>
<trkpt lat="34.9333088" lon="32.8407122">
<ele>1451.03</ele>
<time>2015-04-29T08:35:53Z</time>
</trkpt>
<trkpt lat="34.9332426" lon="32.8407022">
<ele>1451.08</ele>
<time>2015-04-29T08:35:55Z</time>
</trkpt>
<trkpt lat="34.9331710" lon="32.8407006">
<ele>1450.84</ele>
<time>2015-04-29T08:35:57Z</time>
</trkpt>
<trkpt lat="34.9330945" lon="32.8407031">
<ele>1448.78</ele>
<time>2015-04-29T08:35:59Z</time>
</trkpt>
<trkpt lat="34.9330490" lon="32.8407093">
<ele>1448.27</ele>
<time>2015-04-29T08:36:00Z</time>
</trkpt>
<trkpt lat="34.9330021" lon="32.8407192">
<ele>1448.02</ele>
<time>2015-04-29T08:36:01Z</time>
</trkpt>
<trkpt lat="34.9329549" lon="32.8407290">
<ele>1448.39</ele>
<time>2015-04-29T08:36:02Z</time>
</trkpt>
<trkpt lat="34.9329106" lon="32.8407449">
<ele>1448.07</ele>
<time>2015-04-29T08:36:03Z</time>
</trkpt>
<trkpt lat="34.9328654" lon="32.8407667">
<ele>1447.42</ele>
<time>2015-04-29T08:36:04Z</time>
</trkpt>
<trkpt lat="34.9327879" lon="32.8408127">
<ele>1447.92</ele>
<time>2015-04-29T08:36:06Z</time>
</trkpt>
<trkpt lat="34.9327112" lon="32.8408604">
<ele>1448.30</ele>
<time>2015-04-29T08:36:08Z</time>
</trkpt>
<trkpt lat="34.9326300" lon="32.8409170">
<ele>1450.40</ele>
<time>2015-04-29T08:36:10Z</time>
</trkpt>
<trkpt lat="34.9325899" lon="32.8409662">
<ele>1450.08</ele>
<time>2015-04-29T08:36:11Z</time>
</trkpt>
<trkpt lat="34.9325503" lon="32.8410016">
<ele>1449.42</ele>
<time>2015-04-29T08:36:12Z</time>
</trkpt>
<trkpt lat="34.9325060" lon="32.8410498">
<ele>1448.09</ele>
<time>2015-04-29T08:36:13Z</time>
</trkpt>
<trkpt lat="34.9324700" lon="32.8410884">
<ele>1447.42</ele>
<time>2015-04-29T08:36:14Z</time>
</trkpt>
<trkpt lat="34.9324221" lon="32.8411202">
<ele>1447.59</ele>
<time>2015-04-29T08:36:15Z</time>
</trkpt>
<trkpt lat="34.9323834" lon="32.8411576">
<ele>1447.18</ele>
<time>2015-04-29T08:36:16Z</time>
</trkpt>
<trkpt lat="34.9323451" lon="32.8411931">
<ele>1446.47</ele>
<time>2015-04-29T08:36:17Z</time>
</trkpt>
<trkpt lat="34.9323136" lon="32.8412347">
<ele>1446.11</ele>
<time>2015-04-29T08:36:18Z</time>
</trkpt>
<trkpt lat="34.9322819" lon="32.8412770">
<ele>1446.44</ele>
<time>2015-04-29T08:36:19Z</time>
</trkpt>
<trkpt lat="34.9322544" lon="32.8413469">
<ele>1447.10</ele>
<time>2015-04-29T08:36:20Z</time>
</trkpt>
<trkpt lat="34.9322333" lon="32.8414070">
<ele>1447.43</ele>
<time>2015-04-29T08:36:21Z</time>
</trkpt>
<trkpt lat="34.9322128" lon="32.8414640">
<ele>1448.09</ele>
<time>2015-04-29T08:36:22Z</time>
</trkpt>
<trkpt lat="34.9322103" lon="32.8415249">
<ele>1447.93</ele>
<time>2015-04-29T08:36:23Z</time>
</trkpt>
<trkpt lat="34.9322164" lon="32.8416005">
<ele>1447.84</ele>
<time>2015-04-29T08:36:24Z</time>
</trkpt>
<trkpt lat="34.9322080" lon="32.8416707">
<ele>1447.30</ele>
<time>2015-04-29T08:36:25Z</time>
</trkpt>
<trkpt lat="34.9322033" lon="32.8417532">
<ele>1446.40</ele>
<time>2015-04-29T08:36:27Z</time>
</trkpt>
<trkpt lat="34.9321962" lon="32.8418421">
<ele>1445.92</ele>
<time>2015-04-29T08:36:29Z</time>
</trkpt>
<trkpt lat="34.9321508" lon="32.8419494">
<ele>1445.30</ele>
<time>2015-04-29T08:36:31Z</time>
</trkpt>
<trkpt lat="34.9321155" lon="32.8420267">
<ele>1444.89</ele>
<time>2015-04-29T08:36:33Z</time>
</trkpt>
<trkpt lat="34.9320806" lon="32.8421186">
<ele>1445.54</ele>
<time>2015-04-29T08:36:35Z</time>
</trkpt>
<trkpt lat="34.9320719" lon="32.8421741">
<ele>1445.65</ele>
<time>2015-04-29T08:36:36Z</time>
</trkpt>
<trkpt lat="34.9320650" lon="32.8422367">
<ele>1445.21</ele>
<time>2015-04-29T08:36:37Z</time>
</trkpt>
<trkpt lat="34.9320625" lon="32.8422993">
<ele>1443.98</ele>
<time>2015-04-29T08:36:38Z</time>
</trkpt>
<trkpt lat="34.9320506" lon="32.8423726">
<ele>1442.87</ele>
<time>2015-04-29T08:36:39Z</time>
</trkpt>
<trkpt lat="34.9320345" lon="32.8424518">
<ele>1442.82</ele>
<time>2015-04-29T08:36:40Z</time>
</trkpt>
<trkpt lat="34.9320117" lon="32.8425199">
<ele>1442.29</ele>
<time>2015-04-29T08:36:41Z</time>
</trkpt>
<trkpt lat="34.9319725" lon="32.8426345">
<ele>1442.14</ele>
<time>2015-04-29T08:36:43Z</time>
</trkpt>
<trkpt lat="34.9319507" lon="32.8426994">
<ele>1442.11</ele>
<time>2015-04-29T08:36:45Z</time>
</trkpt>
<trkpt lat="34.9318955" lon="32.8427241">
<ele>1443.41</ele>
<time>2015-04-29T08:36:49Z</time>
</trkpt>
<trkpt lat="34.9318468" lon="32.8427076">
<ele>1446.34</ele>
<time>2015-04-29T08:36:52Z</time>
</trkpt>
<trkpt lat="34.9318015" lon="32.8426896">
<ele>1447.58</ele>
<time>2015-04-29T08:36:55Z</time>
</trkpt>
<trkpt lat="34.9317700" lon="32.8426304">
<ele>1448.69</ele>
<time>2015-04-29T08:36:59Z</time>
</trkpt>
<trkpt lat="34.9317652" lon="32.8426853">
<ele>1446.97</ele>
<time>2015-04-29T08:37:20Z</time>
</trkpt>
<trkpt lat="34.9317624" lon="32.8426284">
<ele>1435.01</ele>
<time>2015-04-29T08:43:07Z</time>
</trkpt>
<trkpt lat="34.9317232" lon="32.8425887">
<ele>1435.78</ele>
<time>2015-04-29T08:43:13Z</time>
</trkpt>
<trkpt lat="34.9316797" lon="32.8425464">
<ele>1435.51</ele>
<time>2015-04-29T08:43:16Z</time>
</trkpt>
<trkpt lat="34.9316177" lon="32.8424977">
<ele>1438.95</ele>
<time>2015-04-29T08:43:18Z</time>
</trkpt>
<trkpt lat="34.9315536" lon="32.8424396">
<ele>1437.56</ele>
<time>2015-04-29T08:43:20Z</time>
</trkpt>
<trkpt lat="34.9314940" lon="32.8423681">
<ele>1436.96</ele>
<time>2015-04-29T08:43:22Z</time>
</trkpt>
<trkpt lat="34.9314426" lon="32.8422789">
<ele>1437.31</ele>
<time>2015-04-29T08:43:24Z</time>
</trkpt>
<trkpt lat="34.9314183" lon="32.8422247">
<ele>1438.53</ele>
<time>2015-04-29T08:43:25Z</time>
</trkpt>
<trkpt lat="34.9313926" lon="32.8421717">
<ele>1439.15</ele>
<time>2015-04-29T08:43:26Z</time>
</trkpt>
<trkpt lat="34.9313651" lon="32.8421219">
<ele>1438.45</ele>
<time>2015-04-29T08:43:27Z</time>
</trkpt>
<trkpt lat="34.9313332" lon="32.8420735">
<ele>1437.61</ele>
<time>2015-04-29T08:43:28Z</time>
</trkpt>
<trkpt lat="34.9312964" lon="32.8420303">
<ele>1437.18</ele>
<time>2015-04-29T08:43:29Z</time>
</trkpt>
<trkpt lat="34.9312212" lon="32.8419458">
<ele>1436.97</ele>
<time>2015-04-29T08:43:30Z</time>
</trkpt>
<trkpt lat="34.9311850" lon="32.8419095">
<ele>1437.37</ele>
<time>2015-04-29T08:43:31Z</time>
</trkpt>
<trkpt lat="34.9311332" lon="32.8418543">
<ele>1437.66</ele>
<time>2015-04-29T08:43:33Z</time>
</trkpt>
<trkpt lat="34.9310533" lon="32.8418012">
<ele>1433.99</ele>
<time>2015-04-29T08:43:35Z</time>
</trkpt>
<trkpt lat="34.9310152" lon="32.8417602">
<ele>1432.87</ele>
<time>2015-04-29T08:43:36Z</time>
</trkpt>
<trkpt lat="34.9309727" lon="32.8417241">
<ele>1432.82</ele>
<time>2015-04-29T08:43:37Z</time>
</trkpt>
<trkpt lat="34.9309241" lon="32.8417092">
<ele>1433.79</ele>
<time>2015-04-29T08:43:38Z</time>
</trkpt>
<trkpt lat="34.9308523" lon="32.8416274">
<ele>1434.27</ele>
<time>2015-04-29T08:43:40Z</time>
</trkpt>
<trkpt lat="34.9307959" lon="32.8415948">
<ele>1435.01</ele>
<time>2015-04-29T08:43:41Z</time>
</trkpt>
<trkpt lat="34.9307485" lon="32.8415668">
<ele>1435.89</ele>
<time>2015-04-29T08:43:42Z</time>
</trkpt>
<trkpt lat="34.9306985" lon="32.8415495">
<ele>1436.32</ele>
<time>2015-04-29T08:43:43Z</time>
</trkpt>
<trkpt lat="34.9306169" lon="32.8415507">
<ele>1433.65</ele>
<time>2015-04-29T08:43:45Z</time>
</trkpt>
<trkpt lat="34.9305355" lon="32.8415879">
<ele>1430.98</ele>
<time>2015-04-29T08:43:47Z</time>
</trkpt>
<trkpt lat="34.9304830" lon="32.8415974">
<ele>1429.37</ele>
<time>2015-04-29T08:43:48Z</time>
</trkpt>
<trkpt lat="34.9304321" lon="32.8416248">
<ele>1427.07</ele>
<time>2015-04-29T08:43:49Z</time>
</trkpt>
<trkpt lat="34.9303584" lon="32.8416008">
<ele>1426.34</ele>
<time>2015-04-29T08:43:51Z</time>
</trkpt>
<trkpt lat="34.9302783" lon="32.8415730">
<ele>1425.65</ele>
<time>2015-04-29T08:43:53Z</time>
</trkpt>
<trkpt lat="34.9301974" lon="32.8415538">
<ele>1425.48</ele>
<time>2015-04-29T08:43:55Z</time>
</trkpt>
<trkpt lat="34.9301262" lon="32.8415964">
<ele>1424.44</ele>
<time>2015-04-29T08:43:57Z</time>
</trkpt>
<trkpt lat="34.9300784" lon="32.8416181">
<ele>1423.18</ele>
<time>2015-04-29T08:43:59Z</time>
</trkpt>
<trkpt lat="34.9300551" lon="32.8416753">
<ele>1421.62</ele>
<time>2015-04-29T08:44:01Z</time>
</trkpt>
<trkpt lat="34.9300014" lon="32.8416768">
<ele>1423.66</ele>
<time>2015-04-29T08:44:06Z</time>
</trkpt>
<trkpt lat="34.9299675" lon="32.8416380">
<ele>1427.84</ele>
<time>2015-04-29T08:44:12Z</time>
</trkpt>
<trkpt lat="34.9299513" lon="32.8415818">
<ele>1429.15</ele>
<time>2015-04-29T08:44:18Z</time>
</trkpt>
<trkpt lat="34.9299471" lon="32.8415238">
<ele>1430.61</ele>
<time>2015-04-29T08:44:20Z</time>
</trkpt>
<trkpt lat="34.9299534" lon="32.8414557">
<ele>1433.22</ele>
<time>2015-04-29T08:44:22Z</time>
</trkpt>
<trkpt lat="34.9299702" lon="32.8413884">
<ele>1432.88</ele>
<time>2015-04-29T08:44:24Z</time>
</trkpt>
<trkpt lat="34.9299840" lon="32.8413208">
<ele>1431.04</ele>
<time>2015-04-29T08:44:26Z</time>
</trkpt>
<trkpt lat="34.9299875" lon="32.8412440">
<ele>1432.58</ele>
<time>2015-04-29T08:44:28Z</time>
</trkpt>
<trkpt lat="34.9299840" lon="32.8411622">
<ele>1434.21</ele>
<time>2015-04-29T08:44:30Z</time>
</trkpt>
<trkpt lat="34.9299702" lon="32.8410773">
<ele>1435.62</ele>
<time>2015-04-29T08:44:32Z</time>
</trkpt>
<trkpt lat="34.9299340" lon="32.8410018">
<ele>1438.48</ele>
<time>2015-04-29T08:44:34Z</time>
</trkpt>
<trkpt lat="34.9298843" lon="32.8409334">
<ele>1440.44</ele>
<time>2015-04-29T08:44:36Z</time>
</trkpt>
<trkpt lat="34.9298373" lon="32.8408701">
<ele>1441.43</ele>
<time>2015-04-29T08:44:38Z</time>
</trkpt>
<trkpt lat="34.9298025" lon="32.8407909">
<ele>1441.93</ele>
<time>2015-04-29T08:44:40Z</time>
</trkpt>
<trkpt lat="34.9297914" lon="32.8406967">
<ele>1440.80</ele>
<time>2015-04-29T08:44:42Z</time>
</trkpt>
<trkpt lat="34.9298094" lon="32.8406051">
<ele>1439.02</ele>
<time>2015-04-29T08:44:44Z</time>
</trkpt>
<trkpt lat="34.9298511" lon="32.8405310">
<ele>1437.08</ele>
<time>2015-04-29T08:44:46Z</time>
</trkpt>
<trkpt lat="34.9299028" lon="32.8404683">
<ele>1435.34</ele>
<time>2015-04-29T08:44:48Z</time>
</trkpt>
<trkpt lat="34.9299508" lon="32.8403997">
<ele>1433.40</ele>
<time>2015-04-29T08:44:50Z</time>
</trkpt>
<trkpt lat="34.9299918" lon="32.8403231">
<ele>1432.42</ele>
<time>2015-04-29T08:44:52Z</time>
</trkpt>
<trkpt lat="34.9300047" lon="32.8402316">
<ele>1431.43</ele>
<time>2015-04-29T08:44:54Z</time>
</trkpt>
<trkpt lat="34.9300021" lon="32.8401446">
<ele>1428.93</ele>
<time>2015-04-29T08:44:56Z</time>
</trkpt>
<trkpt lat="34.9299984" lon="32.8400629">
<ele>1428.05</ele>
<time>2015-04-29T08:44:58Z</time>
</trkpt>
<trkpt lat="34.9299996" lon="32.8399879">
<ele>1427.33</ele>
<time>2015-04-29T08:45:00Z</time>
</trkpt>
<trkpt lat="34.9300102" lon="32.8399136">
<ele>1427.90</ele>
<time>2015-04-29T08:45:02Z</time>
</trkpt>
<trkpt lat="34.9300149" lon="32.8398376">
<ele>1429.05</ele>
<time>2015-04-29T08:45:04Z</time>
</trkpt>
<trkpt lat="34.9300150" lon="32.8397674">
<ele>1431.58</ele>
<time>2015-04-29T08:45:06Z</time>
</trkpt>
<trkpt lat="34.9300061" lon="32.8397080">
<ele>1432.72</ele>
<time>2015-04-29T08:45:08Z</time>
</trkpt>
<trkpt lat="34.9299914" lon="32.8396524">
<ele>1431.50</ele>
<time>2015-04-29T08:45:10Z</time>
</trkpt>
<trkpt lat="34.9299569" lon="32.8395828">
<ele>1430.98</ele>
<time>2015-04-29T08:45:13Z</time>
</trkpt>
<trkpt lat="34.9299169" lon="32.8395220">
<ele>1432.41</ele>
<time>2015-04-29T08:45:16Z</time>
</trkpt>
<trkpt lat="34.9298813" lon="32.8394791">
<ele>1434.17</ele>
<time>2015-04-29T08:45:18Z</time>
</trkpt>
<trkpt lat="34.9298614" lon="32.8394195">
<ele>1436.11</ele>
<time>2015-04-29T08:45:20Z</time>
</trkpt>
<trkpt lat="34.9298533" lon="32.8393543">
<ele>1434.60</ele>
<time>2015-04-29T08:45:22Z</time>
</trkpt>
<trkpt lat="34.9298524" lon="32.8392892">
<ele>1432.47</ele>
<time>2015-04-29T08:45:24Z</time>
</trkpt>
<trkpt lat="34.9298540" lon="32.8392278">
<ele>1432.19</ele>
<time>2015-04-29T08:45:26Z</time>
</trkpt>
<trkpt lat="34.9298581" lon="32.8391684">
<ele>1432.87</ele>
<time>2015-04-29T08:45:28Z</time>
</trkpt>
<trkpt lat="34.9298748" lon="32.8390960">
<ele>1432.02</ele>
<time>2015-04-29T08:45:31Z</time>
</trkpt>
<trkpt lat="34.9298854" lon="32.8390191">
<ele>1431.29</ele>
<time>2015-04-29T08:45:34Z</time>
</trkpt>
<trkpt lat="34.9298878" lon="32.8389593">
<ele>1431.39</ele>
<time>2015-04-29T08:45:36Z</time>
</trkpt>
<trkpt lat="34.9298855" lon="32.8388940">
<ele>1432.67</ele>
<time>2015-04-29T08:45:38Z</time>
</trkpt>
<trkpt lat="34.9298748" lon="32.8388314">
<ele>1433.49</ele>
<time>2015-04-29T08:45:40Z</time>
</trkpt>
<trkpt lat="34.9298862" lon="32.8387483">
<ele>1433.85</ele>
<time>2015-04-29T08:45:43Z</time>
</trkpt>
<trkpt lat="34.9298974" lon="32.8386836">
<ele>1432.03</ele>
<time>2015-04-29T08:45:45Z</time>
</trkpt>
<trkpt lat="34.9299156" lon="32.8386147">
<ele>1432.08</ele>
<time>2015-04-29T08:45:47Z</time>
</trkpt>
<trkpt lat="34.9299474" lon="32.8385556">
<ele>1433.09</ele>
<time>2015-04-29T08:45:49Z</time>
</trkpt>
<trkpt lat="34.9299780" lon="32.8385026">
<ele>1433.34</ele>
<time>2015-04-29T08:45:51Z</time>
</trkpt>
<trkpt lat="34.9300060" lon="32.8384554">
<ele>1433.16</ele>
<time>2015-04-29T08:45:53Z</time>
</trkpt>
<trkpt lat="34.9300228" lon="32.8384023">
<ele>1432.86</ele>
<time>2015-04-29T08:45:55Z</time>
</trkpt>
<trkpt lat="34.9300234" lon="32.8383302">
<ele>1432.90</ele>
<time>2015-04-29T08:45:58Z</time>
</trkpt>
<trkpt lat="34.9300219" lon="32.8382741">
<ele>1433.29</ele>
<time>2015-04-29T08:46:00Z</time>
</trkpt>
<trkpt lat="34.9300174" lon="32.8382109">
<ele>1433.39</ele>
<time>2015-04-29T08:46:02Z</time>
</trkpt>
<trkpt lat="34.9300078" lon="32.8381340">
<ele>1433.67</ele>
<time>2015-04-29T08:46:04Z</time>
</trkpt>
<trkpt lat="34.9299854" lon="32.8380484">
<ele>1433.49</ele>
<time>2015-04-29T08:46:06Z</time>
</trkpt>
<trkpt lat="34.9299456" lon="32.8379586">
<ele>1433.19</ele>
<time>2015-04-29T08:46:08Z</time>
</trkpt>
<trkpt lat="34.9299222" lon="32.8379074">
<ele>1433.48</ele>
<time>2015-04-29T08:46:09Z</time>
</trkpt>
<trkpt lat="34.9298987" lon="32.8378581">
<ele>1433.12</ele>
<time>2015-04-29T08:46:10Z</time>
</trkpt>
<trkpt lat="34.9298740" lon="32.8378094">
<ele>1432.44</ele>
<time>2015-04-29T08:46:11Z</time>
</trkpt>
<trkpt lat="34.9298460" lon="32.8377507">
<ele>1433.10</ele>
<time>2015-04-29T08:46:12Z</time>
</trkpt>
<trkpt lat="34.9297850" lon="32.8376292">
<ele>1433.43</ele>
<time>2015-04-29T08:46:13Z</time>
</trkpt>
<trkpt lat="34.9297491" lon="32.8375782">
<ele>1433.59</ele>
<time>2015-04-29T08:46:14Z</time>
</trkpt>
<trkpt lat="34.9296962" lon="32.8375363">
<ele>1434.18</ele>
<time>2015-04-29T08:46:15Z</time>
</trkpt>
<trkpt lat="34.9296427" lon="32.8374993">
<ele>1434.47</ele>
<time>2015-04-29T08:46:16Z</time>
</trkpt>
<trkpt lat="34.9296129" lon="32.8374549">
<ele>1435.11</ele>
<time>2015-04-29T08:46:17Z</time>
</trkpt>
<trkpt lat="34.9295741" lon="32.8374089">
<ele>1434.94</ele>
<time>2015-04-29T08:46:18Z</time>
</trkpt>
<trkpt lat="34.9295315" lon="32.8373597">
<ele>1435.35</ele>
<time>2015-04-29T08:46:19Z</time>
</trkpt>
<trkpt lat="34.9295093" lon="32.8373017">
<ele>1436.05</ele>
<time>2015-04-29T08:46:20Z</time>
</trkpt>
<trkpt lat="34.9294786" lon="32.8371795">
<ele>1436.83</ele>
<time>2015-04-29T08:46:22Z</time>
</trkpt>
<trkpt lat="34.9294519" lon="32.8371011">
<ele>1437.30</ele>
<time>2015-04-29T08:46:23Z</time>
</trkpt>
<trkpt lat="34.9294368" lon="32.8370433">
<ele>1437.53</ele>
<time>2015-04-29T08:46:24Z</time>
</trkpt>
<trkpt lat="34.9294306" lon="32.8369782">
<ele>1438.14</ele>
<time>2015-04-29T08:46:25Z</time>
</trkpt>
<trkpt lat="34.9294265" lon="32.8369061">
<ele>1437.95</ele>
<time>2015-04-29T08:46:26Z</time>
</trkpt>
<trkpt lat="34.9294318" lon="32.8368173">
<ele>1437.31</ele>
<time>2015-04-29T08:46:28Z</time>
</trkpt>
<trkpt lat="34.9294493" lon="32.8366986">
<ele>1431.65</ele>
<time>2015-04-29T08:46:30Z</time>
</trkpt>
<trkpt lat="34.9294402" lon="32.8366235">
<ele>1430.20</ele>
<time>2015-04-29T08:46:31Z</time>
</trkpt>
<trkpt lat="34.9293873" lon="32.8365209">
<ele>1427.62</ele>
<time>2015-04-29T08:46:33Z</time>
</trkpt>
<trkpt lat="34.9293460" lon="32.8364746">
<ele>1428.19</ele>
<time>2015-04-29T08:46:34Z</time>
</trkpt>
<trkpt lat="34.9292976" lon="32.8364375">
<ele>1427.98</ele>
<time>2015-04-29T08:46:35Z</time>
</trkpt>
<trkpt lat="34.9292549" lon="32.8364092">
<ele>1427.37</ele>
<time>2015-04-29T08:46:36Z</time>
</trkpt>
<trkpt lat="34.9292094" lon="32.8363805">
<ele>1427.56</ele>
<time>2015-04-29T08:46:37Z</time>
</trkpt>
<trkpt lat="34.9291457" lon="32.8363643">
<ele>1427.71</ele>
<time>2015-04-29T08:46:39Z</time>
</trkpt>
<trkpt lat="34.9290887" lon="32.8363573">
<ele>1427.75</ele>
<time>2015-04-29T08:46:41Z</time>
</trkpt>
<trkpt lat="34.9290323" lon="32.8363338">
<ele>1428.88</ele>
<time>2015-04-29T08:46:44Z</time>
</trkpt>
<trkpt lat="34.9289849" lon="32.8363217">
<ele>1427.04</ele>
<time>2015-04-29T08:46:46Z</time>
</trkpt>
<trkpt lat="34.9289242" lon="32.8363110">
<ele>1425.08</ele>
<time>2015-04-29T08:46:48Z</time>
</trkpt>
<trkpt lat="34.9288480" lon="32.8362985">
<ele>1424.34</ele>
<time>2015-04-29T08:46:50Z</time>
</trkpt>
<trkpt lat="34.9287692" lon="32.8362798">
<ele>1424.55</ele>
<time>2015-04-29T08:46:51Z</time>
</trkpt>
<trkpt lat="34.9287072" lon="32.8362698">
<ele>1424.66</ele>
<time>2015-04-29T08:46:52Z</time>
</trkpt>
<trkpt lat="34.9286527" lon="32.8362587">
<ele>1423.21</ele>
<time>2015-04-29T08:46:53Z</time>
</trkpt>
<trkpt lat="34.9285982" lon="32.8362383">
<ele>1421.98</ele>
<time>2015-04-29T08:46:54Z</time>
</trkpt>
<trkpt lat="34.9285422" lon="32.8362298">
<ele>1420.87</ele>
<time>2015-04-29T08:46:55Z</time>
</trkpt>
<trkpt lat="34.9284846" lon="32.8362120">
<ele>1420.32</ele>
<time>2015-04-29T08:46:56Z</time>
</trkpt>
<trkpt lat="34.9284361" lon="32.8362051">
<ele>1420.04</ele>
<time>2015-04-29T08:46:57Z</time>
</trkpt>
<trkpt lat="34.9283826" lon="32.8362089">
<ele>1419.40</ele>
<time>2015-04-29T08:46:58Z</time>
</trkpt>
<trkpt lat="34.9283315" lon="32.8362200">
<ele>1418.58</ele>
<time>2015-04-29T08:46:59Z</time>
</trkpt>
<trkpt lat="34.9282479" lon="32.8362465">
<ele>1417.21</ele>
<time>2015-04-29T08:47:01Z</time>
</trkpt>
<trkpt lat="34.9281812" lon="32.8362955">
<ele>1416.37</ele>
<time>2015-04-29T08:47:03Z</time>
</trkpt>
<trkpt lat="34.9281427" lon="32.8363430">
<ele>1415.57</ele>
<time>2015-04-29T08:47:04Z</time>
</trkpt>
<trkpt lat="34.9280767" lon="32.8364340">
<ele>1413.21</ele>
<time>2015-04-29T08:47:06Z</time>
</trkpt>
<trkpt lat="34.9280497" lon="32.8364792">
<ele>1412.49</ele>
<time>2015-04-29T08:47:07Z</time>
</trkpt>
<trkpt lat="34.9280112" lon="32.8365364">
<ele>1412.12</ele>
<time>2015-04-29T08:47:08Z</time>
</trkpt>
<trkpt lat="34.9279703" lon="32.8365939">
<ele>1411.94</ele>
<time>2015-04-29T08:47:09Z</time>
</trkpt>
<trkpt lat="34.9279319" lon="32.8366461">
<ele>1412.35</ele>
<time>2015-04-29T08:47:10Z</time>
</trkpt>
<trkpt lat="34.9278979" lon="32.8366907">
<ele>1412.06</ele>
<time>2015-04-29T08:47:11Z</time>
</trkpt>
<trkpt lat="34.9278613" lon="32.8367289">
<ele>1412.41</ele>
<time>2015-04-29T08:47:12Z</time>
</trkpt>
<trkpt lat="34.9278347" lon="32.8367828">
<ele>1412.58</ele>
<time>2015-04-29T08:47:13Z</time>
</trkpt>
<trkpt lat="34.9277898" lon="32.8368299">
<ele>1412.17</ele>
<time>2015-04-29T08:47:14Z</time>
</trkpt>
<trkpt lat="34.9277429" lon="32.8368486">
<ele>1411.97</ele>
<time>2015-04-29T08:47:15Z</time>
</trkpt>
<trkpt lat="34.9276701" lon="32.8368691">
<ele>1411.36</ele>
<time>2015-04-29T08:47:16Z</time>
</trkpt>
<trkpt lat="34.9276077" lon="32.8368623">
<ele>1411.06</ele>
<time>2015-04-29T08:47:17Z</time>
</trkpt>
<trkpt lat="34.9275455" lon="32.8368656">
<ele>1410.91</ele>
<time>2015-04-29T08:47:18Z</time>
</trkpt>
<trkpt lat="34.9274956" lon="32.8368520">
<ele>1410.34</ele>
<time>2015-04-29T08:47:19Z</time>
</trkpt>
<trkpt lat="34.9274358" lon="32.8368593">
<ele>1410.55</ele>
<time>2015-04-29T08:47:20Z</time>
</trkpt>
<trkpt lat="34.9274017" lon="32.8368174">
<ele>1409.65</ele>
<time>2015-04-29T08:47:21Z</time>
</trkpt>
<trkpt lat="34.9273378" lon="32.8367935">
<ele>1408.71</ele>
<time>2015-04-29T08:47:22Z</time>
</trkpt>
<trkpt lat="34.9272866" lon="32.8367777">
<ele>1408.23</ele>
<time>2015-04-29T08:47:23Z</time>
</trkpt>
<trkpt lat="34.9272287" lon="32.8367476">
<ele>1407.50</ele>
<time>2015-04-29T08:47:24Z</time>
</trkpt>
<trkpt lat="34.9271766" lon="32.8367197">
<ele>1407.63</ele>
<time>2015-04-29T08:47:25Z</time>
</trkpt>
<trkpt lat="34.9271113" lon="32.8367074">
<ele>1407.69</ele>
<time>2015-04-29T08:47:26Z</time>
</trkpt>
<trkpt lat="34.9270337" lon="32.8366767">
<ele>1405.74</ele>
<time>2015-04-29T08:47:28Z</time>
</trkpt>
<trkpt lat="34.9269784" lon="32.8366596">
<ele>1404.26</ele>
<time>2015-04-29T08:47:30Z</time>
</trkpt>
<trkpt lat="34.9269309" lon="32.8366463">
<ele>1403.07</ele>
<time>2015-04-29T08:47:33Z</time>
</trkpt>
<trkpt lat="34.9268980" lon="32.8365784">
<ele>1402.07</ele>
<time>2015-04-29T08:48:05Z</time>
</trkpt>
<trkpt lat="34.9268510" lon="32.8365302">
<ele>1400.59</ele>
<time>2015-04-29T08:48:07Z</time>
</trkpt>
<trkpt lat="34.9267804" lon="32.8364797">
<ele>1399.72</ele>
<time>2015-04-29T08:48:09Z</time>
</trkpt>
<trkpt lat="34.9266811" lon="32.8364092">
<ele>1399.50</ele>
<time>2015-04-29T08:48:11Z</time>
</trkpt>
<trkpt lat="34.9266350" lon="32.8363712">
<ele>1400.13</ele>
<time>2015-04-29T08:48:12Z</time>
</trkpt>
<trkpt lat="34.9265661" lon="32.8363133">
<ele>1399.60</ele>
<time>2015-04-29T08:48:14Z</time>
</trkpt>
<trkpt lat="34.9265064" lon="32.8362673">
<ele>1399.72</ele>
<time>2015-04-29T08:48:16Z</time>
</trkpt>
<trkpt lat="34.9264556" lon="32.8362366">
<ele>1400.25</ele>
<time>2015-04-29T08:48:18Z</time>
</trkpt>
<trkpt lat="34.9264239" lon="32.8361953">
<ele>1397.43</ele>
<time>2015-04-29T08:48:25Z</time>
</trkpt>
<trkpt lat="34.9264722" lon="32.8361812">
<ele>1399.99</ele>
<time>2015-04-29T08:48:31Z</time>
</trkpt>
<trkpt lat="34.9265216" lon="32.8361760">
<ele>1399.57</ele>
<time>2015-04-29T08:48:33Z</time>
</trkpt>
<trkpt lat="34.9265832" lon="32.8361624">
<ele>1398.46</ele>
<time>2015-04-29T08:48:35Z</time>
</trkpt>
<trkpt lat="34.9266562" lon="32.8361418">
<ele>1398.44</ele>
<time>2015-04-29T08:48:37Z</time>
</trkpt>
<trkpt lat="34.9267368" lon="32.8361191">
<ele>1396.68</ele>
<time>2015-04-29T08:48:39Z</time>
</trkpt>
<trkpt lat="34.9268122" lon="32.8360902">
<ele>1391.99</ele>
<time>2015-04-29T08:48:41Z</time>
</trkpt>
<trkpt lat="34.9268838" lon="32.8360541">
<ele>1388.57</ele>
<time>2015-04-29T08:48:43Z</time>
</trkpt>
<trkpt lat="34.9269574" lon="32.8360100">
<ele>1385.71</ele>
<time>2015-04-29T08:48:45Z</time>
</trkpt>
<trkpt lat="34.9270196" lon="32.8359672">
<ele>1385.00</ele>
<time>2015-04-29T08:48:47Z</time>
</trkpt>
<trkpt lat="34.9270802" lon="32.8359316">
<ele>1383.07</ele>
<time>2015-04-29T08:48:49Z</time>
</trkpt>
<trkpt lat="34.9271629" lon="32.8358919">
<ele>1380.84</ele>
<time>2015-04-29T08:48:51Z</time>
</trkpt>
<trkpt lat="34.9272115" lon="32.8358706">
<ele>1380.80</ele>
<time>2015-04-29T08:48:52Z</time>
</trkpt>
<trkpt lat="34.9272641" lon="32.8358570">
<ele>1380.78</ele>
<time>2015-04-29T08:48:53Z</time>
</trkpt>
<trkpt lat="34.9273075" lon="32.8358102">
<ele>1380.27</ele>
<time>2015-04-29T08:48:54Z</time>
</trkpt>
<trkpt lat="34.9273459" lon="32.8357590">
<ele>1379.51</ele>
<time>2015-04-29T08:48:55Z</time>
</trkpt>
<trkpt lat="34.9273837" lon="32.8357069">
<ele>1378.14</ele>
<time>2015-04-29T08:48:56Z</time>
</trkpt>
<trkpt lat="34.9274320" lon="32.8356426">
<ele>1376.60</ele>
<time>2015-04-29T08:48:58Z</time>
</trkpt>
<trkpt lat="34.9274049" lon="32.8355799">
<ele>1374.49</ele>
<time>2015-04-29T08:49:01Z</time>
</trkpt>
<trkpt lat="34.9273388" lon="32.8355070">
<ele>1373.19</ele>
<time>2015-04-29T08:49:03Z</time>
</trkpt>
<trkpt lat="34.9273026" lon="32.8354473">
<ele>1373.48</ele>
<time>2015-04-29T08:49:04Z</time>
</trkpt>
<trkpt lat="34.9272522" lon="32.8354052">
<ele>1373.62</ele>
<time>2015-04-29T08:49:05Z</time>
</trkpt>
<trkpt lat="34.9272058" lon="32.8353658">
<ele>1374.19</ele>
<time>2015-04-29T08:49:06Z</time>
</trkpt>
<trkpt lat="34.9271648" lon="32.8352979">
<ele>1372.97</ele>
<time>2015-04-29T08:49:07Z</time>
</trkpt>
<trkpt lat="34.9271048" lon="32.8352512">
<ele>1372.37</ele>
<time>2015-04-29T08:49:08Z</time>
</trkpt>
<trkpt lat="34.9270538" lon="32.8352090">
<ele>1371.56</ele>
<time>2015-04-29T08:49:09Z</time>
</trkpt>
<trkpt lat="34.9270169" lon="32.8351720">
<ele>1371.16</ele>
<time>2015-04-29T08:49:10Z</time>
</trkpt>
<trkpt lat="34.9269726" lon="32.8351239">
<ele>1369.96</ele>
<time>2015-04-29T08:49:11Z</time>
</trkpt>
<trkpt lat="34.9269352" lon="32.8350914">
<ele>1368.86</ele>
<time>2015-04-29T08:49:12Z</time>
</trkpt>
<trkpt lat="34.9268911" lon="32.8350417">
<ele>1368.81</ele>
<time>2015-04-29T08:49:13Z</time>
</trkpt>
<trkpt lat="34.9268587" lon="32.8349871">
<ele>1368.79</ele>
<time>2015-04-29T08:49:14Z</time>
</trkpt>
<trkpt lat="34.9268160" lon="32.8349352">
<ele>1368.77</ele>
<time>2015-04-29T08:49:15Z</time>
</trkpt>
<trkpt lat="34.9267727" lon="32.8348930">
<ele>1368.77</ele>
<time>2015-04-29T08:49:16Z</time>
</trkpt>
<trkpt lat="34.9267227" lon="32.8348285">
<ele>1367.26</ele>
<time>2015-04-29T08:49:18Z</time>
</trkpt>
<trkpt lat="34.9266652" lon="32.8347676">
<ele>1367.39</ele>
<time>2015-04-29T08:49:20Z</time>
</trkpt>
<trkpt lat="34.9266909" lon="32.8347148">
<ele>1367.42</ele>
<time>2015-04-29T08:49:22Z</time>
</trkpt>
<trkpt lat="34.9267523" lon="32.8346758">
<ele>1366.67</ele>
<time>2015-04-29T08:49:24Z</time>
</trkpt>
<trkpt lat="34.9268064" lon="32.8346635">
<ele>1367.22</ele>
<time>2015-04-29T08:49:25Z</time>
</trkpt>
<trkpt lat="34.9268764" lon="32.8346588">
<ele>1365.99</ele>
<time>2015-04-29T08:49:26Z</time>
</trkpt>
<trkpt lat="34.9269323" lon="32.8346566">
<ele>1364.87</ele>
<time>2015-04-29T08:49:27Z</time>
</trkpt>
<trkpt lat="34.9269905" lon="32.8346555">
<ele>1363.32</ele>
<time>2015-04-29T08:49:28Z</time>
</trkpt>
<trkpt lat="34.9270358" lon="32.8346465">
<ele>1361.54</ele>
<time>2015-04-29T08:49:29Z</time>
</trkpt>
<trkpt lat="34.9270913" lon="32.8346438">
<ele>1360.15</ele>
<time>2015-04-29T08:49:30Z</time>
</trkpt>
<trkpt lat="34.9271445" lon="32.8346398">
<ele>1359.45</ele>
<time>2015-04-29T08:49:31Z</time>
</trkpt>
<trkpt lat="34.9272021" lon="32.8345939">
<ele>1358.18</ele>
<time>2015-04-29T08:49:33Z</time>
</trkpt>
<trkpt lat="34.9271848" lon="32.8345352">
<ele>1355.12</ele>
<time>2015-04-29T08:49:35Z</time>
</trkpt>
<trkpt lat="34.9271430" lon="32.8344440">
<ele>1354.10</ele>
<time>2015-04-29T08:49:37Z</time>
</trkpt>
<trkpt lat="34.9270814" lon="32.8343725">
<ele>1354.09</ele>
<time>2015-04-29T08:49:39Z</time>
</trkpt>
<trkpt lat="34.9270500" lon="32.8343317">
<ele>1354.43</ele>
<time>2015-04-29T08:49:40Z</time>
</trkpt>
<trkpt lat="34.9270131" lon="32.8342965">
<ele>1354.59</ele>
<time>2015-04-29T08:49:41Z</time>
</trkpt>
<trkpt lat="34.9269602" lon="32.8342443">
<ele>1354.68</ele>
<time>2015-04-29T08:49:42Z</time>
</trkpt>
<trkpt lat="34.9269261" lon="32.8342077">
<ele>1354.72</ele>
<time>2015-04-29T08:49:43Z</time>
</trkpt>
<trkpt lat="34.9268778" lon="32.8341753">
<ele>1354.24</ele>
<time>2015-04-29T08:49:44Z</time>
</trkpt>
<trkpt lat="34.9268686" lon="32.8341084">
<ele>1350.63</ele>
<time>2015-04-29T08:49:46Z</time>
</trkpt>
<trkpt lat="34.9269133" lon="32.8340384">
<ele>1347.23</ele>
<time>2015-04-29T08:49:48Z</time>
</trkpt>
<trkpt lat="34.9269660" lon="32.8339901">
<ele>1341.63</ele>
<time>2015-04-29T08:49:50Z</time>
</trkpt>
<trkpt lat="34.9270117" lon="32.8339179">
<ele>1338.98</ele>
<time>2015-04-29T08:49:52Z</time>
</trkpt>
<trkpt lat="34.9270274" lon="32.8338458">
<ele>1338.37</ele>
<time>2015-04-29T08:49:53Z</time>
</trkpt>
<trkpt lat="34.9270486" lon="32.8337766">
<ele>1337.56</ele>
<time>2015-04-29T08:49:54Z</time>
</trkpt>
<trkpt lat="34.9270703" lon="32.8337124">
<ele>1336.66</ele>
<time>2015-04-29T08:49:55Z</time>
</trkpt>
<trkpt lat="34.9270825" lon="32.8336431">
<ele>1336.21</ele>
<time>2015-04-29T08:49:56Z</time>
</trkpt>
<trkpt lat="34.9271043" lon="32.8335854">
<ele>1334.99</ele>
<time>2015-04-29T08:49:57Z</time>
</trkpt>
<trkpt lat="34.9271285" lon="32.8335096">
<ele>1333.87</ele>
<time>2015-04-29T08:49:58Z</time>
</trkpt>
<trkpt lat="34.9271422" lon="32.8334564">
<ele>1332.32</ele>
<time>2015-04-29T08:49:59Z</time>
</trkpt>
<trkpt lat="34.9271610" lon="32.8333885">
<ele>1331.54</ele>
<time>2015-04-29T08:50:00Z</time>
</trkpt>
<trkpt lat="34.9271632" lon="32.8332861">
<ele>1331.20</ele>
<time>2015-04-29T08:50:02Z</time>
</trkpt>
<trkpt lat="34.9271547" lon="32.8331699">
<ele>1330.62</ele>
<time>2015-04-29T08:50:04Z</time>
</trkpt>
<trkpt lat="34.9271538" lon="32.8330962">
<ele>1331.19</ele>
<time>2015-04-29T08:50:05Z</time>
</trkpt>
<trkpt lat="34.9271455" lon="32.8330195">
<ele>1331.48</ele>
<time>2015-04-29T08:50:06Z</time>
</trkpt>
<trkpt lat="34.9271605" lon="32.8329454">
<ele>1331.62</ele>
<time>2015-04-29T08:50:07Z</time>
</trkpt>
<trkpt lat="34.9271686" lon="32.8328550">
<ele>1330.72</ele>
<time>2015-04-29T08:50:09Z</time>
</trkpt>
<trkpt lat="34.9271620" lon="32.8327892">
<ele>1329.74</ele>
<time>2015-04-29T08:50:10Z</time>
</trkpt>
<trkpt lat="34.9271609" lon="32.8327226">
<ele>1329.75</ele>
<time>2015-04-29T08:50:11Z</time>
</trkpt>
<trkpt lat="34.9271674" lon="32.8326579">
<ele>1329.26</ele>
<time>2015-04-29T08:50:12Z</time>
</trkpt>
<trkpt lat="34.9271787" lon="32.8325818">
<ele>1327.63</ele>
<time>2015-04-29T08:50:14Z</time>
</trkpt>
<trkpt lat="34.9271490" lon="32.8325351">
<ele>1330.89</ele>
<time>2015-04-29T08:50:29Z</time>
</trkpt>
<trkpt lat="34.9271194" lon="32.8324808">
<ele>1328.65</ele>
<time>2015-04-29T08:50:32Z</time>
</trkpt>
<trkpt lat="34.9270854" lon="32.8324406">
<ele>1329.37</ele>
<time>2015-04-29T08:50:35Z</time>
</trkpt>
<trkpt lat="34.9270671" lon="32.8323893">
<ele>1328.41</ele>
<time>2015-04-29T08:50:37Z</time>
</trkpt>
<trkpt lat="34.9270509" lon="32.8323180">
<ele>1325.72</ele>
<time>2015-04-29T08:50:40Z</time>
</trkpt>
<trkpt lat="34.9270368" lon="32.8322482">
<ele>1323.88</ele>
<time>2015-04-29T08:50:44Z</time>
</trkpt>
<trkpt lat="34.9270114" lon="32.8321907">
<ele>1326.21</ele>
<time>2015-04-29T08:50:48Z</time>
</trkpt>
<trkpt lat="34.9269890" lon="32.8321420">
<ele>1327.57</ele>
<time>2015-04-29T08:50:51Z</time>
</trkpt>
<trkpt lat="34.9269745" lon="32.8320773">
<ele>1327.36</ele>
<time>2015-04-29T08:50:54Z</time>
</trkpt>
<trkpt lat="34.9269489" lon="32.8320310">
<ele>1326.16</ele>
<time>2015-04-29T08:50:56Z</time>
</trkpt>
<trkpt lat="34.9269026" lon="32.8319870">
<ele>1326.61</ele>
<time>2015-04-29T08:50:58Z</time>
</trkpt>
<trkpt lat="34.9268414" lon="32.8319145">
<ele>1327.97</ele>
<time>2015-04-29T08:51:00Z</time>
</trkpt>
<trkpt lat="34.9268024" lon="32.8318671">
<ele>1326.87</ele>
<time>2015-04-29T08:51:01Z</time>
</trkpt>
<trkpt lat="34.9267115" lon="32.8317862">
<ele>1324.81</ele>
<time>2015-04-29T08:51:02Z</time>
</trkpt>
<trkpt lat="34.9266644" lon="32.8317469">
<ele>1323.79</ele>
<time>2015-04-29T08:51:03Z</time>
</trkpt>
<trkpt lat="34.9266203" lon="32.8316809">
<ele>1322.77</ele>
<time>2015-04-29T08:51:04Z</time>
</trkpt>
<trkpt lat="34.9265721" lon="32.8316399">
<ele>1323.27</ele>
<time>2015-04-29T08:51:05Z</time>
</trkpt>
<trkpt lat="34.9265209" lon="32.8315955">
<ele>1323.01</ele>
<time>2015-04-29T08:51:06Z</time>
</trkpt>
<trkpt lat="34.9264607" lon="32.8315601">
<ele>1322.89</ele>
<time>2015-04-29T08:51:07Z</time>
</trkpt>
<trkpt lat="34.9264000" lon="32.8315391">
<ele>1323.32</ele>
<time>2015-04-29T08:51:08Z</time>
</trkpt>
<trkpt lat="34.9263427" lon="32.8315205">
<ele>1324.04</ele>
<time>2015-04-29T08:51:09Z</time>
</trkpt>
<trkpt lat="34.9262795" lon="32.8314942">
<ele>1324.40</ele>
<time>2015-04-29T08:51:10Z</time>
</trkpt>
<trkpt lat="34.9262179" lon="32.8314671">
<ele>1324.58</ele>
<time>2015-04-29T08:51:11Z</time>
</trkpt>
<trkpt lat="34.9261466" lon="32.8314511">
<ele>1324.67</ele>
<time>2015-04-29T08:51:12Z</time>
</trkpt>
<trkpt lat="34.9260788" lon="32.8314301">
<ele>1324.72</ele>
<time>2015-04-29T08:51:13Z</time>
</trkpt>
<trkpt lat="34.9260054" lon="32.8314098">
<ele>1324.74</ele>
<time>2015-04-29T08:51:14Z</time>
</trkpt>
<trkpt lat="34.9259280" lon="32.8313947">
<ele>1324.25</ele>
<time>2015-04-29T08:51:15Z</time>
</trkpt>
<trkpt lat="34.9258572" lon="32.8313596">
<ele>1324.00</ele>
<time>2015-04-29T08:51:16Z</time>
</trkpt>
<trkpt lat="34.9257984" lon="32.8313213">
<ele>1323.88</ele>
<time>2015-04-29T08:51:17Z</time>
</trkpt>
<trkpt lat="34.9257463" lon="32.8312861">
<ele>1323.82</ele>
<time>2015-04-29T08:51:18Z</time>
</trkpt>
<trkpt lat="34.9256930" lon="32.8312311">
<ele>1323.29</ele>
<time>2015-04-29T08:51:19Z</time>
</trkpt>
<trkpt lat="34.9256429" lon="32.8311837">
<ele>1322.53</ele>
<time>2015-04-29T08:51:20Z</time>
</trkpt>
<trkpt lat="34.9255892" lon="32.8311312">
<ele>1322.14</ele>
<time>2015-04-29T08:51:21Z</time>
</trkpt>
<trkpt lat="34.9255351" lon="32.8311024">
<ele>1322.45</ele>
<time>2015-04-29T08:51:22Z</time>
</trkpt>
<trkpt lat="34.9254816" lon="32.8310812">
<ele>1322.61</ele>
<time>2015-04-29T08:51:23Z</time>
</trkpt>
<trkpt lat="34.9254296" lon="32.8310769">
<ele>1322.18</ele>
<time>2015-04-29T08:51:24Z</time>
</trkpt>
<trkpt lat="34.9253779" lon="32.8310923">
<ele>1320.97</ele>
<time>2015-04-29T08:51:25Z</time>
</trkpt>
<trkpt lat="34.9253268" lon="32.8311317">
<ele>1320.37</ele>
<time>2015-04-29T08:51:26Z</time>
</trkpt>
<trkpt lat="34.9252633" lon="32.8311963">
<ele>1319.91</ele>
<time>2015-04-29T08:51:28Z</time>
</trkpt>
<trkpt lat="34.9252332" lon="32.8312382">
<ele>1319.84</ele>
<time>2015-04-29T08:51:29Z</time>
</trkpt>
<trkpt lat="34.9251961" lon="32.8312815">
<ele>1315.28</ele>
<time>2015-04-29T08:51:31Z</time>
</trkpt>
<trkpt lat="34.9251343" lon="32.8313552">
<ele>1312.64</ele>
<time>2015-04-29T08:51:33Z</time>
</trkpt>
<trkpt lat="34.9250914" lon="32.8314043">
<ele>1312.23</ele>
<time>2015-04-29T08:51:35Z</time>
</trkpt>
<trkpt lat="34.9250259" lon="32.8314555">
<ele>1310.38</ele>
<time>2015-04-29T08:51:37Z</time>
</trkpt>
<trkpt lat="34.9249599" lon="32.8314976">
<ele>1310.16</ele>
<time>2015-04-29T08:51:39Z</time>
</trkpt>
<trkpt lat="34.9248916" lon="32.8315344">
<ele>1313.11</ele>
<time>2015-04-29T08:51:41Z</time>
</trkpt>
<trkpt lat="34.9248247" lon="32.8315624">
<ele>1314.85</ele>
<time>2015-04-29T08:51:43Z</time>
</trkpt>
<trkpt lat="34.9247561" lon="32.8315768">
<ele>1316.28</ele>
<time>2015-04-29T08:51:45Z</time>
</trkpt>
<trkpt lat="34.9246917" lon="32.8315897">
<ele>1317.14</ele>
<time>2015-04-29T08:51:47Z</time>
</trkpt>
<trkpt lat="34.9246242" lon="32.8316054">
<ele>1318.61</ele>
<time>2015-04-29T08:51:49Z</time>
</trkpt>
<trkpt lat="34.9245626" lon="32.8316145">
<ele>1319.22</ele>
<time>2015-04-29T08:51:51Z</time>
</trkpt>
<trkpt lat="34.9244999" lon="32.8316228">
<ele>1319.88</ele>
<time>2015-04-29T08:51:53Z</time>
</trkpt>
<trkpt lat="34.9244461" lon="32.8316404">
<ele>1319.04</ele>
<time>2015-04-29T08:51:55Z</time>
</trkpt>
<trkpt lat="34.9243970" lon="32.8316822">
<ele>1319.58</ele>
<time>2015-04-29T08:51:57Z</time>
</trkpt>
<trkpt lat="34.9243514" lon="32.8317263">
<ele>1319.71</ele>
<time>2015-04-29T08:51:59Z</time>
</trkpt>
<trkpt lat="34.9243107" lon="32.8317783">
<ele>1319.50</ele>
<time>2015-04-29T08:52:01Z</time>
</trkpt>
<trkpt lat="34.9242750" lon="32.8318328">
<ele>1321.44</ele>
<time>2015-04-29T08:52:03Z</time>
</trkpt>
<trkpt lat="34.9242471" lon="32.8318949">
<ele>1323.43</ele>
<time>2015-04-29T08:52:05Z</time>
</trkpt>
<trkpt lat="34.9242398" lon="32.8319598">
<ele>1324.18</ele>
<time>2015-04-29T08:52:07Z</time>
</trkpt>
<trkpt lat="34.9242377" lon="32.8320236">
<ele>1326.11</ele>
<time>2015-04-29T08:52:09Z</time>
</trkpt>
<trkpt lat="34.9242396" lon="32.8320814">
<ele>1326.10</ele>
<time>2015-04-29T08:52:11Z</time>
</trkpt>
<trkpt lat="34.9242574" lon="32.8321360">
<ele>1325.30</ele>
<time>2015-04-29T08:52:14Z</time>
</trkpt>
<trkpt lat="34.9242622" lon="32.8322080">
<ele>1325.70</ele>
<time>2015-04-29T08:52:17Z</time>
</trkpt>
<trkpt lat="34.9242644" lon="32.8322874">
<ele>1326.38</ele>
<time>2015-04-29T08:52:20Z</time>
</trkpt>
<trkpt lat="34.9242854" lon="32.8323636">
<ele>1327.59</ele>
<time>2015-04-29T08:52:23Z</time>
</trkpt>
<trkpt lat="34.9243015" lon="32.8324155">
<ele>1329.97</ele>
<time>2015-04-29T08:52:25Z</time>
</trkpt>
<trkpt lat="34.9243238" lon="32.8324666">
<ele>1330.81</ele>
<time>2015-04-29T08:52:27Z</time>
</trkpt>
<trkpt lat="34.9243510" lon="32.8325208">
<ele>1330.27</ele>
<time>2015-04-29T08:52:29Z</time>
</trkpt>
<trkpt lat="34.9243780" lon="32.8325770">
<ele>1329.64</ele>
<time>2015-04-29T08:52:31Z</time>
</trkpt>
<trkpt lat="34.9244077" lon="32.8326325">
<ele>1329.73</ele>
<time>2015-04-29T08:52:33Z</time>
</trkpt>
<trkpt lat="34.9244366" lon="32.8326846">
<ele>1328.25</ele>
<time>2015-04-29T08:52:35Z</time>
</trkpt>
<trkpt lat="34.9244495" lon="32.8327581">
<ele>1324.63</ele>
<time>2015-04-29T08:52:37Z</time>
</trkpt>
<trkpt lat="34.9244585" lon="32.8328318">
<ele>1323.48</ele>
<time>2015-04-29T08:52:39Z</time>
</trkpt>
<trkpt lat="34.9244630" lon="32.8329013">
<ele>1323.19</ele>
<time>2015-04-29T08:52:41Z</time>
</trkpt>
<trkpt lat="34.9244564" lon="32.8329691">
<ele>1323.62</ele>
<time>2015-04-29T08:52:43Z</time>
</trkpt>
<trkpt lat="34.9244398" lon="32.8330370">
<ele>1324.97</ele>
<time>2015-04-29T08:52:45Z</time>
</trkpt>
<trkpt lat="34.9244265" lon="32.8330921">
<ele>1325.56</ele>
<time>2015-04-29T08:52:47Z</time>
</trkpt>
<trkpt lat="34.9243984" lon="32.8331625">
<ele>1328.36</ele>
<time>2015-04-29T08:52:50Z</time>
</trkpt>
<trkpt lat="34.9243692" lon="32.8332221">
<ele>1330.46</ele>
<time>2015-04-29T08:52:53Z</time>
</trkpt>
<trkpt lat="34.9243318" lon="32.8332772">
<ele>1331.97</ele>
<time>2015-04-29T08:52:56Z</time>
</trkpt>
<trkpt lat="34.9242889" lon="32.8333360">
<ele>1330.66</ele>
<time>2015-04-29T08:52:59Z</time>
</trkpt>
<trkpt lat="34.9242533" lon="32.8333729">
<ele>1329.99</ele>
<time>2015-04-29T08:53:01Z</time>
</trkpt>
<trkpt lat="34.9242028" lon="32.8334227">
<ele>1329.29</ele>
<time>2015-04-29T08:53:04Z</time>
</trkpt>
<trkpt lat="34.9241648" lon="32.8334538">
<ele>1328.89</ele>
<time>2015-04-29T08:53:06Z</time>
</trkpt>
<trkpt lat="34.9241245" lon="32.8334897">
<ele>1328.79</ele>
<time>2015-04-29T08:53:08Z</time>
</trkpt>
<trkpt lat="34.9240864" lon="32.8335289">
<ele>1328.27</ele>
<time>2015-04-29T08:53:10Z</time>
</trkpt>
<trkpt lat="34.9240502" lon="32.8335682">
<ele>1329.14</ele>
<time>2015-04-29T08:53:12Z</time>
</trkpt>
<trkpt lat="34.9240120" lon="32.8336073">
<ele>1330.35</ele>
<time>2015-04-29T08:53:14Z</time>
</trkpt>
<trkpt lat="34.9239731" lon="32.8336491">
<ele>1330.16</ele>
<time>2015-04-29T08:53:16Z</time>
</trkpt>
<trkpt lat="34.9239309" lon="32.8336916">
<ele>1329.86</ele>
<time>2015-04-29T08:53:18Z</time>
</trkpt>
<trkpt lat="34.9238846" lon="32.8337322">
<ele>1331.03</ele>
<time>2015-04-29T08:53:20Z</time>
</trkpt>
<trkpt lat="34.9238403" lon="32.8337788">
<ele>1331.58</ele>
<time>2015-04-29T08:53:22Z</time>
</trkpt>
<trkpt lat="34.9237944" lon="32.8338246">
<ele>1331.71</ele>
<time>2015-04-29T08:53:24Z</time>
</trkpt>
<trkpt lat="34.9237477" lon="32.8338710">
<ele>1331.50</ele>
<time>2015-04-29T08:53:26Z</time>
</trkpt>
<trkpt lat="34.9237022" lon="32.8339190">
<ele>1331.19</ele>
<time>2015-04-29T08:53:28Z</time>
</trkpt>
<trkpt lat="34.9236572" lon="32.8339680">
<ele>1331.62</ele>
<time>2015-04-29T08:53:30Z</time>
</trkpt>
<trkpt lat="34.9236110" lon="32.8340175">
<ele>1332.22</ele>
<time>2015-04-29T08:53:32Z</time>
</trkpt>
<trkpt lat="34.9235659" lon="32.8340702">
<ele>1333.13</ele>
<time>2015-04-29T08:53:34Z</time>
</trkpt>
<trkpt lat="34.9235207" lon="32.8341230">
<ele>1334.35</ele>
<time>2015-04-29T08:53:36Z</time>
</trkpt>
<trkpt lat="34.9234744" lon="32.8341764">
<ele>1335.16</ele>
<time>2015-04-29T08:53:38Z</time>
</trkpt>
<trkpt lat="34.9234322" lon="32.8342331">
<ele>1334.86</ele>
<time>2015-04-29T08:53:40Z</time>
</trkpt>
<trkpt lat="34.9233898" lon="32.8342882">
<ele>1334.78</ele>
<time>2015-04-29T08:53:42Z</time>
</trkpt>
<trkpt lat="34.9233479" lon="32.8343409">
<ele>1335.02</ele>
<time>2015-04-29T08:53:44Z</time>
</trkpt>
<trkpt lat="34.9233074" lon="32.8343991">
<ele>1335.07</ele>
<time>2015-04-29T08:53:46Z</time>
</trkpt>
<trkpt lat="34.9232704" lon="32.8344581">
<ele>1335.59</ele>
<time>2015-04-29T08:53:48Z</time>
</trkpt>
<trkpt lat="34.9232332" lon="32.8345129">
<ele>1334.47</ele>
<time>2015-04-29T08:53:50Z</time>
</trkpt>
<trkpt lat="34.9231975" lon="32.8345673">
<ele>1333.94</ele>
<time>2015-04-29T08:53:52Z</time>
</trkpt>
<trkpt lat="34.9231474" lon="32.8346124">
<ele>1335.05</ele>
<time>2015-04-29T08:53:54Z</time>
</trkpt>
<trkpt lat="34.9230881" lon="32.8346416">
<ele>1334.83</ele>
<time>2015-04-29T08:53:56Z</time>
</trkpt>
<trkpt lat="34.9230320" lon="32.8346610">
<ele>1334.53</ele>
<time>2015-04-29T08:53:58Z</time>
</trkpt>
<trkpt lat="34.9229843" lon="32.8346603">
<ele>1333.95</ele>
<time>2015-04-29T08:54:00Z</time>
</trkpt>
<trkpt lat="34.9229345" lon="32.8346510">
<ele>1334.53</ele>
<time>2015-04-29T08:54:03Z</time>
</trkpt>
<trkpt lat="34.9228884" lon="32.8346431">
<ele>1336.11</ele>
<time>2015-04-29T08:54:06Z</time>
</trkpt>
<trkpt lat="34.9228420" lon="32.8346468">
<ele>1338.51</ele>
<time>2015-04-29T08:54:29Z</time>
</trkpt>
<trkpt lat="34.9227959" lon="32.8346359">
<ele>1336.60</ele>
<time>2015-04-29T08:54:32Z</time>
</trkpt>
<trkpt lat="34.9227487" lon="32.8346197">
<ele>1335.47</ele>
<time>2015-04-29T08:54:34Z</time>
</trkpt>
<trkpt lat="34.9226947" lon="32.8346054">
<ele>1335.44</ele>
<time>2015-04-29T08:54:36Z</time>
</trkpt>
<trkpt lat="34.9226413" lon="32.8345830">
<ele>1336.18</ele>
<time>2015-04-29T08:54:38Z</time>
</trkpt>
<trkpt lat="34.9225884" lon="32.8345617">
<ele>1335.86</ele>
<time>2015-04-29T08:54:40Z</time>
</trkpt>
<trkpt lat="34.9225359" lon="32.8345498">
<ele>1334.79</ele>
<time>2015-04-29T08:54:42Z</time>
</trkpt>
<trkpt lat="34.9224834" lon="32.8345313">
<ele>1334.52</ele>
<time>2015-04-29T08:54:44Z</time>
</trkpt>
<trkpt lat="34.9224342" lon="32.8345094">
<ele>1335.45</ele>
<time>2015-04-29T08:54:46Z</time>
</trkpt>
<trkpt lat="34.9223816" lon="32.8344946">
<ele>1335.93</ele>
<time>2015-04-29T08:54:48Z</time>
</trkpt>
<trkpt lat="34.9223325" lon="32.8344701">
<ele>1335.80</ele>
<time>2015-04-29T08:54:50Z</time>
</trkpt>
<trkpt lat="34.9222829" lon="32.8344306">
<ele>1336.27</ele>
<time>2015-04-29T08:54:52Z</time>
</trkpt>
<trkpt lat="34.9222379" lon="32.8343786">
<ele>1337.89</ele>
<time>2015-04-29T08:54:54Z</time>
</trkpt>
<trkpt lat="34.9221934" lon="32.8343244">
<ele>1339.29</ele>
<time>2015-04-29T08:54:56Z</time>
</trkpt>
<trkpt lat="34.9221547" lon="32.8342638">
<ele>1339.39</ele>
<time>2015-04-29T08:54:58Z</time>
</trkpt>
<trkpt lat="34.9221188" lon="32.8342012">
<ele>1340.92</ele>
<time>2015-04-29T08:55:00Z</time>
</trkpt>
<trkpt lat="34.9220841" lon="32.8341366">
<ele>1341.55</ele>
<time>2015-04-29T08:55:02Z</time>
</trkpt>
<trkpt lat="34.9220498" lon="32.8340677">
<ele>1342.46</ele>
<time>2015-04-29T08:55:04Z</time>
</trkpt>
<trkpt lat="34.9220171" lon="32.8339961">
<ele>1342.18</ele>
<time>2015-04-29T08:55:06Z</time>
</trkpt>
<trkpt lat="34.9219895" lon="32.8339267">
<ele>1343.37</ele>
<time>2015-04-29T08:55:08Z</time>
</trkpt>
<trkpt lat="34.9219652" lon="32.8338638">
<ele>1342.91</ele>
<time>2015-04-29T08:55:10Z</time>
</trkpt>
<trkpt lat="34.9219378" lon="32.8337988">
<ele>1344.05</ele>
<time>2015-04-29T08:55:12Z</time>
</trkpt>
<trkpt lat="34.9219083" lon="32.8337383">
<ele>1345.08</ele>
<time>2015-04-29T08:55:14Z</time>
</trkpt>
<trkpt lat="34.9218779" lon="32.8336798">
<ele>1346.59</ele>
<time>2015-04-29T08:55:16Z</time>
</trkpt>
<trkpt lat="34.9218440" lon="32.8336168">
<ele>1348.47</ele>
<time>2015-04-29T08:55:18Z</time>
</trkpt>
<trkpt lat="34.9218058" lon="32.8335550">
<ele>1349.94</ele>
<time>2015-04-29T08:55:20Z</time>
</trkpt>
<trkpt lat="34.9217720" lon="32.8334924">
<ele>1350.55</ele>
<time>2015-04-29T08:55:22Z</time>
</trkpt>
<trkpt lat="34.9217376" lon="32.8334371">
<ele>1352.71</ele>
<time>2015-04-29T08:55:24Z</time>
</trkpt>
<trkpt lat="34.9217035" lon="32.8333867">
<ele>1353.50</ele>
<time>2015-04-29T08:55:26Z</time>
</trkpt>
<trkpt lat="34.9216791" lon="32.8333374">
<ele>1354.19</ele>
<time>2015-04-29T08:55:28Z</time>
</trkpt>
<trkpt lat="34.9216428" lon="32.8333049">
<ele>1354.87</ele>
<time>2015-04-29T08:55:30Z</time>
</trkpt>
<trkpt lat="34.9216096" lon="32.8332620">
<ele>1354.79</ele>
<time>2015-04-29T08:55:32Z</time>
</trkpt>
<trkpt lat="34.9215816" lon="32.8332168">
<ele>1355.77</ele>
<time>2015-04-29T08:55:34Z</time>
</trkpt>
<trkpt lat="34.9215474" lon="32.8331783">
<ele>1355.26</ele>
<time>2015-04-29T08:55:36Z</time>
</trkpt>
<trkpt lat="34.9215096" lon="32.8331481">
<ele>1356.14</ele>
<time>2015-04-29T08:55:38Z</time>
</trkpt>
<trkpt lat="34.9214764" lon="32.8331083">
<ele>1353.85</ele>
<time>2015-04-29T08:55:40Z</time>
</trkpt>
<trkpt lat="34.9214425" lon="32.8330701">
<ele>1353.78</ele>
<time>2015-04-29T08:55:42Z</time>
</trkpt>
<trkpt lat="34.9214073" lon="32.8330313">
<ele>1353.77</ele>
<time>2015-04-29T08:55:44Z</time>
</trkpt>
<trkpt lat="34.9213706" lon="32.8329969">
<ele>1353.76</ele>
<time>2015-04-29T08:55:46Z</time>
</trkpt>
<trkpt lat="34.9213338" lon="32.8329596">
<ele>1351.01</ele>
<time>2015-04-29T08:55:48Z</time>
</trkpt>
<trkpt lat="34.9212933" lon="32.8329245">
<ele>1348.57</ele>
<time>2015-04-29T08:55:50Z</time>
</trkpt>
<trkpt lat="34.9212490" lon="32.8328888">
<ele>1347.96</ele>
<time>2015-04-29T08:55:52Z</time>
</trkpt>
<trkpt lat="34.9212055" lon="32.8328448">
<ele>1348.31</ele>
<time>2015-04-29T08:55:54Z</time>
</trkpt>
<trkpt lat="34.9211626" lon="32.8328035">
<ele>1349.15</ele>
<time>2015-04-29T08:55:56Z</time>
</trkpt>
<trkpt lat="34.9211265" lon="32.8327647">
<ele>1351.11</ele>
<time>2015-04-29T08:55:58Z</time>
</trkpt>
<trkpt lat="34.9210814" lon="32.8327039">
<ele>1352.05</ele>
<time>2015-04-29T08:56:01Z</time>
</trkpt>
<trkpt lat="34.9210495" lon="32.8326593">
<ele>1353.83</ele>
<time>2015-04-29T08:56:03Z</time>
</trkpt>
<trkpt lat="34.9210194" lon="32.8326060">
<ele>1354.53</ele>
<time>2015-04-29T08:56:05Z</time>
</trkpt>
<trkpt lat="34.9209910" lon="32.8325557">
<ele>1354.70</ele>
<time>2015-04-29T08:56:07Z</time>
</trkpt>
<trkpt lat="34.9209602" lon="32.8325040">
<ele>1357.25</ele>
<time>2015-04-29T08:56:09Z</time>
</trkpt>
<trkpt lat="34.9209258" lon="32.8324584">
<ele>1358.88</ele>
<time>2015-04-29T08:56:11Z</time>
</trkpt>
<trkpt lat="34.9208907" lon="32.8324073">
<ele>1360.04</ele>
<time>2015-04-29T08:56:13Z</time>
</trkpt>
<trkpt lat="34.9208550" lon="32.8323532">
<ele>1358.33</ele>
<time>2015-04-29T08:56:15Z</time>
</trkpt>
<trkpt lat="34.9208208" lon="32.8322893">
<ele>1356.90</ele>
<time>2015-04-29T08:56:17Z</time>
</trkpt>
<trkpt lat="34.9207867" lon="32.8322242">
<ele>1356.55</ele>
<time>2015-04-29T08:56:19Z</time>
</trkpt>
<trkpt lat="34.9207454" lon="32.8321701">
<ele>1355.21</ele>
<time>2015-04-29T08:56:21Z</time>
</trkpt>
<trkpt lat="34.9206984" lon="32.8321228">
<ele>1354.62</ele>
<time>2015-04-29T08:56:23Z</time>
</trkpt>
<trkpt lat="34.9206484" lon="32.8320756">
<ele>1355.23</ele>
<time>2015-04-29T08:56:25Z</time>
</trkpt>
<trkpt lat="34.9206019" lon="32.8320238">
<ele>1356.13</ele>
<time>2015-04-29T08:56:27Z</time>
</trkpt>
<trkpt lat="34.9205624" lon="32.8319807">
<ele>1355.85</ele>
<time>2015-04-29T08:56:29Z</time>
</trkpt>
<trkpt lat="34.9205228" lon="32.8319461">
<ele>1355.78</ele>
<time>2015-04-29T08:56:31Z</time>
</trkpt>
<trkpt lat="34.9204673" lon="32.8319064">
<ele>1358.39</ele>
<time>2015-04-29T08:56:34Z</time>
</trkpt>
<trkpt lat="34.9204280" lon="32.8318740">
<ele>1358.67</ele>
<time>2015-04-29T08:56:36Z</time>
</trkpt>
<trkpt lat="34.9203863" lon="32.8318449">
<ele>1358.24</ele>
<time>2015-04-29T08:56:38Z</time>
</trkpt>
<trkpt lat="34.9203418" lon="32.8318206">
<ele>1358.38</ele>
<time>2015-04-29T08:56:40Z</time>
</trkpt>
<trkpt lat="34.9203021" lon="32.8317870">
<ele>1358.66</ele>
<time>2015-04-29T08:56:42Z</time>
</trkpt>
<trkpt lat="34.9202622" lon="32.8317504">
<ele>1360.24</ele>
<time>2015-04-29T08:56:44Z</time>
</trkpt>
<trkpt lat="34.9202221" lon="32.8317135">
<ele>1361.38</ele>
<time>2015-04-29T08:56:46Z</time>
</trkpt>
<trkpt lat="34.9201828" lon="32.8316719">
<ele>1361.66</ele>
<time>2015-04-29T08:56:48Z</time>
</trkpt>
<trkpt lat="34.9201499" lon="32.8316179">
<ele>1360.74</ele>
<time>2015-04-29T08:56:50Z</time>
</trkpt>
<trkpt lat="34.9201191" lon="32.8315623">
<ele>1360.75</ele>
<time>2015-04-29T08:56:52Z</time>
</trkpt>
<trkpt lat="34.9200861" lon="32.8315092">
<ele>1361.76</ele>
<time>2015-04-29T08:56:54Z</time>
</trkpt>
<trkpt lat="34.9200456" lon="32.8314592">
<ele>1363.01</ele>
<time>2015-04-29T08:56:56Z</time>
</trkpt>
<trkpt lat="34.9200037" lon="32.8314132">
<ele>1363.32</ele>
<time>2015-04-29T08:56:58Z</time>
</trkpt>
<trkpt lat="34.9199598" lon="32.8313712">
<ele>1362.40</ele>
<time>2015-04-29T08:57:00Z</time>
</trkpt>
<trkpt lat="34.9199084" lon="32.8313457">
<ele>1360.92</ele>
<time>2015-04-29T08:57:02Z</time>
</trkpt>
<trkpt lat="34.9198518" lon="32.8313317">
<ele>1361.55</ele>
<time>2015-04-29T08:57:04Z</time>
</trkpt>
<trkpt lat="34.9197980" lon="32.8313266">
<ele>1362.46</ele>
<time>2015-04-29T08:57:06Z</time>
</trkpt>
<trkpt lat="34.9197415" lon="32.8313124">
<ele>1363.22</ele>
<time>2015-04-29T08:57:09Z</time>
</trkpt>
<trkpt lat="34.9196912" lon="32.8313262">
<ele>1362.23</ele>
<time>2015-04-29T08:59:29Z</time>
</trkpt>
<trkpt lat="34.9196651" lon="32.8313870">
<ele>1360.07</ele>
<time>2015-04-29T08:59:32Z</time>
</trkpt>
<trkpt lat="34.9196427" lon="32.8314426">
<ele>1360.59</ele>
<time>2015-04-29T08:59:34Z</time>
</trkpt>
<trkpt lat="34.9196230" lon="32.8314948">
<ele>1360.72</ele>
<time>2015-04-29T08:59:36Z</time>
</trkpt>
<trkpt lat="34.9196023" lon="32.8315644">
<ele>1361.25</ele>
<time>2015-04-29T08:59:39Z</time>
</trkpt>
<trkpt lat="34.9195956" lon="32.8316361">
<ele>1361.32</ele>
<time>2015-04-29T08:59:42Z</time>
</trkpt>
<trkpt lat="34.9195864" lon="32.8317120">
<ele>1362.96</ele>
<time>2015-04-29T08:59:45Z</time>
</trkpt>
<trkpt lat="34.9195884" lon="32.8317723">
<ele>1363.56</ele>
<time>2015-04-29T08:59:47Z</time>
</trkpt>
<trkpt lat="34.9195987" lon="32.8318507">
<ele>1363.46</ele>
<time>2015-04-29T08:59:49Z</time>
</trkpt>
<trkpt lat="34.9196046" lon="32.8319305">
<ele>1363.68</ele>
<time>2015-04-29T08:59:51Z</time>
</trkpt>
<trkpt lat="34.9196030" lon="32.8320120">
<ele>1363.74</ele>
<time>2015-04-29T08:59:53Z</time>
</trkpt>
<trkpt lat="34.9195940" lon="32.8320829">
<ele>1365.26</ele>
<time>2015-04-29T08:59:55Z</time>
</trkpt>
<trkpt lat="34.9195878" lon="32.8321478">
<ele>1365.63</ele>
<time>2015-04-29T08:59:57Z</time>
</trkpt>
<trkpt lat="34.9195802" lon="32.8322051">
<ele>1366.23</ele>
<time>2015-04-29T08:59:59Z</time>
</trkpt>
<trkpt lat="34.9195590" lon="32.8322556">
<ele>1366.63</ele>
<time>2015-04-29T09:00:01Z</time>
</trkpt>
<trkpt lat="34.9195398" lon="32.8323095">
<ele>1367.48</ele>
<time>2015-04-29T09:00:03Z</time>
</trkpt>
<trkpt lat="34.9195269" lon="32.8323711">
<ele>1367.44</ele>
<time>2015-04-29T09:00:05Z</time>
</trkpt>
<trkpt lat="34.9195086" lon="32.8324330">
<ele>1366.93</ele>
<time>2015-04-29T09:00:07Z</time>
</trkpt>
<trkpt lat="34.9194821" lon="32.8324950">
<ele>1366.30</ele>
<time>2015-04-29T09:00:09Z</time>
</trkpt>
<trkpt lat="34.9194491" lon="32.8325576">
<ele>1366.90</ele>
<time>2015-04-29T09:00:11Z</time>
</trkpt>
<trkpt lat="34.9194109" lon="32.8326230">
<ele>1368.29</ele>
<time>2015-04-29T09:00:13Z</time>
</trkpt>
<trkpt lat="34.9193714" lon="32.8326775">
<ele>1369.39</ele>
<time>2015-04-29T09:00:15Z</time>
</trkpt>
<trkpt lat="34.9193345" lon="32.8327317">
<ele>1370.42</ele>
<time>2015-04-29T09:00:17Z</time>
</trkpt>
<trkpt lat="34.9193061" lon="32.8327894">
<ele>1370.42</ele>
<time>2015-04-29T09:00:19Z</time>
</trkpt>
<trkpt lat="34.9192826" lon="32.8328521">
<ele>1370.18</ele>
<time>2015-04-29T09:00:21Z</time>
</trkpt>
<trkpt lat="34.9192490" lon="32.8329101">
<ele>1370.61</ele>
<time>2015-04-29T09:00:23Z</time>
</trkpt>
<trkpt lat="34.9192009" lon="32.8329618">
<ele>1370.22</ele>
<time>2015-04-29T09:00:25Z</time>
</trkpt>
<trkpt lat="34.9191387" lon="32.8330000">
<ele>1370.38</ele>
<time>2015-04-29T09:00:27Z</time>
</trkpt>
<trkpt lat="34.9190717" lon="32.8330304">
<ele>1370.66</ele>
<time>2015-04-29T09:00:29Z</time>
</trkpt>
<trkpt lat="34.9190084" lon="32.8330485">
<ele>1370.24</ele>
<time>2015-04-29T09:00:31Z</time>
</trkpt>
<trkpt lat="34.9189424" lon="32.8330562">
<ele>1369.38</ele>
<time>2015-04-29T09:00:33Z</time>
</trkpt>
<trkpt lat="34.9188792" lon="32.8330535">
<ele>1368.91</ele>
<time>2015-04-29T09:00:35Z</time>
</trkpt>
<trkpt lat="34.9188088" lon="32.8330516">
<ele>1368.30</ele>
<time>2015-04-29T09:00:37Z</time>
</trkpt>
<trkpt lat="34.9187402" lon="32.8330596">
<ele>1368.64</ele>
<time>2015-04-29T09:00:39Z</time>
</trkpt>
<trkpt lat="34.9186708" lon="32.8330805">
<ele>1368.73</ele>
<time>2015-04-29T09:00:41Z</time>
</trkpt>
<trkpt lat="34.9186103" lon="32.8331031">
<ele>1368.25</ele>
<time>2015-04-29T09:00:43Z</time>
</trkpt>
<trkpt lat="34.9185547" lon="32.8331354">
<ele>1367.88</ele>
<time>2015-04-29T09:00:45Z</time>
</trkpt>
<trkpt lat="34.9185068" lon="32.8331672">
<ele>1367.79</ele>
<time>2015-04-29T09:00:47Z</time>
</trkpt>
<trkpt lat="34.9184541" lon="32.8331826">
<ele>1369.27</ele>
<time>2015-04-29T09:00:49Z</time>
</trkpt>
<trkpt lat="34.9183969" lon="32.8331809">
<ele>1370.39</ele>
<time>2015-04-29T09:00:51Z</time>
</trkpt>
<trkpt lat="34.9183353" lon="32.8331624">
<ele>1372.67</ele>
<time>2015-04-29T09:00:53Z</time>
</trkpt>
<trkpt lat="34.9182907" lon="32.8331462">
<ele>1373.49</ele>
<time>2015-04-29T09:00:55Z</time>
</trkpt>
<trkpt lat="34.9182406" lon="32.8331226">
<ele>1371.24</ele>
<time>2015-04-29T09:00:59Z</time>
</trkpt>
<trkpt lat="34.9181974" lon="32.8330949">
<ele>1370.45</ele>
<time>2015-04-29T09:01:02Z</time>
</trkpt>
<trkpt lat="34.9181697" lon="32.8330513">
<ele>1370.18</ele>
<time>2015-04-29T09:01:04Z</time>
</trkpt>
<trkpt lat="34.9181421" lon="32.8329980">
<ele>1369.87</ele>
<time>2015-04-29T09:01:06Z</time>
</trkpt>
<trkpt lat="34.9181122" lon="32.8329436">
<ele>1370.29</ele>
<time>2015-04-29T09:01:08Z</time>
</trkpt>
<trkpt lat="34.9180799" lon="32.8328856">
<ele>1371.89</ele>
<time>2015-04-29T09:01:10Z</time>
</trkpt>
<trkpt lat="34.9180435" lon="32.8328302">
<ele>1374.04</ele>
<time>2015-04-29T09:01:12Z</time>
</trkpt>
<trkpt lat="34.9180089" lon="32.8327725">
<ele>1374.83</ele>
<time>2015-04-29T09:01:14Z</time>
</trkpt>
<trkpt lat="34.9179717" lon="32.8327143">
<ele>1376.03</ele>
<time>2015-04-29T09:01:16Z</time>
</trkpt>
<trkpt lat="34.9179254" lon="32.8326648">
<ele>1377.83</ele>
<time>2015-04-29T09:01:18Z</time>
</trkpt>
<trkpt lat="34.9178719" lon="32.8326306">
<ele>1378.03</ele>
<time>2015-04-29T09:01:20Z</time>
</trkpt>
<trkpt lat="34.9178145" lon="32.8326089">
<ele>1379.83</ele>
<time>2015-04-29T09:01:22Z</time>
</trkpt>
<trkpt lat="34.9177573" lon="32.8325989">
<ele>1381.03</ele>
<time>2015-04-29T09:01:24Z</time>
</trkpt>
<trkpt lat="34.9177019" lon="32.8326124">
<ele>1381.58</ele>
<time>2015-04-29T09:01:26Z</time>
</trkpt>
<trkpt lat="34.9176526" lon="32.8326500">
<ele>1381.21</ele>
<time>2015-04-29T09:01:28Z</time>
</trkpt>
<trkpt lat="34.9176070" lon="32.8326971">
<ele>1380.37</ele>
<time>2015-04-29T09:01:30Z</time>
</trkpt>
<trkpt lat="34.9175609" lon="32.8327488">
<ele>1378.91</ele>
<time>2015-04-29T09:01:32Z</time>
</trkpt>
<trkpt lat="34.9175129" lon="32.8327974">
<ele>1378.80</ele>
<time>2015-04-29T09:01:34Z</time>
</trkpt>
<trkpt lat="34.9174559" lon="32.8328380">
<ele>1377.77</ele>
<time>2015-04-29T09:01:36Z</time>
</trkpt>
<trkpt lat="34.9173986" lon="32.8328759">
<ele>1377.76</ele>
<time>2015-04-29T09:01:38Z</time>
</trkpt>
<trkpt lat="34.9173387" lon="32.8329125">
<ele>1378.51</ele>
<time>2015-04-29T09:01:40Z</time>
</trkpt>
<trkpt lat="34.9172732" lon="32.8329424">
<ele>1378.70</ele>
<time>2015-04-29T09:01:42Z</time>
</trkpt>
<trkpt lat="34.9172074" lon="32.8329588">
<ele>1379.99</ele>
<time>2015-04-29T09:01:44Z</time>
</trkpt>
<trkpt lat="34.9171422" lon="32.8329628">
<ele>1379.82</ele>
<time>2015-04-29T09:01:46Z</time>
</trkpt>
<trkpt lat="34.9170762" lon="32.8329699">
<ele>1378.27</ele>
<time>2015-04-29T09:01:48Z</time>
</trkpt>
<trkpt lat="34.9170094" lon="32.8329845">
<ele>1378.14</ele>
<time>2015-04-29T09:01:50Z</time>
</trkpt>
<trkpt lat="34.9169401" lon="32.8329898">
<ele>1379.35</ele>
<time>2015-04-29T09:01:52Z</time>
</trkpt>
<trkpt lat="34.9168645" lon="32.8329912">
<ele>1379.16</ele>
<time>2015-04-29T09:01:54Z</time>
</trkpt>
<trkpt lat="34.9167893" lon="32.8329962">
<ele>1378.36</ele>
<time>2015-04-29T09:01:56Z</time>
</trkpt>
<trkpt lat="34.9167153" lon="32.8329932">
<ele>1377.16</ele>
<time>2015-04-29T09:01:58Z</time>
</trkpt>
<trkpt lat="34.9166403" lon="32.8329836">
<ele>1378.11</ele>
<time>2015-04-29T09:02:00Z</time>
</trkpt>
<trkpt lat="34.9165710" lon="32.8329682">
<ele>1377.85</ele>
<time>2015-04-29T09:02:02Z</time>
</trkpt>
<trkpt lat="34.9165080" lon="32.8329590">
<ele>1377.78</ele>
<time>2015-04-29T09:02:04Z</time>
</trkpt>
<trkpt lat="34.9164476" lon="32.8329439">
<ele>1376.77</ele>
<time>2015-04-29T09:02:06Z</time>
</trkpt>
<trkpt lat="34.9163939" lon="32.8329079">
<ele>1375.51</ele>
<time>2015-04-29T09:02:08Z</time>
</trkpt>
<trkpt lat="34.9163440" lon="32.8328636">
<ele>1375.70</ele>
<time>2015-04-29T09:02:10Z</time>
</trkpt>
<trkpt lat="34.9162910" lon="32.8328192">
<ele>1376.99</ele>
<time>2015-04-29T09:02:12Z</time>
</trkpt>
<trkpt lat="34.9162424" lon="32.8327647">
<ele>1378.32</ele>
<time>2015-04-29T09:02:14Z</time>
</trkpt>
<trkpt lat="34.9161963" lon="32.8327041">
<ele>1379.65</ele>
<time>2015-04-29T09:02:16Z</time>
</trkpt>
<trkpt lat="34.9161499" lon="32.8326422">
<ele>1380.48</ele>
<time>2015-04-29T09:02:18Z</time>
</trkpt>
<trkpt lat="34.9161028" lon="32.8325854">
<ele>1381.19</ele>
<time>2015-04-29T09:02:20Z</time>
</trkpt>
<trkpt lat="34.9160595" lon="32.8325314">
<ele>1381.62</ele>
<time>2015-04-29T09:02:22Z</time>
</trkpt>
<trkpt lat="34.9160155" lon="32.8324738">
<ele>1381.22</ele>
<time>2015-04-29T09:02:24Z</time>
</trkpt>
<trkpt lat="34.9159682" lon="32.8324166">
<ele>1382.13</ele>
<time>2015-04-29T09:02:26Z</time>
</trkpt>
<trkpt lat="34.9159203" lon="32.8323602">
<ele>1383.35</ele>
<time>2015-04-29T09:02:28Z</time>
</trkpt>
<trkpt lat="34.9158751" lon="32.8323002">
<ele>1383.66</ele>
<time>2015-04-29T09:02:30Z</time>
</trkpt>
<trkpt lat="34.9158345" lon="32.8322358">
<ele>1385.73</ele>
<time>2015-04-29T09:02:32Z</time>
</trkpt>
<trkpt lat="34.9157922" lon="32.8321766">
<ele>1386.75</ele>
<time>2015-04-29T09:02:34Z</time>
</trkpt>
<trkpt lat="34.9157445" lon="32.8321198">
<ele>1388.01</ele>
<time>2015-04-29T09:02:36Z</time>
</trkpt>
<trkpt lat="34.9157026" lon="32.8320568">
<ele>1387.57</ele>
<time>2015-04-29T09:02:38Z</time>
</trkpt>
<trkpt lat="34.9156609" lon="32.8320018">
<ele>1389.21</ele>
<time>2015-04-29T09:02:40Z</time>
</trkpt>
<trkpt lat="34.9156339" lon="32.8319550">
<ele>1390.62</ele>
<time>2015-04-29T09:02:42Z</time>
</trkpt>
<trkpt lat="34.9156153" lon="32.8319040">
<ele>1391.48</ele>
<time>2015-04-29T09:02:44Z</time>
</trkpt>
<trkpt lat="34.9155952" lon="32.8318464">
<ele>1392.44</ele>
<time>2015-04-29T09:02:46Z</time>
</trkpt>
<trkpt lat="34.9155739" lon="32.8317840">
<ele>1392.68</ele>
<time>2015-04-29T09:02:48Z</time>
</trkpt>
<trkpt lat="34.9155555" lon="32.8317136">
<ele>1393.74</ele>
<time>2015-04-29T09:02:50Z</time>
</trkpt>
<trkpt lat="34.9155405" lon="32.8316400">
<ele>1395.26</ele>
<time>2015-04-29T09:02:52Z</time>
</trkpt>
<trkpt lat="34.9155385" lon="32.8315590">
<ele>1396.88</ele>
<time>2015-04-29T09:02:54Z</time>
</trkpt>
<trkpt lat="34.9155437" lon="32.8314748">
<ele>1397.79</ele>
<time>2015-04-29T09:02:56Z</time>
</trkpt>
<trkpt lat="34.9155518" lon="32.8313916">
<ele>1397.77</ele>
<time>2015-04-29T09:02:58Z</time>
</trkpt>
<trkpt lat="34.9155640" lon="32.8313221">
<ele>1397.01</ele>
<time>2015-04-29T09:03:00Z</time>
</trkpt>
<trkpt lat="34.9155797" lon="32.8312637">
<ele>1396.67</ele>
<time>2015-04-29T09:03:03Z</time>
</trkpt>
<trkpt lat="34.9156006" lon="32.8312099">
<ele>1396.76</ele>
<time>2015-04-29T09:03:08Z</time>
</trkpt>
<trkpt lat="34.9156204" lon="32.8312658">
<ele>1396.26</ele>
<time>2015-04-29T09:03:11Z</time>
</trkpt>
<trkpt lat="34.9155771" lon="32.8313112">
<ele>1397.45</ele>
<time>2015-04-29T09:03:14Z</time>
</trkpt>
<trkpt lat="34.9155405" lon="32.8312780">
<ele>1395.24</ele>
<time>2015-04-29T09:03:27Z</time>
</trkpt>
<trkpt lat="34.9155654" lon="32.8312104">
<ele>1394.99</ele>
<time>2015-04-29T09:03:32Z</time>
</trkpt>
<trkpt lat="34.9155674" lon="32.8311448">
<ele>1395.57</ele>
<time>2015-04-29T09:03:34Z</time>
</trkpt>
<trkpt lat="34.9155690" lon="32.8310674">
<ele>1396.21</ele>
<time>2015-04-29T09:03:36Z</time>
</trkpt>
<trkpt lat="34.9155695" lon="32.8309909">
<ele>1395.87</ele>
<time>2015-04-29T09:03:38Z</time>
</trkpt>
<trkpt lat="34.9155650" lon="32.8309267">
<ele>1396.29</ele>
<time>2015-04-29T09:03:40Z</time>
</trkpt>
<trkpt lat="34.9155574" lon="32.8308674">
<ele>1396.39</ele>
<time>2015-04-29T09:03:42Z</time>
</trkpt>
<trkpt lat="34.9155542" lon="32.8308035">
<ele>1395.42</ele>
<time>2015-04-29T09:03:44Z</time>
</trkpt>
<trkpt lat="34.9155489" lon="32.8307337">
<ele>1394.17</ele>
<time>2015-04-29T09:03:46Z</time>
</trkpt>
<trkpt lat="34.9155393" lon="32.8306612">
<ele>1393.86</ele>
<time>2015-04-29T09:03:48Z</time>
</trkpt>
<trkpt lat="34.9155252" lon="32.8305812">
<ele>1393.79</ele>
<time>2015-04-29T09:03:50Z</time>
</trkpt>
<trkpt lat="34.9155153" lon="32.8304940">
<ele>1392.27</ele>
<time>2015-04-29T09:03:52Z</time>
</trkpt>
<trkpt lat="34.9155104" lon="32.8304056">
<ele>1393.14</ele>
<time>2015-04-29T09:03:54Z</time>
</trkpt>
<trkpt lat="34.9155066" lon="32.8303172">
<ele>1394.35</ele>
<time>2015-04-29T09:03:56Z</time>
</trkpt>
<trkpt lat="34.9154978" lon="32.8302310">
<ele>1395.16</ele>
<time>2015-04-29T09:03:58Z</time>
</trkpt>
<trkpt lat="34.9154864" lon="32.8301549">
<ele>1395.61</ele>
<time>2015-04-29T09:04:00Z</time>
</trkpt>
<trkpt lat="34.9154764" lon="32.8300912">
<ele>1395.72</ele>
<time>2015-04-29T09:04:02Z</time>
</trkpt>
<trkpt lat="34.9154821" lon="32.8300324">
<ele>1396.25</ele>
<time>2015-04-29T09:04:04Z</time>
</trkpt>
<trkpt lat="34.9154885" lon="32.8299524">
<ele>1399.32</ele>
<time>2015-04-29T09:04:07Z</time>
</trkpt>
<trkpt lat="34.9154854" lon="32.8298956">
<ele>1399.65</ele>
<time>2015-04-29T09:04:09Z</time>
</trkpt>
<trkpt lat="34.9154768" lon="32.8298157">
<ele>1398.87</ele>
<time>2015-04-29T09:04:12Z</time>
</trkpt>
<trkpt lat="34.9154679" lon="32.8297520">
<ele>1399.76</ele>
<time>2015-04-29T09:04:20Z</time>
</trkpt>
<trkpt lat="34.9154209" lon="32.8297422">
<ele>1397.89</ele>
<time>2015-04-29T09:16:19Z</time>
</trkpt>
<trkpt lat="34.9153653" lon="32.8297713">
<ele>1397.78</ele>
<time>2015-04-29T09:16:22Z</time>
</trkpt>
<trkpt lat="34.9153234" lon="32.8298023">
<ele>1397.51</ele>
<time>2015-04-29T09:16:24Z</time>
</trkpt>
<trkpt lat="34.9152710" lon="32.8298476">
<ele>1398.10</ele>
<time>2015-04-29T09:16:27Z</time>
</trkpt>
<trkpt lat="34.9152306" lon="32.8299071">
<ele>1398.68</ele>
<time>2015-04-29T09:16:30Z</time>
</trkpt>
<trkpt lat="34.9152037" lon="32.8299538">
<ele>1399.49</ele>
<time>2015-04-29T09:16:32Z</time>
</trkpt>
<trkpt lat="34.9151787" lon="32.8300011">
<ele>1400.44</ele>
<time>2015-04-29T09:16:34Z</time>
</trkpt>
<trkpt lat="34.9151523" lon="32.8300473">
<ele>1400.18</ele>
<time>2015-04-29T09:16:36Z</time>
</trkpt>
<trkpt lat="34.9151181" lon="32.8300850">
<ele>1399.87</ele>
<time>2015-04-29T09:16:38Z</time>
</trkpt>
<trkpt lat="34.9150789" lon="32.8301180">
<ele>1399.79</ele>
<time>2015-04-29T09:16:40Z</time>
</trkpt>
<trkpt lat="34.9150381" lon="32.8301518">
<ele>1399.77</ele>
<time>2015-04-29T09:16:42Z</time>
</trkpt>
<trkpt lat="34.9149946" lon="32.8301854">
<ele>1399.01</ele>
<time>2015-04-29T09:16:44Z</time>
</trkpt>
<trkpt lat="34.9149539" lon="32.8302241">
<ele>1399.57</ele>
<time>2015-04-29T09:16:46Z</time>
</trkpt>
<trkpt lat="34.9149178" lon="32.8302687">
<ele>1400.21</ele>
<time>2015-04-29T09:16:48Z</time>
</trkpt>
<trkpt lat="34.9148809" lon="32.8303131">
<ele>1401.12</ele>
<time>2015-04-29T09:16:50Z</time>
</trkpt>
<trkpt lat="34.9148436" lon="32.8303573">
<ele>1402.35</ele>
<time>2015-04-29T09:16:52Z</time>
</trkpt>
<trkpt lat="34.9148110" lon="32.8304088">
<ele>1402.91</ele>
<time>2015-04-29T09:16:54Z</time>
</trkpt>
<trkpt lat="34.9147840" lon="32.8304665">
<ele>1402.30</ele>
<time>2015-04-29T09:16:56Z</time>
</trkpt>
<trkpt lat="34.9147566" lon="32.8305275">
<ele>1402.64</ele>
<time>2015-04-29T09:16:58Z</time>
</trkpt>
<trkpt lat="34.9147249" lon="32.8305935">
<ele>1401.98</ele>
<time>2015-04-29T09:17:00Z</time>
</trkpt>
<trkpt lat="34.9146937" lon="32.8306607">
<ele>1401.57</ele>
<time>2015-04-29T09:17:02Z</time>
</trkpt>
<trkpt lat="34.9146651" lon="32.8307318">
<ele>1401.21</ele>
<time>2015-04-29T09:17:04Z</time>
</trkpt>
<trkpt lat="34.9146451" lon="32.8308069">
<ele>1400.37</ele>
<time>2015-04-29T09:17:06Z</time>
</trkpt>
<trkpt lat="34.9146332" lon="32.8308844">
<ele>1399.91</ele>
<time>2015-04-29T09:17:08Z</time>
</trkpt>
<trkpt lat="34.9146263" lon="32.8309623">
<ele>1399.55</ele>
<time>2015-04-29T09:17:10Z</time>
</trkpt>
<trkpt lat="34.9146304" lon="32.8310420">
<ele>1400.46</ele>
<time>2015-04-29T09:17:12Z</time>
</trkpt>
<trkpt lat="34.9146478" lon="32.8311269">
<ele>1400.68</ele>
<time>2015-04-29T09:17:14Z</time>
</trkpt>
<trkpt lat="34.9146740" lon="32.8312333">
<ele>1399.99</ele>
<time>2015-04-29T09:17:16Z</time>
</trkpt>
<trkpt lat="34.9146884" lon="32.8313190">
<ele>1399.38</ele>
<time>2015-04-29T09:17:17Z</time>
</trkpt>
<trkpt lat="34.9146966" lon="32.8313781">
<ele>1399.07</ele>
<time>2015-04-29T09:17:18Z</time>
</trkpt>
<trkpt lat="34.9147075" lon="32.8314410">
<ele>1399.91</ele>
<time>2015-04-29T09:17:19Z</time>
</trkpt>
<trkpt lat="34.9147156" lon="32.8315012">
<ele>1400.84</ele>
<time>2015-04-29T09:17:20Z</time>
</trkpt>
<trkpt lat="34.9147095" lon="32.8315740">
<ele>1400.80</ele>
<time>2015-04-29T09:17:21Z</time>
</trkpt>
<trkpt lat="34.9147055" lon="32.8316395">
<ele>1401.28</ele>
<time>2015-04-29T09:17:22Z</time>
</trkpt>
<trkpt lat="34.9146887" lon="32.8317125">
<ele>1401.52</ele>
<time>2015-04-29T09:17:23Z</time>
</trkpt>
<trkpt lat="34.9146601" lon="32.8317946">
<ele>1401.64</ele>
<time>2015-04-29T09:17:24Z</time>
</trkpt>
<trkpt lat="34.9146168" lon="32.8318642">
<ele>1401.70</ele>
<time>2015-04-29T09:17:25Z</time>
</trkpt>
<trkpt lat="34.9145801" lon="32.8319389">
<ele>1401.23</ele>
<time>2015-04-29T09:17:26Z</time>
</trkpt>
<trkpt lat="34.9145466" lon="32.8320072">
<ele>1400.49</ele>
<time>2015-04-29T09:17:27Z</time>
</trkpt>
<trkpt lat="34.9145083" lon="32.8320903">
<ele>1400.13</ele>
<time>2015-04-29T09:17:28Z</time>
</trkpt>
<trkpt lat="34.9144621" lon="32.8321676">
<ele>1399.94</ele>
<time>2015-04-29T09:17:29Z</time>
</trkpt>
<trkpt lat="34.9144181" lon="32.8322545">
<ele>1399.85</ele>
<time>2015-04-29T09:17:30Z</time>
</trkpt>
<trkpt lat="34.9143668" lon="32.8323355">
<ele>1399.31</ele>
<time>2015-04-29T09:17:31Z</time>
</trkpt>
<trkpt lat="34.9143101" lon="32.8324289">
<ele>1399.03</ele>
<time>2015-04-29T09:17:32Z</time>
</trkpt>
<trkpt lat="34.9142569" lon="32.8325170">
<ele>1397.90</ele>
<time>2015-04-29T09:17:33Z</time>
</trkpt>
<trkpt lat="34.9142080" lon="32.8326189">
<ele>1396.83</ele>
<time>2015-04-29T09:17:34Z</time>
</trkpt>
<trkpt lat="34.9141607" lon="32.8327062">
<ele>1395.79</ele>
<time>2015-04-29T09:17:35Z</time>
</trkpt>
<trkpt lat="34.9141093" lon="32.8328025">
<ele>1395.28</ele>
<time>2015-04-29T09:17:36Z</time>
</trkpt>
<trkpt lat="34.9140825" lon="32.8328701">
<ele>1394.02</ele>
<time>2015-04-29T09:17:37Z</time>
</trkpt>
<trkpt lat="34.9140344" lon="32.8329256">
<ele>1392.39</ele>
<time>2015-04-29T09:17:38Z</time>
</trkpt>
<trkpt lat="34.9139641" lon="32.8329734">
<ele>1391.57</ele>
<time>2015-04-29T09:17:39Z</time>
</trkpt>
<trkpt lat="34.9138745" lon="32.8330030">
<ele>1391.67</ele>
<time>2015-04-29T09:17:40Z</time>
</trkpt>
<trkpt lat="34.9137946" lon="32.8330277">
<ele>1390.71</ele>
<time>2015-04-29T09:17:41Z</time>
</trkpt>
<trkpt lat="34.9137213" lon="32.8330449">
<ele>1389.74</ele>
<time>2015-04-29T09:17:42Z</time>
</trkpt>
<trkpt lat="34.9136377" lon="32.8330377">
<ele>1388.75</ele>
<time>2015-04-29T09:17:43Z</time>
</trkpt>
<trkpt lat="34.9135519" lon="32.8330308">
<ele>1388.75</ele>
<time>2015-04-29T09:17:44Z</time>
</trkpt>
<trkpt lat="34.9134697" lon="32.8330336">
<ele>1389.76</ele>
<time>2015-04-29T09:17:45Z</time>
</trkpt>
<trkpt lat="34.9133795" lon="32.8330390">
<ele>1390.26</ele>
<time>2015-04-29T09:17:46Z</time>
</trkpt>
<trkpt lat="34.9132832" lon="32.8330446">
<ele>1389.51</ele>
<time>2015-04-29T09:17:47Z</time>
</trkpt>
<trkpt lat="34.9131889" lon="32.8330673">
<ele>1389.13</ele>
<time>2015-04-29T09:17:48Z</time>
</trkpt>
<trkpt lat="34.9130904" lon="32.8330963">
<ele>1387.95</ele>
<time>2015-04-29T09:17:49Z</time>
</trkpt>
<trkpt lat="34.9129936" lon="32.8330944">
<ele>1387.85</ele>
<time>2015-04-29T09:17:50Z</time>
</trkpt>
<trkpt lat="34.9129019" lon="32.8330924">
<ele>1387.31</ele>
<time>2015-04-29T09:17:51Z</time>
</trkpt>
<trkpt lat="34.9127971" lon="32.8330689">
<ele>1387.03</ele>
<time>2015-04-29T09:17:52Z</time>
</trkpt>
<trkpt lat="34.9127043" lon="32.8330278">
<ele>1386.90</ele>
<time>2015-04-29T09:17:53Z</time>
</trkpt>
<trkpt lat="34.9126201" lon="32.8330017">
<ele>1385.83</ele>
<time>2015-04-29T09:17:54Z</time>
</trkpt>
<trkpt lat="34.9125228" lon="32.8329512">
<ele>1384.79</ele>
<time>2015-04-29T09:17:55Z</time>
</trkpt>
<trkpt lat="34.9124285" lon="32.8329011">
<ele>1384.78</ele>
<time>2015-04-29T09:17:56Z</time>
</trkpt>
<trkpt lat="34.9123269" lon="32.8328578">
<ele>1383.77</ele>
<time>2015-04-29T09:17:57Z</time>
</trkpt>
<trkpt lat="34.9122334" lon="32.8328274">
<ele>1382.76</ele>
<time>2015-04-29T09:17:58Z</time>
</trkpt>
<trkpt lat="34.9121325" lon="32.8327834">
<ele>1382.26</ele>
<time>2015-04-29T09:17:59Z</time>
</trkpt>
<trkpt lat="34.9120458" lon="32.8327214">
<ele>1381.51</ele>
<time>2015-04-29T09:18:00Z</time>
</trkpt>
<trkpt lat="34.9119720" lon="32.8326606">
<ele>1381.64</ele>
<time>2015-04-29T09:18:01Z</time>
</trkpt>
<trkpt lat="34.9119042" lon="32.8325850">
<ele>1381.70</ele>
<time>2015-04-29T09:18:02Z</time>
</trkpt>
<trkpt lat="34.9118345" lon="32.8325227">
<ele>1380.73</ele>
<time>2015-04-29T09:18:03Z</time>
</trkpt>
<trkpt lat="34.9117641" lon="32.8324610">
<ele>1379.74</ele>
<time>2015-04-29T09:18:04Z</time>
</trkpt>
<trkpt lat="34.9117006" lon="32.8323962">
<ele>1379.25</ele>
<time>2015-04-29T09:18:05Z</time>
</trkpt>
<trkpt lat="34.9116455" lon="32.8323529">
<ele>1378.51</ele>
<time>2015-04-29T09:18:06Z</time>
</trkpt>
<trkpt lat="34.9115815" lon="32.8323338">
<ele>1378.13</ele>
<time>2015-04-29T09:18:07Z</time>
</trkpt>
<trkpt lat="34.9115108" lon="32.8323438">
<ele>1376.95</ele>
<time>2015-04-29T09:18:08Z</time>
</trkpt>
<trkpt lat="34.9114473" lon="32.8323766">
<ele>1375.85</ele>
<time>2015-04-29T09:18:09Z</time>
</trkpt>
<trkpt lat="34.9113821" lon="32.8324267">
<ele>1374.81</ele>
<time>2015-04-29T09:18:10Z</time>
</trkpt>
<trkpt lat="34.9113281" lon="32.8324917">
<ele>1373.78</ele>
<time>2015-04-29T09:18:11Z</time>
</trkpt>
<trkpt lat="34.9112768" lon="32.8325652">
<ele>1372.77</ele>
<time>2015-04-29T09:18:12Z</time>
</trkpt>
<trkpt lat="34.9112291" lon="32.8326483">
<ele>1371.77</ele>
<time>2015-04-29T09:18:13Z</time>
</trkpt>
<trkpt lat="34.9111809" lon="32.8327418">
<ele>1371.76</ele>
<time>2015-04-29T09:18:14Z</time>
</trkpt>
<trkpt lat="34.9111469" lon="32.8328219">
<ele>1371.26</ele>
<time>2015-04-29T09:18:15Z</time>
</trkpt>
<trkpt lat="34.9110968" lon="32.8329140">
<ele>1370.51</ele>
<time>2015-04-29T09:18:16Z</time>
</trkpt>
<trkpt lat="34.9110524" lon="32.8330069">
<ele>1370.14</ele>
<time>2015-04-29T09:18:17Z</time>
</trkpt>
<trkpt lat="34.9110051" lon="32.8330854">
<ele>1369.95</ele>
<time>2015-04-29T09:18:18Z</time>
</trkpt>
<trkpt lat="34.9109542" lon="32.8331760">
<ele>1369.85</ele>
<time>2015-04-29T09:18:19Z</time>
</trkpt>
<trkpt lat="34.9109000" lon="32.8332505">
<ele>1369.31</ele>
<time>2015-04-29T09:18:20Z</time>
</trkpt>
<trkpt lat="34.9108416" lon="32.8333263">
<ele>1369.03</ele>
<time>2015-04-29T09:18:21Z</time>
</trkpt>
<trkpt lat="34.9107756" lon="32.8333883">
<ele>1368.90</ele>
<time>2015-04-29T09:18:22Z</time>
</trkpt>
<trkpt lat="34.9107051" lon="32.8334502">
<ele>1369.33</ele>
<time>2015-04-29T09:18:23Z</time>
</trkpt>
<trkpt lat="34.9106378" lon="32.8335192">
<ele>1369.04</ele>
<time>2015-04-29T09:18:24Z</time>
</trkpt>
<trkpt lat="34.9105651" lon="32.8335849">
<ele>1367.90</ele>
<time>2015-04-29T09:18:25Z</time>
</trkpt>
<trkpt lat="34.9104886" lon="32.8336492">
<ele>1367.83</ele>
<time>2015-04-29T09:18:26Z</time>
</trkpt>
<trkpt lat="34.9104233" lon="32.8337147">
<ele>1367.30</ele>
<time>2015-04-29T09:18:27Z</time>
</trkpt>
<trkpt lat="34.9103470" lon="32.8337756">
<ele>1367.53</ele>
<time>2015-04-29T09:18:28Z</time>
</trkpt>
<trkpt lat="34.9102826" lon="32.8338489">
<ele>1367.64</ele>
<time>2015-04-29T09:18:29Z</time>
</trkpt>
<trkpt lat="34.9102172" lon="32.8339097">
<ele>1367.70</ele>
<time>2015-04-29T09:18:30Z</time>
</trkpt>
<trkpt lat="34.9101667" lon="32.8339722">
<ele>1368.23</ele>
<time>2015-04-29T09:18:31Z</time>
</trkpt>
<trkpt lat="34.9101397" lon="32.8340522">
<ele>1368.50</ele>
<time>2015-04-29T09:18:32Z</time>
</trkpt>
<trkpt lat="34.9101324" lon="32.8341285">
<ele>1368.13</ele>
<time>2015-04-29T09:18:33Z</time>
</trkpt>
<trkpt lat="34.9101371" lon="32.8342117">
<ele>1367.94</ele>
<time>2015-04-29T09:18:34Z</time>
</trkpt>
<trkpt lat="34.9101642" lon="32.8342836">
<ele>1367.35</ele>
<time>2015-04-29T09:18:35Z</time>
</trkpt>
<trkpt lat="34.9102045" lon="32.8343723">
<ele>1367.56</ele>
<time>2015-04-29T09:18:36Z</time>
</trkpt>
<trkpt lat="34.9102408" lon="32.8344475">
<ele>1367.16</ele>
<time>2015-04-29T09:18:37Z</time>
</trkpt>
<trkpt lat="34.9102807" lon="32.8345077">
<ele>1366.96</ele>
<time>2015-04-29T09:18:38Z</time>
</trkpt>
<trkpt lat="34.9103079" lon="32.8345806">
<ele>1366.86</ele>
<time>2015-04-29T09:18:39Z</time>
</trkpt>
<trkpt lat="34.9103252" lon="32.8346719">
<ele>1367.31</ele>
<time>2015-04-29T09:18:40Z</time>
</trkpt>
<trkpt lat="34.9103372" lon="32.8347667">
<ele>1367.03</ele>
<time>2015-04-29T09:18:41Z</time>
</trkpt>
<trkpt lat="34.9103284" lon="32.8348700">
<ele>1366.90</ele>
<time>2015-04-29T09:18:42Z</time>
</trkpt>
<trkpt lat="34.9103071" lon="32.8349549">
<ele>1366.83</ele>
<time>2015-04-29T09:18:43Z</time>
</trkpt>
<trkpt lat="34.9102691" lon="32.8350486">
<ele>1366.79</ele>
<time>2015-04-29T09:18:44Z</time>
</trkpt>
<trkpt lat="34.9102449" lon="32.8351498">
<ele>1366.28</ele>
<time>2015-04-29T09:18:45Z</time>
</trkpt>
<trkpt lat="34.9102213" lon="32.8352458">
<ele>1366.52</ele>
<time>2015-04-29T09:18:46Z</time>
</trkpt>
<trkpt lat="34.9101848" lon="32.8353451">
<ele>1366.14</ele>
<time>2015-04-29T09:18:47Z</time>
</trkpt>
<trkpt lat="34.9101457" lon="32.8354559">
<ele>1366.95</ele>
<time>2015-04-29T09:18:48Z</time>
</trkpt>
<trkpt lat="34.9101036" lon="32.8355583">
<ele>1366.35</ele>
<time>2015-04-29T09:18:49Z</time>
</trkpt>
<trkpt lat="34.9100536" lon="32.8356495">
<ele>1365.56</ele>
<time>2015-04-29T09:18:50Z</time>
</trkpt>
<trkpt lat="34.9100133" lon="32.8357669">
<ele>1365.16</ele>
<time>2015-04-29T09:18:51Z</time>
</trkpt>
<trkpt lat="34.9099861" lon="32.8358646">
<ele>1364.96</ele>
<time>2015-04-29T09:18:52Z</time>
</trkpt>
<trkpt lat="34.9099962" lon="32.8359555">
<ele>1362.86</ele>
<time>2015-04-29T09:18:53Z</time>
</trkpt>
<trkpt lat="34.9100266" lon="32.8360419">
<ele>1360.31</ele>
<time>2015-04-29T09:18:54Z</time>
</trkpt>
<trkpt lat="34.9100732" lon="32.8360812">
<ele>1359.03</ele>
<time>2015-04-29T09:18:55Z</time>
</trkpt>
<trkpt lat="34.9101398" lon="32.8361107">
<ele>1357.90</ele>
<time>2015-04-29T09:18:56Z</time>
</trkpt>
<trkpt lat="34.9102238" lon="32.8361181">
<ele>1356.83</ele>
<time>2015-04-29T09:18:57Z</time>
</trkpt>
<trkpt lat="34.9103080" lon="32.8361306">
<ele>1355.79</ele>
<time>2015-04-29T09:18:58Z</time>
</trkpt>
<trkpt lat="34.9103918" lon="32.8361417">
<ele>1355.28</ele>
<time>2015-04-29T09:18:59Z</time>
</trkpt>
<trkpt lat="34.9104753" lon="32.8361562">
<ele>1355.02</ele>
<time>2015-04-29T09:19:00Z</time>
</trkpt>
<trkpt lat="34.9105395" lon="32.8361752">
<ele>1354.39</ele>
<time>2015-04-29T09:19:01Z</time>
</trkpt>
<trkpt lat="34.9106065" lon="32.8361799">
<ele>1353.57</ele>
<time>2015-04-29T09:19:02Z</time>
</trkpt>
<trkpt lat="34.9106742" lon="32.8361829">
<ele>1353.17</ele>
<time>2015-04-29T09:19:03Z</time>
</trkpt>
<trkpt lat="34.9107416" lon="32.8361742">
<ele>1352.46</ele>
<time>2015-04-29T09:19:04Z</time>
</trkpt>
<trkpt lat="34.9108093" lon="32.8361664">
<ele>1352.11</ele>
<time>2015-04-29T09:19:05Z</time>
</trkpt>
<trkpt lat="34.9108757" lon="32.8361414">
<ele>1351.94</ele>
<time>2015-04-29T09:19:06Z</time>
</trkpt>
<trkpt lat="34.9109522" lon="32.8361212">
<ele>1351.35</ele>
<time>2015-04-29T09:19:07Z</time>
</trkpt>
<trkpt lat="34.9110398" lon="32.8361232">
<ele>1350.05</ele>
<time>2015-04-29T09:19:08Z</time>
</trkpt>
<trkpt lat="34.9111195" lon="32.8361378">
<ele>1349.91</ele>
<time>2015-04-29T09:19:09Z</time>
</trkpt>
<trkpt lat="34.9112073" lon="32.8361487">
<ele>1350.33</ele>
<time>2015-04-29T09:19:10Z</time>
</trkpt>
<trkpt lat="34.9113001" lon="32.8361758">
<ele>1350.55</ele>
<time>2015-04-29T09:19:11Z</time>
</trkpt>
<trkpt lat="34.9113917" lon="32.8362104">
<ele>1350.65</ele>
<time>2015-04-29T09:19:12Z</time>
</trkpt>
<trkpt lat="34.9114811" lon="32.8362326">
<ele>1350.21</ele>
<time>2015-04-29T09:19:13Z</time>
</trkpt>
<trkpt lat="34.9115734" lon="32.8362467">
<ele>1349.98</ele>
<time>2015-04-29T09:19:14Z</time>
</trkpt>
<trkpt lat="34.9116665" lon="32.8362508">
<ele>1349.37</ele>
<time>2015-04-29T09:19:15Z</time>
</trkpt>
<trkpt lat="34.9117522" lon="32.8362278">
<ele>1349.07</ele>
<time>2015-04-29T09:19:16Z</time>
</trkpt>
<trkpt lat="34.9118413" lon="32.8362162">
<ele>1348.91</ele>
<time>2015-04-29T09:19:17Z</time>
</trkpt>
<trkpt lat="34.9119352" lon="32.8362176">
<ele>1348.34</ele>
<time>2015-04-29T09:19:18Z</time>
</trkpt>
<trkpt lat="34.9120222" lon="32.8362376">
<ele>1348.05</ele>
<time>2015-04-29T09:19:19Z</time>
</trkpt>
<trkpt lat="34.9120921" lon="32.8362995">
<ele>1347.40</ele>
<time>2015-04-29T09:19:20Z</time>
</trkpt>
<trkpt lat="34.9121296" lon="32.8363621">
<ele>1346.58</ele>
<time>2015-04-29T09:19:21Z</time>
</trkpt>
<trkpt lat="34.9121679" lon="32.8364518">
<ele>1345.67</ele>
<time>2015-04-29T09:19:22Z</time>
</trkpt>
<trkpt lat="34.9121846" lon="32.8365415">
<ele>1345.22</ele>
<time>2015-04-29T09:19:23Z</time>
</trkpt>
<trkpt lat="34.9121978" lon="32.8366431">
<ele>1344.99</ele>
<time>2015-04-29T09:19:24Z</time>
</trkpt>
<trkpt lat="34.9122049" lon="32.8367404">
<ele>1344.87</ele>
<time>2015-04-29T09:19:25Z</time>
</trkpt>
<trkpt lat="34.9122148" lon="32.8368369">
<ele>1344.82</ele>
<time>2015-04-29T09:19:26Z</time>
</trkpt>
<trkpt lat="34.9122264" lon="32.8369249">
<ele>1344.79</ele>
<time>2015-04-29T09:19:27Z</time>
</trkpt>
<trkpt lat="34.9122376" lon="32.8369957">
<ele>1344.27</ele>
<time>2015-04-29T09:19:28Z</time>
</trkpt>
<trkpt lat="34.9122495" lon="32.8370524">
<ele>1343.02</ele>
<time>2015-04-29T09:19:29Z</time>
</trkpt>
<trkpt lat="34.9122600" lon="32.8371272">
<ele>1339.82</ele>
<time>2015-04-29T09:19:31Z</time>
</trkpt>
<trkpt lat="34.9122359" lon="32.8371826">
<ele>1338.28</ele>
<time>2015-04-29T09:19:33Z</time>
</trkpt>
<trkpt lat="34.9122254" lon="32.8372395">
<ele>1333.31</ele>
<time>2015-04-29T09:19:40Z</time>
</trkpt>
<trkpt lat="34.9121795" lon="32.8372668">
<ele>1335.14</ele>
<time>2015-04-29T09:21:02Z</time>
</trkpt>
<trkpt lat="34.9121487" lon="32.8372104">
<ele>1337.27</ele>
<time>2015-04-29T09:23:55Z</time>
</trkpt>
<trkpt lat="34.9121309" lon="32.8371495">
<ele>1337.14</ele>
<time>2015-04-29T09:23:57Z</time>
</trkpt>
<trkpt lat="34.9121044" lon="32.8370572">
<ele>1336.85</ele>
<time>2015-04-29T09:23:59Z</time>
</trkpt>
<trkpt lat="34.9120894" lon="32.8369596">
<ele>1335.53</ele>
<time>2015-04-29T09:24:01Z</time>
</trkpt>
<trkpt lat="34.9120759" lon="32.8368636">
<ele>1334.95</ele>
<time>2015-04-29T09:24:03Z</time>
</trkpt>
<trkpt lat="34.9120378" lon="32.8367435">
<ele>1334.56</ele>
<time>2015-04-29T09:24:05Z</time>
</trkpt>
<trkpt lat="34.9119951" lon="32.8366535">
<ele>1333.46</ele>
<time>2015-04-29T09:24:07Z</time>
</trkpt>
<trkpt lat="34.9119672" lon="32.8366025">
<ele>1333.11</ele>
<time>2015-04-29T09:24:08Z</time>
</trkpt>
<trkpt lat="34.9118958" lon="32.8365707">
<ele>1332.10</ele>
<time>2015-04-29T09:24:10Z</time>
</trkpt>
<trkpt lat="34.9118218" lon="32.8365954">
<ele>1331.84</ele>
<time>2015-04-29T09:24:12Z</time>
</trkpt>
<trkpt lat="34.9117483" lon="32.8366236">
<ele>1332.03</ele>
<time>2015-04-29T09:24:14Z</time>
</trkpt>
<trkpt lat="34.9116689" lon="32.8366323">
<ele>1331.08</ele>
<time>2015-04-29T09:24:16Z</time>
</trkpt>
<trkpt lat="34.9116148" lon="32.8366419">
<ele>1330.42</ele>
<time>2015-04-29T09:24:17Z</time>
</trkpt>
<trkpt lat="34.9115606" lon="32.8366597">
<ele>1329.59</ele>
<time>2015-04-29T09:24:18Z</time>
</trkpt>
<trkpt lat="34.9115062" lon="32.8366801">
<ele>1328.67</ele>
<time>2015-04-29T09:24:19Z</time>
</trkpt>
<trkpt lat="34.9114423" lon="32.8366946">
<ele>1328.22</ele>
<time>2015-04-29T09:24:20Z</time>
</trkpt>
<trkpt lat="34.9113761" lon="32.8367067">
<ele>1327.99</ele>
<time>2015-04-29T09:24:21Z</time>
</trkpt>
<trkpt lat="34.9113287" lon="32.8366712">
<ele>1325.87</ele>
<time>2015-04-29T09:24:22Z</time>
</trkpt>
<trkpt lat="34.9112768" lon="32.8366720">
<ele>1324.32</ele>
<time>2015-04-29T09:24:23Z</time>
</trkpt>
<trkpt lat="34.9112258" lon="32.8367279">
<ele>1323.54</ele>
<time>2015-04-29T09:24:24Z</time>
</trkpt>
<trkpt lat="34.9111839" lon="32.8367694">
<ele>1323.15</ele>
<time>2015-04-29T09:24:25Z</time>
</trkpt>
<trkpt lat="34.9111445" lon="32.8368114">
<ele>1322.45</ele>
<time>2015-04-29T09:24:26Z</time>
</trkpt>
<trkpt lat="34.9111112" lon="32.8368571">
<ele>1321.61</ele>
<time>2015-04-29T09:24:27Z</time>
</trkpt>
<trkpt lat="34.9110747" lon="32.8369069">
<ele>1320.18</ele>
<time>2015-04-29T09:24:28Z</time>
</trkpt>
<trkpt lat="34.9110384" lon="32.8369545">
<ele>1318.97</ele>
<time>2015-04-29T09:24:29Z</time>
</trkpt>
<trkpt lat="34.9109679" lon="32.8370140">
<ele>1316.56</ele>
<time>2015-04-29T09:24:31Z</time>
</trkpt>
<trkpt lat="34.9109284" lon="32.8370433">
<ele>1315.66</ele>
<time>2015-04-29T09:24:32Z</time>
</trkpt>
<trkpt lat="34.9108773" lon="32.8370500">
<ele>1314.71</ele>
<time>2015-04-29T09:24:33Z</time>
</trkpt>
<trkpt lat="34.9108102" lon="32.8370847">
<ele>1315.24</ele>
<time>2015-04-29T09:24:34Z</time>
</trkpt>
<trkpt lat="34.9107551" lon="32.8370784">
<ele>1315.00</ele>
<time>2015-04-29T09:24:35Z</time>
</trkpt>
<trkpt lat="34.9106996" lon="32.8370627">
<ele>1313.88</ele>
<time>2015-04-29T09:24:36Z</time>
</trkpt>
<trkpt lat="34.9106259" lon="32.8370339">
<ele>1313.32</ele>
<time>2015-04-29T09:24:37Z</time>
</trkpt>
<trkpt lat="34.9105652" lon="32.8370227">
<ele>1313.54</ele>
<time>2015-04-29T09:24:38Z</time>
</trkpt>
<trkpt lat="34.9105127" lon="32.8370104">
<ele>1313.65</ele>
<time>2015-04-29T09:24:39Z</time>
</trkpt>
<trkpt lat="34.9104662" lon="32.8369961">
<ele>1313.20</ele>
<time>2015-04-29T09:24:40Z</time>
</trkpt>
<trkpt lat="34.9104041" lon="32.8369696">
<ele>1312.37</ele>
<time>2015-04-29T09:24:42Z</time>
</trkpt>
<trkpt lat="34.9103546" lon="32.8369772">
<ele>1311.91</ele>
<time>2015-04-29T09:24:44Z</time>
</trkpt>
<trkpt lat="34.9102972" lon="32.8369895">
<ele>1311.78</ele>
<time>2015-04-29T09:24:47Z</time>
</trkpt>
<trkpt lat="34.9102506" lon="32.8370083">
<ele>1310.39</ele>
<time>2015-04-29T09:24:50Z</time>
</trkpt>
<trkpt lat="34.9102136" lon="32.8370413">
<ele>1310.17</ele>
<time>2015-04-29T09:24:52Z</time>
</trkpt>
<trkpt lat="34.9101605" lon="32.8371005">
<ele>1310.61</ele>
<time>2015-04-29T09:24:54Z</time>
</trkpt>
<trkpt lat="34.9101303" lon="32.8371415">
<ele>1311.19</ele>
<time>2015-04-29T09:24:55Z</time>
</trkpt>
<trkpt lat="34.9100834" lon="32.8372530">
<ele>1310.97</ele>
<time>2015-04-29T09:24:56Z</time>
</trkpt>
<trkpt lat="34.9100540" lon="32.8373056">
<ele>1310.37</ele>
<time>2015-04-29T09:24:57Z</time>
</trkpt>
<trkpt lat="34.9100127" lon="32.8373546">
<ele>1310.06</ele>
<time>2015-04-29T09:24:58Z</time>
</trkpt>
<trkpt lat="34.9099642" lon="32.8373978">
<ele>1309.91</ele>
<time>2015-04-29T09:24:59Z</time>
</trkpt>
<trkpt lat="34.9098781" lon="32.8374158">
<ele>1306.84</ele>
<time>2015-04-29T09:25:00Z</time>
</trkpt>
<trkpt lat="34.9098220" lon="32.8374559">
<ele>1305.80</ele>
<time>2015-04-29T09:25:01Z</time>
</trkpt>
<trkpt lat="34.9097430" lon="32.8374912">
<ele>1304.28</ele>
<time>2015-04-29T09:25:02Z</time>
</trkpt>
<trkpt lat="34.9096776" lon="32.8375326">
<ele>1303.52</ele>
<time>2015-04-29T09:25:03Z</time>
</trkpt>
<trkpt lat="34.9096216" lon="32.8375439">
<ele>1302.64</ele>
<time>2015-04-29T09:25:04Z</time>
</trkpt>
<trkpt lat="34.9095584" lon="32.8375704">
<ele>1302.20</ele>
<time>2015-04-29T09:25:05Z</time>
</trkpt>
<trkpt lat="34.9095055" lon="32.8375950">
<ele>1301.48</ele>
<time>2015-04-29T09:25:06Z</time>
</trkpt>
<trkpt lat="34.9094436" lon="32.8376358">
<ele>1302.12</ele>
<time>2015-04-29T09:25:07Z</time>
</trkpt>
<trkpt lat="34.9093944" lon="32.8376646">
<ele>1302.44</ele>
<time>2015-04-29T09:25:08Z</time>
</trkpt>
<trkpt lat="34.9093242" lon="32.8377064">
<ele>1303.10</ele>
<time>2015-04-29T09:25:09Z</time>
</trkpt>
<trkpt lat="34.9092680" lon="32.8377048">
<ele>1303.43</ele>
<time>2015-04-29T09:25:10Z</time>
</trkpt>
<trkpt lat="34.9092117" lon="32.8376941">
<ele>1303.43</ele>
<time>2015-04-29T09:25:12Z</time>
</trkpt>
<trkpt lat="34.9091548" lon="32.8376741">
<ele>1302.34</ele>
<time>2015-04-29T09:25:15Z</time>
</trkpt>
<trkpt lat="34.9091167" lon="32.8376434">
<ele>1299.85</ele>
<time>2015-04-29T09:25:21Z</time>
</trkpt>
<trkpt lat="34.9091736" lon="32.8376621">
<ele>1298.80</ele>
<time>2015-04-29T09:25:44Z</time>
</trkpt>
<trkpt lat="34.9092286" lon="32.8376849">
<ele>1300.27</ele>
<time>2015-04-29T09:25:46Z</time>
</trkpt>
<trkpt lat="34.9092947" lon="32.8376965">
<ele>1300.14</ele>
<time>2015-04-29T09:25:48Z</time>
</trkpt>
<trkpt lat="34.9093621" lon="32.8376978">
<ele>1300.60</ele>
<time>2015-04-29T09:25:50Z</time>
</trkpt>
<trkpt lat="34.9094323" lon="32.8376888">
<ele>1300.97</ele>
<time>2015-04-29T09:25:52Z</time>
</trkpt>
<trkpt lat="34.9095160" lon="32.8376765">
<ele>1300.81</ele>
<time>2015-04-29T09:25:54Z</time>
</trkpt>
<trkpt lat="34.9096056" lon="32.8376496">
<ele>1300.77</ele>
<time>2015-04-29T09:25:56Z</time>
</trkpt>
<trkpt lat="34.9096512" lon="32.8376370">
<ele>1300.77</ele>
<time>2015-04-29T09:25:57Z</time>
</trkpt>
<trkpt lat="34.9096959" lon="32.8376250">
<ele>1300.26</ele>
<time>2015-04-29T09:25:58Z</time>
</trkpt>
<trkpt lat="34.9097772" lon="32.8376048">
<ele>1301.39</ele>
<time>2015-04-29T09:26:00Z</time>
</trkpt>
<trkpt lat="34.9098418" lon="32.8375836">
<ele>1301.17</ele>
<time>2015-04-29T09:26:02Z</time>
</trkpt>
<trkpt lat="34.9098867" lon="32.8375640">
<ele>1301.61</ele>
<time>2015-04-29T09:26:04Z</time>
</trkpt>
<trkpt lat="34.9099411" lon="32.8375466">
<ele>1302.37</ele>
<time>2015-04-29T09:26:07Z</time>
</trkpt>
<trkpt lat="34.9099930" lon="32.8375304">
<ele>1301.09</ele>
<time>2015-04-29T09:26:10Z</time>
</trkpt>
<trkpt lat="34.9100372" lon="32.8375026">
<ele>1300.30</ele>
<time>2015-04-29T09:26:13Z</time>
</trkpt>
<trkpt lat="34.9100786" lon="32.8374710">
<ele>1299.83</ele>
<time>2015-04-29T09:26:16Z</time>
</trkpt>
<trkpt lat="34.9101204" lon="32.8374213">
<ele>1301.27</ele>
<time>2015-04-29T09:26:19Z</time>
</trkpt>
<trkpt lat="34.9101667" lon="32.8373773">
<ele>1302.20</ele>
<time>2015-04-29T09:26:22Z</time>
</trkpt>
<trkpt lat="34.9102189" lon="32.8373532">
<ele>1303.56</ele>
<time>2015-04-29T09:26:25Z</time>
</trkpt>
<trkpt lat="34.9102659" lon="32.8373242">
<ele>1303.74</ele>
<time>2015-04-29T09:26:28Z</time>
</trkpt>
<trkpt lat="34.9103081" lon="32.8373046">
<ele>1303.76</ele>
<time>2015-04-29T09:26:31Z</time>
</trkpt>
<trkpt lat="34.9103543" lon="32.8372875">
<ele>1305.51</ele>
<time>2015-04-29T09:26:34Z</time>
</trkpt>
<trkpt lat="34.9104093" lon="32.8372797">
<ele>1305.74</ele>
<time>2015-04-29T09:26:38Z</time>
</trkpt>
<trkpt lat="34.9104608" lon="32.8372781">
<ele>1306.70</ele>
<time>2015-04-29T09:26:42Z</time>
</trkpt>
<trkpt lat="34.9105138" lon="32.8372931">
<ele>1309.82</ele>
<time>2015-04-29T09:26:47Z</time>
</trkpt>
<trkpt lat="34.9105613" lon="32.8372922">
<ele>1310.95</ele>
<time>2015-04-29T09:26:51Z</time>
</trkpt>
<trkpt lat="34.9106045" lon="32.8373094">
<ele>1314.40</ele>
<time>2015-04-29T09:26:55Z</time>
</trkpt>
<trkpt lat="34.9106509" lon="32.8373058">
<ele>1313.46</ele>
<time>2015-04-29T09:26:58Z</time>
</trkpt>
<trkpt lat="34.9107043" lon="32.8373027">
<ele>1313.72</ele>
<time>2015-04-29T09:27:01Z</time>
</trkpt>
<trkpt lat="34.9107506" lon="32.8372936">
<ele>1313.75</ele>
<time>2015-04-29T09:27:03Z</time>
</trkpt>
<trkpt lat="34.9108098" lon="32.8372713">
<ele>1314.63</ele>
<time>2015-04-29T09:27:06Z</time>
</trkpt>
<trkpt lat="34.9108560" lon="32.8372622">
<ele>1313.73</ele>
<time>2015-04-29T09:27:08Z</time>
</trkpt>
<trkpt lat="34.9109150" lon="32.8372471">
<ele>1312.25</ele>
<time>2015-04-29T09:27:10Z</time>
</trkpt>
<trkpt lat="34.9109673" lon="32.8372263">
<ele>1311.88</ele>
<time>2015-04-29T09:27:12Z</time>
</trkpt>
<trkpt lat="34.9110212" lon="32.8371997">
<ele>1312.04</ele>
<time>2015-04-29T09:27:14Z</time>
</trkpt>
<trkpt lat="34.9110787" lon="32.8371621">
<ele>1311.83</ele>
<time>2015-04-29T09:27:16Z</time>
</trkpt>
<trkpt lat="34.9111246" lon="32.8371221">
<ele>1312.28</ele>
<time>2015-04-29T09:27:18Z</time>
</trkpt>
<trkpt lat="34.9111647" lon="32.8370836">
<ele>1312.64</ele>
<time>2015-04-29T09:27:20Z</time>
</trkpt>
<trkpt lat="34.9112148" lon="32.8370488">
<ele>1312.73</ele>
<time>2015-04-29T09:27:22Z</time>
</trkpt>
<trkpt lat="34.9112705" lon="32.8370270">
<ele>1313.00</ele>
<time>2015-04-29T09:27:24Z</time>
</trkpt>
<trkpt lat="34.9113230" lon="32.8370175">
<ele>1312.82</ele>
<time>2015-04-29T09:27:26Z</time>
</trkpt>
<trkpt lat="34.9113771" lon="32.8370074">
<ele>1312.77</ele>
<time>2015-04-29T09:27:29Z</time>
</trkpt>
<trkpt lat="34.9114338" lon="32.8370129">
<ele>1310.89</ele>
<time>2015-04-29T09:27:32Z</time>
</trkpt>
<trkpt lat="34.9114817" lon="32.8370266">
<ele>1311.79</ele>
<time>2015-04-29T09:27:34Z</time>
</trkpt>
<trkpt lat="34.9115352" lon="32.8370631">
<ele>1313.02</ele>
<time>2015-04-29T09:27:36Z</time>
</trkpt>
<trkpt lat="34.9115887" lon="32.8371126">
<ele>1313.57</ele>
<time>2015-04-29T09:27:38Z</time>
</trkpt>
<trkpt lat="34.9116350" lon="32.8371636">
<ele>1312.96</ele>
<time>2015-04-29T09:27:40Z</time>
</trkpt>
<trkpt lat="34.9116710" lon="32.8372259">
<ele>1313.31</ele>
<time>2015-04-29T09:27:42Z</time>
</trkpt>
<trkpt lat="34.9116935" lon="32.8372998">
<ele>1313.65</ele>
<time>2015-04-29T09:27:44Z</time>
</trkpt>
<trkpt lat="34.9117130" lon="32.8373772">
<ele>1314.48</ele>
<time>2015-04-29T09:27:46Z</time>
</trkpt>
<trkpt lat="34.9117399" lon="32.8374556">
<ele>1314.69</ele>
<time>2015-04-29T09:27:48Z</time>
</trkpt>
<trkpt lat="34.9117780" lon="32.8375316">
<ele>1314.24</ele>
<time>2015-04-29T09:27:50Z</time>
</trkpt>
<trkpt lat="34.9118129" lon="32.8376211">
<ele>1313.88</ele>
<time>2015-04-29T09:27:52Z</time>
</trkpt>
<trkpt lat="34.9118536" lon="32.8377107">
<ele>1313.82</ele>
<time>2015-04-29T09:27:53Z</time>
</trkpt>
<trkpt lat="34.9118926" lon="32.8377451">
<ele>1314.29</ele>
<time>2015-04-29T09:27:54Z</time>
</trkpt>
<trkpt lat="34.9119410" lon="32.8377700">
<ele>1314.53</ele>
<time>2015-04-29T09:27:55Z</time>
</trkpt>
<trkpt lat="34.9120081" lon="32.8377924">
<ele>1314.64</ele>
<time>2015-04-29T09:27:56Z</time>
</trkpt>
<trkpt lat="34.9120763" lon="32.8378130">
<ele>1314.20</ele>
<time>2015-04-29T09:27:57Z</time>
</trkpt>
<trkpt lat="34.9121394" lon="32.8378321">
<ele>1314.48</ele>
<time>2015-04-29T09:27:58Z</time>
</trkpt>
<trkpt lat="34.9122095" lon="32.8378616">
<ele>1313.12</ele>
<time>2015-04-29T09:27:59Z</time>
</trkpt>
<trkpt lat="34.9122860" lon="32.8378847">
<ele>1312.44</ele>
<time>2015-04-29T09:28:00Z</time>
</trkpt>
<trkpt lat="34.9123737" lon="32.8379014">
<ele>1312.10</ele>
<time>2015-04-29T09:28:01Z</time>
</trkpt>
<trkpt lat="34.9124504" lon="32.8379202">
<ele>1312.43</ele>
<time>2015-04-29T09:28:02Z</time>
</trkpt>
<trkpt lat="34.9125283" lon="32.8379358">
<ele>1312.59</ele>
<time>2015-04-29T09:28:03Z</time>
</trkpt>
<trkpt lat="34.9126039" lon="32.8379579">
<ele>1313.18</ele>
<time>2015-04-29T09:28:04Z</time>
</trkpt>
<trkpt lat="34.9126796" lon="32.8379528">
<ele>1313.47</ele>
<time>2015-04-29T09:28:05Z</time>
</trkpt>
<trkpt lat="34.9127499" lon="32.8379600">
<ele>1313.61</ele>
<time>2015-04-29T09:28:06Z</time>
</trkpt>
<trkpt lat="34.9128145" lon="32.8379696">
<ele>1313.19</ele>
<time>2015-04-29T09:28:07Z</time>
</trkpt>
<trkpt lat="34.9128805" lon="32.8379728">
<ele>1312.97</ele>
<time>2015-04-29T09:28:08Z</time>
</trkpt>
<trkpt lat="34.9129417" lon="32.8379754">
<ele>1312.87</ele>
<time>2015-04-29T09:28:09Z</time>
</trkpt>
<trkpt lat="34.9129924" lon="32.8379690">
<ele>1312.81</ele>
<time>2015-04-29T09:28:10Z</time>
</trkpt>
<trkpt lat="34.9130585" lon="32.8379954">
<ele>1314.02</ele>
<time>2015-04-29T09:28:12Z</time>
</trkpt>
<trkpt lat="34.9131151" lon="32.8380139">
<ele>1315.58</ele>
<time>2015-04-29T09:28:14Z</time>
</trkpt>
<trkpt lat="34.9131692" lon="32.8380404">
<ele>1317.21</ele>
<time>2015-04-29T09:28:16Z</time>
</trkpt>
<trkpt lat="34.9132318" lon="32.8380454">
<ele>1317.82</ele>
<time>2015-04-29T09:28:19Z</time>
</trkpt>
<trkpt lat="34.9132796" lon="32.8380457">
<ele>1318.02</ele>
<time>2015-04-29T09:28:22Z</time>
</trkpt>
<trkpt lat="34.9133259" lon="32.8380417">
<ele>1317.92</ele>
<time>2015-04-29T09:28:25Z</time>
</trkpt>
<trkpt lat="34.9132688" lon="32.8380656">
<ele>1317.45</ele>
<time>2015-04-29T09:28:34Z</time>
</trkpt>
<trkpt lat="34.9132134" lon="32.8380514">
<ele>1316.93</ele>
<time>2015-04-29T09:28:36Z</time>
</trkpt>
<trkpt lat="34.9131570" lon="32.8380405">
<ele>1316.91</ele>
<time>2015-04-29T09:28:39Z</time>
</trkpt>
<trkpt lat="34.9131115" lon="32.8380253">
<ele>1317.78</ele>
<time>2015-04-29T09:28:42Z</time>
</trkpt>
<trkpt lat="34.9130598" lon="32.8380159">
<ele>1318.51</ele>
<time>2015-04-29T09:28:45Z</time>
</trkpt>
<trkpt lat="34.9130123" lon="32.8380129">
<ele>1318.70</ele>
<time>2015-04-29T09:28:47Z</time>
</trkpt>
<trkpt lat="34.9129389" lon="32.8380147">
<ele>1318.99</ele>
<time>2015-04-29T09:28:49Z</time>
</trkpt>
<trkpt lat="34.9128576" lon="32.8380148">
<ele>1318.07</ele>
<time>2015-04-29T09:28:51Z</time>
</trkpt>
<trkpt lat="34.9127770" lon="32.8380130">
<ele>1317.41</ele>
<time>2015-04-29T09:28:52Z</time>
</trkpt>
<trkpt lat="34.9127216" lon="32.8380092">
<ele>1316.59</ele>
<time>2015-04-29T09:28:53Z</time>
</trkpt>
<trkpt lat="34.9126671" lon="32.8379981">
<ele>1315.67</ele>
<time>2015-04-29T09:28:54Z</time>
</trkpt>
<trkpt lat="34.9126065" lon="32.8379881">
<ele>1314.72</ele>
<time>2015-04-29T09:28:55Z</time>
</trkpt>
<trkpt lat="34.9125323" lon="32.8379793">
<ele>1314.74</ele>
<time>2015-04-29T09:28:56Z</time>
</trkpt>
<trkpt lat="34.9124603" lon="32.8379638">
<ele>1313.75</ele>
<time>2015-04-29T09:28:57Z</time>
</trkpt>
<trkpt lat="34.9123814" lon="32.8379529">
<ele>1312.75</ele>
<time>2015-04-29T09:28:58Z</time>
</trkpt>
<trkpt lat="34.9123148" lon="32.8379354">
<ele>1311.76</ele>
<time>2015-04-29T09:28:59Z</time>
</trkpt>
<trkpt lat="34.9122389" lon="32.8379237">
<ele>1311.26</ele>
<time>2015-04-29T09:29:00Z</time>
</trkpt>
<trkpt lat="34.9121690" lon="32.8379119">
<ele>1311.01</ele>
<time>2015-04-29T09:29:01Z</time>
</trkpt>
<trkpt lat="34.9121055" lon="32.8378883">
<ele>1310.38</ele>
<time>2015-04-29T09:29:02Z</time>
</trkpt>
<trkpt lat="34.9120498" lon="32.8378610">
<ele>1310.07</ele>
<time>2015-04-29T09:29:03Z</time>
</trkpt>
<trkpt lat="34.9119988" lon="32.8378424">
<ele>1311.42</ele>
<time>2015-04-29T09:29:04Z</time>
</trkpt>
<trkpt lat="34.9119554" lon="32.8378177">
<ele>1312.09</ele>
<time>2015-04-29T09:29:05Z</time>
</trkpt>
<trkpt lat="34.9119114" lon="32.8377792">
<ele>1312.42</ele>
<time>2015-04-29T09:29:06Z</time>
</trkpt>
<trkpt lat="34.9118767" lon="32.8377303">
<ele>1312.59</ele>
<time>2015-04-29T09:29:07Z</time>
</trkpt>
<trkpt lat="34.9118524" lon="32.8376748">
<ele>1312.68</ele>
<time>2015-04-29T09:29:08Z</time>
</trkpt>
<trkpt lat="34.9118276" lon="32.8376217">
<ele>1312.22</ele>
<time>2015-04-29T09:29:09Z</time>
</trkpt>
<trkpt lat="34.9117980" lon="32.8375524">
<ele>1311.62</ele>
<time>2015-04-29T09:29:11Z</time>
</trkpt>
<trkpt lat="34.9117966" lon="32.8374950">
<ele>1313.23</ele>
<time>2015-04-29T09:29:13Z</time>
</trkpt>
<trkpt lat="34.9117763" lon="32.8374215">
<ele>1313.88</ele>
<time>2015-04-29T09:29:15Z</time>
</trkpt>
<trkpt lat="34.9117559" lon="32.8373562">
<ele>1313.79</ele>
<time>2015-04-29T09:29:17Z</time>
</trkpt>
<trkpt lat="34.9117209" lon="32.8372884">
<ele>1314.77</ele>
<time>2015-04-29T09:29:19Z</time>
</trkpt>
<trkpt lat="34.9116906" lon="32.8372162">
<ele>1315.26</ele>
<time>2015-04-29T09:29:21Z</time>
</trkpt>
<trkpt lat="34.9116482" lon="32.8371526">
<ele>1316.64</ele>
<time>2015-04-29T09:29:23Z</time>
</trkpt>
<trkpt lat="34.9115807" lon="32.8370959">
<ele>1319.48</ele>
<time>2015-04-29T09:29:25Z</time>
</trkpt>
<trkpt lat="34.9115050" lon="32.8370858">
<ele>1321.12</ele>
<time>2015-04-29T09:29:26Z</time>
</trkpt>
<trkpt lat="34.9114268" lon="32.8370581">
<ele>1322.85</ele>
<time>2015-04-29T09:29:28Z</time>
</trkpt>
<trkpt lat="34.9113590" lon="32.8370418">
<ele>1322.28</ele>
<time>2015-04-29T09:29:30Z</time>
</trkpt>
<trkpt lat="34.9113002" lon="32.8370394">
<ele>1321.39</ele>
<time>2015-04-29T09:29:32Z</time>
</trkpt>
<trkpt lat="34.9112430" lon="32.8370495">
<ele>1319.67</ele>
<time>2015-04-29T09:29:34Z</time>
</trkpt>
<trkpt lat="34.9111975" lon="32.8370810">
<ele>1317.74</ele>
<time>2015-04-29T09:29:36Z</time>
</trkpt>
<trkpt lat="34.9111429" lon="32.8371197">
<ele>1317.50</ele>
<time>2015-04-29T09:29:38Z</time>
</trkpt>
<trkpt lat="34.9110886" lon="32.8371729">
<ele>1317.70</ele>
<time>2015-04-29T09:29:40Z</time>
</trkpt>
<trkpt lat="34.9110226" lon="32.8372230">
<ele>1318.49</ele>
<time>2015-04-29T09:29:42Z</time>
</trkpt>
<trkpt lat="34.9109425" lon="32.8372520">
<ele>1317.19</ele>
<time>2015-04-29T09:29:44Z</time>
</trkpt>
<trkpt lat="34.9108573" lon="32.8372671">
<ele>1317.12</ele>
<time>2015-04-29T09:29:46Z</time>
</trkpt>
<trkpt lat="34.9107327" lon="32.8372971">
<ele>1317.10</ele>
<time>2015-04-29T09:29:48Z</time>
</trkpt>
<trkpt lat="34.9106818" lon="32.8373030">
<ele>1316.43</ele>
<time>2015-04-29T09:29:49Z</time>
</trkpt>
<trkpt lat="34.9106365" lon="32.8372989">
<ele>1315.09</ele>
<time>2015-04-29T09:29:50Z</time>
</trkpt>
<trkpt lat="34.9105837" lon="32.8372830">
<ele>1314.43</ele>
<time>2015-04-29T09:29:51Z</time>
</trkpt>
<trkpt lat="34.9105235" lon="32.8372756">
<ele>1314.59</ele>
<time>2015-04-29T09:29:52Z</time>
</trkpt>
<trkpt lat="34.9104582" lon="32.8372767">
<ele>1313.68</ele>
<time>2015-04-29T09:29:53Z</time>
</trkpt>
<trkpt lat="34.9104028" lon="32.8372673">
<ele>1312.72</ele>
<time>2015-04-29T09:29:54Z</time>
</trkpt>
<trkpt lat="34.9103397" lon="32.8372822">
<ele>1312.24</ele>
<time>2015-04-29T09:29:55Z</time>
</trkpt>
<trkpt lat="34.9102821" lon="32.8373069">
<ele>1311.50</ele>
<time>2015-04-29T09:29:56Z</time>
</trkpt>
<trkpt lat="34.9102182" lon="32.8373395">
<ele>1311.63</ele>
<time>2015-04-29T09:29:57Z</time>
</trkpt>
<trkpt lat="34.9101599" lon="32.8373730">
<ele>1311.19</ele>
<time>2015-04-29T09:29:58Z</time>
</trkpt>
<trkpt lat="34.9100998" lon="32.8374035">
<ele>1310.98</ele>
<time>2015-04-29T09:29:59Z</time>
</trkpt>
<trkpt lat="34.9100694" lon="32.8374554">
<ele>1309.87</ele>
<time>2015-04-29T09:30:00Z</time>
</trkpt>
<trkpt lat="34.9100180" lon="32.8374896">
<ele>1308.31</ele>
<time>2015-04-29T09:30:01Z</time>
</trkpt>
<trkpt lat="34.9099515" lon="32.8375258">
<ele>1307.04</ele>
<time>2015-04-29T09:30:02Z</time>
</trkpt>
<trkpt lat="34.9098940" lon="32.8375522">
<ele>1305.90</ele>
<time>2015-04-29T09:30:03Z</time>
</trkpt>
<trkpt lat="34.9098276" lon="32.8375947">
<ele>1305.33</ele>
<time>2015-04-29T09:30:04Z</time>
</trkpt>
<trkpt lat="34.9097603" lon="32.8376350">
<ele>1305.04</ele>
<time>2015-04-29T09:30:05Z</time>
</trkpt>
<trkpt lat="34.9096967" lon="32.8376635">
<ele>1304.40</ele>
<time>2015-04-29T09:30:06Z</time>
</trkpt>
<trkpt lat="34.9096237" lon="32.8376880">
<ele>1304.08</ele>
<time>2015-04-29T09:30:07Z</time>
</trkpt>
<trkpt lat="34.9095607" lon="32.8377225">
<ele>1305.42</ele>
<time>2015-04-29T09:30:08Z</time>
</trkpt>
<trkpt lat="34.9095075" lon="32.8377425">
<ele>1305.59</ele>
<time>2015-04-29T09:30:09Z</time>
</trkpt>
<trkpt lat="34.9094485" lon="32.8377659">
<ele>1305.68</ele>
<time>2015-04-29T09:30:10Z</time>
</trkpt>
<trkpt lat="34.9093881" lon="32.8377711">
<ele>1306.22</ele>
<time>2015-04-29T09:30:11Z</time>
</trkpt>
<trkpt lat="34.9093285" lon="32.8377747">
<ele>1305.99</ele>
<time>2015-04-29T09:30:12Z</time>
</trkpt>
<trkpt lat="34.9092479" lon="32.8377762">
<ele>1306.57</ele>
<time>2015-04-29T09:30:14Z</time>
</trkpt>
<trkpt lat="34.9092006" lon="32.8377656">
<ele>1306.49</ele>
<time>2015-04-29T09:30:17Z</time>
</trkpt>
<trkpt lat="34.9091628" lon="32.8377329">
<ele>1305.01</ele>
<time>2015-04-29T09:30:33Z</time>
</trkpt>
<trkpt lat="34.9091962" lon="32.8376897">
<ele>1297.20</ele>
<time>2015-04-29T09:31:21Z</time>
</trkpt>
<trkpt lat="34.9091562" lon="32.8376328">
<ele>1296.27</ele>
<time>2015-04-29T09:31:28Z</time>
</trkpt>
<trkpt lat="34.9091082" lon="32.8375881">
<ele>1295.64</ele>
<time>2015-04-29T09:31:30Z</time>
</trkpt>
<trkpt lat="34.9090364" lon="32.8375310">
<ele>1294.98</ele>
<time>2015-04-29T09:31:32Z</time>
</trkpt>
<trkpt lat="34.9089656" lon="32.8374876">
<ele>1294.87</ele>
<time>2015-04-29T09:31:33Z</time>
</trkpt>
<trkpt lat="34.9089202" lon="32.8374613">
<ele>1294.81</ele>
<time>2015-04-29T09:31:34Z</time>
</trkpt>
<trkpt lat="34.9088839" lon="32.8374256">
<ele>1294.79</ele>
<time>2015-04-29T09:31:35Z</time>
</trkpt>
<trkpt lat="34.9088458" lon="32.8373858">
<ele>1294.27</ele>
<time>2015-04-29T09:31:36Z</time>
</trkpt>
<trkpt lat="34.9088023" lon="32.8372927">
<ele>1293.39</ele>
<time>2015-04-29T09:31:38Z</time>
</trkpt>
<trkpt lat="34.9087989" lon="32.8372355">
<ele>1293.07</ele>
<time>2015-04-29T09:31:39Z</time>
</trkpt>
<trkpt lat="34.9088009" lon="32.8371725">
<ele>1292.92</ele>
<time>2015-04-29T09:31:40Z</time>
</trkpt>
<trkpt lat="34.9088044" lon="32.8371156">
<ele>1292.84</ele>
<time>2015-04-29T09:31:41Z</time>
</trkpt>
<trkpt lat="34.9087982" lon="32.8370550">
<ele>1293.30</ele>
<time>2015-04-29T09:31:42Z</time>
</trkpt>
<trkpt lat="34.9088044" lon="32.8369958">
<ele>1293.03</ele>
<time>2015-04-29T09:31:43Z</time>
</trkpt>
<trkpt lat="34.9087984" lon="32.8369295">
<ele>1292.39</ele>
<time>2015-04-29T09:31:44Z</time>
</trkpt>
<trkpt lat="34.9087831" lon="32.8368662">
<ele>1292.08</ele>
<time>2015-04-29T09:31:45Z</time>
</trkpt>
<trkpt lat="34.9087740" lon="32.8367964">
<ele>1291.42</ele>
<time>2015-04-29T09:31:46Z</time>
</trkpt>
<trkpt lat="34.9087534" lon="32.8367249">
<ele>1291.09</ele>
<time>2015-04-29T09:31:47Z</time>
</trkpt>
<trkpt lat="34.9087156" lon="32.8366542">
<ele>1291.42</ele>
<time>2015-04-29T09:31:48Z</time>
</trkpt>
<trkpt lat="34.9086894" lon="32.8365824">
<ele>1291.59</ele>
<time>2015-04-29T09:31:49Z</time>
</trkpt>
<trkpt lat="34.9086715" lon="32.8365137">
<ele>1291.68</ele>
<time>2015-04-29T09:31:50Z</time>
</trkpt>
<trkpt lat="34.9086531" lon="32.8364410">
<ele>1291.22</ele>
<time>2015-04-29T09:31:51Z</time>
</trkpt>
<trkpt lat="34.9086403" lon="32.8363610">
<ele>1290.99</ele>
<time>2015-04-29T09:31:52Z</time>
</trkpt>
<trkpt lat="34.9086264" lon="32.8362887">
<ele>1290.37</ele>
<time>2015-04-29T09:31:53Z</time>
</trkpt>
<trkpt lat="34.9086121" lon="32.8362146">
<ele>1290.57</ele>
<time>2015-04-29T09:31:54Z</time>
</trkpt>
<trkpt lat="34.9086290" lon="32.8361348">
<ele>1290.66</ele>
<time>2015-04-29T09:31:55Z</time>
</trkpt>
<trkpt lat="34.9086538" lon="32.8360754">
<ele>1290.21</ele>
<time>2015-04-29T09:31:56Z</time>
</trkpt>
<trkpt lat="34.9086674" lon="32.8360150">
<ele>1288.99</ele>
<time>2015-04-29T09:31:57Z</time>
</trkpt>
<trkpt lat="34.9086774" lon="32.8359546">
<ele>1288.37</ele>
<time>2015-04-29T09:31:58Z</time>
</trkpt>
<trkpt lat="34.9086828" lon="32.8358912">
<ele>1287.57</ele>
<time>2015-04-29T09:31:59Z</time>
</trkpt>
<trkpt lat="34.9086691" lon="32.8357934">
<ele>1286.46</ele>
<time>2015-04-29T09:32:01Z</time>
</trkpt>
<trkpt lat="34.9085948" lon="32.8357267">
<ele>1285.44</ele>
<time>2015-04-29T09:32:03Z</time>
</trkpt>
<trkpt lat="34.9085402" lon="32.8357033">
<ele>1284.10</ele>
<time>2015-04-29T09:32:04Z</time>
</trkpt>
<trkpt lat="34.9084849" lon="32.8356882">
<ele>1282.93</ele>
<time>2015-04-29T09:32:05Z</time>
</trkpt>
<trkpt lat="34.9084326" lon="32.8356786">
<ele>1282.34</ele>
<time>2015-04-29T09:32:06Z</time>
</trkpt>
<trkpt lat="34.9083812" lon="32.8356680">
<ele>1282.55</ele>
<time>2015-04-29T09:32:07Z</time>
</trkpt>
<trkpt lat="34.9083276" lon="32.8356613">
<ele>1282.16</ele>
<time>2015-04-29T09:32:08Z</time>
</trkpt>
<trkpt lat="34.9082748" lon="32.8356400">
<ele>1282.46</ele>
<time>2015-04-29T09:32:09Z</time>
</trkpt>
<trkpt lat="34.9082307" lon="32.8356085">
<ele>1282.11</ele>
<time>2015-04-29T09:32:10Z</time>
</trkpt>
<trkpt lat="34.9081913" lon="32.8355814">
<ele>1282.43</ele>
<time>2015-04-29T09:32:11Z</time>
</trkpt>
<trkpt lat="34.9081491" lon="32.8355426">
<ele>1282.10</ele>
<time>2015-04-29T09:32:12Z</time>
</trkpt>
<trkpt lat="34.9080991" lon="32.8354979">
<ele>1281.93</ele>
<time>2015-04-29T09:32:13Z</time>
</trkpt>
<trkpt lat="34.9080489" lon="32.8354687">
<ele>1281.84</ele>
<time>2015-04-29T09:32:14Z</time>
</trkpt>
<trkpt lat="34.9079973" lon="32.8354448">
<ele>1281.80</ele>
<time>2015-04-29T09:32:15Z</time>
</trkpt>
<trkpt lat="34.9079509" lon="32.8354032">
<ele>1281.28</ele>
<time>2015-04-29T09:32:16Z</time>
</trkpt>
<trkpt lat="34.9079043" lon="32.8353738">
<ele>1281.02</ele>
<time>2015-04-29T09:32:17Z</time>
</trkpt>
<trkpt lat="34.9078617" lon="32.8353310">
<ele>1280.89</ele>
<time>2015-04-29T09:32:18Z</time>
</trkpt>
<trkpt lat="34.9078147" lon="32.8352862">
<ele>1281.33</ele>
<time>2015-04-29T09:32:19Z</time>
</trkpt>
<trkpt lat="34.9077767" lon="32.8352260">
<ele>1281.04</ele>
<time>2015-04-29T09:32:20Z</time>
</trkpt>
<trkpt lat="34.9077354" lon="32.8351780">
<ele>1279.90</ele>
<time>2015-04-29T09:32:21Z</time>
</trkpt>
<trkpt lat="34.9076800" lon="32.8351506">
<ele>1279.83</ele>
<time>2015-04-29T09:32:22Z</time>
</trkpt>
<trkpt lat="34.9076273" lon="32.8351197">
<ele>1279.80</ele>
<time>2015-04-29T09:32:23Z</time>
</trkpt>
<trkpt lat="34.9075780" lon="32.8350754">
<ele>1279.28</ele>
<time>2015-04-29T09:32:24Z</time>
</trkpt>
<trkpt lat="34.9075430" lon="32.8350279">
<ele>1278.02</ele>
<time>2015-04-29T09:32:25Z</time>
</trkpt>
<trkpt lat="34.9075093" lon="32.8349696">
<ele>1276.39</ele>
<time>2015-04-29T09:32:26Z</time>
</trkpt>
<trkpt lat="34.9074789" lon="32.8349208">
<ele>1275.57</ele>
<time>2015-04-29T09:32:27Z</time>
</trkpt>
<trkpt lat="34.9074580" lon="32.8348623">
<ele>1275.17</ele>
<time>2015-04-29T09:32:28Z</time>
</trkpt>
<trkpt lat="34.9074532" lon="32.8348057">
<ele>1274.46</ele>
<time>2015-04-29T09:32:29Z</time>
</trkpt>
<trkpt lat="34.9074480" lon="32.8347406">
<ele>1274.61</ele>
<time>2015-04-29T09:32:30Z</time>
</trkpt>
<trkpt lat="34.9074362" lon="32.8346675">
<ele>1274.19</ele>
<time>2015-04-29T09:32:31Z</time>
</trkpt>
<trkpt lat="34.9074175" lon="32.8345896">
<ele>1273.97</ele>
<time>2015-04-29T09:32:32Z</time>
</trkpt>
<trkpt lat="34.9073967" lon="32.8345095">
<ele>1273.37</ele>
<time>2015-04-29T09:32:33Z</time>
</trkpt>
<trkpt lat="34.9073890" lon="32.8344214">
<ele>1272.56</ele>
<time>2015-04-29T09:32:34Z</time>
</trkpt>
<trkpt lat="34.9073918" lon="32.8343450">
<ele>1272.16</ele>
<time>2015-04-29T09:32:35Z</time>
</trkpt>
<trkpt lat="34.9074075" lon="32.8342634">
<ele>1271.96</ele>
<time>2015-04-29T09:32:36Z</time>
</trkpt>
<trkpt lat="34.9074301" lon="32.8341875">
<ele>1271.36</ele>
<time>2015-04-29T09:32:37Z</time>
</trkpt>
<trkpt lat="34.9074473" lon="32.8341082">
<ele>1270.56</ele>
<time>2015-04-29T09:32:38Z</time>
</trkpt>
<trkpt lat="34.9074744" lon="32.8340439">
<ele>1269.16</ele>
<time>2015-04-29T09:32:39Z</time>
</trkpt>
<trkpt lat="34.9074864" lon="32.8339891">
<ele>1267.96</ele>
<time>2015-04-29T09:32:40Z</time>
</trkpt>
<trkpt lat="34.9074934" lon="32.8338902">
<ele>1267.81</ele>
<time>2015-04-29T09:32:42Z</time>
</trkpt>
<trkpt lat="34.9074810" lon="32.8337741">
<ele>1267.02</ele>
<time>2015-04-29T09:32:44Z</time>
</trkpt>
<trkpt lat="34.9074753" lon="32.8337127">
<ele>1266.39</ele>
<time>2015-04-29T09:32:45Z</time>
</trkpt>
<trkpt lat="34.9074618" lon="32.8336472">
<ele>1265.58</ele>
<time>2015-04-29T09:32:46Z</time>
</trkpt>
<trkpt lat="34.9074352" lon="32.8335734">
<ele>1264.67</ele>
<time>2015-04-29T09:32:47Z</time>
</trkpt>
<trkpt lat="34.9073970" lon="32.8335018">
<ele>1263.71</ele>
<time>2015-04-29T09:32:48Z</time>
</trkpt>
<trkpt lat="34.9073568" lon="32.8334409">
<ele>1262.74</ele>
<time>2015-04-29T09:32:49Z</time>
</trkpt>
<trkpt lat="34.9073101" lon="32.8333938">
<ele>1262.25</ele>
<time>2015-04-29T09:32:50Z</time>
</trkpt>
<trkpt lat="34.9072676" lon="32.8333320">
<ele>1262.00</ele>
<time>2015-04-29T09:32:51Z</time>
</trkpt>
<trkpt lat="34.9072434" lon="32.8332723">
<ele>1261.88</ele>
<time>2015-04-29T09:32:52Z</time>
</trkpt>
<trkpt lat="34.9072318" lon="32.8332080">
<ele>1261.32</ele>
<time>2015-04-29T09:32:53Z</time>
</trkpt>
<trkpt lat="34.9072304" lon="32.8331376">
<ele>1261.04</ele>
<time>2015-04-29T09:32:54Z</time>
</trkpt>
<trkpt lat="34.9072341" lon="32.8330692">
<ele>1260.40</ele>
<time>2015-04-29T09:32:55Z</time>
</trkpt>
<trkpt lat="34.9072588" lon="32.8330035">
<ele>1259.58</ele>
<time>2015-04-29T09:32:56Z</time>
</trkpt>
<trkpt lat="34.9072956" lon="32.8329458">
<ele>1259.17</ele>
<time>2015-04-29T09:32:57Z</time>
</trkpt>
<trkpt lat="34.9073240" lon="32.8328845">
<ele>1258.97</ele>
<time>2015-04-29T09:32:58Z</time>
</trkpt>
<trkpt lat="34.9073386" lon="32.8328188">
<ele>1258.36</ele>
<time>2015-04-29T09:32:59Z</time>
</trkpt>
<trkpt lat="34.9073345" lon="32.8327384">
<ele>1258.06</ele>
<time>2015-04-29T09:33:00Z</time>
</trkpt>
<trkpt lat="34.9073243" lon="32.8326759">
<ele>1257.91</ele>
<time>2015-04-29T09:33:01Z</time>
</trkpt>
<trkpt lat="34.9072655" lon="32.8325988">
<ele>1256.80</ele>
<time>2015-04-29T09:33:03Z</time>
</trkpt>
<trkpt lat="34.9071885" lon="32.8325586">
<ele>1256.28</ele>
<time>2015-04-29T09:33:04Z</time>
</trkpt>
<trkpt lat="34.9071386" lon="32.8325183">
<ele>1255.02</ele>
<time>2015-04-29T09:33:05Z</time>
</trkpt>
<trkpt lat="34.9070752" lon="32.8324840">
<ele>1254.39</ele>
<time>2015-04-29T09:33:06Z</time>
</trkpt>
<trkpt lat="34.9070210" lon="32.8324645">
<ele>1253.57</ele>
<time>2015-04-29T09:33:07Z</time>
</trkpt>
<trkpt lat="34.9069298" lon="32.8324138">
<ele>1253.21</ele>
<time>2015-04-29T09:33:09Z</time>
</trkpt>
<trkpt lat="34.9068856" lon="32.8323867">
<ele>1253.49</ele>
<time>2015-04-29T09:33:10Z</time>
</trkpt>
<trkpt lat="34.9068464" lon="32.8323533">
<ele>1253.12</ele>
<time>2015-04-29T09:33:11Z</time>
</trkpt>
<trkpt lat="34.9068280" lon="32.8322808">
<ele>1253.10</ele>
<time>2015-04-29T09:33:13Z</time>
</trkpt>
<trkpt lat="34.9068410" lon="32.8322018">
<ele>1249.84</ele>
<time>2015-04-29T09:33:17Z</time>
</trkpt>
<trkpt lat="34.9068856" lon="32.8321602">
<ele>1249.08</ele>
<time>2015-04-29T09:33:21Z</time>
</trkpt>
<trkpt lat="34.9069477" lon="32.8320964">
<ele>1247.17</ele>
<time>2015-04-29T09:33:24Z</time>
</trkpt>
<trkpt lat="34.9070070" lon="32.8320266">
<ele>1246.61</ele>
<time>2015-04-29T09:33:26Z</time>
</trkpt>
<trkpt lat="34.9070654" lon="32.8319437">
<ele>1244.97</ele>
<time>2015-04-29T09:33:28Z</time>
</trkpt>
<trkpt lat="34.9071208" lon="32.8318602">
<ele>1243.31</ele>
<time>2015-04-29T09:33:30Z</time>
</trkpt>
<trkpt lat="34.9071878" lon="32.8318041">
<ele>1241.65</ele>
<time>2015-04-29T09:33:32Z</time>
</trkpt>
<trkpt lat="34.9072659" lon="32.8317912">
<ele>1240.98</ele>
<time>2015-04-29T09:33:34Z</time>
</trkpt>
<trkpt lat="34.9073335" lon="32.8317936">
<ele>1241.32</ele>
<time>2015-04-29T09:33:36Z</time>
</trkpt>
<trkpt lat="34.9073921" lon="32.8317843">
<ele>1241.58</ele>
<time>2015-04-29T09:33:39Z</time>
</trkpt>
<trkpt lat="34.9074411" lon="32.8317599">
<ele>1241.36</ele>
<time>2015-04-29T09:33:42Z</time>
</trkpt>
<trkpt lat="34.9074909" lon="32.8317318">
<ele>1243.09</ele>
<time>2015-04-29T09:33:45Z</time>
</trkpt>
<trkpt lat="34.9075360" lon="32.8316938">
<ele>1241.91</ele>
<time>2015-04-29T09:33:49Z</time>
</trkpt>
<trkpt lat="34.9075823" lon="32.8316625">
<ele>1239.52</ele>
<time>2015-04-29T09:33:53Z</time>
</trkpt>
<trkpt lat="34.9076223" lon="32.8316148">
<ele>1238.85</ele>
<time>2015-04-29T09:33:56Z</time>
</trkpt>
<trkpt lat="34.9077008" lon="32.8315328">
<ele>1237.53</ele>
<time>2015-04-29T09:33:58Z</time>
</trkpt>
<trkpt lat="34.9077411" lon="32.8314975">
<ele>1237.65</ele>
<time>2015-04-29T09:33:59Z</time>
</trkpt>
<trkpt lat="34.9077830" lon="32.8314648">
<ele>1237.70</ele>
<time>2015-04-29T09:34:00Z</time>
</trkpt>
<trkpt lat="34.9078232" lon="32.8314287">
<ele>1238.23</ele>
<time>2015-04-29T09:34:01Z</time>
</trkpt>
<trkpt lat="34.9078672" lon="32.8314009">
<ele>1238.00</ele>
<time>2015-04-29T09:34:02Z</time>
</trkpt>
<trkpt lat="34.9079209" lon="32.8313682">
<ele>1237.88</ele>
<time>2015-04-29T09:34:03Z</time>
</trkpt>
<trkpt lat="34.9079865" lon="32.8313441">
<ele>1236.82</ele>
<time>2015-04-29T09:34:04Z</time>
</trkpt>
<trkpt lat="34.9080531" lon="32.8313268">
<ele>1235.79</ele>
<time>2015-04-29T09:34:05Z</time>
</trkpt>
<trkpt lat="34.9081192" lon="32.8312982">
<ele>1235.77</ele>
<time>2015-04-29T09:34:06Z</time>
</trkpt>
<trkpt lat="34.9081798" lon="32.8312820">
<ele>1235.27</ele>
<time>2015-04-29T09:34:07Z</time>
</trkpt>
<trkpt lat="34.9082478" lon="32.8312826">
<ele>1234.51</ele>
<time>2015-04-29T09:34:08Z</time>
</trkpt>
<trkpt lat="34.9083025" lon="32.8312723">
<ele>1233.64</ele>
<time>2015-04-29T09:34:09Z</time>
</trkpt>
<trkpt lat="34.9083559" lon="32.8312578">
<ele>1233.20</ele>
<time>2015-04-29T09:34:10Z</time>
</trkpt>
<trkpt lat="34.9084293" lon="32.8312373">
<ele>1232.62</ele>
<time>2015-04-29T09:34:12Z</time>
</trkpt>
<trkpt lat="34.9084777" lon="32.8311675">
<ele>1232.97</ele>
<time>2015-04-29T09:34:14Z</time>
</trkpt>
<trkpt lat="34.9085131" lon="32.8310860">
<ele>1231.06</ele>
<time>2015-04-29T09:34:16Z</time>
</trkpt>
<trkpt lat="34.9084783" lon="32.8309818">
<ele>1230.09</ele>
<time>2015-04-29T09:34:18Z</time>
</trkpt>
<trkpt lat="34.9084445" lon="32.8309355">
<ele>1229.92</ele>
<time>2015-04-29T09:34:19Z</time>
</trkpt>
<trkpt lat="34.9083985" lon="32.8308894">
<ele>1229.84</ele>
<time>2015-04-29T09:34:20Z</time>
</trkpt>
<trkpt lat="34.9083466" lon="32.8308492">
<ele>1229.80</ele>
<time>2015-04-29T09:34:21Z</time>
</trkpt>
<trkpt lat="34.9082951" lon="32.8308120">
<ele>1229.28</ele>
<time>2015-04-29T09:34:22Z</time>
</trkpt>
<trkpt lat="34.9082478" lon="32.8307781">
<ele>1228.52</ele>
<time>2015-04-29T09:34:23Z</time>
</trkpt>
<trkpt lat="34.9082035" lon="32.8307314">
<ele>1227.64</ele>
<time>2015-04-29T09:34:24Z</time>
</trkpt>
<trkpt lat="34.9081619" lon="32.8306808">
<ele>1226.70</ele>
<time>2015-04-29T09:34:25Z</time>
</trkpt>
<trkpt lat="34.9081208" lon="32.8306254">
<ele>1225.73</ele>
<time>2015-04-29T09:34:26Z</time>
</trkpt>
<trkpt lat="34.9080897" lon="32.8305734">
<ele>1225.24</ele>
<time>2015-04-29T09:34:27Z</time>
</trkpt>
<trkpt lat="34.9080504" lon="32.8305319">
<ele>1225.50</ele>
<time>2015-04-29T09:34:28Z</time>
</trkpt>
<trkpt lat="34.9080140" lon="32.8304426">
<ele>1224.95</ele>
<time>2015-04-29T09:34:30Z</time>
</trkpt>
<trkpt lat="34.9079977" lon="32.8303479">
<ele>1223.56</ele>
<time>2015-04-29T09:34:32Z</time>
</trkpt>
<trkpt lat="34.9079992" lon="32.8302530">
<ele>1222.96</ele>
<time>2015-04-29T09:34:34Z</time>
</trkpt>
<trkpt lat="34.9080261" lon="32.8301680">
<ele>1221.56</ele>
<time>2015-04-29T09:34:36Z</time>
</trkpt>
<trkpt lat="34.9080571" lon="32.8300663">
<ele>1219.71</ele>
<time>2015-04-29T09:34:38Z</time>
</trkpt>
<trkpt lat="34.9080765" lon="32.8300034">
<ele>1219.23</ele>
<time>2015-04-29T09:34:39Z</time>
</trkpt>
<trkpt lat="34.9080952" lon="32.8299340">
<ele>1219.00</ele>
<time>2015-04-29T09:34:40Z</time>
</trkpt>
<trkpt lat="34.9081283" lon="32.8298566">
<ele>1218.88</ele>
<time>2015-04-29T09:34:41Z</time>
</trkpt>
<trkpt lat="34.9081724" lon="32.8297753">
<ele>1217.82</ele>
<time>2015-04-29T09:34:42Z</time>
</trkpt>
<trkpt lat="34.9082114" lon="32.8297006">
<ele>1217.29</ele>
<time>2015-04-29T09:34:43Z</time>
</trkpt>
<trkpt lat="34.9082607" lon="32.8296198">
<ele>1216.52</ele>
<time>2015-04-29T09:34:44Z</time>
</trkpt>
<trkpt lat="34.9083150" lon="32.8295356">
<ele>1216.14</ele>
<time>2015-04-29T09:34:45Z</time>
</trkpt>
<trkpt lat="34.9083724" lon="32.8294520">
<ele>1215.45</ele>
<time>2015-04-29T09:34:46Z</time>
</trkpt>
<trkpt lat="34.9084300" lon="32.8293595">
<ele>1215.11</ele>
<time>2015-04-29T09:34:47Z</time>
</trkpt>
<trkpt lat="34.9084908" lon="32.8292652">
<ele>1214.43</ele>
<time>2015-04-29T09:34:48Z</time>
</trkpt>
<trkpt lat="34.9085430" lon="32.8291910">
<ele>1213.10</ele>
<time>2015-04-29T09:34:49Z</time>
</trkpt>
<trkpt lat="34.9085844" lon="32.8291162">
<ele>1212.43</ele>
<time>2015-04-29T09:34:50Z</time>
</trkpt>
<trkpt lat="34.9086134" lon="32.8290491">
<ele>1211.59</ele>
<time>2015-04-29T09:34:51Z</time>
</trkpt>
<trkpt lat="34.9086202" lon="32.8289837">
<ele>1211.18</ele>
<time>2015-04-29T09:34:52Z</time>
</trkpt>
<trkpt lat="34.9086131" lon="32.8289243">
<ele>1210.97</ele>
<time>2015-04-29T09:34:53Z</time>
</trkpt>
<trkpt lat="34.9085889" lon="32.8288645">
<ele>1210.36</ele>
<time>2015-04-29T09:34:54Z</time>
</trkpt>
<trkpt lat="34.9085409" lon="32.8288273">
<ele>1210.06</ele>
<time>2015-04-29T09:34:55Z</time>
</trkpt>
<trkpt lat="34.9084816" lon="32.8288024">
<ele>1209.91</ele>
<time>2015-04-29T09:34:56Z</time>
</trkpt>
<trkpt lat="34.9084310" lon="32.8287797">
<ele>1209.34</ele>
<time>2015-04-29T09:34:57Z</time>
</trkpt>
<trkpt lat="34.9083783" lon="32.8287425">
<ele>1208.55</ele>
<time>2015-04-29T09:34:58Z</time>
</trkpt>
<trkpt lat="34.9083392" lon="32.8287004">
<ele>1208.15</ele>
<time>2015-04-29T09:34:59Z</time>
</trkpt>
<trkpt lat="34.9083092" lon="32.8286448">
<ele>1208.46</ele>
<time>2015-04-29T09:35:00Z</time>
</trkpt>
<trkpt lat="34.9083018" lon="32.8285890">
<ele>1208.11</ele>
<time>2015-04-29T09:35:01Z</time>
</trkpt>
<trkpt lat="34.9082976" lon="32.8285310">
<ele>1207.93</ele>
<time>2015-04-29T09:35:02Z</time>
</trkpt>
<trkpt lat="34.9083011" lon="32.8284445">
<ele>1207.05</ele>
<time>2015-04-29T09:35:04Z</time>
</trkpt>
<trkpt lat="34.9082710" lon="32.8283990">
<ele>1206.05</ele>
<time>2015-04-29T09:35:07Z</time>
</trkpt>
<trkpt lat="34.9082258" lon="32.8283901">
<ele>1205.92</ele>
<time>2015-04-29T09:35:10Z</time>
</trkpt>
<trkpt lat="34.9082152" lon="32.8284502">
<ele>1205.26</ele>
<time>2015-04-29T09:35:17Z</time>
</trkpt>
<trkpt lat="34.9081994" lon="32.8285104">
<ele>1203.20</ele>
<time>2015-04-29T09:35:20Z</time>
</trkpt>
<trkpt lat="34.9081820" lon="32.8286067">
<ele>1202.37</ele>
<time>2015-04-29T09:35:22Z</time>
</trkpt>
<trkpt lat="34.9081771" lon="32.8287092">
<ele>1202.41</ele>
<time>2015-04-29T09:35:24Z</time>
</trkpt>
<trkpt lat="34.9081965" lon="32.8287946">
<ele>1201.92</ele>
<time>2015-04-29T09:35:26Z</time>
</trkpt>
<trkpt lat="34.9082325" lon="32.8288653">
<ele>1200.80</ele>
<time>2015-04-29T09:35:28Z</time>
</trkpt>
<trkpt lat="34.9082707" lon="32.8289411">
<ele>1200.02</ele>
<time>2015-04-29T09:35:30Z</time>
</trkpt>
<trkpt lat="34.9082775" lon="32.8290298">
<ele>1199.08</ele>
<time>2015-04-29T09:35:32Z</time>
</trkpt>
<trkpt lat="34.9082411" lon="32.8291151">
<ele>1197.59</ele>
<time>2015-04-29T09:35:34Z</time>
</trkpt>
<trkpt lat="34.9081441" lon="32.8292158">
<ele>1197.22</ele>
<time>2015-04-29T09:35:36Z</time>
</trkpt>
<trkpt lat="34.9080867" lon="32.8293081">
<ele>1194.87</ele>
<time>2015-04-29T09:35:38Z</time>
</trkpt>
<trkpt lat="34.9080137" lon="32.8293791">
<ele>1192.79</ele>
<time>2015-04-29T09:35:40Z</time>
</trkpt>
<trkpt lat="34.9079760" lon="32.8294138">
<ele>1192.77</ele>
<time>2015-04-29T09:35:41Z</time>
</trkpt>
<trkpt lat="34.9079179" lon="32.8294862">
<ele>1192.76</ele>
<time>2015-04-29T09:35:43Z</time>
</trkpt>
<trkpt lat="34.9078715" lon="32.8295679">
<ele>1192.76</ele>
<time>2015-04-29T09:35:45Z</time>
</trkpt>
<trkpt lat="34.9078456" lon="32.8296144">
<ele>1191.76</ele>
<time>2015-04-29T09:35:46Z</time>
</trkpt>
<trkpt lat="34.9078122" lon="32.8296598">
<ele>1190.76</ele>
<time>2015-04-29T09:35:47Z</time>
</trkpt>
<trkpt lat="34.9077663" lon="32.8297120">
<ele>1190.76</ele>
<time>2015-04-29T09:35:48Z</time>
</trkpt>
<trkpt lat="34.9077096" lon="32.8297531">
<ele>1189.76</ele>
<time>2015-04-29T09:35:49Z</time>
</trkpt>
<trkpt lat="34.9076543" lon="32.8298081">
<ele>1188.76</ele>
<time>2015-04-29T09:35:50Z</time>
</trkpt>
<trkpt lat="34.9076004" lon="32.8298475">
<ele>1187.76</ele>
<time>2015-04-29T09:35:51Z</time>
</trkpt>
<trkpt lat="34.9075543" lon="32.8298856">
<ele>1186.76</ele>
<time>2015-04-29T09:35:52Z</time>
</trkpt>
<trkpt lat="34.9075132" lon="32.8299233">
<ele>1185.26</ele>
<time>2015-04-29T09:35:53Z</time>
</trkpt>
<trkpt lat="34.9074914" lon="32.8300265">
<ele>1182.39</ele>
<time>2015-04-29T09:35:55Z</time>
</trkpt>
<trkpt lat="34.9074837" lon="32.8300831">
<ele>1181.57</ele>
<time>2015-04-29T09:35:56Z</time>
</trkpt>
<trkpt lat="34.9074848" lon="32.8301443">
<ele>1180.67</ele>
<time>2015-04-29T09:35:57Z</time>
</trkpt>
<trkpt lat="34.9074811" lon="32.8302456">
<ele>1180.24</ele>
<time>2015-04-29T09:35:59Z</time>
</trkpt>
<trkpt lat="34.9074595" lon="32.8303416">
<ele>1180.38</ele>
<time>2015-04-29T09:36:01Z</time>
</trkpt>
<trkpt lat="34.9074280" lon="32.8304150">
<ele>1180.66</ele>
<time>2015-04-29T09:36:03Z</time>
</trkpt>
<trkpt lat="34.9073717" lon="32.8304352">
<ele>1180.99</ele>
<time>2015-04-29T09:36:05Z</time>
</trkpt>
<trkpt lat="34.9072860" lon="32.8304362">
<ele>1180.82</ele>
<time>2015-04-29T09:36:07Z</time>
</trkpt>
<trkpt lat="34.9072309" lon="32.8304194">
<ele>1180.29</ele>
<time>2015-04-29T09:36:08Z</time>
</trkpt>
<trkpt lat="34.9071784" lon="32.8303966">
<ele>1180.52</ele>
<time>2015-04-29T09:36:09Z</time>
</trkpt>
<trkpt lat="34.9071264" lon="32.8303802">
<ele>1180.64</ele>
<time>2015-04-29T09:36:10Z</time>
</trkpt>
<trkpt lat="34.9070746" lon="32.8303684">
<ele>1180.20</ele>
<time>2015-04-29T09:36:11Z</time>
</trkpt>
<trkpt lat="34.9069894" lon="32.8303668">
<ele>1179.87</ele>
<time>2015-04-29T09:36:13Z</time>
</trkpt>
<trkpt lat="34.9069180" lon="32.8303895">
<ele>1178.54</ele>
<time>2015-04-29T09:36:15Z</time>
</trkpt>
<trkpt lat="34.9068378" lon="32.8304020">
<ele>1177.70</ele>
<time>2015-04-29T09:36:17Z</time>
</trkpt>
<trkpt lat="34.9067900" lon="32.8304100">
<ele>1177.73</ele>
<time>2015-04-29T09:36:18Z</time>
</trkpt>
<trkpt lat="34.9067308" lon="32.8304345">
<ele>1177.75</ele>
<time>2015-04-29T09:36:19Z</time>
</trkpt>
<trkpt lat="34.9066705" lon="32.8304562">
<ele>1177.25</ele>
<time>2015-04-29T09:36:20Z</time>
</trkpt>
<trkpt lat="34.9066178" lon="32.8304663">
<ele>1178.01</ele>
<time>2015-04-29T09:36:21Z</time>
</trkpt>
<trkpt lat="34.9065510" lon="32.8305061">
<ele>1176.88</ele>
<time>2015-04-29T09:36:22Z</time>
</trkpt>
<trkpt lat="34.9065030" lon="32.8304941">
<ele>1176.32</ele>
<time>2015-04-29T09:36:23Z</time>
</trkpt>
<trkpt lat="34.9064100" lon="32.8304551">
<ele>1173.15</ele>
<time>2015-04-29T09:36:25Z</time>
</trkpt>
<trkpt lat="34.9063687" lon="32.8304059">
<ele>1171.96</ele>
<time>2015-04-29T09:36:26Z</time>
</trkpt>
<trkpt lat="34.9063098" lon="32.8303415">
<ele>1170.86</ele>
<time>2015-04-29T09:36:27Z</time>
</trkpt>
<trkpt lat="34.9062401" lon="32.8302817">
<ele>1169.81</ele>
<time>2015-04-29T09:36:28Z</time>
</trkpt>
<trkpt lat="34.9061830" lon="32.8302169">
<ele>1169.28</ele>
<time>2015-04-29T09:36:29Z</time>
</trkpt>
<trkpt lat="34.9061061" lon="32.8301606">
<ele>1169.52</ele>
<time>2015-04-29T09:36:30Z</time>
</trkpt>
<trkpt lat="34.9060170" lon="32.8301008">
<ele>1169.14</ele>
<time>2015-04-29T09:36:31Z</time>
</trkpt>
<trkpt lat="34.9059370" lon="32.8300480">
<ele>1169.45</ele>
<time>2015-04-29T09:36:32Z</time>
</trkpt>
<trkpt lat="34.9058693" lon="32.8299973">
<ele>1168.61</ele>
<time>2015-04-29T09:36:33Z</time>
</trkpt>
<trkpt lat="34.9058121" lon="32.8299481">
<ele>1167.68</ele>
<time>2015-04-29T09:36:34Z</time>
</trkpt>
<trkpt lat="34.9057754" lon="32.8298857">
<ele>1166.22</ele>
<time>2015-04-29T09:36:35Z</time>
</trkpt>
<trkpt lat="34.9057259" lon="32.8298255">
<ele>1164.49</ele>
<time>2015-04-29T09:36:36Z</time>
</trkpt>
<trkpt lat="34.9056859" lon="32.8297742">
<ele>1163.13</ele>
<time>2015-04-29T09:36:37Z</time>
</trkpt>
<trkpt lat="34.9056109" lon="32.8297250">
<ele>1161.85</ele>
<time>2015-04-29T09:36:39Z</time>
</trkpt>
<trkpt lat="34.9055561" lon="32.8297256">
<ele>1160.53</ele>
<time>2015-04-29T09:36:41Z</time>
</trkpt>
<trkpt lat="34.9055284" lon="32.8297921">
<ele>1159.95</ele>
<time>2015-04-29T09:36:43Z</time>
</trkpt>
<trkpt lat="34.9054880" lon="32.8299012">
<ele>1159.56</ele>
<time>2015-04-29T09:36:45Z</time>
</trkpt>
<trkpt lat="34.9054623" lon="32.8299690">
<ele>1159.16</ele>
<time>2015-04-29T09:36:46Z</time>
</trkpt>
<trkpt lat="34.9054302" lon="32.8300408">
<ele>1158.46</ele>
<time>2015-04-29T09:36:47Z</time>
</trkpt>
<trkpt lat="34.9054065" lon="32.8301109">
<ele>1157.61</ele>
<time>2015-04-29T09:36:48Z</time>
</trkpt>
<trkpt lat="34.9053728" lon="32.8301844">
<ele>1156.18</ele>
<time>2015-04-29T09:36:49Z</time>
</trkpt>
<trkpt lat="34.9053427" lon="32.8302443">
<ele>1154.97</ele>
<time>2015-04-29T09:36:50Z</time>
</trkpt>
<trkpt lat="34.9053123" lon="32.8302874">
<ele>1153.87</ele>
<time>2015-04-29T09:36:51Z</time>
</trkpt>
<trkpt lat="34.9052743" lon="32.8303438">
<ele>1152.81</ele>
<time>2015-04-29T09:36:52Z</time>
</trkpt>
<trkpt lat="34.9052330" lon="32.8303947">
<ele>1151.79</ele>
<time>2015-04-29T09:36:53Z</time>
</trkpt>
<trkpt lat="34.9051923" lon="32.8304300">
<ele>1150.77</ele>
<time>2015-04-29T09:36:54Z</time>
</trkpt>
<trkpt lat="34.9051373" lon="32.8304534">
<ele>1149.77</ele>
<time>2015-04-29T09:36:55Z</time>
</trkpt>
<trkpt lat="34.9050672" lon="32.8304775">
<ele>1148.76</ele>
<time>2015-04-29T09:36:56Z</time>
</trkpt>
<trkpt lat="34.9050037" lon="32.8304971">
<ele>1147.26</ele>
<time>2015-04-29T09:36:57Z</time>
</trkpt>
<trkpt lat="34.9049425" lon="32.8305171">
<ele>1147.01</ele>
<time>2015-04-29T09:36:58Z</time>
</trkpt>
<trkpt lat="34.9048811" lon="32.8305436">
<ele>1145.89</ele>
<time>2015-04-29T09:36:59Z</time>
</trkpt>
<trkpt lat="34.9048099" lon="32.8305700">
<ele>1145.82</ele>
<time>2015-04-29T09:37:00Z</time>
</trkpt>
<trkpt lat="34.9047483" lon="32.8305999">
<ele>1145.29</ele>
<time>2015-04-29T09:37:01Z</time>
</trkpt>
<trkpt lat="34.9046850" lon="32.8306358">
<ele>1145.03</ele>
<time>2015-04-29T09:37:02Z</time>
</trkpt>
<trkpt lat="34.9046381" lon="32.8306809">
<ele>1144.39</ele>
<time>2015-04-29T09:37:03Z</time>
</trkpt>
<trkpt lat="34.9045898" lon="32.8307288">
<ele>1144.58</ele>
<time>2015-04-29T09:37:04Z</time>
</trkpt>
<trkpt lat="34.9045518" lon="32.8308057">
<ele>1143.67</ele>
<time>2015-04-29T09:37:05Z</time>
</trkpt>
<trkpt lat="34.9045327" lon="32.8308843">
<ele>1142.21</ele>
<time>2015-04-29T09:37:06Z</time>
</trkpt>
<trkpt lat="34.9045116" lon="32.8309560">
<ele>1141.49</ele>
<time>2015-04-29T09:37:07Z</time>
</trkpt>
<trkpt lat="34.9044946" lon="32.8310448">
<ele>1141.12</ele>
<time>2015-04-29T09:37:08Z</time>
</trkpt>
<trkpt lat="34.9044824" lon="32.8311291">
<ele>1140.94</ele>
<time>2015-04-29T09:37:09Z</time>
</trkpt>
<trkpt lat="34.9044470" lon="32.8312089">
<ele>1141.35</ele>
<time>2015-04-29T09:37:10Z</time>
</trkpt>
<trkpt lat="34.9043970" lon="32.8312777">
<ele>1140.56</ele>
<time>2015-04-29T09:37:11Z</time>
</trkpt>
<trkpt lat="34.9043465" lon="32.8313348">
<ele>1140.66</ele>
<time>2015-04-29T09:37:12Z</time>
</trkpt>
<trkpt lat="34.9042843" lon="32.8313693">
<ele>1140.71</ele>
<time>2015-04-29T09:37:13Z</time>
</trkpt>
<trkpt lat="34.9042343" lon="32.8314098">
<ele>1140.73</ele>
<time>2015-04-29T09:37:14Z</time>
</trkpt>
<trkpt lat="34.9041931" lon="32.8314494">
<ele>1140.75</ele>
<time>2015-04-29T09:37:15Z</time>
</trkpt>
<trkpt lat="34.9041558" lon="32.8314816">
<ele>1140.25</ele>
<time>2015-04-29T09:37:16Z</time>
</trkpt>
<trkpt lat="34.9041252" lon="32.8315305">
<ele>1140.01</ele>
<time>2015-04-29T09:37:17Z</time>
</trkpt>
<trkpt lat="34.9041090" lon="32.8315928">
<ele>1139.38</ele>
<time>2015-04-29T09:37:18Z</time>
</trkpt>
<trkpt lat="34.9040860" lon="32.8316554">
<ele>1138.07</ele>
<time>2015-04-29T09:37:19Z</time>
</trkpt>
<trkpt lat="34.9040679" lon="32.8317227">
<ele>1137.42</ele>
<time>2015-04-29T09:37:20Z</time>
</trkpt>
<trkpt lat="34.9040413" lon="32.8317955">
<ele>1137.09</ele>
<time>2015-04-29T09:37:21Z</time>
</trkpt>
<trkpt lat="34.9040244" lon="32.8318569">
<ele>1137.42</ele>
<time>2015-04-29T09:37:22Z</time>
</trkpt>
<trkpt lat="34.9040257" lon="32.8319752">
<ele>1137.18</ele>
<time>2015-04-29T09:37:24Z</time>
</trkpt>
<trkpt lat="34.9040421" lon="32.8320330">
<ele>1136.97</ele>
<time>2015-04-29T09:37:25Z</time>
</trkpt>
<trkpt lat="34.9040681" lon="32.8320900">
<ele>1136.36</ele>
<time>2015-04-29T09:37:26Z</time>
</trkpt>
<trkpt lat="34.9041004" lon="32.8321542">
<ele>1136.06</ele>
<time>2015-04-29T09:37:27Z</time>
</trkpt>
<trkpt lat="34.9041341" lon="32.8322373">
<ele>1135.41</ele>
<time>2015-04-29T09:37:28Z</time>
</trkpt>
<trkpt lat="34.9041682" lon="32.8323111">
<ele>1134.59</ele>
<time>2015-04-29T09:37:29Z</time>
</trkpt>
<trkpt lat="34.9041953" lon="32.8323754">
<ele>1133.67</ele>
<time>2015-04-29T09:37:30Z</time>
</trkpt>
<trkpt lat="34.9042242" lon="32.8324350">
<ele>1133.22</ele>
<time>2015-04-29T09:37:31Z</time>
</trkpt>
<trkpt lat="34.9042385" lon="32.8325032">
<ele>1133.49</ele>
<time>2015-04-29T09:37:32Z</time>
</trkpt>
<trkpt lat="34.9042447" lon="32.8325904">
<ele>1133.12</ele>
<time>2015-04-29T09:37:33Z</time>
</trkpt>
<trkpt lat="34.9042505" lon="32.8326722">
<ele>1132.44</ele>
<time>2015-04-29T09:37:34Z</time>
</trkpt>
<trkpt lat="34.9042602" lon="32.8327621">
<ele>1132.10</ele>
<time>2015-04-29T09:37:35Z</time>
</trkpt>
<trkpt lat="34.9042819" lon="32.8328253">
<ele>1131.43</ele>
<time>2015-04-29T09:37:36Z</time>
</trkpt>
<trkpt lat="34.9043035" lon="32.8328829">
<ele>1130.60</ele>
<time>2015-04-29T09:37:37Z</time>
</trkpt>
<trkpt lat="34.9043382" lon="32.8329254">
<ele>1130.18</ele>
<time>2015-04-29T09:37:38Z</time>
</trkpt>
<trkpt lat="34.9044084" lon="32.8329913">
<ele>1130.11</ele>
<time>2015-04-29T09:37:40Z</time>
</trkpt>
<trkpt lat="34.9044427" lon="32.8330696">
<ele>1128.35</ele>
<time>2015-04-29T09:37:42Z</time>
</trkpt>
<trkpt lat="34.9044390" lon="32.8331811">
<ele>1126.66</ele>
<time>2015-04-29T09:37:44Z</time>
</trkpt>
<trkpt lat="34.9044253" lon="32.8332339">
<ele>1126.71</ele>
<time>2015-04-29T09:37:45Z</time>
</trkpt>
<trkpt lat="34.9044338" lon="32.8333424">
<ele>1126.75</ele>
<time>2015-04-29T09:37:47Z</time>
</trkpt>
<trkpt lat="34.9044471" lon="32.8334489">
<ele>1126.01</ele>
<time>2015-04-29T09:37:49Z</time>
</trkpt>
<trkpt lat="34.9044690" lon="32.8334990">
<ele>1125.88</ele>
<time>2015-04-29T09:37:50Z</time>
</trkpt>
<trkpt lat="34.9044937" lon="32.8335541">
<ele>1126.32</ele>
<time>2015-04-29T09:37:51Z</time>
</trkpt>
<trkpt lat="34.9045213" lon="32.8336079">
<ele>1126.54</ele>
<time>2015-04-29T09:37:52Z</time>
</trkpt>
<trkpt lat="34.9045492" lon="32.8336620">
<ele>1126.65</ele>
<time>2015-04-29T09:37:53Z</time>
</trkpt>
<trkpt lat="34.9045712" lon="32.8337206">
<ele>1126.21</ele>
<time>2015-04-29T09:37:54Z</time>
</trkpt>
<trkpt lat="34.9045780" lon="32.8337855">
<ele>1126.48</ele>
<time>2015-04-29T09:37:55Z</time>
</trkpt>
<trkpt lat="34.9045688" lon="32.8338454">
<ele>1126.62</ele>
<time>2015-04-29T09:37:56Z</time>
</trkpt>
<trkpt lat="34.9045597" lon="32.8339018">
<ele>1126.69</ele>
<time>2015-04-29T09:37:57Z</time>
</trkpt>
<trkpt lat="34.9045606" lon="32.8340062">
<ele>1126.49</ele>
<time>2015-04-29T09:37:59Z</time>
</trkpt>
<trkpt lat="34.9045564" lon="32.8340695">
<ele>1126.13</ele>
<time>2015-04-29T09:38:00Z</time>
</trkpt>
<trkpt lat="34.9045574" lon="32.8341358">
<ele>1126.44</ele>
<time>2015-04-29T09:38:01Z</time>
</trkpt>
<trkpt lat="34.9045469" lon="32.8341986">
<ele>1126.68</ele>
<time>2015-04-29T09:38:03Z</time>
</trkpt>
<trkpt lat="34.9045001" lon="32.8342357">
<ele>1126.94</ele>
<time>2015-04-29T09:38:07Z</time>
</trkpt>
<trkpt lat="34.9044955" lon="32.8341800">
<ele>1130.03</ele>
<time>2015-04-29T09:45:25Z</time>
</trkpt>
<trkpt lat="34.9045348" lon="32.8341382">
<ele>1127.67</ele>
<time>2015-04-29T09:45:31Z</time>
</trkpt>
<trkpt lat="34.9045498" lon="32.8340695">
<ele>1128.44</ele>
<time>2015-04-29T09:45:35Z</time>
</trkpt>
<trkpt lat="34.9045394" lon="32.8339930">
<ele>1128.43</ele>
<time>2015-04-29T09:45:37Z</time>
</trkpt>
<trkpt lat="34.9045318" lon="32.8339140">
<ele>1128.68</ele>
<time>2015-04-29T09:45:39Z</time>
</trkpt>
<trkpt lat="34.9045385" lon="32.8338351">
<ele>1127.99</ele>
<time>2015-04-29T09:45:41Z</time>
</trkpt>
<trkpt lat="34.9045567" lon="32.8337510">
<ele>1126.57</ele>
<time>2015-04-29T09:45:43Z</time>
</trkpt>
<trkpt lat="34.9045581" lon="32.8336928">
<ele>1126.16</ele>
<time>2015-04-29T09:45:44Z</time>
</trkpt>
<trkpt lat="34.9045351" lon="32.8336063">
<ele>1125.61</ele>
<time>2015-04-29T09:45:46Z</time>
</trkpt>
<trkpt lat="34.9044971" lon="32.8335381">
<ele>1126.22</ele>
<time>2015-04-29T09:45:48Z</time>
</trkpt>
<trkpt lat="34.9044578" lon="32.8334734">
<ele>1126.63</ele>
<time>2015-04-29T09:45:50Z</time>
</trkpt>
<trkpt lat="34.9044206" lon="32.8334137">
<ele>1127.48</ele>
<time>2015-04-29T09:45:52Z</time>
</trkpt>
<trkpt lat="34.9044011" lon="32.8333620">
<ele>1127.69</ele>
<time>2015-04-29T09:45:54Z</time>
</trkpt>
<trkpt lat="34.9043976" lon="32.8332887">
<ele>1127.75</ele>
<time>2015-04-29T09:45:57Z</time>
</trkpt>
<trkpt lat="34.9044104" lon="32.8332176">
<ele>1127.76</ele>
<time>2015-04-29T09:46:00Z</time>
</trkpt>
<trkpt lat="34.9044325" lon="32.8331466">
<ele>1127.63</ele>
<time>2015-04-29T09:46:03Z</time>
</trkpt>
<trkpt lat="34.9044436" lon="32.8330663">
<ele>1128.49</ele>
<time>2015-04-29T09:46:06Z</time>
</trkpt>
<trkpt lat="34.9044415" lon="32.8330110">
<ele>1128.19</ele>
<time>2015-04-29T09:46:08Z</time>
</trkpt>
<trkpt lat="34.9044019" lon="32.8329493">
<ele>1130.06</ele>
<time>2015-04-29T09:46:11Z</time>
</trkpt>
<trkpt lat="34.9043521" lon="32.8329328">
<ele>1130.84</ele>
<time>2015-04-29T09:46:13Z</time>
</trkpt>
<trkpt lat="34.9043078" lon="32.8329006">
<ele>1130.78</ele>
<time>2015-04-29T09:46:15Z</time>
</trkpt>
<trkpt lat="34.9042779" lon="32.8328456">
<ele>1129.51</ele>
<time>2015-04-29T09:46:17Z</time>
</trkpt>
<trkpt lat="34.9042697" lon="32.8327812">
<ele>1128.45</ele>
<time>2015-04-29T09:46:19Z</time>
</trkpt>
<trkpt lat="34.9042664" lon="32.8327100">
<ele>1128.68</ele>
<time>2015-04-29T09:46:21Z</time>
</trkpt>
<trkpt lat="34.9042652" lon="32.8326386">
<ele>1128.74</ele>
<time>2015-04-29T09:46:23Z</time>
</trkpt>
<trkpt lat="34.9042639" lon="32.8325716">
<ele>1130.01</ele>
<time>2015-04-29T09:46:25Z</time>
</trkpt>
<trkpt lat="34.9042560" lon="32.8325071">
<ele>1130.82</ele>
<time>2015-04-29T09:46:27Z</time>
</trkpt>
<trkpt lat="34.9042478" lon="32.8324466">
<ele>1131.53</ele>
<time>2015-04-29T09:46:29Z</time>
</trkpt>
<trkpt lat="34.9042376" lon="32.8323754">
<ele>1130.98</ele>
<time>2015-04-29T09:46:32Z</time>
</trkpt>
<trkpt lat="34.9042242" lon="32.8323060">
<ele>1129.40</ele>
<time>2015-04-29T09:46:36Z</time>
</trkpt>
<trkpt lat="34.9042073" lon="32.8322509">
<ele>1128.84</ele>
<time>2015-04-29T09:46:39Z</time>
</trkpt>
<trkpt lat="34.9041779" lon="32.8321948">
<ele>1128.65</ele>
<time>2015-04-29T09:46:42Z</time>
</trkpt>
<trkpt lat="34.9041432" lon="32.8321384">
<ele>1129.62</ele>
<time>2015-04-29T09:46:45Z</time>
</trkpt>
<trkpt lat="34.9041207" lon="32.8320719">
<ele>1129.24</ele>
<time>2015-04-29T09:46:48Z</time>
</trkpt>
<trkpt lat="34.9041024" lon="32.8320057">
<ele>1127.20</ele>
<time>2015-04-29T09:46:51Z</time>
</trkpt>
<trkpt lat="34.9040819" lon="32.8319410">
<ele>1127.56</ele>
<time>2015-04-29T09:46:54Z</time>
</trkpt>
<trkpt lat="34.9040708" lon="32.8318765">
<ele>1128.99</ele>
<time>2015-04-29T09:46:57Z</time>
</trkpt>
<trkpt lat="34.9040756" lon="32.8318144">
<ele>1130.41</ele>
<time>2015-04-29T09:47:00Z</time>
</trkpt>
<trkpt lat="34.9040950" lon="32.8317519">
<ele>1132.47</ele>
<time>2015-04-29T09:47:03Z</time>
</trkpt>
<trkpt lat="34.9041164" lon="32.8316844">
<ele>1134.35</ele>
<time>2015-04-29T09:47:06Z</time>
</trkpt>
<trkpt lat="34.9041373" lon="32.8316195">
<ele>1135.46</ele>
<time>2015-04-29T09:47:09Z</time>
</trkpt>
<trkpt lat="34.9041629" lon="32.8315567">
<ele>1137.10</ele>
<time>2015-04-29T09:47:12Z</time>
</trkpt>
<trkpt lat="34.9041943" lon="32.8314877">
<ele>1137.68</ele>
<time>2015-04-29T09:47:15Z</time>
</trkpt>
<trkpt lat="34.9042257" lon="32.8314478">
<ele>1137.74</ele>
<time>2015-04-29T09:47:17Z</time>
</trkpt>
<trkpt lat="34.9042662" lon="32.8314171">
<ele>1138.25</ele>
<time>2015-04-29T09:47:19Z</time>
</trkpt>
<trkpt lat="34.9043114" lon="32.8313856">
<ele>1139.13</ele>
<time>2015-04-29T09:47:21Z</time>
</trkpt>
<trkpt lat="34.9043549" lon="32.8313552">
<ele>1140.35</ele>
<time>2015-04-29T09:47:23Z</time>
</trkpt>
<trkpt lat="34.9044037" lon="32.8313257">
<ele>1140.66</ele>
<time>2015-04-29T09:47:25Z</time>
</trkpt>
<trkpt lat="34.9044461" lon="32.8312805">
<ele>1141.23</ele>
<time>2015-04-29T09:47:27Z</time>
</trkpt>
<trkpt lat="34.9044754" lon="32.8312217">
<ele>1142.38</ele>
<time>2015-04-29T09:47:29Z</time>
</trkpt>
<trkpt lat="34.9044929" lon="32.8311588">
<ele>1144.16</ele>
<time>2015-04-29T09:47:31Z</time>
</trkpt>
<trkpt lat="34.9045112" lon="32.8310940">
<ele>1142.61</ele>
<time>2015-04-29T09:47:33Z</time>
</trkpt>
<trkpt lat="34.9045223" lon="32.8310305">
<ele>1142.47</ele>
<time>2015-04-29T09:47:35Z</time>
</trkpt>
<trkpt lat="34.9045318" lon="32.8309680">
<ele>1142.69</ele>
<time>2015-04-29T09:47:37Z</time>
</trkpt>
<trkpt lat="34.9045413" lon="32.8309104">
<ele>1143.49</ele>
<time>2015-04-29T09:47:39Z</time>
</trkpt>
<trkpt lat="34.9045510" lon="32.8308550">
<ele>1145.19</ele>
<time>2015-04-29T09:47:41Z</time>
</trkpt>
<trkpt lat="34.9045665" lon="32.8307754">
<ele>1146.94</ele>
<time>2015-04-29T09:47:44Z</time>
</trkpt>
<trkpt lat="34.9045826" lon="32.8307230">
<ele>1147.55</ele>
<time>2015-04-29T09:47:46Z</time>
</trkpt>
<trkpt lat="34.9046144" lon="32.8306774">
<ele>1147.46</ele>
<time>2015-04-29T09:47:48Z</time>
</trkpt>
<trkpt lat="34.9046570" lon="32.8306453">
<ele>1147.93</ele>
<time>2015-04-29T09:47:50Z</time>
</trkpt>
<trkpt lat="34.9047197" lon="32.8306231">
<ele>1147.66</ele>
<time>2015-04-29T09:47:53Z</time>
</trkpt>
<trkpt lat="34.9047756" lon="32.8305880">
<ele>1149.00</ele>
<time>2015-04-29T09:47:56Z</time>
</trkpt>
<trkpt lat="34.9048271" lon="32.8305581">
<ele>1148.41</ele>
<time>2015-04-29T09:47:59Z</time>
</trkpt>
<trkpt lat="34.9048816" lon="32.8305307">
<ele>1148.59</ele>
<time>2015-04-29T09:48:02Z</time>
</trkpt>
<trkpt lat="34.9049231" lon="32.8305084">
<ele>1148.72</ele>
<time>2015-04-29T09:48:04Z</time>
</trkpt>
<trkpt lat="34.9049674" lon="32.8304952">
<ele>1149.25</ele>
<time>2015-04-29T09:48:06Z</time>
</trkpt>
<trkpt lat="34.9050328" lon="32.8304771">
<ele>1150.07</ele>
<time>2015-04-29T09:48:09Z</time>
</trkpt>
<trkpt lat="34.9050980" lon="32.8304665">
<ele>1150.67</ele>
<time>2015-04-29T09:48:12Z</time>
</trkpt>
<trkpt lat="34.9051416" lon="32.8304518">
<ele>1150.74</ele>
<time>2015-04-29T09:48:14Z</time>
</trkpt>
<trkpt lat="34.9052017" lon="32.8304296">
<ele>1152.13</ele>
<time>2015-04-29T09:48:17Z</time>
</trkpt>
<trkpt lat="34.9052568" lon="32.8304011">
<ele>1152.18</ele>
<time>2015-04-29T09:48:20Z</time>
</trkpt>
<trkpt lat="34.9052978" lon="32.8303571">
<ele>1152.69</ele>
<time>2015-04-29T09:48:23Z</time>
</trkpt>
<trkpt lat="34.9053311" lon="32.8303023">
<ele>1154.38</ele>
<time>2015-04-29T09:48:26Z</time>
</trkpt>
<trkpt lat="34.9053501" lon="32.8302440">
<ele>1155.84</ele>
<time>2015-04-29T09:48:29Z</time>
</trkpt>
<trkpt lat="34.9053695" lon="32.8301945">
<ele>1155.27</ele>
<time>2015-04-29T09:48:32Z</time>
</trkpt>
<trkpt lat="34.9053952" lon="32.8301468">
<ele>1156.07</ele>
<time>2015-04-29T09:48:35Z</time>
</trkpt>
<trkpt lat="34.9054215" lon="32.8300906">
<ele>1156.67</ele>
<time>2015-04-29T09:48:38Z</time>
</trkpt>
<trkpt lat="34.9054468" lon="32.8300359">
<ele>1157.50</ele>
<time>2015-04-29T09:48:41Z</time>
</trkpt>
<trkpt lat="34.9054685" lon="32.8299780">
<ele>1157.85</ele>
<time>2015-04-29T09:48:44Z</time>
</trkpt>
<trkpt lat="34.9054937" lon="32.8299264">
<ele>1157.65</ele>
<time>2015-04-29T09:48:47Z</time>
</trkpt>
<trkpt lat="34.9055130" lon="32.8298666">
<ele>1158.62</ele>
<time>2015-04-29T09:48:50Z</time>
</trkpt>
<trkpt lat="34.9055279" lon="32.8298099">
<ele>1159.12</ele>
<time>2015-04-29T09:48:53Z</time>
</trkpt>
<trkpt lat="34.9055443" lon="32.8297573">
<ele>1159.93</ele>
<time>2015-04-29T09:48:56Z</time>
</trkpt>
<trkpt lat="34.9055576" lon="32.8296879">
<ele>1160.71</ele>
<time>2015-04-29T09:49:00Z</time>
</trkpt>
<trkpt lat="34.9055564" lon="32.8296224">
<ele>1161.63</ele>
<time>2015-04-29T09:49:04Z</time>
</trkpt>
<trkpt lat="34.9055583" lon="32.8295625">
<ele>1161.75</ele>
<time>2015-04-29T09:49:08Z</time>
</trkpt>
<trkpt lat="34.9055592" lon="32.8296306">
<ele>1157.96</ele>
<time>2015-04-29T09:51:48Z</time>
</trkpt>
<trkpt lat="34.9055681" lon="32.8296877">
<ele>1156.77</ele>
<time>2015-04-29T09:51:52Z</time>
</trkpt>
<trkpt lat="34.9055445" lon="32.8296322">
<ele>1161.57</ele>
<time>2015-04-29T09:52:19Z</time>
</trkpt>
<trkpt lat="34.9055883" lon="32.8295848">
<ele>1160.19</ele>
<time>2015-04-29T09:52:23Z</time>
</trkpt>
<trkpt lat="34.9056537" lon="32.8296034">
<ele>1160.19</ele>
<time>2015-04-29T09:52:26Z</time>
</trkpt>
<trkpt lat="34.9057060" lon="32.8296476">
<ele>1158.87</ele>
<time>2015-04-29T09:52:28Z</time>
</trkpt>
<trkpt lat="34.9057534" lon="32.8297079">
<ele>1157.54</ele>
<time>2015-04-29T09:52:30Z</time>
</trkpt>
<trkpt lat="34.9057898" lon="32.8297708">
<ele>1156.20</ele>
<time>2015-04-29T09:52:32Z</time>
</trkpt>
<trkpt lat="34.9058337" lon="32.8298132">
<ele>1157.37</ele>
<time>2015-04-29T09:52:34Z</time>
</trkpt>
<trkpt lat="34.9058998" lon="32.8298323">
<ele>1156.91</ele>
<time>2015-04-29T09:52:36Z</time>
</trkpt>
<trkpt lat="34.9059672" lon="32.8298458">
<ele>1156.05</ele>
<time>2015-04-29T09:52:38Z</time>
</trkpt>
<trkpt lat="34.9060667" lon="32.8298389">
<ele>1155.40</ele>
<time>2015-04-29T09:52:39Z</time>
</trkpt>
<trkpt lat="34.9061243" lon="32.8298386">
<ele>1154.58</ele>
<time>2015-04-29T09:52:40Z</time>
</trkpt>
<trkpt lat="34.9062117" lon="32.8298425">
<ele>1153.22</ele>
<time>2015-04-29T09:52:42Z</time>
</trkpt>
<trkpt lat="34.9062975" lon="32.8298192">
<ele>1152.87</ele>
<time>2015-04-29T09:52:44Z</time>
</trkpt>
<trkpt lat="34.9063422" lon="32.8298094">
<ele>1152.32</ele>
<time>2015-04-29T09:52:45Z</time>
</trkpt>
<trkpt lat="34.9064146" lon="32.8297997">
<ele>1149.15</ele>
<time>2015-04-29T09:52:47Z</time>
</trkpt>
<trkpt lat="34.9064901" lon="32.8297603">
<ele>1147.36</ele>
<time>2015-04-29T09:52:49Z</time>
</trkpt>
<trkpt lat="34.9065458" lon="32.8296881">
<ele>1146.41</ele>
<time>2015-04-29T09:52:51Z</time>
</trkpt>
<trkpt lat="34.9065713" lon="32.8295760">
<ele>1145.17</ele>
<time>2015-04-29T09:52:53Z</time>
</trkpt>
<trkpt lat="34.9065895" lon="32.8295255">
<ele>1144.97</ele>
<time>2015-04-29T09:52:54Z</time>
</trkpt>
<trkpt lat="34.9066339" lon="32.8294302">
<ele>1144.31</ele>
<time>2015-04-29T09:52:56Z</time>
</trkpt>
<trkpt lat="34.9066391" lon="32.8293213">
<ele>1143.15</ele>
<time>2015-04-29T09:52:58Z</time>
</trkpt>
<trkpt lat="34.9066302" lon="32.8292648">
<ele>1142.95</ele>
<time>2015-04-29T09:52:59Z</time>
</trkpt>
<trkpt lat="34.9066070" lon="32.8292059">
<ele>1142.36</ele>
<time>2015-04-29T09:53:00Z</time>
</trkpt>
<trkpt lat="34.9065894" lon="32.8291498">
<ele>1142.06</ele>
<time>2015-04-29T09:53:01Z</time>
</trkpt>
<trkpt lat="34.9065658" lon="32.8290842">
<ele>1142.41</ele>
<time>2015-04-29T09:53:02Z</time>
</trkpt>
<trkpt lat="34.9065456" lon="32.8290260">
<ele>1142.08</ele>
<time>2015-04-29T09:53:03Z</time>
</trkpt>
<trkpt lat="34.9065340" lon="32.8289604">
<ele>1141.92</ele>
<time>2015-04-29T09:53:04Z</time>
</trkpt>
<trkpt lat="34.9065214" lon="32.8288982">
<ele>1141.84</ele>
<time>2015-04-29T09:53:05Z</time>
</trkpt>
<trkpt lat="34.9065271" lon="32.8288329">
<ele>1141.80</ele>
<time>2015-04-29T09:53:06Z</time>
</trkpt>
<trkpt lat="34.9065521" lon="32.8287825">
<ele>1141.28</ele>
<time>2015-04-29T09:53:07Z</time>
</trkpt>
<trkpt lat="34.9065848" lon="32.8287390">
<ele>1140.02</ele>
<time>2015-04-29T09:53:08Z</time>
</trkpt>
<trkpt lat="34.9066404" lon="32.8286935">
<ele>1138.89</ele>
<time>2015-04-29T09:53:09Z</time>
</trkpt>
<trkpt lat="34.9066990" lon="32.8286469">
<ele>1138.33</ele>
<time>2015-04-29T09:53:10Z</time>
</trkpt>
<trkpt lat="34.9067610" lon="32.8286069">
<ele>1137.54</ele>
<time>2015-04-29T09:53:11Z</time>
</trkpt>
<trkpt lat="34.9068070" lon="32.8285780">
<ele>1136.15</ele>
<time>2015-04-29T09:53:12Z</time>
</trkpt>
<trkpt lat="34.9068558" lon="32.8285387">
<ele>1134.96</ele>
<time>2015-04-29T09:53:13Z</time>
</trkpt>
<trkpt lat="34.9069247" lon="32.8284755">
<ele>1132.56</ele>
<time>2015-04-29T09:53:15Z</time>
</trkpt>
<trkpt lat="34.9069462" lon="32.8283769">
<ele>1131.46</ele>
<time>2015-04-29T09:53:17Z</time>
</trkpt>
<trkpt lat="34.9069014" lon="32.8282950">
<ele>1129.93</ele>
<time>2015-04-29T09:53:19Z</time>
</trkpt>
<trkpt lat="34.9068637" lon="32.8282603">
<ele>1128.85</ele>
<time>2015-04-29T09:53:20Z</time>
</trkpt>
<trkpt lat="34.9068014" lon="32.8281815">
<ele>1128.28</ele>
<time>2015-04-29T09:53:22Z</time>
</trkpt>
<trkpt lat="34.9067874" lon="32.8281285">
<ele>1127.52</ele>
<time>2015-04-29T09:53:23Z</time>
</trkpt>
<trkpt lat="34.9067901" lon="32.8280520">
<ele>1126.95</ele>
<time>2015-04-29T09:53:25Z</time>
</trkpt>
<trkpt lat="34.9068400" lon="32.8279728">
<ele>1126.56</ele>
<time>2015-04-29T09:53:27Z</time>
</trkpt>
<trkpt lat="34.9068661" lon="32.8279245">
<ele>1127.16</ele>
<time>2015-04-29T09:53:28Z</time>
</trkpt>
<trkpt lat="34.9068872" lon="32.8278370">
<ele>1126.86</ele>
<time>2015-04-29T09:53:30Z</time>
</trkpt>
<trkpt lat="34.9068429" lon="32.8277578">
<ele>1126.28</ele>
<time>2015-04-29T09:53:32Z</time>
</trkpt>
<trkpt lat="34.9068091" lon="32.8277184">
<ele>1125.52</ele>
<time>2015-04-29T09:53:33Z</time>
</trkpt>
<trkpt lat="34.9067713" lon="32.8276748">
<ele>1124.64</ele>
<time>2015-04-29T09:53:34Z</time>
</trkpt>
<trkpt lat="34.9067374" lon="32.8276238">
<ele>1123.70</ele>
<time>2015-04-29T09:53:35Z</time>
</trkpt>
<trkpt lat="34.9066922" lon="32.8275656">
<ele>1123.23</ele>
<time>2015-04-29T09:53:36Z</time>
</trkpt>
<trkpt lat="34.9066513" lon="32.8275075">
<ele>1122.00</ele>
<time>2015-04-29T09:53:37Z</time>
</trkpt>
<trkpt lat="34.9066131" lon="32.8274454">
<ele>1121.38</ele>
<time>2015-04-29T09:53:38Z</time>
</trkpt>
<trkpt lat="34.9065775" lon="32.8273827">
<ele>1121.07</ele>
<time>2015-04-29T09:53:39Z</time>
</trkpt>
<trkpt lat="34.9065420" lon="32.8273184">
<ele>1120.41</ele>
<time>2015-04-29T09:53:40Z</time>
</trkpt>
<trkpt lat="34.9064982" lon="32.8272545">
<ele>1120.59</ele>
<time>2015-04-29T09:53:41Z</time>
</trkpt>
<trkpt lat="34.9064556" lon="32.8271978">
<ele>1120.17</ele>
<time>2015-04-29T09:53:42Z</time>
</trkpt>
<trkpt lat="34.9064182" lon="32.8271351">
<ele>1119.97</ele>
<time>2015-04-29T09:53:43Z</time>
</trkpt>
<trkpt lat="34.9063863" lon="32.8270800">
<ele>1119.36</ele>
<time>2015-04-29T09:53:44Z</time>
</trkpt>
<trkpt lat="34.9063550" lon="32.8270353">
<ele>1119.06</ele>
<time>2015-04-29T09:53:45Z</time>
</trkpt>
<trkpt lat="34.9063249" lon="32.8269277">
<ele>1118.09</ele>
<time>2015-04-29T09:53:47Z</time>
</trkpt>
<trkpt lat="34.9063117" lon="32.8268687">
<ele>1117.42</ele>
<time>2015-04-29T09:53:48Z</time>
</trkpt>
<trkpt lat="34.9063046" lon="32.8268030">
<ele>1117.59</ele>
<time>2015-04-29T09:53:49Z</time>
</trkpt>
<trkpt lat="34.9063055" lon="32.8267327">
<ele>1117.18</ele>
<time>2015-04-29T09:53:50Z</time>
</trkpt>
<trkpt lat="34.9063187" lon="32.8266688">
<ele>1116.47</ele>
<time>2015-04-29T09:53:51Z</time>
</trkpt>
<trkpt lat="34.9063256" lon="32.8266028">
<ele>1115.61</ele>
<time>2015-04-29T09:53:52Z</time>
</trkpt>
<trkpt lat="34.9063368" lon="32.8265351">
<ele>1114.69</ele>
<time>2015-04-29T09:53:53Z</time>
</trkpt>
<trkpt lat="34.9063317" lon="32.8264561">
<ele>1113.72</ele>
<time>2015-04-29T09:53:54Z</time>
</trkpt>
<trkpt lat="34.9063181" lon="32.8263813">
<ele>1113.24</ele>
<time>2015-04-29T09:53:55Z</time>
</trkpt>
<trkpt lat="34.9062992" lon="32.8263165">
<ele>1113.00</ele>
<time>2015-04-29T09:53:56Z</time>
</trkpt>
<trkpt lat="34.9062849" lon="32.8262559">
<ele>1112.38</ele>
<time>2015-04-29T09:53:57Z</time>
</trkpt>
<trkpt lat="34.9062596" lon="32.8261754">
<ele>1112.07</ele>
<time>2015-04-29T09:53:58Z</time>
</trkpt>
<trkpt lat="34.9062362" lon="32.8261030">
<ele>1112.42</ele>
<time>2015-04-29T09:53:59Z</time>
</trkpt>
<trkpt lat="34.9061780" lon="32.8260327">
<ele>1113.09</ele>
<time>2015-04-29T09:54:00Z</time>
</trkpt>
<trkpt lat="34.9061538" lon="32.8259712">
<ele>1112.92</ele>
<time>2015-04-29T09:54:01Z</time>
</trkpt>
<trkpt lat="34.9061098" lon="32.8258956">
<ele>1112.84</ele>
<time>2015-04-29T09:54:02Z</time>
</trkpt>
<trkpt lat="34.9060714" lon="32.8258330">
<ele>1112.30</ele>
<time>2015-04-29T09:54:03Z</time>
</trkpt>
<trkpt lat="34.9060262" lon="32.8257712">
<ele>1112.03</ele>
<time>2015-04-29T09:54:04Z</time>
</trkpt>
<trkpt lat="34.9059751" lon="32.8257295">
<ele>1111.40</ele>
<time>2015-04-29T09:54:05Z</time>
</trkpt>
<trkpt lat="34.9059161" lon="32.8257072">
<ele>1111.58</ele>
<time>2015-04-29T09:54:06Z</time>
</trkpt>
<trkpt lat="34.9058554" lon="32.8256946">
<ele>1111.17</ele>
<time>2015-04-29T09:54:07Z</time>
</trkpt>
<trkpt lat="34.9057811" lon="32.8256899">
<ele>1111.46</ele>
<time>2015-04-29T09:54:08Z</time>
</trkpt>
<trkpt lat="34.9057220" lon="32.8256606">
<ele>1111.61</ele>
<time>2015-04-29T09:54:09Z</time>
</trkpt>
<trkpt lat="34.9056720" lon="32.8256202">
<ele>1111.19</ele>
<time>2015-04-29T09:54:10Z</time>
</trkpt>
<trkpt lat="34.9056154" lon="32.8255894">
<ele>1110.97</ele>
<time>2015-04-29T09:54:11Z</time>
</trkpt>
<trkpt lat="34.9055556" lon="32.8255589">
<ele>1110.87</ele>
<time>2015-04-29T09:54:12Z</time>
</trkpt>
<trkpt lat="34.9054782" lon="32.8255405">
<ele>1111.31</ele>
<time>2015-04-29T09:54:13Z</time>
</trkpt>
<trkpt lat="34.9054090" lon="32.8255208">
<ele>1111.54</ele>
<time>2015-04-29T09:54:14Z</time>
</trkpt>
<trkpt lat="34.9053374" lon="32.8255153">
<ele>1111.65</ele>
<time>2015-04-29T09:54:15Z</time>
</trkpt>
<trkpt lat="34.9052838" lon="32.8255107">
<ele>1110.70</ele>
<time>2015-04-29T09:54:16Z</time>
</trkpt>
<trkpt lat="34.9052346" lon="32.8255251">
<ele>1110.23</ele>
<time>2015-04-29T09:54:17Z</time>
</trkpt>
<trkpt lat="34.9051854" lon="32.8255403">
<ele>1109.50</ele>
<time>2015-04-29T09:54:18Z</time>
</trkpt>
<trkpt lat="34.9051216" lon="32.8255394">
<ele>1108.94</ele>
<time>2015-04-29T09:54:20Z</time>
</trkpt>
<trkpt lat="34.9050726" lon="32.8255196">
<ele>1109.04</ele>
<time>2015-04-29T09:54:36Z</time>
</trkpt>
<trkpt lat="34.9050247" lon="32.8254678">
<ele>1108.58</ele>
<time>2015-04-29T09:54:38Z</time>
</trkpt>
<trkpt lat="34.9049625" lon="32.8254008">
<ele>1106.71</ele>
<time>2015-04-29T09:54:40Z</time>
</trkpt>
<trkpt lat="34.9049266" lon="32.8253621">
<ele>1105.24</ele>
<time>2015-04-29T09:54:41Z</time>
</trkpt>
<trkpt lat="34.9048817" lon="32.8253227">
<ele>1104.00</ele>
<time>2015-04-29T09:54:42Z</time>
</trkpt>
<trkpt lat="34.9048383" lon="32.8252792">
<ele>1102.88</ele>
<time>2015-04-29T09:54:43Z</time>
</trkpt>
<trkpt lat="34.9047851" lon="32.8252603">
<ele>1101.82</ele>
<time>2015-04-29T09:54:44Z</time>
</trkpt>
<trkpt lat="34.9047277" lon="32.8252512">
<ele>1100.79</ele>
<time>2015-04-29T09:54:45Z</time>
</trkpt>
<trkpt lat="34.9046820" lon="32.8252446">
<ele>1099.77</ele>
<time>2015-04-29T09:54:46Z</time>
</trkpt>
<trkpt lat="34.9046084" lon="32.8252202">
<ele>1098.51</ele>
<time>2015-04-29T09:54:48Z</time>
</trkpt>
<trkpt lat="34.9045581" lon="32.8251648">
<ele>1097.45</ele>
<time>2015-04-29T09:54:50Z</time>
</trkpt>
<trkpt lat="34.9045651" lon="32.8250953">
<ele>1095.68</ele>
<time>2015-04-29T09:54:52Z</time>
</trkpt>
<trkpt lat="34.9046008" lon="32.8250120">
<ele>1093.74</ele>
<time>2015-04-29T09:54:54Z</time>
</trkpt>
<trkpt lat="34.9046556" lon="32.8249377">
<ele>1091.76</ele>
<time>2015-04-29T09:54:56Z</time>
</trkpt>
<trkpt lat="34.9046930" lon="32.8249001">
<ele>1090.76</ele>
<time>2015-04-29T09:54:57Z</time>
</trkpt>
<trkpt lat="34.9047327" lon="32.8248535">
<ele>1089.76</ele>
<time>2015-04-29T09:54:58Z</time>
</trkpt>
<trkpt lat="34.9047700" lon="32.8248033">
<ele>1089.76</ele>
<time>2015-04-29T09:54:59Z</time>
</trkpt>
<trkpt lat="34.9047958" lon="32.8247471">
<ele>1089.26</ele>
<time>2015-04-29T09:55:00Z</time>
</trkpt>
<trkpt lat="34.9048261" lon="32.8246800">
<ele>1089.01</ele>
<time>2015-04-29T09:55:01Z</time>
</trkpt>
<trkpt lat="34.9048534" lon="32.8246135">
<ele>1089.38</ele>
<time>2015-04-29T09:55:02Z</time>
</trkpt>
<trkpt lat="34.9048840" lon="32.8245523">
<ele>1089.07</ele>
<time>2015-04-29T09:55:03Z</time>
</trkpt>
<trkpt lat="34.9049082" lon="32.8244860">
<ele>1088.92</ele>
<time>2015-04-29T09:55:04Z</time>
</trkpt>
<trkpt lat="34.9049310" lon="32.8244140">
<ele>1088.84</ele>
<time>2015-04-29T09:55:05Z</time>
</trkpt>
<trkpt lat="34.9049553" lon="32.8243604">
<ele>1088.80</ele>
<time>2015-04-29T09:55:06Z</time>
</trkpt>
<trkpt lat="34.9049754" lon="32.8243028">
<ele>1088.28</ele>
<time>2015-04-29T09:55:07Z</time>
</trkpt>
<trkpt lat="34.9049838" lon="32.8242315">
<ele>1088.02</ele>
<time>2015-04-29T09:55:08Z</time>
</trkpt>
<trkpt lat="34.9049983" lon="32.8241730">
<ele>1087.39</ele>
<time>2015-04-29T09:55:09Z</time>
</trkpt>
<trkpt lat="34.9050037" lon="32.8241128">
<ele>1086.57</ele>
<time>2015-04-29T09:55:10Z</time>
</trkpt>
<trkpt lat="34.9050075" lon="32.8240440">
<ele>1085.67</ele>
<time>2015-04-29T09:55:11Z</time>
</trkpt>
<trkpt lat="34.9050092" lon="32.8239795">
<ele>1085.71</ele>
<time>2015-04-29T09:55:12Z</time>
</trkpt>
<trkpt lat="34.9049846" lon="32.8238857">
<ele>1083.75</ele>
<time>2015-04-29T09:55:14Z</time>
</trkpt>
<trkpt lat="34.9049112" lon="32.8238210">
<ele>1082.26</ele>
<time>2015-04-29T09:55:16Z</time>
</trkpt>
<trkpt lat="34.9048458" lon="32.8237953">
<ele>1080.13</ele>
<time>2015-04-29T09:55:18Z</time>
</trkpt>
<trkpt lat="34.9047951" lon="32.8237466">
<ele>1077.85</ele>
<time>2015-04-29T09:55:20Z</time>
</trkpt>
<trkpt lat="34.9047846" lon="32.8236894">
<ele>1076.81</ele>
<time>2015-04-29T09:55:21Z</time>
</trkpt>
<trkpt lat="34.9048006" lon="32.8235857">
<ele>1075.02</ele>
<time>2015-04-29T09:55:23Z</time>
</trkpt>
<trkpt lat="34.9048330" lon="32.8234851">
<ele>1074.08</ele>
<time>2015-04-29T09:55:25Z</time>
</trkpt>
<trkpt lat="34.9048425" lon="32.8233893">
<ele>1073.59</ele>
<time>2015-04-29T09:55:27Z</time>
</trkpt>
<trkpt lat="34.9047995" lon="32.8233236">
<ele>1072.97</ele>
<time>2015-04-29T09:55:29Z</time>
</trkpt>
<trkpt lat="34.9047247" lon="32.8233194">
<ele>1071.56</ele>
<time>2015-04-29T09:55:31Z</time>
</trkpt>
<trkpt lat="34.9046634" lon="32.8233240">
<ele>1070.66</ele>
<time>2015-04-29T09:55:32Z</time>
</trkpt>
<trkpt lat="34.9046161" lon="32.8233422">
<ele>1070.21</ele>
<time>2015-04-29T09:55:33Z</time>
</trkpt>
<trkpt lat="34.9045584" lon="32.8233359">
<ele>1069.49</ele>
<time>2015-04-29T09:55:34Z</time>
</trkpt>
<trkpt lat="34.9045028" lon="32.8233281">
<ele>1068.62</ele>
<time>2015-04-29T09:55:35Z</time>
</trkpt>
<trkpt lat="34.9044562" lon="32.8233188">
<ele>1067.69</ele>
<time>2015-04-29T09:55:36Z</time>
</trkpt>
<trkpt lat="34.9044046" lon="32.8233150">
<ele>1066.73</ele>
<time>2015-04-29T09:55:37Z</time>
</trkpt>
<trkpt lat="34.9043500" lon="32.8233095">
<ele>1066.24</ele>
<time>2015-04-29T09:55:38Z</time>
</trkpt>
<trkpt lat="34.9042967" lon="32.8233157">
<ele>1066.00</ele>
<time>2015-04-29T09:55:39Z</time>
</trkpt>
<trkpt lat="34.9042460" lon="32.8232804">
<ele>1065.38</ele>
<time>2015-04-29T09:55:40Z</time>
</trkpt>
<trkpt lat="34.9041880" lon="32.8232657">
<ele>1065.07</ele>
<time>2015-04-29T09:55:41Z</time>
</trkpt>
<trkpt lat="34.9041319" lon="32.8232302">
<ele>1064.42</ele>
<time>2015-04-29T09:55:42Z</time>
</trkpt>
<trkpt lat="34.9040852" lon="32.8231963">
<ele>1063.59</ele>
<time>2015-04-29T09:55:43Z</time>
</trkpt>
<trkpt lat="34.9040334" lon="32.8231498">
<ele>1062.17</ele>
<time>2015-04-29T09:55:44Z</time>
</trkpt>
<trkpt lat="34.9039928" lon="32.8230957">
<ele>1060.97</ele>
<time>2015-04-29T09:55:45Z</time>
</trkpt>
<trkpt lat="34.9039602" lon="32.8230349">
<ele>1059.36</ele>
<time>2015-04-29T09:55:46Z</time>
</trkpt>
<trkpt lat="34.9039217" lon="32.8229793">
<ele>1058.56</ele>
<time>2015-04-29T09:55:47Z</time>
</trkpt>
<trkpt lat="34.9038855" lon="32.8229222">
<ele>1058.16</ele>
<time>2015-04-29T09:55:48Z</time>
</trkpt>
<trkpt lat="34.9038478" lon="32.8228387">
<ele>1055.36</ele>
<time>2015-04-29T09:55:50Z</time>
</trkpt>
<trkpt lat="34.9037972" lon="32.8227848">
<ele>1052.59</ele>
<time>2015-04-29T09:55:53Z</time>
</trkpt>
<trkpt lat="34.9037540" lon="32.8228153">
<ele>1051.75</ele>
<time>2015-04-29T09:55:58Z</time>
</trkpt>
<trkpt lat="34.9037855" lon="32.8228580">
<ele>1052.26</ele>
<time>2015-04-29T09:56:01Z</time>
</trkpt>
<trkpt lat="34.9038174" lon="32.8229181">
<ele>1052.73</ele>
<time>2015-04-29T09:56:05Z</time>
</trkpt>
<trkpt lat="34.9038439" lon="32.8229699">
<ele>1051.03</ele>
<time>2015-04-29T09:56:12Z</time>
</trkpt>
<trkpt lat="34.9038789" lon="32.8230394">
<ele>1049.54</ele>
<time>2015-04-29T09:56:15Z</time>
</trkpt>
<trkpt lat="34.9039096" lon="32.8231066">
<ele>1048.71</ele>
<time>2015-04-29T09:56:17Z</time>
</trkpt>
<trkpt lat="34.9039361" lon="32.8231790">
<ele>1048.75</ele>
<time>2015-04-29T09:56:19Z</time>
</trkpt>
<trkpt lat="34.9039654" lon="32.8232559">
<ele>1047.51</ele>
<time>2015-04-29T09:56:21Z</time>
</trkpt>
<trkpt lat="34.9040030" lon="32.8233208">
<ele>1045.70</ele>
<time>2015-04-29T09:56:23Z</time>
</trkpt>
<trkpt lat="34.9040452" lon="32.8233862">
<ele>1044.99</ele>
<time>2015-04-29T09:56:25Z</time>
</trkpt>
<trkpt lat="34.9040835" lon="32.8234575">
<ele>1044.82</ele>
<time>2015-04-29T09:56:27Z</time>
</trkpt>
<trkpt lat="34.9041125" lon="32.8235393">
<ele>1044.27</ele>
<time>2015-04-29T09:56:29Z</time>
</trkpt>
<trkpt lat="34.9041535" lon="32.8236075">
<ele>1043.64</ele>
<time>2015-04-29T09:56:31Z</time>
</trkpt>
<trkpt lat="34.9042227" lon="32.8236473">
<ele>1042.98</ele>
<time>2015-04-29T09:56:33Z</time>
</trkpt>
<trkpt lat="34.9042644" lon="32.8236698">
<ele>1042.37</ele>
<time>2015-04-29T09:56:34Z</time>
</trkpt>
<trkpt lat="34.9043249" lon="32.8237357">
<ele>1042.06</ele>
<time>2015-04-29T09:56:35Z</time>
</trkpt>
<trkpt lat="34.9043525" lon="32.8237912">
<ele>1041.91</ele>
<time>2015-04-29T09:56:36Z</time>
</trkpt>
<trkpt lat="34.9043674" lon="32.8238496">
<ele>1041.34</ele>
<time>2015-04-29T09:56:37Z</time>
</trkpt>
<trkpt lat="34.9043716" lon="32.8239161">
<ele>1040.05</ele>
<time>2015-04-29T09:56:38Z</time>
</trkpt>
<trkpt lat="34.9043651" lon="32.8239867">
<ele>1038.90</ele>
<time>2015-04-29T09:56:39Z</time>
</trkpt>
<trkpt lat="34.9043440" lon="32.8240617">
<ele>1038.83</ele>
<time>2015-04-29T09:56:40Z</time>
</trkpt>
<trkpt lat="34.9043120" lon="32.8241322">
<ele>1039.30</ele>
<time>2015-04-29T09:56:41Z</time>
</trkpt>
<trkpt lat="34.9042667" lon="32.8241812">
<ele>1039.53</ele>
<time>2015-04-29T09:56:42Z</time>
</trkpt>
<trkpt lat="34.9042238" lon="32.8242291">
<ele>1039.64</ele>
<time>2015-04-29T09:56:43Z</time>
</trkpt>
<trkpt lat="34.9041862" lon="32.8242831">
<ele>1039.20</ele>
<time>2015-04-29T09:56:44Z</time>
</trkpt>
<trkpt lat="34.9041531" lon="32.8243298">
<ele>1038.98</ele>
<time>2015-04-29T09:56:45Z</time>
</trkpt>
<trkpt lat="34.9041197" lon="32.8243716">
<ele>1038.37</ele>
<time>2015-04-29T09:56:46Z</time>
</trkpt>
<trkpt lat="34.9040736" lon="32.8244126">
<ele>1038.07</ele>
<time>2015-04-29T09:56:47Z</time>
</trkpt>
<trkpt lat="34.9040302" lon="32.8244655">
<ele>1037.91</ele>
<time>2015-04-29T09:56:48Z</time>
</trkpt>
<trkpt lat="34.9039801" lon="32.8245237">
<ele>1038.34</ele>
<time>2015-04-29T09:56:49Z</time>
</trkpt>
<trkpt lat="34.9039393" lon="32.8245803">
<ele>1038.05</ele>
<time>2015-04-29T09:56:50Z</time>
</trkpt>
<trkpt lat="34.9039044" lon="32.8246390">
<ele>1037.40</ele>
<time>2015-04-29T09:56:51Z</time>
</trkpt>
<trkpt lat="34.9038630" lon="32.8247154">
<ele>1038.08</ele>
<time>2015-04-29T09:56:52Z</time>
</trkpt>
<trkpt lat="34.9038217" lon="32.8247669">
<ele>1038.42</ele>
<time>2015-04-29T09:56:53Z</time>
</trkpt>
<trkpt lat="34.9037840" lon="32.8248170">
<ele>1038.59</ele>
<time>2015-04-29T09:56:54Z</time>
</trkpt>
<trkpt lat="34.9037558" lon="32.8248611">
<ele>1038.68</ele>
<time>2015-04-29T09:56:55Z</time>
</trkpt>
<trkpt lat="34.9037166" lon="32.8249410">
<ele>1038.49</ele>
<time>2015-04-29T09:56:57Z</time>
</trkpt>
<trkpt lat="34.9036919" lon="32.8249938">
<ele>1037.94</ele>
<time>2015-04-29T09:56:59Z</time>
</trkpt>
<trkpt lat="34.9036711" lon="32.8250530">
<ele>1037.28</ele>
<time>2015-04-29T09:57:02Z</time>
</trkpt>
<trkpt lat="34.9036501" lon="32.8251241">
<ele>1036.95</ele>
<time>2015-04-29T09:57:05Z</time>
</trkpt>
<trkpt lat="34.9036351" lon="32.8251844">
<ele>1036.06</ele>
<time>2015-04-29T09:57:07Z</time>
</trkpt>
<trkpt lat="34.9036058" lon="32.8253149">
<ele>1034.58</ele>
<time>2015-04-29T09:57:09Z</time>
</trkpt>
<trkpt lat="34.9035915" lon="32.8253898">
<ele>1033.67</ele>
<time>2015-04-29T09:57:10Z</time>
</trkpt>
<trkpt lat="34.9035802" lon="32.8254579">
<ele>1032.72</ele>
<time>2015-04-29T09:57:11Z</time>
</trkpt>
<trkpt lat="34.9035696" lon="32.8255289">
<ele>1031.24</ele>
<time>2015-04-29T09:57:12Z</time>
</trkpt>
<trkpt lat="34.9035617" lon="32.8255967">
<ele>1030.00</ele>
<time>2015-04-29T09:57:13Z</time>
</trkpt>
<trkpt lat="34.9035547" lon="32.8256639">
<ele>1029.38</ele>
<time>2015-04-29T09:57:14Z</time>
</trkpt>
<trkpt lat="34.9035469" lon="32.8257255">
<ele>1028.57</ele>
<time>2015-04-29T09:57:15Z</time>
</trkpt>
<trkpt lat="34.9035218" lon="32.8258126">
<ele>1027.21</ele>
<time>2015-04-29T09:57:17Z</time>
</trkpt>
<trkpt lat="34.9034744" lon="32.8258205">
<ele>1025.62</ele>
<time>2015-04-29T09:57:19Z</time>
</trkpt>
<trkpt lat="34.9034461" lon="32.8257568">
<ele>1024.98</ele>
<time>2015-04-29T09:57:21Z</time>
</trkpt>
<trkpt lat="34.9034404" lon="32.8256759">
<ele>1024.06</ele>
<time>2015-04-29T09:57:23Z</time>
</trkpt>
<trkpt lat="34.9034342" lon="32.8256105">
<ele>1022.59</ele>
<time>2015-04-29T09:57:25Z</time>
</trkpt>
<trkpt lat="34.9034245" lon="32.8255265">
<ele>1021.22</ele>
<time>2015-04-29T09:57:27Z</time>
</trkpt>
<trkpt lat="34.9034175" lon="32.8254388">
<ele>1020.49</ele>
<time>2015-04-29T09:57:28Z</time>
</trkpt>
<trkpt lat="34.9034069" lon="32.8253686">
<ele>1019.62</ele>
<time>2015-04-29T09:57:29Z</time>
</trkpt>
<trkpt lat="34.9034163" lon="32.8252863">
<ele>1018.69</ele>
<time>2015-04-29T09:57:30Z</time>
</trkpt>
<trkpt lat="34.9034165" lon="32.8252126">
<ele>1018.23</ele>
<time>2015-04-29T09:57:31Z</time>
</trkpt>
<trkpt lat="34.9034221" lon="32.8251264">
<ele>1017.49</ele>
<time>2015-04-29T09:57:32Z</time>
</trkpt>
<trkpt lat="34.9034239" lon="32.8250594">
<ele>1017.13</ele>
<time>2015-04-29T09:57:33Z</time>
</trkpt>
<trkpt lat="34.9034181" lon="32.8249838">
<ele>1016.44</ele>
<time>2015-04-29T09:57:34Z</time>
</trkpt>
<trkpt lat="34.9034126" lon="32.8249147">
<ele>1016.60</ele>
<time>2015-04-29T09:57:35Z</time>
</trkpt>
<trkpt lat="34.9034098" lon="32.8248414">
<ele>1016.18</ele>
<time>2015-04-29T09:57:36Z</time>
</trkpt>
<trkpt lat="34.9034111" lon="32.8247570">
<ele>1015.47</ele>
<time>2015-04-29T09:57:37Z</time>
</trkpt>
<trkpt lat="34.9034239" lon="32.8246904">
<ele>1014.12</ele>
<time>2015-04-29T09:57:38Z</time>
</trkpt>
<trkpt lat="34.9034173" lon="32.8246204">
<ele>1013.44</ele>
<time>2015-04-29T09:57:39Z</time>
</trkpt>
<trkpt lat="34.9034026" lon="32.8245598">
<ele>1012.60</ele>
<time>2015-04-29T09:57:40Z</time>
</trkpt>
<trkpt lat="34.9033617" lon="32.8244978">
<ele>1010.72</ele>
<time>2015-04-29T09:57:42Z</time>
</trkpt>
<trkpt lat="34.9032925" lon="32.8245225">
<ele>1009.25</ele>
<time>2015-04-29T09:57:44Z</time>
</trkpt>
<trkpt lat="34.9032596" lon="32.8246267">
<ele>1006.88</ele>
<time>2015-04-29T09:57:46Z</time>
</trkpt>
<trkpt lat="34.9032452" lon="32.8246828">
<ele>1005.82</ele>
<time>2015-04-29T09:57:47Z</time>
</trkpt>
<trkpt lat="34.9032250" lon="32.8247553">
<ele>1004.79</ele>
<time>2015-04-29T09:57:48Z</time>
</trkpt>
<trkpt lat="34.9032047" lon="32.8248248">
<ele>1003.78</ele>
<time>2015-04-29T09:57:49Z</time>
</trkpt>
<trkpt lat="34.9031747" lon="32.8248966">
<ele>1003.27</ele>
<time>2015-04-29T09:57:50Z</time>
</trkpt>
<trkpt lat="34.9031588" lon="32.8249539">
<ele>1003.01</ele>
<time>2015-04-29T09:57:51Z</time>
</trkpt>
<trkpt lat="34.9031094" lon="32.8250272">
<ele>1002.32</ele>
<time>2015-04-29T09:57:53Z</time>
</trkpt>
<trkpt lat="34.9030821" lon="32.8250738">
<ele>1001.90</ele>
<time>2015-04-29T09:57:55Z</time>
</trkpt>
<trkpt lat="34.9030566" lon="32.8251228">
<ele>1001.90</ele>
<time>2015-04-29T09:57:58Z</time>
</trkpt>
<trkpt lat="34.9030345" lon="32.8251927">
<ele>1001.30</ele>
<time>2015-04-29T09:58:00Z</time>
</trkpt>
<trkpt lat="34.9030150" lon="32.8252864">
<ele>1000.64</ele>
<time>2015-04-29T09:58:02Z</time>
</trkpt>
<trkpt lat="34.9029919" lon="32.8253430">
<ele>1000.70</ele>
<time>2015-04-29T09:58:03Z</time>
</trkpt>
<trkpt lat="34.9029613" lon="32.8254060">
<ele>1000.73</ele>
<time>2015-04-29T09:58:04Z</time>
</trkpt>
<trkpt lat="34.9029238" lon="32.8254742">
<ele>1001.75</ele>
<time>2015-04-29T09:58:05Z</time>
</trkpt>
<trkpt lat="34.9029060" lon="32.8255370">
<ele>1001.75</ele>
<time>2015-04-29T09:58:06Z</time>
</trkpt>
<trkpt lat="34.9028906" lon="32.8256072">
<ele>1000.76</ele>
<time>2015-04-29T09:58:07Z</time>
</trkpt>
<trkpt lat="34.9028668" lon="32.8256719">
<ele>1000.76</ele>
<time>2015-04-29T09:58:08Z</time>
</trkpt>
<trkpt lat="34.9028468" lon="32.8257330">
<ele>1000.26</ele>
<time>2015-04-29T09:58:09Z</time>
</trkpt>
<trkpt lat="34.9028345" lon="32.8258156">
<ele>999.51</ele>
<time>2015-04-29T09:58:10Z</time>
</trkpt>
<trkpt lat="34.9028312" lon="32.8259041">
<ele>998.63</ele>
<time>2015-04-29T09:58:11Z</time>
</trkpt>
<trkpt lat="34.9028434" lon="32.8259810">
<ele>997.70</ele>
<time>2015-04-29T09:58:12Z</time>
</trkpt>
<trkpt lat="34.9028498" lon="32.8260537">
<ele>997.23</ele>
<time>2015-04-29T09:58:13Z</time>
</trkpt>
<trkpt lat="34.9028800" lon="32.8261198">
<ele>996.49</ele>
<time>2015-04-29T09:58:14Z</time>
</trkpt>
<trkpt lat="34.9029231" lon="32.8261857">
<ele>995.63</ele>
<time>2015-04-29T09:58:15Z</time>
</trkpt>
<trkpt lat="34.9029752" lon="32.8262469">
<ele>995.69</ele>
<time>2015-04-29T09:58:16Z</time>
</trkpt>
<trkpt lat="34.9030226" lon="32.8262991">
<ele>996.23</ele>
<time>2015-04-29T09:58:17Z</time>
</trkpt>
<trkpt lat="34.9030573" lon="32.8263437">
<ele>996.49</ele>
<time>2015-04-29T09:58:18Z</time>
</trkpt>
<trkpt lat="34.9030810" lon="32.8263915">
<ele>996.13</ele>
<time>2015-04-29T09:58:19Z</time>
</trkpt>
<trkpt lat="34.9031010" lon="32.8264463">
<ele>994.94</ele>
<time>2015-04-29T09:58:20Z</time>
</trkpt>
<trkpt lat="34.9031169" lon="32.8265040">
<ele>993.85</ele>
<time>2015-04-29T09:58:21Z</time>
</trkpt>
<trkpt lat="34.9031271" lon="32.8265658">
<ele>993.31</ele>
<time>2015-04-29T09:58:22Z</time>
</trkpt>
<trkpt lat="34.9031320" lon="32.8266278">
<ele>993.03</ele>
<time>2015-04-29T09:58:23Z</time>
</trkpt>
<trkpt lat="34.9031114" lon="32.8266877">
<ele>992.90</ele>
<time>2015-04-29T09:58:24Z</time>
</trkpt>
<trkpt lat="34.9030774" lon="32.8267335">
<ele>992.33</ele>
<time>2015-04-29T09:58:25Z</time>
</trkpt>
<trkpt lat="34.9030284" lon="32.8267615">
<ele>991.54</ele>
<time>2015-04-29T09:58:26Z</time>
</trkpt>
<trkpt lat="34.9029772" lon="32.8267871">
<ele>991.15</ele>
<time>2015-04-29T09:58:27Z</time>
</trkpt>
<trkpt lat="34.9029318" lon="32.8268089">
<ele>990.46</ele>
<time>2015-04-29T09:58:28Z</time>
</trkpt>
<trkpt lat="34.9028807" lon="32.8268273">
<ele>989.11</ele>
<time>2015-04-29T09:58:29Z</time>
</trkpt>
<trkpt lat="34.9027932" lon="32.8268783">
<ele>987.35</ele>
<time>2015-04-29T09:58:31Z</time>
</trkpt>
<trkpt lat="34.9027394" lon="32.8269115">
<ele>986.55</ele>
<time>2015-04-29T09:58:32Z</time>
</trkpt>
<trkpt lat="34.9026509" lon="32.8269585">
<ele>985.96</ele>
<time>2015-04-29T09:58:34Z</time>
</trkpt>
<trkpt lat="34.9025956" lon="32.8269944">
<ele>985.36</ele>
<time>2015-04-29T09:58:35Z</time>
</trkpt>
<trkpt lat="34.9025378" lon="32.8270433">
<ele>984.56</ele>
<time>2015-04-29T09:58:36Z</time>
</trkpt>
<trkpt lat="34.9024879" lon="32.8270776">
<ele>983.66</ele>
<time>2015-04-29T09:58:37Z</time>
</trkpt>
<trkpt lat="34.9024295" lon="32.8271278">
<ele>983.21</ele>
<time>2015-04-29T09:58:38Z</time>
</trkpt>
<trkpt lat="34.9023784" lon="32.8271744">
<ele>982.48</ele>
<time>2015-04-29T09:58:39Z</time>
</trkpt>
<trkpt lat="34.9023246" lon="32.8272321">
<ele>981.62</ele>
<time>2015-04-29T09:58:40Z</time>
</trkpt>
<trkpt lat="34.9022705" lon="32.8272879">
<ele>981.19</ele>
<time>2015-04-29T09:58:41Z</time>
</trkpt>
<trkpt lat="34.9022079" lon="32.8273166">
<ele>980.48</ele>
<time>2015-04-29T09:58:42Z</time>
</trkpt>
<trkpt lat="34.9021412" lon="32.8273404">
<ele>980.12</ele>
<time>2015-04-29T09:58:43Z</time>
</trkpt>
<trkpt lat="34.9020673" lon="32.8273706">
<ele>979.44</ele>
<time>2015-04-29T09:58:44Z</time>
</trkpt>
<trkpt lat="34.9020023" lon="32.8274013">
<ele>979.10</ele>
<time>2015-04-29T09:58:45Z</time>
</trkpt>
<trkpt lat="34.9019368" lon="32.8274275">
<ele>978.93</ele>
<time>2015-04-29T09:58:46Z</time>
</trkpt>
<trkpt lat="34.9018640" lon="32.8274436">
<ele>978.34</ele>
<time>2015-04-29T09:58:47Z</time>
</trkpt>
<trkpt lat="34.9018054" lon="32.8274717">
<ele>977.55</ele>
<time>2015-04-29T09:58:48Z</time>
</trkpt>
<trkpt lat="34.9017519" lon="32.8275081">
<ele>977.16</ele>
<time>2015-04-29T09:58:49Z</time>
</trkpt>
<trkpt lat="34.9017109" lon="32.8275518">
<ele>976.46</ele>
<time>2015-04-29T09:58:50Z</time>
</trkpt>
<trkpt lat="34.9016667" lon="32.8276349">
<ele>974.43</ele>
<time>2015-04-29T09:58:52Z</time>
</trkpt>
<trkpt lat="34.9016684" lon="32.8276956">
<ele>974.60</ele>
<time>2015-04-29T09:58:53Z</time>
</trkpt>
<trkpt lat="34.9016727" lon="32.8277555">
<ele>973.68</ele>
<time>2015-04-29T09:58:54Z</time>
</trkpt>
<trkpt lat="34.9016743" lon="32.8278133">
<ele>973.22</ele>
<time>2015-04-29T09:58:55Z</time>
</trkpt>
<trkpt lat="34.9016491" lon="32.8278660">
<ele>972.99</ele>
<time>2015-04-29T09:58:56Z</time>
</trkpt>
<trkpt lat="34.9015989" lon="32.8279184">
<ele>971.57</ele>
<time>2015-04-29T09:58:58Z</time>
</trkpt>
<trkpt lat="34.9015464" lon="32.8279484">
<ele>970.21</ele>
<time>2015-04-29T09:59:00Z</time>
</trkpt>
<trkpt lat="34.9014975" lon="32.8279693">
<ele>968.99</ele>
<time>2015-04-29T09:59:01Z</time>
</trkpt>
<trkpt lat="34.9014250" lon="32.8279237">
<ele>966.57</ele>
<time>2015-04-29T09:59:03Z</time>
</trkpt>
<trkpt lat="34.9013828" lon="32.8278885">
<ele>965.66</ele>
<time>2015-04-29T09:59:04Z</time>
</trkpt>
<trkpt lat="34.9013317" lon="32.8278506">
<ele>965.21</ele>
<time>2015-04-29T09:59:05Z</time>
</trkpt>
<trkpt lat="34.9012626" lon="32.8278062">
<ele>963.99</ele>
<time>2015-04-29T09:59:06Z</time>
</trkpt>
<trkpt lat="34.9012147" lon="32.8277578">
<ele>963.37</ele>
<time>2015-04-29T09:59:07Z</time>
</trkpt>
<trkpt lat="34.9011588" lon="32.8277126">
<ele>962.57</ele>
<time>2015-04-29T09:59:08Z</time>
</trkpt>
<trkpt lat="34.9011089" lon="32.8276562">
<ele>962.16</ele>
<time>2015-04-29T09:59:09Z</time>
</trkpt>
<trkpt lat="34.9010642" lon="32.8275971">
<ele>961.96</ele>
<time>2015-04-29T09:59:10Z</time>
</trkpt>
<trkpt lat="34.9010106" lon="32.8275443">
<ele>962.36</ele>
<time>2015-04-29T09:59:11Z</time>
</trkpt>
<trkpt lat="34.9009742" lon="32.8274900">
<ele>961.56</ele>
<time>2015-04-29T09:59:12Z</time>
</trkpt>
<trkpt lat="34.9009203" lon="32.8274498">
<ele>960.66</ele>
<time>2015-04-29T09:59:13Z</time>
</trkpt>
<trkpt lat="34.9008716" lon="32.8274207">
<ele>960.21</ele>
<time>2015-04-29T09:59:14Z</time>
</trkpt>
<trkpt lat="34.9008193" lon="32.8274139">
<ele>959.99</ele>
<time>2015-04-29T09:59:15Z</time>
</trkpt>
<trkpt lat="34.9007344" lon="32.8274439">
<ele>958.57</ele>
<time>2015-04-29T09:59:17Z</time>
</trkpt>
<trkpt lat="34.9007012" lon="32.8274964">
<ele>958.16</ele>
<time>2015-04-29T09:59:18Z</time>
</trkpt>
<trkpt lat="34.9006562" lon="32.8275533">
<ele>957.96</ele>
<time>2015-04-29T09:59:19Z</time>
</trkpt>
<trkpt lat="34.9006093" lon="32.8276104">
<ele>957.86</ele>
<time>2015-04-29T09:59:20Z</time>
</trkpt>
<trkpt lat="34.9005588" lon="32.8276574">
<ele>957.81</ele>
<time>2015-04-29T09:59:21Z</time>
</trkpt>
<trkpt lat="34.9005024" lon="32.8276822">
<ele>957.79</ele>
<time>2015-04-29T09:59:22Z</time>
</trkpt>
<trkpt lat="34.9004358" lon="32.8277051">
<ele>957.27</ele>
<time>2015-04-29T09:59:23Z</time>
</trkpt>
<trkpt lat="34.9003700" lon="32.8277257">
<ele>956.52</ele>
<time>2015-04-29T09:59:24Z</time>
</trkpt>
<trkpt lat="34.9003042" lon="32.8277300">
<ele>955.14</ele>
<time>2015-04-29T09:59:25Z</time>
</trkpt>
<trkpt lat="34.9002474" lon="32.8277244">
<ele>953.95</ele>
<time>2015-04-29T09:59:26Z</time>
</trkpt>
<trkpt lat="34.9001966" lon="32.8277147">
<ele>953.35</ele>
<time>2015-04-29T09:59:27Z</time>
</trkpt>
<trkpt lat="34.9001548" lon="32.8276497">
<ele>952.56</ele>
<time>2015-04-29T09:59:28Z</time>
</trkpt>
<trkpt lat="34.9001210" lon="32.8275924">
<ele>951.66</ele>
<time>2015-04-29T09:59:29Z</time>
</trkpt>
<trkpt lat="34.9000993" lon="32.8275309">
<ele>950.71</ele>
<time>2015-04-29T09:59:30Z</time>
</trkpt>
<trkpt lat="34.9000745" lon="32.8274658">
<ele>949.23</ele>
<time>2015-04-29T09:59:31Z</time>
</trkpt>
<trkpt lat="34.9000482" lon="32.8274193">
<ele>948.00</ele>
<time>2015-04-29T09:59:32Z</time>
</trkpt>
<trkpt lat="34.8999928" lon="32.8273530">
<ele>946.82</ele>
<time>2015-04-29T09:59:34Z</time>
</trkpt>
<trkpt lat="34.8999394" lon="32.8272833">
<ele>946.27</ele>
<time>2015-04-29T09:59:36Z</time>
</trkpt>
<trkpt lat="34.8998703" lon="32.8272107">
<ele>944.64</ele>
<time>2015-04-29T09:59:38Z</time>
</trkpt>
<trkpt lat="34.8998385" lon="32.8271704">
<ele>944.70</ele>
<time>2015-04-29T09:59:39Z</time>
</trkpt>
<trkpt lat="34.8997830" lon="32.8271423">
<ele>943.73</ele>
<time>2015-04-29T09:59:40Z</time>
</trkpt>
<trkpt lat="34.8997398" lon="32.8270955">
<ele>942.74</ele>
<time>2015-04-29T09:59:41Z</time>
</trkpt>
<trkpt lat="34.8997018" lon="32.8270424">
<ele>942.75</ele>
<time>2015-04-29T09:59:42Z</time>
</trkpt>
<trkpt lat="34.8996132" lon="32.8269936">
<ele>942.76</ele>
<time>2015-04-29T09:59:44Z</time>
</trkpt>
<trkpt lat="34.8995320" lon="32.8270243">
<ele>942.26</ele>
<time>2015-04-29T09:59:46Z</time>
</trkpt>
<trkpt lat="34.8994903" lon="32.8271368">
<ele>940.63</ele>
<time>2015-04-29T09:59:48Z</time>
</trkpt>
<trkpt lat="34.8994568" lon="32.8271774">
<ele>940.20</ele>
<time>2015-04-29T09:59:49Z</time>
</trkpt>
<trkpt lat="34.8994124" lon="32.8272279">
<ele>938.98</ele>
<time>2015-04-29T09:59:50Z</time>
</trkpt>
<trkpt lat="34.8993683" lon="32.8272658">
<ele>938.87</ele>
<time>2015-04-29T09:59:51Z</time>
</trkpt>
<trkpt lat="34.8993216" lon="32.8272949">
<ele>937.81</ele>
<time>2015-04-29T09:59:52Z</time>
</trkpt>
<trkpt lat="34.8992670" lon="32.8273262">
<ele>937.29</ele>
<time>2015-04-29T09:59:53Z</time>
</trkpt>
<trkpt lat="34.8992192" lon="32.8273221">
<ele>936.52</ele>
<time>2015-04-29T09:59:54Z</time>
</trkpt>
<trkpt lat="34.8991684" lon="32.8273088">
<ele>936.14</ele>
<time>2015-04-29T09:59:55Z</time>
</trkpt>
<trkpt lat="34.8991000" lon="32.8272760">
<ele>934.61</ele>
<time>2015-04-29T09:59:57Z</time>
</trkpt>
<trkpt lat="34.8990568" lon="32.8272238">
<ele>932.47</ele>
<time>2015-04-29T09:59:59Z</time>
</trkpt>
<trkpt lat="34.8989936" lon="32.8271897">
<ele>930.69</ele>
<time>2015-04-29T10:00:01Z</time>
</trkpt>
<trkpt lat="34.8989582" lon="32.8271442">
<ele>928.99</ele>
<time>2015-04-29T10:00:03Z</time>
</trkpt>
<trkpt lat="34.8988820" lon="32.8271173">
<ele>926.32</ele>
<time>2015-04-29T10:00:05Z</time>
</trkpt>
<trkpt lat="34.8988394" lon="32.8270927">
<ele>925.04</ele>
<time>2015-04-29T10:00:06Z</time>
</trkpt>
<trkpt lat="34.8987975" lon="32.8270117">
<ele>924.40</ele>
<time>2015-04-29T10:00:07Z</time>
</trkpt>
<trkpt lat="34.8987564" lon="32.8269459">
<ele>923.58</ele>
<time>2015-04-29T10:00:08Z</time>
</trkpt>
<trkpt lat="34.8987127" lon="32.8268682">
<ele>923.17</ele>
<time>2015-04-29T10:00:09Z</time>
</trkpt>
<trkpt lat="34.8986740" lon="32.8267842">
<ele>922.96</ele>
<time>2015-04-29T10:00:10Z</time>
</trkpt>
<trkpt lat="34.8986334" lon="32.8266909">
<ele>923.36</ele>
<time>2015-04-29T10:00:11Z</time>
</trkpt>
<trkpt lat="34.8985757" lon="32.8266283">
<ele>922.06</ele>
<time>2015-04-29T10:00:12Z</time>
</trkpt>
<trkpt lat="34.8985218" lon="32.8265611">
<ele>921.41</ele>
<time>2015-04-29T10:00:13Z</time>
</trkpt>
<trkpt lat="34.8984726" lon="32.8265023">
<ele>920.09</ele>
<time>2015-04-29T10:00:14Z</time>
</trkpt>
<trkpt lat="34.8984196" lon="32.8264584">
<ele>919.42</ele>
<time>2015-04-29T10:00:15Z</time>
</trkpt>
<trkpt lat="34.8983459" lon="32.8264166">
<ele>918.09</ele>
<time>2015-04-29T10:00:16Z</time>
</trkpt>
<trkpt lat="34.8982682" lon="32.8263971">
<ele>917.43</ele>
<time>2015-04-29T10:00:17Z</time>
</trkpt>
<trkpt lat="34.8981933" lon="32.8263828">
<ele>917.09</ele>
<time>2015-04-29T10:00:18Z</time>
</trkpt>
<trkpt lat="34.8981292" lon="32.8263766">
<ele>916.93</ele>
<time>2015-04-29T10:00:19Z</time>
</trkpt>
<trkpt lat="34.8980715" lon="32.8263729">
<ele>915.84</ele>
<time>2015-04-29T10:00:20Z</time>
</trkpt>
<trkpt lat="34.8980216" lon="32.8263866">
<ele>914.80</ele>
<time>2015-04-29T10:00:21Z</time>
</trkpt>
<trkpt lat="34.8979767" lon="32.8264180">
<ele>914.28</ele>
<time>2015-04-29T10:00:22Z</time>
</trkpt>
<trkpt lat="34.8979382" lon="32.8264668">
<ele>913.52</ele>
<time>2015-04-29T10:00:23Z</time>
</trkpt>
<trkpt lat="34.8979144" lon="32.8265342">
<ele>912.64</ele>
<time>2015-04-29T10:00:24Z</time>
</trkpt>
<trkpt lat="34.8979055" lon="32.8266068">
<ele>911.20</ele>
<time>2015-04-29T10:00:25Z</time>
</trkpt>
<trkpt lat="34.8979128" lon="32.8266789">
<ele>910.48</ele>
<time>2015-04-29T10:00:26Z</time>
</trkpt>
<trkpt lat="34.8979234" lon="32.8267550">
<ele>910.12</ele>
<time>2015-04-29T10:00:27Z</time>
</trkpt>
<trkpt lat="34.8979279" lon="32.8268397">
<ele>909.44</ele>
<time>2015-04-29T10:00:28Z</time>
</trkpt>
<trkpt lat="34.8979239" lon="32.8269252">
<ele>909.60</ele>
<time>2015-04-29T10:00:29Z</time>
</trkpt>
<trkpt lat="34.8979121" lon="32.8269888">
<ele>909.18</ele>
<time>2015-04-29T10:00:30Z</time>
</trkpt>
<trkpt lat="34.8978857" lon="32.8270684">
<ele>908.97</ele>
<time>2015-04-29T10:00:31Z</time>
</trkpt>
<trkpt lat="34.8978522" lon="32.8271241">
<ele>908.86</ele>
<time>2015-04-29T10:00:32Z</time>
</trkpt>
<trkpt lat="34.8978123" lon="32.8271810">
<ele>909.31</ele>
<time>2015-04-29T10:00:33Z</time>
</trkpt>
<trkpt lat="34.8977714" lon="32.8272332">
<ele>909.54</ele>
<time>2015-04-29T10:00:34Z</time>
</trkpt>
<trkpt lat="34.8977309" lon="32.8272750">
<ele>909.65</ele>
<time>2015-04-29T10:00:35Z</time>
</trkpt>
<trkpt lat="34.8976754" lon="32.8273120">
<ele>909.20</ele>
<time>2015-04-29T10:00:36Z</time>
</trkpt>
<trkpt lat="34.8976223" lon="32.8273594">
<ele>908.48</ele>
<time>2015-04-29T10:00:37Z</time>
</trkpt>
<trkpt lat="34.8975829" lon="32.8274192">
<ele>908.12</ele>
<time>2015-04-29T10:00:38Z</time>
</trkpt>
<trkpt lat="34.8975629" lon="32.8274792">
<ele>907.44</ele>
<time>2015-04-29T10:00:39Z</time>
</trkpt>
<trkpt lat="34.8975714" lon="32.8275455">
<ele>907.10</ele>
<time>2015-04-29T10:00:40Z</time>
</trkpt>
<trkpt lat="34.8975820" lon="32.8276121">
<ele>906.93</ele>
<time>2015-04-29T10:00:41Z</time>
</trkpt>
<trkpt lat="34.8975822" lon="32.8276794">
<ele>906.35</ele>
<time>2015-04-29T10:00:42Z</time>
</trkpt>
<trkpt lat="34.8975919" lon="32.8277531">
<ele>905.05</ele>
<time>2015-04-29T10:00:43Z</time>
</trkpt>
<trkpt lat="34.8976016" lon="32.8278294">
<ele>904.91</ele>
<time>2015-04-29T10:00:44Z</time>
</trkpt>
<trkpt lat="34.8976056" lon="32.8278974">
<ele>904.83</ele>
<time>2015-04-29T10:00:45Z</time>
</trkpt>
<trkpt lat="34.8975796" lon="32.8279477">
<ele>904.80</ele>
<time>2015-04-29T10:00:46Z</time>
</trkpt>
<trkpt lat="34.8975053" lon="32.8279961">
<ele>904.27</ele>
<time>2015-04-29T10:00:48Z</time>
</trkpt>
<trkpt lat="34.8974320" lon="32.8280173">
<ele>903.89</ele>
<time>2015-04-29T10:00:50Z</time>
</trkpt>
<trkpt lat="34.8973570" lon="32.8280194">
<ele>904.54</ele>
<time>2015-04-29T10:00:52Z</time>
</trkpt>
<trkpt lat="34.8972931" lon="32.8280134">
<ele>904.46</ele>
<time>2015-04-29T10:00:54Z</time>
</trkpt>
<trkpt lat="34.8972172" lon="32.8280260">
<ele>904.18</ele>
<time>2015-04-29T10:00:56Z</time>
</trkpt>
<trkpt lat="34.8971483" lon="32.8280204">
<ele>903.87</ele>
<time>2015-04-29T10:00:58Z</time>
</trkpt>
<trkpt lat="34.8970785" lon="32.8279975">
<ele>903.79</ele>
<time>2015-04-29T10:01:00Z</time>
</trkpt>
<trkpt lat="34.8970062" lon="32.8279647">
<ele>904.52</ele>
<time>2015-04-29T10:01:02Z</time>
</trkpt>
<trkpt lat="34.8969335" lon="32.8279315">
<ele>905.45</ele>
<time>2015-04-29T10:01:04Z</time>
</trkpt>
<trkpt lat="34.8968624" lon="32.8279235">
<ele>904.43</ele>
<time>2015-04-29T10:01:06Z</time>
</trkpt>
<trkpt lat="34.8968007" lon="32.8279532">
<ele>904.68</ele>
<time>2015-04-29T10:01:08Z</time>
</trkpt>
<trkpt lat="34.8967588" lon="32.8280105">
<ele>904.74</ele>
<time>2015-04-29T10:01:10Z</time>
</trkpt>
<trkpt lat="34.8967399" lon="32.8280874">
<ele>906.25</ele>
<time>2015-04-29T10:01:12Z</time>
</trkpt>
<trkpt lat="34.8967316" lon="32.8281760">
<ele>905.38</ele>
<time>2015-04-29T10:01:14Z</time>
</trkpt>
<trkpt lat="34.8967443" lon="32.8282496">
<ele>905.07</ele>
<time>2015-04-29T10:01:15Z</time>
</trkpt>
<trkpt lat="34.8967243" lon="32.8283428">
<ele>904.09</ele>
<time>2015-04-29T10:01:17Z</time>
</trkpt>
<trkpt lat="34.8966998" lon="32.8283982">
<ele>904.42</ele>
<time>2015-04-29T10:01:18Z</time>
</trkpt>
<trkpt lat="34.8966618" lon="32.8284337">
<ele>904.09</ele>
<time>2015-04-29T10:01:19Z</time>
</trkpt>
<trkpt lat="34.8965971" lon="32.8284372">
<ele>902.59</ele>
<time>2015-04-29T10:01:21Z</time>
</trkpt>
<trkpt lat="34.8965280" lon="32.8283909">
<ele>901.97</ele>
<time>2015-04-29T10:01:23Z</time>
</trkpt>
<trkpt lat="34.8964672" lon="32.8283286">
<ele>900.81</ele>
<time>2015-04-29T10:01:25Z</time>
</trkpt>
<trkpt lat="34.8963940" lon="32.8282914">
<ele>900.52</ele>
<time>2015-04-29T10:01:27Z</time>
</trkpt>
<trkpt lat="34.8963512" lon="32.8282688">
<ele>900.14</ele>
<time>2015-04-29T10:01:28Z</time>
</trkpt>
<trkpt lat="34.8963049" lon="32.8282539">
<ele>899.95</ele>
<time>2015-04-29T10:01:29Z</time>
</trkpt>
<trkpt lat="34.8962510" lon="32.8282367">
<ele>900.36</ele>
<time>2015-04-29T10:01:30Z</time>
</trkpt>
<trkpt lat="34.8961684" lon="32.8282186">
<ele>900.16</ele>
<time>2015-04-29T10:01:32Z</time>
</trkpt>
<trkpt lat="34.8960827" lon="32.8282267">
<ele>901.11</ele>
<time>2015-04-29T10:01:34Z</time>
</trkpt>
<trkpt lat="34.8959984" lon="32.8282696">
<ele>901.60</ele>
<time>2015-04-29T10:01:36Z</time>
</trkpt>
<trkpt lat="34.8959529" lon="32.8283059">
<ele>901.18</ele>
<time>2015-04-29T10:01:37Z</time>
</trkpt>
<trkpt lat="34.8959198" lon="32.8283594">
<ele>900.47</ele>
<time>2015-04-29T10:01:38Z</time>
</trkpt>
<trkpt lat="34.8958939" lon="32.8284094">
<ele>900.11</ele>
<time>2015-04-29T10:01:39Z</time>
</trkpt>
<trkpt lat="34.8958645" lon="32.8284571">
<ele>899.94</ele>
<time>2015-04-29T10:01:40Z</time>
</trkpt>
<trkpt lat="34.8957984" lon="32.8285275">
<ele>899.80</ele>
<time>2015-04-29T10:01:42Z</time>
</trkpt>
<trkpt lat="34.8957342" lon="32.8285609">
<ele>900.27</ele>
<time>2015-04-29T10:01:44Z</time>
</trkpt>
<trkpt lat="34.8956697" lon="32.8285641">
<ele>899.89</ele>
<time>2015-04-29T10:01:46Z</time>
</trkpt>
<trkpt lat="34.8956002" lon="32.8285601">
<ele>900.54</ele>
<time>2015-04-29T10:01:48Z</time>
</trkpt>
<trkpt lat="34.8955331" lon="32.8285596">
<ele>900.71</ele>
<time>2015-04-29T10:01:50Z</time>
</trkpt>
<trkpt lat="34.8954664" lon="32.8285867">
<ele>900.75</ele>
<time>2015-04-29T10:01:52Z</time>
</trkpt>
<trkpt lat="34.8954116" lon="32.8286196">
<ele>900.76</ele>
<time>2015-04-29T10:01:54Z</time>
</trkpt>
<trkpt lat="34.8953732" lon="32.8286732">
<ele>900.01</ele>
<time>2015-04-29T10:01:56Z</time>
</trkpt>
<trkpt lat="34.8953490" lon="32.8287412">
<ele>899.32</ele>
<time>2015-04-29T10:01:58Z</time>
</trkpt>
<trkpt lat="34.8953343" lon="32.8288166">
<ele>898.90</ele>
<time>2015-04-29T10:02:00Z</time>
</trkpt>
<trkpt lat="34.8953264" lon="32.8289062">
<ele>898.30</ele>
<time>2015-04-29T10:02:02Z</time>
</trkpt>
<trkpt lat="34.8953190" lon="32.8289931">
<ele>898.03</ele>
<time>2015-04-29T10:02:03Z</time>
</trkpt>
<trkpt lat="34.8953092" lon="32.8290475">
<ele>897.39</ele>
<time>2015-04-29T10:02:04Z</time>
</trkpt>
<trkpt lat="34.8953020" lon="32.8291037">
<ele>897.58</ele>
<time>2015-04-29T10:02:05Z</time>
</trkpt>
<trkpt lat="34.8953047" lon="32.8291634">
<ele>897.67</ele>
<time>2015-04-29T10:02:06Z</time>
</trkpt>
<trkpt lat="34.8952981" lon="32.8292232">
<ele>897.21</ele>
<time>2015-04-29T10:02:07Z</time>
</trkpt>
<trkpt lat="34.8952913" lon="32.8292853">
<ele>896.99</ele>
<time>2015-04-29T10:02:08Z</time>
</trkpt>
<trkpt lat="34.8952883" lon="32.8293538">
<ele>896.87</ele>
<time>2015-04-29T10:02:09Z</time>
</trkpt>
<trkpt lat="34.8952776" lon="32.8294204">
<ele>896.82</ele>
<time>2015-04-29T10:02:10Z</time>
</trkpt>
<trkpt lat="34.8952670" lon="32.8294865">
<ele>896.79</ele>
<time>2015-04-29T10:02:11Z</time>
</trkpt>
<trkpt lat="34.8952568" lon="32.8295594">
<ele>896.77</ele>
<time>2015-04-29T10:02:12Z</time>
</trkpt>
<trkpt lat="34.8952550" lon="32.8296242">
<ele>896.27</ele>
<time>2015-04-29T10:02:13Z</time>
</trkpt>
<trkpt lat="34.8952442" lon="32.8296980">
<ele>896.51</ele>
<time>2015-04-29T10:02:14Z</time>
</trkpt>
<trkpt lat="34.8952258" lon="32.8297633">
<ele>896.14</ele>
<time>2015-04-29T10:02:15Z</time>
</trkpt>
<trkpt lat="34.8951996" lon="32.8298275">
<ele>895.95</ele>
<time>2015-04-29T10:02:16Z</time>
</trkpt>
<trkpt lat="34.8951555" lon="32.8299016">
<ele>896.35</ele>
<time>2015-04-29T10:02:17Z</time>
</trkpt>
<trkpt lat="34.8951183" lon="32.8299677">
<ele>896.06</ele>
<time>2015-04-29T10:02:18Z</time>
</trkpt>
<trkpt lat="34.8950753" lon="32.8300457">
<ele>895.91</ele>
<time>2015-04-29T10:02:19Z</time>
</trkpt>
<trkpt lat="34.8950354" lon="32.8301262">
<ele>895.33</ele>
<time>2015-04-29T10:02:20Z</time>
</trkpt>
<trkpt lat="34.8949972" lon="32.8301928">
<ele>895.55</ele>
<time>2015-04-29T10:02:21Z</time>
</trkpt>
<trkpt lat="34.8949692" lon="32.8302392">
<ele>895.65</ele>
<time>2015-04-29T10:02:22Z</time>
</trkpt>
<trkpt lat="34.8949337" lon="32.8302856">
<ele>895.23</ele>
<time>2015-04-29T10:02:24Z</time>
</trkpt>
<trkpt lat="34.8949017" lon="32.8303265">
<ele>895.63</ele>
<time>2015-04-29T10:02:26Z</time>
</trkpt>
<trkpt lat="34.8948619" lon="32.8303628">
<ele>895.24</ele>
<time>2015-04-29T10:02:29Z</time>
</trkpt>
<trkpt lat="34.8948148" lon="32.8303608">
<ele>896.38</ele>
<time>2015-04-29T10:02:31Z</time>
</trkpt>
<trkpt lat="34.8947628" lon="32.8303378">
<ele>895.84</ele>
<time>2015-04-29T10:02:34Z</time>
</trkpt>
<trkpt lat="34.8947215" lon="32.8303648">
<ele>895.51</ele>
<time>2015-04-29T10:02:38Z</time>
</trkpt>
<trkpt lat="34.8947022" lon="32.8304146">
<ele>897.29</ele>
<time>2015-04-29T10:02:57Z</time>
</trkpt>
<trkpt lat="34.8946794" lon="32.8304676">
<ele>896.39</ele>
<time>2015-04-29T10:02:59Z</time>
</trkpt>
<trkpt lat="34.8946586" lon="32.8305178">
<ele>896.08</ele>
<time>2015-04-29T10:03:00Z</time>
</trkpt>
<trkpt lat="34.8946248" lon="32.8306197">
<ele>895.92</ele>
<time>2015-04-29T10:03:01Z</time>
</trkpt>
<trkpt lat="34.8946048" lon="32.8306825">
<ele>895.84</ele>
<time>2015-04-29T10:03:02Z</time>
</trkpt>
<trkpt lat="34.8945855" lon="32.8307446">
<ele>895.80</ele>
<time>2015-04-29T10:03:03Z</time>
</trkpt>
<trkpt lat="34.8945664" lon="32.8308130">
<ele>895.78</ele>
<time>2015-04-29T10:03:04Z</time>
</trkpt>
<trkpt lat="34.8945532" lon="32.8308810">
<ele>895.77</ele>
<time>2015-04-29T10:03:05Z</time>
</trkpt>
<trkpt lat="34.8945446" lon="32.8309424">
<ele>895.76</ele>
<time>2015-04-29T10:03:06Z</time>
</trkpt>
<trkpt lat="34.8945379" lon="32.8310015">
<ele>895.76</ele>
<time>2015-04-29T10:03:07Z</time>
</trkpt>
<trkpt lat="34.8945281" lon="32.8310592">
<ele>895.76</ele>
<time>2015-04-29T10:03:08Z</time>
</trkpt>
<trkpt lat="34.8945180" lon="32.8311603">
<ele>895.01</ele>
<time>2015-04-29T10:03:10Z</time>
</trkpt>
<trkpt lat="34.8944990" lon="32.8312463">
<ele>895.32</ele>
<time>2015-04-29T10:03:12Z</time>
</trkpt>
<trkpt lat="34.8944829" lon="32.8313235">
<ele>895.65</ele>
<time>2015-04-29T10:03:14Z</time>
</trkpt>
<trkpt lat="34.8944568" lon="32.8314068">
<ele>895.73</ele>
<time>2015-04-29T10:03:16Z</time>
</trkpt>
<trkpt lat="34.8944330" lon="32.8314824">
<ele>895.75</ele>
<time>2015-04-29T10:03:18Z</time>
</trkpt>
<trkpt lat="34.8944188" lon="32.8315551">
<ele>895.26</ele>
<time>2015-04-29T10:03:20Z</time>
</trkpt>
<trkpt lat="34.8944045" lon="32.8316297">
<ele>895.63</ele>
<time>2015-04-29T10:03:22Z</time>
</trkpt>
<trkpt lat="34.8943876" lon="32.8316945">
<ele>895.73</ele>
<time>2015-04-29T10:03:24Z</time>
</trkpt>
<trkpt lat="34.8943775" lon="32.8317531">
<ele>895.75</ele>
<time>2015-04-29T10:03:26Z</time>
</trkpt>
<trkpt lat="34.8943629" lon="32.8318127">
<ele>895.51</ele>
<time>2015-04-29T10:03:28Z</time>
</trkpt>
<trkpt lat="34.8943435" lon="32.8318716">
<ele>896.45</ele>
<time>2015-04-29T10:03:30Z</time>
</trkpt>
<trkpt lat="34.8943275" lon="32.8319311">
<ele>896.68</ele>
<time>2015-04-29T10:03:32Z</time>
</trkpt>
<trkpt lat="34.8943257" lon="32.8319912">
<ele>895.99</ele>
<time>2015-04-29T10:03:34Z</time>
</trkpt>
<trkpt lat="34.8943337" lon="32.8320552">
<ele>895.82</ele>
<time>2015-04-29T10:03:36Z</time>
</trkpt>
<trkpt lat="34.8943496" lon="32.8321207">
<ele>896.27</ele>
<time>2015-04-29T10:03:38Z</time>
</trkpt>
<trkpt lat="34.8943737" lon="32.8321880">
<ele>896.64</ele>
<time>2015-04-29T10:03:40Z</time>
</trkpt>
<trkpt lat="34.8944004" lon="32.8322531">
<ele>897.23</ele>
<time>2015-04-29T10:03:42Z</time>
</trkpt>
<trkpt lat="34.8944204" lon="32.8323129">
<ele>897.63</ele>
<time>2015-04-29T10:03:44Z</time>
</trkpt>
<trkpt lat="34.8944369" lon="32.8323716">
<ele>897.73</ele>
<time>2015-04-29T10:03:46Z</time>
</trkpt>
<trkpt lat="34.8944512" lon="32.8324323">
<ele>897.75</ele>
<time>2015-04-29T10:03:48Z</time>
</trkpt>
<trkpt lat="34.8944622" lon="32.8324967">
<ele>899.26</ele>
<time>2015-04-29T10:03:50Z</time>
</trkpt>
<trkpt lat="34.8944695" lon="32.8325588">
<ele>900.38</ele>
<time>2015-04-29T10:03:52Z</time>
</trkpt>
<trkpt lat="34.8944623" lon="32.8326229">
<ele>899.17</ele>
<time>2015-04-29T10:03:54Z</time>
</trkpt>
<trkpt lat="34.8944456" lon="32.8326829">
<ele>898.11</ele>
<time>2015-04-29T10:03:56Z</time>
</trkpt>
<trkpt lat="34.8944259" lon="32.8327368">
<ele>897.60</ele>
<time>2015-04-29T10:03:58Z</time>
</trkpt>
<trkpt lat="34.8943959" lon="32.8327944">
<ele>899.36</ele>
<time>2015-04-29T10:04:01Z</time>
</trkpt>
<trkpt lat="34.8943541" lon="32.8328507">
<ele>899.34</ele>
<time>2015-04-29T10:04:04Z</time>
</trkpt>
<trkpt lat="34.8943226" lon="32.8329127">
<ele>898.96</ele>
<time>2015-04-29T10:04:07Z</time>
</trkpt>
<trkpt lat="34.8943040" lon="32.8329784">
<ele>898.28</ele>
<time>2015-04-29T10:04:10Z</time>
</trkpt>
<trkpt lat="34.8942754" lon="32.8330450">
<ele>897.70</ele>
<time>2015-04-29T10:04:13Z</time>
</trkpt>
<trkpt lat="34.8942504" lon="32.8331099">
<ele>897.75</ele>
<time>2015-04-29T10:04:16Z</time>
</trkpt>
<trkpt lat="34.8942274" lon="32.8331641">
<ele>897.51</ele>
<time>2015-04-29T10:04:19Z</time>
</trkpt>
<trkpt lat="34.8941841" lon="32.8332175">
<ele>897.73</ele>
<time>2015-04-29T10:04:22Z</time>
</trkpt>
<trkpt lat="34.8941483" lon="32.8332507">
<ele>897.75</ele>
<time>2015-04-29T10:04:24Z</time>
</trkpt>
<trkpt lat="34.8941021" lon="32.8332684">
<ele>898.76</ele>
<time>2015-04-29T10:04:26Z</time>
</trkpt>
<trkpt lat="34.8940528" lon="32.8332802">
<ele>900.26</ele>
<time>2015-04-29T10:04:28Z</time>
</trkpt>
<trkpt lat="34.8940017" lon="32.8332944">
<ele>900.63</ele>
<time>2015-04-29T10:04:30Z</time>
</trkpt>
<trkpt lat="34.8939445" lon="32.8332964">
<ele>901.48</ele>
<time>2015-04-29T10:04:32Z</time>
</trkpt>
<trkpt lat="34.8938761" lon="32.8332909">
<ele>902.19</ele>
<time>2015-04-29T10:04:34Z</time>
</trkpt>
<trkpt lat="34.8938046" lon="32.8332856">
<ele>901.87</ele>
<time>2015-04-29T10:04:36Z</time>
</trkpt>
<trkpt lat="34.8937337" lon="32.8332786">
<ele>901.79</ele>
<time>2015-04-29T10:04:38Z</time>
</trkpt>
<trkpt lat="34.8936650" lon="32.8332640">
<ele>901.77</ele>
<time>2015-04-29T10:04:40Z</time>
</trkpt>
<trkpt lat="34.8936022" lon="32.8332484">
<ele>902.26</ele>
<time>2015-04-29T10:04:42Z</time>
</trkpt>
<trkpt lat="34.8935426" lon="32.8332301">
<ele>903.39</ele>
<time>2015-04-29T10:04:44Z</time>
</trkpt>
<trkpt lat="34.8934826" lon="32.8332330">
<ele>903.67</ele>
<time>2015-04-29T10:04:46Z</time>
</trkpt>
<trkpt lat="34.8934283" lon="32.8332664">
<ele>903.74</ele>
<time>2015-04-29T10:04:48Z</time>
</trkpt>
<trkpt lat="34.8933942" lon="32.8333339">
<ele>904.25</ele>
<time>2015-04-29T10:04:50Z</time>
</trkpt>
<trkpt lat="34.8933774" lon="32.8334211">
<ele>904.63</ele>
<time>2015-04-29T10:04:52Z</time>
</trkpt>
<trkpt lat="34.8933717" lon="32.8335125">
<ele>904.73</ele>
<time>2015-04-29T10:04:54Z</time>
</trkpt>
<trkpt lat="34.8933686" lon="32.8335956">
<ele>905.50</ele>
<time>2015-04-29T10:04:56Z</time>
</trkpt>
<trkpt lat="34.8933667" lon="32.8336901">
<ele>904.95</ele>
<time>2015-04-29T10:04:58Z</time>
</trkpt>
<trkpt lat="34.8933612" lon="32.8337774">
<ele>904.81</ele>
<time>2015-04-29T10:05:00Z</time>
</trkpt>
<trkpt lat="34.8933458" lon="32.8338657">
<ele>905.52</ele>
<time>2015-04-29T10:05:02Z</time>
</trkpt>
<trkpt lat="34.8933351" lon="32.8339535">
<ele>906.95</ele>
<time>2015-04-29T10:05:04Z</time>
</trkpt>
<trkpt lat="34.8933229" lon="32.8340400">
<ele>908.06</ele>
<time>2015-04-29T10:05:06Z</time>
</trkpt>
<trkpt lat="34.8933058" lon="32.8341220">
<ele>908.83</ele>
<time>2015-04-29T10:05:08Z</time>
</trkpt>
<trkpt lat="34.8932826" lon="32.8341978">
<ele>910.03</ele>
<time>2015-04-29T10:05:10Z</time>
</trkpt>
<trkpt lat="34.8932580" lon="32.8342734">
<ele>910.58</ele>
<time>2015-04-29T10:05:12Z</time>
</trkpt>
<trkpt lat="34.8932465" lon="32.8343474">
<ele>911.46</ele>
<time>2015-04-29T10:05:14Z</time>
</trkpt>
<trkpt lat="34.8932409" lon="32.8344233">
<ele>911.69</ele>
<time>2015-04-29T10:05:16Z</time>
</trkpt>
<trkpt lat="34.8932369" lon="32.8345025">
<ele>912.74</ele>
<time>2015-04-29T10:05:18Z</time>
</trkpt>
<trkpt lat="34.8932468" lon="32.8345878">
<ele>913.01</ele>
<time>2015-04-29T10:05:20Z</time>
</trkpt>
<trkpt lat="34.8932697" lon="32.8346653">
<ele>912.32</ele>
<time>2015-04-29T10:05:22Z</time>
</trkpt>
<trkpt lat="34.8933107" lon="32.8347295">
<ele>912.65</ele>
<time>2015-04-29T10:05:24Z</time>
</trkpt>
<trkpt lat="34.8933576" lon="32.8347953">
<ele>911.98</ele>
<time>2015-04-29T10:05:26Z</time>
</trkpt>
<trkpt lat="34.8934060" lon="32.8348630">
<ele>911.82</ele>
<time>2015-04-29T10:05:28Z</time>
</trkpt>
<trkpt lat="34.8934657" lon="32.8349205">
<ele>911.77</ele>
<time>2015-04-29T10:05:30Z</time>
</trkpt>
<trkpt lat="34.8935370" lon="32.8349667">
<ele>911.76</ele>
<time>2015-04-29T10:05:32Z</time>
</trkpt>
<trkpt lat="34.8936197" lon="32.8349988">
<ele>911.26</ele>
<time>2015-04-29T10:05:33Z</time>
</trkpt>
<trkpt lat="34.8936684" lon="32.8350234">
<ele>910.51</ele>
<time>2015-04-29T10:05:34Z</time>
</trkpt>
<trkpt lat="34.8937214" lon="32.8350371">
<ele>910.14</ele>
<time>2015-04-29T10:05:35Z</time>
</trkpt>
<trkpt lat="34.8937792" lon="32.8350604">
<ele>909.45</ele>
<time>2015-04-29T10:05:36Z</time>
</trkpt>
<trkpt lat="34.8938451" lon="32.8351036">
<ele>910.10</ele>
<time>2015-04-29T10:05:37Z</time>
</trkpt>
<trkpt lat="34.8939051" lon="32.8351540">
<ele>910.43</ele>
<time>2015-04-29T10:05:38Z</time>
</trkpt>
<trkpt lat="34.8939456" lon="32.8352155">
<ele>910.10</ele>
<time>2015-04-29T10:05:39Z</time>
</trkpt>
<trkpt lat="34.8939828" lon="32.8352925">
<ele>909.93</ele>
<time>2015-04-29T10:05:40Z</time>
</trkpt>
<trkpt lat="34.8940267" lon="32.8353483">
<ele>909.34</ele>
<time>2015-04-29T10:05:41Z</time>
</trkpt>
<trkpt lat="34.8940566" lon="32.8354126">
<ele>908.55</ele>
<time>2015-04-29T10:05:42Z</time>
</trkpt>
<trkpt lat="34.8940917" lon="32.8354822">
<ele>907.66</ele>
<time>2015-04-29T10:05:43Z</time>
</trkpt>
<trkpt lat="34.8941282" lon="32.8355372">
<ele>907.21</ele>
<time>2015-04-29T10:05:44Z</time>
</trkpt>
<trkpt lat="34.8941770" lon="32.8355924">
<ele>906.48</ele>
<time>2015-04-29T10:05:45Z</time>
</trkpt>
<trkpt lat="34.8942302" lon="32.8356305">
<ele>906.12</ele>
<time>2015-04-29T10:05:46Z</time>
</trkpt>
<trkpt lat="34.8942853" lon="32.8356677">
<ele>905.44</ele>
<time>2015-04-29T10:05:47Z</time>
</trkpt>
<trkpt lat="34.8943480" lon="32.8357029">
<ele>905.10</ele>
<time>2015-04-29T10:05:48Z</time>
</trkpt>
<trkpt lat="34.8944058" lon="32.8357358">
<ele>904.93</ele>
<time>2015-04-29T10:05:49Z</time>
</trkpt>
<trkpt lat="34.8944572" lon="32.8357648">
<ele>904.35</ele>
<time>2015-04-29T10:05:50Z</time>
</trkpt>
<trkpt lat="34.8945123" lon="32.8357860">
<ele>904.05</ele>
<time>2015-04-29T10:05:51Z</time>
</trkpt>
<trkpt lat="34.8945708" lon="32.8358128">
<ele>904.41</ele>
<time>2015-04-29T10:05:52Z</time>
</trkpt>
<trkpt lat="34.8946260" lon="32.8358483">
<ele>904.08</ele>
<time>2015-04-29T10:05:53Z</time>
</trkpt>
<trkpt lat="34.8946819" lon="32.8358698">
<ele>903.92</ele>
<time>2015-04-29T10:05:54Z</time>
</trkpt>
<trkpt lat="34.8947370" lon="32.8359010">
<ele>903.84</ele>
<time>2015-04-29T10:05:55Z</time>
</trkpt>
<trkpt lat="34.8948019" lon="32.8359088">
<ele>902.80</ele>
<time>2015-04-29T10:05:56Z</time>
</trkpt>
<trkpt lat="34.8948590" lon="32.8359018">
<ele>902.28</ele>
<time>2015-04-29T10:05:57Z</time>
</trkpt>
<trkpt lat="34.8949047" lon="32.8358576">
<ele>902.02</ele>
<time>2015-04-29T10:05:58Z</time>
</trkpt>
<trkpt lat="34.8949517" lon="32.8358248">
<ele>901.89</ele>
<time>2015-04-29T10:05:59Z</time>
</trkpt>
<trkpt lat="34.8950001" lon="32.8357941">
<ele>901.83</ele>
<time>2015-04-29T10:06:00Z</time>
</trkpt>
<trkpt lat="34.8950480" lon="32.8357755">
<ele>901.79</ele>
<time>2015-04-29T10:06:01Z</time>
</trkpt>
<trkpt lat="34.8950952" lon="32.8357636">
<ele>901.78</ele>
<time>2015-04-29T10:06:02Z</time>
</trkpt>
<trkpt lat="34.8951519" lon="32.8357661">
<ele>901.77</ele>
<time>2015-04-29T10:06:03Z</time>
</trkpt>
<trkpt lat="34.8951989" lon="32.8357728">
<ele>902.26</ele>
<time>2015-04-29T10:06:04Z</time>
</trkpt>
<trkpt lat="34.8952392" lon="32.8358054">
<ele>902.01</ele>
<time>2015-04-29T10:06:05Z</time>
</trkpt>
<trkpt lat="34.8952743" lon="32.8358830">
<ele>902.57</ele>
<time>2015-04-29T10:06:07Z</time>
</trkpt>
<trkpt lat="34.8952976" lon="32.8359670">
<ele>902.71</ele>
<time>2015-04-29T10:06:09Z</time>
</trkpt>
<trkpt lat="34.8952810" lon="32.8360269">
<ele>902.69</ele>
<time>2015-04-29T10:06:13Z</time>
</trkpt>
<trkpt lat="34.8952380" lon="32.8359995">
<ele>901.27</ele>
<time>2015-04-29T10:06:26Z</time>
</trkpt>
<trkpt lat="34.8952148" lon="32.8360491">
<ele>891.86</ele>
<time>2015-04-29T10:08:15Z</time>
</trkpt>
<trkpt lat="34.8951728" lon="32.8360736">
<ele>899.23</ele>
<time>2015-04-29T10:08:56Z</time>
</trkpt>
<trkpt lat="34.8952149" lon="32.8360464">
<ele>903.09</ele>
<time>2015-04-29T10:16:55Z</time>
</trkpt>
<trkpt lat="34.8952046" lon="32.8361054">
<ele>906.85</ele>
<time>2015-04-29T10:26:31Z</time>
</trkpt>
<trkpt lat="34.8951780" lon="32.8361570">
<ele>905.29</ele>
<time>2015-04-29T10:26:41Z</time>
</trkpt>
<trkpt lat="34.8951430" lon="32.8362038">
<ele>905.75</ele>
<time>2015-04-29T10:26:46Z</time>
</trkpt>
<trkpt lat="34.8951009" lon="32.8362491">
<ele>905.45</ele>
<time>2015-04-29T10:26:50Z</time>
</trkpt>
<trkpt lat="34.8950647" lon="32.8362968">
<ele>905.72</ele>
<time>2015-04-29T10:26:53Z</time>
</trkpt>
<trkpt lat="34.8950297" lon="32.8363374">
<ele>904.88</ele>
<time>2015-04-29T10:26:56Z</time>
</trkpt>
<trkpt lat="34.8949812" lon="32.8363587">
<ele>904.58</ele>
<time>2015-04-29T10:27:00Z</time>
</trkpt>
<trkpt lat="34.8949868" lon="32.8363040">
<ele>909.03</ele>
<time>2015-04-29T10:27:15Z</time>
</trkpt>
<trkpt lat="34.8950373" lon="32.8362709">
<ele>907.60</ele>
<time>2015-04-29T10:27:26Z</time>
</trkpt>
<trkpt lat="34.8950784" lon="32.8362289">
<ele>906.44</ele>
<time>2015-04-29T10:27:30Z</time>
</trkpt>
<trkpt lat="34.8951155" lon="32.8361828">
<ele>906.24</ele>
<time>2015-04-29T10:27:34Z</time>
</trkpt>
<trkpt lat="34.8951548" lon="32.8361313">
<ele>905.79</ele>
<time>2015-04-29T10:27:38Z</time>
</trkpt>
<trkpt lat="34.8951930" lon="32.8360931">
<ele>906.51</ele>
<time>2015-04-29T10:27:42Z</time>
</trkpt>
<trkpt lat="34.8952339" lon="32.8360568">
<ele>903.60</ele>
<time>2015-04-29T10:27:47Z</time>
</trkpt>
<trkpt lat="34.8952311" lon="32.8359963">
<ele>907.42</ele>
<time>2015-04-29T10:29:18Z</time>
</trkpt>
<trkpt lat="34.8952284" lon="32.8359337">
<ele>906.28</ele>
<time>2015-04-29T10:29:23Z</time>
</trkpt>
<trkpt lat="34.8952288" lon="32.8358733">
<ele>902.33</ele>
<time>2015-04-29T10:29:40Z</time>
</trkpt>
<trkpt lat="34.8952681" lon="32.8359011">
<ele>898.98</ele>
<time>2015-04-29T10:29:56Z</time>
</trkpt>
<trkpt lat="34.8952696" lon="32.8359603">
<ele>895.58</ele>
<time>2015-04-29T10:30:03Z</time>
</trkpt>
<trkpt lat="34.8952623" lon="32.8360160">
<ele>896.18</ele>
<time>2015-04-29T10:30:09Z</time>
</trkpt>
<trkpt lat="34.8953040" lon="32.8360485">
<ele>905.29</ele>
<time>2015-04-29T10:32:25Z</time>
</trkpt>
<trkpt lat="34.8953552" lon="32.8360696">
<ele>904.85</ele>
<time>2015-04-29T10:32:33Z</time>
</trkpt>
<trkpt lat="34.8954036" lon="32.8360777">
<ele>905.70</ele>
<time>2015-04-29T10:32:37Z</time>
</trkpt>
<trkpt lat="34.8954538" lon="32.8361006">
<ele>906.76</ele>
<time>2015-04-29T10:32:41Z</time>
</trkpt>
<trkpt lat="34.8954903" lon="32.8361334">
<ele>907.82</ele>
<time>2015-04-29T10:32:45Z</time>
</trkpt>
<trkpt lat="34.8955249" lon="32.8361753">
<ele>908.97</ele>
<time>2015-04-29T10:32:56Z</time>
</trkpt>
<trkpt lat="34.8955721" lon="32.8361729">
<ele>907.56</ele>
<time>2015-04-29T10:35:17Z</time>
</trkpt>
<trkpt lat="34.8956186" lon="32.8361859">
<ele>906.65</ele>
<time>2015-04-29T10:35:34Z</time>
</trkpt>
<trkpt lat="34.8955659" lon="32.8361624">
<ele>910.29</ele>
<time>2015-04-29T10:41:22Z</time>
</trkpt>
<trkpt lat="34.8955144" lon="32.8361550">
<ele>910.48</ele>
<time>2015-04-29T10:41:26Z</time>
</trkpt>
<trkpt lat="34.8954651" lon="32.8361375">
<ele>911.43</ele>
<time>2015-04-29T10:41:30Z</time>
</trkpt>
<trkpt lat="34.8954192" lon="32.8361190">
<ele>912.86</ele>
<time>2015-04-29T10:41:34Z</time>
</trkpt>
<trkpt lat="34.8953774" lon="32.8360878">
<ele>914.42</ele>
<time>2015-04-29T10:41:39Z</time>
</trkpt>
<trkpt lat="34.8954200" lon="32.8361091">
<ele>911.05</ele>
<time>2015-04-29T10:41:51Z</time>
</trkpt>
<trkpt lat="34.8954694" lon="32.8361300">
<ele>909.83</ele>
<time>2015-04-29T10:41:56Z</time>
</trkpt>
<trkpt lat="34.8955148" lon="32.8361570">
<ele>908.76</ele>
<time>2015-04-29T10:42:01Z</time>
</trkpt>
<trkpt lat="34.8955568" lon="32.8361847">
<ele>908.57</ele>
<time>2015-04-29T10:42:05Z</time>
</trkpt>
<trkpt lat="34.8956011" lon="32.8361987">
<ele>912.04</ele>
<time>2015-04-29T10:42:24Z</time>
</trkpt>
<trkpt lat="34.8955573" lon="32.8361748">
<ele>906.93</ele>
<time>2015-04-29T10:44:00Z</time>
</trkpt>
<trkpt lat="34.8955148" lon="32.8361400">
<ele>906.23</ele>
<time>2015-04-29T10:44:06Z</time>
</trkpt>
<trkpt lat="34.8954714" lon="32.8361020">
<ele>907.85</ele>
<time>2015-04-29T10:44:12Z</time>
</trkpt>
<trkpt lat="34.8954192" lon="32.8360971">
<ele>911.27</ele>
<time>2015-04-29T10:44:16Z</time>
</trkpt>
<trkpt lat="34.8953611" lon="32.8360827">
<ele>913.85</ele>
<time>2015-04-29T10:44:20Z</time>
</trkpt>
<trkpt lat="34.8953067" lon="32.8360735">
<ele>915.45</ele>
<time>2015-04-29T10:44:24Z</time>
</trkpt>
<trkpt lat="34.8952566" lon="32.8360683">
<ele>914.99</ele>
<time>2015-04-29T10:44:28Z</time>
</trkpt>
<trkpt lat="34.8952089" lon="32.8360588">
<ele>912.11</ele>
<time>2015-04-29T10:44:34Z</time>
</trkpt>
<trkpt lat="34.8952081" lon="32.8361146">
<ele>911.07</ele>
<time>2015-04-29T10:46:23Z</time>
</trkpt>
<trkpt lat="34.8951751" lon="32.8361584">
<ele>911.22</ele>
<time>2015-04-29T10:46:27Z</time>
</trkpt>
<trkpt lat="34.8951387" lon="32.8362080">
<ele>909.79</ele>
<time>2015-04-29T10:46:31Z</time>
</trkpt>
<trkpt lat="34.8951100" lon="32.8362634">
<ele>909.20</ele>
<time>2015-04-29T10:46:35Z</time>
</trkpt>
<trkpt lat="34.8950785" lon="32.8363139">
<ele>909.29</ele>
<time>2015-04-29T10:46:39Z</time>
</trkpt>
<trkpt lat="34.8950376" lon="32.8363521">
<ele>910.11</ele>
<time>2015-04-29T10:46:43Z</time>
</trkpt>
<trkpt lat="34.8949880" lon="32.8363844">
<ele>909.03</ele>
<time>2015-04-29T10:46:47Z</time>
</trkpt>
<trkpt lat="34.8949439" lon="32.8364318">
<ele>908.84</ele>
<time>2015-04-29T10:46:51Z</time>
</trkpt>
<trkpt lat="34.8949006" lon="32.8364730">
<ele>908.33</ele>
<time>2015-04-29T10:46:55Z</time>
</trkpt>
<trkpt lat="34.8948535" lon="32.8364800">
<ele>907.80</ele>
<time>2015-04-29T10:46:59Z</time>
</trkpt>
<trkpt lat="34.8948083" lon="32.8364674">
<ele>905.64</ele>
<time>2015-04-29T10:47:03Z</time>
</trkpt>
<trkpt lat="34.8947518" lon="32.8364576">
<ele>907.13</ele>
<time>2015-04-29T10:47:07Z</time>
</trkpt>
<trkpt lat="34.8946958" lon="32.8364455">
<ele>906.53</ele>
<time>2015-04-29T10:47:11Z</time>
</trkpt>
<trkpt lat="34.8946461" lon="32.8364466">
<ele>905.06</ele>
<time>2015-04-29T10:47:15Z</time>
</trkpt>
<trkpt lat="34.8945914" lon="32.8364416">
<ele>905.47</ele>
<time>2015-04-29T10:47:19Z</time>
</trkpt>
<trkpt lat="34.8945320" lon="32.8364351">
<ele>903.93</ele>
<time>2015-04-29T10:47:23Z</time>
</trkpt>
<trkpt lat="34.8944796" lon="32.8364241">
<ele>904.53</ele>
<time>2015-04-29T10:47:26Z</time>
</trkpt>
<trkpt lat="34.8944249" lon="32.8364173">
<ele>904.98</ele>
<time>2015-04-29T10:47:29Z</time>
</trkpt>
<trkpt lat="34.8943699" lon="32.8364213">
<ele>907.02</ele>
<time>2015-04-29T10:47:33Z</time>
</trkpt>
<trkpt lat="34.8943233" lon="32.8364164">
<ele>908.53</ele>
<time>2015-04-29T10:47:37Z</time>
</trkpt>
<trkpt lat="34.8942673" lon="32.8364054">
<ele>911.06</ele>
<time>2015-04-29T10:47:41Z</time>
</trkpt>
<trkpt lat="34.8942190" lon="32.8363961">
<ele>911.55</ele>
<time>2015-04-29T10:47:44Z</time>
</trkpt>
<trkpt lat="34.8941671" lon="32.8363919">
<ele>910.86</ele>
<time>2015-04-29T10:47:47Z</time>
</trkpt>
<trkpt lat="34.8941189" lon="32.8363884">
<ele>911.02</ele>
<time>2015-04-29T10:47:50Z</time>
</trkpt>
<trkpt lat="34.8940763" lon="32.8364078">
<ele>908.79</ele>
<time>2015-04-29T10:47:53Z</time>
</trkpt>
<trkpt lat="34.8940340" lon="32.8364354">
<ele>908.89</ele>
<time>2015-04-29T10:47:56Z</time>
</trkpt>
<trkpt lat="34.8939831" lon="32.8364405">
<ele>908.28</ele>
<time>2015-04-29T10:47:59Z</time>
</trkpt>
<trkpt lat="34.8939375" lon="32.8364664">
<ele>904.17</ele>
<time>2015-04-29T10:48:03Z</time>
</trkpt>
<trkpt lat="34.8939138" lon="32.8365194">
<ele>906.46</ele>
<time>2015-04-29T10:48:08Z</time>
</trkpt>
<trkpt lat="34.8939055" lon="32.8365852">
<ele>909.22</ele>
<time>2015-04-29T10:48:13Z</time>
</trkpt>
<trkpt lat="34.8939222" lon="32.8366418">
<ele>911.16</ele>
<time>2015-04-29T10:48:17Z</time>
</trkpt>
<trkpt lat="34.8939423" lon="32.8367007">
<ele>911.22</ele>
<time>2015-04-29T10:48:21Z</time>
</trkpt>
<trkpt lat="34.8939700" lon="32.8367607">
<ele>912.16</ele>
<time>2015-04-29T10:48:25Z</time>
</trkpt>
<trkpt lat="34.8939938" lon="32.8368256">
<ele>913.66</ele>
<time>2015-04-29T10:48:29Z</time>
</trkpt>
<trkpt lat="34.8940112" lon="32.8368762">
<ele>915.25</ele>
<time>2015-04-29T10:48:32Z</time>
</trkpt>
<trkpt lat="34.8940351" lon="32.8369310">
<ele>913.57</ele>
<time>2015-04-29T10:48:35Z</time>
</trkpt>
<trkpt lat="34.8940520" lon="32.8369914">
<ele>912.36</ele>
<time>2015-04-29T10:48:38Z</time>
</trkpt>
<trkpt lat="34.8940763" lon="32.8370568">
<ele>912.46</ele>
<time>2015-04-29T10:48:41Z</time>
</trkpt>
<trkpt lat="34.8940949" lon="32.8371073">
<ele>913.94</ele>
<time>2015-04-29T10:48:43Z</time>
</trkpt>
<trkpt lat="34.8941121" lon="32.8371630">
<ele>915.30</ele>
<time>2015-04-29T10:48:45Z</time>
</trkpt>
<trkpt lat="34.8941286" lon="32.8372253">
<ele>914.40</ele>
<time>2015-04-29T10:48:47Z</time>
</trkpt>
<trkpt lat="34.8941337" lon="32.8372966">
<ele>913.42</ele>
<time>2015-04-29T10:48:49Z</time>
</trkpt>
<trkpt lat="34.8941162" lon="32.8373676">
<ele>913.67</ele>
<time>2015-04-29T10:48:51Z</time>
</trkpt>
<trkpt lat="34.8940766" lon="32.8374218">
<ele>913.74</ele>
<time>2015-04-29T10:48:53Z</time>
</trkpt>
<trkpt lat="34.8940184" lon="32.8374358">
<ele>913.75</ele>
<time>2015-04-29T10:48:55Z</time>
</trkpt>
<trkpt lat="34.8939566" lon="32.8374361">
<ele>913.76</ele>
<time>2015-04-29T10:48:57Z</time>
</trkpt>
<trkpt lat="34.8938976" lon="32.8374240">
<ele>913.01</ele>
<time>2015-04-29T10:48:59Z</time>
</trkpt>
<trkpt lat="34.8938358" lon="32.8373921">
<ele>913.32</ele>
<time>2015-04-29T10:49:01Z</time>
</trkpt>
<trkpt lat="34.8937708" lon="32.8373663">
<ele>913.65</ele>
<time>2015-04-29T10:49:03Z</time>
</trkpt>
<trkpt lat="34.8937012" lon="32.8373500">
<ele>914.23</ele>
<time>2015-04-29T10:49:05Z</time>
</trkpt>
<trkpt lat="34.8936372" lon="32.8373422">
<ele>914.38</ele>
<time>2015-04-29T10:49:07Z</time>
</trkpt>
<trkpt lat="34.8935915" lon="32.8373456">
<ele>913.57</ele>
<time>2015-04-29T10:49:08Z</time>
</trkpt>
<trkpt lat="34.8935258" lon="32.8373354">
<ele>910.46</ele>
<time>2015-04-29T10:49:10Z</time>
</trkpt>
<trkpt lat="34.8934747" lon="32.8372863">
<ele>909.19</ele>
<time>2015-04-29T10:49:12Z</time>
</trkpt>
<trkpt lat="34.8934354" lon="32.8372201">
<ele>908.87</ele>
<time>2015-04-29T10:49:14Z</time>
</trkpt>
<trkpt lat="34.8933996" lon="32.8371500">
<ele>909.54</ele>
<time>2015-04-29T10:49:16Z</time>
</trkpt>
<trkpt lat="34.8933691" lon="32.8370834">
<ele>909.20</ele>
<time>2015-04-29T10:49:18Z</time>
</trkpt>
<trkpt lat="34.8933375" lon="32.8370215">
<ele>910.37</ele>
<time>2015-04-29T10:49:20Z</time>
</trkpt>
<trkpt lat="34.8933020" lon="32.8369654">
<ele>911.91</ele>
<time>2015-04-29T10:49:22Z</time>
</trkpt>
<trkpt lat="34.8932746" lon="32.8369153">
<ele>911.80</ele>
<time>2015-04-29T10:49:24Z</time>
</trkpt>
<trkpt lat="34.8932478" lon="32.8368707">
<ele>912.52</ele>
<time>2015-04-29T10:49:26Z</time>
</trkpt>
<trkpt lat="34.8932153" lon="32.8368162">
<ele>913.98</ele>
<time>2015-04-29T10:49:29Z</time>
</trkpt>
<trkpt lat="34.8931696" lon="32.8367680">
<ele>913.29</ele>
<time>2015-04-29T10:49:32Z</time>
</trkpt>
<trkpt lat="34.8931333" lon="32.8367239">
<ele>914.39</ele>
<time>2015-04-29T10:49:34Z</time>
</trkpt>
<trkpt lat="34.8930972" lon="32.8366699">
<ele>914.67</ele>
<time>2015-04-29T10:49:36Z</time>
</trkpt>
<trkpt lat="34.8930652" lon="32.8366115">
<ele>916.24</ele>
<time>2015-04-29T10:49:38Z</time>
</trkpt>
<trkpt lat="34.8930419" lon="32.8365515">
<ele>917.00</ele>
<time>2015-04-29T10:49:39Z</time>
</trkpt>
<trkpt lat="34.8930105" lon="32.8364508">
<ele>916.57</ele>
<time>2015-04-29T10:49:41Z</time>
</trkpt>
<trkpt lat="34.8929770" lon="32.8363526">
<ele>916.71</ele>
<time>2015-04-29T10:49:43Z</time>
</trkpt>
<trkpt lat="34.8929284" lon="32.8362559">
<ele>917.50</ele>
<time>2015-04-29T10:49:45Z</time>
</trkpt>
<trkpt lat="34.8928396" lon="32.8361523">
<ele>918.94</ele>
<time>2015-04-29T10:49:47Z</time>
</trkpt>
<trkpt lat="34.8927929" lon="32.8360821">
<ele>918.81</ele>
<time>2015-04-29T10:49:49Z</time>
</trkpt>
<trkpt lat="34.8927243" lon="32.8360444">
<ele>918.77</ele>
<time>2015-04-29T10:49:51Z</time>
</trkpt>
<trkpt lat="34.8926610" lon="32.8360377">
<ele>918.01</ele>
<time>2015-04-29T10:49:53Z</time>
</trkpt>
<trkpt lat="34.8925910" lon="32.8360514">
<ele>917.82</ele>
<time>2015-04-29T10:49:55Z</time>
</trkpt>
<trkpt lat="34.8925258" lon="32.8360924">
<ele>917.28</ele>
<time>2015-04-29T10:49:57Z</time>
</trkpt>
<trkpt lat="34.8924745" lon="32.8361414">
<ele>916.89</ele>
<time>2015-04-29T10:49:59Z</time>
</trkpt>
<trkpt lat="34.8924473" lon="32.8362068">
<ele>915.54</ele>
<time>2015-04-29T10:50:01Z</time>
</trkpt>
<trkpt lat="34.8924294" lon="32.8362755">
<ele>914.21</ele>
<time>2015-04-29T10:50:03Z</time>
</trkpt>
<trkpt lat="34.8924317" lon="32.8363541">
<ele>914.12</ele>
<time>2015-04-29T10:50:05Z</time>
</trkpt>
<trkpt lat="34.8924530" lon="32.8364164">
<ele>914.35</ele>
<time>2015-04-29T10:50:07Z</time>
</trkpt>
<trkpt lat="34.8924611" lon="32.8364728">
<ele>916.66</ele>
<time>2015-04-29T10:50:09Z</time>
</trkpt>
<trkpt lat="34.8924571" lon="32.8365296">
<ele>917.48</ele>
<time>2015-04-29T10:50:11Z</time>
</trkpt>
<trkpt lat="34.8924624" lon="32.8366056">
<ele>916.98</ele>
<time>2015-04-29T10:50:14Z</time>
</trkpt>
<trkpt lat="34.8924704" lon="32.8366715">
<ele>916.04</ele>
<time>2015-04-29T10:50:17Z</time>
</trkpt>
<trkpt lat="34.8924958" lon="32.8367227">
<ele>915.34</ele>
<time>2015-04-29T10:50:21Z</time>
</trkpt>
<trkpt lat="34.8925426" lon="32.8367625">
<ele>915.05</ele>
<time>2015-04-29T10:50:25Z</time>
</trkpt>
<trkpt lat="34.8925905" lon="32.8367907">
<ele>912.30</ele>
<time>2015-04-29T10:50:28Z</time>
</trkpt>
<trkpt lat="34.8926136" lon="32.8368386">
<ele>911.95</ele>
<time>2015-04-29T10:50:31Z</time>
</trkpt>
<trkpt lat="34.8926147" lon="32.8369115">
<ele>914.52</ele>
<time>2015-04-29T10:50:35Z</time>
</trkpt>
<trkpt lat="34.8926002" lon="32.8369746">
<ele>915.93</ele>
<time>2015-04-29T10:50:39Z</time>
</trkpt>
<trkpt lat="34.8925601" lon="32.8370102">
<ele>916.90</ele>
<time>2015-04-29T10:50:43Z</time>
</trkpt>
<trkpt lat="34.8925215" lon="32.8370590">
<ele>916.29</ele>
<time>2015-04-29T10:50:49Z</time>
</trkpt>
<trkpt lat="34.8925010" lon="32.8371168">
<ele>920.86</ele>
<time>2015-04-29T10:50:53Z</time>
</trkpt>
<trkpt lat="34.8924564" lon="32.8370974">
<ele>922.79</ele>
<time>2015-04-29T10:50:58Z</time>
</trkpt>
<trkpt lat="34.8925082" lon="32.8371093">
<ele>928.99</ele>
<time>2015-04-29T10:51:25Z</time>
</trkpt>
<trkpt lat="34.8925539" lon="32.8371057">
<ele>928.65</ele>
<time>2015-04-29T10:51:29Z</time>
</trkpt>
<trkpt lat="34.8926042" lon="32.8370898">
<ele>931.75</ele>
<time>2015-04-29T10:51:33Z</time>
</trkpt>
<trkpt lat="34.8926493" lon="32.8371234">
<ele>931.57</ele>
<time>2015-04-29T10:51:37Z</time>
</trkpt>
<trkpt lat="34.8926065" lon="32.8370791">
<ele>930.81</ele>
<time>2015-04-29T10:51:55Z</time>
</trkpt>
<trkpt lat="34.8925588" lon="32.8370795">
<ele>929.89</ele>
<time>2015-04-29T10:51:58Z</time>
</trkpt>
<trkpt lat="34.8925040" lon="32.8370757">
<ele>927.02</ele>
<time>2015-04-29T10:52:02Z</time>
</trkpt>
<trkpt lat="34.8924565" lon="32.8370866">
<ele>929.36</ele>
<time>2015-04-29T10:52:08Z</time>
</trkpt>
<trkpt lat="34.8923996" lon="32.8370691">
<ele>929.92</ele>
<time>2015-04-29T10:52:12Z</time>
</trkpt>
<trkpt lat="34.8923565" lon="32.8370510">
<ele>927.66</ele>
<time>2015-04-29T10:52:15Z</time>
</trkpt>
<trkpt lat="34.8923000" lon="32.8370567">
<ele>925.88</ele>
<time>2015-04-29T10:52:19Z</time>
</trkpt>
<trkpt lat="34.8922597" lon="32.8370840">
<ele>926.52</ele>
<time>2015-04-29T10:52:22Z</time>
</trkpt>
<trkpt lat="34.8922224" lon="32.8371405">
<ele>926.75</ele>
<time>2015-04-29T10:52:26Z</time>
</trkpt>
<trkpt lat="34.8922071" lon="32.8371957">
<ele>924.26</ele>
<time>2015-04-29T10:52:29Z</time>
</trkpt>
<trkpt lat="34.8921917" lon="32.8372575">
<ele>923.82</ele>
<time>2015-04-29T10:52:32Z</time>
</trkpt>
<trkpt lat="34.8921641" lon="32.8373306">
<ele>926.39</ele>
<time>2015-04-29T10:52:35Z</time>
</trkpt>
<trkpt lat="34.8921578" lon="32.8373942">
<ele>926.42</ele>
<time>2015-04-29T10:52:37Z</time>
</trkpt>
<trkpt lat="34.8921682" lon="32.8374507">
<ele>925.92</ele>
<time>2015-04-29T10:52:39Z</time>
</trkpt>
<trkpt lat="34.8921880" lon="32.8375044">
<ele>924.05</ele>
<time>2015-04-29T10:52:41Z</time>
</trkpt>
<trkpt lat="34.8922014" lon="32.8375579">
<ele>924.33</ele>
<time>2015-04-29T10:52:43Z</time>
</trkpt>
<trkpt lat="34.8922044" lon="32.8376157">
<ele>926.15</ele>
<time>2015-04-29T10:52:45Z</time>
</trkpt>
<trkpt lat="34.8922114" lon="32.8376703">
<ele>926.11</ele>
<time>2015-04-29T10:52:47Z</time>
</trkpt>
<trkpt lat="34.8922208" lon="32.8377267">
<ele>926.10</ele>
<time>2015-04-29T10:52:49Z</time>
</trkpt>
<trkpt lat="34.8922249" lon="32.8378071">
<ele>925.80</ele>
<time>2015-04-29T10:52:52Z</time>
</trkpt>
<trkpt lat="34.8922180" lon="32.8378874">
<ele>926.52</ele>
<time>2015-04-29T10:52:55Z</time>
</trkpt>
<trkpt lat="34.8922106" lon="32.8379600">
<ele>927.48</ele>
<time>2015-04-29T10:52:58Z</time>
</trkpt>
<trkpt lat="34.8921896" lon="32.8380304">
<ele>928.47</ele>
<time>2015-04-29T10:53:01Z</time>
</trkpt>
<trkpt lat="34.8921788" lon="32.8381019">
<ele>929.97</ele>
<time>2015-04-29T10:53:04Z</time>
</trkpt>
<trkpt lat="34.8921646" lon="32.8381715">
<ele>932.79</ele>
<time>2015-04-29T10:53:07Z</time>
</trkpt>
<trkpt lat="34.8921650" lon="32.8382316">
<ele>934.26</ele>
<time>2015-04-29T10:53:10Z</time>
</trkpt>
<trkpt lat="34.8921716" lon="32.8383025">
<ele>933.92</ele>
<time>2015-04-29T10:53:14Z</time>
</trkpt>
<trkpt lat="34.8921813" lon="32.8383580">
<ele>932.90</ele>
<time>2015-04-29T10:53:17Z</time>
</trkpt>
<trkpt lat="34.8921962" lon="32.8384265">
<ele>932.64</ele>
<time>2015-04-29T10:53:21Z</time>
</trkpt>
<trkpt lat="34.8921885" lon="32.8384866">
<ele>931.82</ele>
<time>2015-04-29T10:53:25Z</time>
</trkpt>
<trkpt lat="34.8922394" lon="32.8385050">
<ele>926.61</ele>
<time>2015-04-29T10:53:35Z</time>
</trkpt>
<trkpt lat="34.8922739" lon="32.8384556">
<ele>927.19</ele>
<time>2015-04-29T10:53:39Z</time>
</trkpt>
<trkpt lat="34.8923009" lon="32.8384062">
<ele>929.47</ele>
<time>2015-04-29T10:53:43Z</time>
</trkpt>
<trkpt lat="34.8922818" lon="32.8383390">
<ele>931.55</ele>
<time>2015-04-29T10:53:47Z</time>
</trkpt>
<trkpt lat="34.8922630" lon="32.8382843">
<ele>932.11</ele>
<time>2015-04-29T10:53:50Z</time>
</trkpt>
<trkpt lat="34.8922526" lon="32.8382210">
<ele>932.41</ele>
<time>2015-04-29T10:53:54Z</time>
</trkpt>
<trkpt lat="34.8922585" lon="32.8381578">
<ele>932.93</ele>
<time>2015-04-29T10:53:58Z</time>
</trkpt>
<trkpt lat="34.8923081" lon="32.8381365">
<ele>932.76</ele>
<time>2015-04-29T10:54:35Z</time>
</trkpt>
<trkpt lat="34.8923597" lon="32.8381594">
<ele>933.70</ele>
<time>2015-04-29T10:54:39Z</time>
</trkpt>
<trkpt lat="34.8923742" lon="32.8382130">
<ele>934.50</ele>
<time>2015-04-29T10:54:42Z</time>
</trkpt>
<trkpt lat="34.8923798" lon="32.8382732">
<ele>934.73</ele>
<time>2015-04-29T10:54:45Z</time>
</trkpt>
<trkpt lat="34.8923866" lon="32.8383321">
<ele>934.76</ele>
<time>2015-04-29T10:54:48Z</time>
</trkpt>
<trkpt lat="34.8924015" lon="32.8383978">
<ele>939.88</ele>
<time>2015-04-29T10:54:52Z</time>
</trkpt>
<trkpt lat="34.8924038" lon="32.8384641">
<ele>941.58</ele>
<time>2015-04-29T10:54:56Z</time>
</trkpt>
<trkpt lat="34.8924078" lon="32.8385312">
<ele>941.37</ele>
<time>2015-04-29T10:55:00Z</time>
</trkpt>
<trkpt lat="34.8924020" lon="32.8385958">
<ele>942.49</ele>
<time>2015-04-29T10:55:04Z</time>
</trkpt>
<trkpt lat="34.8924001" lon="32.8386682">
<ele>941.12</ele>
<time>2015-04-29T10:55:08Z</time>
</trkpt>
<trkpt lat="34.8923947" lon="32.8387349">
<ele>941.55</ele>
<time>2015-04-29T10:55:11Z</time>
</trkpt>
<trkpt lat="34.8923840" lon="32.8387924">
<ele>942.48</ele>
<time>2015-04-29T10:55:14Z</time>
</trkpt>
<trkpt lat="34.8923752" lon="32.8388522">
<ele>944.23</ele>
<time>2015-04-29T10:55:17Z</time>
</trkpt>
<trkpt lat="34.8923663" lon="32.8389182">
<ele>943.32</ele>
<time>2015-04-29T10:55:20Z</time>
</trkpt>
<trkpt lat="34.8923519" lon="32.8389860">
<ele>943.20</ele>
<time>2015-04-29T10:55:23Z</time>
</trkpt>
<trkpt lat="34.8923302" lon="32.8390474">
<ele>942.82</ele>
<time>2015-04-29T10:55:26Z</time>
</trkpt>
<trkpt lat="34.8923042" lon="32.8390978">
<ele>943.27</ele>
<time>2015-04-29T10:55:29Z</time>
</trkpt>
<trkpt lat="34.8922708" lon="32.8391557">
<ele>941.73</ele>
<time>2015-04-29T10:55:33Z</time>
</trkpt>
<trkpt lat="34.8922342" lon="32.8392072">
<ele>942.20</ele>
<time>2015-04-29T10:55:37Z</time>
</trkpt>
<trkpt lat="34.8921762" lon="32.8392311">
<ele>943.54</ele>
<time>2015-04-29T10:55:41Z</time>
</trkpt>
<trkpt lat="34.8921282" lon="32.8392487">
<ele>943.23</ele>
<time>2015-04-29T10:55:44Z</time>
</trkpt>
<trkpt lat="34.8920793" lon="32.8392526">
<ele>941.44</ele>
<time>2015-04-29T10:55:47Z</time>
</trkpt>
<trkpt lat="34.8920254" lon="32.8392471">
<ele>942.60</ele>
<time>2015-04-29T10:55:50Z</time>
</trkpt>
<trkpt lat="34.8919736" lon="32.8392461">
<ele>943.86</ele>
<time>2015-04-29T10:55:53Z</time>
</trkpt>
<trkpt lat="34.8919287" lon="32.8392284">
<ele>945.15</ele>
<time>2015-04-29T10:55:56Z</time>
</trkpt>
<trkpt lat="34.8918915" lon="32.8391968">
<ele>945.18</ele>
<time>2015-04-29T10:55:59Z</time>
</trkpt>
<trkpt lat="34.8918612" lon="32.8391559">
<ele>944.69</ele>
<time>2015-04-29T10:56:02Z</time>
</trkpt>
<trkpt lat="34.8918438" lon="32.8391010">
<ele>944.25</ele>
<time>2015-04-29T10:56:05Z</time>
</trkpt>
<trkpt lat="34.8918345" lon="32.8390370">
<ele>944.70</ele>
<time>2015-04-29T10:56:08Z</time>
</trkpt>
<trkpt lat="34.8918147" lon="32.8389712">
<ele>944.75</ele>
<time>2015-04-29T10:56:11Z</time>
</trkpt>
<trkpt lat="34.8917941" lon="32.8388983">
<ele>945.26</ele>
<time>2015-04-29T10:56:14Z</time>
</trkpt>
<trkpt lat="34.8917630" lon="32.8388289">
<ele>944.45</ele>
<time>2015-04-29T10:56:17Z</time>
</trkpt>
<trkpt lat="34.8917341" lon="32.8387652">
<ele>944.72</ele>
<time>2015-04-29T10:56:20Z</time>
</trkpt>
<trkpt lat="34.8917020" lon="32.8387082">
<ele>944.51</ele>
<time>2015-04-29T10:56:23Z</time>
</trkpt>
<trkpt lat="34.8916672" lon="32.8386490">
<ele>947.10</ele>
<time>2015-04-29T10:56:26Z</time>
</trkpt>
<trkpt lat="34.8916288" lon="32.8386026">
<ele>949.30</ele>
<time>2015-04-29T10:56:29Z</time>
</trkpt>
<trkpt lat="34.8915915" lon="32.8385582">
<ele>949.45</ele>
<time>2015-04-29T10:56:32Z</time>
</trkpt>
<trkpt lat="34.8915616" lon="32.8385122">
<ele>949.22</ele>
<time>2015-04-29T10:56:35Z</time>
</trkpt>
<trkpt lat="34.8915266" lon="32.8384752">
<ele>947.82</ele>
<time>2015-04-29T10:56:38Z</time>
</trkpt>
<trkpt lat="34.8914887" lon="32.8384394">
<ele>948.52</ele>
<time>2015-04-29T10:56:41Z</time>
</trkpt>
<trkpt lat="34.8914395" lon="32.8384257">
<ele>950.37</ele>
<time>2015-04-29T10:56:45Z</time>
</trkpt>
<trkpt lat="34.8913879" lon="32.8384418">
<ele>950.28</ele>
<time>2015-04-29T10:56:50Z</time>
</trkpt>
<trkpt lat="34.8913377" lon="32.8384728">
<ele>951.35</ele>
<time>2015-04-29T10:56:54Z</time>
</trkpt>
<trkpt lat="34.8912868" lon="32.8385087">
<ele>952.36</ele>
<time>2015-04-29T10:56:58Z</time>
</trkpt>
<trkpt lat="34.8912471" lon="32.8385358">
<ele>954.33</ele>
<time>2015-04-29T10:57:01Z</time>
</trkpt>
<trkpt lat="34.8912126" lon="32.8385718">
<ele>955.96</ele>
<time>2015-04-29T10:57:04Z</time>
</trkpt>
<trkpt lat="34.8911765" lon="32.8386118">
<ele>956.66</ele>
<time>2015-04-29T10:57:07Z</time>
</trkpt>
<trkpt lat="34.8911382" lon="32.8386560">
<ele>957.00</ele>
<time>2015-04-29T10:57:10Z</time>
</trkpt>
<trkpt lat="34.8910954" lon="32.8386978">
<ele>957.91</ele>
<time>2015-04-29T10:57:13Z</time>
</trkpt>
<trkpt lat="34.8910515" lon="32.8387355">
<ele>958.40</ele>
<time>2015-04-29T10:57:16Z</time>
</trkpt>
<trkpt lat="34.8910068" lon="32.8387730">
<ele>960.34</ele>
<time>2015-04-29T10:57:19Z</time>
</trkpt>
<trkpt lat="34.8909536" lon="32.8388114">
<ele>960.83</ele>
<time>2015-04-29T10:57:22Z</time>
</trkpt>
<trkpt lat="34.8909056" lon="32.8388492">
<ele>960.27</ele>
<time>2015-04-29T10:57:25Z</time>
</trkpt>
<trkpt lat="34.8908564" lon="32.8388774">
<ele>960.57</ele>
<time>2015-04-29T10:57:28Z</time>
</trkpt>
<trkpt lat="34.8908034" lon="32.8389074">
<ele>960.49</ele>
<time>2015-04-29T10:57:31Z</time>
</trkpt>
<trkpt lat="34.8907466" lon="32.8389305">
<ele>959.48</ele>
<time>2015-04-29T10:57:34Z</time>
</trkpt>
<trkpt lat="34.8906880" lon="32.8389368">
<ele>960.60</ele>
<time>2015-04-29T10:57:37Z</time>
</trkpt>
<trkpt lat="34.8906243" lon="32.8389334">
<ele>962.86</ele>
<time>2015-04-29T10:57:40Z</time>
</trkpt>
<trkpt lat="34.8905580" lon="32.8389375">
<ele>963.65</ele>
<time>2015-04-29T10:57:43Z</time>
</trkpt>
<trkpt lat="34.8904954" lon="32.8389447">
<ele>964.25</ele>
<time>2015-04-29T10:57:46Z</time>
</trkpt>
<trkpt lat="34.8904360" lon="32.8389577">
<ele>965.45</ele>
<time>2015-04-29T10:57:49Z</time>
</trkpt>
<trkpt lat="34.8903852" lon="32.8389958">
<ele>964.60</ele>
<time>2015-04-29T10:57:52Z</time>
</trkpt>
<trkpt lat="34.8903424" lon="32.8390359">
<ele>964.74</ele>
<time>2015-04-29T10:57:55Z</time>
</trkpt>
<trkpt lat="34.8903180" lon="32.8390953">
<ele>964.76</ele>
<time>2015-04-29T10:57:58Z</time>
</trkpt>
<trkpt lat="34.8903002" lon="32.8391572">
<ele>964.01</ele>
<time>2015-04-29T10:58:01Z</time>
</trkpt>
<trkpt lat="34.8902790" lon="32.8392116">
<ele>965.92</ele>
<time>2015-04-29T10:58:04Z</time>
</trkpt>
<trkpt lat="34.8902429" lon="32.8392552">
<ele>966.40</ele>
<time>2015-04-29T10:58:07Z</time>
</trkpt>
<trkpt lat="34.8901966" lon="32.8392723">
<ele>966.84</ele>
<time>2015-04-29T10:58:10Z</time>
</trkpt>
<trkpt lat="34.8901368" lon="32.8392665">
<ele>966.77</ele>
<time>2015-04-29T10:58:13Z</time>
</trkpt>
<trkpt lat="34.8900732" lon="32.8392492">
<ele>965.89</ele>
<time>2015-04-29T10:58:16Z</time>
</trkpt>
<trkpt lat="34.8900107" lon="32.8392280">
<ele>966.28</ele>
<time>2015-04-29T10:58:19Z</time>
</trkpt>
<trkpt lat="34.8899526" lon="32.8392132">
<ele>966.70</ele>
<time>2015-04-29T10:58:22Z</time>
</trkpt>
<trkpt lat="34.8899026" lon="32.8391871">
<ele>967.25</ele>
<time>2015-04-29T10:58:25Z</time>
</trkpt>
<trkpt lat="34.8898635" lon="32.8391478">
<ele>966.70</ele>
<time>2015-04-29T10:58:28Z</time>
</trkpt>
<trkpt lat="34.8898158" lon="32.8391200">
<ele>967.63</ele>
<time>2015-04-29T10:58:31Z</time>
</trkpt>
<trkpt lat="34.8897634" lon="32.8391061">
<ele>967.99</ele>
<time>2015-04-29T10:58:34Z</time>
</trkpt>
<trkpt lat="34.8897174" lon="32.8390871">
<ele>969.41</ele>
<time>2015-04-29T10:58:37Z</time>
</trkpt>
<trkpt lat="34.8896680" lon="32.8390615">
<ele>970.30</ele>
<time>2015-04-29T10:58:41Z</time>
</trkpt>
<trkpt lat="34.8896239" lon="32.8390371">
<ele>972.11</ele>
<time>2015-04-29T10:58:45Z</time>
</trkpt>
<trkpt lat="34.8895798" lon="32.8390121">
<ele>971.78</ele>
<time>2015-04-29T10:58:49Z</time>
</trkpt>
<trkpt lat="34.8895310" lon="32.8389821">
<ele>972.01</ele>
<time>2015-04-29T10:58:53Z</time>
</trkpt>
<trkpt lat="34.8894768" lon="32.8389636">
<ele>972.71</ele>
<time>2015-04-29T10:58:57Z</time>
</trkpt>
<trkpt lat="34.8894192" lon="32.8389492">
<ele>972.76</ele>
<time>2015-04-29T10:59:01Z</time>
</trkpt>
<trkpt lat="34.8893666" lon="32.8389420">
<ele>974.88</ele>
<time>2015-04-29T10:59:05Z</time>
</trkpt>
<trkpt lat="34.8893137" lon="32.8389266">
<ele>974.83</ele>
<time>2015-04-29T10:59:09Z</time>
</trkpt>
<trkpt lat="34.8892578" lon="32.8389163">
<ele>974.70</ele>
<time>2015-04-29T10:59:13Z</time>
</trkpt>
<trkpt lat="34.8892034" lon="32.8389156">
<ele>977.32</ele>
<time>2015-04-29T10:59:17Z</time>
</trkpt>
<trkpt lat="34.8891606" lon="32.8388987">
<ele>977.20</ele>
<time>2015-04-29T10:59:20Z</time>
</trkpt>
<trkpt lat="34.8891155" lon="32.8388906">
<ele>976.69</ele>
<time>2015-04-29T10:59:23Z</time>
</trkpt>
<trkpt lat="34.8890610" lon="32.8388968">
<ele>977.51</ele>
<time>2015-04-29T10:59:27Z</time>
</trkpt>
<trkpt lat="34.8890160" lon="32.8389008">
<ele>976.81</ele>
<time>2015-04-29T10:59:31Z</time>
</trkpt>
<trkpt lat="34.8889606" lon="32.8389077">
<ele>976.76</ele>
<time>2015-04-29T10:59:35Z</time>
</trkpt>
<trkpt lat="34.8889137" lon="32.8389057">
<ele>976.76</ele>
<time>2015-04-29T10:59:38Z</time>
</trkpt>
<trkpt lat="34.8888569" lon="32.8389296">
<ele>976.76</ele>
<time>2015-04-29T10:59:41Z</time>
</trkpt>
<trkpt lat="34.8888058" lon="32.8389596">
<ele>977.51</ele>
<time>2015-04-29T10:59:44Z</time>
</trkpt>
<trkpt lat="34.8887640" lon="32.8389896">
<ele>977.73</ele>
<time>2015-04-29T10:59:47Z</time>
</trkpt>
<trkpt lat="34.8887187" lon="32.8390358">
<ele>978.51</ele>
<time>2015-04-29T10:59:51Z</time>
</trkpt>
<trkpt lat="34.8886848" lon="32.8390758">
<ele>979.48</ele>
<time>2015-04-29T10:59:54Z</time>
</trkpt>
<trkpt lat="34.8886536" lon="32.8391187">
<ele>980.22</ele>
<time>2015-04-29T10:59:57Z</time>
</trkpt>
<trkpt lat="34.8886166" lon="32.8391738">
<ele>980.73</ele>
<time>2015-04-29T11:00:01Z</time>
</trkpt>
<trkpt lat="34.8885795" lon="32.8392219">
<ele>981.26</ele>
<time>2015-04-29T11:00:05Z</time>
</trkpt>
<trkpt lat="34.8885501" lon="32.8392710">
<ele>982.26</ele>
<time>2015-04-29T11:00:12Z</time>
</trkpt>
<trkpt lat="34.8885084" lon="32.8393155">
<ele>983.68</ele>
<time>2015-04-29T11:00:17Z</time>
</trkpt>
<trkpt lat="34.8884654" lon="32.8393542">
<ele>984.69</ele>
<time>2015-04-29T11:00:21Z</time>
</trkpt>
<trkpt lat="34.8884176" lon="32.8393816">
<ele>985.69</ele>
<time>2015-04-29T11:00:25Z</time>
</trkpt>
<trkpt lat="34.8883710" lon="32.8394042">
<ele>985.75</ele>
<time>2015-04-29T11:00:28Z</time>
</trkpt>
<trkpt lat="34.8883270" lon="32.8394199">
<ele>986.51</ele>
<time>2015-04-29T11:00:30Z</time>
</trkpt>
<trkpt lat="34.8882706" lon="32.8394239">
<ele>987.23</ele>
<time>2015-04-29T11:00:33Z</time>
</trkpt>
<trkpt lat="34.8882147" lon="32.8394074">
<ele>988.19</ele>
<time>2015-04-29T11:00:36Z</time>
</trkpt>
<trkpt lat="34.8881691" lon="32.8393932">
<ele>988.72</ele>
<time>2015-04-29T11:00:40Z</time>
</trkpt>
<trkpt lat="34.8881136" lon="32.8393740">
<ele>989.63</ele>
<time>2015-04-29T11:00:43Z</time>
</trkpt>
<trkpt lat="34.8880579" lon="32.8393521">
<ele>989.99</ele>
<time>2015-04-29T11:00:46Z</time>
</trkpt>
<trkpt lat="34.8880065" lon="32.8393206">
<ele>989.77</ele>
<time>2015-04-29T11:00:51Z</time>
</trkpt>
<trkpt lat="34.8879468" lon="32.8392907">
<ele>989.76</ele>
<time>2015-04-29T11:00:54Z</time>
</trkpt>
<trkpt lat="34.8878905" lon="32.8392670">
<ele>989.76</ele>
<time>2015-04-29T11:00:56Z</time>
</trkpt>
<trkpt lat="34.8878335" lon="32.8392510">
<ele>990.01</ele>
<time>2015-04-29T11:00:58Z</time>
</trkpt>
<trkpt lat="34.8877769" lon="32.8392369">
<ele>989.82</ele>
<time>2015-04-29T11:01:00Z</time>
</trkpt>
<trkpt lat="34.8877189" lon="32.8392218">
<ele>989.78</ele>
<time>2015-04-29T11:01:02Z</time>
</trkpt>
<trkpt lat="34.8876569" lon="32.8392135">
<ele>989.01</ele>
<time>2015-04-29T11:01:04Z</time>
</trkpt>
<trkpt lat="34.8875808" lon="32.8392178">
<ele>988.07</ele>
<time>2015-04-29T11:01:06Z</time>
</trkpt>
<trkpt lat="34.8875024" lon="32.8392337">
<ele>987.92</ele>
<time>2015-04-29T11:01:07Z</time>
</trkpt>
<trkpt lat="34.8874520" lon="32.8392382">
<ele>987.84</ele>
<time>2015-04-29T11:01:08Z</time>
</trkpt>
<trkpt lat="34.8873500" lon="32.8392420">
<ele>987.03</ele>
<time>2015-04-29T11:01:10Z</time>
</trkpt>
<trkpt lat="34.8873002" lon="32.8392521">
<ele>986.89</ele>
<time>2015-04-29T11:01:11Z</time>
</trkpt>
<trkpt lat="34.8872649" lon="32.8392905">
<ele>986.83</ele>
<time>2015-04-29T11:01:12Z</time>
</trkpt>
<trkpt lat="34.8872149" lon="32.8393181">
<ele>986.29</ele>
<time>2015-04-29T11:01:13Z</time>
</trkpt>
<trkpt lat="34.8871652" lon="32.8393384">
<ele>986.03</ele>
<time>2015-04-29T11:01:14Z</time>
</trkpt>
<trkpt lat="34.8871168" lon="32.8393585">
<ele>985.39</ele>
<time>2015-04-29T11:01:15Z</time>
</trkpt>
<trkpt lat="34.8870663" lon="32.8393795">
<ele>985.08</ele>
<time>2015-04-29T11:01:16Z</time>
</trkpt>
<trkpt lat="34.8870128" lon="32.8393994">
<ele>984.42</ele>
<time>2015-04-29T11:01:17Z</time>
</trkpt>
<trkpt lat="34.8869593" lon="32.8394160">
<ele>984.09</ele>
<time>2015-04-29T11:01:18Z</time>
</trkpt>
<trkpt lat="34.8869020" lon="32.8394299">
<ele>983.92</ele>
<time>2015-04-29T11:01:19Z</time>
</trkpt>
<trkpt lat="34.8868447" lon="32.8394560">
<ele>984.34</ele>
<time>2015-04-29T11:01:20Z</time>
</trkpt>
<trkpt lat="34.8867838" lon="32.8394744">
<ele>984.05</ele>
<time>2015-04-29T11:01:21Z</time>
</trkpt>
<trkpt lat="34.8867188" lon="32.8394914">
<ele>983.41</ele>
<time>2015-04-29T11:01:22Z</time>
</trkpt>
<trkpt lat="34.8866522" lon="32.8395139">
<ele>982.58</ele>
<time>2015-04-29T11:01:23Z</time>
</trkpt>
<trkpt lat="34.8865816" lon="32.8395315">
<ele>981.67</ele>
<time>2015-04-29T11:01:24Z</time>
</trkpt>
<trkpt lat="34.8865045" lon="32.8395554">
<ele>980.22</ele>
<time>2015-04-29T11:01:25Z</time>
</trkpt>
<trkpt lat="34.8864273" lon="32.8395863">
<ele>979.49</ele>
<time>2015-04-29T11:01:26Z</time>
</trkpt>
<trkpt lat="34.8863538" lon="32.8396277">
<ele>978.62</ele>
<time>2015-04-29T11:01:27Z</time>
</trkpt>
<trkpt lat="34.8862722" lon="32.8396581">
<ele>978.19</ele>
<time>2015-04-29T11:01:28Z</time>
</trkpt>
<trkpt lat="34.8861873" lon="32.8396903">
<ele>977.98</ele>
<time>2015-04-29T11:01:29Z</time>
</trkpt>
<trkpt lat="34.8861111" lon="32.8397255">
<ele>976.87</ele>
<time>2015-04-29T11:01:30Z</time>
</trkpt>
<trkpt lat="34.8860263" lon="32.8397606">
<ele>975.81</ele>
<time>2015-04-29T11:01:31Z</time>
</trkpt>
<trkpt lat="34.8859370" lon="32.8397910">
<ele>975.29</ele>
<time>2015-04-29T11:01:32Z</time>
</trkpt>
<trkpt lat="34.8858504" lon="32.8398308">
<ele>975.02</ele>
<time>2015-04-29T11:01:33Z</time>
</trkpt>
<trkpt lat="34.8857504" lon="32.8398571">
<ele>974.39</ele>
<time>2015-04-29T11:01:34Z</time>
</trkpt>
<trkpt lat="34.8856669" lon="32.8398875">
<ele>974.08</ele>
<time>2015-04-29T11:01:35Z</time>
</trkpt>
<trkpt lat="34.8855658" lon="32.8399188">
<ele>973.92</ele>
<time>2015-04-29T11:01:36Z</time>
</trkpt>
<trkpt lat="34.8854737" lon="32.8399386">
<ele>973.84</ele>
<time>2015-04-29T11:01:37Z</time>
</trkpt>
<trkpt lat="34.8853816" lon="32.8399546">
<ele>973.30</ele>
<time>2015-04-29T11:01:38Z</time>
</trkpt>
<trkpt lat="34.8852903" lon="32.8399690">
<ele>973.03</ele>
<time>2015-04-29T11:01:39Z</time>
</trkpt>
<trkpt lat="34.8852038" lon="32.8399904">
<ele>972.39</ele>
<time>2015-04-29T11:01:40Z</time>
</trkpt>
<trkpt lat="34.8851102" lon="32.8399942">
<ele>971.58</ele>
<time>2015-04-29T11:01:41Z</time>
</trkpt>
<trkpt lat="34.8850173" lon="32.8400076">
<ele>971.17</ele>
<time>2015-04-29T11:01:42Z</time>
</trkpt>
<trkpt lat="34.8849335" lon="32.8400100">
<ele>969.46</ele>
<time>2015-04-29T11:01:43Z</time>
</trkpt>
<trkpt lat="34.8848417" lon="32.8400282">
<ele>968.61</ele>
<time>2015-04-29T11:01:44Z</time>
</trkpt>
<trkpt lat="34.8847413" lon="32.8400426">
<ele>968.69</ele>
<time>2015-04-29T11:01:45Z</time>
</trkpt>
<trkpt lat="34.8846397" lon="32.8400648">
<ele>969.22</ele>
<time>2015-04-29T11:01:46Z</time>
</trkpt>
<trkpt lat="34.8845480" lon="32.8400952">
<ele>968.99</ele>
<time>2015-04-29T11:01:47Z</time>
</trkpt>
<trkpt lat="34.8844530" lon="32.8401348">
<ele>967.88</ele>
<time>2015-04-29T11:01:48Z</time>
</trkpt>
<trkpt lat="34.8843605" lon="32.8401908">
<ele>967.82</ele>
<time>2015-04-29T11:01:49Z</time>
</trkpt>
<trkpt lat="34.8842704" lon="32.8402578">
<ele>967.29</ele>
<time>2015-04-29T11:01:50Z</time>
</trkpt>
<trkpt lat="34.8841848" lon="32.8403331">
<ele>966.52</ele>
<time>2015-04-29T11:01:51Z</time>
</trkpt>
<trkpt lat="34.8840971" lon="32.8404127">
<ele>966.14</ele>
<time>2015-04-29T11:01:52Z</time>
</trkpt>
<trkpt lat="34.8840215" lon="32.8404897">
<ele>965.45</ele>
<time>2015-04-29T11:01:53Z</time>
</trkpt>
<trkpt lat="34.8839408" lon="32.8405885">
<ele>964.11</ele>
<time>2015-04-29T11:01:54Z</time>
</trkpt>
<trkpt lat="34.8838512" lon="32.8406837">
<ele>962.93</ele>
<time>2015-04-29T11:01:55Z</time>
</trkpt>
<trkpt lat="34.8837574" lon="32.8407708">
<ele>961.85</ele>
<time>2015-04-29T11:01:56Z</time>
</trkpt>
<trkpt lat="34.8836668" lon="32.8408654">
<ele>960.30</ele>
<time>2015-04-29T11:01:57Z</time>
</trkpt>
<trkpt lat="34.8835704" lon="32.8409666">
<ele>959.03</ele>
<time>2015-04-29T11:01:58Z</time>
</trkpt>
<trkpt lat="34.8834826" lon="32.8410466">
<ele>957.90</ele>
<time>2015-04-29T11:01:59Z</time>
</trkpt>
<trkpt lat="34.8833911" lon="32.8411182">
<ele>956.83</ele>
<time>2015-04-29T11:02:00Z</time>
</trkpt>
<trkpt lat="34.8832936" lon="32.8411915">
<ele>955.79</ele>
<time>2015-04-29T11:02:01Z</time>
</trkpt>
<trkpt lat="34.8831802" lon="32.8412128">
<ele>954.28</ele>
<time>2015-04-29T11:02:02Z</time>
</trkpt>
<trkpt lat="34.8830704" lon="32.8412313">
<ele>953.52</ele>
<time>2015-04-29T11:02:03Z</time>
</trkpt>
<trkpt lat="34.8829570" lon="32.8412422">
<ele>952.64</ele>
<time>2015-04-29T11:02:04Z</time>
</trkpt>
<trkpt lat="34.8828482" lon="32.8412395">
<ele>951.70</ele>
<time>2015-04-29T11:02:05Z</time>
</trkpt>
<trkpt lat="34.8827490" lon="32.8412316">
<ele>950.73</ele>
<time>2015-04-29T11:02:06Z</time>
</trkpt>
<trkpt lat="34.8826445" lon="32.8412167">
<ele>949.74</ele>
<time>2015-04-29T11:02:07Z</time>
</trkpt>
<trkpt lat="34.8825540" lon="32.8411805">
<ele>948.75</ele>
<time>2015-04-29T11:02:08Z</time>
</trkpt>
<trkpt lat="34.8824635" lon="32.8411457">
<ele>947.26</ele>
<time>2015-04-29T11:02:09Z</time>
</trkpt>
<trkpt lat="34.8823741" lon="32.8411228">
<ele>946.01</ele>
<time>2015-04-29T11:02:10Z</time>
</trkpt>
<trkpt lat="34.8822800" lon="32.8411137">
<ele>944.88</ele>
<time>2015-04-29T11:02:11Z</time>
</trkpt>
<trkpt lat="34.8821825" lon="32.8411206">
<ele>943.82</ele>
<time>2015-04-29T11:02:12Z</time>
</trkpt>
<trkpt lat="34.8820779" lon="32.8411280">
<ele>943.29</ele>
<time>2015-04-29T11:02:13Z</time>
</trkpt>
<trkpt lat="34.8819774" lon="32.8411300">
<ele>942.53</ele>
<time>2015-04-29T11:02:14Z</time>
</trkpt>
<trkpt lat="34.8818686" lon="32.8411465">
<ele>942.14</ele>
<time>2015-04-29T11:02:15Z</time>
</trkpt>
<trkpt lat="34.8817650" lon="32.8411621">
<ele>941.45</ele>
<time>2015-04-29T11:02:16Z</time>
</trkpt>
<trkpt lat="34.8816609" lon="32.8411764">
<ele>940.61</ele>
<time>2015-04-29T11:02:17Z</time>
</trkpt>
<trkpt lat="34.8815603" lon="32.8411890">
<ele>939.68</ele>
<time>2015-04-29T11:02:18Z</time>
</trkpt>
<trkpt lat="34.8814783" lon="32.8411989">
<ele>939.22</ele>
<time>2015-04-29T11:02:19Z</time>
</trkpt>
<trkpt lat="34.8813933" lon="32.8412033">
<ele>938.99</ele>
<time>2015-04-29T11:02:20Z</time>
</trkpt>
<trkpt lat="34.8813227" lon="32.8411978">
<ele>937.88</ele>
<time>2015-04-29T11:02:21Z</time>
</trkpt>
<trkpt lat="34.8812506" lon="32.8412048">
<ele>936.82</ele>
<time>2015-04-29T11:02:22Z</time>
</trkpt>
<trkpt lat="34.8811825" lon="32.8412135">
<ele>935.79</ele>
<time>2015-04-29T11:02:23Z</time>
</trkpt>
<trkpt lat="34.8811161" lon="32.8412234">
<ele>934.77</ele>
<time>2015-04-29T11:02:24Z</time>
</trkpt>
<trkpt lat="34.8810715" lon="32.8412536">
<ele>934.77</ele>
<time>2015-04-29T11:02:25Z</time>
</trkpt>
<trkpt lat="34.8810215" lon="32.8412804">
<ele>934.76</ele>
<time>2015-04-29T11:02:26Z</time>
</trkpt>
<trkpt lat="34.8809812" lon="32.8413234">
<ele>934.26</ele>
<time>2015-04-29T11:02:27Z</time>
</trkpt>
<trkpt lat="34.8809363" lon="32.8413533">
<ele>933.51</ele>
<time>2015-04-29T11:02:28Z</time>
</trkpt>
<trkpt lat="34.8808670" lon="32.8413883">
<ele>932.45</ele>
<time>2015-04-29T11:02:30Z</time>
</trkpt>
<trkpt lat="34.8808305" lon="32.8414214">
<ele>933.10</ele>
<time>2015-04-29T11:02:31Z</time>
</trkpt>
<trkpt lat="34.8807850" lon="32.8414410">
<ele>933.93</ele>
<time>2015-04-29T11:02:32Z</time>
</trkpt>
<trkpt lat="34.8807106" lon="32.8414821">
<ele>934.30</ele>
<time>2015-04-29T11:02:34Z</time>
</trkpt>
<trkpt lat="34.8806208" lon="32.8414972">
<ele>933.40</ele>
<time>2015-04-29T11:02:36Z</time>
</trkpt>
<trkpt lat="34.8805735" lon="32.8415097">
<ele>933.08</ele>
<time>2015-04-29T11:02:37Z</time>
</trkpt>
<trkpt lat="34.8805104" lon="32.8415597">
<ele>932.34</ele>
<time>2015-04-29T11:02:39Z</time>
</trkpt>
<trkpt lat="34.8804634" lon="32.8415982">
<ele>931.65</ele>
<time>2015-04-29T11:02:41Z</time>
</trkpt>
<trkpt lat="34.8804265" lon="32.8416622">
<ele>932.23</ele>
<time>2015-04-29T11:02:43Z</time>
</trkpt>
<trkpt lat="34.8803442" lon="32.8416434">
<ele>932.63</ele>
<time>2015-04-29T11:02:45Z</time>
</trkpt>
<trkpt lat="34.8802864" lon="32.8416255">
<ele>932.73</ele>
<time>2015-04-29T11:02:47Z</time>
</trkpt>
<trkpt lat="34.8802483" lon="32.8415957">
<ele>933.00</ele>
<time>2015-04-29T11:02:49Z</time>
</trkpt>
<trkpt lat="34.8801866" lon="32.8415825">
<ele>932.04</ele>
<time>2015-04-29T11:02:52Z</time>
</trkpt>
<trkpt lat="34.8801464" lon="32.8416175">
<ele>930.08</ele>
<time>2015-04-29T11:02:54Z</time>
</trkpt>
<trkpt lat="34.8800846" lon="32.8416739">
<ele>930.59</ele>
<time>2015-04-29T11:02:56Z</time>
</trkpt>
<trkpt lat="34.8800142" lon="32.8417394">
<ele>930.47</ele>
<time>2015-04-29T11:02:58Z</time>
</trkpt>
<trkpt lat="34.8799449" lon="32.8418041">
<ele>930.44</ele>
<time>2015-04-29T11:03:00Z</time>
</trkpt>
<trkpt lat="34.8798913" lon="32.8418705">
<ele>929.93</ele>
<time>2015-04-29T11:03:02Z</time>
</trkpt>
<trkpt lat="34.8798594" lon="32.8419460">
<ele>928.80</ele>
<time>2015-04-29T11:03:04Z</time>
</trkpt>
<trkpt lat="34.8798554" lon="32.8420198">
<ele>926.52</ele>
<time>2015-04-29T11:03:06Z</time>
</trkpt>
<trkpt lat="34.8798874" lon="32.8420694">
<ele>928.42</ele>
<time>2015-04-29T11:03:17Z</time>
</trkpt>
<trkpt lat="34.8798528" lon="32.8421291">
<ele>927.49</ele>
<time>2015-04-29T11:16:59Z</time>
</trkpt>
<trkpt lat="34.8798379" lon="32.8422023">
<ele>927.73</ele>
<time>2015-04-29T11:17:02Z</time>
</trkpt>
<trkpt lat="34.8798475" lon="32.8422745">
<ele>928.26</ele>
<time>2015-04-29T11:17:05Z</time>
</trkpt>
<trkpt lat="34.8798560" lon="32.8423509">
<ele>927.82</ele>
<time>2015-04-29T11:17:08Z</time>
</trkpt>
<trkpt lat="34.8798592" lon="32.8424316">
<ele>927.77</ele>
<time>2015-04-29T11:17:11Z</time>
</trkpt>
<trkpt lat="34.8798624" lon="32.8425063">
<ele>928.51</ele>
<time>2015-04-29T11:17:14Z</time>
</trkpt>
<trkpt lat="34.8798701" lon="32.8425794">
<ele>928.73</ele>
<time>2015-04-29T11:17:17Z</time>
</trkpt>
<trkpt lat="34.8798804" lon="32.8426514">
<ele>928.76</ele>
<time>2015-04-29T11:17:20Z</time>
</trkpt>
<trkpt lat="34.8798985" lon="32.8427174">
<ele>928.13</ele>
<time>2015-04-29T11:17:23Z</time>
</trkpt>
<trkpt lat="34.8799229" lon="32.8427730">
<ele>927.81</ele>
<time>2015-04-29T11:17:26Z</time>
</trkpt>
<trkpt lat="34.8799448" lon="32.8428262">
<ele>928.64</ele>
<time>2015-04-29T11:17:29Z</time>
</trkpt>
<trkpt lat="34.8799613" lon="32.8428896">
<ele>927.87</ele>
<time>2015-04-29T11:17:32Z</time>
</trkpt>
<trkpt lat="34.8799740" lon="32.8429544">
<ele>927.77</ele>
<time>2015-04-29T11:17:35Z</time>
</trkpt>
<trkpt lat="34.8799911" lon="32.8430132">
<ele>928.14</ele>
<time>2015-04-29T11:17:38Z</time>
</trkpt>
<trkpt lat="34.8800194" lon="32.8430647">
<ele>928.31</ele>
<time>2015-04-29T11:17:41Z</time>
</trkpt>
<trkpt lat="34.8800441" lon="32.8431210">
<ele>929.45</ele>
<time>2015-04-29T11:17:44Z</time>
</trkpt>
<trkpt lat="34.8800748" lon="32.8431812">
<ele>931.85</ele>
<time>2015-04-29T11:17:47Z</time>
</trkpt>
<trkpt lat="34.8801014" lon="32.8432527">
<ele>935.15</ele>
<time>2015-04-29T11:17:50Z</time>
</trkpt>
<trkpt lat="34.8801290" lon="32.8433228">
<ele>935.68</ele>
<time>2015-04-29T11:17:53Z</time>
</trkpt>
<trkpt lat="34.8801684" lon="32.8433826">
<ele>936.13</ele>
<time>2015-04-29T11:17:56Z</time>
</trkpt>
<trkpt lat="34.8802069" lon="32.8434439">
<ele>934.93</ele>
<time>2015-04-29T11:17:59Z</time>
</trkpt>
<trkpt lat="34.8802412" lon="32.8435036">
<ele>933.53</ele>
<time>2015-04-29T11:18:02Z</time>
</trkpt>
<trkpt lat="34.8802644" lon="32.8435638">
<ele>933.98</ele>
<time>2015-04-29T11:18:05Z</time>
</trkpt>
<trkpt lat="34.8802988" lon="32.8436102">
<ele>933.04</ele>
<time>2015-04-29T11:18:08Z</time>
</trkpt>
<trkpt lat="34.8803343" lon="32.8436597">
<ele>932.67</ele>
<time>2015-04-29T11:18:11Z</time>
</trkpt>
<trkpt lat="34.8803644" lon="32.8437172">
<ele>931.87</ele>
<time>2015-04-29T11:18:14Z</time>
</trkpt>
<trkpt lat="34.8803996" lon="32.8437692">
<ele>932.02</ele>
<time>2015-04-29T11:18:17Z</time>
</trkpt>
<trkpt lat="34.8804419" lon="32.8438129">
<ele>932.04</ele>
<time>2015-04-29T11:18:20Z</time>
</trkpt>
<trkpt lat="34.8804725" lon="32.8438670">
<ele>932.30</ele>
<time>2015-04-29T11:18:23Z</time>
</trkpt>
<trkpt lat="34.8804939" lon="32.8439285">
<ele>932.95</ele>
<time>2015-04-29T11:18:26Z</time>
</trkpt>
<trkpt lat="34.8805161" lon="32.8439961">
<ele>933.53</ele>
<time>2015-04-29T11:18:29Z</time>
</trkpt>
<trkpt lat="34.8805301" lon="32.8440701">
<ele>934.61</ele>
<time>2015-04-29T11:18:32Z</time>
</trkpt>
<trkpt lat="34.8805470" lon="32.8441426">
<ele>935.62</ele>
<time>2015-04-29T11:18:35Z</time>
</trkpt>
<trkpt lat="34.8805588" lon="32.8442126">
<ele>936.62</ele>
<time>2015-04-29T11:18:38Z</time>
</trkpt>
<trkpt lat="34.8805654" lon="32.8442874">
<ele>937.49</ele>
<time>2015-04-29T11:18:41Z</time>
</trkpt>
<trkpt lat="34.8805550" lon="32.8443608">
<ele>939.10</ele>
<time>2015-04-29T11:18:44Z</time>
</trkpt>
<trkpt lat="34.8805433" lon="32.8444330">
<ele>939.80</ele>
<time>2015-04-29T11:18:47Z</time>
</trkpt>
<trkpt lat="34.8805344" lon="32.8445053">
<ele>940.27</ele>
<time>2015-04-29T11:18:50Z</time>
</trkpt>
<trkpt lat="34.8805293" lon="32.8445838">
<ele>939.95</ele>
<time>2015-04-29T11:18:53Z</time>
</trkpt>
<trkpt lat="34.8805342" lon="32.8446585">
<ele>939.78</ele>
<time>2015-04-29T11:18:56Z</time>
</trkpt>
<trkpt lat="34.8805341" lon="32.8447286">
<ele>940.51</ele>
<time>2015-04-29T11:18:59Z</time>
</trkpt>
<trkpt lat="34.8805295" lon="32.8447920">
<ele>939.85</ele>
<time>2015-04-29T11:19:02Z</time>
</trkpt>
<trkpt lat="34.8805369" lon="32.8448480">
<ele>938.52</ele>
<time>2015-04-29T11:19:05Z</time>
</trkpt>
<trkpt lat="34.8805502" lon="32.8449045">
<ele>937.73</ele>
<time>2015-04-29T11:19:08Z</time>
</trkpt>
<trkpt lat="34.8805475" lon="32.8449628">
<ele>938.51</ele>
<time>2015-04-29T11:19:11Z</time>
</trkpt>
<trkpt lat="34.8805520" lon="32.8450247">
<ele>940.35</ele>
<time>2015-04-29T11:19:14Z</time>
</trkpt>
<trkpt lat="34.8805672" lon="32.8450965">
<ele>941.71</ele>
<time>2015-04-29T11:19:17Z</time>
</trkpt>
<trkpt lat="34.8805811" lon="32.8451637">
<ele>944.63</ele>
<time>2015-04-29T11:19:20Z</time>
</trkpt>
<trkpt lat="34.8806095" lon="32.8452188">
<ele>944.74</ele>
<time>2015-04-29T11:19:23Z</time>
</trkpt>
<trkpt lat="34.8806328" lon="32.8452762">
<ele>942.57</ele>
<time>2015-04-29T11:19:27Z</time>
</trkpt>
<trkpt lat="34.8806591" lon="32.8453391">
<ele>944.00</ele>
<time>2015-04-29T11:19:31Z</time>
</trkpt>
<trkpt lat="34.8806787" lon="32.8454090">
<ele>945.59</ele>
<time>2015-04-29T11:19:35Z</time>
</trkpt>
<trkpt lat="34.8807044" lon="32.8454693">
<ele>946.49</ele>
<time>2015-04-29T11:19:38Z</time>
</trkpt>
<trkpt lat="34.8807353" lon="32.8455264">
<ele>947.23</ele>
<time>2015-04-29T11:19:41Z</time>
</trkpt>
<trkpt lat="34.8807639" lon="32.8455787">
<ele>947.69</ele>
<time>2015-04-29T11:19:44Z</time>
</trkpt>
<trkpt lat="34.8807903" lon="32.8456353">
<ele>948.25</ele>
<time>2015-04-29T11:19:47Z</time>
</trkpt>
<trkpt lat="34.8808169" lon="32.8456981">
<ele>948.70</ele>
<time>2015-04-29T11:19:50Z</time>
</trkpt>
<trkpt lat="34.8808483" lon="32.8457565">
<ele>949.63</ele>
<time>2015-04-29T11:19:53Z</time>
</trkpt>
<trkpt lat="34.8808834" lon="32.8458159">
<ele>949.74</ele>
<time>2015-04-29T11:19:56Z</time>
</trkpt>
<trkpt lat="34.8809124" lon="32.8458781">
<ele>950.51</ele>
<time>2015-04-29T11:19:59Z</time>
</trkpt>
<trkpt lat="34.8809420" lon="32.8459407">
<ele>951.48</ele>
<time>2015-04-29T11:20:02Z</time>
</trkpt>
<trkpt lat="34.8809690" lon="32.8460085">
<ele>952.47</ele>
<time>2015-04-29T11:20:05Z</time>
</trkpt>
<trkpt lat="34.8809915" lon="32.8460759">
<ele>952.72</ele>
<time>2015-04-29T11:20:08Z</time>
</trkpt>
<trkpt lat="34.8810114" lon="32.8461359">
<ele>953.51</ele>
<time>2015-04-29T11:20:11Z</time>
</trkpt>
<trkpt lat="34.8810266" lon="32.8461947">
<ele>953.73</ele>
<time>2015-04-29T11:20:14Z</time>
</trkpt>
<trkpt lat="34.8810381" lon="32.8462585">
<ele>953.76</ele>
<time>2015-04-29T11:20:17Z</time>
</trkpt>
<trkpt lat="34.8810446" lon="32.8463133">
<ele>954.51</ele>
<time>2015-04-29T11:20:20Z</time>
</trkpt>
<trkpt lat="34.8810404" lon="32.8463827">
<ele>955.68</ele>
<time>2015-04-29T11:20:24Z</time>
</trkpt>
<trkpt lat="34.8810426" lon="32.8464379">
<ele>956.63</ele>
<time>2015-04-29T11:20:27Z</time>
</trkpt>
<trkpt lat="34.8810418" lon="32.8464948">
<ele>957.24</ele>
<time>2015-04-29T11:20:30Z</time>
</trkpt>
<trkpt lat="34.8810423" lon="32.8465497">
<ele>957.70</ele>
<time>2015-04-29T11:20:33Z</time>
</trkpt>
<trkpt lat="34.8810390" lon="32.8466214">
<ele>957.76</ele>
<time>2015-04-29T11:20:37Z</time>
</trkpt>
<trkpt lat="34.8810393" lon="32.8466922">
<ele>957.76</ele>
<time>2015-04-29T11:20:41Z</time>
</trkpt>
<trkpt lat="34.8810356" lon="32.8467482">
<ele>957.76</ele>
<time>2015-04-29T11:20:44Z</time>
</trkpt>
<trkpt lat="34.8810290" lon="32.8468038">
<ele>958.64</ele>
<time>2015-04-29T11:20:47Z</time>
</trkpt>
<trkpt lat="34.8810224" lon="32.8468596">
<ele>958.74</ele>
<time>2015-04-29T11:20:50Z</time>
</trkpt>
<trkpt lat="34.8810155" lon="32.8469158">
<ele>958.76</ele>
<time>2015-04-29T11:20:53Z</time>
</trkpt>
<trkpt lat="34.8810120" lon="32.8469856">
<ele>958.76</ele>
<time>2015-04-29T11:20:57Z</time>
</trkpt>
<trkpt lat="34.8810075" lon="32.8470517">
<ele>958.39</ele>
<time>2015-04-29T11:21:01Z</time>
</trkpt>
<trkpt lat="34.8810052" lon="32.8471168">
<ele>958.74</ele>
<time>2015-04-29T11:21:05Z</time>
</trkpt>
<trkpt lat="34.8810032" lon="32.8471806">
<ele>960.60</ele>
<time>2015-04-29T11:21:10Z</time>
</trkpt>
<trkpt lat="34.8810042" lon="32.8472451">
<ele>960.75</ele>
<time>2015-04-29T11:21:14Z</time>
</trkpt>
<trkpt lat="34.8810026" lon="32.8473005">
<ele>960.51</ele>
<time>2015-04-29T11:21:17Z</time>
</trkpt>
<trkpt lat="34.8809987" lon="32.8473628">
<ele>960.73</ele>
<time>2015-04-29T11:21:20Z</time>
</trkpt>
<trkpt lat="34.8810063" lon="32.8474259">
<ele>960.51</ele>
<time>2015-04-29T11:21:23Z</time>
</trkpt>
<trkpt lat="34.8810115" lon="32.8474927">
<ele>960.73</ele>
<time>2015-04-29T11:21:26Z</time>
</trkpt>
<trkpt lat="34.8810214" lon="32.8475593">
<ele>961.51</ele>
<time>2015-04-29T11:21:29Z</time>
</trkpt>
<trkpt lat="34.8810354" lon="32.8476228">
<ele>961.73</ele>
<time>2015-04-29T11:21:32Z</time>
</trkpt>
<trkpt lat="34.8810421" lon="32.8476879">
<ele>962.51</ele>
<time>2015-04-29T11:21:35Z</time>
</trkpt>
<trkpt lat="34.8810540" lon="32.8477496">
<ele>962.35</ele>
<time>2015-04-29T11:21:38Z</time>
</trkpt>
<trkpt lat="34.8810638" lon="32.8478140">
<ele>963.46</ele>
<time>2015-04-29T11:21:41Z</time>
</trkpt>
<trkpt lat="34.8810707" lon="32.8478820">
<ele>964.60</ele>
<time>2015-04-29T11:21:44Z</time>
</trkpt>
<trkpt lat="34.8810842" lon="32.8479476">
<ele>964.74</ele>
<time>2015-04-29T11:21:47Z</time>
</trkpt>
<trkpt lat="34.8810896" lon="32.8480138">
<ele>965.51</ele>
<time>2015-04-29T11:21:50Z</time>
</trkpt>
<trkpt lat="34.8811032" lon="32.8480786">
<ele>965.60</ele>
<time>2015-04-29T11:21:53Z</time>
</trkpt>
<trkpt lat="34.8811084" lon="32.8481448">
<ele>966.49</ele>
<time>2015-04-29T11:21:56Z</time>
</trkpt>
<trkpt lat="34.8811135" lon="32.8482082">
<ele>966.73</ele>
<time>2015-04-29T11:21:59Z</time>
</trkpt>
<trkpt lat="34.8811118" lon="32.8482731">
<ele>967.63</ele>
<time>2015-04-29T11:22:02Z</time>
</trkpt>
<trkpt lat="34.8811189" lon="32.8483343">
<ele>968.24</ele>
<time>2015-04-29T11:22:05Z</time>
</trkpt>
<trkpt lat="34.8811313" lon="32.8484109">
<ele>968.68</ele>
<time>2015-04-29T11:22:10Z</time>
</trkpt>
<trkpt lat="34.8811323" lon="32.8484738">
<ele>969.49</ele>
<time>2015-04-29T11:22:12Z</time>
</trkpt>
<trkpt lat="34.8811365" lon="32.8485301">
<ele>970.44</ele>
<time>2015-04-29T11:22:14Z</time>
</trkpt>
<trkpt lat="34.8811399" lon="32.8485849">
<ele>970.68</ele>
<time>2015-04-29T11:22:16Z</time>
</trkpt>
<trkpt lat="34.8811403" lon="32.8486408">
<ele>971.63</ele>
<time>2015-04-29T11:22:19Z</time>
</trkpt>
<trkpt lat="34.8811331" lon="32.8487078">
<ele>971.75</ele>
<time>2015-04-29T11:22:23Z</time>
</trkpt>
<trkpt lat="34.8811312" lon="32.8487651">
<ele>972.26</ele>
<time>2015-04-29T11:22:25Z</time>
</trkpt>
<trkpt lat="34.8811288" lon="32.8488244">
<ele>972.63</ele>
<time>2015-04-29T11:22:27Z</time>
</trkpt>
<trkpt lat="34.8811267" lon="32.8489034">
<ele>972.74</ele>
<time>2015-04-29T11:22:30Z</time>
</trkpt>
<trkpt lat="34.8811192" lon="32.8489848">
<ele>972.76</ele>
<time>2015-04-29T11:22:33Z</time>
</trkpt>
<trkpt lat="34.8811181" lon="32.8490410">
<ele>972.76</ele>
<time>2015-04-29T11:22:35Z</time>
</trkpt>
<trkpt lat="34.8811036" lon="32.8491184">
<ele>972.76</ele>
<time>2015-04-29T11:22:38Z</time>
</trkpt>
<trkpt lat="34.8811164" lon="32.8491853">
<ele>972.01</ele>
<time>2015-04-29T11:22:42Z</time>
</trkpt>
<trkpt lat="34.8811152" lon="32.8492452">
<ele>972.54</ele>
<time>2015-04-29T11:22:45Z</time>
</trkpt>
<trkpt lat="34.8811182" lon="32.8493017">
<ele>972.71</ele>
<time>2015-04-29T11:22:47Z</time>
</trkpt>
<trkpt lat="34.8811235" lon="32.8493642">
<ele>972.00</ele>
<time>2015-04-29T11:22:49Z</time>
</trkpt>
<trkpt lat="34.8811228" lon="32.8494259">
<ele>971.88</ele>
<time>2015-04-29T11:22:51Z</time>
</trkpt>
<trkpt lat="34.8811197" lon="32.8494884">
<ele>972.54</ele>
<time>2015-04-29T11:22:53Z</time>
</trkpt>
<trkpt lat="34.8811188" lon="32.8495519">
<ele>972.70</ele>
<time>2015-04-29T11:22:55Z</time>
</trkpt>
<trkpt lat="34.8811252" lon="32.8496139">
<ele>973.50</ele>
<time>2015-04-29T11:22:57Z</time>
</trkpt>
<trkpt lat="34.8811310" lon="32.8496718">
<ele>973.69</ele>
<time>2015-04-29T11:22:59Z</time>
</trkpt>
<trkpt lat="34.8811308" lon="32.8497275">
<ele>974.24</ele>
<time>2015-04-29T11:23:01Z</time>
</trkpt>
<trkpt lat="34.8811300" lon="32.8497972">
<ele>974.70</ele>
<time>2015-04-29T11:23:04Z</time>
</trkpt>
<trkpt lat="34.8811332" lon="32.8498580">
<ele>975.63</ele>
<time>2015-04-29T11:23:07Z</time>
</trkpt>
<trkpt lat="34.8811414" lon="32.8499232">
<ele>976.37</ele>
<time>2015-04-29T11:23:10Z</time>
</trkpt>
<trkpt lat="34.8811552" lon="32.8499876">
<ele>977.21</ele>
<time>2015-04-29T11:23:13Z</time>
</trkpt>
<trkpt lat="34.8811644" lon="32.8500537">
<ele>978.19</ele>
<time>2015-04-29T11:23:16Z</time>
</trkpt>
<trkpt lat="34.8811732" lon="32.8501143">
<ele>978.69</ele>
<time>2015-04-29T11:23:19Z</time>
</trkpt>
<trkpt lat="34.8811936" lon="32.8501712">
<ele>979.00</ele>
<time>2015-04-29T11:23:22Z</time>
</trkpt>
<trkpt lat="34.8812185" lon="32.8502330">
<ele>979.67</ele>
<time>2015-04-29T11:23:25Z</time>
</trkpt>
<trkpt lat="34.8812425" lon="32.8503004">
<ele>980.62</ele>
<time>2015-04-29T11:23:28Z</time>
</trkpt>
<trkpt lat="34.8812540" lon="32.8503698">
<ele>980.74</ele>
<time>2015-04-29T11:23:31Z</time>
</trkpt>
<trkpt lat="34.8812658" lon="32.8504335">
<ele>981.51</ele>
<time>2015-04-29T11:23:34Z</time>
</trkpt>
<trkpt lat="34.8812837" lon="32.8504930">
<ele>981.60</ele>
<time>2015-04-29T11:23:37Z</time>
</trkpt>
<trkpt lat="34.8813035" lon="32.8505577">
<ele>981.74</ele>
<time>2015-04-29T11:23:40Z</time>
</trkpt>
<trkpt lat="34.8813193" lon="32.8506186">
<ele>982.26</ele>
<time>2015-04-29T11:23:42Z</time>
</trkpt>
<trkpt lat="34.8813305" lon="32.8506946">
<ele>982.70</ele>
<time>2015-04-29T11:23:45Z</time>
</trkpt>
<trkpt lat="34.8813344" lon="32.8507569">
<ele>983.25</ele>
<time>2015-04-29T11:23:48Z</time>
</trkpt>
<trkpt lat="34.8813459" lon="32.8508271">
<ele>983.70</ele>
<time>2015-04-29T11:23:51Z</time>
</trkpt>
<trkpt lat="34.8813575" lon="32.8508999">
<ele>983.75</ele>
<time>2015-04-29T11:23:54Z</time>
</trkpt>
<trkpt lat="34.8813640" lon="32.8509733">
<ele>984.63</ele>
<time>2015-04-29T11:23:57Z</time>
</trkpt>
<trkpt lat="34.8813632" lon="32.8510432">
<ele>985.24</ele>
<time>2015-04-29T11:24:00Z</time>
</trkpt>
<trkpt lat="34.8813605" lon="32.8511100">
<ele>985.57</ele>
<time>2015-04-29T11:24:03Z</time>
</trkpt>
<trkpt lat="34.8813610" lon="32.8511748">
<ele>985.75</ele>
<time>2015-04-29T11:24:07Z</time>
</trkpt>
<trkpt lat="34.8813530" lon="32.8512519">
<ele>987.13</ele>
<time>2015-04-29T11:24:10Z</time>
</trkpt>
<trkpt lat="34.8813486" lon="32.8513100">
<ele>987.60</ele>
<time>2015-04-29T11:24:12Z</time>
</trkpt>
<trkpt lat="34.8813424" lon="32.8513650">
<ele>988.22</ele>
<time>2015-04-29T11:24:14Z</time>
</trkpt>
<trkpt lat="34.8813360" lon="32.8514265">
<ele>988.63</ele>
<time>2015-04-29T11:24:16Z</time>
</trkpt>
<trkpt lat="34.8813268" lon="32.8514854">
<ele>988.73</ele>
<time>2015-04-29T11:24:18Z</time>
</trkpt>
<trkpt lat="34.8813166" lon="32.8515419">
<ele>989.25</ele>
<time>2015-04-29T11:24:20Z</time>
</trkpt>
<trkpt lat="34.8813132" lon="32.8516011">
<ele>989.13</ele>
<time>2015-04-29T11:24:22Z</time>
</trkpt>
<trkpt lat="34.8813078" lon="32.8516604">
<ele>989.35</ele>
<time>2015-04-29T11:24:24Z</time>
</trkpt>
<trkpt lat="34.8812886" lon="32.8517379">
<ele>988.96</ele>
<time>2015-04-29T11:24:27Z</time>
</trkpt>
<trkpt lat="34.8812764" lon="32.8517923">
<ele>989.56</ele>
<time>2015-04-29T11:24:29Z</time>
</trkpt>
<trkpt lat="34.8812633" lon="32.8518469">
<ele>989.71</ele>
<time>2015-04-29T11:24:31Z</time>
</trkpt>
<trkpt lat="34.8812488" lon="32.8519023">
<ele>989.75</ele>
<time>2015-04-29T11:24:33Z</time>
</trkpt>
<trkpt lat="34.8812325" lon="32.8519593">
<ele>990.51</ele>
<time>2015-04-29T11:24:35Z</time>
</trkpt>
<trkpt lat="34.8812122" lon="32.8520260">
<ele>990.20</ele>
<time>2015-04-29T11:24:37Z</time>
</trkpt>
<trkpt lat="34.8811908" lon="32.8520900">
<ele>990.37</ele>
<time>2015-04-29T11:24:39Z</time>
</trkpt>
<trkpt lat="34.8811718" lon="32.8521464">
<ele>990.16</ele>
<time>2015-04-29T11:24:41Z</time>
</trkpt>
<trkpt lat="34.8811501" lon="32.8522013">
<ele>989.86</ele>
<time>2015-04-29T11:24:43Z</time>
</trkpt>
<trkpt lat="34.8811292" lon="32.8522568">
<ele>989.79</ele>
<time>2015-04-29T11:24:45Z</time>
</trkpt>
<trkpt lat="34.8811102" lon="32.8523083">
<ele>989.77</ele>
<time>2015-04-29T11:24:47Z</time>
</trkpt>
<trkpt lat="34.8810934" lon="32.8523596">
<ele>989.76</ele>
<time>2015-04-29T11:24:49Z</time>
</trkpt>
<trkpt lat="34.8810787" lon="32.8524148">
<ele>990.26</ele>
<time>2015-04-29T11:24:51Z</time>
</trkpt>
<trkpt lat="34.8810610" lon="32.8524727">
<ele>990.64</ele>
<time>2015-04-29T11:24:53Z</time>
</trkpt>
<trkpt lat="34.8810418" lon="32.8525434">
<ele>991.23</ele>
<time>2015-04-29T11:24:55Z</time>
</trkpt>
<trkpt lat="34.8810232" lon="32.8526249">
<ele>991.63</ele>
<time>2015-04-29T11:24:57Z</time>
</trkpt>
<trkpt lat="34.8810117" lon="32.8526965">
<ele>991.73</ele>
<time>2015-04-29T11:24:59Z</time>
</trkpt>
<trkpt lat="34.8810034" lon="32.8527565">
<ele>991.75</ele>
<time>2015-04-29T11:25:01Z</time>
</trkpt>
<trkpt lat="34.8809917" lon="32.8528207">
<ele>992.51</ele>
<time>2015-04-29T11:25:03Z</time>
</trkpt>
<trkpt lat="34.8809779" lon="32.8528864">
<ele>993.20</ele>
<time>2015-04-29T11:25:05Z</time>
</trkpt>
<trkpt lat="34.8809628" lon="32.8529498">
<ele>993.62</ele>
<time>2015-04-29T11:25:07Z</time>
</trkpt>
<trkpt lat="34.8809461" lon="32.8530106">
<ele>994.22</ele>
<time>2015-04-29T11:25:09Z</time>
</trkpt>
<trkpt lat="34.8809325" lon="32.8530716">
<ele>994.63</ele>
<time>2015-04-29T11:25:11Z</time>
</trkpt>
<trkpt lat="34.8809179" lon="32.8531339">
<ele>995.48</ele>
<time>2015-04-29T11:25:13Z</time>
</trkpt>
<trkpt lat="34.8809021" lon="32.8531966">
<ele>995.69</ele>
<time>2015-04-29T11:25:15Z</time>
</trkpt>
<trkpt lat="34.8808843" lon="32.8532555">
<ele>996.49</ele>
<time>2015-04-29T11:25:17Z</time>
</trkpt>
<trkpt lat="34.8808661" lon="32.8533136">
<ele>997.44</ele>
<time>2015-04-29T11:25:19Z</time>
</trkpt>
<trkpt lat="34.8808556" lon="32.8533765">
<ele>998.43</ele>
<time>2015-04-29T11:25:21Z</time>
</trkpt>
<trkpt lat="34.8808410" lon="32.8534333">
<ele>998.68</ele>
<time>2015-04-29T11:25:23Z</time>
</trkpt>
<trkpt lat="34.8808271" lon="32.8534873">
<ele>998.74</ele>
<time>2015-04-29T11:25:25Z</time>
</trkpt>
<trkpt lat="34.8808193" lon="32.8535452">
<ele>998.75</ele>
<time>2015-04-29T11:25:27Z</time>
</trkpt>
<trkpt lat="34.8808066" lon="32.8536063">
<ele>999.51</ele>
<time>2015-04-29T11:25:29Z</time>
</trkpt>
<trkpt lat="34.8807943" lon="32.8536697">
<ele>999.70</ele>
<time>2015-04-29T11:25:31Z</time>
</trkpt>
<trkpt lat="34.8807798" lon="32.8537330">
<ele>999.74</ele>
<time>2015-04-29T11:25:33Z</time>
</trkpt>
<trkpt lat="34.8807621" lon="32.8537946">
<ele>1000.51</ele>
<time>2015-04-29T11:25:35Z</time>
</trkpt>
<trkpt lat="34.8807519" lon="32.8538565">
<ele>1001.20</ele>
<time>2015-04-29T11:25:37Z</time>
</trkpt>
<trkpt lat="34.8807484" lon="32.8539143">
<ele>1000.87</ele>
<time>2015-04-29T11:25:39Z</time>
</trkpt>
<trkpt lat="34.8807457" lon="32.8539772">
<ele>1001.40</ele>
<time>2015-04-29T11:25:42Z</time>
</trkpt>
<trkpt lat="34.8807604" lon="32.8540502">
<ele>1001.59</ele>
<time>2015-04-29T11:25:45Z</time>
</trkpt>
<trkpt lat="34.8807755" lon="32.8541021">
<ele>1002.22</ele>
<time>2015-04-29T11:25:47Z</time>
</trkpt>
<trkpt lat="34.8808003" lon="32.8541744">
<ele>1002.69</ele>
<time>2015-04-29T11:25:50Z</time>
</trkpt>
<trkpt lat="34.8808273" lon="32.8542269">
<ele>1002.75</ele>
<time>2015-04-29T11:25:53Z</time>
</trkpt>
<trkpt lat="34.8808683" lon="32.8542831">
<ele>1003.51</ele>
<time>2015-04-29T11:25:56Z</time>
</trkpt>
<trkpt lat="34.8809012" lon="32.8543278">
<ele>1003.70</ele>
<time>2015-04-29T11:25:58Z</time>
</trkpt>
<trkpt lat="34.8809347" lon="32.8543699">
<ele>1004.24</ele>
<time>2015-04-29T11:26:00Z</time>
</trkpt>
<trkpt lat="34.8809676" lon="32.8544085">
<ele>1004.38</ele>
<time>2015-04-29T11:26:02Z</time>
</trkpt>
<trkpt lat="34.8810152" lon="32.8544644">
<ele>1004.71</ele>
<time>2015-04-29T11:26:05Z</time>
</trkpt>
<trkpt lat="34.8810571" lon="32.8545233">
<ele>1004.75</ele>
<time>2015-04-29T11:26:08Z</time>
</trkpt>
<trkpt lat="34.8810972" lon="32.8545805">
<ele>1006.13</ele>
<time>2015-04-29T11:26:11Z</time>
</trkpt>
<trkpt lat="34.8811373" lon="32.8546376">
<ele>1006.68</ele>
<time>2015-04-29T11:26:14Z</time>
</trkpt>
<trkpt lat="34.8811764" lon="32.8546960">
<ele>1006.75</ele>
<time>2015-04-29T11:26:17Z</time>
</trkpt>
<trkpt lat="34.8812160" lon="32.8547516">
<ele>1006.76</ele>
<time>2015-04-29T11:26:20Z</time>
</trkpt>
<trkpt lat="34.8812531" lon="32.8548087">
<ele>1007.63</ele>
<time>2015-04-29T11:26:23Z</time>
</trkpt>
<trkpt lat="34.8812862" lon="32.8548715">
<ele>1007.74</ele>
<time>2015-04-29T11:26:26Z</time>
</trkpt>
<trkpt lat="34.8813297" lon="32.8549254">
<ele>1009.13</ele>
<time>2015-04-29T11:26:29Z</time>
</trkpt>
<trkpt lat="34.8813695" lon="32.8549774">
<ele>1009.68</ele>
<time>2015-04-29T11:26:32Z</time>
</trkpt>
<trkpt lat="34.8814069" lon="32.8550340">
<ele>1010.00</ele>
<time>2015-04-29T11:26:35Z</time>
</trkpt>
<trkpt lat="34.8814503" lon="32.8550941">
<ele>1010.67</ele>
<time>2015-04-29T11:26:38Z</time>
</trkpt>
<trkpt lat="34.8814917" lon="32.8551565">
<ele>1011.62</ele>
<time>2015-04-29T11:26:41Z</time>
</trkpt>
<trkpt lat="34.8815308" lon="32.8552162">
<ele>1012.49</ele>
<time>2015-04-29T11:26:44Z</time>
</trkpt>
<trkpt lat="34.8815710" lon="32.8552699">
<ele>1012.73</ele>
<time>2015-04-29T11:26:47Z</time>
</trkpt>
<trkpt lat="34.8816103" lon="32.8553196">
<ele>1012.76</ele>
<time>2015-04-29T11:26:50Z</time>
</trkpt>
<trkpt lat="34.8816413" lon="32.8553659">
<ele>1013.26</ele>
<time>2015-04-29T11:26:53Z</time>
</trkpt>
<trkpt lat="34.8816791" lon="32.8554079">
<ele>1013.57</ele>
<time>2015-04-29T11:26:56Z</time>
</trkpt>
<trkpt lat="34.8817218" lon="32.8554631">
<ele>1013.74</ele>
<time>2015-04-29T11:26:59Z</time>
</trkpt>
<trkpt lat="34.8817537" lon="32.8555216">
<ele>1013.76</ele>
<time>2015-04-29T11:27:03Z</time>
</trkpt>
<trkpt lat="34.8817903" lon="32.8555687">
<ele>1014.51</ele>
<time>2015-04-29T11:27:06Z</time>
</trkpt>
<trkpt lat="34.8818365" lon="32.8556281">
<ele>1014.98</ele>
<time>2015-04-29T11:27:09Z</time>
</trkpt>
<trkpt lat="34.8818704" lon="32.8556908">
<ele>1015.66</ele>
<time>2015-04-29T11:27:12Z</time>
</trkpt>
<trkpt lat="34.8819061" lon="32.8557643">
<ele>1015.75</ele>
<time>2015-04-29T11:27:15Z</time>
</trkpt>
<trkpt lat="34.8819293" lon="32.8558224">
<ele>1016.26</ele>
<time>2015-04-29T11:27:17Z</time>
</trkpt>
<trkpt lat="34.8819509" lon="32.8558848">
<ele>1016.63</ele>
<time>2015-04-29T11:27:19Z</time>
</trkpt>
<trkpt lat="34.8819666" lon="32.8559464">
<ele>1016.73</ele>
<time>2015-04-29T11:27:21Z</time>
</trkpt>
<trkpt lat="34.8819789" lon="32.8560079">
<ele>1017.25</ele>
<time>2015-04-29T11:27:23Z</time>
</trkpt>
<trkpt lat="34.8819874" lon="32.8560691">
<ele>1017.63</ele>
<time>2015-04-29T11:27:25Z</time>
</trkpt>
<trkpt lat="34.8819952" lon="32.8561309">
<ele>1017.73</ele>
<time>2015-04-29T11:27:27Z</time>
</trkpt>
<trkpt lat="34.8820044" lon="32.8561929">
<ele>1017.75</ele>
<time>2015-04-29T11:27:29Z</time>
</trkpt>
<trkpt lat="34.8820119" lon="32.8562544">
<ele>1018.26</ele>
<time>2015-04-29T11:27:31Z</time>
</trkpt>
<trkpt lat="34.8820166" lon="32.8563166">
<ele>1018.63</ele>
<time>2015-04-29T11:27:33Z</time>
</trkpt>
<trkpt lat="34.8820129" lon="32.8563784">
<ele>1018.73</ele>
<time>2015-04-29T11:27:35Z</time>
</trkpt>
<trkpt lat="34.8820122" lon="32.8564412">
<ele>1018.75</ele>
<time>2015-04-29T11:27:37Z</time>
</trkpt>
<trkpt lat="34.8820121" lon="32.8565073">
<ele>1019.51</ele>
<time>2015-04-29T11:27:39Z</time>
</trkpt>
<trkpt lat="34.8820081" lon="32.8565820">
<ele>1020.20</ele>
<time>2015-04-29T11:27:41Z</time>
</trkpt>
<trkpt lat="34.8820017" lon="32.8566507">
<ele>1020.62</ele>
<time>2015-04-29T11:27:43Z</time>
</trkpt>
<trkpt lat="34.8820025" lon="32.8567179">
<ele>1020.72</ele>
<time>2015-04-29T11:27:45Z</time>
</trkpt>
<trkpt lat="34.8819980" lon="32.8567830">
<ele>1020.75</ele>
<time>2015-04-29T11:27:47Z</time>
</trkpt>
<trkpt lat="34.8819925" lon="32.8568444">
<ele>1020.76</ele>
<time>2015-04-29T11:27:49Z</time>
</trkpt>
<trkpt lat="34.8819914" lon="32.8569040">
<ele>1020.76</ele>
<time>2015-04-29T11:27:51Z</time>
</trkpt>
<trkpt lat="34.8819860" lon="32.8569827">
<ele>1020.76</ele>
<time>2015-04-29T11:27:54Z</time>
</trkpt>
<trkpt lat="34.8819842" lon="32.8570597">
<ele>1020.76</ele>
<time>2015-04-29T11:27:57Z</time>
</trkpt>
<trkpt lat="34.8819872" lon="32.8571410">
<ele>1020.76</ele>
<time>2015-04-29T11:28:00Z</time>
</trkpt>
<trkpt lat="34.8819885" lon="32.8571968">
<ele>1021.26</ele>
<time>2015-04-29T11:28:02Z</time>
</trkpt>
<trkpt lat="34.8819850" lon="32.8572532">
<ele>1021.64</ele>
<time>2015-04-29T11:28:04Z</time>
</trkpt>
<trkpt lat="34.8819848" lon="32.8573129">
<ele>1021.73</ele>
<time>2015-04-29T11:28:06Z</time>
</trkpt>
<trkpt lat="34.8819847" lon="32.8573755">
<ele>1022.50</ele>
<time>2015-04-29T11:28:08Z</time>
</trkpt>
<trkpt lat="34.8819803" lon="32.8574390">
<ele>1022.70</ele>
<time>2015-04-29T11:28:10Z</time>
</trkpt>
<trkpt lat="34.8819688" lon="32.8575021">
<ele>1022.74</ele>
<time>2015-04-29T11:28:12Z</time>
</trkpt>
<trkpt lat="34.8819472" lon="32.8575617">
<ele>1021.26</ele>
<time>2015-04-29T11:28:14Z</time>
</trkpt>
<trkpt lat="34.8819116" lon="32.8576187">
<ele>1020.63</ele>
<time>2015-04-29T11:28:16Z</time>
</trkpt>
<trkpt lat="34.8818861" lon="32.8576859">
<ele>1019.98</ele>
<time>2015-04-29T11:28:18Z</time>
</trkpt>
<trkpt lat="34.8818652" lon="32.8577536">
<ele>1019.81</ele>
<time>2015-04-29T11:28:20Z</time>
</trkpt>
<trkpt lat="34.8818416" lon="32.8578189">
<ele>1019.77</ele>
<time>2015-04-29T11:28:22Z</time>
</trkpt>
<trkpt lat="34.8818146" lon="32.8578831">
<ele>1020.51</ele>
<time>2015-04-29T11:28:24Z</time>
</trkpt>
<trkpt lat="34.8817907" lon="32.8579480">
<ele>1021.20</ele>
<time>2015-04-29T11:28:26Z</time>
</trkpt>
<trkpt lat="34.8817724" lon="32.8580151">
<ele>1022.12</ele>
<time>2015-04-29T11:28:28Z</time>
</trkpt>
<trkpt lat="34.8817526" lon="32.8580820">
<ele>1022.60</ele>
<time>2015-04-29T11:28:30Z</time>
</trkpt>
<trkpt lat="34.8817323" lon="32.8581497">
<ele>1023.47</ele>
<time>2015-04-29T11:28:32Z</time>
</trkpt>
<trkpt lat="34.8817116" lon="32.8582190">
<ele>1023.69</ele>
<time>2015-04-29T11:28:34Z</time>
</trkpt>
<trkpt lat="34.8816910" lon="32.8582876">
<ele>1023.74</ele>
<time>2015-04-29T11:28:36Z</time>
</trkpt>
<trkpt lat="34.8816691" lon="32.8583507">
<ele>1023.76</ele>
<time>2015-04-29T11:28:38Z</time>
</trkpt>
<trkpt lat="34.8816493" lon="32.8584130">
<ele>1024.26</ele>
<time>2015-04-29T11:28:40Z</time>
</trkpt>
<trkpt lat="34.8816312" lon="32.8584764">
<ele>1024.63</ele>
<time>2015-04-29T11:28:42Z</time>
</trkpt>
<trkpt lat="34.8816116" lon="32.8585370">
<ele>1024.73</ele>
<time>2015-04-29T11:28:44Z</time>
</trkpt>
<trkpt lat="34.8815905" lon="32.8585951">
<ele>1024.75</ele>
<time>2015-04-29T11:28:46Z</time>
</trkpt>
<trkpt lat="34.8815788" lon="32.8586587">
<ele>1025.26</ele>
<time>2015-04-29T11:28:48Z</time>
</trkpt>
<trkpt lat="34.8815690" lon="32.8587236">
<ele>1026.13</ele>
<time>2015-04-29T11:28:50Z</time>
</trkpt>
<trkpt lat="34.8815640" lon="32.8587891">
<ele>1026.60</ele>
<time>2015-04-29T11:28:52Z</time>
</trkpt>
<trkpt lat="34.8815649" lon="32.8588519">
<ele>1027.47</ele>
<time>2015-04-29T11:28:54Z</time>
</trkpt>
<trkpt lat="34.8815656" lon="32.8589297">
<ele>1028.47</ele>
<time>2015-04-29T11:28:57Z</time>
</trkpt>
<trkpt lat="34.8815737" lon="32.8590095">
<ele>1028.72</ele>
<time>2015-04-29T11:29:00Z</time>
</trkpt>
<trkpt lat="34.8815881" lon="32.8590622">
<ele>1029.50</ele>
<time>2015-04-29T11:29:02Z</time>
</trkpt>
<trkpt lat="34.8816122" lon="32.8591332">
<ele>1029.73</ele>
<time>2015-04-29T11:29:05Z</time>
</trkpt>
<trkpt lat="34.8816356" lon="32.8591839">
<ele>1028.88</ele>
<time>2015-04-29T11:29:08Z</time>
</trkpt>
<trkpt lat="34.8816623" lon="32.8592408">
<ele>1029.28</ele>
<time>2015-04-29T11:29:11Z</time>
</trkpt>
<trkpt lat="34.8816990" lon="32.8592981">
<ele>1030.20</ele>
<time>2015-04-29T11:29:14Z</time>
</trkpt>
<trkpt lat="34.8817433" lon="32.8593517">
<ele>1030.69</ele>
<time>2015-04-29T11:29:17Z</time>
</trkpt>
<trkpt lat="34.8817846" lon="32.8594042">
<ele>1030.75</ele>
<time>2015-04-29T11:29:20Z</time>
</trkpt>
<trkpt lat="34.8818325" lon="32.8594418">
<ele>1030.76</ele>
<time>2015-04-29T11:29:25Z</time>
</trkpt>
<trkpt lat="34.8818764" lon="32.8594717">
<ele>1031.64</ele>
<time>2015-04-29T11:29:29Z</time>
</trkpt>
<trkpt lat="34.8819265" lon="32.8594963">
<ele>1031.99</ele>
<time>2015-04-29T11:29:32Z</time>
</trkpt>
<trkpt lat="34.8819860" lon="32.8595174">
<ele>1032.66</ele>
<time>2015-04-29T11:29:35Z</time>
</trkpt>
<trkpt lat="34.8820436" lon="32.8595402">
<ele>1033.50</ele>
<time>2015-04-29T11:29:38Z</time>
</trkpt>
<trkpt lat="34.8820911" lon="32.8595620">
<ele>1033.73</ele>
<time>2015-04-29T11:29:41Z</time>
</trkpt>
<trkpt lat="34.8821398" lon="32.8595755">
<ele>1034.70</ele>
<time>2015-04-29T11:29:46Z</time>
</trkpt>
<trkpt lat="34.8821905" lon="32.8595977">
<ele>1034.88</ele>
<time>2015-04-29T11:29:50Z</time>
</trkpt>
<trkpt lat="34.8822400" lon="32.8596194">
<ele>1035.53</ele>
<time>2015-04-29T11:29:53Z</time>
</trkpt>
<trkpt lat="34.8822967" lon="32.8596494">
<ele>1036.48</ele>
<time>2015-04-29T11:29:56Z</time>
</trkpt>
<trkpt lat="34.8823476" lon="32.8596912">
<ele>1036.73</ele>
<time>2015-04-29T11:29:59Z</time>
</trkpt>
<trkpt lat="34.8823930" lon="32.8597442">
<ele>1037.26</ele>
<time>2015-04-29T11:30:02Z</time>
</trkpt>
<trkpt lat="34.8824379" lon="32.8598010">
<ele>1037.70</ele>
<time>2015-04-29T11:30:05Z</time>
</trkpt>
<trkpt lat="34.8824667" lon="32.8598574">
<ele>1038.25</ele>
<time>2015-04-29T11:30:08Z</time>
</trkpt>
<trkpt lat="34.8824912" lon="32.8599066">
<ele>1038.45</ele>
<time>2015-04-29T11:30:11Z</time>
</trkpt>
<trkpt lat="34.8825168" lon="32.8599605">
<ele>1035.96</ele>
<time>2015-04-29T11:30:17Z</time>
</trkpt>
<trkpt lat="34.8825609" lon="32.8599754">
<ele>1035.58</ele>
<time>2015-04-29T11:30:21Z</time>
</trkpt>
<trkpt lat="34.8826058" lon="32.8599614">
<ele>1037.36</ele>
<time>2015-04-29T11:30:24Z</time>
</trkpt>
<trkpt lat="34.8826697" lon="32.8599261">
<ele>1039.21</ele>
<time>2015-04-29T11:30:27Z</time>
</trkpt>
<trkpt lat="34.8827236" lon="32.8599075">
<ele>1039.62</ele>
<time>2015-04-29T11:30:29Z</time>
</trkpt>
<trkpt lat="34.8827745" lon="32.8598935">
<ele>1040.23</ele>
<time>2015-04-29T11:30:31Z</time>
</trkpt>
<trkpt lat="34.8828346" lon="32.8598761">
<ele>1040.19</ele>
<time>2015-04-29T11:30:34Z</time>
</trkpt>
<trkpt lat="34.8828825" lon="32.8598672">
<ele>1039.69</ele>
<time>2015-04-29T11:30:37Z</time>
</trkpt>
<trkpt lat="34.8829315" lon="32.8598559">
<ele>1041.00</ele>
<time>2015-04-29T11:30:40Z</time>
</trkpt>
<trkpt lat="34.8829879" lon="32.8598438">
<ele>1042.04</ele>
<time>2015-04-29T11:30:43Z</time>
</trkpt>
<trkpt lat="34.8830518" lon="32.8598120">
<ele>1042.05</ele>
<time>2015-04-29T11:30:46Z</time>
</trkpt>
<trkpt lat="34.8830947" lon="32.8597915">
<ele>1041.83</ele>
<time>2015-04-29T11:30:48Z</time>
</trkpt>
<trkpt lat="34.8831523" lon="32.8597614">
<ele>1040.03</ele>
<time>2015-04-29T11:30:50Z</time>
</trkpt>
<trkpt lat="34.8832100" lon="32.8597370">
<ele>1039.58</ele>
<time>2015-04-29T11:30:52Z</time>
</trkpt>
<trkpt lat="34.8832656" lon="32.8597129">
<ele>1039.71</ele>
<time>2015-04-29T11:30:54Z</time>
</trkpt>
<trkpt lat="34.8833165" lon="32.8596884">
<ele>1039.75</ele>
<time>2015-04-29T11:30:56Z</time>
</trkpt>
<trkpt lat="34.8833596" lon="32.8596654">
<ele>1040.26</ele>
<time>2015-04-29T11:30:58Z</time>
</trkpt>
<trkpt lat="34.8834165" lon="32.8596374">
<ele>1041.20</ele>
<time>2015-04-29T11:31:01Z</time>
</trkpt>
<trkpt lat="34.8834590" lon="32.8596685">
<ele>1040.34</ele>
<time>2015-04-29T11:31:06Z</time>
</trkpt>
<trkpt lat="34.8834575" lon="32.8597356">
<ele>1039.86</ele>
<time>2015-04-29T11:31:10Z</time>
</trkpt>
<trkpt lat="34.8834533" lon="32.8597922">
<ele>1040.45</ele>
<time>2015-04-29T11:31:23Z</time>
</trkpt>
<trkpt lat="34.8835008" lon="32.8598208">
<ele>1041.23</ele>
<time>2015-04-29T11:31:32Z</time>
</trkpt>
<trkpt lat="34.8835197" lon="32.8598790">
<ele>1043.10</ele>
<time>2015-04-29T11:31:36Z</time>
</trkpt>
<trkpt lat="34.8835357" lon="32.8599401">
<ele>1043.68</ele>
<time>2015-04-29T11:31:39Z</time>
</trkpt>
<trkpt lat="34.8835672" lon="32.8600074">
<ele>1045.50</ele>
<time>2015-04-29T11:31:42Z</time>
</trkpt>
<trkpt lat="34.8835995" lon="32.8600677">
<ele>1047.60</ele>
<time>2015-04-29T11:31:45Z</time>
</trkpt>
<trkpt lat="34.8836289" lon="32.8601231">
<ele>1048.49</ele>
<time>2015-04-29T11:31:48Z</time>
</trkpt>
<trkpt lat="34.8836444" lon="32.8601798">
<ele>1050.48</ele>
<time>2015-04-29T11:31:51Z</time>
</trkpt>
<trkpt lat="34.8836308" lon="32.8602325">
<ele>1052.88</ele>
<time>2015-04-29T11:32:02Z</time>
</trkpt>
<trkpt lat="34.8836693" lon="32.8602855">
<ele>1052.20</ele>
<time>2015-04-29T11:32:31Z</time>
</trkpt>
<trkpt lat="34.8836926" lon="32.8603489">
<ele>1053.06</ele>
<time>2015-04-29T11:32:34Z</time>
</trkpt>
<trkpt lat="34.8837073" lon="32.8604269">
<ele>1053.67</ele>
<time>2015-04-29T11:32:37Z</time>
</trkpt>
<trkpt lat="34.8837129" lon="32.8604964">
<ele>1053.75</ele>
<time>2015-04-29T11:32:40Z</time>
</trkpt>
<trkpt lat="34.8837362" lon="32.8605464">
<ele>1053.76</ele>
<time>2015-04-29T11:32:43Z</time>
</trkpt>
<trkpt lat="34.8837672" lon="32.8605954">
<ele>1052.82</ele>
<time>2015-04-29T11:32:48Z</time>
</trkpt>
<trkpt lat="34.8838010" lon="32.8606369">
<ele>1052.76</ele>
<time>2015-04-29T11:32:52Z</time>
</trkpt>
<trkpt lat="34.8838353" lon="32.8606750">
<ele>1052.76</ele>
<time>2015-04-29T11:32:56Z</time>
</trkpt>
<trkpt lat="34.8838725" lon="32.8607206">
<ele>1051.82</ele>
<time>2015-04-29T11:33:01Z</time>
</trkpt>
<trkpt lat="34.8839130" lon="32.8607520">
<ele>1051.70</ele>
<time>2015-04-29T11:33:06Z</time>
</trkpt>
<trkpt lat="34.8839518" lon="32.8607939">
<ele>1052.98</ele>
<time>2015-04-29T11:33:11Z</time>
</trkpt>
<trkpt lat="34.8839924" lon="32.8608317">
<ele>1052.34</ele>
<time>2015-04-29T11:33:15Z</time>
</trkpt>
<trkpt lat="34.8840272" lon="32.8608802">
<ele>1052.11</ele>
<time>2015-04-29T11:33:19Z</time>
</trkpt>
<trkpt lat="34.8840695" lon="32.8609315">
<ele>1052.28</ele>
<time>2015-04-29T11:33:23Z</time>
</trkpt>
<trkpt lat="34.8841040" lon="32.8609669">
<ele>1052.70</ele>
<time>2015-04-29T11:33:26Z</time>
</trkpt>
<trkpt lat="34.8841355" lon="32.8610248">
<ele>1053.63</ele>
<time>2015-04-29T11:33:30Z</time>
</trkpt>
<trkpt lat="34.8841648" lon="32.8610781">
<ele>1055.19</ele>
<time>2015-04-29T11:33:34Z</time>
</trkpt>
<trkpt lat="34.8841857" lon="32.8611338">
<ele>1057.10</ele>
<time>2015-04-29T11:33:38Z</time>
</trkpt>
<trkpt lat="34.8842068" lon="32.8611884">
<ele>1057.72</ele>
<time>2015-04-29T11:33:42Z</time>
</trkpt>
<trkpt lat="34.8842317" lon="32.8612456">
<ele>1058.38</ele>
<time>2015-04-29T11:33:46Z</time>
</trkpt>
<trkpt lat="34.8842619" lon="32.8613134">
<ele>1058.74</ele>
<time>2015-04-29T11:33:50Z</time>
</trkpt>
<trkpt lat="34.8842990" lon="32.8613669">
<ele>1058.76</ele>
<time>2015-04-29T11:33:53Z</time>
</trkpt>
<trkpt lat="34.8843322" lon="32.8614135">
<ele>1058.76</ele>
<time>2015-04-29T11:33:56Z</time>
</trkpt>
<trkpt lat="34.8843678" lon="32.8614709">
<ele>1060.45</ele>
<time>2015-04-29T11:34:00Z</time>
</trkpt>
<trkpt lat="34.8843980" lon="32.8615236">
<ele>1062.43</ele>
<time>2015-04-29T11:34:04Z</time>
</trkpt>
<trkpt lat="34.8844402" lon="32.8615604">
<ele>1063.30</ele>
<time>2015-04-29T11:34:08Z</time>
</trkpt>
<trkpt lat="34.8844859" lon="32.8616040">
<ele>1063.73</ele>
<time>2015-04-29T11:34:12Z</time>
</trkpt>
<trkpt lat="34.8845218" lon="32.8616483">
<ele>1064.63</ele>
<time>2015-04-29T11:34:15Z</time>
</trkpt>
<trkpt lat="34.8845534" lon="32.8616934">
<ele>1065.24</ele>
<time>2015-04-29T11:34:18Z</time>
</trkpt>
<trkpt lat="34.8845839" lon="32.8617383">
<ele>1066.20</ele>
<time>2015-04-29T11:34:21Z</time>
</trkpt>
<trkpt lat="34.8846179" lon="32.8617850">
<ele>1066.69</ele>
<time>2015-04-29T11:34:24Z</time>
</trkpt>
<trkpt lat="34.8846513" lon="32.8618301">
<ele>1067.63</ele>
<time>2015-04-29T11:34:27Z</time>
</trkpt>
<trkpt lat="34.8846812" lon="32.8618757">
<ele>1067.49</ele>
<time>2015-04-29T11:34:30Z</time>
</trkpt>
<trkpt lat="34.8847241" lon="32.8619251">
<ele>1068.43</ele>
<time>2015-04-29T11:34:34Z</time>
</trkpt>
<trkpt lat="34.8847649" lon="32.8619624">
<ele>1069.59</ele>
<time>2015-04-29T11:34:37Z</time>
</trkpt>
<trkpt lat="34.8847997" lon="32.8619997">
<ele>1070.47</ele>
<time>2015-04-29T11:34:39Z</time>
</trkpt>
<trkpt lat="34.8848396" lon="32.8620570">
<ele>1070.97</ele>
<time>2015-04-29T11:34:42Z</time>
</trkpt>
<trkpt lat="34.8848676" lon="32.8621130">
<ele>1070.29</ele>
<time>2015-04-29T11:34:45Z</time>
</trkpt>
<trkpt lat="34.8848913" lon="32.8621737">
<ele>1069.79</ele>
<time>2015-04-29T11:34:49Z</time>
</trkpt>
<trkpt lat="34.8849026" lon="32.8622319">
<ele>1070.51</ele>
<time>2015-04-29T11:34:52Z</time>
</trkpt>
<trkpt lat="34.8849075" lon="32.8622929">
<ele>1070.73</ele>
<time>2015-04-29T11:34:55Z</time>
</trkpt>
<trkpt lat="34.8849132" lon="32.8623624">
<ele>1070.63</ele>
<time>2015-04-29T11:34:59Z</time>
</trkpt>
<trkpt lat="34.8849166" lon="32.8624185">
<ele>1070.62</ele>
<time>2015-04-29T11:35:02Z</time>
</trkpt>
<trkpt lat="34.8849219" lon="32.8624835">
<ele>1071.24</ele>
<time>2015-04-29T11:35:05Z</time>
</trkpt>
<trkpt lat="34.8849234" lon="32.8625694">
<ele>1071.70</ele>
<time>2015-04-29T11:35:08Z</time>
</trkpt>
<trkpt lat="34.8849242" lon="32.8626259">
<ele>1071.49</ele>
<time>2015-04-29T11:35:10Z</time>
</trkpt>
<trkpt lat="34.8849347" lon="32.8627019">
<ele>1072.23</ele>
<time>2015-04-29T11:35:13Z</time>
</trkpt>
<trkpt lat="34.8849566" lon="32.8627767">
<ele>1072.69</ele>
<time>2015-04-29T11:35:16Z</time>
</trkpt>
<trkpt lat="34.8849657" lon="32.8628408">
<ele>1074.57</ele>
<time>2015-04-29T11:35:38Z</time>
</trkpt>
<trkpt lat="34.8849861" lon="32.8629086">
<ele>1073.99</ele>
<time>2015-04-29T11:35:41Z</time>
</trkpt>
<trkpt lat="34.8850035" lon="32.8629823">
<ele>1073.82</ele>
<time>2015-04-29T11:35:43Z</time>
</trkpt>
<trkpt lat="34.8850090" lon="32.8630562">
<ele>1073.77</ele>
<time>2015-04-29T11:35:45Z</time>
</trkpt>
<trkpt lat="34.8849930" lon="32.8631237">
<ele>1073.76</ele>
<time>2015-04-29T11:35:47Z</time>
</trkpt>
<trkpt lat="34.8849698" lon="32.8631876">
<ele>1073.76</ele>
<time>2015-04-29T11:35:49Z</time>
</trkpt>
<trkpt lat="34.8849502" lon="32.8632478">
<ele>1072.51</ele>
<time>2015-04-29T11:35:51Z</time>
</trkpt>
<trkpt lat="34.8849268" lon="32.8633118">
<ele>1071.95</ele>
<time>2015-04-29T11:35:53Z</time>
</trkpt>
<trkpt lat="34.8849013" lon="32.8633671">
<ele>1071.81</ele>
<time>2015-04-29T11:35:55Z</time>
</trkpt>
<trkpt lat="34.8848995" lon="32.8634268">
<ele>1072.08</ele>
<time>2015-04-29T11:35:59Z</time>
</trkpt>
<trkpt lat="34.8849566" lon="32.8634282">
<ele>1072.22</ele>
<time>2015-04-29T11:36:03Z</time>
</trkpt>
<trkpt lat="34.8850036" lon="32.8634514">
<ele>1070.98</ele>
<time>2015-04-29T11:36:07Z</time>
</trkpt>
<trkpt lat="34.8850639" lon="32.8634515">
<ele>1070.77</ele>
<time>2015-04-29T11:36:11Z</time>
</trkpt>
<trkpt lat="34.8851145" lon="32.8634550">
<ele>1072.39</ele>
<time>2015-04-29T11:36:14Z</time>
</trkpt>
<trkpt lat="34.8851637" lon="32.8634660">
<ele>1072.71</ele>
<time>2015-04-29T11:36:17Z</time>
</trkpt>
<trkpt lat="34.8852112" lon="32.8634789">
<ele>1073.63</ele>
<time>2015-04-29T11:36:20Z</time>
</trkpt>
<trkpt lat="34.8852566" lon="32.8634951">
<ele>1074.62</ele>
<time>2015-04-29T11:36:23Z</time>
</trkpt>
<trkpt lat="34.8853020" lon="32.8635181">
<ele>1074.74</ele>
<time>2015-04-29T11:36:26Z</time>
</trkpt>
<trkpt lat="34.8853441" lon="32.8635435">
<ele>1074.76</ele>
<time>2015-04-29T11:36:29Z</time>
</trkpt>
<trkpt lat="34.8853863" lon="32.8635672">
<ele>1074.76</ele>
<time>2015-04-29T11:36:32Z</time>
</trkpt>
<trkpt lat="34.8854330" lon="32.8635789">
<ele>1075.26</ele>
<time>2015-04-29T11:36:35Z</time>
</trkpt>
<trkpt lat="34.8854779" lon="32.8636021">
<ele>1075.70</ele>
<time>2015-04-29T11:36:38Z</time>
</trkpt>
<trkpt lat="34.8855206" lon="32.8636203">
<ele>1075.75</ele>
<time>2015-04-29T11:36:41Z</time>
</trkpt>
<trkpt lat="34.8855637" lon="32.8636366">
<ele>1076.26</ele>
<time>2015-04-29T11:36:44Z</time>
</trkpt>
<trkpt lat="34.8856187" lon="32.8636580">
<ele>1076.79</ele>
<time>2015-04-29T11:36:48Z</time>
</trkpt>
<trkpt lat="34.8856726" lon="32.8636853">
<ele>1077.70</ele>
<time>2015-04-29T11:36:52Z</time>
</trkpt>
<trkpt lat="34.8857169" lon="32.8636974">
<ele>1077.63</ele>
<time>2015-04-29T11:36:55Z</time>
</trkpt>
<trkpt lat="34.8857628" lon="32.8637007">
<ele>1077.62</ele>
<time>2015-04-29T11:36:58Z</time>
</trkpt>
<trkpt lat="34.8858123" lon="32.8637161">
<ele>1079.12</ele>
<time>2015-04-29T11:37:01Z</time>
</trkpt>
<trkpt lat="34.8858620" lon="32.8637262">
<ele>1079.68</ele>
<time>2015-04-29T11:37:04Z</time>
</trkpt>
<trkpt lat="34.8859152" lon="32.8637405">
<ele>1080.38</ele>
<time>2015-04-29T11:37:07Z</time>
</trkpt>
<trkpt lat="34.8859633" lon="32.8637526">
<ele>1081.21</ele>
<time>2015-04-29T11:37:10Z</time>
</trkpt>
<trkpt lat="34.8860072" lon="32.8637666">
<ele>1082.94</ele>
<time>2015-04-29T11:37:13Z</time>
</trkpt>
<trkpt lat="34.8860496" lon="32.8637858">
<ele>1083.66</ele>
<time>2015-04-29T11:37:16Z</time>
</trkpt>
<trkpt lat="34.8861043" lon="32.8638107">
<ele>1083.63</ele>
<time>2015-04-29T11:37:20Z</time>
</trkpt>
<trkpt lat="34.8861575" lon="32.8638352">
<ele>1085.00</ele>
<time>2015-04-29T11:37:24Z</time>
</trkpt>
<trkpt lat="34.8862092" lon="32.8638582">
<ele>1086.03</ele>
<time>2015-04-29T11:37:28Z</time>
</trkpt>
<trkpt lat="34.8862540" lon="32.8638631">
<ele>1087.22</ele>
<time>2015-04-29T11:37:35Z</time>
</trkpt>
<trkpt lat="34.8862992" lon="32.8638702">
<ele>1088.68</ele>
<time>2015-04-29T11:37:40Z</time>
</trkpt>
<trkpt lat="34.8863526" lon="32.8638612">
<ele>1086.91</ele>
<time>2015-04-29T11:37:45Z</time>
</trkpt>
<trkpt lat="34.8864016" lon="32.8638738">
<ele>1086.77</ele>
<time>2015-04-29T11:37:49Z</time>
</trkpt>
<trkpt lat="34.8864588" lon="32.8638860">
<ele>1088.20</ele>
<time>2015-04-29T11:37:54Z</time>
</trkpt>
<trkpt lat="34.8865064" lon="32.8638968">
<ele>1088.72</ele>
<time>2015-04-29T11:37:58Z</time>
</trkpt>
<trkpt lat="34.8865557" lon="32.8638997">
<ele>1089.13</ele>
<time>2015-04-29T11:38:02Z</time>
</trkpt>
<trkpt lat="34.8866047" lon="32.8639086">
<ele>1089.72</ele>
<time>2015-04-29T11:38:06Z</time>
</trkpt>
<trkpt lat="34.8866570" lon="32.8639099">
<ele>1090.70</ele>
<time>2015-04-29T11:38:10Z</time>
</trkpt>
<trkpt lat="34.8867059" lon="32.8639167">
<ele>1091.51</ele>
<time>2015-04-29T11:38:14Z</time>
</trkpt>
<trkpt lat="34.8867580" lon="32.8639317">
<ele>1091.37</ele>
<time>2015-04-29T11:38:18Z</time>
</trkpt>
<trkpt lat="34.8868067" lon="32.8639424">
<ele>1091.67</ele>
<time>2015-04-29T11:38:22Z</time>
</trkpt>
<trkpt lat="34.8868620" lon="32.8639491">
<ele>1092.63</ele>
<time>2015-04-29T11:38:26Z</time>
</trkpt>
<trkpt lat="34.8869180" lon="32.8639505">
<ele>1092.62</ele>
<time>2015-04-29T11:38:29Z</time>
</trkpt>
<trkpt lat="34.8869726" lon="32.8639437">
<ele>1093.49</ele>
<time>2015-04-29T11:38:32Z</time>
</trkpt>
<trkpt lat="34.8870244" lon="32.8639378">
<ele>1094.68</ele>
<time>2015-04-29T11:38:36Z</time>
</trkpt>
<trkpt lat="34.8870655" lon="32.8639599">
<ele>1095.00</ele>
<time>2015-04-29T11:38:39Z</time>
</trkpt>
<trkpt lat="34.8871161" lon="32.8639752">
<ele>1095.17</ele>
<time>2015-04-29T11:38:42Z</time>
</trkpt>
<trkpt lat="34.8871672" lon="32.8639853">
<ele>1095.31</ele>
<time>2015-04-29T11:38:45Z</time>
</trkpt>
<trkpt lat="34.8872197" lon="32.8639854">
<ele>1096.68</ele>
<time>2015-04-29T11:38:50Z</time>
</trkpt>
<trkpt lat="34.8872662" lon="32.8640017">
<ele>1097.51</ele>
<time>2015-04-29T11:38:54Z</time>
</trkpt>
<trkpt lat="34.8873416" lon="32.8640219">
<ele>1098.60</ele>
<time>2015-04-29T11:38:58Z</time>
</trkpt>
<trkpt lat="34.8873936" lon="32.8640127">
<ele>1099.37</ele>
<time>2015-04-29T11:39:01Z</time>
</trkpt>
<trkpt lat="34.8874494" lon="32.8640038">
<ele>1098.55</ele>
<time>2015-04-29T11:39:05Z</time>
</trkpt>
<trkpt lat="34.8874983" lon="32.8640017">
<ele>1097.86</ele>
<time>2015-04-29T11:39:08Z</time>
</trkpt>
<trkpt lat="34.8875503" lon="32.8639957">
<ele>1096.27</ele>
<time>2015-04-29T11:39:11Z</time>
</trkpt>
<trkpt lat="34.8876047" lon="32.8640014">
<ele>1096.32</ele>
<time>2015-04-29T11:39:14Z</time>
</trkpt>
<trkpt lat="34.8876542" lon="32.8640177">
<ele>1097.46</ele>
<time>2015-04-29T11:39:17Z</time>
</trkpt>
<trkpt lat="34.8877134" lon="32.8640348">
<ele>1097.47</ele>
<time>2015-04-29T11:39:20Z</time>
</trkpt>
<trkpt lat="34.8877580" lon="32.8640564">
<ele>1097.69</ele>
<time>2015-04-29T11:39:22Z</time>
</trkpt>
<trkpt lat="34.8878017" lon="32.8640870">
<ele>1098.99</ele>
<time>2015-04-29T11:39:24Z</time>
</trkpt>
<trkpt lat="34.8878415" lon="32.8641218">
<ele>1099.82</ele>
<time>2015-04-29T11:39:26Z</time>
</trkpt>
<trkpt lat="34.8878800" lon="32.8641647">
<ele>1099.76</ele>
<time>2015-04-29T11:39:30Z</time>
</trkpt>
<trkpt lat="34.8879214" lon="32.8642144">
<ele>1100.64</ele>
<time>2015-04-29T11:39:34Z</time>
</trkpt>
<trkpt lat="34.8879626" lon="32.8642445">
<ele>1100.74</ele>
<time>2015-04-29T11:39:37Z</time>
</trkpt>
<trkpt lat="34.8880124" lon="32.8642820">
<ele>1101.26</ele>
<time>2015-04-29T11:39:41Z</time>
</trkpt>
<trkpt lat="34.8880592" lon="32.8643223">
<ele>1101.23</ele>
<time>2015-04-29T11:39:45Z</time>
</trkpt>
<trkpt lat="34.8881072" lon="32.8643604">
<ele>1102.16</ele>
<time>2015-04-29T11:39:49Z</time>
</trkpt>
<trkpt lat="34.8881551" lon="32.8643977">
<ele>1102.97</ele>
<time>2015-04-29T11:39:53Z</time>
</trkpt>
<trkpt lat="34.8881975" lon="32.8644237">
<ele>1103.99</ele>
<time>2015-04-29T11:39:58Z</time>
</trkpt>
<trkpt lat="34.8882485" lon="32.8644379">
<ele>1103.98</ele>
<time>2015-04-29T11:40:05Z</time>
</trkpt>
<trkpt lat="34.8882994" lon="32.8644434">
<ele>1104.99</ele>
<time>2015-04-29T11:40:10Z</time>
</trkpt>
<trkpt lat="34.8883468" lon="32.8644503">
<ele>1104.26</ele>
<time>2015-04-29T11:40:31Z</time>
</trkpt>
<trkpt lat="34.8883838" lon="32.8644843">
<ele>1102.99</ele>
<time>2015-04-29T11:40:36Z</time>
</trkpt>
<trkpt lat="34.8884293" lon="32.8644904">
<ele>1103.65</ele>
<time>2015-04-29T11:40:40Z</time>
</trkpt>
<trkpt lat="34.8884744" lon="32.8644893">
<ele>1103.94</ele>
<time>2015-04-29T11:40:44Z</time>
</trkpt>
<trkpt lat="34.8885204" lon="32.8645008">
<ele>1103.90</ele>
<time>2015-04-29T11:40:48Z</time>
</trkpt>
<trkpt lat="34.8885654" lon="32.8645230">
<ele>1105.96</ele>
<time>2015-04-29T11:40:52Z</time>
</trkpt>
<trkpt lat="34.8886191" lon="32.8645258">
<ele>1106.86</ele>
<time>2015-04-29T11:40:57Z</time>
</trkpt>
<trkpt lat="34.8886699" lon="32.8645483">
<ele>1106.39</ele>
<time>2015-04-29T11:41:03Z</time>
</trkpt>
<trkpt lat="34.8887056" lon="32.8645899">
<ele>1107.55</ele>
<time>2015-04-29T11:41:07Z</time>
</trkpt>
<trkpt lat="34.8887422" lon="32.8646345">
<ele>1108.00</ele>
<time>2015-04-29T11:41:11Z</time>
</trkpt>
<trkpt lat="34.8887794" lon="32.8646810">
<ele>1108.66</ele>
<time>2015-04-29T11:41:14Z</time>
</trkpt>
<trkpt lat="34.8888071" lon="32.8647382">
<ele>1108.62</ele>
<time>2015-04-29T11:41:17Z</time>
</trkpt>
<trkpt lat="34.8888380" lon="32.8647837">
<ele>1112.00</ele>
<time>2015-04-29T11:41:25Z</time>
</trkpt>
<trkpt lat="34.8888683" lon="32.8648371">
<ele>1111.77</ele>
<time>2015-04-29T11:41:30Z</time>
</trkpt>
<trkpt lat="34.8888513" lon="32.8647783">
<ele>1115.23</ele>
<time>2015-04-29T11:41:43Z</time>
</trkpt>
<trkpt lat="34.8888142" lon="32.8648165">
<ele>1114.01</ele>
<time>2015-04-29T11:42:38Z</time>
</trkpt>
<trkpt lat="34.8888077" lon="32.8648728">
<ele>1115.28</ele>
<time>2015-04-29T11:42:44Z</time>
</trkpt>
<trkpt lat="34.8888494" lon="32.8649269">
<ele>1115.20</ele>
<time>2015-04-29T11:42:47Z</time>
</trkpt>
<trkpt lat="34.8888878" lon="32.8649732">
<ele>1113.56</ele>
<time>2015-04-29T11:42:50Z</time>
</trkpt>
<trkpt lat="34.8889212" lon="32.8650249">
<ele>1112.74</ele>
<time>2015-04-29T11:42:53Z</time>
</trkpt>
<trkpt lat="34.8889556" lon="32.8650678">
<ele>1113.63</ele>
<time>2015-04-29T11:42:56Z</time>
</trkpt>
<trkpt lat="34.8889929" lon="32.8651111">
<ele>1115.01</ele>
<time>2015-04-29T11:43:01Z</time>
</trkpt>
<trkpt lat="34.8890312" lon="32.8651532">
<ele>1116.25</ele>
<time>2015-04-29T11:43:07Z</time>
</trkpt>
<trkpt lat="34.8890811" lon="32.8651694">
<ele>1116.75</ele>
<time>2015-04-29T11:43:13Z</time>
</trkpt>
<trkpt lat="34.8891309" lon="32.8651934">
<ele>1117.70</ele>
<time>2015-04-29T11:43:19Z</time>
</trkpt>
<trkpt lat="34.8891760" lon="32.8652226">
<ele>1118.51</ele>
<time>2015-04-29T11:43:23Z</time>
</trkpt>
<trkpt lat="34.8892235" lon="32.8652484">
<ele>1119.48</ele>
<time>2015-04-29T11:43:26Z</time>
</trkpt>
<trkpt lat="34.8892679" lon="32.8652660">
<ele>1120.60</ele>
<time>2015-04-29T11:43:29Z</time>
</trkpt>
<trkpt lat="34.8893060" lon="32.8653010">
<ele>1122.00</ele>
<time>2015-04-29T11:43:33Z</time>
</trkpt>
<trkpt lat="34.8893513" lon="32.8653364">
<ele>1124.20</ele>
<time>2015-04-29T11:43:38Z</time>
</trkpt>
<trkpt lat="34.8894025" lon="32.8653566">
<ele>1123.85</ele>
<time>2015-04-29T11:43:42Z</time>
</trkpt>
<trkpt lat="34.8894548" lon="32.8653865">
<ele>1123.39</ele>
<time>2015-04-29T11:43:46Z</time>
</trkpt>
<trkpt lat="34.8894982" lon="32.8654195">
<ele>1122.99</ele>
<time>2015-04-29T11:43:50Z</time>
</trkpt>
<trkpt lat="34.8895436" lon="32.8654489">
<ele>1123.46</ele>
<time>2015-04-29T11:43:54Z</time>
</trkpt>
<trkpt lat="34.8895958" lon="32.8654847">
<ele>1124.68</ele>
<time>2015-04-29T11:43:58Z</time>
</trkpt>
<trkpt lat="34.8896423" lon="32.8655147">
<ele>1125.12</ele>
<time>2015-04-29T11:44:01Z</time>
</trkpt>
<trkpt lat="34.8896926" lon="32.8655387">
<ele>1124.18</ele>
<time>2015-04-29T11:44:04Z</time>
</trkpt>
<trkpt lat="34.8897348" lon="32.8655678">
<ele>1123.81</ele>
<time>2015-04-29T11:44:07Z</time>
</trkpt>
<trkpt lat="34.8897781" lon="32.8655967">
<ele>1123.77</ele>
<time>2015-04-29T11:44:10Z</time>
</trkpt>
<trkpt lat="34.8898219" lon="32.8656453">
<ele>1124.39</ele>
<time>2015-04-29T11:44:14Z</time>
</trkpt>
<trkpt lat="34.8898677" lon="32.8656934">
<ele>1124.74</ele>
<time>2015-04-29T11:44:18Z</time>
</trkpt>
<trkpt lat="34.8899028" lon="32.8657280">
<ele>1124.76</ele>
<time>2015-04-29T11:44:36Z</time>
</trkpt>
<trkpt lat="34.8899481" lon="32.8657272">
<ele>1122.95</ele>
<time>2015-04-29T11:45:20Z</time>
</trkpt>
<trkpt lat="34.8899802" lon="32.8657669">
<ele>1125.19</ele>
<time>2015-04-29T11:45:27Z</time>
</trkpt>
<trkpt lat="34.8899837" lon="32.8658230">
<ele>1127.73</ele>
<time>2015-04-29T11:45:52Z</time>
</trkpt>
<trkpt lat="34.8899404" lon="32.8658451">
<ele>1128.26</ele>
<time>2015-04-29T11:53:57Z</time>
</trkpt>
<trkpt lat="34.8898972" lon="32.8658264">
<ele>1128.64</ele>
<time>2015-04-29T11:53:59Z</time>
</trkpt>
<trkpt lat="34.8898433" lon="32.8657938">
<ele>1129.48</ele>
<time>2015-04-29T11:54:01Z</time>
</trkpt>
<trkpt lat="34.8897929" lon="32.8657602">
<ele>1128.94</ele>
<time>2015-04-29T11:54:03Z</time>
</trkpt>
<trkpt lat="34.8897462" lon="32.8657368">
<ele>1127.08</ele>
<time>2015-04-29T11:54:07Z</time>
</trkpt>
<trkpt lat="34.8897896" lon="32.8657018">
<ele>1123.87</ele>
<time>2015-04-29T11:55:45Z</time>
</trkpt>
<trkpt lat="34.8898447" lon="32.8657258">
<ele>1122.64</ele>
<time>2015-04-29T11:55:49Z</time>
</trkpt>
<trkpt lat="34.8898821" lon="32.8657604">
<ele>1123.37</ele>
<time>2015-04-29T11:55:52Z</time>
</trkpt>
<trkpt lat="34.8899220" lon="32.8657905">
<ele>1124.09</ele>
<time>2015-04-29T11:55:55Z</time>
</trkpt>
<trkpt lat="34.8899659" lon="32.8658128">
<ele>1124.68</ele>
<time>2015-04-29T11:55:58Z</time>
</trkpt>
<trkpt lat="34.8900150" lon="32.8658531">
<ele>1124.25</ele>
<time>2015-04-29T11:56:02Z</time>
</trkpt>
<trkpt lat="34.8900518" lon="32.8658865">
<ele>1124.70</ele>
<time>2015-04-29T11:56:05Z</time>
</trkpt>
<trkpt lat="34.8900926" lon="32.8659196">
<ele>1126.00</ele>
<time>2015-04-29T11:56:08Z</time>
</trkpt>
<trkpt lat="34.8901413" lon="32.8659624">
<ele>1127.21</ele>
<time>2015-04-29T11:56:12Z</time>
</trkpt>
<trkpt lat="34.8901956" lon="32.8659758">
<ele>1124.29</ele>
<time>2015-04-29T11:56:16Z</time>
</trkpt>
<trkpt lat="34.8902442" lon="32.8659865">
<ele>1122.86</ele>
<time>2015-04-29T11:56:20Z</time>
</trkpt>
<trkpt lat="34.8902927" lon="32.8660078">
<ele>1123.27</ele>
<time>2015-04-29T11:56:24Z</time>
</trkpt>
<trkpt lat="34.8903412" lon="32.8660530">
<ele>1125.35</ele>
<time>2015-04-29T11:56:28Z</time>
</trkpt>
<trkpt lat="34.8903851" lon="32.8660837">
<ele>1127.33</ele>
<time>2015-04-29T11:56:31Z</time>
</trkpt>
<trkpt lat="34.8904311" lon="32.8661200">
<ele>1129.46</ele>
<time>2015-04-29T11:56:34Z</time>
</trkpt>
<trkpt lat="34.8904776" lon="32.8661517">
<ele>1130.22</ele>
<time>2015-04-29T11:56:37Z</time>
</trkpt>
<trkpt lat="34.8905193" lon="32.8661847">
<ele>1131.57</ele>
<time>2015-04-29T11:56:40Z</time>
</trkpt>
<trkpt lat="34.8905595" lon="32.8662132">
<ele>1132.61</ele>
<time>2015-04-29T11:56:43Z</time>
</trkpt>
<trkpt lat="34.8906076" lon="32.8662522">
<ele>1132.00</ele>
<time>2015-04-29T11:56:47Z</time>
</trkpt>
<trkpt lat="34.8906520" lon="32.8662879">
<ele>1132.28</ele>
<time>2015-04-29T11:56:51Z</time>
</trkpt>
<trkpt lat="34.8907006" lon="32.8663214">
<ele>1133.92</ele>
<time>2015-04-29T11:56:55Z</time>
</trkpt>
<trkpt lat="34.8907569" lon="32.8663433">
<ele>1132.83</ele>
<time>2015-04-29T11:56:59Z</time>
</trkpt>
<trkpt lat="34.8908049" lon="32.8663548">
<ele>1132.27</ele>
<time>2015-04-29T11:57:02Z</time>
</trkpt>
<trkpt lat="34.8908434" lon="32.8663914">
<ele>1132.57</ele>
<time>2015-04-29T11:57:05Z</time>
</trkpt>
<trkpt lat="34.8908780" lon="32.8664327">
<ele>1131.74</ele>
<time>2015-04-29T11:57:08Z</time>
</trkpt>
<trkpt lat="34.8909217" lon="32.8664637">
<ele>1133.88</ele>
<time>2015-04-29T11:57:11Z</time>
</trkpt>
<trkpt lat="34.8909638" lon="32.8664990">
<ele>1135.40</ele>
<time>2015-04-29T11:57:14Z</time>
</trkpt>
<trkpt lat="34.8910027" lon="32.8665353">
<ele>1136.22</ele>
<time>2015-04-29T11:57:17Z</time>
</trkpt>
<trkpt lat="34.8910462" lon="32.8665711">
<ele>1136.69</ele>
<time>2015-04-29T11:57:20Z</time>
</trkpt>
<trkpt lat="34.8910888" lon="32.8666099">
<ele>1138.38</ele>
<time>2015-04-29T11:57:23Z</time>
</trkpt>
<trkpt lat="34.8911346" lon="32.8666524">
<ele>1141.09</ele>
<time>2015-04-29T11:57:26Z</time>
</trkpt>
<trkpt lat="34.8911800" lon="32.8666873">
<ele>1142.43</ele>
<time>2015-04-29T11:57:29Z</time>
</trkpt>
<trkpt lat="34.8912238" lon="32.8667139">
<ele>1142.72</ele>
<time>2015-04-29T11:57:32Z</time>
</trkpt>
<trkpt lat="34.8912692" lon="32.8667350">
<ele>1141.13</ele>
<time>2015-04-29T11:57:37Z</time>
</trkpt>
<trkpt lat="34.8913126" lon="32.8667504">
<ele>1141.53</ele>
<time>2015-04-29T11:57:41Z</time>
</trkpt>
<trkpt lat="34.8913608" lon="32.8667707">
<ele>1142.48</ele>
<time>2015-04-29T11:57:44Z</time>
</trkpt>
<trkpt lat="34.8914157" lon="32.8667894">
<ele>1145.23</ele>
<time>2015-04-29T11:57:47Z</time>
</trkpt>
<trkpt lat="34.8914610" lon="32.8668014">
<ele>1147.32</ele>
<time>2015-04-29T11:57:50Z</time>
</trkpt>
<trkpt lat="34.8915164" lon="32.8668155">
<ele>1146.92</ele>
<time>2015-04-29T11:57:54Z</time>
</trkpt>
<trkpt lat="34.8915720" lon="32.8668330">
<ele>1147.65</ele>
<time>2015-04-29T11:57:58Z</time>
</trkpt>
<trkpt lat="34.8916194" lon="32.8668632">
<ele>1147.32</ele>
<time>2015-04-29T11:58:02Z</time>
</trkpt>
<trkpt lat="34.8916644" lon="32.8668920">
<ele>1146.87</ele>
<time>2015-04-29T11:58:07Z</time>
</trkpt>
<trkpt lat="34.8917089" lon="32.8669219">
<ele>1146.33</ele>
<time>2015-04-29T11:58:11Z</time>
</trkpt>
<trkpt lat="34.8917472" lon="32.8669547">
<ele>1148.58</ele>
<time>2015-04-29T11:58:14Z</time>
</trkpt>
<trkpt lat="34.8917883" lon="32.8669972">
<ele>1148.00</ele>
<time>2015-04-29T11:58:18Z</time>
</trkpt>
<trkpt lat="34.8918212" lon="32.8670354">
<ele>1147.04</ele>
<time>2015-04-29T11:58:21Z</time>
</trkpt>
<trkpt lat="34.8918557" lon="32.8670712">
<ele>1146.04</ele>
<time>2015-04-29T11:58:24Z</time>
</trkpt>
<trkpt lat="34.8918965" lon="32.8671008">
<ele>1147.05</ele>
<time>2015-04-29T11:58:27Z</time>
</trkpt>
<trkpt lat="34.8919341" lon="32.8671390">
<ele>1147.55</ele>
<time>2015-04-29T11:58:30Z</time>
</trkpt>
<trkpt lat="34.8919847" lon="32.8671756">
<ele>1146.81</ele>
<time>2015-04-29T11:58:34Z</time>
</trkpt>
<trkpt lat="34.8920246" lon="32.8672187">
<ele>1144.83</ele>
<time>2015-04-29T11:58:38Z</time>
</trkpt>
<trkpt lat="34.8920746" lon="32.8672583">
<ele>1146.95</ele>
<time>2015-04-29T11:58:42Z</time>
</trkpt>
<trkpt lat="34.8921111" lon="32.8672969">
<ele>1149.55</ele>
<time>2015-04-29T11:58:53Z</time>
</trkpt>
<trkpt lat="34.8921564" lon="32.8673230">
<ele>1152.47</ele>
<time>2015-04-29T11:59:02Z</time>
</trkpt>
<trkpt lat="34.8921692" lon="32.8673814">
<ele>1140.64</ele>
<time>2015-04-29T11:59:23Z</time>
</trkpt>
<trkpt lat="34.8922263" lon="32.8674039">
<ele>1142.76</ele>
<time>2015-04-29T11:59:40Z</time>
</trkpt>
<trkpt lat="34.8922785" lon="32.8674183">
<ele>1142.76</ele>
<time>2015-04-29T11:59:43Z</time>
</trkpt>
<trkpt lat="34.8923362" lon="32.8674345">
<ele>1142.76</ele>
<time>2015-04-29T11:59:46Z</time>
</trkpt>
<trkpt lat="34.8923880" lon="32.8674584">
<ele>1142.76</ele>
<time>2015-04-29T11:59:49Z</time>
</trkpt>
<trkpt lat="34.8924396" lon="32.8674564">
<ele>1143.70</ele>
<time>2015-04-29T11:59:53Z</time>
</trkpt>
<trkpt lat="34.8924848" lon="32.8674462">
<ele>1144.74</ele>
<time>2015-04-29T11:59:59Z</time>
</trkpt>
<trkpt lat="34.8924374" lon="32.8674604">
<ele>1145.35</ele>
<time>2015-04-29T12:00:07Z</time>
</trkpt>
<trkpt lat="34.8923908" lon="32.8674186">
<ele>1146.46</ele>
<time>2015-04-29T12:00:10Z</time>
</trkpt>
<trkpt lat="34.8923405" lon="32.8673867">
<ele>1147.47</ele>
<time>2015-04-29T12:00:13Z</time>
</trkpt>
<trkpt lat="34.8922904" lon="32.8673548">
<ele>1146.97</ele>
<time>2015-04-29T12:00:16Z</time>
</trkpt>
<trkpt lat="34.8922405" lon="32.8673200">
<ele>1146.29</ele>
<time>2015-04-29T12:00:19Z</time>
</trkpt>
<trkpt lat="34.8921801" lon="32.8672960">
<ele>1146.08</ele>
<time>2015-04-29T12:00:22Z</time>
</trkpt>
<trkpt lat="34.8921005" lon="32.8672490">
<ele>1147.09</ele>
<time>2015-04-29T12:00:24Z</time>
</trkpt>
<trkpt lat="34.8920641" lon="32.8672134">
<ele>1147.42</ele>
<time>2015-04-29T12:00:25Z</time>
</trkpt>
<trkpt lat="34.8920309" lon="32.8671716">
<ele>1147.59</ele>
<time>2015-04-29T12:00:26Z</time>
</trkpt>
<trkpt lat="34.8920049" lon="32.8670936">
<ele>1147.68</ele>
<time>2015-04-29T12:00:27Z</time>
</trkpt>
<trkpt lat="34.8919803" lon="32.8670335">
<ele>1147.22</ele>
<time>2015-04-29T12:00:28Z</time>
</trkpt>
<trkpt lat="34.8919485" lon="32.8669494">
<ele>1148.12</ele>
<time>2015-04-29T12:00:30Z</time>
</trkpt>
<trkpt lat="34.8919356" lon="32.8668718">
<ele>1149.60</ele>
<time>2015-04-29T12:00:32Z</time>
</trkpt>
<trkpt lat="34.8919442" lon="32.8668101">
<ele>1150.47</ele>
<time>2015-04-29T12:00:34Z</time>
</trkpt>
<trkpt lat="34.8919648" lon="32.8667594">
<ele>1151.94</ele>
<time>2015-04-29T12:00:36Z</time>
</trkpt>
<trkpt lat="34.8919820" lon="32.8667016">
<ele>1153.55</ele>
<time>2015-04-29T12:00:38Z</time>
</trkpt>
<trkpt lat="34.8920021" lon="32.8666505">
<ele>1154.96</ele>
<time>2015-04-29T12:00:40Z</time>
</trkpt>
<trkpt lat="34.8920384" lon="32.8665867">
<ele>1154.78</ele>
<time>2015-04-29T12:00:43Z</time>
</trkpt>
<trkpt lat="34.8920837" lon="32.8665413">
<ele>1154.76</ele>
<time>2015-04-29T12:00:46Z</time>
</trkpt>
<trkpt lat="34.8921388" lon="32.8665152">
<ele>1156.89</ele>
<time>2015-04-29T12:00:49Z</time>
</trkpt>
<trkpt lat="34.8921821" lon="32.8664715">
<ele>1152.65</ele>
<time>2015-04-29T12:00:55Z</time>
</trkpt>
<trkpt lat="34.8922247" lon="32.8664440">
<ele>1151.48</ele>
<time>2015-04-29T12:00:57Z</time>
</trkpt>
<trkpt lat="34.8922679" lon="32.8664093">
<ele>1150.19</ele>
<time>2015-04-29T12:00:59Z</time>
</trkpt>
<trkpt lat="34.8923106" lon="32.8663674">
<ele>1149.12</ele>
<time>2015-04-29T12:01:01Z</time>
</trkpt>
<trkpt lat="34.8923531" lon="32.8663373">
<ele>1147.60</ele>
<time>2015-04-29T12:01:03Z</time>
</trkpt>
<trkpt lat="34.8923926" lon="32.8662865">
<ele>1143.99</ele>
<time>2015-04-29T12:01:06Z</time>
</trkpt>
<trkpt lat="34.8924191" lon="32.8662220">
<ele>1143.41</ele>
<time>2015-04-29T12:01:09Z</time>
</trkpt>
<trkpt lat="34.8924517" lon="32.8661566">
<ele>1145.84</ele>
<time>2015-04-29T12:01:12Z</time>
</trkpt>
<trkpt lat="34.8924696" lon="32.8660894">
<ele>1147.02</ele>
<time>2015-04-29T12:01:15Z</time>
</trkpt>
<trkpt lat="34.8924906" lon="32.8660315">
<ele>1149.79</ele>
<time>2015-04-29T12:01:18Z</time>
</trkpt>
<trkpt lat="34.8924964" lon="32.8659620">
<ele>1150.57</ele>
<time>2015-04-29T12:01:22Z</time>
</trkpt>
<trkpt lat="34.8924973" lon="32.8658979">
<ele>1152.12</ele>
<time>2015-04-29T12:01:26Z</time>
</trkpt>
<trkpt lat="34.8924893" lon="32.8658439">
<ele>1149.87</ele>
<time>2015-04-29T12:01:31Z</time>
</trkpt>
<trkpt lat="34.8925242" lon="32.8657997">
<ele>1148.52</ele>
<time>2015-04-29T12:01:49Z</time>
</trkpt>
<trkpt lat="34.8925839" lon="32.8658106">
<ele>1150.45</ele>
<time>2015-04-29T12:01:51Z</time>
</trkpt>
<trkpt lat="34.8926397" lon="32.8658526">
<ele>1151.43</ele>
<time>2015-04-29T12:01:53Z</time>
</trkpt>
<trkpt lat="34.8926740" lon="32.8659057">
<ele>1151.68</ele>
<time>2015-04-29T12:01:55Z</time>
</trkpt>
<trkpt lat="34.8926703" lon="32.8659701">
<ele>1151.24</ele>
<time>2015-04-29T12:01:57Z</time>
</trkpt>
<trkpt lat="34.8926508" lon="32.8660307">
<ele>1152.13</ele>
<time>2015-04-29T12:01:59Z</time>
</trkpt>
<trkpt lat="34.8926267" lon="32.8660878">
<ele>1154.35</ele>
<time>2015-04-29T12:02:01Z</time>
</trkpt>
<trkpt lat="34.8925891" lon="32.8661386">
<ele>1155.23</ele>
<time>2015-04-29T12:02:05Z</time>
</trkpt>
<trkpt lat="34.8925603" lon="32.8661914">
<ele>1153.94</ele>
<time>2015-04-29T12:02:08Z</time>
</trkpt>
<trkpt lat="34.8925303" lon="32.8662474">
<ele>1153.28</ele>
<time>2015-04-29T12:02:11Z</time>
</trkpt>
<trkpt lat="34.8925020" lon="32.8663119">
<ele>1153.58</ele>
<time>2015-04-29T12:02:14Z</time>
</trkpt>
<trkpt lat="34.8924667" lon="32.8663740">
<ele>1154.61</ele>
<time>2015-04-29T12:02:17Z</time>
</trkpt>
<trkpt lat="34.8924229" lon="32.8664191">
<ele>1156.87</ele>
<time>2015-04-29T12:02:20Z</time>
</trkpt>
<trkpt lat="34.8923877" lon="32.8664669">
<ele>1155.52</ele>
<time>2015-04-29T12:02:23Z</time>
</trkpt>
<trkpt lat="34.8923790" lon="32.8665253">
<ele>1155.61</ele>
<time>2015-04-29T12:02:26Z</time>
</trkpt>
<trkpt lat="34.8923589" lon="32.8665781">
<ele>1155.94</ele>
<time>2015-04-29T12:02:30Z</time>
</trkpt>
<trkpt lat="34.8923393" lon="32.8666415">
<ele>1156.65</ele>
<time>2015-04-29T12:02:34Z</time>
</trkpt>
<trkpt lat="34.8923327" lon="32.8666988">
<ele>1158.00</ele>
<time>2015-04-29T12:02:37Z</time>
</trkpt>
<trkpt lat="34.8923411" lon="32.8667594">
<ele>1158.66</ele>
<time>2015-04-29T12:02:40Z</time>
</trkpt>
<trkpt lat="34.8923566" lon="32.8668174">
<ele>1160.25</ele>
<time>2015-04-29T12:02:43Z</time>
</trkpt>
<trkpt lat="34.8923906" lon="32.8668616">
<ele>1162.07</ele>
<time>2015-04-29T12:02:46Z</time>
</trkpt>
<trkpt lat="34.8924285" lon="32.8668952">
<ele>1163.42</ele>
<time>2015-04-29T12:02:49Z</time>
</trkpt>
<trkpt lat="34.8924735" lon="32.8669127">
<ele>1164.47</ele>
<time>2015-04-29T12:02:52Z</time>
</trkpt>
<trkpt lat="34.8925210" lon="32.8669311">
<ele>1165.47</ele>
<time>2015-04-29T12:02:55Z</time>
</trkpt>
<trkpt lat="34.8925702" lon="32.8669568">
<ele>1166.47</ele>
<time>2015-04-29T12:02:58Z</time>
</trkpt>
<trkpt lat="34.8926202" lon="32.8669809">
<ele>1167.60</ele>
<time>2015-04-29T12:03:01Z</time>
</trkpt>
<trkpt lat="34.8926710" lon="32.8670008">
<ele>1168.49</ele>
<time>2015-04-29T12:03:04Z</time>
</trkpt>
<trkpt lat="34.8927302" lon="32.8670046">
<ele>1169.48</ele>
<time>2015-04-29T12:03:07Z</time>
</trkpt>
<trkpt lat="34.8927920" lon="32.8670112">
<ele>1171.35</ele>
<time>2015-04-29T12:03:10Z</time>
</trkpt>
<trkpt lat="34.8928490" lon="32.8670002">
<ele>1170.96</ele>
<time>2015-04-29T12:03:13Z</time>
</trkpt>
<trkpt lat="34.8929026" lon="32.8669797">
<ele>1171.03</ele>
<time>2015-04-29T12:03:16Z</time>
</trkpt>
<trkpt lat="34.8929574" lon="32.8669864">
<ele>1170.54</ele>
<time>2015-04-29T12:03:19Z</time>
</trkpt>
<trkpt lat="34.8930176" lon="32.8669740">
<ele>1171.62</ele>
<time>2015-04-29T12:03:23Z</time>
</trkpt>
<trkpt lat="34.8930724" lon="32.8669832">
<ele>1172.98</ele>
<time>2015-04-29T12:03:25Z</time>
</trkpt>
<trkpt lat="34.8931189" lon="32.8669917">
<ele>1173.56</ele>
<time>2015-04-29T12:03:27Z</time>
</trkpt>
<trkpt lat="34.8931710" lon="32.8669884">
<ele>1172.87</ele>
<time>2015-04-29T12:03:31Z</time>
</trkpt>
<trkpt lat="34.8932205" lon="32.8669869">
<ele>1171.27</ele>
<time>2015-04-29T12:03:35Z</time>
</trkpt>
<trkpt lat="34.8932792" lon="32.8669894">
<ele>1172.60</ele>
<time>2015-04-29T12:03:39Z</time>
</trkpt>
<trkpt lat="34.8933313" lon="32.8669937">
<ele>1173.49</ele>
<time>2015-04-29T12:03:42Z</time>
</trkpt>
<trkpt lat="34.8933976" lon="32.8670062">
<ele>1172.35</ele>
<time>2015-04-29T12:03:45Z</time>
</trkpt>
<trkpt lat="34.8934539" lon="32.8670168">
<ele>1172.41</ele>
<time>2015-04-29T12:03:47Z</time>
</trkpt>
<trkpt lat="34.8935083" lon="32.8670323">
<ele>1172.17</ele>
<time>2015-04-29T12:03:49Z</time>
</trkpt>
<trkpt lat="34.8935629" lon="32.8670514">
<ele>1172.61</ele>
<time>2015-04-29T12:03:51Z</time>
</trkpt>
<trkpt lat="34.8936218" lon="32.8670728">
<ele>1173.97</ele>
<time>2015-04-29T12:03:53Z</time>
</trkpt>
<trkpt lat="34.8936864" lon="32.8670973">
<ele>1174.56</ele>
<time>2015-04-29T12:03:55Z</time>
</trkpt>
<trkpt lat="34.8937605" lon="32.8671207">
<ele>1174.96</ele>
<time>2015-04-29T12:03:57Z</time>
</trkpt>
<trkpt lat="34.8938100" lon="32.8671320">
<ele>1175.36</ele>
<time>2015-04-29T12:03:58Z</time>
</trkpt>
<trkpt lat="34.8938773" lon="32.8671406">
<ele>1176.06</ele>
<time>2015-04-29T12:03:59Z</time>
</trkpt>
<trkpt lat="34.8939584" lon="32.8671680">
<ele>1177.09</ele>
<time>2015-04-29T12:04:01Z</time>
</trkpt>
<trkpt lat="34.8940390" lon="32.8671863">
<ele>1177.59</ele>
<time>2015-04-29T12:04:03Z</time>
</trkpt>
<trkpt lat="34.8941161" lon="32.8672122">
<ele>1177.47</ele>
<time>2015-04-29T12:04:05Z</time>
</trkpt>
<trkpt lat="34.8942036" lon="32.8672156">
<ele>1177.94</ele>
<time>2015-04-29T12:04:07Z</time>
</trkpt>
<trkpt lat="34.8942777" lon="32.8672409">
<ele>1176.80</ele>
<time>2015-04-29T12:04:09Z</time>
</trkpt>
<trkpt lat="34.8943368" lon="32.8672698">
<ele>1176.52</ele>
<time>2015-04-29T12:04:11Z</time>
</trkpt>
<trkpt lat="34.8943911" lon="32.8672835">
<ele>1177.95</ele>
<time>2015-04-29T12:04:13Z</time>
</trkpt>
<trkpt lat="34.8944494" lon="32.8672937">
<ele>1178.56</ele>
<time>2015-04-29T12:04:15Z</time>
</trkpt>
<trkpt lat="34.8945083" lon="32.8673119">
<ele>1179.96</ele>
<time>2015-04-29T12:04:17Z</time>
</trkpt>
<trkpt lat="34.8945605" lon="32.8673295">
<ele>1181.31</ele>
<time>2015-04-29T12:04:19Z</time>
</trkpt>
<trkpt lat="34.8946067" lon="32.8673518">
<ele>1177.87</ele>
<time>2015-04-29T12:04:24Z</time>
</trkpt>
<trkpt lat="34.8946686" lon="32.8673703">
<ele>1180.40</ele>
<time>2015-04-29T12:04:27Z</time>
</trkpt>
<trkpt lat="34.8947232" lon="32.8674004">
<ele>1183.59</ele>
<time>2015-04-29T12:04:30Z</time>
</trkpt>
<trkpt lat="34.8947669" lon="32.8674293">
<ele>1185.36</ele>
<time>2015-04-29T12:04:33Z</time>
</trkpt>
<trkpt lat="34.8948087" lon="32.8674709">
<ele>1189.09</ele>
<time>2015-04-29T12:04:36Z</time>
</trkpt>
<trkpt lat="34.8948468" lon="32.8675140">
<ele>1190.18</ele>
<time>2015-04-29T12:04:39Z</time>
</trkpt>
<trkpt lat="34.8948841" lon="32.8675615">
<ele>1192.69</ele>
<time>2015-04-29T12:04:42Z</time>
</trkpt>
<trkpt lat="34.8949129" lon="32.8676157">
<ele>1194.01</ele>
<time>2015-04-29T12:04:46Z</time>
</trkpt>
<trkpt lat="34.8949460" lon="32.8676622">
<ele>1195.78</ele>
<time>2015-04-29T12:04:50Z</time>
</trkpt>
<trkpt lat="34.8949826" lon="32.8677056">
<ele>1194.82</ele>
<time>2015-04-29T12:04:54Z</time>
</trkpt>
<trkpt lat="34.8950144" lon="32.8677622">
<ele>1196.14</ele>
<time>2015-04-29T12:04:59Z</time>
</trkpt>
<trkpt lat="34.8950426" lon="32.8678202">
<ele>1194.91</ele>
<time>2015-04-29T12:05:03Z</time>
</trkpt>
<trkpt lat="34.8950791" lon="32.8678645">
<ele>1195.27</ele>
<time>2015-04-29T12:05:07Z</time>
</trkpt>
<trkpt lat="34.8951221" lon="32.8679039">
<ele>1193.79</ele>
<time>2015-04-29T12:05:11Z</time>
</trkpt>
<trkpt lat="34.8951590" lon="32.8679421">
<ele>1194.51</ele>
<time>2015-04-29T12:05:15Z</time>
</trkpt>
<trkpt lat="34.8951760" lon="32.8679994">
<ele>1197.72</ele>
<time>2015-04-29T12:05:20Z</time>
</trkpt>
<trkpt lat="34.8952099" lon="32.8680441">
<ele>1200.07</ele>
<time>2015-04-29T12:05:25Z</time>
</trkpt>
<trkpt lat="34.8952418" lon="32.8680828">
<ele>1201.15</ele>
<time>2015-04-29T12:05:29Z</time>
</trkpt>
<trkpt lat="34.8952745" lon="32.8681235">
<ele>1201.16</ele>
<time>2015-04-29T12:05:33Z</time>
</trkpt>
<trkpt lat="34.8953071" lon="32.8681726">
<ele>1198.60</ele>
<time>2015-04-29T12:05:37Z</time>
</trkpt>
<trkpt lat="34.8953456" lon="32.8682103">
<ele>1198.19</ele>
<time>2015-04-29T12:05:41Z</time>
</trkpt>
<trkpt lat="34.8953851" lon="32.8682371">
<ele>1199.72</ele>
<time>2015-04-29T12:05:45Z</time>
</trkpt>
<trkpt lat="34.8954229" lon="32.8682703">
<ele>1200.13</ele>
<time>2015-04-29T12:05:49Z</time>
</trkpt>
<trkpt lat="34.8954635" lon="32.8683109">
<ele>1201.95</ele>
<time>2015-04-29T12:05:55Z</time>
</trkpt>
<trkpt lat="34.8954891" lon="32.8683661">
<ele>1199.20</ele>
<time>2015-04-29T12:06:00Z</time>
</trkpt>
<trkpt lat="34.8955109" lon="32.8684188">
<ele>1197.82</ele>
<time>2015-04-29T12:06:03Z</time>
</trkpt>
<trkpt lat="34.8955322" lon="32.8684735">
<ele>1196.26</ele>
<time>2015-04-29T12:06:07Z</time>
</trkpt>
<trkpt lat="34.8955614" lon="32.8685307">
<ele>1194.73</ele>
<time>2015-04-29T12:06:11Z</time>
</trkpt>
<trkpt lat="34.8956029" lon="32.8685702">
<ele>1196.38</ele>
<time>2015-04-29T12:06:15Z</time>
</trkpt>
<trkpt lat="34.8956482" lon="32.8685923">
<ele>1196.61</ele>
<time>2015-04-29T12:06:19Z</time>
</trkpt>
<trkpt lat="34.8956944" lon="32.8686191">
<ele>1197.06</ele>
<time>2015-04-29T12:06:23Z</time>
</trkpt>
<trkpt lat="34.8957222" lon="32.8686907">
<ele>1194.32</ele>
<time>2015-04-29T12:06:41Z</time>
</trkpt>
<trkpt lat="34.8957444" lon="32.8687462">
<ele>1195.65</ele>
<time>2015-04-29T12:06:43Z</time>
</trkpt>
<trkpt lat="34.8957598" lon="32.8688044">
<ele>1196.98</ele>
<time>2015-04-29T12:06:45Z</time>
</trkpt>
<trkpt lat="34.8957765" lon="32.8688653">
<ele>1197.57</ele>
<time>2015-04-29T12:06:47Z</time>
</trkpt>
<trkpt lat="34.8957967" lon="32.8689276">
<ele>1199.71</ele>
<time>2015-04-29T12:06:49Z</time>
</trkpt>
<trkpt lat="34.8958357" lon="32.8689829">
<ele>1201.88</ele>
<time>2015-04-29T12:06:52Z</time>
</trkpt>
<trkpt lat="34.8958734" lon="32.8690160">
<ele>1203.02</ele>
<time>2015-04-29T12:06:55Z</time>
</trkpt>
<trkpt lat="34.8959143" lon="32.8690520">
<ele>1204.04</ele>
<time>2015-04-29T12:06:58Z</time>
</trkpt>
<trkpt lat="34.8959508" lon="32.8690917">
<ele>1205.92</ele>
<time>2015-04-29T12:07:01Z</time>
</trkpt>
<trkpt lat="34.8959568" lon="32.8691462">
<ele>1204.03</ele>
<time>2015-04-29T12:07:04Z</time>
</trkpt>
<trkpt lat="34.8959403" lon="32.8691974">
<ele>1204.83</ele>
<time>2015-04-29T12:07:10Z</time>
</trkpt>
<trkpt lat="34.8959349" lon="32.8691348">
<ele>1203.51</ele>
<time>2015-04-29T12:12:30Z</time>
</trkpt>
<trkpt lat="34.8959220" lon="32.8690538">
<ele>1204.45</ele>
<time>2015-04-29T12:12:32Z</time>
</trkpt>
<trkpt lat="34.8958882" lon="32.8689894">
<ele>1205.18</ele>
<time>2015-04-29T12:12:34Z</time>
</trkpt>
<trkpt lat="34.8958360" lon="32.8689396">
<ele>1204.37</ele>
<time>2015-04-29T12:12:36Z</time>
</trkpt>
<trkpt lat="34.8957958" lon="32.8688761">
<ele>1204.16</ele>
<time>2015-04-29T12:12:38Z</time>
</trkpt>
<trkpt lat="34.8957913" lon="32.8688019">
<ele>1203.86</ele>
<time>2015-04-29T12:12:40Z</time>
</trkpt>
<trkpt lat="34.8957936" lon="32.8687416">
<ele>1202.54</ele>
<time>2015-04-29T12:12:42Z</time>
</trkpt>
<trkpt lat="34.8957982" lon="32.8686802">
<ele>1202.70</ele>
<time>2015-04-29T12:12:44Z</time>
</trkpt>
<trkpt lat="34.8957964" lon="32.8686160">
<ele>1202.75</ele>
<time>2015-04-29T12:12:46Z</time>
</trkpt>
<trkpt lat="34.8958018" lon="32.8685522">
<ele>1202.76</ele>
<time>2015-04-29T12:12:48Z</time>
</trkpt>
<trkpt lat="34.8958402" lon="32.8685075">
<ele>1202.76</ele>
<time>2015-04-29T12:12:50Z</time>
</trkpt>
<trkpt lat="34.8958931" lon="32.8684934">
<ele>1202.76</ele>
<time>2015-04-29T12:12:52Z</time>
</trkpt>
<trkpt lat="34.8959440" lon="32.8684786">
<ele>1204.01</ele>
<time>2015-04-29T12:12:54Z</time>
</trkpt>
<trkpt lat="34.8959959" lon="32.8684703">
<ele>1205.82</ele>
<time>2015-04-29T12:12:56Z</time>
</trkpt>
<trkpt lat="34.8960488" lon="32.8684674">
<ele>1207.78</ele>
<time>2015-04-29T12:12:58Z</time>
</trkpt>
<trkpt lat="34.8960978" lon="32.8684710">
<ele>1209.01</ele>
<time>2015-04-29T12:13:00Z</time>
</trkpt>
<trkpt lat="34.8961458" lon="32.8684794">
<ele>1209.82</ele>
<time>2015-04-29T12:13:02Z</time>
</trkpt>
<trkpt lat="34.8961908" lon="32.8684872">
<ele>1210.28</ele>
<time>2015-04-29T12:13:04Z</time>
</trkpt>
<trkpt lat="34.8962347" lon="32.8685141">
<ele>1212.70</ele>
<time>2015-04-29T12:13:07Z</time>
</trkpt>
<trkpt lat="34.8962610" lon="32.8685636">
<ele>1215.25</ele>
<time>2015-04-29T12:13:10Z</time>
</trkpt>
<trkpt lat="34.8963186" lon="32.8686046">
<ele>1216.45</ele>
<time>2015-04-29T12:13:13Z</time>
</trkpt>
<trkpt lat="34.8963786" lon="32.8686312">
<ele>1215.43</ele>
<time>2015-04-29T12:13:15Z</time>
</trkpt>
<trkpt lat="34.8964191" lon="32.8686634">
<ele>1215.28</ele>
<time>2015-04-29T12:13:20Z</time>
</trkpt>
<trkpt lat="34.8964535" lon="32.8686993">
<ele>1216.59</ele>
<time>2015-04-29T12:13:42Z</time>
</trkpt>
<trkpt lat="34.8964085" lon="32.8686656">
<ele>1216.90</ele>
<time>2015-04-29T12:13:50Z</time>
</trkpt>
<trkpt lat="34.8963626" lon="32.8686508">
<ele>1216.30</ele>
<time>2015-04-29T12:13:52Z</time>
</trkpt>
<trkpt lat="34.8963432" lon="32.8685987">
<ele>1214.83</ele>
<time>2015-04-29T12:13:55Z</time>
</trkpt>
<trkpt lat="34.8964090" lon="32.8685921">
<ele>1213.14</ele>
<time>2015-04-29T12:13:59Z</time>
</trkpt>
<trkpt lat="34.8964833" lon="32.8686167">
<ele>1213.60</ele>
<time>2015-04-29T12:14:01Z</time>
</trkpt>
<trkpt lat="34.8965412" lon="32.8686416">
<ele>1213.72</ele>
<time>2015-04-29T12:14:03Z</time>
</trkpt>
<trkpt lat="34.8965840" lon="32.8686707">
<ele>1213.00</ele>
<time>2015-04-29T12:14:05Z</time>
</trkpt>
<trkpt lat="34.8966208" lon="32.8687270">
<ele>1213.17</ele>
<time>2015-04-29T12:14:08Z</time>
</trkpt>
<trkpt lat="34.8966854" lon="32.8687398">
<ele>1215.31</ele>
<time>2015-04-29T12:14:11Z</time>
</trkpt>
<trkpt lat="34.8967319" lon="32.8687387">
<ele>1217.15</ele>
<time>2015-04-29T12:14:13Z</time>
</trkpt>
<trkpt lat="34.8967905" lon="32.8687530">
<ele>1218.06</ele>
<time>2015-04-29T12:14:16Z</time>
</trkpt>
<trkpt lat="34.8968465" lon="32.8687756">
<ele>1218.67</ele>
<time>2015-04-29T12:14:19Z</time>
</trkpt>
<trkpt lat="34.8968928" lon="32.8687754">
<ele>1222.29</ele>
<time>2015-04-29T12:14:33Z</time>
</trkpt>
<trkpt lat="34.8968399" lon="32.8687782">
<ele>1222.45</ele>
<time>2015-04-29T12:14:52Z</time>
</trkpt>
<trkpt lat="34.8967737" lon="32.8687599">
<ele>1222.60</ele>
<time>2015-04-29T12:14:55Z</time>
</trkpt>
<trkpt lat="34.8967221" lon="32.8687314">
<ele>1222.72</ele>
<time>2015-04-29T12:14:57Z</time>
</trkpt>
<trkpt lat="34.8966702" lon="32.8686992">
<ele>1221.50</ele>
<time>2015-04-29T12:14:59Z</time>
</trkpt>
<trkpt lat="34.8966178" lon="32.8686511">
<ele>1220.44</ele>
<time>2015-04-29T12:15:01Z</time>
</trkpt>
<trkpt lat="34.8965534" lon="32.8685934">
<ele>1219.43</ele>
<time>2015-04-29T12:15:03Z</time>
</trkpt>
<trkpt lat="34.8965115" lon="32.8685712">
<ele>1218.10</ele>
<time>2015-04-29T12:15:04Z</time>
</trkpt>
<trkpt lat="34.8964282" lon="32.8685391">
<ele>1216.84</ele>
<time>2015-04-29T12:15:06Z</time>
</trkpt>
<trkpt lat="34.8963398" lon="32.8685180">
<ele>1213.28</ele>
<time>2015-04-29T12:15:08Z</time>
</trkpt>
<trkpt lat="34.8962936" lon="32.8685117">
<ele>1212.02</ele>
<time>2015-04-29T12:15:09Z</time>
</trkpt>
<trkpt lat="34.8962461" lon="32.8685083">
<ele>1210.39</ele>
<time>2015-04-29T12:15:10Z</time>
</trkpt>
<trkpt lat="34.8961991" lon="32.8685096">
<ele>1210.08</ele>
<time>2015-04-29T12:15:11Z</time>
</trkpt>
<trkpt lat="34.8961270" lon="32.8685321">
<ele>1209.92</ele>
<time>2015-04-29T12:15:12Z</time>
</trkpt>
<trkpt lat="34.8960615" lon="32.8685210">
<ele>1208.30</ele>
<time>2015-04-29T12:15:14Z</time>
</trkpt>
<trkpt lat="34.8959987" lon="32.8684952">
<ele>1206.64</ele>
<time>2015-04-29T12:15:16Z</time>
</trkpt>
<trkpt lat="34.8959523" lon="32.8685189">
<ele>1206.20</ele>
<time>2015-04-29T12:15:17Z</time>
</trkpt>
<trkpt lat="34.8958768" lon="32.8685638">
<ele>1205.87</ele>
<time>2015-04-29T12:15:19Z</time>
</trkpt>
<trkpt lat="34.8958050" lon="32.8686033">
<ele>1205.79</ele>
<time>2015-04-29T12:15:21Z</time>
</trkpt>
<trkpt lat="34.8957782" lon="32.8686960">
<ele>1205.27</ele>
<time>2015-04-29T12:15:23Z</time>
</trkpt>
<trkpt lat="34.8957705" lon="32.8687957">
<ele>1202.14</ele>
<time>2015-04-29T12:15:25Z</time>
</trkpt>
<trkpt lat="34.8957790" lon="32.8688924">
<ele>1202.35</ele>
<time>2015-04-29T12:15:27Z</time>
</trkpt>
<trkpt lat="34.8958159" lon="32.8689450">
<ele>1202.56</ele>
<time>2015-04-29T12:15:28Z</time>
</trkpt>
<trkpt lat="34.8958517" lon="32.8689817">
<ele>1202.66</ele>
<time>2015-04-29T12:15:29Z</time>
</trkpt>
<trkpt lat="34.8959092" lon="32.8690556">
<ele>1204.98</ele>
<time>2015-04-29T12:15:31Z</time>
</trkpt>
<trkpt lat="34.8959584" lon="32.8690961">
<ele>1209.07</ele>
<time>2015-04-29T12:15:33Z</time>
</trkpt>
<trkpt lat="34.8959838" lon="32.8691444">
<ele>1211.09</ele>
<time>2015-04-29T12:15:35Z</time>
</trkpt>
<trkpt lat="34.8959398" lon="32.8692024">
<ele>1211.18</ele>
<time>2015-04-29T12:15:38Z</time>
</trkpt>
<trkpt lat="34.8958941" lon="32.8692078">
<ele>1211.77</ele>
<time>2015-04-29T12:16:07Z</time>
</trkpt>
<trkpt lat="34.8958508" lon="32.8691896">
<ele>1215.55</ele>
<time>2015-04-29T12:16:43Z</time>
</trkpt>
<trkpt lat="34.8958198" lon="32.8692449">
<ele>1213.59</ele>
<time>2015-04-29T12:18:47Z</time>
</trkpt>
<trkpt lat="34.8957836" lon="32.8692889">
<ele>1212.36</ele>
<time>2015-04-29T12:18:50Z</time>
</trkpt>
<trkpt lat="34.8957425" lon="32.8693190">
<ele>1210.21</ele>
<time>2015-04-29T12:18:53Z</time>
</trkpt>
<trkpt lat="34.8956952" lon="32.8693429">
<ele>1209.69</ele>
<time>2015-04-29T12:18:56Z</time>
</trkpt>
<trkpt lat="34.8956564" lon="32.8693779">
<ele>1209.13</ele>
<time>2015-04-29T12:18:59Z</time>
</trkpt>
<trkpt lat="34.8956203" lon="32.8694203">
<ele>1208.56</ele>
<time>2015-04-29T12:19:02Z</time>
</trkpt>
<trkpt lat="34.8955725" lon="32.8694490">
<ele>1207.98</ele>
<time>2015-04-29T12:19:05Z</time>
</trkpt>
<trkpt lat="34.8955268" lon="32.8694906">
<ele>1206.66</ele>
<time>2015-04-29T12:19:08Z</time>
</trkpt>
<trkpt lat="34.8954744" lon="32.8695212">
<ele>1205.87</ele>
<time>2015-04-29T12:19:11Z</time>
</trkpt>
<trkpt lat="34.8954252" lon="32.8695516">
<ele>1206.52</ele>
<time>2015-04-29T12:19:14Z</time>
</trkpt>
<trkpt lat="34.8953768" lon="32.8695866">
<ele>1207.23</ele>
<time>2015-04-29T12:19:17Z</time>
</trkpt>
<trkpt lat="34.8953248" lon="32.8696166">
<ele>1207.69</ele>
<time>2015-04-29T12:19:20Z</time>
</trkpt>
<trkpt lat="34.8952635" lon="32.8696438">
<ele>1208.50</ele>
<time>2015-04-29T12:19:23Z</time>
</trkpt>
<trkpt lat="34.8951984" lon="32.8696612">
<ele>1209.35</ele>
<time>2015-04-29T12:19:26Z</time>
</trkpt>
<trkpt lat="34.8951519" lon="32.8696673">
<ele>1208.91</ele>
<time>2015-04-29T12:19:28Z</time>
</trkpt>
<trkpt lat="34.8951067" lon="32.8696692">
<ele>1209.05</ele>
<time>2015-04-29T12:19:30Z</time>
</trkpt>
<trkpt lat="34.8950613" lon="32.8696657">
<ele>1208.58</ele>
<time>2015-04-29T12:19:32Z</time>
</trkpt>
<trkpt lat="34.8949978" lon="32.8696506">
<ele>1207.49</ele>
<time>2015-04-29T12:19:35Z</time>
</trkpt>
<trkpt lat="34.8949407" lon="32.8696245">
<ele>1206.85</ele>
<time>2015-04-29T12:19:38Z</time>
</trkpt>
<trkpt lat="34.8948922" lon="32.8695924">
<ele>1206.77</ele>
<time>2015-04-29T12:19:41Z</time>
</trkpt>
<trkpt lat="34.8948472" lon="32.8695465">
<ele>1207.64</ele>
<time>2015-04-29T12:19:44Z</time>
</trkpt>
<trkpt lat="34.8948054" lon="32.8695018">
<ele>1206.87</ele>
<time>2015-04-29T12:19:47Z</time>
</trkpt>
<trkpt lat="34.8947585" lon="32.8694580">
<ele>1206.77</ele>
<time>2015-04-29T12:19:50Z</time>
</trkpt>
<trkpt lat="34.8947120" lon="32.8694073">
<ele>1206.76</ele>
<time>2015-04-29T12:19:53Z</time>
</trkpt>
<trkpt lat="34.8946579" lon="32.8693618">
<ele>1206.76</ele>
<time>2015-04-29T12:19:56Z</time>
</trkpt>
<trkpt lat="34.8946068" lon="32.8693209">
<ele>1208.26</ele>
<time>2015-04-29T12:19:59Z</time>
</trkpt>
<trkpt lat="34.8945553" lon="32.8692827">
<ele>1208.32</ele>
<time>2015-04-29T12:20:02Z</time>
</trkpt>
<trkpt lat="34.8945054" lon="32.8692339">
<ele>1208.71</ele>
<time>2015-04-29T12:20:05Z</time>
</trkpt>
<trkpt lat="34.8944557" lon="32.8691876">
<ele>1208.25</ele>
<time>2015-04-29T12:20:08Z</time>
</trkpt>
<trkpt lat="34.8944106" lon="32.8691404">
<ele>1208.70</ele>
<time>2015-04-29T12:20:11Z</time>
</trkpt>
<trkpt lat="34.8943662" lon="32.8690908">
<ele>1209.00</ele>
<time>2015-04-29T12:20:14Z</time>
</trkpt>
<trkpt lat="34.8943143" lon="32.8690547">
<ele>1210.29</ele>
<time>2015-04-29T12:20:17Z</time>
</trkpt>
<trkpt lat="34.8942578" lon="32.8690263">
<ele>1211.58</ele>
<time>2015-04-29T12:20:20Z</time>
</trkpt>
<trkpt lat="34.8941883" lon="32.8690209">
<ele>1212.49</ele>
<time>2015-04-29T12:20:23Z</time>
</trkpt>
<trkpt lat="34.8941387" lon="32.8690314">
<ele>1212.19</ele>
<time>2015-04-29T12:20:25Z</time>
</trkpt>
<trkpt lat="34.8940731" lon="32.8690523">
<ele>1211.81</ele>
<time>2015-04-29T12:20:28Z</time>
</trkpt>
<trkpt lat="34.8940234" lon="32.8690681">
<ele>1213.02</ele>
<time>2015-04-29T12:20:30Z</time>
</trkpt>
<trkpt lat="34.8939642" lon="32.8690902">
<ele>1213.58</ele>
<time>2015-04-29T12:20:32Z</time>
</trkpt>
<trkpt lat="34.8939058" lon="32.8691059">
<ele>1213.71</ele>
<time>2015-04-29T12:20:34Z</time>
</trkpt>
<trkpt lat="34.8938542" lon="32.8691252">
<ele>1214.25</ele>
<time>2015-04-29T12:20:36Z</time>
</trkpt>
<trkpt lat="34.8938021" lon="32.8691514">
<ele>1214.13</ele>
<time>2015-04-29T12:20:38Z</time>
</trkpt>
<trkpt lat="34.8937625" lon="32.8691957">
<ele>1212.60</ele>
<time>2015-04-29T12:20:40Z</time>
</trkpt>
<trkpt lat="34.8937239" lon="32.8692464">
<ele>1211.22</ele>
<time>2015-04-29T12:20:42Z</time>
</trkpt>
<trkpt lat="34.8936713" lon="32.8692948">
<ele>1210.88</ele>
<time>2015-04-29T12:20:44Z</time>
</trkpt>
<trkpt lat="34.8936167" lon="32.8693414">
<ele>1211.54</ele>
<time>2015-04-29T12:20:46Z</time>
</trkpt>
<trkpt lat="34.8935680" lon="32.8693914">
<ele>1213.45</ele>
<time>2015-04-29T12:20:48Z</time>
</trkpt>
<trkpt lat="34.8935201" lon="32.8694473">
<ele>1215.68</ele>
<time>2015-04-29T12:20:50Z</time>
</trkpt>
<trkpt lat="34.8934816" lon="32.8695022">
<ele>1215.74</ele>
<time>2015-04-29T12:20:52Z</time>
</trkpt>
<trkpt lat="34.8934558" lon="32.8695672">
<ele>1215.51</ele>
<time>2015-04-29T12:20:54Z</time>
</trkpt>
<trkpt lat="34.8934297" lon="32.8696313">
<ele>1216.20</ele>
<time>2015-04-29T12:20:56Z</time>
</trkpt>
<trkpt lat="34.8934099" lon="32.8696997">
<ele>1215.87</ele>
<time>2015-04-29T12:20:58Z</time>
</trkpt>
<trkpt lat="34.8933931" lon="32.8697835">
<ele>1215.29</ele>
<time>2015-04-29T12:21:00Z</time>
</trkpt>
<trkpt lat="34.8933638" lon="32.8698681">
<ele>1214.89</ele>
<time>2015-04-29T12:21:02Z</time>
</trkpt>
<trkpt lat="34.8933250" lon="32.8699424">
<ele>1214.79</ele>
<time>2015-04-29T12:21:04Z</time>
</trkpt>
<trkpt lat="34.8932860" lon="32.8700104">
<ele>1215.27</ele>
<time>2015-04-29T12:21:06Z</time>
</trkpt>
<trkpt lat="34.8932292" lon="32.8700733">
<ele>1214.89</ele>
<time>2015-04-29T12:21:08Z</time>
</trkpt>
<trkpt lat="34.8931726" lon="32.8701355">
<ele>1214.04</ele>
<time>2015-04-29T12:21:10Z</time>
</trkpt>
<trkpt lat="34.8931065" lon="32.8701955">
<ele>1215.58</ele>
<time>2015-04-29T12:21:12Z</time>
</trkpt>
<trkpt lat="34.8930323" lon="32.8702455">
<ele>1216.17</ele>
<time>2015-04-29T12:21:13Z</time>
</trkpt>
<trkpt lat="34.8930101" lon="32.8702949">
<ele>1215.97</ele>
<time>2015-04-29T12:21:14Z</time>
</trkpt>
<trkpt lat="34.8929263" lon="32.8703758">
<ele>1215.81</ele>
<time>2015-04-29T12:21:16Z</time>
</trkpt>
<trkpt lat="34.8929015" lon="32.8704288">
<ele>1215.29</ele>
<time>2015-04-29T12:21:17Z</time>
</trkpt>
<trkpt lat="34.8928518" lon="32.8704676">
<ele>1214.52</ele>
<time>2015-04-29T12:21:18Z</time>
</trkpt>
<trkpt lat="34.8927675" lon="32.8705429">
<ele>1213.95</ele>
<time>2015-04-29T12:21:20Z</time>
</trkpt>
<trkpt lat="34.8927048" lon="32.8705937">
<ele>1214.31</ele>
<time>2015-04-29T12:21:22Z</time>
</trkpt>
<trkpt lat="34.8926492" lon="32.8706149">
<ele>1216.65</ele>
<time>2015-04-29T12:21:24Z</time>
</trkpt>
<trkpt lat="34.8926019" lon="32.8706207">
<ele>1217.20</ele>
<time>2015-04-29T12:21:25Z</time>
</trkpt>
<trkpt lat="34.8925116" lon="32.8706099">
<ele>1217.62</ele>
<time>2015-04-29T12:21:27Z</time>
</trkpt>
<trkpt lat="34.8924462" lon="32.8705829">
<ele>1218.98</ele>
<time>2015-04-29T12:21:29Z</time>
</trkpt>
<trkpt lat="34.8923893" lon="32.8705312">
<ele>1218.81</ele>
<time>2015-04-29T12:21:31Z</time>
</trkpt>
<trkpt lat="34.8923308" lon="32.8704937">
<ele>1218.77</ele>
<time>2015-04-29T12:21:33Z</time>
</trkpt>
<trkpt lat="34.8922651" lon="32.8704737">
<ele>1217.26</ele>
<time>2015-04-29T12:21:35Z</time>
</trkpt>
<trkpt lat="34.8922060" lon="32.8704682">
<ele>1216.64</ele>
<time>2015-04-29T12:21:37Z</time>
</trkpt>
<trkpt lat="34.8921524" lon="32.8704891">
<ele>1217.48</ele>
<time>2015-04-29T12:21:39Z</time>
</trkpt>
<trkpt lat="34.8920976" lon="32.8705213">
<ele>1217.69</ele>
<time>2015-04-29T12:21:41Z</time>
</trkpt>
<trkpt lat="34.8920510" lon="32.8705740">
<ele>1217.24</ele>
<time>2015-04-29T12:21:43Z</time>
</trkpt>
<trkpt lat="34.8920157" lon="32.8706394">
<ele>1216.88</ele>
<time>2015-04-29T12:21:45Z</time>
</trkpt>
<trkpt lat="34.8919901" lon="32.8707027">
<ele>1216.79</ele>
<time>2015-04-29T12:21:47Z</time>
</trkpt>
<trkpt lat="34.8919708" lon="32.8707694">
<ele>1217.27</ele>
<time>2015-04-29T12:21:49Z</time>
</trkpt>
<trkpt lat="34.8919544" lon="32.8708392">
<ele>1217.14</ele>
<time>2015-04-29T12:21:51Z</time>
</trkpt>
<trkpt lat="34.8919440" lon="32.8709154">
<ele>1217.10</ele>
<time>2015-04-29T12:21:53Z</time>
</trkpt>
<trkpt lat="34.8919400" lon="32.8709922">
<ele>1217.60</ele>
<time>2015-04-29T12:21:55Z</time>
</trkpt>
<trkpt lat="34.8919389" lon="32.8710797">
<ele>1218.22</ele>
<time>2015-04-29T12:21:57Z</time>
</trkpt>
<trkpt lat="34.8919414" lon="32.8711348">
<ele>1218.49</ele>
<time>2015-04-29T12:21:58Z</time>
</trkpt>
<trkpt lat="34.8919581" lon="32.8712419">
<ele>1218.69</ele>
<time>2015-04-29T12:22:00Z</time>
</trkpt>
<trkpt lat="34.8919690" lon="32.8712981">
<ele>1218.23</ele>
<time>2015-04-29T12:22:01Z</time>
</trkpt>
<trkpt lat="34.8919918" lon="32.8713800">
<ele>1217.49</ele>
<time>2015-04-29T12:22:02Z</time>
</trkpt>
<trkpt lat="34.8920034" lon="32.8714338">
<ele>1216.13</ele>
<time>2015-04-29T12:22:03Z</time>
</trkpt>
<trkpt lat="34.8920216" lon="32.8715005">
<ele>1215.44</ele>
<time>2015-04-29T12:22:04Z</time>
</trkpt>
<trkpt lat="34.8920415" lon="32.8715596">
<ele>1215.10</ele>
<time>2015-04-29T12:22:05Z</time>
</trkpt>
<trkpt lat="34.8920508" lon="32.8716176">
<ele>1214.43</ele>
<time>2015-04-29T12:22:06Z</time>
</trkpt>
<trkpt lat="34.8920570" lon="32.8716898">
<ele>1215.10</ele>
<time>2015-04-29T12:22:07Z</time>
</trkpt>
<trkpt lat="34.8920427" lon="32.8717598">
<ele>1215.43</ele>
<time>2015-04-29T12:22:08Z</time>
</trkpt>
<trkpt lat="34.8920165" lon="32.8718193">
<ele>1215.59</ele>
<time>2015-04-29T12:22:09Z</time>
</trkpt>
<trkpt lat="34.8919591" lon="32.8718599">
<ele>1215.68</ele>
<time>2015-04-29T12:22:10Z</time>
</trkpt>
<trkpt lat="34.8919160" lon="32.8718845">
<ele>1215.22</ele>
<time>2015-04-29T12:22:11Z</time>
</trkpt>
<trkpt lat="34.8918654" lon="32.8719042">
<ele>1214.99</ele>
<time>2015-04-29T12:22:12Z</time>
</trkpt>
<trkpt lat="34.8918016" lon="32.8718980">
<ele>1214.87</ele>
<time>2015-04-29T12:22:13Z</time>
</trkpt>
<trkpt lat="34.8917424" lon="32.8718907">
<ele>1214.32</ele>
<time>2015-04-29T12:22:14Z</time>
</trkpt>
<trkpt lat="34.8916791" lon="32.8718676">
<ele>1213.54</ele>
<time>2015-04-29T12:22:15Z</time>
</trkpt>
<trkpt lat="34.8916304" lon="32.8718454">
<ele>1212.15</ele>
<time>2015-04-29T12:22:16Z</time>
</trkpt>
<trkpt lat="34.8915511" lon="32.8718039">
<ele>1212.36</ele>
<time>2015-04-29T12:22:18Z</time>
</trkpt>
<trkpt lat="34.8914813" lon="32.8717696">
<ele>1211.41</ele>
<time>2015-04-29T12:22:20Z</time>
</trkpt>
<trkpt lat="34.8914346" lon="32.8717592">
<ele>1210.58</ele>
<time>2015-04-29T12:22:21Z</time>
</trkpt>
<trkpt lat="34.8913830" lon="32.8717489">
<ele>1210.17</ele>
<time>2015-04-29T12:22:22Z</time>
</trkpt>
<trkpt lat="34.8913322" lon="32.8717378">
<ele>1209.97</ele>
<time>2015-04-29T12:22:23Z</time>
</trkpt>
<trkpt lat="34.8912303" lon="32.8717063">
<ele>1209.31</ele>
<time>2015-04-29T12:22:25Z</time>
</trkpt>
<trkpt lat="34.8911824" lon="32.8717047">
<ele>1208.90</ele>
<time>2015-04-29T12:22:27Z</time>
</trkpt>
<trkpt lat="34.8911156" lon="32.8717194">
<ele>1209.28</ele>
<time>2015-04-29T12:22:30Z</time>
</trkpt>
<trkpt lat="34.8910367" lon="32.8717455">
<ele>1208.39</ele>
<time>2015-04-29T12:22:32Z</time>
</trkpt>
<trkpt lat="34.8909662" lon="32.8717750">
<ele>1208.17</ele>
<time>2015-04-29T12:22:34Z</time>
</trkpt>
<trkpt lat="34.8908935" lon="32.8718220">
<ele>1208.61</ele>
<time>2015-04-29T12:22:36Z</time>
</trkpt>
<trkpt lat="34.8908230" lon="32.8718630">
<ele>1209.22</ele>
<time>2015-04-29T12:22:38Z</time>
</trkpt>
<trkpt lat="34.8907768" lon="32.8718901">
<ele>1208.88</ele>
<time>2015-04-29T12:22:40Z</time>
</trkpt>
<trkpt lat="34.8907721" lon="32.8719472">
<ele>1210.76</ele>
<time>2015-04-29T12:23:11Z</time>
</trkpt>
<trkpt lat="34.8907844" lon="32.8720282">
<ele>1210.26</ele>
<time>2015-04-29T12:23:14Z</time>
</trkpt>
<trkpt lat="34.8908056" lon="32.8720828">
<ele>1209.89</ele>
<time>2015-04-29T12:23:16Z</time>
</trkpt>
<trkpt lat="34.8908256" lon="32.8721530">
<ele>1210.29</ele>
<time>2015-04-29T12:23:18Z</time>
</trkpt>
<trkpt lat="34.8908628" lon="32.8722207">
<ele>1208.64</ele>
<time>2015-04-29T12:23:20Z</time>
</trkpt>
<trkpt lat="34.8909285" lon="32.8723068">
<ele>1208.48</ele>
<time>2015-04-29T12:23:22Z</time>
</trkpt>
<trkpt lat="34.8909699" lon="32.8723658">
<ele>1208.69</ele>
<time>2015-04-29T12:23:24Z</time>
</trkpt>
<trkpt lat="34.8909978" lon="32.8724172">
<ele>1209.23</ele>
<time>2015-04-29T12:23:25Z</time>
</trkpt>
<trkpt lat="34.8910396" lon="32.8724985">
<ele>1208.88</ele>
<time>2015-04-29T12:23:27Z</time>
</trkpt>
<trkpt lat="34.8910352" lon="32.8726231">
<ele>1206.79</ele>
<time>2015-04-29T12:23:29Z</time>
</trkpt>
<trkpt lat="34.8910735" lon="32.8727308">
<ele>1206.77</ele>
<time>2015-04-29T12:23:31Z</time>
</trkpt>
<trkpt lat="34.8910855" lon="32.8727845">
<ele>1205.76</ele>
<time>2015-04-29T12:23:32Z</time>
</trkpt>
<trkpt lat="34.8910786" lon="32.8728612">
<ele>1203.76</ele>
<time>2015-04-29T12:23:33Z</time>
</trkpt>
<trkpt lat="34.8910718" lon="32.8729348">
<ele>1204.26</ele>
<time>2015-04-29T12:23:34Z</time>
</trkpt>
<trkpt lat="34.8910651" lon="32.8729944">
<ele>1204.01</ele>
<time>2015-04-29T12:23:35Z</time>
</trkpt>
<trkpt lat="34.8910460" lon="32.8730648">
<ele>1202.89</ele>
<time>2015-04-29T12:23:36Z</time>
</trkpt>
<trkpt lat="34.8910378" lon="32.8731319">
<ele>1202.32</ele>
<time>2015-04-29T12:23:37Z</time>
</trkpt>
<trkpt lat="34.8910058" lon="32.8732062">
<ele>1203.54</ele>
<time>2015-04-29T12:23:38Z</time>
</trkpt>
<trkpt lat="34.8909895" lon="32.8732782">
<ele>1204.65</ele>
<time>2015-04-29T12:23:39Z</time>
</trkpt>
<trkpt lat="34.8909831" lon="32.8733421">
<ele>1204.71</ele>
<time>2015-04-29T12:23:40Z</time>
</trkpt>
<trkpt lat="34.8909581" lon="32.8734150">
<ele>1205.23</ele>
<time>2015-04-29T12:23:41Z</time>
</trkpt>
<trkpt lat="34.8909363" lon="32.8734866">
<ele>1206.00</ele>
<time>2015-04-29T12:23:42Z</time>
</trkpt>
<trkpt lat="34.8909417" lon="32.8735531">
<ele>1205.88</ele>
<time>2015-04-29T12:23:43Z</time>
</trkpt>
<trkpt lat="34.8909434" lon="32.8736212">
<ele>1205.32</ele>
<time>2015-04-29T12:23:44Z</time>
</trkpt>
<trkpt lat="34.8909180" lon="32.8736949">
<ele>1205.54</ele>
<time>2015-04-29T12:23:45Z</time>
</trkpt>
<trkpt lat="34.8909058" lon="32.8737496">
<ele>1205.15</ele>
<time>2015-04-29T12:23:46Z</time>
</trkpt>
<trkpt lat="34.8908999" lon="32.8738072">
<ele>1205.45</ele>
<time>2015-04-29T12:23:47Z</time>
</trkpt>
<trkpt lat="34.8908791" lon="32.8738746">
<ele>1205.61</ele>
<time>2015-04-29T12:23:48Z</time>
</trkpt>
<trkpt lat="34.8908338" lon="32.8739316">
<ele>1205.68</ele>
<time>2015-04-29T12:23:49Z</time>
</trkpt>
<trkpt lat="34.8908061" lon="32.8739913">
<ele>1206.22</ele>
<time>2015-04-29T12:23:50Z</time>
</trkpt>
<trkpt lat="34.8907733" lon="32.8740576">
<ele>1205.49</ele>
<time>2015-04-29T12:23:51Z</time>
</trkpt>
<trkpt lat="34.8907267" lon="32.8741600">
<ele>1203.94</ele>
<time>2015-04-29T12:23:53Z</time>
</trkpt>
<trkpt lat="34.8907036" lon="32.8742130">
<ele>1204.85</ele>
<time>2015-04-29T12:23:54Z</time>
</trkpt>
<trkpt lat="34.8906886" lon="32.8743184">
<ele>1205.53</ele>
<time>2015-04-29T12:23:56Z</time>
</trkpt>
<trkpt lat="34.8906841" lon="32.8743737">
<ele>1205.65</ele>
<time>2015-04-29T12:23:57Z</time>
</trkpt>
<trkpt lat="34.8907062" lon="32.8744754">
<ele>1205.73</ele>
<time>2015-04-29T12:23:59Z</time>
</trkpt>
<trkpt lat="34.8907551" lon="32.8745556">
<ele>1205.00</ele>
<time>2015-04-29T12:24:01Z</time>
</trkpt>
<trkpt lat="34.8907995" lon="32.8745989">
<ele>1204.88</ele>
<time>2015-04-29T12:24:02Z</time>
</trkpt>
<trkpt lat="34.8908331" lon="32.8746406">
<ele>1204.82</ele>
<time>2015-04-29T12:24:03Z</time>
</trkpt>
<trkpt lat="34.8908603" lon="32.8747110">
<ele>1204.79</ele>
<time>2015-04-29T12:24:04Z</time>
</trkpt>
<trkpt lat="34.8908900" lon="32.8747663">
<ele>1204.78</ele>
<time>2015-04-29T12:24:05Z</time>
</trkpt>
<trkpt lat="34.8909066" lon="32.8748246">
<ele>1203.77</ele>
<time>2015-04-29T12:24:06Z</time>
</trkpt>
<trkpt lat="34.8909320" lon="32.8748723">
<ele>1202.76</ele>
<time>2015-04-29T12:24:07Z</time>
</trkpt>
<trkpt lat="34.8909723" lon="32.8749074">
<ele>1202.26</ele>
<time>2015-04-29T12:24:08Z</time>
</trkpt>
<trkpt lat="34.8910055" lon="32.8749646">
<ele>1203.01</ele>
<time>2015-04-29T12:24:09Z</time>
</trkpt>
<trkpt lat="34.8910405" lon="32.8750533">
<ele>1204.07</ele>
<time>2015-04-29T12:24:11Z</time>
</trkpt>
<trkpt lat="34.8910479" lon="32.8751448">
<ele>1205.84</ele>
<time>2015-04-29T12:24:13Z</time>
</trkpt>
<trkpt lat="34.8909506" lon="32.8752419">
<ele>1206.78</ele>
<time>2015-04-29T12:24:15Z</time>
</trkpt>
<trkpt lat="34.8909089" lon="32.8752721">
<ele>1207.27</ele>
<time>2015-04-29T12:24:16Z</time>
</trkpt>
<trkpt lat="34.8908296" lon="32.8752750">
<ele>1208.14</ele>
<time>2015-04-29T12:24:18Z</time>
</trkpt>
<trkpt lat="34.8907532" lon="32.8752648">
<ele>1208.60</ele>
<time>2015-04-29T12:24:20Z</time>
</trkpt>
<trkpt lat="34.8906801" lon="32.8752731">
<ele>1210.22</ele>
<time>2015-04-29T12:24:22Z</time>
</trkpt>
<trkpt lat="34.8906032" lon="32.8752787">
<ele>1209.88</ele>
<time>2015-04-29T12:24:24Z</time>
</trkpt>
<trkpt lat="34.8905323" lon="32.8753258">
<ele>1211.32</ele>
<time>2015-04-29T12:24:25Z</time>
</trkpt>
<trkpt lat="34.8904646" lon="32.8753241">
<ele>1213.40</ele>
<time>2015-04-29T12:24:27Z</time>
</trkpt>
<trkpt lat="34.8903715" lon="32.8753547">
<ele>1212.17</ele>
<time>2015-04-29T12:24:29Z</time>
</trkpt>
<trkpt lat="34.8903049" lon="32.8753868">
<ele>1210.11</ele>
<time>2015-04-29T12:24:31Z</time>
</trkpt>
<trkpt lat="34.8902465" lon="32.8754270">
<ele>1209.10</ele>
<time>2015-04-29T12:24:33Z</time>
</trkpt>
<trkpt lat="34.8902013" lon="32.8754975">
<ele>1208.09</ele>
<time>2015-04-29T12:24:35Z</time>
</trkpt>
<trkpt lat="34.8901736" lon="32.8755658">
<ele>1209.09</ele>
<time>2015-04-29T12:24:37Z</time>
</trkpt>
<trkpt lat="34.8901505" lon="32.8756460">
<ele>1208.09</ele>
<time>2015-04-29T12:24:39Z</time>
</trkpt>
<trkpt lat="34.8901310" lon="32.8757268">
<ele>1208.34</ele>
<time>2015-04-29T12:24:41Z</time>
</trkpt>
<trkpt lat="34.8901175" lon="32.8758092">
<ele>1208.41</ele>
<time>2015-04-29T12:24:43Z</time>
</trkpt>
<trkpt lat="34.8901178" lon="32.8758935">
<ele>1205.67</ele>
<time>2015-04-29T12:24:45Z</time>
</trkpt>
<trkpt lat="34.8901070" lon="32.8759744">
<ele>1206.49</ele>
<time>2015-04-29T12:24:47Z</time>
</trkpt>
<trkpt lat="34.8900682" lon="32.8760438">
<ele>1207.19</ele>
<time>2015-04-29T12:24:49Z</time>
</trkpt>
<trkpt lat="34.8900219" lon="32.8761029">
<ele>1206.12</ele>
<time>2015-04-29T12:24:51Z</time>
</trkpt>
<trkpt lat="34.8899777" lon="32.8761633">
<ele>1206.10</ele>
<time>2015-04-29T12:24:53Z</time>
</trkpt>
<trkpt lat="34.8899229" lon="32.8762180">
<ele>1205.34</ele>
<time>2015-04-29T12:24:55Z</time>
</trkpt>
<trkpt lat="34.8898518" lon="32.8762619">
<ele>1205.55</ele>
<time>2015-04-29T12:24:56Z</time>
</trkpt>
<trkpt lat="34.8898086" lon="32.8762912">
<ele>1205.16</ele>
<time>2015-04-29T12:24:57Z</time>
</trkpt>
<trkpt lat="34.8897633" lon="32.8763079">
<ele>1206.46</ele>
<time>2015-04-29T12:24:58Z</time>
</trkpt>
<trkpt lat="34.8897206" lon="32.8763287">
<ele>1208.11</ele>
<time>2015-04-29T12:24:59Z</time>
</trkpt>
<trkpt lat="34.8896707" lon="32.8763501">
<ele>1208.93</ele>
<time>2015-04-29T12:25:00Z</time>
</trkpt>
<trkpt lat="34.8896185" lon="32.8763590">
<ele>1208.35</ele>
<time>2015-04-29T12:25:01Z</time>
</trkpt>
<trkpt lat="34.8895630" lon="32.8763785">
<ele>1208.55</ele>
<time>2015-04-29T12:25:02Z</time>
</trkpt>
<trkpt lat="34.8895131" lon="32.8763952">
<ele>1208.66</ele>
<time>2015-04-29T12:25:03Z</time>
</trkpt>
<trkpt lat="34.8894568" lon="32.8764202">
<ele>1208.21</ele>
<time>2015-04-29T12:25:04Z</time>
</trkpt>
<trkpt lat="34.8894175" lon="32.8764530">
<ele>1207.48</ele>
<time>2015-04-29T12:25:05Z</time>
</trkpt>
<trkpt lat="34.8893732" lon="32.8765438">
<ele>1205.69</ele>
<time>2015-04-29T12:25:07Z</time>
</trkpt>
<trkpt lat="34.8893597" lon="32.8766331">
<ele>1204.99</ele>
<time>2015-04-29T12:25:09Z</time>
</trkpt>
<trkpt lat="34.8893783" lon="32.8766966">
<ele>1204.82</ele>
<time>2015-04-29T12:25:11Z</time>
</trkpt>
<trkpt lat="34.8893896" lon="32.8767499">
<ele>1205.33</ele>
<time>2015-04-29T12:25:19Z</time>
</trkpt>
<trkpt lat="34.8894346" lon="32.8767771">
<ele>1204.31</ele>
<time>2015-04-29T12:25:27Z</time>
</trkpt>
<trkpt lat="34.8894797" lon="32.8768064">
<ele>1203.90</ele>
<time>2015-04-29T12:25:29Z</time>
</trkpt>
<trkpt lat="34.8895328" lon="32.8768432">
<ele>1203.04</ele>
<time>2015-04-29T12:25:31Z</time>
</trkpt>
<trkpt lat="34.8895963" lon="32.8768806">
<ele>1203.33</ele>
<time>2015-04-29T12:25:33Z</time>
</trkpt>
<trkpt lat="34.8896782" lon="32.8769134">
<ele>1203.40</ele>
<time>2015-04-29T12:25:35Z</time>
</trkpt>
<trkpt lat="34.8898204" lon="32.8769176">
<ele>1203.17</ele>
<time>2015-04-29T12:25:37Z</time>
</trkpt>
<trkpt lat="34.8898682" lon="32.8769316">
<ele>1202.97</ele>
<time>2015-04-29T12:25:38Z</time>
</trkpt>
<trkpt lat="34.8899202" lon="32.8769455">
<ele>1202.36</ele>
<time>2015-04-29T12:25:39Z</time>
</trkpt>
<trkpt lat="34.8899655" lon="32.8769530">
<ele>1201.06</ele>
<time>2015-04-29T12:25:40Z</time>
</trkpt>
<trkpt lat="34.8900109" lon="32.8769714">
<ele>1200.41</ele>
<time>2015-04-29T12:25:41Z</time>
</trkpt>
<trkpt lat="34.8900794" lon="32.8770100">
<ele>1201.17</ele>
<time>2015-04-29T12:25:43Z</time>
</trkpt>
<trkpt lat="34.8900830" lon="32.8770694">
<ele>1204.11</ele>
<time>2015-04-29T12:25:45Z</time>
</trkpt>
<trkpt lat="34.8901197" lon="32.8771437">
<ele>1205.44</ele>
<time>2015-04-29T12:25:46Z</time>
</trkpt>
<trkpt lat="34.8901419" lon="32.8771933">
<ele>1206.60</ele>
<time>2015-04-29T12:25:47Z</time>
</trkpt>
<trkpt lat="34.8901545" lon="32.8772651">
<ele>1206.18</ele>
<time>2015-04-29T12:25:48Z</time>
</trkpt>
<trkpt lat="34.8902020" lon="32.8773506">
<ele>1204.97</ele>
<time>2015-04-29T12:25:49Z</time>
</trkpt>
<trkpt lat="34.8902143" lon="32.8774308">
<ele>1203.86</ele>
<time>2015-04-29T12:25:50Z</time>
</trkpt>
<trkpt lat="34.8902245" lon="32.8774995">
<ele>1202.81</ele>
<time>2015-04-29T12:25:51Z</time>
</trkpt>
<trkpt lat="34.8901864" lon="32.8775673">
<ele>1200.79</ele>
<time>2015-04-29T12:25:52Z</time>
</trkpt>
<trkpt lat="34.8901423" lon="32.8776277">
<ele>1198.77</ele>
<time>2015-04-29T12:25:53Z</time>
</trkpt>
<trkpt lat="34.8900889" lon="32.8776915">
<ele>1197.77</ele>
<time>2015-04-29T12:25:54Z</time>
</trkpt>
<trkpt lat="34.8900450" lon="32.8777368">
<ele>1196.76</ele>
<time>2015-04-29T12:25:55Z</time>
</trkpt>
<trkpt lat="34.8900182" lon="32.8777882">
<ele>1195.76</ele>
<time>2015-04-29T12:25:56Z</time>
</trkpt>
<trkpt lat="34.8900036" lon="32.8778457">
<ele>1195.76</ele>
<time>2015-04-29T12:25:57Z</time>
</trkpt>
<trkpt lat="34.8900065" lon="32.8779160">
<ele>1194.76</ele>
<time>2015-04-29T12:25:58Z</time>
</trkpt>
<trkpt lat="34.8900063" lon="32.8779838">
<ele>1193.76</ele>
<time>2015-04-29T12:25:59Z</time>
</trkpt>
<trkpt lat="34.8900174" lon="32.8780567">
<ele>1193.26</ele>
<time>2015-04-29T12:26:00Z</time>
</trkpt>
<trkpt lat="34.8900363" lon="32.8781393">
<ele>1193.01</ele>
<time>2015-04-29T12:26:01Z</time>
</trkpt>
<trkpt lat="34.8900526" lon="32.8782282">
<ele>1191.89</ele>
<time>2015-04-29T12:26:02Z</time>
</trkpt>
<trkpt lat="34.8900558" lon="32.8783133">
<ele>1191.82</ele>
<time>2015-04-29T12:26:03Z</time>
</trkpt>
<trkpt lat="34.8900607" lon="32.8784005">
<ele>1192.29</ele>
<time>2015-04-29T12:26:04Z</time>
</trkpt>
<trkpt lat="34.8900560" lon="32.8784701">
<ele>1192.53</ele>
<time>2015-04-29T12:26:05Z</time>
</trkpt>
<trkpt lat="34.8900480" lon="32.8785445">
<ele>1192.14</ele>
<time>2015-04-29T12:26:06Z</time>
</trkpt>
<trkpt lat="34.8900366" lon="32.8786060">
<ele>1191.95</ele>
<time>2015-04-29T12:26:07Z</time>
</trkpt>
<trkpt lat="34.8900399" lon="32.8786931">
<ele>1191.86</ele>
<time>2015-04-29T12:26:08Z</time>
</trkpt>
<trkpt lat="34.8900390" lon="32.8787768">
<ele>1191.81</ele>
<time>2015-04-29T12:26:09Z</time>
</trkpt>
<trkpt lat="34.8900299" lon="32.8788743">
<ele>1191.28</ele>
<time>2015-04-29T12:26:10Z</time>
</trkpt>
<trkpt lat="34.8900216" lon="32.8789687">
<ele>1191.02</ele>
<time>2015-04-29T12:26:11Z</time>
</trkpt>
<trkpt lat="34.8900206" lon="32.8790744">
<ele>1190.89</ele>
<time>2015-04-29T12:26:12Z</time>
</trkpt>
<trkpt lat="34.8900269" lon="32.8791456">
<ele>1191.83</ele>
<time>2015-04-29T12:26:13Z</time>
</trkpt>
<trkpt lat="34.8900373" lon="32.8792089">
<ele>1191.79</ele>
<time>2015-04-29T12:26:14Z</time>
</trkpt>
<trkpt lat="34.8900536" lon="32.8792685">
<ele>1191.28</ele>
<time>2015-04-29T12:26:15Z</time>
</trkpt>
<trkpt lat="34.8901004" lon="32.8793499">
<ele>1189.39</ele>
<time>2015-04-29T12:26:17Z</time>
</trkpt>
<trkpt lat="34.8901445" lon="32.8794351">
<ele>1187.42</ele>
<time>2015-04-29T12:26:19Z</time>
</trkpt>
<trkpt lat="34.8901805" lon="32.8794809">
<ele>1187.09</ele>
<time>2015-04-29T12:26:20Z</time>
</trkpt>
<trkpt lat="34.8902300" lon="32.8795154">
<ele>1186.92</ele>
<time>2015-04-29T12:26:21Z</time>
</trkpt>
<trkpt lat="34.8902967" lon="32.8795502">
<ele>1186.84</ele>
<time>2015-04-29T12:26:22Z</time>
</trkpt>
<trkpt lat="34.8903614" lon="32.8795748">
<ele>1187.80</ele>
<time>2015-04-29T12:26:23Z</time>
</trkpt>
<trkpt lat="34.8904122" lon="32.8796093">
<ele>1188.28</ele>
<time>2015-04-29T12:26:24Z</time>
</trkpt>
<trkpt lat="34.8904612" lon="32.8796415">
<ele>1189.02</ele>
<time>2015-04-29T12:26:25Z</time>
</trkpt>
<trkpt lat="34.8905139" lon="32.8796781">
<ele>1188.89</ele>
<time>2015-04-29T12:26:26Z</time>
</trkpt>
<trkpt lat="34.8905632" lon="32.8797162">
<ele>1188.33</ele>
<time>2015-04-29T12:26:27Z</time>
</trkpt>
<trkpt lat="34.8906159" lon="32.8797589">
<ele>1188.04</ele>
<time>2015-04-29T12:26:28Z</time>
</trkpt>
<trkpt lat="34.8906358" lon="32.8798594">
<ele>1188.90</ele>
<time>2015-04-29T12:26:29Z</time>
</trkpt>
<trkpt lat="34.8906767" lon="32.8799358">
<ele>1188.33</ele>
<time>2015-04-29T12:26:30Z</time>
</trkpt>
<trkpt lat="34.8907040" lon="32.8800120">
<ele>1188.05</ele>
<time>2015-04-29T12:26:31Z</time>
</trkpt>
<trkpt lat="34.8907054" lon="32.8801187">
<ele>1186.90</ele>
<time>2015-04-29T12:26:32Z</time>
</trkpt>
<trkpt lat="34.8906777" lon="32.8802228">
<ele>1185.83</ele>
<time>2015-04-29T12:26:33Z</time>
</trkpt>
<trkpt lat="34.8906682" lon="32.8803235">
<ele>1185.30</ele>
<time>2015-04-29T12:26:34Z</time>
</trkpt>
<trkpt lat="34.8906475" lon="32.8804176">
<ele>1184.03</ele>
<time>2015-04-29T12:26:35Z</time>
</trkpt>
<trkpt lat="34.8906173" lon="32.8805081">
<ele>1182.39</ele>
<time>2015-04-29T12:26:36Z</time>
</trkpt>
<trkpt lat="34.8905945" lon="32.8805990">
<ele>1181.58</ele>
<time>2015-04-29T12:26:37Z</time>
</trkpt>
<trkpt lat="34.8905645" lon="32.8806940">
<ele>1180.67</ele>
<time>2015-04-29T12:26:38Z</time>
</trkpt>
<trkpt lat="34.8905273" lon="32.8807876">
<ele>1179.71</ele>
<time>2015-04-29T12:26:39Z</time>
</trkpt>
<trkpt lat="34.8905029" lon="32.8808773">
<ele>1179.24</ele>
<time>2015-04-29T12:26:40Z</time>
</trkpt>
<trkpt lat="34.8904797" lon="32.8809490">
<ele>1178.50</ele>
<time>2015-04-29T12:26:41Z</time>
</trkpt>
<trkpt lat="34.8904474" lon="32.8810171">
<ele>1178.13</ele>
<time>2015-04-29T12:26:42Z</time>
</trkpt>
<trkpt lat="34.8904328" lon="32.8810750">
<ele>1177.44</ele>
<time>2015-04-29T12:26:43Z</time>
</trkpt>
<trkpt lat="34.8904100" lon="32.8811380">
<ele>1177.10</ele>
<time>2015-04-29T12:26:44Z</time>
</trkpt>
<trkpt lat="34.8903972" lon="32.8812045">
<ele>1176.43</ele>
<time>2015-04-29T12:26:45Z</time>
</trkpt>
<trkpt lat="34.8903904" lon="32.8812682">
<ele>1175.60</ele>
<time>2015-04-29T12:26:46Z</time>
</trkpt>
<trkpt lat="34.8903844" lon="32.8813689">
<ele>1174.72</ele>
<time>2015-04-29T12:26:48Z</time>
</trkpt>
<trkpt lat="34.8903951" lon="32.8814294">
<ele>1174.75</ele>
<time>2015-04-29T12:26:50Z</time>
</trkpt>
<trkpt lat="34.8903852" lon="32.8813625">
<ele>1174.74</ele>
<time>2015-04-29T12:27:18Z</time>
</trkpt>
<trkpt lat="34.8903775" lon="32.8813030">
<ele>1174.76</ele>
<time>2015-04-29T12:27:21Z</time>
</trkpt>
<trkpt lat="34.8903850" lon="32.8812456">
<ele>1174.76</ele>
<time>2015-04-29T12:27:24Z</time>
</trkpt>
<trkpt lat="34.8903996" lon="32.8811742">
<ele>1175.51</ele>
<time>2015-04-29T12:27:27Z</time>
</trkpt>
<trkpt lat="34.8904136" lon="32.8811023">
<ele>1175.23</ele>
<time>2015-04-29T12:27:30Z</time>
</trkpt>
<trkpt lat="34.8904448" lon="32.8810572">
<ele>1175.69</ele>
<time>2015-04-29T12:27:33Z</time>
</trkpt>
<trkpt lat="34.8904527" lon="32.8809859">
<ele>1175.76</ele>
<time>2015-04-29T12:27:37Z</time>
</trkpt>
<trkpt lat="34.8904525" lon="32.8810573">
<ele>1175.82</ele>
<time>2015-04-29T12:27:44Z</time>
</trkpt>
<trkpt lat="34.8904105" lon="32.8811333">
<ele>1175.03</ele>
<time>2015-04-29T12:27:46Z</time>
</trkpt>
<trkpt lat="34.8903813" lon="32.8812366">
<ele>1174.08</ele>
<time>2015-04-29T12:27:48Z</time>
</trkpt>
<trkpt lat="34.8903746" lon="32.8812977">
<ele>1173.92</ele>
<time>2015-04-29T12:27:49Z</time>
</trkpt>
<trkpt lat="34.8903862" lon="32.8813839">
<ele>1173.34</ele>
<time>2015-04-29T12:27:50Z</time>
</trkpt>
<trkpt lat="34.8903905" lon="32.8814466">
<ele>1173.05</ele>
<time>2015-04-29T12:27:51Z</time>
</trkpt>
<trkpt lat="34.8904104" lon="32.8815130">
<ele>1172.90</ele>
<time>2015-04-29T12:27:52Z</time>
</trkpt>
<trkpt lat="34.8904356" lon="32.8815710">
<ele>1172.33</ele>
<time>2015-04-29T12:27:53Z</time>
</trkpt>
<trkpt lat="34.8904678" lon="32.8816203">
<ele>1172.05</ele>
<time>2015-04-29T12:27:54Z</time>
</trkpt>
<trkpt lat="34.8905054" lon="32.8816672">
<ele>1171.90</ele>
<time>2015-04-29T12:27:55Z</time>
</trkpt>
<trkpt lat="34.8905437" lon="32.8817039">
<ele>1171.83</ele>
<time>2015-04-29T12:27:56Z</time>
</trkpt>
<trkpt lat="34.8906015" lon="32.8817391">
<ele>1171.28</ele>
<time>2015-04-29T12:27:58Z</time>
</trkpt>
<trkpt lat="34.8906257" lon="32.8817861">
<ele>1176.54</ele>
<time>2015-04-29T12:31:26Z</time>
</trkpt>
<trkpt lat="34.8906637" lon="32.8818192">
<ele>1176.96</ele>
<time>2015-04-29T12:31:28Z</time>
</trkpt>
<trkpt lat="34.8907067" lon="32.8818504">
<ele>1176.81</ele>
<time>2015-04-29T12:31:30Z</time>
</trkpt>
<trkpt lat="34.8907703" lon="32.8818913">
<ele>1175.77</ele>
<time>2015-04-29T12:31:32Z</time>
</trkpt>
<trkpt lat="34.8908291" lon="32.8819268">
<ele>1176.27</ele>
<time>2015-04-29T12:31:33Z</time>
</trkpt>
<trkpt lat="34.8908981" lon="32.8819596">
<ele>1176.89</ele>
<time>2015-04-29T12:31:35Z</time>
</trkpt>
<trkpt lat="34.8909800" lon="32.8819736">
<ele>1177.04</ele>
<time>2015-04-29T12:31:37Z</time>
</trkpt>
<trkpt lat="34.8910514" lon="32.8819888">
<ele>1176.33</ele>
<time>2015-04-29T12:31:39Z</time>
</trkpt>
<trkpt lat="34.8911195" lon="32.8820055">
<ele>1175.40</ele>
<time>2015-04-29T12:31:41Z</time>
</trkpt>
<trkpt lat="34.8911906" lon="32.8819941">
<ele>1173.42</ele>
<time>2015-04-29T12:31:43Z</time>
</trkpt>
<trkpt lat="34.8912718" lon="32.8819858">
<ele>1171.93</ele>
<time>2015-04-29T12:31:45Z</time>
</trkpt>
<trkpt lat="34.8913393" lon="32.8819715">
<ele>1171.34</ele>
<time>2015-04-29T12:31:46Z</time>
</trkpt>
<trkpt lat="34.8914244" lon="32.8819706">
<ele>1170.41</ele>
<time>2015-04-29T12:31:48Z</time>
</trkpt>
<trkpt lat="34.8914762" lon="32.8819630">
<ele>1169.08</ele>
<time>2015-04-29T12:31:49Z</time>
</trkpt>
<trkpt lat="34.8915224" lon="32.8819607">
<ele>1167.92</ele>
<time>2015-04-29T12:31:50Z</time>
</trkpt>
<trkpt lat="34.8915663" lon="32.8819477">
<ele>1166.84</ele>
<time>2015-04-29T12:31:51Z</time>
</trkpt>
<trkpt lat="34.8916218" lon="32.8819233">
<ele>1166.30</ele>
<time>2015-04-29T12:31:52Z</time>
</trkpt>
<trkpt lat="34.8916770" lon="32.8819174">
<ele>1166.53</ele>
<time>2015-04-29T12:31:53Z</time>
</trkpt>
<trkpt lat="34.8917464" lon="32.8818923">
<ele>1165.65</ele>
<time>2015-04-29T12:31:54Z</time>
</trkpt>
<trkpt lat="34.8917918" lon="32.8818935">
<ele>1165.70</ele>
<time>2015-04-29T12:31:55Z</time>
</trkpt>
<trkpt lat="34.8918474" lon="32.8818890">
<ele>1166.23</ele>
<time>2015-04-29T12:31:56Z</time>
</trkpt>
<trkpt lat="34.8919132" lon="32.8818868">
<ele>1167.00</ele>
<time>2015-04-29T12:31:57Z</time>
</trkpt>
<trkpt lat="34.8919653" lon="32.8818796">
<ele>1167.38</ele>
<time>2015-04-29T12:31:58Z</time>
</trkpt>
<trkpt lat="34.8920392" lon="32.8818818">
<ele>1168.07</ele>
<time>2015-04-29T12:31:59Z</time>
</trkpt>
<trkpt lat="34.8921040" lon="32.8818779">
<ele>1167.91</ele>
<time>2015-04-29T12:32:00Z</time>
</trkpt>
<trkpt lat="34.8921950" lon="32.8818727">
<ele>1168.84</ele>
<time>2015-04-29T12:32:01Z</time>
</trkpt>
<trkpt lat="34.8922588" lon="32.8818826">
<ele>1168.80</ele>
<time>2015-04-29T12:32:02Z</time>
</trkpt>
<trkpt lat="34.8923325" lon="32.8818806">
<ele>1168.78</ele>
<time>2015-04-29T12:32:03Z</time>
</trkpt>
<trkpt lat="34.8924132" lon="32.8818810">
<ele>1168.77</ele>
<time>2015-04-29T12:32:04Z</time>
</trkpt>
<trkpt lat="34.8924876" lon="32.8818811">
<ele>1168.26</ele>
<time>2015-04-29T12:32:05Z</time>
</trkpt>
<trkpt lat="34.8925604" lon="32.8818909">
<ele>1168.01</ele>
<time>2015-04-29T12:32:06Z</time>
</trkpt>
<trkpt lat="34.8926323" lon="32.8818990">
<ele>1167.39</ele>
<time>2015-04-29T12:32:07Z</time>
</trkpt>
<trkpt lat="34.8927107" lon="32.8819659">
<ele>1166.17</ele>
<time>2015-04-29T12:32:09Z</time>
</trkpt>
<trkpt lat="34.8927408" lon="32.8820113">
<ele>1165.96</ele>
<time>2015-04-29T12:32:10Z</time>
</trkpt>
<trkpt lat="34.8927661" lon="32.8820709">
<ele>1165.86</ele>
<time>2015-04-29T12:32:11Z</time>
</trkpt>
<trkpt lat="34.8927590" lon="32.8821347">
<ele>1165.81</ele>
<time>2015-04-29T12:32:12Z</time>
</trkpt>
<trkpt lat="34.8927529" lon="32.8822340">
<ele>1164.77</ele>
<time>2015-04-29T12:32:14Z</time>
</trkpt>
<trkpt lat="34.8927509" lon="32.8823226">
<ele>1163.51</ele>
<time>2015-04-29T12:32:16Z</time>
</trkpt>
<trkpt lat="34.8927476" lon="32.8824032">
<ele>1161.20</ele>
<time>2015-04-29T12:32:18Z</time>
</trkpt>
<trkpt lat="34.8927431" lon="32.8824643">
<ele>1160.48</ele>
<time>2015-04-29T12:32:19Z</time>
</trkpt>
<trkpt lat="34.8927171" lon="32.8825697">
<ele>1160.94</ele>
<time>2015-04-29T12:32:21Z</time>
</trkpt>
<trkpt lat="34.8926986" lon="32.8826229">
<ele>1161.35</ele>
<time>2015-04-29T12:32:22Z</time>
</trkpt>
<trkpt lat="34.8926585" lon="32.8827034">
<ele>1161.66</ele>
<time>2015-04-29T12:32:24Z</time>
</trkpt>
<trkpt lat="34.8926288" lon="32.8827795">
<ele>1160.48</ele>
<time>2015-04-29T12:32:26Z</time>
</trkpt>
<trkpt lat="34.8926052" lon="32.8828612">
<ele>1160.69</ele>
<time>2015-04-29T12:32:28Z</time>
</trkpt>
<trkpt lat="34.8925926" lon="32.8829340">
<ele>1159.99</ele>
<time>2015-04-29T12:32:30Z</time>
</trkpt>
<trkpt lat="34.8925805" lon="32.8830016">
<ele>1159.82</ele>
<time>2015-04-29T12:32:32Z</time>
</trkpt>
<trkpt lat="34.8925591" lon="32.8830560">
<ele>1159.02</ele>
<time>2015-04-29T12:32:34Z</time>
</trkpt>
<trkpt lat="34.8925494" lon="32.8831117">
<ele>1158.83</ele>
<time>2015-04-29T12:32:36Z</time>
</trkpt>
<trkpt lat="34.8925488" lon="32.8831674">
<ele>1159.64</ele>
<time>2015-04-29T12:32:39Z</time>
</trkpt>
<trkpt lat="34.8925751" lon="32.8832281">
<ele>1159.75</ele>
<time>2015-04-29T12:32:43Z</time>
</trkpt>
<trkpt lat="34.8926013" lon="32.8832752">
<ele>1159.76</ele>
<time>2015-04-29T12:32:46Z</time>
</trkpt>
<trkpt lat="34.8926337" lon="32.8833286">
<ele>1161.01</ele>
<time>2015-04-29T12:32:50Z</time>
</trkpt>
<trkpt lat="34.8926607" lon="32.8833736">
<ele>1163.05</ele>
<time>2015-04-29T12:32:55Z</time>
</trkpt>
<trkpt lat="34.8927035" lon="32.8833975">
<ele>1163.72</ele>
<time>2015-04-29T12:32:59Z</time>
</trkpt>
<trkpt lat="34.8927447" lon="32.8834291">
<ele>1163.38</ele>
<time>2015-04-29T12:33:02Z</time>
</trkpt>
<trkpt lat="34.8928038" lon="32.8834508">
<ele>1162.34</ele>
<time>2015-04-29T12:33:05Z</time>
</trkpt>
<trkpt lat="34.8928526" lon="32.8834698">
<ele>1160.65</ele>
<time>2015-04-29T12:33:07Z</time>
</trkpt>
<trkpt lat="34.8929185" lon="32.8835074">
<ele>1157.98</ele>
<time>2015-04-29T12:33:09Z</time>
</trkpt>
<trkpt lat="34.8929696" lon="32.8835530">
<ele>1155.07</ele>
<time>2015-04-29T12:33:11Z</time>
</trkpt>
<trkpt lat="34.8930136" lon="32.8835833">
<ele>1153.84</ele>
<time>2015-04-29T12:33:13Z</time>
</trkpt>
<trkpt lat="34.8930498" lon="32.8836282">
<ele>1155.70</ele>
<time>2015-04-29T12:33:17Z</time>
</trkpt>
<trkpt lat="34.8930430" lon="32.8836898">
<ele>1163.13</ele>
<time>2015-04-29T12:34:00Z</time>
</trkpt>
<trkpt lat="34.8930358" lon="32.8837468">
<ele>1162.60</ele>
<time>2015-04-29T12:34:02Z</time>
</trkpt>
<trkpt lat="34.8930180" lon="32.8838192">
<ele>1159.97</ele>
<time>2015-04-29T12:34:04Z</time>
</trkpt>
<trkpt lat="34.8929954" lon="32.8838859">
<ele>1156.31</ele>
<time>2015-04-29T12:34:06Z</time>
</trkpt>
<trkpt lat="34.8929400" lon="32.8839475">
<ele>1153.40</ele>
<time>2015-04-29T12:34:08Z</time>
</trkpt>
<trkpt lat="34.8928757" lon="32.8840051">
<ele>1151.42</ele>
<time>2015-04-29T12:34:10Z</time>
</trkpt>
<trkpt lat="34.8928131" lon="32.8840644">
<ele>1151.92</ele>
<time>2015-04-29T12:34:12Z</time>
</trkpt>
<trkpt lat="34.8927635" lon="32.8841396">
<ele>1153.05</ele>
<time>2015-04-29T12:34:14Z</time>
</trkpt>
<trkpt lat="34.8927178" lon="32.8842148">
<ele>1154.08</ele>
<time>2015-04-29T12:34:16Z</time>
</trkpt>
<trkpt lat="34.8926832" lon="32.8842794">
<ele>1154.09</ele>
<time>2015-04-29T12:34:18Z</time>
</trkpt>
<trkpt lat="34.8926398" lon="32.8843404">
<ele>1153.84</ele>
<time>2015-04-29T12:34:20Z</time>
</trkpt>
<trkpt lat="34.8925963" lon="32.8844046">
<ele>1154.28</ele>
<time>2015-04-29T12:34:22Z</time>
</trkpt>
<trkpt lat="34.8925556" lon="32.8844674">
<ele>1154.64</ele>
<time>2015-04-29T12:34:24Z</time>
</trkpt>
<trkpt lat="34.8925192" lon="32.8845257">
<ele>1154.23</ele>
<time>2015-04-29T12:34:26Z</time>
</trkpt>
<trkpt lat="34.8924812" lon="32.8845803">
<ele>1153.07</ele>
<time>2015-04-29T12:34:29Z</time>
</trkpt>
<trkpt lat="34.8924542" lon="32.8846377">
<ele>1153.67</ele>
<time>2015-04-29T12:34:32Z</time>
</trkpt>
<trkpt lat="34.8924173" lon="32.8846691">
<ele>1159.76</ele>
<time>2015-04-29T12:36:23Z</time>
</trkpt>
<trkpt lat="34.8923690" lon="32.8846716">
<ele>1157.11</ele>
<time>2015-04-29T12:37:30Z</time>
</trkpt>
<trkpt lat="34.8923284" lon="32.8847154">
<ele>1156.35</ele>
<time>2015-04-29T12:37:32Z</time>
</trkpt>
<trkpt lat="34.8922856" lon="32.8847596">
<ele>1155.91</ele>
<time>2015-04-29T12:37:34Z</time>
</trkpt>
<trkpt lat="34.8922448" lon="32.8848291">
<ele>1156.80</ele>
<time>2015-04-29T12:37:36Z</time>
</trkpt>
<trkpt lat="34.8922088" lon="32.8848973">
<ele>1157.02</ele>
<time>2015-04-29T12:37:38Z</time>
</trkpt>
<trkpt lat="34.8921744" lon="32.8849638">
<ele>1157.32</ele>
<time>2015-04-29T12:37:40Z</time>
</trkpt>
<trkpt lat="34.8921239" lon="32.8850309">
<ele>1158.06</ele>
<time>2015-04-29T12:37:52Z</time>
</trkpt>
<trkpt lat="34.8920922" lon="32.8851110">
<ele>1157.83</ele>
<time>2015-04-29T12:37:54Z</time>
</trkpt>
<trkpt lat="34.8920663" lon="32.8851894">
<ele>1158.03</ele>
<time>2015-04-29T12:37:56Z</time>
</trkpt>
<trkpt lat="34.8920472" lon="32.8852698">
<ele>1158.83</ele>
<time>2015-04-29T12:37:58Z</time>
</trkpt>
<trkpt lat="34.8920318" lon="32.8853608">
<ele>1159.03</ele>
<time>2015-04-29T12:38:00Z</time>
</trkpt>
<trkpt lat="34.8920239" lon="32.8854555">
<ele>1159.58</ele>
<time>2015-04-29T12:38:02Z</time>
</trkpt>
<trkpt lat="34.8920215" lon="32.8855566">
<ele>1159.71</ele>
<time>2015-04-29T12:38:04Z</time>
</trkpt>
<trkpt lat="34.8920087" lon="32.8856508">
<ele>1160.24</ele>
<time>2015-04-29T12:38:05Z</time>
</trkpt>
<trkpt lat="34.8920206" lon="32.8857449">
<ele>1159.38</ele>
<time>2015-04-29T12:38:07Z</time>
</trkpt>
<trkpt lat="34.8920583" lon="32.8857905">
<ele>1160.91</ele>
<time>2015-04-29T12:38:09Z</time>
</trkpt>
<trkpt lat="34.8920806" lon="32.8858547">
<ele>1163.46</ele>
<time>2015-04-29T12:38:13Z</time>
</trkpt>
<trkpt lat="34.8921093" lon="32.8858972">
<ele>1156.65</ele>
<time>2015-04-29T12:39:02Z</time>
</trkpt>
<trkpt lat="34.8921469" lon="32.8859612">
<ele>1155.75</ele>
<time>2015-04-29T12:39:05Z</time>
</trkpt>
<trkpt lat="34.8921889" lon="32.8860304">
<ele>1155.38</ele>
<time>2015-04-29T12:39:08Z</time>
</trkpt>
<trkpt lat="34.8922165" lon="32.8860878">
<ele>1156.42</ele>
<time>2015-04-29T12:39:10Z</time>
</trkpt>
<trkpt lat="34.8922157" lon="32.8861704">
<ele>1156.17</ele>
<time>2015-04-29T12:39:12Z</time>
</trkpt>
<trkpt lat="34.8921988" lon="32.8862535">
<ele>1156.36</ele>
<time>2015-04-29T12:39:14Z</time>
</trkpt>
<trkpt lat="34.8921808" lon="32.8863250">
<ele>1157.41</ele>
<time>2015-04-29T12:39:16Z</time>
</trkpt>
<trkpt lat="34.8921328" lon="32.8864018">
<ele>1158.67</ele>
<time>2015-04-29T12:39:18Z</time>
</trkpt>
<trkpt lat="34.8920857" lon="32.8864775">
<ele>1156.24</ele>
<time>2015-04-29T12:39:20Z</time>
</trkpt>
<trkpt lat="34.8920484" lon="32.8865386">
<ele>1155.88</ele>
<time>2015-04-29T12:39:22Z</time>
</trkpt>
<trkpt lat="34.8920142" lon="32.8866265">
<ele>1156.29</ele>
<time>2015-04-29T12:39:24Z</time>
</trkpt>
<trkpt lat="34.8919845" lon="32.8867008">
<ele>1159.39</ele>
<time>2015-04-29T12:39:26Z</time>
</trkpt>
<trkpt lat="34.8919438" lon="32.8867659">
<ele>1158.92</ele>
<time>2015-04-29T12:39:28Z</time>
</trkpt>
<trkpt lat="34.8918977" lon="32.8868177">
<ele>1160.05</ele>
<time>2015-04-29T12:39:30Z</time>
</trkpt>
<trkpt lat="34.8918445" lon="32.8868643">
<ele>1161.33</ele>
<time>2015-04-29T12:39:32Z</time>
</trkpt>
<trkpt lat="34.8917895" lon="32.8868914">
<ele>1163.90</ele>
<time>2015-04-29T12:39:34Z</time>
</trkpt>
<trkpt lat="34.8917338" lon="32.8868975">
<ele>1165.05</ele>
<time>2015-04-29T12:39:36Z</time>
</trkpt>
<trkpt lat="34.8916860" lon="32.8868847">
<ele>1166.33</ele>
<time>2015-04-29T12:39:38Z</time>
</trkpt>
<trkpt lat="34.8916380" lon="32.8868674">
<ele>1166.65</ele>
<time>2015-04-29T12:39:40Z</time>
</trkpt>
<trkpt lat="34.8915793" lon="32.8868610">
<ele>1160.98</ele>
<time>2015-04-29T12:39:42Z</time>
</trkpt>
<trkpt lat="34.8915181" lon="32.8868340">
<ele>1157.82</ele>
<time>2015-04-29T12:39:44Z</time>
</trkpt>
<trkpt lat="34.8914502" lon="32.8867963">
<ele>1154.27</ele>
<time>2015-04-29T12:39:46Z</time>
</trkpt>
<trkpt lat="34.8913812" lon="32.8867552">
<ele>1151.89</ele>
<time>2015-04-29T12:39:48Z</time>
</trkpt>
<trkpt lat="34.8912981" lon="32.8867191">
<ele>1149.29</ele>
<time>2015-04-29T12:39:50Z</time>
</trkpt>
<trkpt lat="34.8912095" lon="32.8866897">
<ele>1145.64</ele>
<time>2015-04-29T12:39:52Z</time>
</trkpt>
<trkpt lat="34.8911536" lon="32.8866926">
<ele>1144.20</ele>
<time>2015-04-29T12:39:53Z</time>
</trkpt>
<trkpt lat="34.8911037" lon="32.8866901">
<ele>1143.98</ele>
<time>2015-04-29T12:39:54Z</time>
</trkpt>
<trkpt lat="34.8910552" lon="32.8866952">
<ele>1143.37</ele>
<time>2015-04-29T12:39:55Z</time>
</trkpt>
<trkpt lat="34.8910090" lon="32.8867006">
<ele>1142.57</ele>
<time>2015-04-29T12:39:56Z</time>
</trkpt>
<trkpt lat="34.8909610" lon="32.8867062">
<ele>1142.66</ele>
<time>2015-04-29T12:39:57Z</time>
</trkpt>
<trkpt lat="34.8908867" lon="32.8867522">
<ele>1142.74</ele>
<time>2015-04-29T12:39:59Z</time>
</trkpt>
<trkpt lat="34.8908510" lon="32.8868394">
<ele>1142.50</ele>
<time>2015-04-29T12:40:01Z</time>
</trkpt>
<trkpt lat="34.8908548" lon="32.8869368">
<ele>1142.70</ele>
<time>2015-04-29T12:40:03Z</time>
</trkpt>
<trkpt lat="34.8908664" lon="32.8870380">
<ele>1142.74</ele>
<time>2015-04-29T12:40:05Z</time>
</trkpt>
<trkpt lat="34.8908859" lon="32.8870884">
<ele>1143.25</ele>
<time>2015-04-29T12:40:06Z</time>
</trkpt>
<trkpt lat="34.8909139" lon="32.8871337">
<ele>1144.51</ele>
<time>2015-04-29T12:40:07Z</time>
</trkpt>
<trkpt lat="34.8909378" lon="32.8871829">
<ele>1145.13</ele>
<time>2015-04-29T12:40:08Z</time>
</trkpt>
<trkpt lat="34.8910006" lon="32.8872475">
<ele>1146.60</ele>
<time>2015-04-29T12:40:10Z</time>
</trkpt>
<trkpt lat="34.8910602" lon="32.8873130">
<ele>1146.72</ele>
<time>2015-04-29T12:40:12Z</time>
</trkpt>
<trkpt lat="34.8911107" lon="32.8873913">
<ele>1147.50</ele>
<time>2015-04-29T12:40:14Z</time>
</trkpt>
<trkpt lat="34.8911324" lon="32.8874408">
<ele>1147.13</ele>
<time>2015-04-29T12:40:15Z</time>
</trkpt>
<trkpt lat="34.8911373" lon="32.8875386">
<ele>1147.35</ele>
<time>2015-04-29T12:40:17Z</time>
</trkpt>
<trkpt lat="34.8911327" lon="32.8876446">
<ele>1146.91</ele>
<time>2015-04-29T12:40:19Z</time>
</trkpt>
<trkpt lat="34.8911294" lon="32.8877110">
<ele>1146.83</ele>
<time>2015-04-29T12:40:20Z</time>
</trkpt>
<trkpt lat="34.8911134" lon="32.8877687">
<ele>1146.80</ele>
<time>2015-04-29T12:40:21Z</time>
</trkpt>
<trkpt lat="34.8910911" lon="32.8878204">
<ele>1145.78</ele>
<time>2015-04-29T12:40:22Z</time>
</trkpt>
<trkpt lat="34.8910786" lon="32.8878747">
<ele>1145.77</ele>
<time>2015-04-29T12:40:23Z</time>
</trkpt>
<trkpt lat="34.8910476" lon="32.8879364">
<ele>1146.76</ele>
<time>2015-04-29T12:40:24Z</time>
</trkpt>
<trkpt lat="34.8910078" lon="32.8879768">
<ele>1146.76</ele>
<time>2015-04-29T12:40:25Z</time>
</trkpt>
<trkpt lat="34.8909650" lon="32.8880141">
<ele>1147.26</ele>
<time>2015-04-29T12:40:26Z</time>
</trkpt>
<trkpt lat="34.8909190" lon="32.8880448">
<ele>1148.01</ele>
<time>2015-04-29T12:40:27Z</time>
</trkpt>
<trkpt lat="34.8908638" lon="32.8880728">
<ele>1148.89</ele>
<time>2015-04-29T12:40:28Z</time>
</trkpt>
<trkpt lat="34.8907865" lon="32.8881162">
<ele>1149.04</ele>
<time>2015-04-29T12:40:30Z</time>
</trkpt>
<trkpt lat="34.8907169" lon="32.8881663">
<ele>1149.83</ele>
<time>2015-04-29T12:40:32Z</time>
</trkpt>
<trkpt lat="34.8906582" lon="32.8882420">
<ele>1150.28</ele>
<time>2015-04-29T12:40:34Z</time>
</trkpt>
<trkpt lat="34.8906195" lon="32.8883323">
<ele>1150.64</ele>
<time>2015-04-29T12:40:36Z</time>
</trkpt>
<trkpt lat="34.8906269" lon="32.8883943">
<ele>1150.70</ele>
<time>2015-04-29T12:40:37Z</time>
</trkpt>
<trkpt lat="34.8906381" lon="32.8885034">
<ele>1150.74</ele>
<time>2015-04-29T12:40:39Z</time>
</trkpt>
<trkpt lat="34.8906723" lon="32.8886129">
<ele>1151.51</ele>
<time>2015-04-29T12:40:41Z</time>
</trkpt>
<trkpt lat="34.8906727" lon="32.8886752">
<ele>1151.13</ele>
<time>2015-04-29T12:40:42Z</time>
</trkpt>
<trkpt lat="34.8906682" lon="32.8887754">
<ele>1151.60</ele>
<time>2015-04-29T12:40:44Z</time>
</trkpt>
<trkpt lat="34.8906479" lon="32.8888722">
<ele>1152.22</ele>
<time>2015-04-29T12:40:46Z</time>
</trkpt>
<trkpt lat="34.8906119" lon="32.8889676">
<ele>1152.38</ele>
<time>2015-04-29T12:40:48Z</time>
</trkpt>
<trkpt lat="34.8905875" lon="32.8890143">
<ele>1153.07</ele>
<time>2015-04-29T12:40:49Z</time>
</trkpt>
<trkpt lat="34.8905664" lon="32.8890654">
<ele>1153.41</ele>
<time>2015-04-29T12:40:50Z</time>
</trkpt>
<trkpt lat="34.8905440" lon="32.8891187">
<ele>1153.09</ele>
<time>2015-04-29T12:40:51Z</time>
</trkpt>
<trkpt lat="34.8905144" lon="32.8891675">
<ele>1152.92</ele>
<time>2015-04-29T12:40:52Z</time>
</trkpt>
<trkpt lat="34.8904773" lon="32.8892134">
<ele>1153.34</ele>
<time>2015-04-29T12:40:53Z</time>
</trkpt>
<trkpt lat="34.8904361" lon="32.8892558">
<ele>1153.55</ele>
<time>2015-04-29T12:40:54Z</time>
</trkpt>
<trkpt lat="34.8904105" lon="32.8893045">
<ele>1153.66</ele>
<time>2015-04-29T12:40:55Z</time>
</trkpt>
<trkpt lat="34.8903803" lon="32.8893545">
<ele>1153.71</ele>
<time>2015-04-29T12:40:56Z</time>
</trkpt>
<trkpt lat="34.8903508" lon="32.8894069">
<ele>1154.23</ele>
<time>2015-04-29T12:40:57Z</time>
</trkpt>
<trkpt lat="34.8903219" lon="32.8895098">
<ele>1155.38</ele>
<time>2015-04-29T12:40:59Z</time>
</trkpt>
<trkpt lat="34.8903102" lon="32.8896138">
<ele>1155.66</ele>
<time>2015-04-29T12:41:01Z</time>
</trkpt>
<trkpt lat="34.8903236" lon="32.8896714">
<ele>1155.71</ele>
<time>2015-04-29T12:41:02Z</time>
</trkpt>
<trkpt lat="34.8903372" lon="32.8897314">
<ele>1155.74</ele>
<time>2015-04-29T12:41:03Z</time>
</trkpt>
<trkpt lat="34.8903598" lon="32.8897934">
<ele>1155.75</ele>
<time>2015-04-29T12:41:04Z</time>
</trkpt>
<trkpt lat="34.8903966" lon="32.8898418">
<ele>1155.75</ele>
<time>2015-04-29T12:41:05Z</time>
</trkpt>
<trkpt lat="34.8904405" lon="32.8898909">
<ele>1155.76</ele>
<time>2015-04-29T12:41:06Z</time>
</trkpt>
<trkpt lat="34.8904907" lon="32.8899266">
<ele>1155.26</ele>
<time>2015-04-29T12:41:07Z</time>
</trkpt>
<trkpt lat="34.8905411" lon="32.8899657">
<ele>1155.51</ele>
<time>2015-04-29T12:41:08Z</time>
</trkpt>
<trkpt lat="34.8905866" lon="32.8900102">
<ele>1155.13</ele>
<time>2015-04-29T12:41:09Z</time>
</trkpt>
<trkpt lat="34.8906286" lon="32.8900649">
<ele>1154.95</ele>
<time>2015-04-29T12:41:10Z</time>
</trkpt>
<trkpt lat="34.8906632" lon="32.8901192">
<ele>1154.85</ele>
<time>2015-04-29T12:41:11Z</time>
</trkpt>
<trkpt lat="34.8906936" lon="32.8901883">
<ele>1154.81</ele>
<time>2015-04-29T12:41:12Z</time>
</trkpt>
<trkpt lat="34.8907124" lon="32.8902554">
<ele>1154.78</ele>
<time>2015-04-29T12:41:13Z</time>
</trkpt>
<trkpt lat="34.8907248" lon="32.8903170">
<ele>1154.77</ele>
<time>2015-04-29T12:41:14Z</time>
</trkpt>
<trkpt lat="34.8907337" lon="32.8903708">
<ele>1154.77</ele>
<time>2015-04-29T12:41:15Z</time>
</trkpt>
<trkpt lat="34.8907445" lon="32.8904302">
<ele>1154.76</ele>
<time>2015-04-29T12:41:16Z</time>
</trkpt>
<trkpt lat="34.8907430" lon="32.8905336">
<ele>1154.76</ele>
<time>2015-04-29T12:41:18Z</time>
</trkpt>
<trkpt lat="34.8907639" lon="32.8906123">
<ele>1154.76</ele>
<time>2015-04-29T12:41:20Z</time>
</trkpt>
<trkpt lat="34.8907910" lon="32.8906747">
<ele>1154.01</ele>
<time>2015-04-29T12:41:22Z</time>
</trkpt>
<trkpt lat="34.8908293" lon="32.8907060">
<ele>1155.07</ele>
<time>2015-04-29T12:41:24Z</time>
</trkpt>
<trkpt lat="34.8908728" lon="32.8907426">
<ele>1156.34</ele>
<time>2015-04-29T12:41:26Z</time>
</trkpt>
<trkpt lat="34.8909263" lon="32.8907680">
<ele>1157.15</ele>
<time>2015-04-29T12:41:28Z</time>
</trkpt>
<trkpt lat="34.8909818" lon="32.8908038">
<ele>1156.86</ele>
<time>2015-04-29T12:41:30Z</time>
</trkpt>
<trkpt lat="34.8910212" lon="32.8908316">
<ele>1156.31</ele>
<time>2015-04-29T12:41:31Z</time>
</trkpt>
<trkpt lat="34.8911020" lon="32.8908766">
<ele>1157.15</ele>
<time>2015-04-29T12:41:33Z</time>
</trkpt>
<trkpt lat="34.8911948" lon="32.8909211">
<ele>1157.61</ele>
<time>2015-04-29T12:41:35Z</time>
</trkpt>
<trkpt lat="34.8912440" lon="32.8909339">
<ele>1158.18</ele>
<time>2015-04-29T12:41:36Z</time>
</trkpt>
<trkpt lat="34.8912966" lon="32.8909426">
<ele>1158.47</ele>
<time>2015-04-29T12:41:37Z</time>
</trkpt>
<trkpt lat="34.8913471" lon="32.8909538">
<ele>1159.12</ele>
<time>2015-04-29T12:41:38Z</time>
</trkpt>
<trkpt lat="34.8913962" lon="32.8909629">
<ele>1159.44</ele>
<time>2015-04-29T12:41:39Z</time>
</trkpt>
<trkpt lat="34.8914454" lon="32.8909670">
<ele>1159.60</ele>
<time>2015-04-29T12:41:40Z</time>
</trkpt>
<trkpt lat="34.8915377" lon="32.8909704">
<ele>1158.97</ele>
<time>2015-04-29T12:41:42Z</time>
</trkpt>
<trkpt lat="34.8916203" lon="32.8909784">
<ele>1159.56</ele>
<time>2015-04-29T12:41:44Z</time>
</trkpt>
<trkpt lat="34.8917062" lon="32.8909880">
<ele>1159.46</ele>
<time>2015-04-29T12:41:46Z</time>
</trkpt>
<trkpt lat="34.8917519" lon="32.8909919">
<ele>1159.61</ele>
<time>2015-04-29T12:41:47Z</time>
</trkpt>
<trkpt lat="34.8918020" lon="32.8909998">
<ele>1159.69</ele>
<time>2015-04-29T12:41:48Z</time>
</trkpt>
<trkpt lat="34.8918531" lon="32.8910077">
<ele>1159.72</ele>
<time>2015-04-29T12:41:49Z</time>
</trkpt>
<trkpt lat="34.8919050" lon="32.8910257">
<ele>1159.74</ele>
<time>2015-04-29T12:41:50Z</time>
</trkpt>
<trkpt lat="34.8919512" lon="32.8910427">
<ele>1159.75</ele>
<time>2015-04-29T12:41:51Z</time>
</trkpt>
<trkpt lat="34.8919998" lon="32.8910769">
<ele>1159.76</ele>
<time>2015-04-29T12:41:52Z</time>
</trkpt>
<trkpt lat="34.8920326" lon="32.8911163">
<ele>1159.76</ele>
<time>2015-04-29T12:41:53Z</time>
</trkpt>
<trkpt lat="34.8920890" lon="32.8911877">
<ele>1159.01</ele>
<time>2015-04-29T12:41:55Z</time>
</trkpt>
<trkpt lat="34.8921358" lon="32.8912588">
<ele>1158.82</ele>
<time>2015-04-29T12:41:57Z</time>
</trkpt>
<trkpt lat="34.8921898" lon="32.8913265">
<ele>1159.28</ele>
<time>2015-04-29T12:41:59Z</time>
</trkpt>
<trkpt lat="34.8922479" lon="32.8913816">
<ele>1159.64</ele>
<time>2015-04-29T12:42:01Z</time>
</trkpt>
<trkpt lat="34.8923149" lon="32.8914166">
<ele>1158.98</ele>
<time>2015-04-29T12:42:03Z</time>
</trkpt>
<trkpt lat="34.8923932" lon="32.8914360">
<ele>1158.81</ele>
<time>2015-04-29T12:42:05Z</time>
</trkpt>
<trkpt lat="34.8924672" lon="32.8914533">
<ele>1158.27</ele>
<time>2015-04-29T12:42:07Z</time>
</trkpt>
<trkpt lat="34.8925455" lon="32.8914534">
<ele>1157.14</ele>
<time>2015-04-29T12:42:09Z</time>
</trkpt>
<trkpt lat="34.8926229" lon="32.8914410">
<ele>1156.85</ele>
<time>2015-04-29T12:42:11Z</time>
</trkpt>
<trkpt lat="34.8926691" lon="32.8914344">
<ele>1156.81</ele>
<time>2015-04-29T12:42:12Z</time>
</trkpt>
<trkpt lat="34.8927153" lon="32.8914143">
<ele>1156.78</ele>
<time>2015-04-29T12:42:13Z</time>
</trkpt>
<trkpt lat="34.8927602" lon="32.8914001">
<ele>1156.77</ele>
<time>2015-04-29T12:42:14Z</time>
</trkpt>
<trkpt lat="34.8928560" lon="32.8914010">
<ele>1157.26</ele>
<time>2015-04-29T12:42:16Z</time>
</trkpt>
<trkpt lat="34.8929471" lon="32.8914026">
<ele>1158.39</ele>
<time>2015-04-29T12:42:18Z</time>
</trkpt>
<trkpt lat="34.8929929" lon="32.8914034">
<ele>1159.07</ele>
<time>2015-04-29T12:42:19Z</time>
</trkpt>
<trkpt lat="34.8930405" lon="32.8914037">
<ele>1159.42</ele>
<time>2015-04-29T12:42:20Z</time>
</trkpt>
<trkpt lat="34.8930860" lon="32.8914047">
<ele>1160.09</ele>
<time>2015-04-29T12:42:21Z</time>
</trkpt>
<trkpt lat="34.8931312" lon="32.8913974">
<ele>1159.92</ele>
<time>2015-04-29T12:42:22Z</time>
</trkpt>
<trkpt lat="34.8932118" lon="32.8913990">
<ele>1159.80</ele>
<time>2015-04-29T12:42:24Z</time>
</trkpt>
<trkpt lat="34.8932571" lon="32.8914016">
<ele>1159.78</ele>
<time>2015-04-29T12:42:25Z</time>
</trkpt>
<trkpt lat="34.8933409" lon="32.8914077">
<ele>1159.77</ele>
<time>2015-04-29T12:42:27Z</time>
</trkpt>
<trkpt lat="34.8934302" lon="32.8914114">
<ele>1159.76</ele>
<time>2015-04-29T12:42:29Z</time>
</trkpt>
<trkpt lat="34.8935088" lon="32.8914072">
<ele>1160.26</ele>
<time>2015-04-29T12:42:31Z</time>
</trkpt>
<trkpt lat="34.8935952" lon="32.8913900">
<ele>1159.89</ele>
<time>2015-04-29T12:42:33Z</time>
</trkpt>
<trkpt lat="34.8936754" lon="32.8913694">
<ele>1160.04</ele>
<time>2015-04-29T12:42:35Z</time>
</trkpt>
<trkpt lat="34.8937570" lon="32.8913566">
<ele>1159.83</ele>
<time>2015-04-29T12:42:37Z</time>
</trkpt>
<trkpt lat="34.8938313" lon="32.8913852">
<ele>1159.28</ele>
<time>2015-04-29T12:42:39Z</time>
</trkpt>
<trkpt lat="34.8938837" lon="32.8914461">
<ele>1158.89</ele>
<time>2015-04-29T12:42:41Z</time>
</trkpt>
<trkpt lat="34.8939300" lon="32.8915145">
<ele>1158.79</ele>
<time>2015-04-29T12:42:43Z</time>
</trkpt>
<trkpt lat="34.8939780" lon="32.8915840">
<ele>1158.77</ele>
<time>2015-04-29T12:42:45Z</time>
</trkpt>
<trkpt lat="34.8940204" lon="32.8916488">
<ele>1158.76</ele>
<time>2015-04-29T12:42:47Z</time>
</trkpt>
<trkpt lat="34.8940497" lon="32.8917133">
<ele>1158.76</ele>
<time>2015-04-29T12:42:49Z</time>
</trkpt>
<trkpt lat="34.8940779" lon="32.8917822">
<ele>1159.26</ele>
<time>2015-04-29T12:42:51Z</time>
</trkpt>
<trkpt lat="34.8941071" lon="32.8918622">
<ele>1158.39</ele>
<time>2015-04-29T12:42:53Z</time>
</trkpt>
<trkpt lat="34.8941331" lon="32.8919604">
<ele>1158.17</ele>
<time>2015-04-29T12:42:55Z</time>
</trkpt>
<trkpt lat="34.8941441" lon="32.8920182">
<ele>1157.96</ele>
<time>2015-04-29T12:42:56Z</time>
</trkpt>
<trkpt lat="34.8941548" lon="32.8920754">
<ele>1157.86</ele>
<time>2015-04-29T12:42:57Z</time>
</trkpt>
<trkpt lat="34.8941630" lon="32.8921614">
<ele>1157.81</ele>
<time>2015-04-29T12:42:58Z</time>
</trkpt>
<trkpt lat="34.8941797" lon="32.8922209">
<ele>1157.79</ele>
<time>2015-04-29T12:42:59Z</time>
</trkpt>
<trkpt lat="34.8941825" lon="32.8922849">
<ele>1157.77</ele>
<time>2015-04-29T12:43:00Z</time>
</trkpt>
<trkpt lat="34.8941908" lon="32.8923414">
<ele>1158.27</ele>
<time>2015-04-29T12:43:01Z</time>
</trkpt>
<trkpt lat="34.8942067" lon="32.8923977">
<ele>1158.01</ele>
<time>2015-04-29T12:43:02Z</time>
</trkpt>
<trkpt lat="34.8942186" lon="32.8925096">
<ele>1156.57</ele>
<time>2015-04-29T12:43:04Z</time>
</trkpt>
<trkpt lat="34.8942310" lon="32.8925681">
<ele>1156.17</ele>
<time>2015-04-29T12:43:05Z</time>
</trkpt>
<trkpt lat="34.8942387" lon="32.8926305">
<ele>1154.96</ele>
<time>2015-04-29T12:43:06Z</time>
</trkpt>
<trkpt lat="34.8942436" lon="32.8927449">
<ele>1153.56</ele>
<time>2015-04-29T12:43:08Z</time>
</trkpt>
<trkpt lat="34.8942319" lon="32.8928003">
<ele>1153.16</ele>
<time>2015-04-29T12:43:09Z</time>
</trkpt>
<trkpt lat="34.8942036" lon="32.8929135">
<ele>1152.86</ele>
<time>2015-04-29T12:43:11Z</time>
</trkpt>
<trkpt lat="34.8941865" lon="32.8929713">
<ele>1152.31</ele>
<time>2015-04-29T12:43:12Z</time>
</trkpt>
<trkpt lat="34.8941668" lon="32.8930307">
<ele>1152.04</ele>
<time>2015-04-29T12:43:13Z</time>
</trkpt>
<trkpt lat="34.8941491" lon="32.8930907">
<ele>1151.40</ele>
<time>2015-04-29T12:43:14Z</time>
</trkpt>
<trkpt lat="34.8941121" lon="32.8931950">
<ele>1150.67</ele>
<time>2015-04-29T12:43:16Z</time>
</trkpt>
<trkpt lat="34.8940493" lon="32.8932766">
<ele>1150.74</ele>
<time>2015-04-29T12:43:18Z</time>
</trkpt>
<trkpt lat="34.8940182" lon="32.8933180">
<ele>1150.25</ele>
<time>2015-04-29T12:43:19Z</time>
</trkpt>
<trkpt lat="34.8939585" lon="32.8933805">
<ele>1149.88</ele>
<time>2015-04-29T12:43:21Z</time>
</trkpt>
<trkpt lat="34.8939179" lon="32.8934175">
<ele>1149.79</ele>
<time>2015-04-29T12:43:23Z</time>
</trkpt>
<trkpt lat="34.8938869" lon="32.8934602">
<ele>1149.02</ele>
<time>2015-04-29T12:43:25Z</time>
</trkpt>
<trkpt lat="34.8938360" lon="32.8935108">
<ele>1148.82</ele>
<time>2015-04-29T12:43:27Z</time>
</trkpt>
<trkpt lat="34.8937802" lon="32.8935620">
<ele>1148.78</ele>
<time>2015-04-29T12:43:29Z</time>
</trkpt>
<trkpt lat="34.8937338" lon="32.8936187">
<ele>1148.01</ele>
<time>2015-04-29T12:43:31Z</time>
</trkpt>
<trkpt lat="34.8936765" lon="32.8936860">
<ele>1147.82</ele>
<time>2015-04-29T12:43:33Z</time>
</trkpt>
<trkpt lat="34.8936450" lon="32.8937272">
<ele>1147.79</ele>
<time>2015-04-29T12:43:34Z</time>
</trkpt>
<trkpt lat="34.8936166" lon="32.8937800">
<ele>1148.28</ele>
<time>2015-04-29T12:43:35Z</time>
</trkpt>
<trkpt lat="34.8936030" lon="32.8938344">
<ele>1148.02</ele>
<time>2015-04-29T12:43:36Z</time>
</trkpt>
<trkpt lat="34.8935869" lon="32.8938903">
<ele>1147.89</ele>
<time>2015-04-29T12:43:37Z</time>
</trkpt>
<trkpt lat="34.8935853" lon="32.8939573">
<ele>1147.82</ele>
<time>2015-04-29T12:43:38Z</time>
</trkpt>
<trkpt lat="34.8935796" lon="32.8940251">
<ele>1147.79</ele>
<time>2015-04-29T12:43:39Z</time>
</trkpt>
<trkpt lat="34.8935862" lon="32.8940944">
<ele>1148.28</ele>
<time>2015-04-29T12:43:40Z</time>
</trkpt>
<trkpt lat="34.8936082" lon="32.8941520">
<ele>1148.52</ele>
<time>2015-04-29T12:43:41Z</time>
</trkpt>
<trkpt lat="34.8936402" lon="32.8942060">
<ele>1148.64</ele>
<time>2015-04-29T12:43:42Z</time>
</trkpt>
<trkpt lat="34.8936787" lon="32.8942505">
<ele>1148.70</ele>
<time>2015-04-29T12:43:43Z</time>
</trkpt>
<trkpt lat="34.8937241" lon="32.8942905">
<ele>1148.73</ele>
<time>2015-04-29T12:43:44Z</time>
</trkpt>
<trkpt lat="34.8937716" lon="32.8943247">
<ele>1148.24</ele>
<time>2015-04-29T12:43:45Z</time>
</trkpt>
<trkpt lat="34.8938309" lon="32.8943411">
<ele>1148.00</ele>
<time>2015-04-29T12:43:46Z</time>
</trkpt>
<trkpt lat="34.8938792" lon="32.8943589">
<ele>1147.88</ele>
<time>2015-04-29T12:43:47Z</time>
</trkpt>
<trkpt lat="34.8939356" lon="32.8943823">
<ele>1148.32</ele>
<time>2015-04-29T12:43:48Z</time>
</trkpt>
<trkpt lat="34.8939900" lon="32.8944052">
<ele>1148.54</ele>
<time>2015-04-29T12:43:49Z</time>
</trkpt>
<trkpt lat="34.8940454" lon="32.8944259">
<ele>1148.65</ele>
<time>2015-04-29T12:43:50Z</time>
</trkpt>
<trkpt lat="34.8940930" lon="32.8944376">
<ele>1148.71</ele>
<time>2015-04-29T12:43:51Z</time>
</trkpt>
<trkpt lat="34.8941437" lon="32.8944601">
<ele>1149.23</ele>
<time>2015-04-29T12:43:52Z</time>
</trkpt>
<trkpt lat="34.8941796" lon="32.8945026">
<ele>1149.00</ele>
<time>2015-04-29T12:43:53Z</time>
</trkpt>
<trkpt lat="34.8942128" lon="32.8945458">
<ele>1148.88</ele>
<time>2015-04-29T12:43:54Z</time>
</trkpt>
<trkpt lat="34.8942421" lon="32.8945952">
<ele>1148.32</ele>
<time>2015-04-29T12:43:55Z</time>
</trkpt>
<trkpt lat="34.8942508" lon="32.8946621">
<ele>1148.04</ele>
<time>2015-04-29T12:43:56Z</time>
</trkpt>
<trkpt lat="34.8942431" lon="32.8947333">
<ele>1147.90</ele>
<time>2015-04-29T12:43:57Z</time>
</trkpt>
<trkpt lat="34.8942317" lon="32.8947993">
<ele>1147.83</ele>
<time>2015-04-29T12:43:58Z</time>
</trkpt>
<trkpt lat="34.8942058" lon="32.8948480">
<ele>1147.29</ele>
<time>2015-04-29T12:43:59Z</time>
</trkpt>
<trkpt lat="34.8941724" lon="32.8949318">
<ele>1146.14</ele>
<time>2015-04-29T12:44:01Z</time>
</trkpt>
<trkpt lat="34.8941452" lon="32.8950321">
<ele>1146.61</ele>
<time>2015-04-29T12:44:03Z</time>
</trkpt>
<trkpt lat="34.8941326" lon="32.8950904">
<ele>1146.18</ele>
<time>2015-04-29T12:44:04Z</time>
</trkpt>
<trkpt lat="34.8941170" lon="32.8951419">
<ele>1145.47</ele>
<time>2015-04-29T12:44:05Z</time>
</trkpt>
<trkpt lat="34.8941059" lon="32.8951977">
<ele>1144.62</ele>
<time>2015-04-29T12:44:06Z</time>
</trkpt>
<trkpt lat="34.8940973" lon="32.8952518">
<ele>1144.19</ele>
<time>2015-04-29T12:44:07Z</time>
</trkpt>
<trkpt lat="34.8940855" lon="32.8953114">
<ele>1143.97</ele>
<time>2015-04-29T12:44:08Z</time>
</trkpt>
<trkpt lat="34.8940715" lon="32.8953702">
<ele>1143.87</ele>
<time>2015-04-29T12:44:09Z</time>
</trkpt>
<trkpt lat="34.8940580" lon="32.8954305">
<ele>1143.81</ele>
<time>2015-04-29T12:44:10Z</time>
</trkpt>
<trkpt lat="34.8940508" lon="32.8954875">
<ele>1144.29</ele>
<time>2015-04-29T12:44:11Z</time>
</trkpt>
<trkpt lat="34.8940401" lon="32.8955548">
<ele>1144.52</ele>
<time>2015-04-29T12:44:12Z</time>
</trkpt>
<trkpt lat="34.8940366" lon="32.8956228">
<ele>1145.14</ele>
<time>2015-04-29T12:44:13Z</time>
</trkpt>
<trkpt lat="34.8940265" lon="32.8956875">
<ele>1144.95</ele>
<time>2015-04-29T12:44:14Z</time>
</trkpt>
<trkpt lat="34.8940165" lon="32.8957520">
<ele>1144.86</ele>
<time>2015-04-29T12:44:15Z</time>
</trkpt>
<trkpt lat="34.8939924" lon="32.8958221">
<ele>1144.81</ele>
<time>2015-04-29T12:44:16Z</time>
</trkpt>
<trkpt lat="34.8939687" lon="32.8958854">
<ele>1144.28</ele>
<time>2015-04-29T12:44:17Z</time>
</trkpt>
<trkpt lat="34.8939306" lon="32.8959442">
<ele>1143.52</ele>
<time>2015-04-29T12:44:18Z</time>
</trkpt>
<trkpt lat="34.8938913" lon="32.8960026">
<ele>1142.64</ele>
<time>2015-04-29T12:44:19Z</time>
</trkpt>
<trkpt lat="34.8938419" lon="32.8960605">
<ele>1142.20</ele>
<time>2015-04-29T12:44:20Z</time>
</trkpt>
<trkpt lat="34.8937952" lon="32.8961177">
<ele>1141.98</ele>
<time>2015-04-29T12:44:21Z</time>
</trkpt>
<trkpt lat="34.8937498" lon="32.8961766">
<ele>1141.87</ele>
<time>2015-04-29T12:44:22Z</time>
</trkpt>
<trkpt lat="34.8937078" lon="32.8962365">
<ele>1141.82</ele>
<time>2015-04-29T12:44:23Z</time>
</trkpt>
<trkpt lat="34.8936722" lon="32.8963001">
<ele>1141.79</ele>
<time>2015-04-29T12:44:24Z</time>
</trkpt>
<trkpt lat="34.8936338" lon="32.8963726">
<ele>1141.77</ele>
<time>2015-04-29T12:44:25Z</time>
</trkpt>
<trkpt lat="34.8936126" lon="32.8964518">
<ele>1141.77</ele>
<time>2015-04-29T12:44:26Z</time>
</trkpt>
<trkpt lat="34.8936001" lon="32.8965231">
<ele>1141.76</ele>
<time>2015-04-29T12:44:27Z</time>
</trkpt>
<trkpt lat="34.8935830" lon="32.8966093">
<ele>1141.76</ele>
<time>2015-04-29T12:44:28Z</time>
</trkpt>
<trkpt lat="34.8935682" lon="32.8966955">
<ele>1141.76</ele>
<time>2015-04-29T12:44:29Z</time>
</trkpt>
<trkpt lat="34.8935574" lon="32.8967864">
<ele>1141.76</ele>
<time>2015-04-29T12:44:30Z</time>
</trkpt>
<trkpt lat="34.8935434" lon="32.8968694">
<ele>1141.26</ele>
<time>2015-04-29T12:44:31Z</time>
</trkpt>
<trkpt lat="34.8935248" lon="32.8969585">
<ele>1141.01</ele>
<time>2015-04-29T12:44:32Z</time>
</trkpt>
<trkpt lat="34.8935028" lon="32.8970338">
<ele>1140.39</ele>
<time>2015-04-29T12:44:33Z</time>
</trkpt>
<trkpt lat="34.8934617" lon="32.8971026">
<ele>1140.07</ele>
<time>2015-04-29T12:44:34Z</time>
</trkpt>
<trkpt lat="34.8934248" lon="32.8971624">
<ele>1139.42</ele>
<time>2015-04-29T12:44:35Z</time>
</trkpt>
<trkpt lat="34.8933777" lon="32.8972189">
<ele>1138.59</ele>
<time>2015-04-29T12:44:36Z</time>
</trkpt>
<trkpt lat="34.8933182" lon="32.8972620">
<ele>1137.67</ele>
<time>2015-04-29T12:44:37Z</time>
</trkpt>
<trkpt lat="34.8932625" lon="32.8973048">
<ele>1137.22</ele>
<time>2015-04-29T12:44:38Z</time>
</trkpt>
<trkpt lat="34.8932089" lon="32.8973366">
<ele>1136.99</ele>
<time>2015-04-29T12:44:39Z</time>
</trkpt>
<trkpt lat="34.8931470" lon="32.8973724">
<ele>1136.37</ele>
<time>2015-04-29T12:44:40Z</time>
</trkpt>
<trkpt lat="34.8930870" lon="32.8974002">
<ele>1136.07</ele>
<time>2015-04-29T12:44:41Z</time>
</trkpt>
<trkpt lat="34.8930320" lon="32.8974323">
<ele>1135.91</ele>
<time>2015-04-29T12:44:42Z</time>
</trkpt>
<trkpt lat="34.8929916" lon="32.8974631">
<ele>1135.34</ele>
<time>2015-04-29T12:44:43Z</time>
</trkpt>
<trkpt lat="34.8929509" lon="32.8975090">
<ele>1135.55</ele>
<time>2015-04-29T12:44:44Z</time>
</trkpt>
<trkpt lat="34.8929241" lon="32.8975617">
<ele>1135.15</ele>
<time>2015-04-29T12:44:45Z</time>
</trkpt>
<trkpt lat="34.8929067" lon="32.8976167">
<ele>1134.96</ele>
<time>2015-04-29T12:44:46Z</time>
</trkpt>
<trkpt lat="34.8929142" lon="32.8977191">
<ele>1135.31</ele>
<time>2015-04-29T12:44:48Z</time>
</trkpt>
<trkpt lat="34.8929724" lon="32.8977888">
<ele>1135.65</ele>
<time>2015-04-29T12:44:50Z</time>
</trkpt>
<trkpt lat="34.8930124" lon="32.8978170">
<ele>1135.70</ele>
<time>2015-04-29T12:44:51Z</time>
</trkpt>
<trkpt lat="34.8930554" lon="32.8978514">
<ele>1135.73</ele>
<time>2015-04-29T12:44:52Z</time>
</trkpt>
<trkpt lat="34.8930982" lon="32.8978806">
<ele>1135.25</ele>
<time>2015-04-29T12:44:53Z</time>
</trkpt>
<trkpt lat="34.8931447" lon="32.8979206">
<ele>1135.50</ele>
<time>2015-04-29T12:44:54Z</time>
</trkpt>
<trkpt lat="34.8931941" lon="32.8979570">
<ele>1135.13</ele>
<time>2015-04-29T12:44:55Z</time>
</trkpt>
<trkpt lat="34.8932274" lon="32.8980116">
<ele>1134.95</ele>
<time>2015-04-29T12:44:56Z</time>
</trkpt>
<trkpt lat="34.8932394" lon="32.8980761">
<ele>1134.85</ele>
<time>2015-04-29T12:44:57Z</time>
</trkpt>
<trkpt lat="34.8932496" lon="32.8981411">
<ele>1134.81</ele>
<time>2015-04-29T12:44:58Z</time>
</trkpt>
<trkpt lat="34.8932621" lon="32.8982006">
<ele>1134.78</ele>
<time>2015-04-29T12:44:59Z</time>
</trkpt>
<trkpt lat="34.8932670" lon="32.8982705">
<ele>1134.77</ele>
<time>2015-04-29T12:45:00Z</time>
</trkpt>
<trkpt lat="34.8932776" lon="32.8983320">
<ele>1134.27</ele>
<time>2015-04-29T12:45:01Z</time>
</trkpt>
<trkpt lat="34.8932836" lon="32.8983932">
<ele>1134.01</ele>
<time>2015-04-29T12:45:02Z</time>
</trkpt>
<trkpt lat="34.8933029" lon="32.8984445">
<ele>1133.89</ele>
<time>2015-04-29T12:45:03Z</time>
</trkpt>
<trkpt lat="34.8933353" lon="32.8985010">
<ele>1133.82</ele>
<time>2015-04-29T12:45:04Z</time>
</trkpt>
<trkpt lat="34.8933691" lon="32.8985469">
<ele>1133.79</ele>
<time>2015-04-29T12:45:05Z</time>
</trkpt>
<trkpt lat="34.8933845" lon="32.8986096">
<ele>1133.78</ele>
<time>2015-04-29T12:45:06Z</time>
</trkpt>
<trkpt lat="34.8933997" lon="32.8986631">
<ele>1133.27</ele>
<time>2015-04-29T12:45:07Z</time>
</trkpt>
<trkpt lat="34.8934091" lon="32.8987272">
<ele>1132.51</ele>
<time>2015-04-29T12:45:08Z</time>
</trkpt>
<trkpt lat="34.8934065" lon="32.8987860">
<ele>1132.14</ele>
<time>2015-04-29T12:45:09Z</time>
</trkpt>
<trkpt lat="34.8933586" lon="32.8988753">
<ele>1131.60</ele>
<time>2015-04-29T12:45:11Z</time>
</trkpt>
<trkpt lat="34.8933377" lon="32.8989240">
<ele>1131.68</ele>
<time>2015-04-29T12:45:12Z</time>
</trkpt>
<trkpt lat="34.8932734" lon="32.8990032">
<ele>1130.99</ele>
<time>2015-04-29T12:45:14Z</time>
</trkpt>
<trkpt lat="34.8932166" lon="32.8990780">
<ele>1130.32</ele>
<time>2015-04-29T12:45:16Z</time>
</trkpt>
<trkpt lat="34.8931836" lon="32.8991163">
<ele>1130.54</ele>
<time>2015-04-29T12:45:17Z</time>
</trkpt>
<trkpt lat="34.8931266" lon="32.8991837">
<ele>1129.95</ele>
<time>2015-04-29T12:45:19Z</time>
</trkpt>
<trkpt lat="34.8930843" lon="32.8992152">
<ele>1129.86</ele>
<time>2015-04-29T12:45:20Z</time>
</trkpt>
<trkpt lat="34.8930133" lon="32.8992721">
<ele>1128.53</ele>
<time>2015-04-29T12:45:22Z</time>
</trkpt>
<trkpt lat="34.8929640" lon="32.8993615">
<ele>1127.95</ele>
<time>2015-04-29T12:45:24Z</time>
</trkpt>
<trkpt lat="34.8929406" lon="32.8994692">
<ele>1127.81</ele>
<time>2015-04-29T12:45:26Z</time>
</trkpt>
<trkpt lat="34.8929373" lon="32.8995240">
<ele>1128.28</ele>
<time>2015-04-29T12:45:27Z</time>
</trkpt>
<trkpt lat="34.8929277" lon="32.8995815">
<ele>1128.52</ele>
<time>2015-04-29T12:45:28Z</time>
</trkpt>
<trkpt lat="34.8929254" lon="32.8996371">
<ele>1128.64</ele>
<time>2015-04-29T12:45:29Z</time>
</trkpt>
<trkpt lat="34.8929392" lon="32.8996907">
<ele>1128.70</ele>
<time>2015-04-29T12:45:30Z</time>
</trkpt>
<trkpt lat="34.8930027" lon="32.8997850">
<ele>1128.25</ele>
<time>2015-04-29T12:45:32Z</time>
</trkpt>
<trkpt lat="34.8930329" lon="32.8998394">
<ele>1128.00</ele>
<time>2015-04-29T12:45:33Z</time>
</trkpt>
<trkpt lat="34.8930684" lon="32.8998781">
<ele>1127.88</ele>
<time>2015-04-29T12:45:34Z</time>
</trkpt>
<trkpt lat="34.8931077" lon="32.8999158">
<ele>1127.82</ele>
<time>2015-04-29T12:45:35Z</time>
</trkpt>
<trkpt lat="34.8931374" lon="32.8999588">
<ele>1127.29</ele>
<time>2015-04-29T12:45:36Z</time>
</trkpt>
<trkpt lat="34.8931598" lon="32.9000202">
<ele>1126.53</ele>
<time>2015-04-29T12:45:37Z</time>
</trkpt>
<trkpt lat="34.8931765" lon="32.9000722">
<ele>1125.64</ele>
<time>2015-04-29T12:45:38Z</time>
</trkpt>
<trkpt lat="34.8931823" lon="32.9001333">
<ele>1125.20</ele>
<time>2015-04-29T12:45:39Z</time>
</trkpt>
<trkpt lat="34.8931722" lon="32.9001954">
<ele>1124.48</ele>
<time>2015-04-29T12:45:40Z</time>
</trkpt>
<trkpt lat="34.8931600" lon="32.9002524">
<ele>1123.62</ele>
<time>2015-04-29T12:45:41Z</time>
</trkpt>
<trkpt lat="34.8931254" lon="32.9003056">
<ele>1123.69</ele>
<time>2015-04-29T12:45:42Z</time>
</trkpt>
<trkpt lat="34.8930944" lon="32.9003563">
<ele>1123.73</ele>
<time>2015-04-29T12:45:43Z</time>
</trkpt>
<trkpt lat="34.8930755" lon="32.9004078">
<ele>1122.74</ele>
<time>2015-04-29T12:45:44Z</time>
</trkpt>
<trkpt lat="34.8930480" lon="32.9004569">
<ele>1121.75</ele>
<time>2015-04-29T12:45:45Z</time>
</trkpt>
<trkpt lat="34.8930156" lon="32.9005072">
<ele>1121.26</ele>
<time>2015-04-29T12:45:46Z</time>
</trkpt>
<trkpt lat="34.8929831" lon="32.9005545">
<ele>1121.01</ele>
<time>2015-04-29T12:45:47Z</time>
</trkpt>
<trkpt lat="34.8929431" lon="32.9005969">
<ele>1121.38</ele>
<time>2015-04-29T12:45:48Z</time>
</trkpt>
<trkpt lat="34.8928957" lon="32.9006390">
<ele>1122.07</ele>
<time>2015-04-29T12:45:49Z</time>
</trkpt>
<trkpt lat="34.8928415" lon="32.9006686">
<ele>1122.42</ele>
<time>2015-04-29T12:45:50Z</time>
</trkpt>
<trkpt lat="34.8927891" lon="32.9006906">
<ele>1122.59</ele>
<time>2015-04-29T12:45:51Z</time>
</trkpt>
<trkpt lat="34.8927328" lon="32.9007192">
<ele>1122.67</ele>
<time>2015-04-29T12:45:52Z</time>
</trkpt>
<trkpt lat="34.8926818" lon="32.9007407">
<ele>1123.22</ele>
<time>2015-04-29T12:45:53Z</time>
</trkpt>
<trkpt lat="34.8926287" lon="32.9007641">
<ele>1122.99</ele>
<time>2015-04-29T12:45:54Z</time>
</trkpt>
<trkpt lat="34.8925848" lon="32.9007810">
<ele>1121.87</ele>
<time>2015-04-29T12:45:55Z</time>
</trkpt>
<trkpt lat="34.8925387" lon="32.9008126">
<ele>1121.32</ele>
<time>2015-04-29T12:45:56Z</time>
</trkpt>
<trkpt lat="34.8924947" lon="32.9008348">
<ele>1121.04</ele>
<time>2015-04-29T12:45:57Z</time>
</trkpt>
<trkpt lat="34.8924205" lon="32.9008975">
<ele>1120.08</ele>
<time>2015-04-29T12:45:59Z</time>
</trkpt>
<trkpt lat="34.8923811" lon="32.9009315">
<ele>1119.42</ele>
<time>2015-04-29T12:46:00Z</time>
</trkpt>
<trkpt lat="34.8923370" lon="32.9009668">
<ele>1118.59</ele>
<time>2015-04-29T12:46:01Z</time>
</trkpt>
<trkpt lat="34.8922929" lon="32.9009975">
<ele>1118.17</ele>
<time>2015-04-29T12:46:02Z</time>
</trkpt>
<trkpt lat="34.8922502" lon="32.9010242">
<ele>1117.97</ele>
<time>2015-04-29T12:46:03Z</time>
</trkpt>
<trkpt lat="34.8921853" lon="32.9010924">
<ele>1117.06</ele>
<time>2015-04-29T12:46:05Z</time>
</trkpt>
<trkpt lat="34.8921239" lon="32.9011587">
<ele>1117.59</ele>
<time>2015-04-29T12:46:07Z</time>
</trkpt>
<trkpt lat="34.8920872" lon="32.9011924">
<ele>1117.17</ele>
<time>2015-04-29T12:46:08Z</time>
</trkpt>
<trkpt lat="34.8920226" lon="32.9012515">
<ele>1116.36</ele>
<time>2015-04-29T12:46:10Z</time>
</trkpt>
<trkpt lat="34.8919439" lon="32.9012845">
<ele>1115.41</ele>
<time>2015-04-29T12:46:12Z</time>
</trkpt>
<trkpt lat="34.8918670" lon="32.9013100">
<ele>1115.17</ele>
<time>2015-04-29T12:46:14Z</time>
</trkpt>
<trkpt lat="34.8917916" lon="32.9013279">
<ele>1114.11</ele>
<time>2015-04-29T12:46:16Z</time>
</trkpt>
<trkpt lat="34.8917182" lon="32.9013587">
<ele>1113.60</ele>
<time>2015-04-29T12:46:18Z</time>
</trkpt>
<trkpt lat="34.8916540" lon="32.9014106">
<ele>1112.97</ele>
<time>2015-04-29T12:46:20Z</time>
</trkpt>
<trkpt lat="34.8916078" lon="32.9014700">
<ele>1112.06</ele>
<time>2015-04-29T12:46:22Z</time>
</trkpt>
<trkpt lat="34.8915811" lon="32.9015192">
<ele>1111.84</ele>
<time>2015-04-29T12:46:24Z</time>
</trkpt>
<trkpt lat="34.8915684" lon="32.9015802">
<ele>1111.78</ele>
<time>2015-04-29T12:46:26Z</time>
</trkpt>
<trkpt lat="34.8915606" lon="32.9016399">
<ele>1111.26</ele>
<time>2015-04-29T12:46:28Z</time>
</trkpt>
<trkpt lat="34.8915677" lon="32.9016989">
<ele>1110.14</ele>
<time>2015-04-29T12:46:30Z</time>
</trkpt>
<trkpt lat="34.8915725" lon="32.9017603">
<ele>1109.60</ele>
<time>2015-04-29T12:46:32Z</time>
</trkpt>
<trkpt lat="34.8915775" lon="32.9018201">
<ele>1108.97</ele>
<time>2015-04-29T12:46:34Z</time>
</trkpt>
<trkpt lat="34.8915806" lon="32.9018795">
<ele>1110.06</ele>
<time>2015-04-29T12:46:36Z</time>
</trkpt>
<trkpt lat="34.8915612" lon="32.9019488">
<ele>1109.34</ele>
<time>2015-04-29T12:46:38Z</time>
</trkpt>
<trkpt lat="34.8915371" lon="32.9020250">
<ele>1108.90</ele>
<time>2015-04-29T12:46:40Z</time>
</trkpt>
<trkpt lat="34.8915053" lon="32.9020859">
<ele>1108.05</ele>
<time>2015-04-29T12:46:42Z</time>
</trkpt>
<trkpt lat="34.8914745" lon="32.9021326">
<ele>1107.08</ele>
<time>2015-04-29T12:46:44Z</time>
</trkpt>
<trkpt lat="34.8914408" lon="32.9021852">
<ele>1106.84</ele>
<time>2015-04-29T12:46:46Z</time>
</trkpt>
<trkpt lat="34.8914022" lon="32.9022570">
<ele>1106.78</ele>
<time>2015-04-29T12:46:48Z</time>
</trkpt>
<trkpt lat="34.8913643" lon="32.9023580">
<ele>1106.02</ele>
<time>2015-04-29T12:46:50Z</time>
</trkpt>
<trkpt lat="34.8913435" lon="32.9024263">
<ele>1105.89</ele>
<time>2015-04-29T12:46:51Z</time>
</trkpt>
<trkpt lat="34.8913254" lon="32.9024977">
<ele>1105.82</ele>
<time>2015-04-29T12:46:52Z</time>
</trkpt>
<trkpt lat="34.8913060" lon="32.9025695">
<ele>1105.79</ele>
<time>2015-04-29T12:46:53Z</time>
</trkpt>
<trkpt lat="34.8912837" lon="32.9026346">
<ele>1105.28</ele>
<time>2015-04-29T12:46:54Z</time>
</trkpt>
<trkpt lat="34.8912577" lon="32.9026957">
<ele>1105.02</ele>
<time>2015-04-29T12:46:55Z</time>
</trkpt>
<trkpt lat="34.8912360" lon="32.9027561">
<ele>1104.89</ele>
<time>2015-04-29T12:46:56Z</time>
</trkpt>
<trkpt lat="34.8912075" lon="32.9028088">
<ele>1105.32</ele>
<time>2015-04-29T12:46:57Z</time>
</trkpt>
<trkpt lat="34.8911724" lon="32.9028713">
<ele>1105.04</ele>
<time>2015-04-29T12:46:58Z</time>
</trkpt>
<trkpt lat="34.8911309" lon="32.9029276">
<ele>1104.40</ele>
<time>2015-04-29T12:46:59Z</time>
</trkpt>
<trkpt lat="34.8910757" lon="32.9029780">
<ele>1103.58</ele>
<time>2015-04-29T12:47:00Z</time>
</trkpt>
<trkpt lat="34.8910161" lon="32.9030103">
<ele>1102.67</ele>
<time>2015-04-29T12:47:01Z</time>
</trkpt>
<trkpt lat="34.8909520" lon="32.9030435">
<ele>1101.72</ele>
<time>2015-04-29T12:47:02Z</time>
</trkpt>
<trkpt lat="34.8908931" lon="32.9030656">
<ele>1100.74</ele>
<time>2015-04-29T12:47:03Z</time>
</trkpt>
<trkpt lat="34.8908224" lon="32.9030846">
<ele>1099.75</ele>
<time>2015-04-29T12:47:04Z</time>
</trkpt>
<trkpt lat="34.8907574" lon="32.9031114">
<ele>1098.75</ele>
<time>2015-04-29T12:47:05Z</time>
</trkpt>
<trkpt lat="34.8906916" lon="32.9031441">
<ele>1097.76</ele>
<time>2015-04-29T12:47:06Z</time>
</trkpt>
<trkpt lat="34.8906270" lon="32.9031805">
<ele>1096.76</ele>
<time>2015-04-29T12:47:07Z</time>
</trkpt>
<trkpt lat="34.8905548" lon="32.9032250">
<ele>1095.76</ele>
<time>2015-04-29T12:47:08Z</time>
</trkpt>
<trkpt lat="34.8904847" lon="32.9032590">
<ele>1095.26</ele>
<time>2015-04-29T12:47:09Z</time>
</trkpt>
<trkpt lat="34.8904064" lon="32.9032939">
<ele>1095.01</ele>
<time>2015-04-29T12:47:10Z</time>
</trkpt>
<trkpt lat="34.8903350" lon="32.9033223">
<ele>1094.88</ele>
<time>2015-04-29T12:47:11Z</time>
</trkpt>
<trkpt lat="34.8902571" lon="32.9033576">
<ele>1094.82</ele>
<time>2015-04-29T12:47:12Z</time>
</trkpt>
<trkpt lat="34.8901862" lon="32.9034066">
<ele>1094.79</ele>
<time>2015-04-29T12:47:13Z</time>
</trkpt>
<trkpt lat="34.8901115" lon="32.9034479">
<ele>1094.28</ele>
<time>2015-04-29T12:47:14Z</time>
</trkpt>
<trkpt lat="34.8900368" lon="32.9034711">
<ele>1093.52</ele>
<time>2015-04-29T12:47:15Z</time>
</trkpt>
<trkpt lat="34.8899570" lon="32.9034913">
<ele>1093.14</ele>
<time>2015-04-29T12:47:16Z</time>
</trkpt>
<trkpt lat="34.8898796" lon="32.9034978">
<ele>1092.95</ele>
<time>2015-04-29T12:47:17Z</time>
</trkpt>
<trkpt lat="34.8898032" lon="32.9035066">
<ele>1092.35</ele>
<time>2015-04-29T12:47:18Z</time>
</trkpt>
<trkpt lat="34.8897295" lon="32.9035167">
<ele>1091.56</ele>
<time>2015-04-29T12:47:19Z</time>
</trkpt>
<trkpt lat="34.8896511" lon="32.9035031">
<ele>1090.66</ele>
<time>2015-04-29T12:47:20Z</time>
</trkpt>
<trkpt lat="34.8895660" lon="32.9035014">
<ele>1090.21</ele>
<time>2015-04-29T12:47:21Z</time>
</trkpt>
<trkpt lat="34.8894916" lon="32.9035111">
<ele>1089.48</ele>
<time>2015-04-29T12:47:22Z</time>
</trkpt>
<trkpt lat="34.8894257" lon="32.9035168">
<ele>1088.62</ele>
<time>2015-04-29T12:47:23Z</time>
</trkpt>
<trkpt lat="34.8893535" lon="32.9035242">
<ele>1088.19</ele>
<time>2015-04-29T12:47:24Z</time>
</trkpt>
<trkpt lat="34.8892983" lon="32.9035659">
<ele>1086.98</ele>
<time>2015-04-29T12:47:25Z</time>
</trkpt>
<trkpt lat="34.8892388" lon="32.9036084">
<ele>1086.37</ele>
<time>2015-04-29T12:47:26Z</time>
</trkpt>
<trkpt lat="34.8891778" lon="32.9036581">
<ele>1085.06</ele>
<time>2015-04-29T12:47:27Z</time>
</trkpt>
<trkpt lat="34.8891205" lon="32.9037288">
<ele>1084.91</ele>
<time>2015-04-29T12:47:28Z</time>
</trkpt>
<trkpt lat="34.8890638" lon="32.9038046">
<ele>1084.84</ele>
<time>2015-04-29T12:47:29Z</time>
</trkpt>
<trkpt lat="34.8890041" lon="32.9038709">
<ele>1084.30</ele>
<time>2015-04-29T12:47:30Z</time>
</trkpt>
<trkpt lat="34.8889347" lon="32.9039293">
<ele>1083.53</ele>
<time>2015-04-29T12:47:31Z</time>
</trkpt>
<trkpt lat="34.8888687" lon="32.9039962">
<ele>1083.14</ele>
<time>2015-04-29T12:47:32Z</time>
</trkpt>
<trkpt lat="34.8887980" lon="32.9040501">
<ele>1082.45</ele>
<time>2015-04-29T12:47:33Z</time>
</trkpt>
<trkpt lat="34.8887570" lon="32.9041029">
<ele>1082.61</ele>
<time>2015-04-29T12:47:34Z</time>
</trkpt>
<trkpt lat="34.8886947" lon="32.9041822">
<ele>1082.72</ele>
<time>2015-04-29T12:47:36Z</time>
</trkpt>
<trkpt lat="34.8886748" lon="32.9041320">
<ele>1091.22</ele>
<time>2015-04-29T12:49:37Z</time>
</trkpt>
<trkpt lat="34.8887140" lon="32.9042006">
<ele>1096.38</ele>
<time>2015-04-29T12:50:18Z</time>
</trkpt>
<trkpt lat="34.8887590" lon="32.9042763">
<ele>1095.41</ele>
<time>2015-04-29T12:50:20Z</time>
</trkpt>
<trkpt lat="34.8887909" lon="32.9043254">
<ele>1096.09</ele>
<time>2015-04-29T12:50:21Z</time>
</trkpt>
<trkpt lat="34.8888556" lon="32.9044105">
<ele>1095.92</ele>
<time>2015-04-29T12:50:22Z</time>
</trkpt>
<trkpt lat="34.8888885" lon="32.9044633">
<ele>1095.34</ele>
<time>2015-04-29T12:50:23Z</time>
</trkpt>
<trkpt lat="34.8889284" lon="32.9045204">
<ele>1094.55</ele>
<time>2015-04-29T12:50:24Z</time>
</trkpt>
<trkpt lat="34.8889580" lon="32.9045880">
<ele>1094.16</ele>
<time>2015-04-29T12:50:25Z</time>
</trkpt>
<trkpt lat="34.8889831" lon="32.9046502">
<ele>1092.96</ele>
<time>2015-04-29T12:50:26Z</time>
</trkpt>
<trkpt lat="34.8890090" lon="32.9047144">
<ele>1092.36</ele>
<time>2015-04-29T12:50:27Z</time>
</trkpt>
<trkpt lat="34.8890352" lon="32.9047724">
<ele>1091.56</ele>
<time>2015-04-29T12:50:28Z</time>
</trkpt>
<trkpt lat="34.8890622" lon="32.9048506">
<ele>1091.66</ele>
<time>2015-04-29T12:50:29Z</time>
</trkpt>
<trkpt lat="34.8891056" lon="32.9049510">
<ele>1090.98</ele>
<time>2015-04-29T12:50:31Z</time>
</trkpt>
<trkpt lat="34.8891393" lon="32.9050044">
<ele>1090.87</ele>
<time>2015-04-29T12:50:32Z</time>
</trkpt>
<trkpt lat="34.8891888" lon="32.9050478">
<ele>1090.32</ele>
<time>2015-04-29T12:50:33Z</time>
</trkpt>
<trkpt lat="34.8892390" lon="32.9050717">
<ele>1090.04</ele>
<time>2015-04-29T12:50:34Z</time>
</trkpt>
<trkpt lat="34.8892954" lon="32.9050779">
<ele>1089.40</ele>
<time>2015-04-29T12:50:35Z</time>
</trkpt>
<trkpt lat="34.8893469" lon="32.9050479">
<ele>1088.58</ele>
<time>2015-04-29T12:50:36Z</time>
</trkpt>
<trkpt lat="34.8893930" lon="32.9050109">
<ele>1088.17</ele>
<time>2015-04-29T12:50:37Z</time>
</trkpt>
<trkpt lat="34.8894426" lon="32.9049294">
<ele>1087.46</ele>
<time>2015-04-29T12:50:38Z</time>
</trkpt>
<trkpt lat="34.8895002" lon="32.9048547">
<ele>1087.11</ele>
<time>2015-04-29T12:50:39Z</time>
</trkpt>
<trkpt lat="34.8895572" lon="32.9047738">
<ele>1086.44</ele>
<time>2015-04-29T12:50:40Z</time>
</trkpt>
<trkpt lat="34.8896145" lon="32.9047200">
<ele>1086.10</ele>
<time>2015-04-29T12:50:41Z</time>
</trkpt>
<trkpt lat="34.8896771" lon="32.9046747">
<ele>1085.93</ele>
<time>2015-04-29T12:50:42Z</time>
</trkpt>
<trkpt lat="34.8897490" lon="32.9047181">
<ele>1085.34</ele>
<time>2015-04-29T12:50:43Z</time>
</trkpt>
<trkpt lat="34.8898186" lon="32.9047274">
<ele>1085.05</ele>
<time>2015-04-29T12:50:44Z</time>
</trkpt>
<trkpt lat="34.8898973" lon="32.9047694">
<ele>1085.91</ele>
<time>2015-04-29T12:50:45Z</time>
</trkpt>
<trkpt lat="34.8899723" lon="32.9047911">
<ele>1085.83</ele>
<time>2015-04-29T12:50:46Z</time>
</trkpt>
<trkpt lat="34.8900454" lon="32.9048131">
<ele>1085.30</ele>
<time>2015-04-29T12:50:47Z</time>
</trkpt>
<trkpt lat="34.8901472" lon="32.9048244">
<ele>1084.53</ele>
<time>2015-04-29T12:50:48Z</time>
</trkpt>
<trkpt lat="34.8902413" lon="32.9048241">
<ele>1084.14</ele>
<time>2015-04-29T12:50:49Z</time>
</trkpt>
<trkpt lat="34.8903372" lon="32.9048208">
<ele>1083.95</ele>
<time>2015-04-29T12:50:50Z</time>
</trkpt>
<trkpt lat="34.8904280" lon="32.9048409">
<ele>1083.86</ele>
<time>2015-04-29T12:50:51Z</time>
</trkpt>
<trkpt lat="34.8904998" lon="32.9048816">
<ele>1082.81</ele>
<time>2015-04-29T12:50:52Z</time>
</trkpt>
<trkpt lat="34.8905532" lon="32.9049270">
<ele>1082.28</ele>
<time>2015-04-29T12:50:53Z</time>
</trkpt>
<trkpt lat="34.8905814" lon="32.9049877">
<ele>1081.52</ele>
<time>2015-04-29T12:50:54Z</time>
</trkpt>
<trkpt lat="34.8906122" lon="32.9050433">
<ele>1080.64</ele>
<time>2015-04-29T12:50:55Z</time>
</trkpt>
<trkpt lat="34.8906475" lon="32.9051178">
<ele>1080.70</ele>
<time>2015-04-29T12:50:56Z</time>
</trkpt>
<trkpt lat="34.8906824" lon="32.9051912">
<ele>1080.73</ele>
<time>2015-04-29T12:50:57Z</time>
</trkpt>
<trkpt lat="34.8907098" lon="32.9052755">
<ele>1081.75</ele>
<time>2015-04-29T12:50:58Z</time>
</trkpt>
<trkpt lat="34.8907381" lon="32.9053584">
<ele>1081.75</ele>
<time>2015-04-29T12:50:59Z</time>
</trkpt>
<trkpt lat="34.8907484" lon="32.9054572">
<ele>1080.26</ele>
<time>2015-04-29T12:51:00Z</time>
</trkpt>
<trkpt lat="34.8907572" lon="32.9055665">
<ele>1080.01</ele>
<time>2015-04-29T12:51:01Z</time>
</trkpt>
<trkpt lat="34.8907494" lon="32.9056725">
<ele>1079.38</ele>
<time>2015-04-29T12:51:02Z</time>
</trkpt>
<trkpt lat="34.8907528" lon="32.9057725">
<ele>1078.57</ele>
<time>2015-04-29T12:51:03Z</time>
</trkpt>
<trkpt lat="34.8907706" lon="32.9058839">
<ele>1077.67</ele>
<time>2015-04-29T12:51:04Z</time>
</trkpt>
<trkpt lat="34.8908029" lon="32.9059826">
<ele>1076.71</ele>
<time>2015-04-29T12:51:05Z</time>
</trkpt>
<trkpt lat="34.8908630" lon="32.9060770">
<ele>1076.24</ele>
<time>2015-04-29T12:51:06Z</time>
</trkpt>
<trkpt lat="34.8909182" lon="32.9061544">
<ele>1076.00</ele>
<time>2015-04-29T12:51:07Z</time>
</trkpt>
<trkpt lat="34.8909900" lon="32.9062241">
<ele>1075.38</ele>
<time>2015-04-29T12:51:08Z</time>
</trkpt>
<trkpt lat="34.8910823" lon="32.9062384">
<ele>1075.07</ele>
<time>2015-04-29T12:51:09Z</time>
</trkpt>
<trkpt lat="34.8911704" lon="32.9062283">
<ele>1074.41</ele>
<time>2015-04-29T12:51:10Z</time>
</trkpt>
<trkpt lat="34.8912716" lon="32.9062079">
<ele>1073.59</ele>
<time>2015-04-29T12:51:11Z</time>
</trkpt>
<trkpt lat="34.8913690" lon="32.9061412">
<ele>1073.17</ele>
<time>2015-04-29T12:51:12Z</time>
</trkpt>
<trkpt lat="34.8914643" lon="32.9060694">
<ele>1072.47</ele>
<time>2015-04-29T12:51:13Z</time>
</trkpt>
<trkpt lat="34.8915635" lon="32.9060052">
<ele>1070.61</ele>
<time>2015-04-29T12:51:14Z</time>
</trkpt>
<trkpt lat="34.8916567" lon="32.9059412">
<ele>1069.69</ele>
<time>2015-04-29T12:51:15Z</time>
</trkpt>
<trkpt lat="34.8917473" lon="32.9058761">
<ele>1068.72</ele>
<time>2015-04-29T12:51:16Z</time>
</trkpt>
<trkpt lat="34.8918294" lon="32.9058068">
<ele>1067.74</ele>
<time>2015-04-29T12:51:17Z</time>
</trkpt>
<trkpt lat="34.8918961" lon="32.9057220">
<ele>1066.25</ele>
<time>2015-04-29T12:51:18Z</time>
</trkpt>
<trkpt lat="34.8919394" lon="32.9056304">
<ele>1064.51</ele>
<time>2015-04-29T12:51:19Z</time>
</trkpt>
<trkpt lat="34.8919675" lon="32.9055216">
<ele>1063.63</ele>
<time>2015-04-29T12:51:20Z</time>
</trkpt>
<trkpt lat="34.8919851" lon="32.9054056">
<ele>1063.70</ele>
<time>2015-04-29T12:51:21Z</time>
</trkpt>
<trkpt lat="34.8919831" lon="32.9052929">
<ele>1062.73</ele>
<time>2015-04-29T12:51:22Z</time>
</trkpt>
<trkpt lat="34.8919816" lon="32.9051746">
<ele>1061.74</ele>
<time>2015-04-29T12:51:23Z</time>
</trkpt>
<trkpt lat="34.8919875" lon="32.9050657">
<ele>1060.25</ele>
<time>2015-04-29T12:51:24Z</time>
</trkpt>
<trkpt lat="34.8920110" lon="32.9049740">
<ele>1059.01</ele>
<time>2015-04-29T12:51:25Z</time>
</trkpt>
<trkpt lat="34.8920486" lon="32.9048834">
<ele>1058.38</ele>
<time>2015-04-29T12:51:26Z</time>
</trkpt>
<trkpt lat="34.8921062" lon="32.9048360">
<ele>1057.57</ele>
<time>2015-04-29T12:51:27Z</time>
</trkpt>
<trkpt lat="34.8921710" lon="32.9047988">
<ele>1057.17</ele>
<time>2015-04-29T12:51:28Z</time>
</trkpt>
<trkpt lat="34.8922398" lon="32.9047706">
<ele>1056.46</ele>
<time>2015-04-29T12:51:29Z</time>
</trkpt>
<trkpt lat="34.8923200" lon="32.9047862">
<ele>1055.61</ele>
<time>2015-04-29T12:51:30Z</time>
</trkpt>
<trkpt lat="34.8923904" lon="32.9047906">
<ele>1054.19</ele>
<time>2015-04-29T12:51:31Z</time>
</trkpt>
<trkpt lat="34.8924725" lon="32.9048054">
<ele>1053.47</ele>
<time>2015-04-29T12:51:32Z</time>
</trkpt>
<trkpt lat="34.8925538" lon="32.9048134">
<ele>1052.62</ele>
<time>2015-04-29T12:51:33Z</time>
</trkpt>
<trkpt lat="34.8926615" lon="32.9048262">
<ele>1051.19</ele>
<time>2015-04-29T12:51:34Z</time>
</trkpt>
<trkpt lat="34.8927501" lon="32.9048404">
<ele>1049.97</ele>
<time>2015-04-29T12:51:35Z</time>
</trkpt>
<trkpt lat="34.8928527" lon="32.9048518">
<ele>1048.87</ele>
<time>2015-04-29T12:51:36Z</time>
</trkpt>
<trkpt lat="34.8929651" lon="32.9048591">
<ele>1048.81</ele>
<time>2015-04-29T12:51:37Z</time>
</trkpt>
<trkpt lat="34.8930789" lon="32.9048856">
<ele>1047.29</ele>
<time>2015-04-29T12:51:38Z</time>
</trkpt>
<trkpt lat="34.8931760" lon="32.9049033">
<ele>1046.52</ele>
<time>2015-04-29T12:51:39Z</time>
</trkpt>
<trkpt lat="34.8932689" lon="32.9049222">
<ele>1046.64</ele>
<time>2015-04-29T12:51:40Z</time>
</trkpt>
<trkpt lat="34.8933687" lon="32.9049235">
<ele>1045.70</ele>
<time>2015-04-29T12:51:41Z</time>
</trkpt>
<trkpt lat="34.8934690" lon="32.9049353">
<ele>1044.73</ele>
<time>2015-04-29T12:51:42Z</time>
</trkpt>
<trkpt lat="34.8935775" lon="32.9049348">
<ele>1044.75</ele>
<time>2015-04-29T12:51:43Z</time>
</trkpt>
<trkpt lat="34.8936854" lon="32.9049376">
<ele>1044.25</ele>
<time>2015-04-29T12:51:44Z</time>
</trkpt>
<trkpt lat="34.8938036" lon="32.9049417">
<ele>1042.51</ele>
<time>2015-04-29T12:51:45Z</time>
</trkpt>
<trkpt lat="34.8939064" lon="32.9049410">
<ele>1042.13</ele>
<time>2015-04-29T12:51:46Z</time>
</trkpt>
<trkpt lat="34.8940095" lon="32.9049433">
<ele>1041.95</ele>
<time>2015-04-29T12:51:47Z</time>
</trkpt>
<trkpt lat="34.8941173" lon="32.9049524">
<ele>1042.35</ele>
<time>2015-04-29T12:51:48Z</time>
</trkpt>
<trkpt lat="34.8942401" lon="32.9050047">
<ele>1043.56</ele>
<time>2015-04-29T12:51:49Z</time>
</trkpt>
<trkpt lat="34.8943450" lon="32.9050496">
<ele>1043.16</ele>
<time>2015-04-29T12:51:50Z</time>
</trkpt>
<trkpt lat="34.8944415" lon="32.9050951">
<ele>1042.96</ele>
<time>2015-04-29T12:51:51Z</time>
</trkpt>
<trkpt lat="34.8945358" lon="32.9051429">
<ele>1041.86</ele>
<time>2015-04-29T12:51:52Z</time>
</trkpt>
<trkpt lat="34.8946212" lon="32.9051909">
<ele>1041.31</ele>
<time>2015-04-29T12:51:53Z</time>
</trkpt>
<trkpt lat="34.8947043" lon="32.9052093">
<ele>1041.03</ele>
<time>2015-04-29T12:51:54Z</time>
</trkpt>
<trkpt lat="34.8947722" lon="32.9052385">
<ele>1039.90</ele>
<time>2015-04-29T12:51:55Z</time>
</trkpt>
<trkpt lat="34.8948364" lon="32.9052629">
<ele>1038.83</ele>
<time>2015-04-29T12:51:56Z</time>
</trkpt>
<trkpt lat="34.8948815" lon="32.9052845">
<ele>1037.79</ele>
<time>2015-04-29T12:51:57Z</time>
</trkpt>
<trkpt lat="34.8949355" lon="32.9052972">
<ele>1035.77</ele>
<time>2015-04-29T12:51:59Z</time>
</trkpt>
<trkpt lat="34.8949808" lon="32.9053322">
<ele>1025.19</ele>
<time>2015-04-29T12:52:15Z</time>
</trkpt>
<trkpt lat="34.8950012" lon="32.9053830">
<ele>1019.07</ele>
<time>2015-04-29T12:52:25Z</time>
</trkpt>
<trkpt lat="34.8949498" lon="32.9053577">
<ele>1021.70</ele>
<time>2015-04-29T12:53:00Z</time>
</trkpt>
<trkpt lat="34.8949591" lon="32.9053036">
<ele>1022.69</ele>
<time>2015-04-29T12:53:04Z</time>
</trkpt>
<trkpt lat="34.8950061" lon="32.9052934">
<ele>1022.25</ele>
<time>2015-04-29T12:53:07Z</time>
</trkpt>
<trkpt lat="34.8950498" lon="32.9053455">
<ele>1023.20</ele>
<time>2015-04-29T12:53:10Z</time>
</trkpt>
<trkpt lat="34.8950552" lon="32.9054101">
<ele>1022.10</ele>
<time>2015-04-29T12:53:14Z</time>
</trkpt>
<trkpt lat="34.8950372" lon="32.9054988">
<ele>1023.93</ele>
<time>2015-04-29T12:53:17Z</time>
</trkpt>
<trkpt lat="34.8950175" lon="32.9055737">
<ele>1025.55</ele>
<time>2015-04-29T12:53:19Z</time>
</trkpt>
<trkpt lat="34.8949917" lon="32.9056514">
<ele>1025.21</ele>
<time>2015-04-29T12:53:21Z</time>
</trkpt>
<trkpt lat="34.8949651" lon="32.9057161">
<ele>1025.37</ele>
<time>2015-04-29T12:53:23Z</time>
</trkpt>
<trkpt lat="34.8949337" lon="32.9057578">
<ele>1024.16</ele>
<time>2015-04-29T12:53:25Z</time>
</trkpt>
<trkpt lat="34.8948696" lon="32.9057863">
<ele>1023.44</ele>
<time>2015-04-29T12:53:28Z</time>
</trkpt>
<trkpt lat="34.8948168" lon="32.9058123">
<ele>1025.18</ele>
<time>2015-04-29T12:53:30Z</time>
</trkpt>
<trkpt lat="34.8947473" lon="32.9058552">
<ele>1026.36</ele>
<time>2015-04-29T12:53:32Z</time>
</trkpt>
<trkpt lat="34.8946787" lon="32.9058965">
<ele>1027.16</ele>
<time>2015-04-29T12:53:34Z</time>
</trkpt>
<trkpt lat="34.8946120" lon="32.9059390">
<ele>1024.36</ele>
<time>2015-04-29T12:53:36Z</time>
</trkpt>
<trkpt lat="34.8945617" lon="32.9059740">
<ele>1021.91</ele>
<time>2015-04-29T12:53:38Z</time>
</trkpt>
<trkpt lat="34.8945073" lon="32.9060124">
<ele>1021.55</ele>
<time>2015-04-29T12:53:40Z</time>
</trkpt>
<trkpt lat="34.8944424" lon="32.9060602">
<ele>1024.21</ele>
<time>2015-04-29T12:53:42Z</time>
</trkpt>
<trkpt lat="34.8943818" lon="32.9061103">
<ele>1024.62</ele>
<time>2015-04-29T12:53:44Z</time>
</trkpt>
<trkpt lat="34.8943298" lon="32.9061762">
<ele>1025.48</ele>
<time>2015-04-29T12:53:46Z</time>
</trkpt>
<trkpt lat="34.8942774" lon="32.9062435">
<ele>1025.19</ele>
<time>2015-04-29T12:53:48Z</time>
</trkpt>
<trkpt lat="34.8942308" lon="32.9063108">
<ele>1024.62</ele>
<time>2015-04-29T12:53:50Z</time>
</trkpt>
<trkpt lat="34.8941834" lon="32.9063800">
<ele>1024.72</ele>
<time>2015-04-29T12:53:52Z</time>
</trkpt>
<trkpt lat="34.8941315" lon="32.9064505">
<ele>1026.00</ele>
<time>2015-04-29T12:53:54Z</time>
</trkpt>
<trkpt lat="34.8940885" lon="32.9065334">
<ele>1027.07</ele>
<time>2015-04-29T12:53:56Z</time>
</trkpt>
<trkpt lat="34.8940745" lon="32.9066310">
<ele>1027.84</ele>
<time>2015-04-29T12:53:58Z</time>
</trkpt>
<trkpt lat="34.8941012" lon="32.9067187">
<ele>1027.78</ele>
<time>2015-04-29T12:54:00Z</time>
</trkpt>
<trkpt lat="34.8941477" lon="32.9067725">
<ele>1028.26</ele>
<time>2015-04-29T12:54:02Z</time>
</trkpt>
<trkpt lat="34.8942163" lon="32.9068034">
<ele>1029.14</ele>
<time>2015-04-29T12:54:04Z</time>
</trkpt>
<trkpt lat="34.8942980" lon="32.9068245">
<ele>1028.85</ele>
<time>2015-04-29T12:54:06Z</time>
</trkpt>
<trkpt lat="34.8943783" lon="32.9068436">
<ele>1029.53</ele>
<time>2015-04-29T12:54:08Z</time>
</trkpt>
<trkpt lat="34.8944492" lon="32.9068698">
<ele>1029.70</ele>
<time>2015-04-29T12:54:10Z</time>
</trkpt>
<trkpt lat="34.8945173" lon="32.9069060">
<ele>1031.00</ele>
<time>2015-04-29T12:54:12Z</time>
</trkpt>
<trkpt lat="34.8945803" lon="32.9069568">
<ele>1031.32</ele>
<time>2015-04-29T12:54:14Z</time>
</trkpt>
<trkpt lat="34.8946324" lon="32.9070300">
<ele>1031.40</ele>
<time>2015-04-29T12:54:16Z</time>
</trkpt>
<trkpt lat="34.8946737" lon="32.9071163">
<ele>1030.92</ele>
<time>2015-04-29T12:54:18Z</time>
</trkpt>
<trkpt lat="34.8947051" lon="32.9072066">
<ele>1030.80</ele>
<time>2015-04-29T12:54:20Z</time>
</trkpt>
<trkpt lat="34.8947370" lon="32.9072943">
<ele>1030.77</ele>
<time>2015-04-29T12:54:22Z</time>
</trkpt>
<trkpt lat="34.8947671" lon="32.9073864">
<ele>1029.51</ele>
<time>2015-04-29T12:54:24Z</time>
</trkpt>
<trkpt lat="34.8947970" lon="32.9074787">
<ele>1028.95</ele>
<time>2015-04-29T12:54:26Z</time>
</trkpt>
<trkpt lat="34.8948240" lon="32.9075689">
<ele>1029.56</ele>
<time>2015-04-29T12:54:28Z</time>
</trkpt>
<trkpt lat="34.8948430" lon="32.9076496">
<ele>1030.21</ele>
<time>2015-04-29T12:54:30Z</time>
</trkpt>
<trkpt lat="34.8948555" lon="32.9077282">
<ele>1028.62</ele>
<time>2015-04-29T12:54:32Z</time>
</trkpt>
<trkpt lat="34.8948486" lon="32.9078088">
<ele>1028.48</ele>
<time>2015-04-29T12:54:34Z</time>
</trkpt>
<trkpt lat="34.8948304" lon="32.9078809">
<ele>1029.44</ele>
<time>2015-04-29T12:54:36Z</time>
</trkpt>
<trkpt lat="34.8948025" lon="32.9079468">
<ele>1029.68</ele>
<time>2015-04-29T12:54:38Z</time>
</trkpt>
<trkpt lat="34.8947729" lon="32.9080140">
<ele>1029.49</ele>
<time>2015-04-29T12:54:40Z</time>
</trkpt>
<trkpt lat="34.8947426" lon="32.9080900">
<ele>1030.19</ele>
<time>2015-04-29T12:54:42Z</time>
</trkpt>
<trkpt lat="34.8947162" lon="32.9081739">
<ele>1030.62</ele>
<time>2015-04-29T12:54:44Z</time>
</trkpt>
<trkpt lat="34.8947059" lon="32.9082616">
<ele>1031.97</ele>
<time>2015-04-29T12:54:46Z</time>
</trkpt>
<trkpt lat="34.8947205" lon="32.9083488">
<ele>1032.56</ele>
<time>2015-04-29T12:54:48Z</time>
</trkpt>
<trkpt lat="34.8947621" lon="32.9084260">
<ele>1032.71</ele>
<time>2015-04-29T12:54:50Z</time>
</trkpt>
<trkpt lat="34.8948196" lon="32.9084899">
<ele>1032.75</ele>
<time>2015-04-29T12:54:52Z</time>
</trkpt>
<trkpt lat="34.8948842" lon="32.9085475">
<ele>1032.76</ele>
<time>2015-04-29T12:54:54Z</time>
</trkpt>
<trkpt lat="34.8949224" lon="32.9085802">
<ele>1032.26</ele>
<time>2015-04-29T12:54:55Z</time>
</trkpt>
<trkpt lat="34.8949812" lon="32.9085996">
<ele>1033.01</ele>
<time>2015-04-29T12:54:56Z</time>
</trkpt>
<trkpt lat="34.8950507" lon="32.9086588">
<ele>1034.07</ele>
<time>2015-04-29T12:54:58Z</time>
</trkpt>
<trkpt lat="34.8950914" lon="32.9086836">
<ele>1034.42</ele>
<time>2015-04-29T12:54:59Z</time>
</trkpt>
<trkpt lat="34.8951289" lon="32.9087200">
<ele>1034.59</ele>
<time>2015-04-29T12:55:00Z</time>
</trkpt>
<trkpt lat="34.8951790" lon="32.9087602">
<ele>1035.17</ele>
<time>2015-04-29T12:55:01Z</time>
</trkpt>
<trkpt lat="34.8952111" lon="32.9088037">
<ele>1034.47</ele>
<time>2015-04-29T12:55:02Z</time>
</trkpt>
<trkpt lat="34.8952525" lon="32.9088399">
<ele>1035.11</ele>
<time>2015-04-29T12:55:03Z</time>
</trkpt>
<trkpt lat="34.8952937" lon="32.9088842">
<ele>1035.44</ele>
<time>2015-04-29T12:55:04Z</time>
</trkpt>
<trkpt lat="34.8953462" lon="32.9089201">
<ele>1036.60</ele>
<time>2015-04-29T12:55:05Z</time>
</trkpt>
<trkpt lat="34.8953894" lon="32.9089684">
<ele>1037.18</ele>
<time>2015-04-29T12:55:06Z</time>
</trkpt>
<trkpt lat="34.8954358" lon="32.9090115">
<ele>1037.47</ele>
<time>2015-04-29T12:55:07Z</time>
</trkpt>
<trkpt lat="34.8954892" lon="32.9090166">
<ele>1038.11</ele>
<time>2015-04-29T12:55:08Z</time>
</trkpt>
<trkpt lat="34.8955313" lon="32.9090562">
<ele>1038.94</ele>
<time>2015-04-29T12:55:09Z</time>
</trkpt>
<trkpt lat="34.8955642" lon="32.9091118">
<ele>1038.85</ele>
<time>2015-04-29T12:55:10Z</time>
</trkpt>
<trkpt lat="34.8955944" lon="32.9091763">
<ele>1038.80</ele>
<time>2015-04-29T12:55:11Z</time>
</trkpt>
<trkpt lat="34.8955992" lon="32.9092362">
<ele>1039.28</ele>
<time>2015-04-29T12:55:12Z</time>
</trkpt>
<trkpt lat="34.8955834" lon="32.9093127">
<ele>1039.02</ele>
<time>2015-04-29T12:55:13Z</time>
</trkpt>
<trkpt lat="34.8956028" lon="32.9093787">
<ele>1038.89</ele>
<time>2015-04-29T12:55:14Z</time>
</trkpt>
<trkpt lat="34.8956014" lon="32.9094400">
<ele>1038.83</ele>
<time>2015-04-29T12:55:15Z</time>
</trkpt>
<trkpt lat="34.8955854" lon="32.9095140">
<ele>1038.79</ele>
<time>2015-04-29T12:55:16Z</time>
</trkpt>
<trkpt lat="34.8955735" lon="32.9096066">
<ele>1042.02</ele>
<time>2015-04-29T12:55:18Z</time>
</trkpt>
<trkpt lat="34.8955732" lon="32.9096634">
<ele>1046.57</ele>
<time>2015-04-29T12:55:20Z</time>
</trkpt>
<trkpt lat="34.8955548" lon="32.9097141">
<ele>1050.21</ele>
<time>2015-04-29T12:55:22Z</time>
</trkpt>
<trkpt lat="34.8955269" lon="32.9097622">
<ele>1054.59</ele>
<time>2015-04-29T12:55:30Z</time>
</trkpt>
<trkpt lat="34.8955470" lon="32.9098132">
<ele>1049.05</ele>
<time>2015-04-29T12:55:47Z</time>
</trkpt>
<trkpt lat="34.8955756" lon="32.9098678">
<ele>1052.30</ele>
<time>2015-04-29T12:55:50Z</time>
</trkpt>
<trkpt lat="34.8956145" lon="32.9099425">
<ele>1054.39</ele>
<time>2015-04-29T12:55:52Z</time>
</trkpt>
<trkpt lat="34.8956436" lon="32.9100434">
<ele>1055.42</ele>
<time>2015-04-29T12:55:54Z</time>
</trkpt>
<trkpt lat="34.8956592" lon="32.9101506">
<ele>1055.17</ele>
<time>2015-04-29T12:55:56Z</time>
</trkpt>
<trkpt lat="34.8955828" lon="32.9102734">
<ele>1056.61</ele>
<time>2015-04-29T12:55:58Z</time>
</trkpt>
<trkpt lat="34.8955460" lon="32.9103156">
<ele>1056.69</ele>
<time>2015-04-29T12:55:59Z</time>
</trkpt>
<trkpt lat="34.8954739" lon="32.9103421">
<ele>1057.24</ele>
<time>2015-04-29T12:56:01Z</time>
</trkpt>
<trkpt lat="34.8953914" lon="32.9103738">
<ele>1058.13</ele>
<time>2015-04-29T12:56:03Z</time>
</trkpt>
<trkpt lat="34.8953216" lon="32.9104086">
<ele>1057.35</ele>
<time>2015-04-29T12:56:05Z</time>
</trkpt>
<trkpt lat="34.8952599" lon="32.9104190">
<ele>1056.91</ele>
<time>2015-04-29T12:56:07Z</time>
</trkpt>
<trkpt lat="34.8952033" lon="32.9104456">
<ele>1053.80</ele>
<time>2015-04-29T12:56:09Z</time>
</trkpt>
<trkpt lat="34.8951607" lon="32.9104651">
<ele>1050.27</ele>
<time>2015-04-29T12:56:11Z</time>
</trkpt>
<trkpt lat="34.8951147" lon="32.9105085">
<ele>1045.70</ele>
<time>2015-04-29T12:56:14Z</time>
</trkpt>
<trkpt lat="34.8950645" lon="32.9105574">
<ele>1045.25</ele>
<time>2015-04-29T12:56:17Z</time>
</trkpt>
<trkpt lat="34.8950284" lon="32.9105942">
<ele>1045.88</ele>
<time>2015-04-29T12:56:19Z</time>
</trkpt>
<trkpt lat="34.8949998" lon="32.9106437">
<ele>1046.04</ele>
<time>2015-04-29T12:56:21Z</time>
</trkpt>
<trkpt lat="34.8949688" lon="32.9107100">
<ele>1046.05</ele>
<time>2015-04-29T12:56:24Z</time>
</trkpt>
<trkpt lat="34.8949624" lon="32.9107648">
<ele>1045.58</ele>
<time>2015-04-29T12:56:26Z</time>
</trkpt>
<trkpt lat="34.8949492" lon="32.9108202">
<ele>1045.47</ele>
<time>2015-04-29T12:56:28Z</time>
</trkpt>
<trkpt lat="34.8949293" lon="32.9108728">
<ele>1042.44</ele>
<time>2015-04-29T12:56:30Z</time>
</trkpt>
<trkpt lat="34.8949070" lon="32.9109325">
<ele>1039.18</ele>
<time>2015-04-29T12:56:32Z</time>
</trkpt>
<trkpt lat="34.8948861" lon="32.9109926">
<ele>1037.36</ele>
<time>2015-04-29T12:56:34Z</time>
</trkpt>
<trkpt lat="34.8948554" lon="32.9110548">
<ele>1035.16</ele>
<time>2015-04-29T12:56:36Z</time>
</trkpt>
<trkpt lat="34.8948146" lon="32.9111277">
<ele>1035.86</ele>
<time>2015-04-29T12:56:38Z</time>
</trkpt>
<trkpt lat="34.8947763" lon="32.9112017">
<ele>1036.54</ele>
<time>2015-04-29T12:56:40Z</time>
</trkpt>
<trkpt lat="34.8947374" lon="32.9112762">
<ele>1037.70</ele>
<time>2015-04-29T12:56:42Z</time>
</trkpt>
<trkpt lat="34.8946918" lon="32.9113296">
<ele>1038.25</ele>
<time>2015-04-29T12:56:44Z</time>
</trkpt>
<trkpt lat="34.8946367" lon="32.9113715">
<ele>1039.13</ele>
<time>2015-04-29T12:56:46Z</time>
</trkpt>
<trkpt lat="34.8945835" lon="32.9114049">
<ele>1039.60</ele>
<time>2015-04-29T12:56:48Z</time>
</trkpt>
<trkpt lat="34.8945287" lon="32.9114188">
<ele>1041.97</ele>
<time>2015-04-29T12:56:50Z</time>
</trkpt>
<trkpt lat="34.8944690" lon="32.9114319">
<ele>1045.16</ele>
<time>2015-04-29T12:56:53Z</time>
</trkpt>
<trkpt lat="34.8944158" lon="32.9114442">
<ele>1045.81</ele>
<time>2015-04-29T12:56:56Z</time>
</trkpt>
<trkpt lat="34.8943686" lon="32.9114341">
<ele>1049.14</ele>
<time>2015-04-29T12:56:59Z</time>
</trkpt>
<trkpt lat="34.8943173" lon="32.9114400">
<ele>1049.18</ele>
<time>2015-04-29T12:57:02Z</time>
</trkpt>
<trkpt lat="34.8942636" lon="32.9114414">
<ele>1047.44</ele>
<time>2015-04-29T12:57:05Z</time>
</trkpt>
<trkpt lat="34.8942079" lon="32.9114348">
<ele>1043.72</ele>
<time>2015-04-29T12:57:08Z</time>
</trkpt>
<trkpt lat="34.8941541" lon="32.9114246">
<ele>1040.88</ele>
<time>2015-04-29T12:57:11Z</time>
</trkpt>
<trkpt lat="34.8940984" lon="32.9114067">
<ele>1038.28</ele>
<time>2015-04-29T12:57:14Z</time>
</trkpt>
<trkpt lat="34.8940415" lon="32.9113914">
<ele>1035.57</ele>
<time>2015-04-29T12:57:17Z</time>
</trkpt>
<trkpt lat="34.8939822" lon="32.9113794">
<ele>1034.24</ele>
<time>2015-04-29T12:57:20Z</time>
</trkpt>
<trkpt lat="34.8939235" lon="32.9113721">
<ele>1034.32</ele>
<time>2015-04-29T12:57:23Z</time>
</trkpt>
<trkpt lat="34.8938617" lon="32.9113645">
<ele>1035.45</ele>
<time>2015-04-29T12:57:26Z</time>
</trkpt>
<trkpt lat="34.8937952" lon="32.9113699">
<ele>1036.60</ele>
<time>2015-04-29T12:57:29Z</time>
</trkpt>
<trkpt lat="34.8937494" lon="32.9113760">
<ele>1036.22</ele>
<time>2015-04-29T12:57:31Z</time>
</trkpt>
<trkpt lat="34.8937042" lon="32.9113833">
<ele>1036.62</ele>
<time>2015-04-29T12:57:33Z</time>
</trkpt>
<trkpt lat="34.8936369" lon="32.9113859">
<ele>1037.24</ele>
<time>2015-04-29T12:57:36Z</time>
</trkpt>
<trkpt lat="34.8935707" lon="32.9113831">
<ele>1038.45</ele>
<time>2015-04-29T12:57:39Z</time>
</trkpt>
<trkpt lat="34.8935040" lon="32.9113831">
<ele>1038.72</ele>
<time>2015-04-29T12:57:42Z</time>
</trkpt>
<trkpt lat="34.8934430" lon="32.9113878">
<ele>1039.63</ele>
<time>2015-04-29T12:57:45Z</time>
</trkpt>
<trkpt lat="34.8933950" lon="32.9113974">
<ele>1039.74</ele>
<time>2015-04-29T12:57:48Z</time>
</trkpt>
<trkpt lat="34.8933336" lon="32.9114072">
<ele>1040.26</ele>
<time>2015-04-29T12:57:51Z</time>
</trkpt>
<trkpt lat="34.8932733" lon="32.9114495">
<ele>1040.70</ele>
<time>2015-04-29T12:57:54Z</time>
</trkpt>
<trkpt lat="34.8932472" lon="32.9115163">
<ele>1041.99</ele>
<time>2015-04-29T12:57:56Z</time>
</trkpt>
<trkpt lat="34.8932483" lon="32.9115870">
<ele>1043.07</ele>
<time>2015-04-29T12:57:58Z</time>
</trkpt>
<trkpt lat="34.8932730" lon="32.9116583">
<ele>1043.59</ele>
<time>2015-04-29T12:58:00Z</time>
</trkpt>
<trkpt lat="34.8933270" lon="32.9117222">
<ele>1043.72</ele>
<time>2015-04-29T12:58:02Z</time>
</trkpt>
<trkpt lat="34.8933899" lon="32.9117656">
<ele>1044.50</ele>
<time>2015-04-29T12:58:04Z</time>
</trkpt>
<trkpt lat="34.8934477" lon="32.9117976">
<ele>1045.44</ele>
<time>2015-04-29T12:58:06Z</time>
</trkpt>
<trkpt lat="34.8935037" lon="32.9118313">
<ele>1046.18</ele>
<time>2015-04-29T12:58:08Z</time>
</trkpt>
<trkpt lat="34.8935545" lon="32.9118761">
<ele>1046.62</ele>
<time>2015-04-29T12:58:10Z</time>
</trkpt>
<trkpt lat="34.8935964" lon="32.9119350">
<ele>1047.47</ele>
<time>2015-04-29T12:58:12Z</time>
</trkpt>
<trkpt lat="34.8936276" lon="32.9120052">
<ele>1048.44</ele>
<time>2015-04-29T12:58:14Z</time>
</trkpt>
<trkpt lat="34.8936436" lon="32.9120874">
<ele>1050.18</ele>
<time>2015-04-29T12:58:16Z</time>
</trkpt>
<trkpt lat="34.8936569" lon="32.9121756">
<ele>1051.36</ele>
<time>2015-04-29T12:58:18Z</time>
</trkpt>
<trkpt lat="34.8936640" lon="32.9122325">
<ele>1051.56</ele>
<time>2015-04-29T12:58:19Z</time>
</trkpt>
<trkpt lat="34.8936748" lon="32.9123356">
<ele>1051.96</ele>
<time>2015-04-29T12:58:21Z</time>
</trkpt>
<trkpt lat="34.8936845" lon="32.9124178">
<ele>1051.81</ele>
<time>2015-04-29T12:58:23Z</time>
</trkpt>
<trkpt lat="34.8936964" lon="32.9124944">
<ele>1052.52</ele>
<time>2015-04-29T12:58:25Z</time>
</trkpt>
<trkpt lat="34.8937030" lon="32.9125726">
<ele>1052.95</ele>
<time>2015-04-29T12:58:27Z</time>
</trkpt>
<trkpt lat="34.8937045" lon="32.9126517">
<ele>1052.81</ele>
<time>2015-04-29T12:58:29Z</time>
</trkpt>
<trkpt lat="34.8936964" lon="32.9127298">
<ele>1052.77</ele>
<time>2015-04-29T12:58:31Z</time>
</trkpt>
<trkpt lat="34.8936840" lon="32.9128018">
<ele>1052.51</ele>
<time>2015-04-29T12:58:33Z</time>
</trkpt>
<trkpt lat="34.8936759" lon="32.9128708">
<ele>1052.20</ele>
<time>2015-04-29T12:58:35Z</time>
</trkpt>
<trkpt lat="34.8936628" lon="32.9129366">
<ele>1052.37</ele>
<time>2015-04-29T12:58:37Z</time>
</trkpt>
<trkpt lat="34.8936437" lon="32.9129999">
<ele>1053.91</ele>
<time>2015-04-29T12:58:39Z</time>
</trkpt>
<trkpt lat="34.8936174" lon="32.9130617">
<ele>1054.05</ele>
<time>2015-04-29T12:58:41Z</time>
</trkpt>
<trkpt lat="34.8935812" lon="32.9131171">
<ele>1055.08</ele>
<time>2015-04-29T12:58:43Z</time>
</trkpt>
<trkpt lat="34.8935377" lon="32.9131641">
<ele>1055.34</ele>
<time>2015-04-29T12:58:45Z</time>
</trkpt>
<trkpt lat="34.8934823" lon="32.9132062">
<ele>1056.41</ele>
<time>2015-04-29T12:58:47Z</time>
</trkpt>
<trkpt lat="34.8934222" lon="32.9132450">
<ele>1054.92</ele>
<time>2015-04-29T12:58:49Z</time>
</trkpt>
<trkpt lat="34.8933645" lon="32.9132746">
<ele>1053.30</ele>
<time>2015-04-29T12:58:51Z</time>
</trkpt>
<trkpt lat="34.8932995" lon="32.9132858">
<ele>1050.20</ele>
<time>2015-04-29T12:58:54Z</time>
</trkpt>
<trkpt lat="34.8932517" lon="32.9132942">
<ele>1047.87</ele>
<time>2015-04-29T12:58:56Z</time>
</trkpt>
<trkpt lat="34.8931998" lon="32.9132922">
<ele>1046.54</ele>
<time>2015-04-29T12:58:58Z</time>
</trkpt>
<trkpt lat="34.8931470" lon="32.9132882">
<ele>1045.45</ele>
<time>2015-04-29T12:59:00Z</time>
</trkpt>
<trkpt lat="34.8930952" lon="32.9132864">
<ele>1043.18</ele>
<time>2015-04-29T12:59:02Z</time>
</trkpt>
<trkpt lat="34.8930470" lon="32.9132908">
<ele>1041.37</ele>
<time>2015-04-29T12:59:04Z</time>
</trkpt>
<trkpt lat="34.8929999" lon="32.9132854">
<ele>1040.59</ele>
<time>2015-04-29T12:59:07Z</time>
</trkpt>
<trkpt lat="34.8929469" lon="32.9132819">
<ele>1042.25</ele>
<time>2015-04-29T12:59:11Z</time>
</trkpt>
<trkpt lat="34.8928909" lon="32.9132776">
<ele>1043.45</ele>
<time>2015-04-29T12:59:14Z</time>
</trkpt>
<trkpt lat="34.8928389" lon="32.9133001">
<ele>1044.47</ele>
<time>2015-04-29T12:59:17Z</time>
</trkpt>
<trkpt lat="34.8927925" lon="32.9133365">
<ele>1045.47</ele>
<time>2015-04-29T12:59:20Z</time>
</trkpt>
<trkpt lat="34.8927559" lon="32.9133896">
<ele>1047.85</ele>
<time>2015-04-29T12:59:23Z</time>
</trkpt>
<trkpt lat="34.8927375" lon="32.9134719">
<ele>1049.52</ele>
<time>2015-04-29T12:59:26Z</time>
</trkpt>
<trkpt lat="34.8927424" lon="32.9135362">
<ele>1049.70</ele>
<time>2015-04-29T12:59:28Z</time>
</trkpt>
<trkpt lat="34.8927570" lon="32.9136062">
<ele>1050.25</ele>
<time>2015-04-29T12:59:30Z</time>
</trkpt>
<trkpt lat="34.8927734" lon="32.9136930">
<ele>1051.13</ele>
<time>2015-04-29T12:59:32Z</time>
</trkpt>
<trkpt lat="34.8927987" lon="32.9137718">
<ele>1052.35</ele>
<time>2015-04-29T12:59:34Z</time>
</trkpt>
<trkpt lat="34.8928278" lon="32.9138342">
<ele>1053.16</ele>
<time>2015-04-29T12:59:36Z</time>
</trkpt>
<trkpt lat="34.8928604" lon="32.9138919">
<ele>1054.11</ele>
<time>2015-04-29T12:59:38Z</time>
</trkpt>
<trkpt lat="34.8928953" lon="32.9139497">
<ele>1055.10</ele>
<time>2015-04-29T12:59:40Z</time>
</trkpt>
<trkpt lat="34.8929363" lon="32.9140010">
<ele>1056.09</ele>
<time>2015-04-29T12:59:42Z</time>
</trkpt>
<trkpt lat="34.8929888" lon="32.9140349">
<ele>1056.59</ele>
<time>2015-04-29T12:59:44Z</time>
</trkpt>
<trkpt lat="34.8930487" lon="32.9140527">
<ele>1056.72</ele>
<time>2015-04-29T12:59:46Z</time>
</trkpt>
<trkpt lat="34.8931073" lon="32.9140660">
<ele>1056.75</ele>
<time>2015-04-29T12:59:48Z</time>
</trkpt>
<trkpt lat="34.8931610" lon="32.9140787">
<ele>1057.26</ele>
<time>2015-04-29T12:59:50Z</time>
</trkpt>
<trkpt lat="34.8932119" lon="32.9140929">
<ele>1057.88</ele>
<time>2015-04-29T12:59:52Z</time>
</trkpt>
<trkpt lat="34.8932631" lon="32.9141041">
<ele>1058.79</ele>
<time>2015-04-29T12:59:54Z</time>
</trkpt>
<trkpt lat="34.8933140" lon="32.9141239">
<ele>1060.27</ele>
<time>2015-04-29T12:59:56Z</time>
</trkpt>
<trkpt lat="34.8933681" lon="32.9141422">
<ele>1061.14</ele>
<time>2015-04-29T12:59:58Z</time>
</trkpt>
<trkpt lat="34.8934253" lon="32.9141622">
<ele>1062.35</ele>
<time>2015-04-29T13:00:00Z</time>
</trkpt>
<trkpt lat="34.8934786" lon="32.9141911">
<ele>1063.41</ele>
<time>2015-04-29T13:00:02Z</time>
</trkpt>
<trkpt lat="34.8935342" lon="32.9142289">
<ele>1066.42</ele>
<time>2015-04-29T13:00:04Z</time>
</trkpt>
<trkpt lat="34.8935827" lon="32.9142661">
<ele>1069.43</ele>
<time>2015-04-29T13:00:06Z</time>
</trkpt>
<trkpt lat="34.8936186" lon="32.9143093">
<ele>1071.93</ele>
<time>2015-04-29T13:00:08Z</time>
</trkpt>
<trkpt lat="34.8936510" lon="32.9143710">
<ele>1076.16</ele>
<time>2015-04-29T13:00:11Z</time>
</trkpt>
<trkpt lat="34.8936707" lon="32.9144242">
<ele>1078.86</ele>
<time>2015-04-29T13:00:13Z</time>
</trkpt>
<trkpt lat="34.8936957" lon="32.9144794">
<ele>1083.78</ele>
<time>2015-04-29T13:00:15Z</time>
</trkpt>
<trkpt lat="34.8937260" lon="32.9145436">
<ele>1087.27</ele>
<time>2015-04-29T13:00:17Z</time>
</trkpt>
<trkpt lat="34.8937511" lon="32.9146126">
<ele>1091.89</ele>
<time>2015-04-29T13:00:19Z</time>
</trkpt>
<trkpt lat="34.8937768" lon="32.9146840">
<ele>1094.54</ele>
<time>2015-04-29T13:00:21Z</time>
</trkpt>
<trkpt lat="34.8937981" lon="32.9147583">
<ele>1095.71</ele>
<time>2015-04-29T13:00:23Z</time>
</trkpt>
<trkpt lat="34.8938201" lon="32.9148388">
<ele>1096.75</ele>
<time>2015-04-29T13:00:25Z</time>
</trkpt>
<trkpt lat="34.8938391" lon="32.9149180">
<ele>1098.01</ele>
<time>2015-04-29T13:00:27Z</time>
</trkpt>
<trkpt lat="34.8938356" lon="32.9150061">
<ele>1099.07</ele>
<time>2015-04-29T13:00:29Z</time>
</trkpt>
<trkpt lat="34.8938200" lon="32.9150836">
<ele>1098.59</ele>
<time>2015-04-29T13:00:31Z</time>
</trkpt>
<trkpt lat="34.8938096" lon="32.9151608">
<ele>1097.97</ele>
<time>2015-04-29T13:00:33Z</time>
</trkpt>
<trkpt lat="34.8938102" lon="32.9152449">
<ele>1095.81</ele>
<time>2015-04-29T13:00:35Z</time>
</trkpt>
<trkpt lat="34.8938002" lon="32.9153262">
<ele>1094.77</ele>
<time>2015-04-29T13:00:37Z</time>
</trkpt>
<trkpt lat="34.8937925" lon="32.9154069">
<ele>1095.76</ele>
<time>2015-04-29T13:00:39Z</time>
</trkpt>
<trkpt lat="34.8937848" lon="32.9154868">
<ele>1097.51</ele>
<time>2015-04-29T13:00:41Z</time>
</trkpt>
<trkpt lat="34.8937756" lon="32.9155642">
<ele>1096.45</ele>
<time>2015-04-29T13:00:43Z</time>
</trkpt>
<trkpt lat="34.8937624" lon="32.9156470">
<ele>1095.43</ele>
<time>2015-04-29T13:00:45Z</time>
</trkpt>
<trkpt lat="34.8937364" lon="32.9157270">
<ele>1095.18</ele>
<time>2015-04-29T13:00:47Z</time>
</trkpt>
<trkpt lat="34.8937079" lon="32.9158088">
<ele>1098.11</ele>
<time>2015-04-29T13:00:49Z</time>
</trkpt>
<trkpt lat="34.8936786" lon="32.9158844">
<ele>1098.85</ele>
<time>2015-04-29T13:00:51Z</time>
</trkpt>
<trkpt lat="34.8936481" lon="32.9159603">
<ele>1097.78</ele>
<time>2015-04-29T13:00:53Z</time>
</trkpt>
<trkpt lat="34.8936167" lon="32.9160331">
<ele>1097.27</ele>
<time>2015-04-29T13:00:55Z</time>
</trkpt>
<trkpt lat="34.8935840" lon="32.9161075">
<ele>1096.89</ele>
<time>2015-04-29T13:00:57Z</time>
</trkpt>
<trkpt lat="34.8935542" lon="32.9161811">
<ele>1095.54</ele>
<time>2015-04-29T13:00:59Z</time>
</trkpt>
<trkpt lat="34.8935225" lon="32.9162503">
<ele>1094.46</ele>
<time>2015-04-29T13:01:01Z</time>
</trkpt>
<trkpt lat="34.8935000" lon="32.9163219">
<ele>1093.18</ele>
<time>2015-04-29T13:01:03Z</time>
</trkpt>
<trkpt lat="34.8934791" lon="32.9163993">
<ele>1091.87</ele>
<time>2015-04-29T13:01:05Z</time>
</trkpt>
<trkpt lat="34.8934648" lon="32.9164809">
<ele>1090.29</ele>
<time>2015-04-29T13:01:07Z</time>
</trkpt>
<trkpt lat="34.8934528" lon="32.9165623">
<ele>1089.14</ele>
<time>2015-04-29T13:01:09Z</time>
</trkpt>
<trkpt lat="34.8934465" lon="32.9166397">
<ele>1087.61</ele>
<time>2015-04-29T13:01:11Z</time>
</trkpt>
<trkpt lat="34.8934568" lon="32.9167145">
<ele>1085.97</ele>
<time>2015-04-29T13:01:13Z</time>
</trkpt>
<trkpt lat="34.8934828" lon="32.9167863">
<ele>1085.56</ele>
<time>2015-04-29T13:01:15Z</time>
</trkpt>
<trkpt lat="34.8935165" lon="32.9168567">
<ele>1085.96</ele>
<time>2015-04-29T13:01:17Z</time>
</trkpt>
<trkpt lat="34.8935549" lon="32.9169222">
<ele>1086.56</ele>
<time>2015-04-29T13:01:19Z</time>
</trkpt>
<trkpt lat="34.8935978" lon="32.9169844">
<ele>1087.21</ele>
<time>2015-04-29T13:01:21Z</time>
</trkpt>
<trkpt lat="34.8936490" lon="32.9170362">
<ele>1088.87</ele>
<time>2015-04-29T13:01:23Z</time>
</trkpt>
<trkpt lat="34.8937079" lon="32.9170906">
<ele>1090.79</ele>
<time>2015-04-29T13:01:25Z</time>
</trkpt>
<trkpt lat="34.8937671" lon="32.9171473">
<ele>1091.02</ele>
<time>2015-04-29T13:01:27Z</time>
</trkpt>
<trkpt lat="34.8938242" lon="32.9172135">
<ele>1090.07</ele>
<time>2015-04-29T13:01:29Z</time>
</trkpt>
<trkpt lat="34.8938720" lon="32.9172839">
<ele>1089.09</ele>
<time>2015-04-29T13:01:31Z</time>
</trkpt>
<trkpt lat="34.8939046" lon="32.9173675">
<ele>1088.09</ele>
<time>2015-04-29T13:01:33Z</time>
</trkpt>
<trkpt lat="34.8939074" lon="32.9174579">
<ele>1087.34</ele>
<time>2015-04-29T13:01:35Z</time>
</trkpt>
<trkpt lat="34.8938884" lon="32.9175424">
<ele>1086.91</ele>
<time>2015-04-29T13:01:37Z</time>
</trkpt>
<trkpt lat="34.8938688" lon="32.9176139">
<ele>1086.30</ele>
<time>2015-04-29T13:01:39Z</time>
</trkpt>
<trkpt lat="34.8938527" lon="32.9176821">
<ele>1085.39</ele>
<time>2015-04-29T13:01:41Z</time>
</trkpt>
<trkpt lat="34.8938336" lon="32.9177441">
<ele>1084.42</ele>
<time>2015-04-29T13:01:43Z</time>
</trkpt>
<trkpt lat="34.8938016" lon="32.9177946">
<ele>1083.92</ele>
<time>2015-04-29T13:01:45Z</time>
</trkpt>
<trkpt lat="34.8938551" lon="32.9178082">
<ele>1085.37</ele>
<time>2015-04-29T13:02:03Z</time>
</trkpt>
<trkpt lat="34.8939004" lon="32.9178315">
<ele>1085.84</ele>
<time>2015-04-29T13:02:06Z</time>
</trkpt>
<trkpt lat="34.8939432" lon="32.9178740">
<ele>1085.98</ele>
<time>2015-04-29T13:02:11Z</time>
</trkpt>
<trkpt lat="34.8939975" lon="32.9179214">
<ele>1085.82</ele>
<time>2015-04-29T13:02:13Z</time>
</trkpt>
<trkpt lat="34.8940328" lon="32.9179578">
<ele>1085.79</ele>
<time>2015-04-29T13:02:14Z</time>
</trkpt>
<trkpt lat="34.8940755" lon="32.9180276">
<ele>1085.77</ele>
<time>2015-04-29T13:02:15Z</time>
</trkpt>
<trkpt lat="34.8941046" lon="32.9180853">
<ele>1085.77</ele>
<time>2015-04-29T13:02:16Z</time>
</trkpt>
<trkpt lat="34.8941338" lon="32.9181429">
<ele>1085.26</ele>
<time>2015-04-29T13:02:17Z</time>
</trkpt>
<trkpt lat="34.8941598" lon="32.9182100">
<ele>1085.01</ele>
<time>2015-04-29T13:02:18Z</time>
</trkpt>
<trkpt lat="34.8941928" lon="32.9182554">
<ele>1084.39</ele>
<time>2015-04-29T13:02:19Z</time>
</trkpt>
<trkpt lat="34.8942298" lon="32.9183198">
<ele>1084.07</ele>
<time>2015-04-29T13:02:20Z</time>
</trkpt>
<trkpt lat="34.8942639" lon="32.9183852">
<ele>1083.92</ele>
<time>2015-04-29T13:02:21Z</time>
</trkpt>
<trkpt lat="34.8943086" lon="32.9184500">
<ele>1083.84</ele>
<time>2015-04-29T13:02:22Z</time>
</trkpt>
<trkpt lat="34.8943564" lon="32.9185120">
<ele>1084.80</ele>
<time>2015-04-29T13:02:23Z</time>
</trkpt>
<trkpt lat="34.8944094" lon="32.9185771">
<ele>1085.28</ele>
<time>2015-04-29T13:02:24Z</time>
</trkpt>
<trkpt lat="34.8944644" lon="32.9186255">
<ele>1085.52</ele>
<time>2015-04-29T13:02:25Z</time>
</trkpt>
<trkpt lat="34.8945223" lon="32.9186691">
<ele>1085.64</ele>
<time>2015-04-29T13:02:26Z</time>
</trkpt>
<trkpt lat="34.8945855" lon="32.9186927">
<ele>1085.70</ele>
<time>2015-04-29T13:02:27Z</time>
</trkpt>
<trkpt lat="34.8946516" lon="32.9186965">
<ele>1086.23</ele>
<time>2015-04-29T13:02:28Z</time>
</trkpt>
<trkpt lat="34.8947176" lon="32.9186806">
<ele>1086.49</ele>
<time>2015-04-29T13:02:29Z</time>
</trkpt>
<trkpt lat="34.8947962" lon="32.9186620">
<ele>1087.13</ele>
<time>2015-04-29T13:02:30Z</time>
</trkpt>
<trkpt lat="34.8948686" lon="32.9186396">
<ele>1086.94</ele>
<time>2015-04-29T13:02:31Z</time>
</trkpt>
<trkpt lat="34.8949481" lon="32.9186163">
<ele>1086.85</ele>
<time>2015-04-29T13:02:32Z</time>
</trkpt>
<trkpt lat="34.8950271" lon="32.9186119">
<ele>1086.81</ele>
<time>2015-04-29T13:02:33Z</time>
</trkpt>
<trkpt lat="34.8951046" lon="32.9186311">
<ele>1087.28</ele>
<time>2015-04-29T13:02:34Z</time>
</trkpt>
<trkpt lat="34.8951931" lon="32.9186422">
<ele>1087.52</ele>
<time>2015-04-29T13:02:35Z</time>
</trkpt>
<trkpt lat="34.8952782" lon="32.9186641">
<ele>1087.64</ele>
<time>2015-04-29T13:02:36Z</time>
</trkpt>
<trkpt lat="34.8953512" lon="32.9186592">
<ele>1088.20</ele>
<time>2015-04-29T13:02:37Z</time>
</trkpt>
<trkpt lat="34.8954317" lon="32.9186426">
<ele>1088.48</ele>
<time>2015-04-29T13:02:38Z</time>
</trkpt>
<trkpt lat="34.8955035" lon="32.9186446">
<ele>1088.12</ele>
<time>2015-04-29T13:02:39Z</time>
</trkpt>
<trkpt lat="34.8955773" lon="32.9186542">
<ele>1087.94</ele>
<time>2015-04-29T13:02:40Z</time>
</trkpt>
<trkpt lat="34.8956489" lon="32.9186863">
<ele>1087.85</ele>
<time>2015-04-29T13:02:41Z</time>
</trkpt>
<trkpt lat="34.8957134" lon="32.9187443">
<ele>1087.81</ele>
<time>2015-04-29T13:02:42Z</time>
</trkpt>
<trkpt lat="34.8957471" lon="32.9188054">
<ele>1087.78</ele>
<time>2015-04-29T13:02:43Z</time>
</trkpt>
<trkpt lat="34.8957752" lon="32.9188768">
<ele>1086.77</ele>
<time>2015-04-29T13:02:44Z</time>
</trkpt>
<trkpt lat="34.8957830" lon="32.9189664">
<ele>1086.77</ele>
<time>2015-04-29T13:02:45Z</time>
</trkpt>
<trkpt lat="34.8957885" lon="32.9190468">
<ele>1086.76</ele>
<time>2015-04-29T13:02:46Z</time>
</trkpt>
<trkpt lat="34.8957811" lon="32.9191218">
<ele>1087.26</ele>
<time>2015-04-29T13:02:47Z</time>
</trkpt>
<trkpt lat="34.8957751" lon="32.9192021">
<ele>1087.01</ele>
<time>2015-04-29T13:02:48Z</time>
</trkpt>
<trkpt lat="34.8957873" lon="32.9192743">
<ele>1086.89</ele>
<time>2015-04-29T13:02:49Z</time>
</trkpt>
<trkpt lat="34.8958049" lon="32.9193586">
<ele>1086.82</ele>
<time>2015-04-29T13:02:50Z</time>
</trkpt>
<trkpt lat="34.8958497" lon="32.9194185">
<ele>1086.29</ele>
<time>2015-04-29T13:02:51Z</time>
</trkpt>
<trkpt lat="34.8958976" lon="32.9194683">
<ele>1086.03</ele>
<time>2015-04-29T13:02:52Z</time>
</trkpt>
<trkpt lat="34.8959530" lon="32.9195181">
<ele>1085.39</ele>
<time>2015-04-29T13:02:53Z</time>
</trkpt>
<trkpt lat="34.8960140" lon="32.9195522">
<ele>1085.08</ele>
<time>2015-04-29T13:02:54Z</time>
</trkpt>
<trkpt lat="34.8960748" lon="32.9195852">
<ele>1084.42</ele>
<time>2015-04-29T13:02:55Z</time>
</trkpt>
<trkpt lat="34.8961366" lon="32.9196215">
<ele>1084.09</ele>
<time>2015-04-29T13:02:56Z</time>
</trkpt>
<trkpt lat="34.8961936" lon="32.9196621">
<ele>1084.42</ele>
<time>2015-04-29T13:02:57Z</time>
</trkpt>
<trkpt lat="34.8962447" lon="32.9197054">
<ele>1085.09</ele>
<time>2015-04-29T13:02:58Z</time>
</trkpt>
<trkpt lat="34.8962886" lon="32.9197616">
<ele>1084.93</ele>
<time>2015-04-29T13:02:59Z</time>
</trkpt>
<trkpt lat="34.8963301" lon="32.9198266">
<ele>1084.34</ele>
<time>2015-04-29T13:03:00Z</time>
</trkpt>
<trkpt lat="34.8963605" lon="32.9199027">
<ele>1084.55</ele>
<time>2015-04-29T13:03:01Z</time>
</trkpt>
<trkpt lat="34.8963785" lon="32.9199661">
<ele>1084.16</ele>
<time>2015-04-29T13:03:02Z</time>
</trkpt>
<trkpt lat="34.8963913" lon="32.9200381">
<ele>1083.96</ele>
<time>2015-04-29T13:03:03Z</time>
</trkpt>
<trkpt lat="34.8964058" lon="32.9201156">
<ele>1083.86</ele>
<time>2015-04-29T13:03:04Z</time>
</trkpt>
<trkpt lat="34.8964143" lon="32.9201947">
<ele>1083.81</ele>
<time>2015-04-29T13:03:05Z</time>
</trkpt>
<trkpt lat="34.8964221" lon="32.9202573">
<ele>1083.78</ele>
<time>2015-04-29T13:03:06Z</time>
</trkpt>
<trkpt lat="34.8964297" lon="32.9203301">
<ele>1084.27</ele>
<time>2015-04-29T13:03:07Z</time>
</trkpt>
<trkpt lat="34.8964494" lon="32.9203975">
<ele>1084.02</ele>
<time>2015-04-29T13:03:08Z</time>
</trkpt>
<trkpt lat="34.8964510" lon="32.9204784">
<ele>1083.89</ele>
<time>2015-04-29T13:03:09Z</time>
</trkpt>
<trkpt lat="34.8964568" lon="32.9205555">
<ele>1083.82</ele>
<time>2015-04-29T13:03:10Z</time>
</trkpt>
<trkpt lat="34.8964615" lon="32.9206226">
<ele>1083.79</ele>
<time>2015-04-29T13:03:11Z</time>
</trkpt>
<trkpt lat="34.8964626" lon="32.9206975">
<ele>1083.78</ele>
<time>2015-04-29T13:03:12Z</time>
</trkpt>
<trkpt lat="34.8964534" lon="32.9207740">
<ele>1084.27</ele>
<time>2015-04-29T13:03:13Z</time>
</trkpt>
<trkpt lat="34.8964347" lon="32.9208400">
<ele>1085.01</ele>
<time>2015-04-29T13:03:14Z</time>
</trkpt>
<trkpt lat="34.8964134" lon="32.9209079">
<ele>1085.39</ele>
<time>2015-04-29T13:03:15Z</time>
</trkpt>
<trkpt lat="34.8963796" lon="32.9209680">
<ele>1085.07</ele>
<time>2015-04-29T13:03:16Z</time>
</trkpt>
<trkpt lat="34.8963495" lon="32.9210304">
<ele>1084.92</ele>
<time>2015-04-29T13:03:17Z</time>
</trkpt>
<trkpt lat="34.8963175" lon="32.9210878">
<ele>1084.34</ele>
<time>2015-04-29T13:03:18Z</time>
</trkpt>
<trkpt lat="34.8962898" lon="32.9211374">
<ele>1083.05</ele>
<time>2015-04-29T13:03:19Z</time>
</trkpt>
<trkpt lat="34.8962668" lon="32.9211953">
<ele>1081.90</ele>
<time>2015-04-29T13:03:20Z</time>
</trkpt>
<trkpt lat="34.8962677" lon="32.9212523">
<ele>1080.83</ele>
<time>2015-04-29T13:03:21Z</time>
</trkpt>
<trkpt lat="34.8962787" lon="32.9213067">
<ele>1080.30</ele>
<time>2015-04-29T13:03:22Z</time>
</trkpt>
<trkpt lat="34.8962996" lon="32.9213610">
<ele>1079.03</ele>
<time>2015-04-29T13:03:23Z</time>
</trkpt>
<trkpt lat="34.8963408" lon="32.9214012">
<ele>1078.39</ele>
<time>2015-04-29T13:03:24Z</time>
</trkpt>
<trkpt lat="34.8963721" lon="32.9214647">
<ele>1078.58</ele>
<time>2015-04-29T13:03:25Z</time>
</trkpt>
<trkpt lat="34.8964113" lon="32.9215172">
<ele>1078.67</ele>
<time>2015-04-29T13:03:26Z</time>
</trkpt>
<trkpt lat="34.8964576" lon="32.9215626">
<ele>1078.21</ele>
<time>2015-04-29T13:03:27Z</time>
</trkpt>
<trkpt lat="34.8965034" lon="32.9216304">
<ele>1077.99</ele>
<time>2015-04-29T13:03:28Z</time>
</trkpt>
<trkpt lat="34.8965412" lon="32.9216980">
<ele>1077.87</ele>
<time>2015-04-29T13:03:29Z</time>
</trkpt>
<trkpt lat="34.8965893" lon="32.9217805">
<ele>1077.82</ele>
<time>2015-04-29T13:03:30Z</time>
</trkpt>
<trkpt lat="34.8966367" lon="32.9218518">
<ele>1077.29</ele>
<time>2015-04-29T13:03:31Z</time>
</trkpt>
<trkpt lat="34.8966990" lon="32.9219211">
<ele>1077.02</ele>
<time>2015-04-29T13:03:32Z</time>
</trkpt>
<trkpt lat="34.8967643" lon="32.9219588">
<ele>1077.39</ele>
<time>2015-04-29T13:03:33Z</time>
</trkpt>
<trkpt lat="34.8968359" lon="32.9219703">
<ele>1077.08</ele>
<time>2015-04-29T13:03:34Z</time>
</trkpt>
<trkpt lat="34.8969118" lon="32.9219595">
<ele>1077.42</ele>
<time>2015-04-29T13:03:35Z</time>
</trkpt>
<trkpt lat="34.8969976" lon="32.9219227">
<ele>1076.59</ele>
<time>2015-04-29T13:03:36Z</time>
</trkpt>
<trkpt lat="34.8970703" lon="32.9218757">
<ele>1076.17</ele>
<time>2015-04-29T13:03:37Z</time>
</trkpt>
<trkpt lat="34.8971441" lon="32.9218195">
<ele>1075.47</ele>
<time>2015-04-29T13:03:38Z</time>
</trkpt>
<trkpt lat="34.8972139" lon="32.9217789">
<ele>1075.11</ele>
<time>2015-04-29T13:03:39Z</time>
</trkpt>
<trkpt lat="34.8972910" lon="32.9217462">
<ele>1074.44</ele>
<time>2015-04-29T13:03:40Z</time>
</trkpt>
<trkpt lat="34.8973671" lon="32.9217152">
<ele>1073.60</ele>
<time>2015-04-29T13:03:41Z</time>
</trkpt>
<trkpt lat="34.8974503" lon="32.9216854">
<ele>1073.18</ele>
<time>2015-04-29T13:03:42Z</time>
</trkpt>
<trkpt lat="34.8975273" lon="32.9216443">
<ele>1072.47</ele>
<time>2015-04-29T13:03:43Z</time>
</trkpt>
<trkpt lat="34.8975909" lon="32.9215703">
<ele>1072.11</ele>
<time>2015-04-29T13:03:44Z</time>
</trkpt>
<trkpt lat="34.8976593" lon="32.9214728">
<ele>1071.94</ele>
<time>2015-04-29T13:03:45Z</time>
</trkpt>
<trkpt lat="34.8977154" lon="32.9213770">
<ele>1070.85</ele>
<time>2015-04-29T13:03:46Z</time>
</trkpt>
<trkpt lat="34.8977657" lon="32.9212732">
<ele>1069.80</ele>
<time>2015-04-29T13:03:47Z</time>
</trkpt>
<trkpt lat="34.8978156" lon="32.9211710">
<ele>1068.78</ele>
<time>2015-04-29T13:03:48Z</time>
</trkpt>
<trkpt lat="34.8978724" lon="32.9210609">
<ele>1067.77</ele>
<time>2015-04-29T13:03:49Z</time>
</trkpt>
<trkpt lat="34.8979372" lon="32.9209740">
<ele>1067.27</ele>
<time>2015-04-29T13:03:50Z</time>
</trkpt>
<trkpt lat="34.8980156" lon="32.9208663">
<ele>1066.01</ele>
<time>2015-04-29T13:03:51Z</time>
</trkpt>
<trkpt lat="34.8980974" lon="32.9207794">
<ele>1064.39</ele>
<time>2015-04-29T13:03:52Z</time>
</trkpt>
<trkpt lat="34.8981799" lon="32.9206966">
<ele>1063.07</ele>
<time>2015-04-29T13:03:53Z</time>
</trkpt>
<trkpt lat="34.8982501" lon="32.9206198">
<ele>1061.92</ele>
<time>2015-04-29T13:03:54Z</time>
</trkpt>
<trkpt lat="34.8983151" lon="32.9205305">
<ele>1060.34</ele>
<time>2015-04-29T13:03:55Z</time>
</trkpt>
<trkpt lat="34.8983748" lon="32.9204338">
<ele>1059.55</ele>
<time>2015-04-29T13:03:56Z</time>
</trkpt>
<trkpt lat="34.8984198" lon="32.9202959">
<ele>1058.65</ele>
<time>2015-04-29T13:03:57Z</time>
</trkpt>
<trkpt lat="34.8984588" lon="32.9202082">
<ele>1057.21</ele>
<time>2015-04-29T13:03:58Z</time>
</trkpt>
<trkpt lat="34.8985008" lon="32.9201239">
<ele>1056.48</ele>
<time>2015-04-29T13:03:59Z</time>
</trkpt>
<trkpt lat="34.8985471" lon="32.9200635">
<ele>1055.62</ele>
<time>2015-04-29T13:04:00Z</time>
</trkpt>
<trkpt lat="34.8985943" lon="32.9200275">
<ele>1054.69</ele>
<time>2015-04-29T13:04:01Z</time>
</trkpt>
<trkpt lat="34.8986461" lon="32.9199982">
<ele>1054.23</ele>
<time>2015-04-29T13:04:02Z</time>
</trkpt>
<trkpt lat="34.8987452" lon="32.9200478">
<ele>1053.38</ele>
<time>2015-04-29T13:04:04Z</time>
</trkpt>
<trkpt lat="34.8987851" lon="32.9200841">
<ele>1052.57</ele>
<time>2015-04-29T13:04:05Z</time>
</trkpt>
<trkpt lat="34.8988356" lon="32.9201180">
<ele>1051.66</ele>
<time>2015-04-29T13:04:06Z</time>
</trkpt>
<trkpt lat="34.8988796" lon="32.9201637">
<ele>1051.71</ele>
<time>2015-04-29T13:04:07Z</time>
</trkpt>
<trkpt lat="34.8989325" lon="32.9202329">
<ele>1050.74</ele>
<time>2015-04-29T13:04:08Z</time>
</trkpt>
<trkpt lat="34.8989787" lon="32.9203057">
<ele>1050.25</ele>
<time>2015-04-29T13:04:09Z</time>
</trkpt>
<trkpt lat="34.8990224" lon="32.9203894">
<ele>1049.50</ele>
<time>2015-04-29T13:04:10Z</time>
</trkpt>
<trkpt lat="34.8990797" lon="32.9204670">
<ele>1049.13</ele>
<time>2015-04-29T13:04:11Z</time>
</trkpt>
<trkpt lat="34.8991245" lon="32.9205562">
<ele>1048.45</ele>
<time>2015-04-29T13:04:12Z</time>
</trkpt>
<trkpt lat="34.8991682" lon="32.9206355">
<ele>1047.60</ele>
<time>2015-04-29T13:04:13Z</time>
</trkpt>
<trkpt lat="34.8992319" lon="32.9207028">
<ele>1046.68</ele>
<time>2015-04-29T13:04:14Z</time>
</trkpt>
<trkpt lat="34.8993000" lon="32.9207808">
<ele>1046.72</ele>
<time>2015-04-29T13:04:15Z</time>
</trkpt>
<trkpt lat="34.8993563" lon="32.9208533">
<ele>1047.24</ele>
<time>2015-04-29T13:04:16Z</time>
</trkpt>
<trkpt lat="34.8994103" lon="32.9209255">
<ele>1048.00</ele>
<time>2015-04-29T13:04:17Z</time>
</trkpt>
<trkpt lat="34.8994662" lon="32.9209987">
<ele>1047.88</ele>
<time>2015-04-29T13:04:18Z</time>
</trkpt>
<trkpt lat="34.8995189" lon="32.9210842">
<ele>1047.32</ele>
<time>2015-04-29T13:04:19Z</time>
</trkpt>
<trkpt lat="34.8995797" lon="32.9211636">
<ele>1046.54</ele>
<time>2015-04-29T13:04:20Z</time>
</trkpt>
<trkpt lat="34.8996302" lon="32.9212438">
<ele>1046.65</ele>
<time>2015-04-29T13:04:21Z</time>
</trkpt>
<trkpt lat="34.8996780" lon="32.9213335">
<ele>1046.20</ele>
<time>2015-04-29T13:04:22Z</time>
</trkpt>
<trkpt lat="34.8997315" lon="32.9214185">
<ele>1045.48</ele>
<time>2015-04-29T13:04:23Z</time>
</trkpt>
<trkpt lat="34.8997782" lon="32.9214972">
<ele>1045.62</ele>
<time>2015-04-29T13:04:24Z</time>
</trkpt>
<trkpt lat="34.8998227" lon="32.9215741">
<ele>1046.19</ele>
<time>2015-04-29T13:04:25Z</time>
</trkpt>
<trkpt lat="34.8998527" lon="32.9216511">
<ele>1046.48</ele>
<time>2015-04-29T13:04:26Z</time>
</trkpt>
<trkpt lat="34.8998828" lon="32.9217222">
<ele>1046.62</ele>
<time>2015-04-29T13:04:27Z</time>
</trkpt>
<trkpt lat="34.8999124" lon="32.9217988">
<ele>1046.69</ele>
<time>2015-04-29T13:04:28Z</time>
</trkpt>
<trkpt lat="34.8999305" lon="32.9218649">
<ele>1047.22</ele>
<time>2015-04-29T13:04:29Z</time>
</trkpt>
<trkpt lat="34.8999445" lon="32.9219214">
<ele>1047.99</ele>
<time>2015-04-29T13:04:30Z</time>
</trkpt>
<trkpt lat="34.8999633" lon="32.9219728">
<ele>1048.38</ele>
<time>2015-04-29T13:04:31Z</time>
</trkpt>
<trkpt lat="34.8999746" lon="32.9220380">
<ele>1048.07</ele>
<time>2015-04-29T13:04:32Z</time>
</trkpt>
<trkpt lat="34.8999906" lon="32.9220967">
<ele>1048.91</ele>
<time>2015-04-29T13:04:33Z</time>
</trkpt>
<trkpt lat="34.9000003" lon="32.9221556">
<ele>1048.34</ele>
<time>2015-04-29T13:04:34Z</time>
</trkpt>
<trkpt lat="34.9000458" lon="32.9222368">
<ele>1049.90</ele>
<time>2015-04-29T13:04:36Z</time>
</trkpt>
<trkpt lat="34.9000578" lon="32.9223364">
<ele>1050.83</ele>
<time>2015-04-29T13:04:37Z</time>
</trkpt>
<trkpt lat="34.9000791" lon="32.9224139">
<ele>1055.39</ele>
<time>2015-04-29T13:04:41Z</time>
</trkpt>
<trkpt lat="34.9000806" lon="32.9224735">
<ele>1055.67</ele>
<time>2015-04-29T13:04:43Z</time>
</trkpt>
<trkpt lat="34.9000805" lon="32.9225507">
<ele>1058.75</ele>
<time>2015-04-29T13:04:46Z</time>
</trkpt>
<trkpt lat="34.9000884" lon="32.9226184">
<ele>1060.51</ele>
<time>2015-04-29T13:04:49Z</time>
</trkpt>
<trkpt lat="34.9000822" lon="32.9226751">
<ele>1061.35</ele>
<time>2015-04-29T13:04:52Z</time>
</trkpt>
<trkpt lat="34.9000953" lon="32.9227295">
<ele>1059.92</ele>
<time>2015-04-29T13:04:56Z</time>
</trkpt>
<trkpt lat="34.9001032" lon="32.9227944">
<ele>1056.21</ele>
<time>2015-04-29T13:05:00Z</time>
</trkpt>
<trkpt lat="34.9001119" lon="32.9228483">
<ele>1053.57</ele>
<time>2015-04-29T13:05:03Z</time>
</trkpt>
<trkpt lat="34.9001214" lon="32.9229038">
<ele>1054.11</ele>
<time>2015-04-29T13:05:06Z</time>
</trkpt>
<trkpt lat="34.9001344" lon="32.9229692">
<ele>1052.47</ele>
<time>2015-04-29T13:05:10Z</time>
</trkpt>
<trkpt lat="34.9001415" lon="32.9230362">
<ele>1050.43</ele>
<time>2015-04-29T13:05:14Z</time>
</trkpt>
<trkpt lat="34.9001564" lon="32.9230944">
<ele>1048.86</ele>
<time>2015-04-29T13:05:18Z</time>
</trkpt>
<trkpt lat="34.9001695" lon="32.9231490">
<ele>1051.39</ele>
<time>2015-04-29T13:05:22Z</time>
</trkpt>
<trkpt lat="34.9001764" lon="32.9232032">
<ele>1052.55</ele>
<time>2015-04-29T13:05:26Z</time>
</trkpt>
<trkpt lat="34.9001800" lon="32.9232705">
<ele>1050.13</ele>
<time>2015-04-29T13:05:31Z</time>
</trkpt>
<trkpt lat="34.9001878" lon="32.9233293">
<ele>1049.60</ele>
<time>2015-04-29T13:05:35Z</time>
</trkpt>
<trkpt lat="34.9002017" lon="32.9233987">
<ele>1048.12</ele>
<time>2015-04-29T13:05:39Z</time>
</trkpt>
<trkpt lat="34.9002058" lon="32.9234556">
<ele>1047.81</ele>
<time>2015-04-29T13:05:42Z</time>
</trkpt>
<trkpt lat="34.9002208" lon="32.9235161">
<ele>1050.14</ele>
<time>2015-04-29T13:05:45Z</time>
</trkpt>
<trkpt lat="34.9002439" lon="32.9235708">
<ele>1050.81</ele>
<time>2015-04-29T13:05:48Z</time>
</trkpt>
<trkpt lat="34.9002645" lon="32.9236211">
<ele>1049.89</ele>
<time>2015-04-29T13:05:51Z</time>
</trkpt>
<trkpt lat="34.9002826" lon="32.9236765">
<ele>1049.53</ele>
<time>2015-04-29T13:05:54Z</time>
</trkpt>
<trkpt lat="34.9002975" lon="32.9237394">
<ele>1049.86</ele>
<time>2015-04-29T13:05:57Z</time>
</trkpt>
<trkpt lat="34.9003154" lon="32.9238050">
<ele>1050.52</ele>
<time>2015-04-29T13:06:00Z</time>
</trkpt>
<trkpt lat="34.9003333" lon="32.9238744">
<ele>1051.98</ele>
<time>2015-04-29T13:06:03Z</time>
</trkpt>
<trkpt lat="34.9003704" lon="32.9239409">
<ele>1054.41</ele>
<time>2015-04-29T13:06:06Z</time>
</trkpt>
<trkpt lat="34.9004038" lon="32.9240010">
<ele>1055.92</ele>
<time>2015-04-29T13:06:08Z</time>
</trkpt>
<trkpt lat="34.9004405" lon="32.9240632">
<ele>1057.55</ele>
<time>2015-04-29T13:06:10Z</time>
</trkpt>
<trkpt lat="34.9004811" lon="32.9241224">
<ele>1058.21</ele>
<time>2015-04-29T13:06:12Z</time>
</trkpt>
<trkpt lat="34.9005214" lon="32.9241805">
<ele>1059.12</ele>
<time>2015-04-29T13:06:14Z</time>
</trkpt>
<trkpt lat="34.9005584" lon="32.9242367">
<ele>1059.35</ele>
<time>2015-04-29T13:06:16Z</time>
</trkpt>
<trkpt lat="34.9005983" lon="32.9242881">
<ele>1059.41</ele>
<time>2015-04-29T13:06:18Z</time>
</trkpt>
<trkpt lat="34.9006262" lon="32.9243506">
<ele>1060.92</ele>
<time>2015-04-29T13:06:20Z</time>
</trkpt>
<trkpt lat="34.9006442" lon="32.9244158">
<ele>1061.55</ele>
<time>2015-04-29T13:06:22Z</time>
</trkpt>
<trkpt lat="34.9006524" lon="32.9244812">
<ele>1062.96</ele>
<time>2015-04-29T13:06:24Z</time>
</trkpt>
<trkpt lat="34.9006516" lon="32.9245477">
<ele>1064.56</ele>
<time>2015-04-29T13:06:26Z</time>
</trkpt>
<trkpt lat="34.9006406" lon="32.9246156">
<ele>1066.96</ele>
<time>2015-04-29T13:06:28Z</time>
</trkpt>
<trkpt lat="34.9006297" lon="32.9246803">
<ele>1066.31</ele>
<time>2015-04-29T13:06:30Z</time>
</trkpt>
<trkpt lat="34.9006157" lon="32.9247455">
<ele>1067.15</ele>
<time>2015-04-29T13:06:32Z</time>
</trkpt>
<trkpt lat="34.9005977" lon="32.9248046">
<ele>1067.61</ele>
<time>2015-04-29T13:06:34Z</time>
</trkpt>
<trkpt lat="34.9005824" lon="32.9248624">
<ele>1067.47</ele>
<time>2015-04-29T13:06:36Z</time>
</trkpt>
<trkpt lat="34.9005630" lon="32.9249357">
<ele>1067.85</ele>
<time>2015-04-29T13:06:39Z</time>
</trkpt>
<trkpt lat="34.9005410" lon="32.9249904">
<ele>1066.95</ele>
<time>2015-04-29T13:06:43Z</time>
</trkpt>
<trkpt lat="34.9005163" lon="32.9250521">
<ele>1067.96</ele>
<time>2015-04-29T13:06:47Z</time>
</trkpt>
<trkpt lat="34.9004823" lon="32.9251076">
<ele>1069.16</ele>
<time>2015-04-29T13:06:50Z</time>
</trkpt>
<trkpt lat="34.9004449" lon="32.9251733">
<ele>1070.06</ele>
<time>2015-04-29T13:06:53Z</time>
</trkpt>
<trkpt lat="34.9004230" lon="32.9252224">
<ele>1069.83</ele>
<time>2015-04-29T13:06:55Z</time>
</trkpt>
<trkpt lat="34.9004013" lon="32.9252780">
<ele>1069.78</ele>
<time>2015-04-29T13:06:57Z</time>
</trkpt>
<trkpt lat="34.9003855" lon="32.9253315">
<ele>1070.51</ele>
<time>2015-04-29T13:06:59Z</time>
</trkpt>
<trkpt lat="34.9003780" lon="32.9254064">
<ele>1069.10</ele>
<time>2015-04-29T13:07:02Z</time>
</trkpt>
<trkpt lat="34.9003894" lon="32.9254831">
<ele>1068.68</ele>
<time>2015-04-29T13:07:05Z</time>
</trkpt>
<trkpt lat="34.9004082" lon="32.9255614">
<ele>1069.75</ele>
<time>2015-04-29T13:07:08Z</time>
</trkpt>
<trkpt lat="34.9004305" lon="32.9256124">
<ele>1070.26</ele>
<time>2015-04-29T13:07:10Z</time>
</trkpt>
<trkpt lat="34.9004627" lon="32.9256594">
<ele>1069.63</ele>
<time>2015-04-29T13:07:12Z</time>
</trkpt>
<trkpt lat="34.9004960" lon="32.9257039">
<ele>1069.73</ele>
<time>2015-04-29T13:07:14Z</time>
</trkpt>
<trkpt lat="34.9005288" lon="32.9257499">
<ele>1070.50</ele>
<time>2015-04-29T13:07:16Z</time>
</trkpt>
<trkpt lat="34.9005627" lon="32.9257999">
<ele>1071.20</ele>
<time>2015-04-29T13:07:18Z</time>
</trkpt>
<trkpt lat="34.9006009" lon="32.9258468">
<ele>1070.87</ele>
<time>2015-04-29T13:07:20Z</time>
</trkpt>
<trkpt lat="34.9006394" lon="32.9258899">
<ele>1070.54</ele>
<time>2015-04-29T13:07:22Z</time>
</trkpt>
<trkpt lat="34.9006760" lon="32.9259302">
<ele>1071.45</ele>
<time>2015-04-29T13:07:24Z</time>
</trkpt>
<trkpt lat="34.9007094" lon="32.9259715">
<ele>1071.18</ele>
<time>2015-04-29T13:07:26Z</time>
</trkpt>
<trkpt lat="34.9007447" lon="32.9260103">
<ele>1071.12</ele>
<time>2015-04-29T13:07:28Z</time>
</trkpt>
<trkpt lat="34.9007796" lon="32.9260450">
<ele>1071.60</ele>
<time>2015-04-29T13:07:30Z</time>
</trkpt>
<trkpt lat="34.9008294" lon="32.9260963">
<ele>1071.74</ele>
<time>2015-04-29T13:07:33Z</time>
</trkpt>
<trkpt lat="34.9008743" lon="32.9261414">
<ele>1071.13</ele>
<time>2015-04-29T13:07:36Z</time>
</trkpt>
<trkpt lat="34.9009113" lon="32.9261937">
<ele>1071.93</ele>
<time>2015-04-29T13:07:39Z</time>
</trkpt>
<trkpt lat="34.9009572" lon="32.9262391">
<ele>1072.91</ele>
<time>2015-04-29T13:07:42Z</time>
</trkpt>
<trkpt lat="34.9009978" lon="32.9262914">
<ele>1074.40</ele>
<time>2015-04-29T13:07:45Z</time>
</trkpt>
<trkpt lat="34.9010462" lon="32.9263439">
<ele>1073.59</ele>
<time>2015-04-29T13:07:48Z</time>
</trkpt>
<trkpt lat="34.9011004" lon="32.9263890">
<ele>1073.86</ele>
<time>2015-04-29T13:07:51Z</time>
</trkpt>
<trkpt lat="34.9011345" lon="32.9264283">
<ele>1073.29</ele>
<time>2015-04-29T13:07:53Z</time>
</trkpt>
<trkpt lat="34.9011696" lon="32.9264639">
<ele>1072.39</ele>
<time>2015-04-29T13:07:55Z</time>
</trkpt>
<trkpt lat="34.9012086" lon="32.9265018">
<ele>1072.67</ele>
<time>2015-04-29T13:07:57Z</time>
</trkpt>
<trkpt lat="34.9012466" lon="32.9265426">
<ele>1073.49</ele>
<time>2015-04-29T13:07:59Z</time>
</trkpt>
<trkpt lat="34.9012841" lon="32.9265843">
<ele>1073.69</ele>
<time>2015-04-29T13:08:01Z</time>
</trkpt>
<trkpt lat="34.9013228" lon="32.9266275">
<ele>1073.74</ele>
<time>2015-04-29T13:08:03Z</time>
</trkpt>
<trkpt lat="34.9013657" lon="32.9266746">
<ele>1074.51</ele>
<time>2015-04-29T13:08:05Z</time>
</trkpt>
<trkpt lat="34.9014127" lon="32.9267143">
<ele>1073.45</ele>
<time>2015-04-29T13:08:07Z</time>
</trkpt>
<trkpt lat="34.9014671" lon="32.9267524">
<ele>1073.18</ele>
<time>2015-04-29T13:08:09Z</time>
</trkpt>
<trkpt lat="34.9015315" lon="32.9267970">
<ele>1073.62</ele>
<time>2015-04-29T13:08:11Z</time>
</trkpt>
<trkpt lat="34.9015958" lon="32.9268447">
<ele>1072.97</ele>
<time>2015-04-29T13:08:13Z</time>
</trkpt>
<trkpt lat="34.9016608" lon="32.9268846">
<ele>1073.56</ele>
<time>2015-04-29T13:08:15Z</time>
</trkpt>
<trkpt lat="34.9017298" lon="32.9269311">
<ele>1073.71</ele>
<time>2015-04-29T13:08:17Z</time>
</trkpt>
<trkpt lat="34.9017851" lon="32.9269836">
<ele>1073.24</ele>
<time>2015-04-29T13:08:18Z</time>
</trkpt>
<trkpt lat="34.9018207" lon="32.9270292">
<ele>1073.50</ele>
<time>2015-04-29T13:08:19Z</time>
</trkpt>
<trkpt lat="34.9018668" lon="32.9270867">
<ele>1073.63</ele>
<time>2015-04-29T13:08:20Z</time>
</trkpt>
<trkpt lat="34.9019083" lon="32.9271489">
<ele>1073.69</ele>
<time>2015-04-29T13:08:21Z</time>
</trkpt>
<trkpt lat="34.9019532" lon="32.9272089">
<ele>1073.73</ele>
<time>2015-04-29T13:08:22Z</time>
</trkpt>
<trkpt lat="34.9020070" lon="32.9272680">
<ele>1073.74</ele>
<time>2015-04-29T13:08:23Z</time>
</trkpt>
<trkpt lat="34.9020528" lon="32.9273467">
<ele>1072.75</ele>
<time>2015-04-29T13:08:24Z</time>
</trkpt>
<trkpt lat="34.9020778" lon="32.9274357">
<ele>1072.26</ele>
<time>2015-04-29T13:08:25Z</time>
</trkpt>
<trkpt lat="34.9020832" lon="32.9275355">
<ele>1073.01</ele>
<time>2015-04-29T13:08:26Z</time>
</trkpt>
<trkpt lat="34.9020657" lon="32.9276430">
<ele>1074.38</ele>
<time>2015-04-29T13:08:27Z</time>
</trkpt>
<trkpt lat="34.9020276" lon="32.9277315">
<ele>1075.57</ele>
<time>2015-04-29T13:08:28Z</time>
</trkpt>
<trkpt lat="34.9019773" lon="32.9278164">
<ele>1076.17</ele>
<time>2015-04-29T13:08:29Z</time>
</trkpt>
<trkpt lat="34.9019190" lon="32.9278933">
<ele>1077.96</ele>
<time>2015-04-29T13:08:30Z</time>
</trkpt>
<trkpt lat="34.9018536" lon="32.9279405">
<ele>1078.86</ele>
<time>2015-04-29T13:08:31Z</time>
</trkpt>
<trkpt lat="34.9017809" lon="32.9279773">
<ele>1079.31</ele>
<time>2015-04-29T13:08:32Z</time>
</trkpt>
<trkpt lat="34.9017221" lon="32.9280215">
<ele>1080.04</ele>
<time>2015-04-29T13:08:33Z</time>
</trkpt>
<trkpt lat="34.9016756" lon="32.9280824">
<ele>1080.40</ele>
<time>2015-04-29T13:08:34Z</time>
</trkpt>
<trkpt lat="34.9016320" lon="32.9281410">
<ele>1080.08</ele>
<time>2015-04-29T13:08:35Z</time>
</trkpt>
<trkpt lat="34.9015827" lon="32.9282080">
<ele>1078.92</ele>
<time>2015-04-29T13:08:36Z</time>
</trkpt>
<trkpt lat="34.9015450" lon="32.9282839">
<ele>1078.84</ele>
<time>2015-04-29T13:08:37Z</time>
</trkpt>
<trkpt lat="34.9015232" lon="32.9283522">
<ele>1079.30</ele>
<time>2015-04-29T13:08:38Z</time>
</trkpt>
<trkpt lat="34.9015025" lon="32.9284221">
<ele>1079.53</ele>
<time>2015-04-29T13:08:39Z</time>
</trkpt>
<trkpt lat="34.9014984" lon="32.9284930">
<ele>1079.15</ele>
<time>2015-04-29T13:08:40Z</time>
</trkpt>
<trkpt lat="34.9015121" lon="32.9285467">
<ele>1079.45</ele>
<time>2015-04-29T13:08:41Z</time>
</trkpt>
<trkpt lat="34.9015285" lon="32.9286060">
<ele>1079.11</ele>
<time>2015-04-29T13:08:42Z</time>
</trkpt>
<trkpt lat="34.9015562" lon="32.9286959">
<ele>1080.35</ele>
<time>2015-04-29T13:08:44Z</time>
</trkpt>
<trkpt lat="34.9016124" lon="32.9287629">
<ele>1079.16</ele>
<time>2015-04-29T13:08:46Z</time>
</trkpt>
<trkpt lat="34.9016702" lon="32.9288385">
<ele>1077.86</ele>
<time>2015-04-29T13:08:48Z</time>
</trkpt>
<trkpt lat="34.9017045" lon="32.9288792">
<ele>1076.81</ele>
<time>2015-04-29T13:08:49Z</time>
</trkpt>
<trkpt lat="34.9017408" lon="32.9289185">
<ele>1075.78</ele>
<time>2015-04-29T13:08:50Z</time>
</trkpt>
<trkpt lat="34.9017973" lon="32.9289494">
<ele>1074.77</ele>
<time>2015-04-29T13:08:51Z</time>
</trkpt>
<trkpt lat="34.9018586" lon="32.9289758">
<ele>1073.77</ele>
<time>2015-04-29T13:08:52Z</time>
</trkpt>
<trkpt lat="34.9019228" lon="32.9290088">
<ele>1072.76</ele>
<time>2015-04-29T13:08:53Z</time>
</trkpt>
<trkpt lat="34.9019843" lon="32.9290399">
<ele>1071.76</ele>
<time>2015-04-29T13:08:54Z</time>
</trkpt>
<trkpt lat="34.9020485" lon="32.9290763">
<ele>1071.76</ele>
<time>2015-04-29T13:08:55Z</time>
</trkpt>
<trkpt lat="34.9021308" lon="32.9290838">
<ele>1071.26</ele>
<time>2015-04-29T13:08:56Z</time>
</trkpt>
<trkpt lat="34.9022074" lon="32.9290654">
<ele>1071.01</ele>
<time>2015-04-29T13:08:57Z</time>
</trkpt>
<trkpt lat="34.9022950" lon="32.9290374">
<ele>1069.89</ele>
<time>2015-04-29T13:08:58Z</time>
</trkpt>
<trkpt lat="34.9023785" lon="32.9289975">
<ele>1068.82</ele>
<time>2015-04-29T13:08:59Z</time>
</trkpt>
<trkpt lat="34.9024845" lon="32.9289430">
<ele>1068.29</ele>
<time>2015-04-29T13:09:00Z</time>
</trkpt>
<trkpt lat="34.9025755" lon="32.9288790">
<ele>1068.03</ele>
<time>2015-04-29T13:09:01Z</time>
</trkpt>
<trkpt lat="34.9026554" lon="32.9288169">
<ele>1067.89</ele>
<time>2015-04-29T13:09:02Z</time>
</trkpt>
<trkpt lat="34.9027315" lon="32.9287604">
<ele>1067.83</ele>
<time>2015-04-29T13:09:03Z</time>
</trkpt>
<trkpt lat="34.9028318" lon="32.9287304">
<ele>1067.79</ele>
<time>2015-04-29T13:09:04Z</time>
</trkpt>
<trkpt lat="34.9029290" lon="32.9287404">
<ele>1067.28</ele>
<time>2015-04-29T13:09:05Z</time>
</trkpt>
<trkpt lat="34.9030254" lon="32.9287656">
<ele>1068.52</ele>
<time>2015-04-29T13:09:06Z</time>
</trkpt>
<trkpt lat="34.9031080" lon="32.9288164">
<ele>1070.14</ele>
<time>2015-04-29T13:09:07Z</time>
</trkpt>
<trkpt lat="34.9031910" lon="32.9288699">
<ele>1070.95</ele>
<time>2015-04-29T13:09:08Z</time>
</trkpt>
<trkpt lat="34.9032761" lon="32.9289086">
<ele>1071.35</ele>
<time>2015-04-29T13:09:09Z</time>
</trkpt>
<trkpt lat="34.9033619" lon="32.9289128">
<ele>1071.56</ele>
<time>2015-04-29T13:09:10Z</time>
</trkpt>
<trkpt lat="34.9034553" lon="32.9289139">
<ele>1071.66</ele>
<time>2015-04-29T13:09:11Z</time>
</trkpt>
<trkpt lat="34.9035557" lon="32.9288958">
<ele>1071.21</ele>
<time>2015-04-29T13:09:12Z</time>
</trkpt>
<trkpt lat="34.9036418" lon="32.9288614">
<ele>1071.98</ele>
<time>2015-04-29T13:09:13Z</time>
</trkpt>
<trkpt lat="34.9037251" lon="32.9288330">
<ele>1072.37</ele>
<time>2015-04-29T13:09:14Z</time>
</trkpt>
<trkpt lat="34.9038177" lon="32.9288200">
<ele>1071.57</ele>
<time>2015-04-29T13:09:15Z</time>
</trkpt>
<trkpt lat="34.9039139" lon="32.9288465">
<ele>1071.66</ele>
<time>2015-04-29T13:09:16Z</time>
</trkpt>
<trkpt lat="34.9040048" lon="32.9288700">
<ele>1071.21</ele>
<time>2015-04-29T13:09:17Z</time>
</trkpt>
<trkpt lat="34.9040945" lon="32.9289224">
<ele>1070.49</ele>
<time>2015-04-29T13:09:18Z</time>
</trkpt>
<trkpt lat="34.9041666" lon="32.9289729">
<ele>1069.62</ele>
<time>2015-04-29T13:09:19Z</time>
</trkpt>
<trkpt lat="34.9042105" lon="32.9290389">
<ele>1068.69</ele>
<time>2015-04-29T13:09:20Z</time>
</trkpt>
<trkpt lat="34.9042376" lon="32.9291127">
<ele>1067.73</ele>
<time>2015-04-29T13:09:21Z</time>
</trkpt>
<trkpt lat="34.9042074" lon="32.9291729">
<ele>1066.24</ele>
<time>2015-04-29T13:09:22Z</time>
</trkpt>
<trkpt lat="34.9041797" lon="32.9292381">
<ele>1065.00</ele>
<time>2015-04-29T13:09:23Z</time>
</trkpt>
<trkpt lat="34.9041508" lon="32.9293021">
<ele>1063.88</ele>
<time>2015-04-29T13:09:24Z</time>
</trkpt>
<trkpt lat="34.9041078" lon="32.9293708">
<ele>1062.82</ele>
<time>2015-04-29T13:09:25Z</time>
</trkpt>
<trkpt lat="34.9040792" lon="32.9294449">
<ele>1061.79</ele>
<time>2015-04-29T13:09:26Z</time>
</trkpt>
<trkpt lat="34.9040508" lon="32.9295094">
<ele>1061.78</ele>
<time>2015-04-29T13:09:27Z</time>
</trkpt>
<trkpt lat="34.9040274" lon="32.9295805">
<ele>1061.77</ele>
<time>2015-04-29T13:09:28Z</time>
</trkpt>
<trkpt lat="34.9039988" lon="32.9296467">
<ele>1060.76</ele>
<time>2015-04-29T13:09:29Z</time>
</trkpt>
<trkpt lat="34.9039696" lon="32.9297124">
<ele>1059.76</ele>
<time>2015-04-29T13:09:30Z</time>
</trkpt>
<trkpt lat="34.9039382" lon="32.9297872">
<ele>1058.26</ele>
<time>2015-04-29T13:09:31Z</time>
</trkpt>
<trkpt lat="34.9039018" lon="32.9298559">
<ele>1057.51</ele>
<time>2015-04-29T13:09:32Z</time>
</trkpt>
<trkpt lat="34.9038649" lon="32.9299246">
<ele>1057.14</ele>
<time>2015-04-29T13:09:33Z</time>
</trkpt>
<trkpt lat="34.9038206" lon="32.9299922">
<ele>1056.95</ele>
<time>2015-04-29T13:09:34Z</time>
</trkpt>
<trkpt lat="34.9037849" lon="32.9300640">
<ele>1056.85</ele>
<time>2015-04-29T13:09:35Z</time>
</trkpt>
<trkpt lat="34.9037446" lon="32.9301477">
<ele>1057.31</ele>
<time>2015-04-29T13:09:36Z</time>
</trkpt>
<trkpt lat="34.9037329" lon="32.9302345">
<ele>1056.03</ele>
<time>2015-04-29T13:09:37Z</time>
</trkpt>
<trkpt lat="34.9037342" lon="32.9303308">
<ele>1055.40</ele>
<time>2015-04-29T13:09:38Z</time>
</trkpt>
<trkpt lat="34.9037534" lon="32.9304059">
<ele>1055.08</ele>
<time>2015-04-29T13:09:39Z</time>
</trkpt>
<trkpt lat="34.9037913" lon="32.9304906">
<ele>1053.92</ele>
<time>2015-04-29T13:09:40Z</time>
</trkpt>
<trkpt lat="34.9038391" lon="32.9305659">
<ele>1053.34</ele>
<time>2015-04-29T13:09:41Z</time>
</trkpt>
<trkpt lat="34.9038775" lon="32.9306365">
<ele>1053.55</ele>
<time>2015-04-29T13:09:42Z</time>
</trkpt>
<trkpt lat="34.9039217" lon="32.9307080">
<ele>1053.65</ele>
<time>2015-04-29T13:09:43Z</time>
</trkpt>
<trkpt lat="34.9039732" lon="32.9307694">
<ele>1053.21</ele>
<time>2015-04-29T13:09:44Z</time>
</trkpt>
<trkpt lat="34.9040182" lon="32.9308454">
<ele>1052.98</ele>
<time>2015-04-29T13:09:45Z</time>
</trkpt>
<trkpt lat="34.9040696" lon="32.9309123">
<ele>1052.37</ele>
<time>2015-04-29T13:09:46Z</time>
</trkpt>
<trkpt lat="34.9041109" lon="32.9309714">
<ele>1052.07</ele>
<time>2015-04-29T13:09:47Z</time>
</trkpt>
<trkpt lat="34.9041527" lon="32.9310318">
<ele>1051.91</ele>
<time>2015-04-29T13:09:48Z</time>
</trkpt>
<trkpt lat="34.9042113" lon="32.9310857">
<ele>1052.34</ele>
<time>2015-04-29T13:09:49Z</time>
</trkpt>
<trkpt lat="34.9042674" lon="32.9311474">
<ele>1053.55</ele>
<time>2015-04-29T13:09:50Z</time>
</trkpt>
<trkpt lat="34.9043283" lon="32.9311983">
<ele>1053.65</ele>
<time>2015-04-29T13:09:51Z</time>
</trkpt>
<trkpt lat="34.9043971" lon="32.9312380">
<ele>1052.71</ele>
<time>2015-04-29T13:09:52Z</time>
</trkpt>
<trkpt lat="34.9044601" lon="32.9312673">
<ele>1052.23</ele>
<time>2015-04-29T13:09:53Z</time>
</trkpt>
<trkpt lat="34.9045213" lon="32.9312851">
<ele>1052.50</ele>
<time>2015-04-29T13:09:54Z</time>
</trkpt>
<trkpt lat="34.9045871" lon="32.9312918">
<ele>1052.63</ele>
<time>2015-04-29T13:09:55Z</time>
</trkpt>
<trkpt lat="34.9046542" lon="32.9312978">
<ele>1053.19</ele>
<time>2015-04-29T13:09:56Z</time>
</trkpt>
<trkpt lat="34.9047191" lon="32.9313079">
<ele>1053.48</ele>
<time>2015-04-29T13:09:57Z</time>
</trkpt>
<trkpt lat="34.9047852" lon="32.9313134">
<ele>1053.12</ele>
<time>2015-04-29T13:09:58Z</time>
</trkpt>
<trkpt lat="34.9048456" lon="32.9313328">
<ele>1052.94</ele>
<time>2015-04-29T13:09:59Z</time>
</trkpt>
<trkpt lat="34.9049100" lon="32.9313499">
<ele>1052.85</ele>
<time>2015-04-29T13:10:00Z</time>
</trkpt>
<trkpt lat="34.9049711" lon="32.9313700">
<ele>1051.80</ele>
<time>2015-04-29T13:10:01Z</time>
</trkpt>
<trkpt lat="34.9050318" lon="32.9313903">
<ele>1051.28</ele>
<time>2015-04-29T13:10:02Z</time>
</trkpt>
<trkpt lat="34.9050900" lon="32.9314080">
<ele>1051.52</ele>
<time>2015-04-29T13:10:03Z</time>
</trkpt>
<trkpt lat="34.9051460" lon="32.9314076">
<ele>1051.14</ele>
<time>2015-04-29T13:10:04Z</time>
</trkpt>
<trkpt lat="34.9051992" lon="32.9314003">
<ele>1050.95</ele>
<time>2015-04-29T13:10:05Z</time>
</trkpt>
<trkpt lat="34.9052598" lon="32.9313967">
<ele>1049.86</ele>
<time>2015-04-29T13:10:06Z</time>
</trkpt>
<trkpt lat="34.9053118" lon="32.9313926">
<ele>1050.31</ele>
<time>2015-04-29T13:10:07Z</time>
</trkpt>
<trkpt lat="34.9053675" lon="32.9313806">
<ele>1051.03</ele>
<time>2015-04-29T13:10:08Z</time>
</trkpt>
<trkpt lat="34.9054204" lon="32.9313730">
<ele>1050.90</ele>
<time>2015-04-29T13:10:09Z</time>
</trkpt>
<trkpt lat="34.9054744" lon="32.9313686">
<ele>1051.33</ele>
<time>2015-04-29T13:10:10Z</time>
</trkpt>
<trkpt lat="34.9055269" lon="32.9313723">
<ele>1052.54</ele>
<time>2015-04-29T13:10:11Z</time>
</trkpt>
<trkpt lat="34.9055694" lon="32.9313950">
<ele>1052.65</ele>
<time>2015-04-29T13:10:12Z</time>
</trkpt>
<trkpt lat="34.9056269" lon="32.9314648">
<ele>1053.98</ele>
<time>2015-04-29T13:10:14Z</time>
</trkpt>
<trkpt lat="34.9056427" lon="32.9315725">
<ele>1053.82</ele>
<time>2015-04-29T13:10:16Z</time>
</trkpt>
<trkpt lat="34.9056352" lon="32.9316695">
<ele>1053.52</ele>
<time>2015-04-29T13:10:18Z</time>
</trkpt>
<trkpt lat="34.9056207" lon="32.9317751">
<ele>1052.95</ele>
<time>2015-04-29T13:10:20Z</time>
</trkpt>
<trkpt lat="34.9056018" lon="32.9318708">
<ele>1053.81</ele>
<time>2015-04-29T13:10:22Z</time>
</trkpt>
<trkpt lat="34.9055806" lon="32.9319576">
<ele>1052.52</ele>
<time>2015-04-29T13:10:24Z</time>
</trkpt>
<trkpt lat="34.9055597" lon="32.9320485">
<ele>1053.95</ele>
<time>2015-04-29T13:10:26Z</time>
</trkpt>
<trkpt lat="34.9055376" lon="32.9321443">
<ele>1055.31</ele>
<time>2015-04-29T13:10:28Z</time>
</trkpt>
<trkpt lat="34.9055222" lon="32.9322414">
<ele>1056.15</ele>
<time>2015-04-29T13:10:30Z</time>
</trkpt>
<trkpt lat="34.9055178" lon="32.9323390">
<ele>1055.86</ele>
<time>2015-04-29T13:10:32Z</time>
</trkpt>
<trkpt lat="34.9055405" lon="32.9324318">
<ele>1056.53</ele>
<time>2015-04-29T13:10:34Z</time>
</trkpt>
<trkpt lat="34.9055729" lon="32.9325237">
<ele>1056.20</ele>
<time>2015-04-29T13:10:36Z</time>
</trkpt>
<trkpt lat="34.9056042" lon="32.9326112">
<ele>1055.62</ele>
<time>2015-04-29T13:10:38Z</time>
</trkpt>
<trkpt lat="34.9056359" lon="32.9326976">
<ele>1057.98</ele>
<time>2015-04-29T13:10:40Z</time>
</trkpt>
<trkpt lat="34.9056657" lon="32.9327815">
<ele>1058.56</ele>
<time>2015-04-29T13:10:42Z</time>
</trkpt>
<trkpt lat="34.9056946" lon="32.9328658">
<ele>1056.46</ele>
<time>2015-04-29T13:10:44Z</time>
</trkpt>
<trkpt lat="34.9057188" lon="32.9329475">
<ele>1055.94</ele>
<time>2015-04-29T13:10:46Z</time>
</trkpt>
<trkpt lat="34.9057329" lon="32.9330224">
<ele>1055.80</ele>
<time>2015-04-29T13:10:48Z</time>
</trkpt>
<trkpt lat="34.9057505" lon="32.9330794">
<ele>1055.27</ele>
<time>2015-04-29T13:10:50Z</time>
</trkpt>
<trkpt lat="34.9057795" lon="32.9331491">
<ele>1054.32</ele>
<time>2015-04-29T13:10:53Z</time>
</trkpt>
<trkpt lat="34.9058038" lon="32.9332201">
<ele>1054.08</ele>
<time>2015-04-29T13:10:56Z</time>
</trkpt>
<trkpt lat="34.9058274" lon="32.9332720">
<ele>1053.84</ele>
<time>2015-04-29T13:10:58Z</time>
</trkpt>
<trkpt lat="34.9058424" lon="32.9333540">
<ele>1055.28</ele>
<time>2015-04-29T13:11:00Z</time>
</trkpt>
<trkpt lat="34.9058559" lon="32.9334414">
<ele>1055.64</ele>
<time>2015-04-29T13:11:02Z</time>
</trkpt>
<trkpt lat="34.9058774" lon="32.9335330">
<ele>1053.73</ele>
<time>2015-04-29T13:11:04Z</time>
</trkpt>
<trkpt lat="34.9058991" lon="32.9336185">
<ele>1052.00</ele>
<time>2015-04-29T13:11:06Z</time>
</trkpt>
<trkpt lat="34.9059144" lon="32.9336985">
<ele>1052.57</ele>
<time>2015-04-29T13:11:08Z</time>
</trkpt>
<trkpt lat="34.9059234" lon="32.9337624">
<ele>1054.21</ele>
<time>2015-04-29T13:11:10Z</time>
</trkpt>
<trkpt lat="34.9059304" lon="32.9338420">
<ele>1053.44</ele>
<time>2015-04-29T13:11:13Z</time>
</trkpt>
<trkpt lat="34.9059304" lon="32.9339052">
<ele>1052.43</ele>
<time>2015-04-29T13:11:15Z</time>
</trkpt>
<trkpt lat="34.9059374" lon="32.9339798">
<ele>1053.93</ele>
<time>2015-04-29T13:11:17Z</time>
</trkpt>
<trkpt lat="34.9059515" lon="32.9340594">
<ele>1056.55</ele>
<time>2015-04-29T13:11:19Z</time>
</trkpt>
<trkpt lat="34.9059685" lon="32.9341435">
<ele>1057.71</ele>
<time>2015-04-29T13:11:21Z</time>
</trkpt>
<trkpt lat="34.9059970" lon="32.9342208">
<ele>1059.25</ele>
<time>2015-04-29T13:11:23Z</time>
</trkpt>
<trkpt lat="34.9060398" lon="32.9342868">
<ele>1058.38</ele>
<time>2015-04-29T13:11:25Z</time>
</trkpt>
<trkpt lat="34.9060934" lon="32.9343387">
<ele>1058.67</ele>
<time>2015-04-29T13:11:27Z</time>
</trkpt>
<trkpt lat="34.9061554" lon="32.9343843">
<ele>1059.49</ele>
<time>2015-04-29T13:11:29Z</time>
</trkpt>
<trkpt lat="34.9062251" lon="32.9344208">
<ele>1059.19</ele>
<time>2015-04-29T13:11:31Z</time>
</trkpt>
<trkpt lat="34.9062975" lon="32.9344447">
<ele>1058.87</ele>
<time>2015-04-29T13:11:33Z</time>
</trkpt>
<trkpt lat="34.9063762" lon="32.9344761">
<ele>1058.79</ele>
<time>2015-04-29T13:11:35Z</time>
</trkpt>
<trkpt lat="34.9064195" lon="32.9344982">
<ele>1059.27</ele>
<time>2015-04-29T13:11:36Z</time>
</trkpt>
<trkpt lat="34.9064701" lon="32.9345424">
<ele>1060.02</ele>
<time>2015-04-29T13:11:37Z</time>
</trkpt>
<trkpt lat="34.9065251" lon="32.9345967">
<ele>1060.07</ele>
<time>2015-04-29T13:11:39Z</time>
</trkpt>
<trkpt lat="34.9065836" lon="32.9346409">
<ele>1060.09</ele>
<time>2015-04-29T13:11:41Z</time>
</trkpt>
<trkpt lat="34.9066428" lon="32.9346970">
<ele>1059.09</ele>
<time>2015-04-29T13:11:43Z</time>
</trkpt>
<trkpt lat="34.9066786" lon="32.9347324">
<ele>1058.93</ele>
<time>2015-04-29T13:11:44Z</time>
</trkpt>
<trkpt lat="34.9067488" lon="32.9347932">
<ele>1058.55</ele>
<time>2015-04-29T13:11:46Z</time>
</trkpt>
<trkpt lat="34.9068290" lon="32.9348322">
<ele>1059.21</ele>
<time>2015-04-29T13:11:48Z</time>
</trkpt>
<trkpt lat="34.9069181" lon="32.9348416">
<ele>1059.62</ele>
<time>2015-04-29T13:11:50Z</time>
</trkpt>
<trkpt lat="34.9070116" lon="32.9348227">
<ele>1060.98</ele>
<time>2015-04-29T13:11:52Z</time>
</trkpt>
<trkpt lat="34.9070600" lon="32.9348091">
<ele>1061.37</ele>
<time>2015-04-29T13:11:53Z</time>
</trkpt>
<trkpt lat="34.9071057" lon="32.9348010">
<ele>1062.06</ele>
<time>2015-04-29T13:11:54Z</time>
</trkpt>
<trkpt lat="34.9071569" lon="32.9347844">
<ele>1061.91</ele>
<time>2015-04-29T13:11:55Z</time>
</trkpt>
<trkpt lat="34.9072085" lon="32.9347782">
<ele>1061.84</ele>
<time>2015-04-29T13:11:56Z</time>
</trkpt>
<trkpt lat="34.9072608" lon="32.9347811">
<ele>1062.30</ele>
<time>2015-04-29T13:11:57Z</time>
</trkpt>
<trkpt lat="34.9073134" lon="32.9347808">
<ele>1062.53</ele>
<time>2015-04-29T13:11:58Z</time>
</trkpt>
<trkpt lat="34.9073768" lon="32.9347689">
<ele>1062.14</ele>
<time>2015-04-29T13:11:59Z</time>
</trkpt>
<trkpt lat="34.9074510" lon="32.9347573">
<ele>1061.45</ele>
<time>2015-04-29T13:12:00Z</time>
</trkpt>
<trkpt lat="34.9075042" lon="32.9347509">
<ele>1061.61</ele>
<time>2015-04-29T13:12:01Z</time>
</trkpt>
<trkpt lat="34.9075625" lon="32.9347513">
<ele>1061.18</ele>
<time>2015-04-29T13:12:02Z</time>
</trkpt>
<trkpt lat="34.9076669" lon="32.9347755">
<ele>1060.87</ele>
<time>2015-04-29T13:12:04Z</time>
</trkpt>
<trkpt lat="34.9077201" lon="32.9347885">
<ele>1060.81</ele>
<time>2015-04-29T13:12:05Z</time>
</trkpt>
<trkpt lat="34.9077792" lon="32.9347987">
<ele>1060.79</ele>
<time>2015-04-29T13:12:06Z</time>
</trkpt>
<trkpt lat="34.9078399" lon="32.9348109">
<ele>1060.77</ele>
<time>2015-04-29T13:12:07Z</time>
</trkpt>
<trkpt lat="34.9079087" lon="32.9348191">
<ele>1060.77</ele>
<time>2015-04-29T13:12:08Z</time>
</trkpt>
<trkpt lat="34.9079648" lon="32.9348337">
<ele>1060.76</ele>
<time>2015-04-29T13:12:09Z</time>
</trkpt>
<trkpt lat="34.9080284" lon="32.9348431">
<ele>1060.26</ele>
<time>2015-04-29T13:12:10Z</time>
</trkpt>
<trkpt lat="34.9081037" lon="32.9348283">
<ele>1059.01</ele>
<time>2015-04-29T13:12:11Z</time>
</trkpt>
<trkpt lat="34.9081777" lon="32.9348216">
<ele>1057.89</ele>
<time>2015-04-29T13:12:12Z</time>
</trkpt>
<trkpt lat="34.9082508" lon="32.9348327">
<ele>1056.82</ele>
<time>2015-04-29T13:12:13Z</time>
</trkpt>
<trkpt lat="34.9083212" lon="32.9348345">
<ele>1056.29</ele>
<time>2015-04-29T13:12:14Z</time>
</trkpt>
<trkpt lat="34.9083976" lon="32.9348252">
<ele>1057.53</ele>
<time>2015-04-29T13:12:15Z</time>
</trkpt>
<trkpt lat="34.9084722" lon="32.9348128">
<ele>1058.14</ele>
<time>2015-04-29T13:12:16Z</time>
</trkpt>
<trkpt lat="34.9085477" lon="32.9347936">
<ele>1058.45</ele>
<time>2015-04-29T13:12:17Z</time>
</trkpt>
<trkpt lat="34.9086217" lon="32.9347846">
<ele>1057.61</ele>
<time>2015-04-29T13:12:18Z</time>
</trkpt>
<trkpt lat="34.9087061" lon="32.9347800">
<ele>1056.68</ele>
<time>2015-04-29T13:12:19Z</time>
</trkpt>
<trkpt lat="34.9087883" lon="32.9348196">
<ele>1055.72</ele>
<time>2015-04-29T13:12:20Z</time>
</trkpt>
<trkpt lat="34.9088470" lon="32.9348724">
<ele>1054.24</ele>
<time>2015-04-29T13:12:21Z</time>
</trkpt>
<trkpt lat="34.9088764" lon="32.9349485">
<ele>1053.00</ele>
<time>2015-04-29T13:12:22Z</time>
</trkpt>
<trkpt lat="34.9089034" lon="32.9350462">
<ele>1052.88</ele>
<time>2015-04-29T13:12:23Z</time>
</trkpt>
<trkpt lat="34.9089145" lon="32.9351358">
<ele>1051.82</ele>
<time>2015-04-29T13:12:24Z</time>
</trkpt>
<trkpt lat="34.9089114" lon="32.9352172">
<ele>1051.29</ele>
<time>2015-04-29T13:12:25Z</time>
</trkpt>
<trkpt lat="34.9088941" lon="32.9353015">
<ele>1050.53</ele>
<time>2015-04-29T13:12:26Z</time>
</trkpt>
<trkpt lat="34.9088787" lon="32.9353862">
<ele>1050.14</ele>
<time>2015-04-29T13:12:27Z</time>
</trkpt>
<trkpt lat="34.9088814" lon="32.9354598">
<ele>1050.45</ele>
<time>2015-04-29T13:12:28Z</time>
</trkpt>
<trkpt lat="34.9088801" lon="32.9355439">
<ele>1050.61</ele>
<time>2015-04-29T13:12:29Z</time>
</trkpt>
<trkpt lat="34.9089114" lon="32.9356115">
<ele>1049.68</ele>
<time>2015-04-29T13:12:30Z</time>
</trkpt>
<trkpt lat="34.9089620" lon="32.9356762">
<ele>1049.72</ele>
<time>2015-04-29T13:12:31Z</time>
</trkpt>
<trkpt lat="34.9090259" lon="32.9357287">
<ele>1050.24</ele>
<time>2015-04-29T13:12:32Z</time>
</trkpt>
<trkpt lat="34.9090925" lon="32.9357668">
<ele>1050.00</ele>
<time>2015-04-29T13:12:33Z</time>
</trkpt>
<trkpt lat="34.9091582" lon="32.9358105">
<ele>1048.88</ele>
<time>2015-04-29T13:12:34Z</time>
</trkpt>
<trkpt lat="34.9092210" lon="32.9358646">
<ele>1047.32</ele>
<time>2015-04-29T13:12:35Z</time>
</trkpt>
<trkpt lat="34.9092806" lon="32.9359282">
<ele>1046.54</ele>
<time>2015-04-29T13:12:36Z</time>
</trkpt>
<trkpt lat="34.9093349" lon="32.9359915">
<ele>1045.15</ele>
<time>2015-04-29T13:12:37Z</time>
</trkpt>
<trkpt lat="34.9093899" lon="32.9360674">
<ele>1044.95</ele>
<time>2015-04-29T13:12:38Z</time>
</trkpt>
<trkpt lat="34.9094456" lon="32.9361422">
<ele>1044.86</ele>
<time>2015-04-29T13:12:39Z</time>
</trkpt>
<trkpt lat="34.9095115" lon="32.9362021">
<ele>1044.31</ele>
<time>2015-04-29T13:12:40Z</time>
</trkpt>
<trkpt lat="34.9095871" lon="32.9362402">
<ele>1045.03</ele>
<time>2015-04-29T13:12:41Z</time>
</trkpt>
<trkpt lat="34.9096702" lon="32.9362734">
<ele>1044.90</ele>
<time>2015-04-29T13:12:42Z</time>
</trkpt>
<trkpt lat="34.9097643" lon="32.9362986">
<ele>1044.83</ele>
<time>2015-04-29T13:12:43Z</time>
</trkpt>
<trkpt lat="34.9098484" lon="32.9363183">
<ele>1045.29</ele>
<time>2015-04-29T13:12:44Z</time>
</trkpt>
<trkpt lat="34.9099394" lon="32.9363279">
<ele>1044.53</ele>
<time>2015-04-29T13:12:45Z</time>
</trkpt>
<trkpt lat="34.9100361" lon="32.9363340">
<ele>1043.64</ele>
<time>2015-04-29T13:12:46Z</time>
</trkpt>
<trkpt lat="34.9101331" lon="32.9363518">
<ele>1042.70</ele>
<time>2015-04-29T13:12:47Z</time>
</trkpt>
<trkpt lat="34.9102293" lon="32.9363894">
<ele>1042.73</ele>
<time>2015-04-29T13:12:48Z</time>
</trkpt>
<trkpt lat="34.9103236" lon="32.9364533">
<ele>1042.75</ele>
<time>2015-04-29T13:12:49Z</time>
</trkpt>
<trkpt lat="34.9104054" lon="32.9365131">
<ele>1042.25</ele>
<time>2015-04-29T13:12:50Z</time>
</trkpt>
<trkpt lat="34.9104948" lon="32.9365882">
<ele>1041.51</ele>
<time>2015-04-29T13:12:51Z</time>
</trkpt>
<trkpt lat="34.9105804" lon="32.9366709">
<ele>1041.13</ele>
<time>2015-04-29T13:12:52Z</time>
</trkpt>
<trkpt lat="34.9106710" lon="32.9367556">
<ele>1040.45</ele>
<time>2015-04-29T13:12:53Z</time>
</trkpt>
<trkpt lat="34.9107453" lon="32.9368566">
<ele>1039.60</ele>
<time>2015-04-29T13:12:54Z</time>
</trkpt>
<trkpt lat="34.9108200" lon="32.9369604">
<ele>1038.68</ele>
<time>2015-04-29T13:12:55Z</time>
</trkpt>
<trkpt lat="34.9108883" lon="32.9370702">
<ele>1037.72</ele>
<time>2015-04-29T13:12:56Z</time>
</trkpt>
<trkpt lat="34.9109579" lon="32.9371898">
<ele>1036.74</ele>
<time>2015-04-29T13:12:57Z</time>
</trkpt>
<trkpt lat="34.9110202" lon="32.9373060">
<ele>1035.75</ele>
<time>2015-04-29T13:12:58Z</time>
</trkpt>
<trkpt lat="34.9110647" lon="32.9374344">
<ele>1035.76</ele>
<time>2015-04-29T13:12:59Z</time>
</trkpt>
<trkpt lat="34.9111125" lon="32.9375635">
<ele>1035.26</ele>
<time>2015-04-29T13:13:00Z</time>
</trkpt>
<trkpt lat="34.9111512" lon="32.9376939">
<ele>1034.51</ele>
<time>2015-04-29T13:13:01Z</time>
</trkpt>
<trkpt lat="34.9111843" lon="32.9378263">
<ele>1034.13</ele>
<time>2015-04-29T13:13:02Z</time>
</trkpt>
<trkpt lat="34.9112141" lon="32.9379710">
<ele>1033.45</ele>
<time>2015-04-29T13:13:03Z</time>
</trkpt>
<trkpt lat="34.9112408" lon="32.9381238">
<ele>1032.10</ele>
<time>2015-04-29T13:13:04Z</time>
</trkpt>
<trkpt lat="34.9112451" lon="32.9382722">
<ele>1031.43</ele>
<time>2015-04-29T13:13:05Z</time>
</trkpt>
<trkpt lat="34.9112335" lon="32.9384227">
<ele>1031.60</ele>
<time>2015-04-29T13:13:06Z</time>
</trkpt>
<trkpt lat="34.9112185" lon="32.9385670">
<ele>1032.18</ele>
<time>2015-04-29T13:13:07Z</time>
</trkpt>
<trkpt lat="34.9112120" lon="32.9387281">
<ele>1031.47</ele>
<time>2015-04-29T13:13:08Z</time>
</trkpt>
<trkpt lat="34.9112012" lon="32.9388716">
<ele>1030.11</ele>
<time>2015-04-29T13:13:09Z</time>
</trkpt>
<trkpt lat="34.9111932" lon="32.9390147">
<ele>1028.44</ele>
<time>2015-04-29T13:13:10Z</time>
</trkpt>
<trkpt lat="34.9111911" lon="32.9391498">
<ele>1026.60</ele>
<time>2015-04-29T13:13:11Z</time>
</trkpt>
<trkpt lat="34.9111820" lon="32.9392948">
<ele>1025.18</ele>
<time>2015-04-29T13:13:12Z</time>
</trkpt>
<trkpt lat="34.9111793" lon="32.9394213">
<ele>1023.97</ele>
<time>2015-04-29T13:13:13Z</time>
</trkpt>
<trkpt lat="34.9111760" lon="32.9395425">
<ele>1021.86</ele>
<time>2015-04-29T13:13:14Z</time>
</trkpt>
<trkpt lat="34.9111948" lon="32.9396713">
<ele>1020.81</ele>
<time>2015-04-29T13:13:15Z</time>
</trkpt>
<trkpt lat="34.9112298" lon="32.9397733">
<ele>1019.79</ele>
<time>2015-04-29T13:13:16Z</time>
</trkpt>
<trkpt lat="34.9112752" lon="32.9398660">
<ele>1018.77</ele>
<time>2015-04-29T13:13:17Z</time>
</trkpt>
<trkpt lat="34.9113182" lon="32.9399229">
<ele>1018.27</ele>
<time>2015-04-29T13:13:18Z</time>
</trkpt>
<trkpt lat="34.9113815" lon="32.9399454">
<ele>1017.51</ele>
<time>2015-04-29T13:13:19Z</time>
</trkpt>
<trkpt lat="34.9114522" lon="32.9399282">
<ele>1015.14</ele>
<time>2015-04-29T13:13:20Z</time>
</trkpt>
<trkpt lat="34.9115248" lon="32.9399041">
<ele>1013.45</ele>
<time>2015-04-29T13:13:21Z</time>
</trkpt>
<trkpt lat="34.9115954" lon="32.9398770">
<ele>1012.60</ele>
<time>2015-04-29T13:13:22Z</time>
</trkpt>
<trkpt lat="34.9116648" lon="32.9398580">
<ele>1013.18</ele>
<time>2015-04-29T13:13:23Z</time>
</trkpt>
<trkpt lat="34.9117477" lon="32.9398282">
<ele>1012.97</ele>
<time>2015-04-29T13:13:24Z</time>
</trkpt>
<trkpt lat="34.9118294" lon="32.9397945">
<ele>1013.37</ele>
<time>2015-04-29T13:13:25Z</time>
</trkpt>
<trkpt lat="34.9119086" lon="32.9397498">
<ele>1013.56</ele>
<time>2015-04-29T13:13:26Z</time>
</trkpt>
<trkpt lat="34.9119882" lon="32.9396997">
<ele>1013.66</ele>
<time>2015-04-29T13:13:27Z</time>
</trkpt>
<trkpt lat="34.9120578" lon="32.9396307">
<ele>1013.21</ele>
<time>2015-04-29T13:13:28Z</time>
</trkpt>
<trkpt lat="34.9121226" lon="32.9395610">
<ele>1012.99</ele>
<time>2015-04-29T13:13:29Z</time>
</trkpt>
<trkpt lat="34.9121840" lon="32.9394822">
<ele>1012.87</ele>
<time>2015-04-29T13:13:30Z</time>
</trkpt>
<trkpt lat="34.9122307" lon="32.9393873">
<ele>1012.32</ele>
<time>2015-04-29T13:13:31Z</time>
</trkpt>
<trkpt lat="34.9122748" lon="32.9392724">
<ele>1011.54</ele>
<time>2015-04-29T13:13:32Z</time>
</trkpt>
<trkpt lat="34.9122988" lon="32.9391576">
<ele>1010.65</ele>
<time>2015-04-29T13:13:33Z</time>
</trkpt>
<trkpt lat="34.9123309" lon="32.9390468">
<ele>1010.20</ele>
<time>2015-04-29T13:13:34Z</time>
</trkpt>
<trkpt lat="34.9123807" lon="32.9389309">
<ele>1009.98</ele>
<time>2015-04-29T13:13:35Z</time>
</trkpt>
<trkpt lat="34.9124409" lon="32.9388174">
<ele>1009.87</ele>
<time>2015-04-29T13:13:36Z</time>
</trkpt>
<trkpt lat="34.9125029" lon="32.9387221">
<ele>1009.32</ele>
<time>2015-04-29T13:13:37Z</time>
</trkpt>
<trkpt lat="34.9125856" lon="32.9386595">
<ele>1008.54</ele>
<time>2015-04-29T13:13:38Z</time>
</trkpt>
<trkpt lat="34.9126506" lon="32.9386102">
<ele>1007.65</ele>
<time>2015-04-29T13:13:39Z</time>
</trkpt>
<trkpt lat="34.9127162" lon="32.9385890">
<ele>1006.70</ele>
<time>2015-04-29T13:13:40Z</time>
</trkpt>
<trkpt lat="34.9127758" lon="32.9385935">
<ele>1006.23</ele>
<time>2015-04-29T13:13:41Z</time>
</trkpt>
<trkpt lat="34.9128319" lon="32.9386275">
<ele>1005.50</ele>
<time>2015-04-29T13:13:42Z</time>
</trkpt>
<trkpt lat="34.9128730" lon="32.9386619">
<ele>1005.13</ele>
<time>2015-04-29T13:13:43Z</time>
</trkpt>
<trkpt lat="34.9129186" lon="32.9386798">
<ele>1004.94</ele>
<time>2015-04-29T13:13:44Z</time>
</trkpt>
<trkpt lat="34.9129574" lon="32.9387213">
<ele>1004.85</ele>
<time>2015-04-29T13:13:45Z</time>
</trkpt>
<trkpt lat="34.9130138" lon="32.9387745">
<ele>1004.52</ele>
<time>2015-04-29T13:13:48Z</time>
</trkpt>
<trkpt lat="34.9130650" lon="32.9388034">
<ele>1004.73</ele>
<time>2015-04-29T13:13:51Z</time>
</trkpt>
<trkpt lat="34.9131197" lon="32.9388068">
<ele>1005.25</ele>
<time>2015-04-29T13:13:53Z</time>
</trkpt>
<trkpt lat="34.9131883" lon="32.9387964">
<ele>1006.13</ele>
<time>2015-04-29T13:13:55Z</time>
</trkpt>
<trkpt lat="34.9132804" lon="32.9387914">
<ele>1006.35</ele>
<time>2015-04-29T13:13:57Z</time>
</trkpt>
<trkpt lat="34.9133341" lon="32.9387834">
<ele>1006.56</ele>
<time>2015-04-29T13:13:58Z</time>
</trkpt>
<trkpt lat="34.9133892" lon="32.9387807">
<ele>1007.16</ele>
<time>2015-04-29T13:13:59Z</time>
</trkpt>
<trkpt lat="34.9134431" lon="32.9387783">
<ele>1007.46</ele>
<time>2015-04-29T13:14:00Z</time>
</trkpt>
<trkpt lat="34.9134986" lon="32.9387958">
<ele>1008.11</ele>
<time>2015-04-29T13:14:01Z</time>
</trkpt>
<trkpt lat="34.9135628" lon="32.9388169">
<ele>1007.43</ele>
<time>2015-04-29T13:14:02Z</time>
</trkpt>
<trkpt lat="34.9136282" lon="32.9388466">
<ele>1007.10</ele>
<time>2015-04-29T13:14:03Z</time>
</trkpt>
<trkpt lat="34.9136986" lon="32.9388733">
<ele>1006.43</ele>
<time>2015-04-29T13:14:04Z</time>
</trkpt>
<trkpt lat="34.9137608" lon="32.9389017">
<ele>1006.09</ele>
<time>2015-04-29T13:14:05Z</time>
</trkpt>
<trkpt lat="34.9138199" lon="32.9389282">
<ele>1006.43</ele>
<time>2015-04-29T13:14:06Z</time>
</trkpt>
<trkpt lat="34.9138786" lon="32.9389512">
<ele>1007.59</ele>
<time>2015-04-29T13:14:07Z</time>
</trkpt>
<trkpt lat="34.9139390" lon="32.9389592">
<ele>1008.18</ele>
<time>2015-04-29T13:14:08Z</time>
</trkpt>
<trkpt lat="34.9139931" lon="32.9389532">
<ele>1008.47</ele>
<time>2015-04-29T13:14:09Z</time>
</trkpt>
<trkpt lat="34.9140515" lon="32.9389168">
<ele>1008.11</ele>
<time>2015-04-29T13:14:10Z</time>
</trkpt>
<trkpt lat="34.9141051" lon="32.9388649">
<ele>1007.44</ele>
<time>2015-04-29T13:14:11Z</time>
</trkpt>
<trkpt lat="34.9141619" lon="32.9388095">
<ele>1006.60</ele>
<time>2015-04-29T13:14:12Z</time>
</trkpt>
<trkpt lat="34.9142186" lon="32.9387531">
<ele>1005.68</ele>
<time>2015-04-29T13:14:13Z</time>
</trkpt>
<trkpt lat="34.9142745" lon="32.9386960">
<ele>1005.22</ele>
<time>2015-04-29T13:14:14Z</time>
</trkpt>
<trkpt lat="34.9143390" lon="32.9386605">
<ele>1003.99</ele>
<time>2015-04-29T13:14:15Z</time>
</trkpt>
<trkpt lat="34.9144006" lon="32.9386130">
<ele>1002.87</ele>
<time>2015-04-29T13:14:16Z</time>
</trkpt>
<trkpt lat="34.9144671" lon="32.9385909">
<ele>1002.32</ele>
<time>2015-04-29T13:14:17Z</time>
</trkpt>
<trkpt lat="34.9145354" lon="32.9385730">
<ele>1001.54</ele>
<time>2015-04-29T13:14:18Z</time>
</trkpt>
<trkpt lat="34.9145880" lon="32.9385444">
<ele>1001.65</ele>
<time>2015-04-29T13:14:19Z</time>
</trkpt>
<trkpt lat="34.9146443" lon="32.9385143">
<ele>1001.70</ele>
<time>2015-04-29T13:14:20Z</time>
</trkpt>
<trkpt lat="34.9146508" lon="32.9384405">
<ele>1001.73</ele>
<time>2015-04-29T13:14:21Z</time>
</trkpt>
<trkpt lat="34.9146653" lon="32.9383831">
<ele>1000.75</ele>
<time>2015-04-29T13:14:22Z</time>
</trkpt>
<trkpt lat="34.9146663" lon="32.9383166">
<ele>1000.25</ele>
<time>2015-04-29T13:14:23Z</time>
</trkpt>
<trkpt lat="34.9146264" lon="32.9382518">
<ele>1000.51</ele>
<time>2015-04-29T13:14:24Z</time>
</trkpt>
<trkpt lat="34.9146150" lon="32.9381808">
<ele>999.63</ele>
<time>2015-04-29T13:14:25Z</time>
</trkpt>
<trkpt lat="34.9146061" lon="32.9380902">
<ele>998.70</ele>
<time>2015-04-29T13:14:26Z</time>
</trkpt>
<trkpt lat="34.9146195" lon="32.9380181">
<ele>996.73</ele>
<time>2015-04-29T13:14:27Z</time>
</trkpt>
<trkpt lat="34.9146280" lon="32.9379452">
<ele>995.24</ele>
<time>2015-04-29T13:14:28Z</time>
</trkpt>
<trkpt lat="34.9146581" lon="32.9378713">
<ele>994.00</ele>
<time>2015-04-29T13:14:29Z</time>
</trkpt>
<trkpt lat="34.9147006" lon="32.9378220">
<ele>993.38</ele>
<time>2015-04-29T13:14:30Z</time>
</trkpt>
<trkpt lat="34.9147446" lon="32.9377558">
<ele>992.57</ele>
<time>2015-04-29T13:14:31Z</time>
</trkpt>
<trkpt lat="34.9147805" lon="32.9376905">
<ele>991.17</ele>
<time>2015-04-29T13:14:32Z</time>
</trkpt>
<trkpt lat="34.9148059" lon="32.9376065">
<ele>989.46</ele>
<time>2015-04-29T13:14:33Z</time>
</trkpt>
<trkpt lat="34.9148197" lon="32.9375241">
<ele>988.61</ele>
<time>2015-04-29T13:14:34Z</time>
</trkpt>
<trkpt lat="34.9147964" lon="32.9374380">
<ele>986.69</ele>
<time>2015-04-29T13:14:35Z</time>
</trkpt>
<trkpt lat="34.9148108" lon="32.9373634">
<ele>986.22</ele>
<time>2015-04-29T13:14:36Z</time>
</trkpt>
<trkpt lat="34.9148353" lon="32.9373040">
<ele>985.49</ele>
<time>2015-04-29T13:14:37Z</time>
</trkpt>
<trkpt lat="34.9148594" lon="32.9372542">
<ele>984.63</ele>
<time>2015-04-29T13:14:38Z</time>
</trkpt>
<trkpt lat="34.9149048" lon="32.9372141">
<ele>984.19</ele>
<time>2015-04-29T13:14:39Z</time>
</trkpt>
<trkpt lat="34.9149449" lon="32.9371854">
<ele>983.98</ele>
<time>2015-04-29T13:14:40Z</time>
</trkpt>
<trkpt lat="34.9149880" lon="32.9371663">
<ele>983.87</ele>
<time>2015-04-29T13:14:41Z</time>
</trkpt>
<trkpt lat="34.9150332" lon="32.9371427">
<ele>983.81</ele>
<time>2015-04-29T13:14:42Z</time>
</trkpt>
<trkpt lat="34.9151100" lon="32.9371044">
<ele>984.27</ele>
<time>2015-04-29T13:14:44Z</time>
</trkpt>
<trkpt lat="34.9151600" lon="32.9370800">
<ele>983.52</ele>
<time>2015-04-29T13:14:45Z</time>
</trkpt>
<trkpt lat="34.9152130" lon="32.9370766">
<ele>982.64</ele>
<time>2015-04-29T13:14:46Z</time>
</trkpt>
<trkpt lat="34.9152646" lon="32.9370794">
<ele>983.20</ele>
<time>2015-04-29T13:14:47Z</time>
</trkpt>
<trkpt lat="34.9153146" lon="32.9370883">
<ele>984.98</ele>
<time>2015-04-29T13:14:48Z</time>
</trkpt>
<trkpt lat="34.9153599" lon="32.9370854">
<ele>986.91</ele>
<time>2015-04-29T13:14:51Z</time>
</trkpt>
<trkpt lat="34.9154151" lon="32.9370841">
<ele>985.77</ele>
<time>2015-04-29T13:15:09Z</time>
</trkpt>
<trkpt lat="34.9154722" lon="32.9370418">
<ele>983.76</ele>
<time>2015-04-29T13:15:11Z</time>
</trkpt>
<trkpt lat="34.9155398" lon="32.9369447">
<ele>981.01</ele>
<time>2015-04-29T13:15:13Z</time>
</trkpt>
<trkpt lat="34.9155594" lon="32.9368706">
<ele>980.39</ele>
<time>2015-04-29T13:15:14Z</time>
</trkpt>
<trkpt lat="34.9155819" lon="32.9367997">
<ele>979.57</ele>
<time>2015-04-29T13:15:15Z</time>
</trkpt>
<trkpt lat="34.9156037" lon="32.9367271">
<ele>979.17</ele>
<time>2015-04-29T13:15:16Z</time>
</trkpt>
<trkpt lat="34.9156370" lon="32.9366612">
<ele>978.96</ele>
<time>2015-04-29T13:15:17Z</time>
</trkpt>
<trkpt lat="34.9156694" lon="32.9366176">
<ele>978.36</ele>
<time>2015-04-29T13:15:18Z</time>
</trkpt>
<trkpt lat="34.9157390" lon="32.9365891">
<ele>978.41</ele>
<time>2015-04-29T13:15:20Z</time>
</trkpt>
<trkpt lat="34.9158202" lon="32.9366079">
<ele>977.67</ele>
<time>2015-04-29T13:15:22Z</time>
</trkpt>
<trkpt lat="34.9158793" lon="32.9366349">
<ele>976.99</ele>
<time>2015-04-29T13:15:24Z</time>
</trkpt>
<trkpt lat="34.9159393" lon="32.9367014">
<ele>976.07</ele>
<time>2015-04-29T13:15:26Z</time>
</trkpt>
<trkpt lat="34.9159823" lon="32.9367762">
<ele>976.59</ele>
<time>2015-04-29T13:15:28Z</time>
</trkpt>
<trkpt lat="34.9160258" lon="32.9368421">
<ele>974.97</ele>
<time>2015-04-29T13:15:30Z</time>
</trkpt>
<trkpt lat="34.9160741" lon="32.9369154">
<ele>976.81</ele>
<time>2015-04-29T13:15:32Z</time>
</trkpt>
<trkpt lat="34.9161196" lon="32.9369805">
<ele>976.27</ele>
<time>2015-04-29T13:15:34Z</time>
</trkpt>
<trkpt lat="34.9161748" lon="32.9370353">
<ele>975.39</ele>
<time>2015-04-29T13:15:36Z</time>
</trkpt>
<trkpt lat="34.9162320" lon="32.9370818">
<ele>975.92</ele>
<time>2015-04-29T13:15:38Z</time>
</trkpt>
<trkpt lat="34.9162882" lon="32.9371292">
<ele>976.05</ele>
<time>2015-04-29T13:15:40Z</time>
</trkpt>
<trkpt lat="34.9163394" lon="32.9371776">
<ele>975.83</ele>
<time>2015-04-29T13:15:42Z</time>
</trkpt>
<trkpt lat="34.9163926" lon="32.9372298">
<ele>976.78</ele>
<time>2015-04-29T13:15:44Z</time>
</trkpt>
<trkpt lat="34.9164532" lon="32.9372761">
<ele>978.01</ele>
<time>2015-04-29T13:15:46Z</time>
</trkpt>
<trkpt lat="34.9165301" lon="32.9372869">
<ele>977.82</ele>
<time>2015-04-29T13:15:48Z</time>
</trkpt>
<trkpt lat="34.9165926" lon="32.9372593">
<ele>977.79</ele>
<time>2015-04-29T13:15:49Z</time>
</trkpt>
<trkpt lat="34.9166377" lon="32.9372333">
<ele>978.28</ele>
<time>2015-04-29T13:15:50Z</time>
</trkpt>
<trkpt lat="34.9166789" lon="32.9372110">
<ele>978.02</ele>
<time>2015-04-29T13:15:51Z</time>
</trkpt>
<trkpt lat="34.9167353" lon="32.9371914">
<ele>977.39</ele>
<time>2015-04-29T13:15:52Z</time>
</trkpt>
<trkpt lat="34.9168291" lon="32.9371455">
<ele>976.92</ele>
<time>2015-04-29T13:15:54Z</time>
</trkpt>
<trkpt lat="34.9168874" lon="32.9371315">
<ele>978.84</ele>
<time>2015-04-29T13:15:55Z</time>
</trkpt>
<trkpt lat="34.9169368" lon="32.9371143">
<ele>980.30</ele>
<time>2015-04-29T13:15:56Z</time>
</trkpt>
<trkpt lat="34.9169909" lon="32.9370844">
<ele>981.03</ele>
<time>2015-04-29T13:15:57Z</time>
</trkpt>
<trkpt lat="34.9170445" lon="32.9370553">
<ele>981.39</ele>
<time>2015-04-29T13:15:58Z</time>
</trkpt>
<trkpt lat="34.9171303" lon="32.9370260">
<ele>983.17</ele>
<time>2015-04-29T13:16:00Z</time>
</trkpt>
<trkpt lat="34.9171927" lon="32.9370177">
<ele>983.86</ele>
<time>2015-04-29T13:16:02Z</time>
</trkpt>
<trkpt lat="34.9172402" lon="32.9370030">
<ele>983.52</ele>
<time>2015-04-29T13:16:05Z</time>
</trkpt>
<trkpt lat="34.9172852" lon="32.9369872">
<ele>984.36</ele>
<time>2015-04-29T13:16:08Z</time>
</trkpt>
<trkpt lat="34.9173268" lon="32.9370258">
<ele>991.22</ele>
<time>2015-04-29T13:16:58Z</time>
</trkpt>
<trkpt lat="34.9173874" lon="32.9370346">
<ele>990.10</ele>
<time>2015-04-29T13:17:02Z</time>
</trkpt>
<trkpt lat="34.9174500" lon="32.9370335">
<ele>988.05</ele>
<time>2015-04-29T13:17:05Z</time>
</trkpt>
<trkpt lat="34.9175121" lon="32.9370348">
<ele>987.80</ele>
<time>2015-04-29T13:17:08Z</time>
</trkpt>
<trkpt lat="34.9175654" lon="32.9370400">
<ele>988.01</ele>
<time>2015-04-29T13:17:11Z</time>
</trkpt>
<trkpt lat="34.9175131" lon="32.9370596">
<ele>986.24</ele>
<time>2015-04-29T13:17:16Z</time>
</trkpt>
<trkpt lat="34.9174469" lon="32.9370406">
<ele>986.69</ele>
<time>2015-04-29T13:17:19Z</time>
</trkpt>
<trkpt lat="34.9174002" lon="32.9370004">
<ele>986.99</ele>
<time>2015-04-29T13:17:21Z</time>
</trkpt>
<trkpt lat="34.9173811" lon="32.9369409">
<ele>987.32</ele>
<time>2015-04-29T13:17:23Z</time>
</trkpt>
<trkpt lat="34.9173881" lon="32.9368834">
<ele>986.90</ele>
<time>2015-04-29T13:17:25Z</time>
</trkpt>
<trkpt lat="34.9174050" lon="32.9368183">
<ele>984.03</ele>
<time>2015-04-29T13:17:28Z</time>
</trkpt>
<trkpt lat="34.9174251" lon="32.9367669">
<ele>980.29</ele>
<time>2015-04-29T13:17:31Z</time>
</trkpt>
<trkpt lat="34.9174551" lon="32.9367236">
<ele>979.08</ele>
<time>2015-04-29T13:17:34Z</time>
</trkpt>
<trkpt lat="34.9174901" lon="32.9366734">
<ele>979.53</ele>
<time>2015-04-29T13:17:38Z</time>
</trkpt>
<trkpt lat="34.9175177" lon="32.9366269">
<ele>980.25</ele>
<time>2015-04-29T13:17:42Z</time>
</trkpt>
<trkpt lat="34.9175524" lon="32.9365871">
<ele>981.98</ele>
<time>2015-04-29T13:17:46Z</time>
</trkpt>
<trkpt lat="34.9175788" lon="32.9365392">
<ele>982.84</ele>
<time>2015-04-29T13:17:50Z</time>
</trkpt>
<trkpt lat="34.9176188" lon="32.9364917">
<ele>984.11</ele>
<time>2015-04-29T13:17:55Z</time>
</trkpt>
<trkpt lat="34.9176526" lon="32.9364384">
<ele>987.90</ele>
<time>2015-04-29T13:18:00Z</time>
</trkpt>
<trkpt lat="34.9176839" lon="32.9363950">
<ele>989.64</ele>
<time>2015-04-29T13:18:04Z</time>
</trkpt>
<trkpt lat="34.9177172" lon="32.9363471">
<ele>989.75</ele>
<time>2015-04-29T13:18:08Z</time>
</trkpt>
<trkpt lat="34.9177473" lon="32.9363037">
<ele>990.63</ele>
<time>2015-04-29T13:18:12Z</time>
</trkpt>
<trkpt lat="34.9177831" lon="32.9362618">
<ele>989.38</ele>
<time>2015-04-29T13:18:16Z</time>
</trkpt>
<trkpt lat="34.9178233" lon="32.9362151">
<ele>991.55</ele>
<time>2015-04-29T13:18:20Z</time>
</trkpt>
<trkpt lat="34.9178688" lon="32.9361697">
<ele>992.81</ele>
<time>2015-04-29T13:18:24Z</time>
</trkpt>
<trkpt lat="34.9179109" lon="32.9361217">
<ele>992.76</ele>
<time>2015-04-29T13:18:28Z</time>
</trkpt>
<trkpt lat="34.9179527" lon="32.9360729">
<ele>991.89</ele>
<time>2015-04-29T13:18:32Z</time>
</trkpt>
<trkpt lat="34.9179931" lon="32.9360227">
<ele>992.02</ele>
<time>2015-04-29T13:18:36Z</time>
</trkpt>
<trkpt lat="34.9180378" lon="32.9359816">
<ele>991.78</ele>
<time>2015-04-29T13:18:40Z</time>
</trkpt>
<trkpt lat="34.9180767" lon="32.9359330">
<ele>989.89</ele>
<time>2015-04-29T13:18:44Z</time>
</trkpt>
<trkpt lat="34.9181099" lon="32.9358879">
<ele>990.64</ele>
<time>2015-04-29T13:18:48Z</time>
</trkpt>
<trkpt lat="34.9181439" lon="32.9358329">
<ele>990.13</ele>
<time>2015-04-29T13:18:52Z</time>
</trkpt>
<trkpt lat="34.9181778" lon="32.9357805">
<ele>991.85</ele>
<time>2015-04-29T13:18:56Z</time>
</trkpt>
<trkpt lat="34.9182133" lon="32.9357355">
<ele>994.95</ele>
<time>2015-04-29T13:19:00Z</time>
</trkpt>
<trkpt lat="34.9182507" lon="32.9356852">
<ele>998.40</ele>
<time>2015-04-29T13:19:04Z</time>
</trkpt>
<trkpt lat="34.9182793" lon="32.9356400">
<ele>1000.96</ele>
<time>2015-04-29T13:19:07Z</time>
</trkpt>
<trkpt lat="34.9183087" lon="32.9355968">
<ele>1002.16</ele>
<time>2015-04-29T13:19:10Z</time>
</trkpt>
<trkpt lat="34.9183415" lon="32.9355590">
<ele>1003.19</ele>
<time>2015-04-29T13:19:13Z</time>
</trkpt>
<trkpt lat="34.9183687" lon="32.9355110">
<ele>1005.19</ele>
<time>2015-04-29T13:19:16Z</time>
</trkpt>
<trkpt lat="34.9184141" lon="32.9354648">
<ele>1009.60</ele>
<time>2015-04-29T13:19:20Z</time>
</trkpt>
<trkpt lat="34.9184615" lon="32.9354205">
<ele>1011.25</ele>
<time>2015-04-29T13:19:24Z</time>
</trkpt>
<trkpt lat="34.9184981" lon="32.9353867">
<ele>1011.95</ele>
<time>2015-04-29T13:19:27Z</time>
</trkpt>
<trkpt lat="34.9185320" lon="32.9353466">
<ele>1009.03</ele>
<time>2015-04-29T13:19:30Z</time>
</trkpt>
<trkpt lat="34.9185610" lon="32.9353017">
<ele>1008.92</ele>
<time>2015-04-29T13:19:33Z</time>
</trkpt>
<trkpt lat="34.9185937" lon="32.9352607">
<ele>1010.03</ele>
<time>2015-04-29T13:19:36Z</time>
</trkpt>
<trkpt lat="34.9186324" lon="32.9352059">
<ele>1006.84</ele>
<time>2015-04-29T13:19:40Z</time>
</trkpt>
<trkpt lat="34.9186599" lon="32.9351583">
<ele>1006.64</ele>
<time>2015-04-29T13:19:43Z</time>
</trkpt>
<trkpt lat="34.9186921" lon="32.9351155">
<ele>1006.37</ele>
<time>2015-04-29T13:19:46Z</time>
</trkpt>
<trkpt lat="34.9187278" lon="32.9350786">
<ele>1003.46</ele>
<time>2015-04-29T13:19:49Z</time>
</trkpt>
<trkpt lat="34.9187620" lon="32.9350381">
<ele>1001.97</ele>
<time>2015-04-29T13:19:52Z</time>
</trkpt>
<trkpt lat="34.9187936" lon="32.9349943">
<ele>1003.79</ele>
<time>2015-04-29T13:19:55Z</time>
</trkpt>
<trkpt lat="34.9188360" lon="32.9349506">
<ele>1005.51</ele>
<time>2015-04-29T13:19:58Z</time>
</trkpt>
<trkpt lat="34.9188821" lon="32.9349184">
<ele>1005.23</ele>
<time>2015-04-29T13:20:01Z</time>
</trkpt>
<trkpt lat="34.9189366" lon="32.9348837">
<ele>1005.57</ele>
<time>2015-04-29T13:20:04Z</time>
</trkpt>
<trkpt lat="34.9189881" lon="32.9348319">
<ele>1004.49</ele>
<time>2015-04-29T13:20:07Z</time>
</trkpt>
<trkpt lat="34.9190289" lon="32.9347833">
<ele>1000.85</ele>
<time>2015-04-29T13:20:10Z</time>
</trkpt>
<trkpt lat="34.9190680" lon="32.9348147">
<ele>995.41</ele>
<time>2015-04-29T13:20:23Z</time>
</trkpt>
<trkpt lat="34.9190478" lon="32.9348659">
<ele>999.31</ele>
<time>2015-04-29T13:20:32Z</time>
</trkpt>
<trkpt lat="34.9190050" lon="32.9348880">
<ele>1003.26</ele>
<time>2015-04-29T13:21:33Z</time>
</trkpt>
<trkpt lat="34.9190477" lon="32.9348699">
<ele>991.76</ele>
<time>2015-04-29T13:25:13Z</time>
</trkpt>
<trkpt lat="34.9191345" lon="32.9349433">
<ele>963.76</ele>
<time>2015-04-29T13:49:45Z</time>
</trkpt>
<trkpt lat="34.9190897" lon="32.9349102">
<ele>972.26</ele>
<time>2015-04-29T13:49:47Z</time>
</trkpt>
<trkpt lat="34.9190572" lon="32.9348718">
<ele>980.39</ele>
<time>2015-04-29T13:50:01Z</time>
</trkpt>
<trkpt lat="34.9190207" lon="32.9348313">
<ele>992.00</ele>
<time>2015-04-29T13:50:46Z</time>
</trkpt>
<trkpt lat="34.9190325" lon="32.9347778">
<ele>998.95</ele>
<time>2015-04-29T13:52:59Z</time>
</trkpt>
<trkpt lat="34.9190874" lon="32.9347478">
<ele>997.80</ele>
<time>2015-04-29T13:53:04Z</time>
</trkpt>
<trkpt lat="34.9191269" lon="32.9347033">
<ele>997.27</ele>
<time>2015-04-29T13:53:06Z</time>
</trkpt>
<trkpt lat="34.9191686" lon="32.9346736">
<ele>997.39</ele>
<time>2015-04-29T13:53:08Z</time>
</trkpt>
<trkpt lat="34.9192228" lon="32.9346495">
<ele>997.71</ele>
<time>2015-04-29T13:53:11Z</time>
</trkpt>
<trkpt lat="34.9192768" lon="32.9346235">
<ele>997.75</ele>
<time>2015-04-29T13:53:14Z</time>
</trkpt>
<trkpt lat="34.9193381" lon="32.9345986">
<ele>997.26</ele>
<time>2015-04-29T13:53:17Z</time>
</trkpt>
<trkpt lat="34.9193837" lon="32.9345805">
<ele>997.38</ele>
<time>2015-04-29T13:53:19Z</time>
</trkpt>
<trkpt lat="34.9194314" lon="32.9345644">
<ele>997.67</ele>
<time>2015-04-29T13:53:21Z</time>
</trkpt>
<trkpt lat="34.9194837" lon="32.9345460">
<ele>996.99</ele>
<time>2015-04-29T13:53:23Z</time>
</trkpt>
<trkpt lat="34.9195366" lon="32.9345259">
<ele>996.07</ele>
<time>2015-04-29T13:53:25Z</time>
</trkpt>
<trkpt lat="34.9195844" lon="32.9345084">
<ele>995.84</ele>
<time>2015-04-29T13:53:27Z</time>
</trkpt>
<trkpt lat="34.9196326" lon="32.9344847">
<ele>996.78</ele>
<time>2015-04-29T13:53:29Z</time>
</trkpt>
<trkpt lat="34.9196876" lon="32.9344628">
<ele>997.01</ele>
<time>2015-04-29T13:53:31Z</time>
</trkpt>
<trkpt lat="34.9197666" lon="32.9344468">
<ele>996.07</ele>
<time>2015-04-29T13:53:33Z</time>
</trkpt>
<trkpt lat="34.9198462" lon="32.9344473">
<ele>995.59</ele>
<time>2015-04-29T13:53:35Z</time>
</trkpt>
<trkpt lat="34.9199280" lon="32.9344657">
<ele>996.97</ele>
<time>2015-04-29T13:53:37Z</time>
</trkpt>
<trkpt lat="34.9200121" lon="32.9345107">
<ele>996.81</ele>
<time>2015-04-29T13:53:39Z</time>
</trkpt>
<trkpt lat="34.9200710" lon="32.9345606">
<ele>996.79</ele>
<time>2015-04-29T13:53:40Z</time>
</trkpt>
<trkpt lat="34.9201108" lon="32.9345949">
<ele>996.77</ele>
<time>2015-04-29T13:53:41Z</time>
</trkpt>
<trkpt lat="34.9201572" lon="32.9346275">
<ele>996.27</ele>
<time>2015-04-29T13:53:42Z</time>
</trkpt>
<trkpt lat="34.9202006" lon="32.9346632">
<ele>996.51</ele>
<time>2015-04-29T13:53:43Z</time>
</trkpt>
<trkpt lat="34.9202427" lon="32.9346982">
<ele>997.14</ele>
<time>2015-04-29T13:53:44Z</time>
</trkpt>
<trkpt lat="34.9203020" lon="32.9347485">
<ele>997.85</ele>
<time>2015-04-29T13:53:46Z</time>
</trkpt>
<trkpt lat="34.9203638" lon="32.9348142">
<ele>997.78</ele>
<time>2015-04-29T13:53:48Z</time>
</trkpt>
<trkpt lat="34.9204278" lon="32.9348778">
<ele>997.02</ele>
<time>2015-04-29T13:53:50Z</time>
</trkpt>
<trkpt lat="34.9204842" lon="32.9349315">
<ele>996.07</ele>
<time>2015-04-29T13:53:52Z</time>
</trkpt>
<trkpt lat="34.9205425" lon="32.9349960">
<ele>995.84</ele>
<time>2015-04-29T13:53:54Z</time>
</trkpt>
<trkpt lat="34.9205884" lon="32.9350653">
<ele>997.03</ele>
<time>2015-04-29T13:53:56Z</time>
</trkpt>
<trkpt lat="34.9206196" lon="32.9351360">
<ele>997.33</ele>
<time>2015-04-29T13:53:58Z</time>
</trkpt>
<trkpt lat="34.9206251" lon="32.9352124">
<ele>998.33</ele>
<time>2015-04-29T13:54:01Z</time>
</trkpt>
<trkpt lat="34.9206360" lon="32.9352935">
<ele>998.96</ele>
<time>2015-04-29T13:54:04Z</time>
</trkpt>
<trkpt lat="34.9206408" lon="32.9353542">
<ele>998.31</ele>
<time>2015-04-29T13:54:06Z</time>
</trkpt>
<trkpt lat="34.9206412" lon="32.9354162">
<ele>998.40</ele>
<time>2015-04-29T13:54:08Z</time>
</trkpt>
<trkpt lat="34.9206450" lon="32.9354767">
<ele>998.17</ele>
<time>2015-04-29T13:54:10Z</time>
</trkpt>
<trkpt lat="34.9206509" lon="32.9355344">
<ele>997.86</ele>
<time>2015-04-29T13:54:12Z</time>
</trkpt>
<trkpt lat="34.9206633" lon="32.9355887">
<ele>997.79</ele>
<time>2015-04-29T13:54:14Z</time>
</trkpt>
<trkpt lat="34.9206865" lon="32.9356402">
<ele>996.77</ele>
<time>2015-04-29T13:54:16Z</time>
</trkpt>
<trkpt lat="34.9207186" lon="32.9356828">
<ele>996.01</ele>
<time>2015-04-29T13:54:18Z</time>
</trkpt>
<trkpt lat="34.9207670" lon="32.9357112">
<ele>996.29</ele>
<time>2015-04-29T13:54:21Z</time>
</trkpt>
<trkpt lat="34.9208122" lon="32.9357367">
<ele>995.95</ele>
<time>2015-04-29T13:54:24Z</time>
</trkpt>
<trkpt lat="34.9208573" lon="32.9357530">
<ele>996.53</ele>
<time>2015-04-29T13:54:27Z</time>
</trkpt>
<trkpt lat="34.9209084" lon="32.9357556">
<ele>996.73</ele>
<time>2015-04-29T13:54:30Z</time>
</trkpt>
<trkpt lat="34.9209653" lon="32.9357442">
<ele>998.63</ele>
<time>2015-04-29T13:54:34Z</time>
</trkpt>
<trkpt lat="34.9210197" lon="32.9357619">
<ele>1000.38</ele>
<time>2015-04-29T13:54:38Z</time>
</trkpt>
<trkpt lat="34.9210704" lon="32.9357687">
<ele>1002.86</ele>
<time>2015-04-29T13:54:42Z</time>
</trkpt>
<trkpt lat="34.9211152" lon="32.9357548">
<ele>1001.52</ele>
<time>2015-04-29T13:54:45Z</time>
</trkpt>
<trkpt lat="34.9211613" lon="32.9357570">
<ele>1002.23</ele>
<time>2015-04-29T13:54:48Z</time>
</trkpt>
<trkpt lat="34.9212074" lon="32.9357593">
<ele>1002.69</ele>
<time>2015-04-29T13:54:51Z</time>
</trkpt>
<trkpt lat="34.9212522" lon="32.9357648">
<ele>1002.50</ele>
<time>2015-04-29T13:54:54Z</time>
</trkpt>
<trkpt lat="34.9212973" lon="32.9357790">
<ele>1003.23</ele>
<time>2015-04-29T13:54:57Z</time>
</trkpt>
<trkpt lat="34.9213455" lon="32.9358023">
<ele>1004.98</ele>
<time>2015-04-29T13:55:01Z</time>
</trkpt>
<trkpt lat="34.9213966" lon="32.9358297">
<ele>1006.02</ele>
<time>2015-04-29T13:55:05Z</time>
</trkpt>
<trkpt lat="34.9214378" lon="32.9358524">
<ele>1006.67</ele>
<time>2015-04-29T13:55:08Z</time>
</trkpt>
<trkpt lat="34.9214911" lon="32.9358808">
<ele>1006.63</ele>
<time>2015-04-29T13:55:12Z</time>
</trkpt>
<trkpt lat="34.9215415" lon="32.9359099">
<ele>1006.06</ele>
<time>2015-04-29T13:55:16Z</time>
</trkpt>
<trkpt lat="34.9215863" lon="32.9359266">
<ele>1005.80</ele>
<time>2015-04-29T13:55:19Z</time>
</trkpt>
<trkpt lat="34.9216313" lon="32.9359572">
<ele>1006.51</ele>
<time>2015-04-29T13:55:22Z</time>
</trkpt>
<trkpt lat="34.9216746" lon="32.9359875">
<ele>1007.60</ele>
<time>2015-04-29T13:55:25Z</time>
</trkpt>
<trkpt lat="34.9217192" lon="32.9360113">
<ele>1007.74</ele>
<time>2015-04-29T13:55:28Z</time>
</trkpt>
<trkpt lat="34.9217615" lon="32.9360408">
<ele>1008.51</ele>
<time>2015-04-29T13:55:31Z</time>
</trkpt>
<trkpt lat="34.9218065" lon="32.9360690">
<ele>1008.73</ele>
<time>2015-04-29T13:55:34Z</time>
</trkpt>
<trkpt lat="34.9218506" lon="32.9360950">
<ele>1008.76</ele>
<time>2015-04-29T13:55:37Z</time>
</trkpt>
<trkpt lat="34.9219034" lon="32.9361208">
<ele>1010.13</ele>
<time>2015-04-29T13:55:40Z</time>
</trkpt>
<trkpt lat="34.9219539" lon="32.9361481">
<ele>1011.56</ele>
<time>2015-04-29T13:55:43Z</time>
</trkpt>
<trkpt lat="34.9220082" lon="32.9361734">
<ele>1012.61</ele>
<time>2015-04-29T13:55:46Z</time>
</trkpt>
<trkpt lat="34.9220610" lon="32.9361978">
<ele>1012.99</ele>
<time>2015-04-29T13:55:49Z</time>
</trkpt>
<trkpt lat="34.9221124" lon="32.9362197">
<ele>1014.16</ele>
<time>2015-04-29T13:55:52Z</time>
</trkpt>
<trkpt lat="34.9221636" lon="32.9362303">
<ele>1013.81</ele>
<time>2015-04-29T13:55:55Z</time>
</trkpt>
<trkpt lat="34.9222092" lon="32.9362358">
<ele>1014.14</ele>
<time>2015-04-29T13:55:58Z</time>
</trkpt>
<trkpt lat="34.9222629" lon="32.9362454">
<ele>1014.66</ele>
<time>2015-04-29T13:56:02Z</time>
</trkpt>
<trkpt lat="34.9223186" lon="32.9362502">
<ele>1014.79</ele>
<time>2015-04-29T13:56:07Z</time>
</trkpt>
<trkpt lat="34.9223703" lon="32.9362471">
<ele>1014.76</ele>
<time>2015-04-29T13:56:11Z</time>
</trkpt>
<trkpt lat="34.9224248" lon="32.9362329">
<ele>1014.26</ele>
<time>2015-04-29T13:56:15Z</time>
</trkpt>
<trkpt lat="34.9224768" lon="32.9362199">
<ele>1013.60</ele>
<time>2015-04-29T13:56:19Z</time>
</trkpt>
<trkpt lat="34.9225296" lon="32.9361982">
<ele>1014.97</ele>
<time>2015-04-29T13:56:24Z</time>
</trkpt>
<trkpt lat="34.9225782" lon="32.9361691">
<ele>1016.14</ele>
<time>2015-04-29T13:56:29Z</time>
</trkpt>
<trkpt lat="34.9226188" lon="32.9361421">
<ele>1015.78</ele>
<time>2015-04-29T13:56:33Z</time>
</trkpt>
<trkpt lat="34.9226549" lon="32.9361017">
<ele>1015.76</ele>
<time>2015-04-29T13:56:37Z</time>
</trkpt>
<trkpt lat="34.9226942" lon="32.9360655">
<ele>1016.70</ele>
<time>2015-04-29T13:56:41Z</time>
</trkpt>
<trkpt lat="34.9227278" lon="32.9360234">
<ele>1017.51</ele>
<time>2015-04-29T13:56:45Z</time>
</trkpt>
<trkpt lat="34.9227557" lon="32.9359748">
<ele>1017.68</ele>
<time>2015-04-29T13:56:49Z</time>
</trkpt>
<trkpt lat="34.9227933" lon="32.9359350">
<ele>1017.76</ele>
<time>2015-04-29T13:56:53Z</time>
</trkpt>
<trkpt lat="34.9228278" lon="32.9358959">
<ele>1019.20</ele>
<time>2015-04-29T13:56:57Z</time>
</trkpt>
<trkpt lat="34.9228676" lon="32.9358539">
<ele>1020.60</ele>
<time>2015-04-29T13:57:01Z</time>
</trkpt>
<trkpt lat="34.9229068" lon="32.9358114">
<ele>1021.50</ele>
<time>2015-04-29T13:57:05Z</time>
</trkpt>
<trkpt lat="34.9229437" lon="32.9357688">
<ele>1022.68</ele>
<time>2015-04-29T13:57:09Z</time>
</trkpt>
<trkpt lat="34.9229783" lon="32.9357260">
<ele>1022.69</ele>
<time>2015-04-29T13:57:13Z</time>
</trkpt>
<trkpt lat="34.9230168" lon="32.9356953">
<ele>1022.76</ele>
<time>2015-04-29T13:57:17Z</time>
</trkpt>
<trkpt lat="34.9230562" lon="32.9356561">
<ele>1023.63</ele>
<time>2015-04-29T13:57:22Z</time>
</trkpt>
<trkpt lat="34.9230893" lon="32.9356102">
<ele>1026.37</ele>
<time>2015-04-29T13:57:28Z</time>
</trkpt>
<trkpt lat="34.9231311" lon="32.9355700">
<ele>1028.50</ele>
<time>2015-04-29T13:57:35Z</time>
</trkpt>
<trkpt lat="34.9231686" lon="32.9355270">
<ele>1029.72</ele>
<time>2015-04-29T13:57:40Z</time>
</trkpt>
<trkpt lat="34.9232002" lon="32.9354868">
<ele>1029.70</ele>
<time>2015-04-29T13:57:44Z</time>
</trkpt>
<trkpt lat="34.9232426" lon="32.9354610">
<ele>1028.63</ele>
<time>2015-04-29T13:57:48Z</time>
</trkpt>
<trkpt lat="34.9232974" lon="32.9354424">
<ele>1027.88</ele>
<time>2015-04-29T13:57:52Z</time>
</trkpt>
<trkpt lat="34.9233456" lon="32.9354184">
<ele>1028.64</ele>
<time>2015-04-29T13:57:56Z</time>
</trkpt>
<trkpt lat="34.9233917" lon="32.9353918">
<ele>1030.50</ele>
<time>2015-04-29T13:58:00Z</time>
</trkpt>
<trkpt lat="34.9234370" lon="32.9353659">
<ele>1031.62</ele>
<time>2015-04-29T13:58:04Z</time>
</trkpt>
<trkpt lat="34.9234799" lon="32.9353490">
<ele>1031.81</ele>
<time>2015-04-29T13:58:08Z</time>
</trkpt>
<trkpt lat="34.9235254" lon="32.9353266">
<ele>1034.11</ele>
<time>2015-04-29T13:58:13Z</time>
</trkpt>
<trkpt lat="34.9235792" lon="32.9353236">
<ele>1035.61</ele>
<time>2015-04-29T13:58:18Z</time>
</trkpt>
<trkpt lat="34.9236210" lon="32.9353000">
<ele>1035.06</ele>
<time>2015-04-29T13:58:22Z</time>
</trkpt>
<trkpt lat="34.9236601" lon="32.9352688">
<ele>1034.34</ele>
<time>2015-04-29T13:58:26Z</time>
</trkpt>
<trkpt lat="34.9237109" lon="32.9352454">
<ele>1034.50</ele>
<time>2015-04-29T13:58:31Z</time>
</trkpt>
<trkpt lat="34.9237606" lon="32.9352183">
<ele>1035.50</ele>
<time>2015-04-29T13:58:36Z</time>
</trkpt>
<trkpt lat="34.9238059" lon="32.9351968">
<ele>1036.24</ele>
<time>2015-04-29T13:58:40Z</time>
</trkpt>
<trkpt lat="34.9238518" lon="32.9351723">
<ele>1035.98</ele>
<time>2015-04-29T13:58:44Z</time>
</trkpt>
<trkpt lat="34.9238972" lon="32.9351454">
<ele>1036.15</ele>
<time>2015-04-29T13:58:48Z</time>
</trkpt>
<trkpt lat="34.9239442" lon="32.9351209">
<ele>1036.53</ele>
<time>2015-04-29T13:58:52Z</time>
</trkpt>
<trkpt lat="34.9239968" lon="32.9351042">
<ele>1036.75</ele>
<time>2015-04-29T13:58:56Z</time>
</trkpt>
<trkpt lat="34.9240488" lon="32.9350842">
<ele>1036.38</ele>
<time>2015-04-29T13:59:00Z</time>
</trkpt>
<trkpt lat="34.9240896" lon="32.9350512">
<ele>1037.49</ele>
<time>2015-04-29T13:59:04Z</time>
</trkpt>
<trkpt lat="34.9241449" lon="32.9350360">
<ele>1037.49</ele>
<time>2015-04-29T13:59:08Z</time>
</trkpt>
<trkpt lat="34.9242014" lon="32.9350150">
<ele>1038.24</ele>
<time>2015-04-29T13:59:12Z</time>
</trkpt>
<trkpt lat="34.9242553" lon="32.9349887">
<ele>1038.73</ele>
<time>2015-04-29T13:59:16Z</time>
</trkpt>
<trkpt lat="34.9243056" lon="32.9349657">
<ele>1038.26</ele>
<time>2015-04-29T13:59:20Z</time>
</trkpt>
<trkpt lat="34.9243523" lon="32.9349437">
<ele>1038.48</ele>
<time>2015-04-29T13:59:24Z</time>
</trkpt>
<trkpt lat="34.9243991" lon="32.9349236">
<ele>1037.99</ele>
<time>2015-04-29T13:59:28Z</time>
</trkpt>
<trkpt lat="34.9244465" lon="32.9349045">
<ele>1038.96</ele>
<time>2015-04-29T13:59:32Z</time>
</trkpt>
<trkpt lat="34.9244916" lon="32.9348777">
<ele>1037.71</ele>
<time>2015-04-29T13:59:36Z</time>
</trkpt>
<trkpt lat="34.9245373" lon="32.9348549">
<ele>1037.88</ele>
<time>2015-04-29T13:59:40Z</time>
</trkpt>
<trkpt lat="34.9245838" lon="32.9348363">
<ele>1038.71</ele>
<time>2015-04-29T13:59:44Z</time>
</trkpt>
<trkpt lat="34.9246302" lon="32.9348034">
<ele>1039.26</ele>
<time>2015-04-29T13:59:49Z</time>
</trkpt>
<trkpt lat="34.9246745" lon="32.9347801">
<ele>1039.79</ele>
<time>2015-04-29T13:59:53Z</time>
</trkpt>
<trkpt lat="34.9247322" lon="32.9347785">
<ele>1041.32</ele>
<time>2015-04-29T13:59:57Z</time>
</trkpt>
<trkpt lat="34.9247868" lon="32.9347608">
<ele>1041.92</ele>
<time>2015-04-29T14:00:01Z</time>
</trkpt>
<trkpt lat="34.9248392" lon="32.9347409">
<ele>1041.02</ele>
<time>2015-04-29T14:00:05Z</time>
</trkpt>
<trkpt lat="34.9248919" lon="32.9347193">
<ele>1041.28</ele>
<time>2015-04-29T14:00:09Z</time>
</trkpt>
<trkpt lat="34.9249479" lon="32.9346973">
<ele>1042.60</ele>
<time>2015-04-29T14:00:13Z</time>
</trkpt>
<trkpt lat="34.9250042" lon="32.9346821">
<ele>1042.88</ele>
<time>2015-04-29T14:00:17Z</time>
</trkpt>
<trkpt lat="34.9250604" lon="32.9346698">
<ele>1042.02</ele>
<time>2015-04-29T14:00:21Z</time>
</trkpt>
<trkpt lat="34.9251057" lon="32.9346436">
<ele>1041.90</ele>
<time>2015-04-29T14:00:25Z</time>
</trkpt>
<trkpt lat="34.9251527" lon="32.9346264">
<ele>1042.71</ele>
<time>2015-04-29T14:00:29Z</time>
</trkpt>
<trkpt lat="34.9252027" lon="32.9346285">
<ele>1042.01</ele>
<time>2015-04-29T14:00:33Z</time>
</trkpt>
<trkpt lat="34.9252498" lon="32.9346009">
<ele>1042.84</ele>
<time>2015-04-29T14:00:37Z</time>
</trkpt>
<trkpt lat="34.9252982" lon="32.9345776">
<ele>1043.58</ele>
<time>2015-04-29T14:00:41Z</time>
</trkpt>
<trkpt lat="34.9253493" lon="32.9345679">
<ele>1044.69</ele>
<time>2015-04-29T14:00:45Z</time>
</trkpt>
<trkpt lat="34.9254049" lon="32.9345495">
<ele>1044.32</ele>
<time>2015-04-29T14:00:49Z</time>
</trkpt>
<trkpt lat="34.9254605" lon="32.9345283">
<ele>1044.61</ele>
<time>2015-04-29T14:00:53Z</time>
</trkpt>
<trkpt lat="34.9255144" lon="32.9345157">
<ele>1044.44</ele>
<time>2015-04-29T14:00:57Z</time>
</trkpt>
<trkpt lat="34.9255660" lon="32.9345049">
<ele>1045.24</ele>
<time>2015-04-29T14:01:01Z</time>
</trkpt>
<trkpt lat="34.9256154" lon="32.9344977">
<ele>1045.73</ele>
<time>2015-04-29T14:01:05Z</time>
</trkpt>
<trkpt lat="34.9256624" lon="32.9344824">
<ele>1045.76</ele>
<time>2015-04-29T14:01:09Z</time>
</trkpt>
<trkpt lat="34.9257108" lon="32.9344674">
<ele>1045.76</ele>
<time>2015-04-29T14:01:13Z</time>
</trkpt>
<trkpt lat="34.9257626" lon="32.9344568">
<ele>1046.64</ele>
<time>2015-04-29T14:01:17Z</time>
</trkpt>
<trkpt lat="34.9258199" lon="32.9344436">
<ele>1046.44</ele>
<time>2015-04-29T14:01:21Z</time>
</trkpt>
<trkpt lat="34.9258648" lon="32.9344374">
<ele>1046.72</ele>
<time>2015-04-29T14:01:24Z</time>
</trkpt>
<trkpt lat="34.9259101" lon="32.9344180">
<ele>1046.76</ele>
<time>2015-04-29T14:01:27Z</time>
</trkpt>
<trkpt lat="34.9259552" lon="32.9344029">
<ele>1047.63</ele>
<time>2015-04-29T14:01:30Z</time>
</trkpt>
<trkpt lat="34.9260134" lon="32.9343886">
<ele>1047.69</ele>
<time>2015-04-29T14:01:34Z</time>
</trkpt>
<trkpt lat="34.9260687" lon="32.9343748">
<ele>1049.13</ele>
<time>2015-04-29T14:01:38Z</time>
</trkpt>
<trkpt lat="34.9261220" lon="32.9343704">
<ele>1050.47</ele>
<time>2015-04-29T14:01:42Z</time>
</trkpt>
<trkpt lat="34.9261736" lon="32.9343602">
<ele>1052.43</ele>
<time>2015-04-29T14:01:46Z</time>
</trkpt>
<trkpt lat="34.9262270" lon="32.9343561">
<ele>1053.68</ele>
<time>2015-04-29T14:01:50Z</time>
</trkpt>
<trkpt lat="34.9262855" lon="32.9343562">
<ele>1054.38</ele>
<time>2015-04-29T14:01:54Z</time>
</trkpt>
<trkpt lat="34.9263406" lon="32.9343595">
<ele>1056.24</ele>
<time>2015-04-29T14:01:58Z</time>
</trkpt>
<trkpt lat="34.9263920" lon="32.9343565">
<ele>1056.73</ele>
<time>2015-04-29T14:02:02Z</time>
</trkpt>
<trkpt lat="34.9264445" lon="32.9343690">
<ele>1057.51</ele>
<time>2015-04-29T14:02:06Z</time>
</trkpt>
<trkpt lat="34.9264993" lon="32.9343774">
<ele>1057.74</ele>
<time>2015-04-29T14:02:10Z</time>
</trkpt>
<trkpt lat="34.9265535" lon="32.9343956">
<ele>1058.63</ele>
<time>2015-04-29T14:02:14Z</time>
</trkpt>
<trkpt lat="34.9266108" lon="32.9343915">
<ele>1057.81</ele>
<time>2015-04-29T14:02:18Z</time>
</trkpt>
<trkpt lat="34.9266578" lon="32.9344042">
<ele>1058.39</ele>
<time>2015-04-29T14:02:21Z</time>
</trkpt>
<trkpt lat="34.9267049" lon="32.9344162">
<ele>1058.71</ele>
<time>2015-04-29T14:02:24Z</time>
</trkpt>
<trkpt lat="34.9267519" lon="32.9344244">
<ele>1059.50</ele>
<time>2015-04-29T14:02:27Z</time>
</trkpt>
<trkpt lat="34.9267976" lon="32.9344379">
<ele>1060.48</ele>
<time>2015-04-29T14:02:30Z</time>
</trkpt>
<trkpt lat="34.9268467" lon="32.9344417">
<ele>1060.72</ele>
<time>2015-04-29T14:02:33Z</time>
</trkpt>
<trkpt lat="34.9268984" lon="32.9344410">
<ele>1060.76</ele>
<time>2015-04-29T14:02:36Z</time>
</trkpt>
<trkpt lat="34.9269484" lon="32.9344415">
<ele>1060.76</ele>
<time>2015-04-29T14:02:39Z</time>
</trkpt>
<trkpt lat="34.9269972" lon="32.9344516">
<ele>1060.76</ele>
<time>2015-04-29T14:02:42Z</time>
</trkpt>
<trkpt lat="34.9270523" lon="32.9344628">
<ele>1061.70</ele>
<time>2015-04-29T14:02:46Z</time>
</trkpt>
<trkpt lat="34.9271048" lon="32.9344714">
<ele>1061.76</ele>
<time>2015-04-29T14:02:50Z</time>
</trkpt>
<trkpt lat="34.9271606" lon="32.9344799">
<ele>1062.70</ele>
<time>2015-04-29T14:02:54Z</time>
</trkpt>
<trkpt lat="34.9272151" lon="32.9344868">
<ele>1062.76</ele>
<time>2015-04-29T14:02:58Z</time>
</trkpt>
<trkpt lat="34.9272692" lon="32.9344957">
<ele>1063.70</ele>
<time>2015-04-29T14:03:02Z</time>
</trkpt>
<trkpt lat="34.9273174" lon="32.9345025">
<ele>1063.25</ele>
<time>2015-04-29T14:03:05Z</time>
</trkpt>
<trkpt lat="34.9273650" lon="32.9345147">
<ele>1063.70</ele>
<time>2015-04-29T14:03:08Z</time>
</trkpt>
<trkpt lat="34.9274132" lon="32.9345163">
<ele>1064.25</ele>
<time>2015-04-29T14:03:11Z</time>
</trkpt>
<trkpt lat="34.9274631" lon="32.9345250">
<ele>1064.70</ele>
<time>2015-04-29T14:03:14Z</time>
</trkpt>
<trkpt lat="34.9275122" lon="32.9345331">
<ele>1065.25</ele>
<time>2015-04-29T14:03:17Z</time>
</trkpt>
<trkpt lat="34.9275591" lon="32.9345460">
<ele>1066.20</ele>
<time>2015-04-29T14:03:20Z</time>
</trkpt>
<trkpt lat="34.9276172" lon="32.9345539">
<ele>1067.97</ele>
<time>2015-04-29T14:03:24Z</time>
</trkpt>
<trkpt lat="34.9276744" lon="32.9345672">
<ele>1070.34</ele>
<time>2015-04-29T14:03:28Z</time>
</trkpt>
<trkpt lat="34.9277233" lon="32.9345783">
<ele>1071.48</ele>
<time>2015-04-29T14:03:32Z</time>
</trkpt>
<trkpt lat="34.9277711" lon="32.9346102">
<ele>1075.55</ele>
<time>2015-04-29T14:03:38Z</time>
</trkpt>
<trkpt lat="34.9278202" lon="32.9346318">
<ele>1076.50</ele>
<time>2015-04-29T14:03:42Z</time>
</trkpt>
<trkpt lat="34.9278764" lon="32.9346418">
<ele>1076.06</ele>
<time>2015-04-29T14:03:46Z</time>
</trkpt>
<trkpt lat="34.9279278" lon="32.9346594">
<ele>1074.09</ele>
<time>2015-04-29T14:03:50Z</time>
</trkpt>
<trkpt lat="34.9279837" lon="32.9346746">
<ele>1072.97</ele>
<time>2015-04-29T14:03:54Z</time>
</trkpt>
<trkpt lat="34.9280232" lon="32.9347008">
<ele>1071.91</ele>
<time>2015-04-29T14:03:57Z</time>
</trkpt>
<trkpt lat="34.9280711" lon="32.9347167">
<ele>1072.96</ele>
<time>2015-04-29T14:04:01Z</time>
</trkpt>
<trkpt lat="34.9281192" lon="32.9347445">
<ele>1074.46</ele>
<time>2015-04-29T14:04:05Z</time>
</trkpt>
<trkpt lat="34.9281612" lon="32.9347676">
<ele>1073.97</ele>
<time>2015-04-29T14:04:08Z</time>
</trkpt>
<trkpt lat="34.9282096" lon="32.9348021">
<ele>1072.77</ele>
<time>2015-04-29T14:04:12Z</time>
</trkpt>
<trkpt lat="34.9282562" lon="32.9348306">
<ele>1072.20</ele>
<time>2015-04-29T14:04:16Z</time>
</trkpt>
<trkpt lat="34.9283073" lon="32.9348565">
<ele>1072.66</ele>
<time>2015-04-29T14:04:20Z</time>
</trkpt>
<trkpt lat="34.9283512" lon="32.9348791">
<ele>1072.25</ele>
<time>2015-04-29T14:04:23Z</time>
</trkpt>
<trkpt lat="34.9283961" lon="32.9349020">
<ele>1071.82</ele>
<time>2015-04-29T14:04:26Z</time>
</trkpt>
<trkpt lat="34.9284426" lon="32.9349212">
<ele>1071.77</ele>
<time>2015-04-29T14:04:29Z</time>
</trkpt>
<trkpt lat="34.9284898" lon="32.9349438">
<ele>1071.76</ele>
<time>2015-04-29T14:04:32Z</time>
</trkpt>
<trkpt lat="34.9285400" lon="32.9349717">
<ele>1071.76</ele>
<time>2015-04-29T14:04:35Z</time>
</trkpt>
<trkpt lat="34.9285903" lon="32.9350016">
<ele>1071.76</ele>
<time>2015-04-29T14:04:38Z</time>
</trkpt>
<trkpt lat="34.9286440" lon="32.9350264">
<ele>1072.01</ele>
<time>2015-04-29T14:04:41Z</time>
</trkpt>
<trkpt lat="34.9286906" lon="32.9350533">
<ele>1073.29</ele>
<time>2015-04-29T14:04:44Z</time>
</trkpt>
<trkpt lat="34.9287379" lon="32.9350753">
<ele>1073.70</ele>
<time>2015-04-29T14:04:47Z</time>
</trkpt>
<trkpt lat="34.9287978" lon="32.9350957">
<ele>1073.75</ele>
<time>2015-04-29T14:04:50Z</time>
</trkpt>
<trkpt lat="34.9288604" lon="32.9351169">
<ele>1073.63</ele>
<time>2015-04-29T14:04:53Z</time>
</trkpt>
<trkpt lat="34.9289145" lon="32.9351405">
<ele>1074.49</ele>
<time>2015-04-29T14:04:56Z</time>
</trkpt>
<trkpt lat="34.9289645" lon="32.9351539">
<ele>1074.10</ele>
<time>2015-04-29T14:04:59Z</time>
</trkpt>
<trkpt lat="34.9290096" lon="32.9351667">
<ele>1074.68</ele>
<time>2015-04-29T14:05:02Z</time>
</trkpt>
<trkpt lat="34.9290688" lon="32.9351808">
<ele>1074.32</ele>
<time>2015-04-29T14:05:06Z</time>
</trkpt>
<trkpt lat="34.9291144" lon="32.9351997">
<ele>1075.20</ele>
<time>2015-04-29T14:05:09Z</time>
</trkpt>
<trkpt lat="34.9291642" lon="32.9352144">
<ele>1075.69</ele>
<time>2015-04-29T14:05:12Z</time>
</trkpt>
<trkpt lat="34.9292142" lon="32.9352307">
<ele>1076.63</ele>
<time>2015-04-29T14:05:15Z</time>
</trkpt>
<trkpt lat="34.9292615" lon="32.9352425">
<ele>1077.12</ele>
<time>2015-04-29T14:05:18Z</time>
</trkpt>
<trkpt lat="34.9293073" lon="32.9352520">
<ele>1077.55</ele>
<time>2015-04-29T14:05:21Z</time>
</trkpt>
<trkpt lat="34.9293540" lon="32.9352671">
<ele>1078.25</ele>
<time>2015-04-29T14:05:26Z</time>
</trkpt>
<trkpt lat="34.9294027" lon="32.9352862">
<ele>1079.10</ele>
<time>2015-04-29T14:05:30Z</time>
</trkpt>
<trkpt lat="34.9294597" lon="32.9352920">
<ele>1078.91</ele>
<time>2015-04-29T14:05:34Z</time>
</trkpt>
<trkpt lat="34.9295107" lon="32.9352934">
<ele>1078.77</ele>
<time>2015-04-29T14:05:38Z</time>
</trkpt>
<trkpt lat="34.9295668" lon="32.9352970">
<ele>1078.76</ele>
<time>2015-04-29T14:05:42Z</time>
</trkpt>
<trkpt lat="34.9296213" lon="32.9353007">
<ele>1078.76</ele>
<time>2015-04-29T14:05:46Z</time>
</trkpt>
<trkpt lat="34.9296771" lon="32.9353115">
<ele>1079.45</ele>
<time>2015-04-29T14:05:50Z</time>
</trkpt>
<trkpt lat="34.9297326" lon="32.9353080">
<ele>1079.75</ele>
<time>2015-04-29T14:05:55Z</time>
</trkpt>
<trkpt lat="34.9297887" lon="32.9353049">
<ele>1081.20</ele>
<time>2015-04-29T14:05:59Z</time>
</trkpt>
<trkpt lat="34.9298458" lon="32.9353035">
<ele>1082.60</ele>
<time>2015-04-29T14:06:03Z</time>
</trkpt>
<trkpt lat="34.9298940" lon="32.9353070">
<ele>1082.74</ele>
<time>2015-04-29T14:06:06Z</time>
</trkpt>
<trkpt lat="34.9299418" lon="32.9352994">
<ele>1082.26</ele>
<time>2015-04-29T14:06:09Z</time>
</trkpt>
<trkpt lat="34.9299891" lon="32.9352907">
<ele>1082.74</ele>
<time>2015-04-29T14:06:14Z</time>
</trkpt>
<trkpt lat="34.9300364" lon="32.9352903">
<ele>1082.88</ele>
<time>2015-04-29T14:06:18Z</time>
</trkpt>
<trkpt lat="34.9300914" lon="32.9352993">
<ele>1084.21</ele>
<time>2015-04-29T14:06:22Z</time>
</trkpt>
<trkpt lat="34.9301486" lon="32.9353051">
<ele>1086.10</ele>
<time>2015-04-29T14:06:26Z</time>
</trkpt>
<trkpt lat="34.9301969" lon="32.9353051">
<ele>1085.97</ele>
<time>2015-04-29T14:06:30Z</time>
</trkpt>
<trkpt lat="34.9302532" lon="32.9352925">
<ele>1084.61</ele>
<time>2015-04-29T14:06:35Z</time>
</trkpt>
<trkpt lat="34.9303091" lon="32.9352813">
<ele>1084.63</ele>
<time>2015-04-29T14:06:39Z</time>
</trkpt>
<trkpt lat="34.9303566" lon="32.9352788">
<ele>1085.49</ele>
<time>2015-04-29T14:06:42Z</time>
</trkpt>
<trkpt lat="34.9304063" lon="32.9352707">
<ele>1085.73</ele>
<time>2015-04-29T14:06:45Z</time>
</trkpt>
<trkpt lat="34.9304546" lon="32.9352690">
<ele>1085.01</ele>
<time>2015-04-29T14:06:48Z</time>
</trkpt>
<trkpt lat="34.9305042" lon="32.9352686">
<ele>1085.29</ele>
<time>2015-04-29T14:06:51Z</time>
</trkpt>
<trkpt lat="34.9305537" lon="32.9352636">
<ele>1086.45</ele>
<time>2015-04-29T14:06:54Z</time>
</trkpt>
<trkpt lat="34.9306017" lon="32.9352521">
<ele>1086.85</ele>
<time>2015-04-29T14:06:57Z</time>
</trkpt>
<trkpt lat="34.9306481" lon="32.9352323">
<ele>1087.27</ele>
<time>2015-04-29T14:07:00Z</time>
</trkpt>
<trkpt lat="34.9307013" lon="32.9352254">
<ele>1087.57</ele>
<time>2015-04-29T14:07:03Z</time>
</trkpt>
<trkpt lat="34.9307535" lon="32.9352156">
<ele>1088.49</ele>
<time>2015-04-29T14:07:06Z</time>
</trkpt>
<trkpt lat="34.9308064" lon="32.9352110">
<ele>1088.23</ele>
<time>2015-04-29T14:07:09Z</time>
</trkpt>
<trkpt lat="34.9308601" lon="32.9352022">
<ele>1089.19</ele>
<time>2015-04-29T14:07:12Z</time>
</trkpt>
<trkpt lat="34.9309071" lon="32.9351928">
<ele>1090.44</ele>
<time>2015-04-29T14:07:15Z</time>
</trkpt>
<trkpt lat="34.9309631" lon="32.9351843">
<ele>1089.80</ele>
<time>2015-04-29T14:07:19Z</time>
</trkpt>
<trkpt lat="34.9310204" lon="32.9351665">
<ele>1090.26</ele>
<time>2015-04-29T14:07:23Z</time>
</trkpt>
<trkpt lat="34.9310757" lon="32.9351499">
<ele>1089.79</ele>
<time>2015-04-29T14:07:27Z</time>
</trkpt>
<trkpt lat="34.9311303" lon="32.9351309">
<ele>1089.76</ele>
<time>2015-04-29T14:07:31Z</time>
</trkpt>
<trkpt lat="34.9311842" lon="32.9351124">
<ele>1089.26</ele>
<time>2015-04-29T14:07:35Z</time>
</trkpt>
<trkpt lat="34.9312394" lon="32.9350931">
<ele>1090.23</ele>
<time>2015-04-29T14:07:39Z</time>
</trkpt>
<trkpt lat="34.9312866" lon="32.9350688">
<ele>1089.82</ele>
<time>2015-04-29T14:07:42Z</time>
</trkpt>
<trkpt lat="34.9313366" lon="32.9350437">
<ele>1090.52</ele>
<time>2015-04-29T14:07:45Z</time>
</trkpt>
<trkpt lat="34.9313886" lon="32.9350279">
<ele>1091.60</ele>
<time>2015-04-29T14:07:48Z</time>
</trkpt>
<trkpt lat="34.9314413" lon="32.9350174">
<ele>1091.62</ele>
<time>2015-04-29T14:07:51Z</time>
</trkpt>
<trkpt lat="34.9314954" lon="32.9349958">
<ele>1092.66</ele>
<time>2015-04-29T14:07:56Z</time>
</trkpt>
<trkpt lat="34.9315381" lon="32.9349715">
<ele>1092.50</ele>
<time>2015-04-29T14:07:59Z</time>
</trkpt>
<trkpt lat="34.9315841" lon="32.9349489">
<ele>1093.62</ele>
<time>2015-04-29T14:08:03Z</time>
</trkpt>
<trkpt lat="34.9316387" lon="32.9349194">
<ele>1094.50</ele>
<time>2015-04-29T14:08:07Z</time>
</trkpt>
<trkpt lat="34.9316827" lon="32.9348977">
<ele>1094.48</ele>
<time>2015-04-29T14:08:10Z</time>
</trkpt>
<trkpt lat="34.9317249" lon="32.9348710">
<ele>1094.72</ele>
<time>2015-04-29T14:08:13Z</time>
</trkpt>
<trkpt lat="34.9317692" lon="32.9348469">
<ele>1094.76</ele>
<time>2015-04-29T14:08:16Z</time>
</trkpt>
<trkpt lat="34.9318117" lon="32.9348233">
<ele>1095.26</ele>
<time>2015-04-29T14:08:19Z</time>
</trkpt>
<trkpt lat="34.9318497" lon="32.9347915">
<ele>1096.20</ele>
<time>2015-04-29T14:08:22Z</time>
</trkpt>
<trkpt lat="34.9318985" lon="32.9347585">
<ele>1097.60</ele>
<time>2015-04-29T14:08:26Z</time>
</trkpt>
<trkpt lat="34.9319464" lon="32.9347295">
<ele>1099.38</ele>
<time>2015-04-29T14:08:30Z</time>
</trkpt>
<trkpt lat="34.9320006" lon="32.9346972">
<ele>1099.49</ele>
<time>2015-04-29T14:08:34Z</time>
</trkpt>
<trkpt lat="34.9320458" lon="32.9346787">
<ele>1100.98</ele>
<time>2015-04-29T14:08:37Z</time>
</trkpt>
<trkpt lat="34.9320977" lon="32.9346431">
<ele>1102.59</ele>
<time>2015-04-29T14:08:41Z</time>
</trkpt>
<trkpt lat="34.9321369" lon="32.9346124">
<ele>1103.49</ele>
<time>2015-04-29T14:08:44Z</time>
</trkpt>
<trkpt lat="34.9321790" lon="32.9345881">
<ele>1105.35</ele>
<time>2015-04-29T14:08:47Z</time>
</trkpt>
<trkpt lat="34.9322154" lon="32.9345485">
<ele>1104.83</ele>
<time>2015-04-29T14:08:50Z</time>
</trkpt>
<trkpt lat="34.9322547" lon="32.9345150">
<ele>1104.89</ele>
<time>2015-04-29T14:08:53Z</time>
</trkpt>
<trkpt lat="34.9322986" lon="32.9344926">
<ele>1107.28</ele>
<time>2015-04-29T14:08:56Z</time>
</trkpt>
<trkpt lat="34.9323387" lon="32.9344674">
<ele>1108.57</ele>
<time>2015-04-29T14:08:59Z</time>
</trkpt>
<trkpt lat="34.9323858" lon="32.9344409">
<ele>1110.69</ele>
<time>2015-04-29T14:09:03Z</time>
</trkpt>
<trkpt lat="34.9324252" lon="32.9343970">
<ele>1111.26</ele>
<time>2015-04-29T14:09:07Z</time>
</trkpt>
<trkpt lat="34.9324655" lon="32.9343710">
<ele>1112.20</ele>
<time>2015-04-29T14:09:10Z</time>
</trkpt>
<trkpt lat="34.9325025" lon="32.9343383">
<ele>1113.44</ele>
<time>2015-04-29T14:09:13Z</time>
</trkpt>
<trkpt lat="34.9325444" lon="32.9342960">
<ele>1116.05</ele>
<time>2015-04-29T14:09:17Z</time>
</trkpt>
<trkpt lat="34.9325895" lon="32.9342509">
<ele>1114.22</ele>
<time>2015-04-29T14:09:21Z</time>
</trkpt>
<trkpt lat="34.9326279" lon="32.9342206">
<ele>1113.32</ele>
<time>2015-04-29T14:09:24Z</time>
</trkpt>
<trkpt lat="34.9326629" lon="32.9341789">
<ele>1112.08</ele>
<time>2015-04-29T14:09:27Z</time>
</trkpt>
<trkpt lat="34.9326967" lon="32.9341350">
<ele>1111.30</ele>
<time>2015-04-29T14:09:30Z</time>
</trkpt>
<trkpt lat="34.9327256" lon="32.9340911">
<ele>1109.95</ele>
<time>2015-04-29T14:09:33Z</time>
</trkpt>
<trkpt lat="34.9327617" lon="32.9340546">
<ele>1110.03</ele>
<time>2015-04-29T14:09:36Z</time>
</trkpt>
<trkpt lat="34.9328159" lon="32.9340239">
<ele>1110.28</ele>
<time>2015-04-29T14:09:40Z</time>
</trkpt>
<trkpt lat="34.9328593" lon="32.9339719">
<ele>1109.67</ele>
<time>2015-04-29T14:09:44Z</time>
</trkpt>
<trkpt lat="34.9328945" lon="32.9339318">
<ele>1108.87</ele>
<time>2015-04-29T14:09:47Z</time>
</trkpt>
<trkpt lat="34.9329408" lon="32.9338952">
<ele>1108.90</ele>
<time>2015-04-29T14:09:50Z</time>
</trkpt>
<trkpt lat="34.9329803" lon="32.9338572">
<ele>1108.40</ele>
<time>2015-04-29T14:09:53Z</time>
</trkpt>
<trkpt lat="34.9330225" lon="32.9338231">
<ele>1108.22</ele>
<time>2015-04-29T14:09:56Z</time>
</trkpt>
<trkpt lat="34.9330572" lon="32.9337776">
<ele>1107.07</ele>
<time>2015-04-29T14:09:59Z</time>
</trkpt>
<trkpt lat="34.9330920" lon="32.9337301">
<ele>1106.67</ele>
<time>2015-04-29T14:10:02Z</time>
</trkpt>
<trkpt lat="34.9331277" lon="32.9336828">
<ele>1107.44</ele>
<time>2015-04-29T14:10:06Z</time>
</trkpt>
<trkpt lat="34.9331642" lon="32.9336436">
<ele>1108.68</ele>
<time>2015-04-29T14:10:10Z</time>
</trkpt>
<trkpt lat="34.9332035" lon="32.9336049">
<ele>1109.69</ele>
<time>2015-04-29T14:10:14Z</time>
</trkpt>
<trkpt lat="34.9332466" lon="32.9335670">
<ele>1110.63</ele>
<time>2015-04-29T14:10:18Z</time>
</trkpt>
<trkpt lat="34.9332848" lon="32.9335231">
<ele>1111.19</ele>
<time>2015-04-29T14:10:22Z</time>
</trkpt>
<trkpt lat="34.9333296" lon="32.9334818">
<ele>1111.29</ele>
<time>2015-04-29T14:10:26Z</time>
</trkpt>
<trkpt lat="34.9333741" lon="32.9334359">
<ele>1112.61</ele>
<time>2015-04-29T14:10:30Z</time>
</trkpt>
<trkpt lat="34.9334066" lon="32.9333966">
<ele>1112.74</ele>
<time>2015-04-29T14:10:33Z</time>
</trkpt>
<trkpt lat="34.9334426" lon="32.9333590">
<ele>1112.63</ele>
<time>2015-04-29T14:10:36Z</time>
</trkpt>
<trkpt lat="34.9334822" lon="32.9333269">
<ele>1112.24</ele>
<time>2015-04-29T14:10:39Z</time>
</trkpt>
<trkpt lat="34.9335254" lon="32.9332808">
<ele>1112.73</ele>
<time>2015-04-29T14:10:43Z</time>
</trkpt>
<trkpt lat="34.9335646" lon="32.9332392">
<ele>1114.45</ele>
<time>2015-04-29T14:10:47Z</time>
</trkpt>
<trkpt lat="34.9336032" lon="32.9332037">
<ele>1114.74</ele>
<time>2015-04-29T14:10:51Z</time>
</trkpt>
<trkpt lat="34.9336426" lon="32.9331739">
<ele>1116.45</ele>
<time>2015-04-29T14:10:55Z</time>
</trkpt>
<trkpt lat="34.9336881" lon="32.9331418">
<ele>1116.76</ele>
<time>2015-04-29T14:11:01Z</time>
</trkpt>
<trkpt lat="34.9337325" lon="32.9331183">
<ele>1117.51</ele>
<time>2015-04-29T14:11:05Z</time>
</trkpt>
<trkpt lat="34.9337783" lon="32.9330877">
<ele>1117.94</ele>
<time>2015-04-29T14:11:10Z</time>
</trkpt>
<trkpt lat="34.9338212" lon="32.9330545">
<ele>1119.89</ele>
<time>2015-04-29T14:11:15Z</time>
</trkpt>
<trkpt lat="34.9338623" lon="32.9330192">
<ele>1120.88</ele>
<time>2015-04-29T14:11:22Z</time>
</trkpt>
<trkpt lat="34.9339057" lon="32.9329989">
<ele>1121.73</ele>
<time>2015-04-29T14:11:27Z</time>
</trkpt>
<trkpt lat="34.9339524" lon="32.9329743">
<ele>1122.63</ele>
<time>2015-04-29T14:11:32Z</time>
</trkpt>
<trkpt lat="34.9339963" lon="32.9329541">
<ele>1122.75</ele>
<time>2015-04-29T14:11:36Z</time>
</trkpt>
<trkpt lat="34.9340407" lon="32.9329324">
<ele>1124.01</ele>
<time>2015-04-29T14:11:40Z</time>
</trkpt>
<trkpt lat="34.9340930" lon="32.9329120">
<ele>1124.02</ele>
<time>2015-04-29T14:11:45Z</time>
</trkpt>
<trkpt lat="34.9341378" lon="32.9328924">
<ele>1123.84</ele>
<time>2015-04-29T14:11:49Z</time>
</trkpt>
<trkpt lat="34.9341854" lon="32.9328821">
<ele>1123.70</ele>
<time>2015-04-29T14:11:53Z</time>
</trkpt>
<trkpt lat="34.9342347" lon="32.9328657">
<ele>1123.76</ele>
<time>2015-04-29T14:11:57Z</time>
</trkpt>
<trkpt lat="34.9342856" lon="32.9328523">
<ele>1123.76</ele>
<time>2015-04-29T14:12:01Z</time>
</trkpt>
<trkpt lat="34.9343381" lon="32.9328436">
<ele>1122.32</ele>
<time>2015-04-29T14:12:05Z</time>
</trkpt>
<trkpt lat="34.9343845" lon="32.9328490">
<ele>1122.30</ele>
<time>2015-04-29T14:12:09Z</time>
</trkpt>
<trkpt lat="34.9344320" lon="32.9328484">
<ele>1121.98</ele>
<time>2015-04-29T14:12:13Z</time>
</trkpt>
<trkpt lat="34.9344773" lon="32.9328494">
<ele>1120.96</ele>
<time>2015-04-29T14:12:17Z</time>
</trkpt>
<trkpt lat="34.9345237" lon="32.9328459">
<ele>1120.40</ele>
<time>2015-04-29T14:12:21Z</time>
</trkpt>
<trkpt lat="34.9345736" lon="32.9328421">
<ele>1121.22</ele>
<time>2015-04-29T14:12:26Z</time>
</trkpt>
<trkpt lat="34.9346288" lon="32.9328442">
<ele>1121.74</ele>
<time>2015-04-29T14:12:31Z</time>
</trkpt>
<trkpt lat="34.9346763" lon="32.9328512">
<ele>1122.70</ele>
<time>2015-04-29T14:12:35Z</time>
</trkpt>
<trkpt lat="34.9347229" lon="32.9328569">
<ele>1123.63</ele>
<time>2015-04-29T14:12:39Z</time>
</trkpt>
<trkpt lat="34.9347704" lon="32.9328651">
<ele>1124.69</ele>
<time>2015-04-29T14:12:43Z</time>
</trkpt>
<trkpt lat="34.9348193" lon="32.9328836">
<ele>1125.69</ele>
<time>2015-04-29T14:12:47Z</time>
</trkpt>
<trkpt lat="34.9348680" lon="32.9328833">
<ele>1125.76</ele>
<time>2015-04-29T14:12:51Z</time>
</trkpt>
<trkpt lat="34.9349144" lon="32.9328856">
<ele>1126.01</ele>
<time>2015-04-29T14:12:55Z</time>
</trkpt>
<trkpt lat="34.9349604" lon="32.9328883">
<ele>1126.71</ele>
<time>2015-04-29T14:12:59Z</time>
</trkpt>
<trkpt lat="34.9350054" lon="32.9328854">
<ele>1127.63</ele>
<time>2015-04-29T14:13:03Z</time>
</trkpt>
<trkpt lat="34.9350608" lon="32.9328828">
<ele>1128.63</ele>
<time>2015-04-29T14:13:08Z</time>
</trkpt>
<trkpt lat="34.9351098" lon="32.9328732">
<ele>1128.75</ele>
<time>2015-04-29T14:13:12Z</time>
</trkpt>
<trkpt lat="34.9351576" lon="32.9328706">
<ele>1129.63</ele>
<time>2015-04-29T14:13:16Z</time>
</trkpt>
<trkpt lat="34.9352036" lon="32.9328659">
<ele>1128.81</ele>
<time>2015-04-29T14:13:20Z</time>
</trkpt>
<trkpt lat="34.9352521" lon="32.9328594">
<ele>1127.89</ele>
<time>2015-04-29T14:13:24Z</time>
</trkpt>
<trkpt lat="34.9353031" lon="32.9328593">
<ele>1128.27</ele>
<time>2015-04-29T14:13:28Z</time>
</trkpt>
<trkpt lat="34.9353557" lon="32.9328627">
<ele>1127.98</ele>
<time>2015-04-29T14:13:32Z</time>
</trkpt>
<trkpt lat="34.9354050" lon="32.9328532">
<ele>1128.71</ele>
<time>2015-04-29T14:13:36Z</time>
</trkpt>
<trkpt lat="34.9354540" lon="32.9328368">
<ele>1128.88</ele>
<time>2015-04-29T14:13:40Z</time>
</trkpt>
<trkpt lat="34.9355011" lon="32.9328222">
<ele>1128.77</ele>
<time>2015-04-29T14:13:44Z</time>
</trkpt>
<trkpt lat="34.9355466" lon="32.9328056">
<ele>1130.45</ele>
<time>2015-04-29T14:13:48Z</time>
</trkpt>
<trkpt lat="34.9355947" lon="32.9327789">
<ele>1131.49</ele>
<time>2015-04-29T14:13:52Z</time>
</trkpt>
<trkpt lat="34.9356466" lon="32.9327476">
<ele>1131.24</ele>
<time>2015-04-29T14:13:56Z</time>
</trkpt>
<trkpt lat="34.9356908" lon="32.9327344">
<ele>1131.70</ele>
<time>2015-04-29T14:13:59Z</time>
</trkpt>
<trkpt lat="34.9357443" lon="32.9327142">
<ele>1131.76</ele>
<time>2015-04-29T14:14:03Z</time>
</trkpt>
<trkpt lat="34.9357875" lon="32.9326895">
<ele>1131.76</ele>
<time>2015-04-29T14:14:07Z</time>
</trkpt>
<trkpt lat="34.9358357" lon="32.9326724">
<ele>1132.26</ele>
<time>2015-04-29T14:14:11Z</time>
</trkpt>
<trkpt lat="34.9358878" lon="32.9326570">
<ele>1133.23</ele>
<time>2015-04-29T14:14:15Z</time>
</trkpt>
<trkpt lat="34.9359446" lon="32.9326493">
<ele>1133.16</ele>
<time>2015-04-29T14:14:19Z</time>
</trkpt>
<trkpt lat="34.9359997" lon="32.9326378">
<ele>1133.72</ele>
<time>2015-04-29T14:14:23Z</time>
</trkpt>
<trkpt lat="34.9360466" lon="32.9326092">
<ele>1133.51</ele>
<time>2015-04-29T14:14:27Z</time>
</trkpt>
<trkpt lat="34.9360912" lon="32.9325983">
<ele>1134.62</ele>
<time>2015-04-29T14:14:31Z</time>
</trkpt>
<trkpt lat="34.9361426" lon="32.9325784">
<ele>1134.76</ele>
<time>2015-04-29T14:14:36Z</time>
</trkpt>
<trkpt lat="34.9361881" lon="32.9325628">
<ele>1134.51</ele>
<time>2015-04-29T14:14:40Z</time>
</trkpt>
<trkpt lat="34.9362348" lon="32.9325481">
<ele>1134.74</ele>
<time>2015-04-29T14:14:44Z</time>
</trkpt>
<trkpt lat="34.9362795" lon="32.9325315">
<ele>1135.63</ele>
<time>2015-04-29T14:14:48Z</time>
</trkpt>
<trkpt lat="34.9363326" lon="32.9325193">
<ele>1137.44</ele>
<time>2015-04-29T14:14:53Z</time>
</trkpt>
<trkpt lat="34.9363771" lon="32.9325098">
<ele>1139.12</ele>
<time>2015-04-29T14:14:57Z</time>
</trkpt>
<trkpt lat="34.9364341" lon="32.9324910">
<ele>1140.01</ele>
<time>2015-04-29T14:15:25Z</time>
</trkpt>
<trkpt lat="34.9364855" lon="32.9324588">
<ele>1141.29</ele>
<time>2015-04-29T14:15:28Z</time>
</trkpt>
<trkpt lat="34.9365367" lon="32.9324411">
<ele>1139.95</ele>
<time>2015-04-29T14:15:31Z</time>
</trkpt>
<trkpt lat="34.9365812" lon="32.9324292">
<ele>1140.28</ele>
<time>2015-04-29T14:15:34Z</time>
</trkpt>
<trkpt lat="34.9366300" lon="32.9324343">
<ele>1141.45</ele>
<time>2015-04-29T14:15:37Z</time>
</trkpt>
<trkpt lat="34.9366864" lon="32.9324174">
<ele>1143.18</ele>
<time>2015-04-29T14:15:41Z</time>
</trkpt>
<trkpt lat="34.9367402" lon="32.9324054">
<ele>1143.72</ele>
<time>2015-04-29T14:15:45Z</time>
</trkpt>
<trkpt lat="34.9367940" lon="32.9324054">
<ele>1145.45</ele>
<time>2015-04-29T14:15:49Z</time>
</trkpt>
<trkpt lat="34.9368416" lon="32.9323955">
<ele>1149.30</ele>
<time>2015-04-29T14:15:53Z</time>
</trkpt>
<trkpt lat="34.9368906" lon="32.9323792">
<ele>1152.61</ele>
<time>2015-04-29T14:15:57Z</time>
</trkpt>
<trkpt lat="34.9369406" lon="32.9323707">
<ele>1155.38</ele>
<time>2015-04-29T14:16:01Z</time>
</trkpt>
<trkpt lat="34.9369888" lon="32.9323498">
<ele>1155.74</ele>
<time>2015-04-29T14:16:05Z</time>
</trkpt>
<trkpt lat="34.9370391" lon="32.9323297">
<ele>1155.26</ele>
<time>2015-04-29T14:16:09Z</time>
</trkpt>
<trkpt lat="34.9370878" lon="32.9323157">
<ele>1154.67</ele>
<time>2015-04-29T14:16:13Z</time>
</trkpt>
<trkpt lat="34.9371326" lon="32.9323040">
<ele>1155.00</ele>
<time>2015-04-29T14:16:17Z</time>
</trkpt>
<trkpt lat="34.9371754" lon="32.9322867">
<ele>1156.03</ele>
<time>2015-04-29T14:16:21Z</time>
</trkpt>
<trkpt lat="34.9372237" lon="32.9322729">
<ele>1157.67</ele>
<time>2015-04-29T14:16:26Z</time>
</trkpt>
<trkpt lat="34.9372758" lon="32.9322514">
<ele>1156.85</ele>
<time>2015-04-29T14:16:31Z</time>
</trkpt>
<trkpt lat="34.9373251" lon="32.9322356">
<ele>1153.95</ele>
<time>2015-04-29T14:16:36Z</time>
</trkpt>
<trkpt lat="34.9373686" lon="32.9322022">
<ele>1153.68</ele>
<time>2015-04-29T14:16:42Z</time>
</trkpt>
<trkpt lat="34.9374077" lon="32.9321744">
<ele>1153.10</ele>
<time>2015-04-29T14:16:47Z</time>
</trkpt>
<trkpt lat="34.9374601" lon="32.9321524">
<ele>1152.90</ele>
<time>2015-04-29T14:16:52Z</time>
</trkpt>
<trkpt lat="34.9375151" lon="32.9321350">
<ele>1152.76</ele>
<time>2015-04-29T14:16:57Z</time>
</trkpt>
<trkpt lat="34.9375679" lon="32.9321151">
<ele>1152.95</ele>
<time>2015-04-29T14:17:01Z</time>
</trkpt>
<trkpt lat="34.9376189" lon="32.9320849">
<ele>1151.33</ele>
<time>2015-04-29T14:17:05Z</time>
</trkpt>
<trkpt lat="34.9376722" lon="32.9320670">
<ele>1150.36</ele>
<time>2015-04-29T14:17:09Z</time>
</trkpt>
<trkpt lat="34.9377156" lon="32.9320493">
<ele>1149.96</ele>
<time>2015-04-29T14:17:12Z</time>
</trkpt>
<trkpt lat="34.9377750" lon="32.9320296">
<ele>1149.29</ele>
<time>2015-04-29T14:17:15Z</time>
</trkpt>
<trkpt lat="34.9378244" lon="32.9320044">
<ele>1147.95</ele>
<time>2015-04-29T14:17:18Z</time>
</trkpt>
<trkpt lat="34.9378708" lon="32.9319854">
<ele>1147.78</ele>
<time>2015-04-29T14:17:21Z</time>
</trkpt>
<trkpt lat="34.9379232" lon="32.9319797">
<ele>1148.51</ele>
<time>2015-04-29T14:17:24Z</time>
</trkpt>
<trkpt lat="34.9379752" lon="32.9319685">
<ele>1148.98</ele>
<time>2015-04-29T14:17:27Z</time>
</trkpt>
<trkpt lat="34.9380255" lon="32.9319491">
<ele>1149.41</ele>
<time>2015-04-29T14:17:30Z</time>
</trkpt>
<trkpt lat="34.9380734" lon="32.9319289">
<ele>1149.72</ele>
<time>2015-04-29T14:17:33Z</time>
</trkpt>
<trkpt lat="34.9381265" lon="32.9319023">
<ele>1152.82</ele>
<time>2015-04-29T14:17:37Z</time>
</trkpt>
<trkpt lat="34.9381828" lon="32.9318794">
<ele>1152.08</ele>
<time>2015-04-29T14:17:41Z</time>
</trkpt>
<trkpt lat="34.9382300" lon="32.9318611">
<ele>1150.92</ele>
<time>2015-04-29T14:17:44Z</time>
</trkpt>
<trkpt lat="34.9382776" lon="32.9318420">
<ele>1151.91</ele>
<time>2015-04-29T14:17:47Z</time>
</trkpt>
<trkpt lat="34.9383258" lon="32.9318326">
<ele>1153.15</ele>
<time>2015-04-29T14:17:50Z</time>
</trkpt>
<trkpt lat="34.9383716" lon="32.9318254">
<ele>1154.56</ele>
<time>2015-04-29T14:17:53Z</time>
</trkpt>
<trkpt lat="34.9384168" lon="32.9318132">
<ele>1155.48</ele>
<time>2015-04-29T14:17:56Z</time>
</trkpt>
<trkpt lat="34.9384702" lon="32.9317845">
<ele>1156.68</ele>
<time>2015-04-29T14:18:00Z</time>
</trkpt>
<trkpt lat="34.9385246" lon="32.9317639">
<ele>1158.44</ele>
<time>2015-04-29T14:18:04Z</time>
</trkpt>
<trkpt lat="34.9385772" lon="32.9317490">
<ele>1159.43</ele>
<time>2015-04-29T14:18:08Z</time>
</trkpt>
<trkpt lat="34.9386313" lon="32.9317395">
<ele>1160.61</ele>
<time>2015-04-29T14:18:12Z</time>
</trkpt>
<trkpt lat="34.9386876" lon="32.9317266">
<ele>1161.25</ele>
<time>2015-04-29T14:18:16Z</time>
</trkpt>
<trkpt lat="34.9387460" lon="32.9317078">
<ele>1161.17</ele>
<time>2015-04-29T14:18:20Z</time>
</trkpt>
<trkpt lat="34.9388022" lon="32.9316920">
<ele>1161.29</ele>
<time>2015-04-29T14:18:24Z</time>
</trkpt>
<trkpt lat="34.9388549" lon="32.9316788">
<ele>1161.75</ele>
<time>2015-04-29T14:18:29Z</time>
</trkpt>
<trkpt lat="34.9388950" lon="32.9316502">
<ele>1162.26</ele>
<time>2015-04-29T14:18:33Z</time>
</trkpt>
<trkpt lat="34.9389413" lon="32.9316362">
<ele>1162.73</ele>
<time>2015-04-29T14:18:37Z</time>
</trkpt>
<trkpt lat="34.9389878" lon="32.9316197">
<ele>1163.01</ele>
<time>2015-04-29T14:18:41Z</time>
</trkpt>
<trkpt lat="34.9390409" lon="32.9316047">
<ele>1163.28</ele>
<time>2015-04-29T14:18:45Z</time>
</trkpt>
<trkpt lat="34.9390927" lon="32.9315850">
<ele>1164.48</ele>
<time>2015-04-29T14:18:49Z</time>
</trkpt>
<trkpt lat="34.9391441" lon="32.9315565">
<ele>1164.74</ele>
<time>2015-04-29T14:18:53Z</time>
</trkpt>
<trkpt lat="34.9391935" lon="32.9315435">
<ele>1165.38</ele>
<time>2015-04-29T14:18:57Z</time>
</trkpt>
<trkpt lat="34.9392407" lon="32.9315260">
<ele>1165.74</ele>
<time>2015-04-29T14:19:01Z</time>
</trkpt>
<trkpt lat="34.9392901" lon="32.9315060">
<ele>1166.63</ele>
<time>2015-04-29T14:19:05Z</time>
</trkpt>
<trkpt lat="34.9393400" lon="32.9314852">
<ele>1166.50</ele>
<time>2015-04-29T14:19:09Z</time>
</trkpt>
<trkpt lat="34.9393830" lon="32.9314585">
<ele>1167.62</ele>
<time>2015-04-29T14:19:13Z</time>
</trkpt>
<trkpt lat="34.9394315" lon="32.9314418">
<ele>1168.25</ele>
<time>2015-04-29T14:19:17Z</time>
</trkpt>
<trkpt lat="34.9394793" lon="32.9314260">
<ele>1168.73</ele>
<time>2015-04-29T14:19:21Z</time>
</trkpt>
<trkpt lat="34.9395212" lon="32.9313928">
<ele>1169.38</ele>
<time>2015-04-29T14:19:25Z</time>
</trkpt>
<trkpt lat="34.9395609" lon="32.9313615">
<ele>1168.99</ele>
<time>2015-04-29T14:19:29Z</time>
</trkpt>
<trkpt lat="34.9396084" lon="32.9313419">
<ele>1169.71</ele>
<time>2015-04-29T14:19:33Z</time>
</trkpt>
<trkpt lat="34.9396567" lon="32.9313258">
<ele>1170.94</ele>
<time>2015-04-29T14:19:37Z</time>
</trkpt>
<trkpt lat="34.9397076" lon="32.9313084">
<ele>1171.27</ele>
<time>2015-04-29T14:19:42Z</time>
</trkpt>
<trkpt lat="34.9397587" lon="32.9312886">
<ele>1172.68</ele>
<time>2015-04-29T14:19:47Z</time>
</trkpt>
<trkpt lat="34.9398109" lon="32.9312636">
<ele>1171.79</ele>
<time>2015-04-29T14:19:52Z</time>
</trkpt>
<trkpt lat="34.9398526" lon="32.9312328">
<ele>1171.76</ele>
<time>2015-04-29T14:19:56Z</time>
</trkpt>
<trkpt lat="34.9398968" lon="32.9311956">
<ele>1172.64</ele>
<time>2015-04-29T14:20:00Z</time>
</trkpt>
<trkpt lat="34.9399429" lon="32.9311617">
<ele>1173.63</ele>
<time>2015-04-29T14:20:04Z</time>
</trkpt>
<trkpt lat="34.9399891" lon="32.9311289">
<ele>1175.13</ele>
<time>2015-04-29T14:20:08Z</time>
</trkpt>
<trkpt lat="34.9400304" lon="32.9310942">
<ele>1176.22</ele>
<time>2015-04-29T14:20:12Z</time>
</trkpt>
<trkpt lat="34.9400706" lon="32.9310650">
<ele>1177.23</ele>
<time>2015-04-29T14:20:16Z</time>
</trkpt>
<trkpt lat="34.9401168" lon="32.9310420">
<ele>1178.23</ele>
<time>2015-04-29T14:20:20Z</time>
</trkpt>
<trkpt lat="34.9401636" lon="32.9310152">
<ele>1178.73</ele>
<time>2015-04-29T14:20:24Z</time>
</trkpt>
<trkpt lat="34.9402136" lon="32.9309802">
<ele>1179.51</ele>
<time>2015-04-29T14:20:28Z</time>
</trkpt>
<trkpt lat="34.9402704" lon="32.9309575">
<ele>1180.68</ele>
<time>2015-04-29T14:20:32Z</time>
</trkpt>
<trkpt lat="34.9403152" lon="32.9309693">
<ele>1179.66</ele>
<time>2015-04-29T14:22:15Z</time>
</trkpt>
<trkpt lat="34.9403520" lon="32.9310021">
<ele>1185.00</ele>
<time>2015-04-29T14:24:44Z</time>
</trkpt>
<trkpt lat="34.9403819" lon="32.9309485">
<ele>1181.09</ele>
<time>2015-04-29T14:24:50Z</time>
</trkpt>
<trkpt lat="34.9404215" lon="32.9308994">
<ele>1179.91</ele>
<time>2015-04-29T14:24:54Z</time>
</trkpt>
<trkpt lat="34.9404702" lon="32.9308638">
<ele>1180.64</ele>
<time>2015-04-29T14:24:58Z</time>
</trkpt>
<trkpt lat="34.9405144" lon="32.9308405">
<ele>1181.50</ele>
<time>2015-04-29T14:25:01Z</time>
</trkpt>
<trkpt lat="34.9405615" lon="32.9308196">
<ele>1182.60</ele>
<time>2015-04-29T14:25:04Z</time>
</trkpt>
<trkpt lat="34.9406076" lon="32.9307887">
<ele>1181.87</ele>
<time>2015-04-29T14:25:07Z</time>
</trkpt>
<trkpt lat="34.9406509" lon="32.9307544">
<ele>1181.90</ele>
<time>2015-04-29T14:25:10Z</time>
</trkpt>
<trkpt lat="34.9406991" lon="32.9307348">
<ele>1181.78</ele>
<time>2015-04-29T14:25:13Z</time>
</trkpt>
<trkpt lat="34.9407458" lon="32.9307202">
<ele>1182.51</ele>
<time>2015-04-29T14:25:16Z</time>
</trkpt>
<trkpt lat="34.9407998" lon="32.9307088">
<ele>1184.56</ele>
<time>2015-04-29T14:25:20Z</time>
</trkpt>
<trkpt lat="34.9408508" lon="32.9306833">
<ele>1186.43</ele>
<time>2015-04-29T14:25:24Z</time>
</trkpt>
<trkpt lat="34.9409076" lon="32.9306606">
<ele>1186.74</ele>
<time>2015-04-29T14:25:28Z</time>
</trkpt>
<trkpt lat="34.9409496" lon="32.9306378">
<ele>1187.26</ele>
<time>2015-04-29T14:25:31Z</time>
</trkpt>
<trkpt lat="34.9409950" lon="32.9306137">
<ele>1187.20</ele>
<time>2015-04-29T14:25:34Z</time>
</trkpt>
<trkpt lat="34.9410384" lon="32.9305862">
<ele>1187.56</ele>
<time>2015-04-29T14:25:37Z</time>
</trkpt>
<trkpt lat="34.9410870" lon="32.9305628">
<ele>1186.49</ele>
<time>2015-04-29T14:25:40Z</time>
</trkpt>
<trkpt lat="34.9411322" lon="32.9305429">
<ele>1185.73</ele>
<time>2015-04-29T14:25:43Z</time>
</trkpt>
<trkpt lat="34.9411804" lon="32.9305352">
<ele>1186.88</ele>
<time>2015-04-29T14:25:47Z</time>
</trkpt>
<trkpt lat="34.9412397" lon="32.9305286">
<ele>1188.98</ele>
<time>2015-04-29T14:25:52Z</time>
</trkpt>
<trkpt lat="34.9412875" lon="32.9305076">
<ele>1188.04</ele>
<time>2015-04-29T14:25:55Z</time>
</trkpt>
<trkpt lat="34.9413438" lon="32.9304912">
<ele>1187.79</ele>
<time>2015-04-29T14:25:58Z</time>
</trkpt>
<trkpt lat="34.9414004" lon="32.9304812">
<ele>1187.76</ele>
<time>2015-04-29T14:26:01Z</time>
</trkpt>
<trkpt lat="34.9414473" lon="32.9304775">
<ele>1188.26</ele>
<time>2015-04-29T14:26:03Z</time>
</trkpt>
<trkpt lat="34.9415015" lon="32.9304668">
<ele>1188.57</ele>
<time>2015-04-29T14:26:06Z</time>
</trkpt>
<trkpt lat="34.9415490" lon="32.9304527">
<ele>1188.99</ele>
<time>2015-04-29T14:26:09Z</time>
</trkpt>
<trkpt lat="34.9416042" lon="32.9304412">
<ele>1186.77</ele>
<time>2015-04-29T14:26:13Z</time>
</trkpt>
<trkpt lat="34.9416517" lon="32.9304284">
<ele>1185.76</ele>
<time>2015-04-29T14:26:17Z</time>
</trkpt>
<trkpt lat="34.9417090" lon="32.9304263">
<ele>1187.14</ele>
<time>2015-04-29T14:26:21Z</time>
</trkpt>
<trkpt lat="34.9417555" lon="32.9304298">
<ele>1187.68</ele>
<time>2015-04-29T14:26:24Z</time>
</trkpt>
<trkpt lat="34.9418145" lon="32.9304224">
<ele>1189.76</ele>
<time>2015-04-29T14:26:28Z</time>
</trkpt>
<trkpt lat="34.9418623" lon="32.9304277">
<ele>1191.38</ele>
<time>2015-04-29T14:26:31Z</time>
</trkpt>
<trkpt lat="34.9419218" lon="32.9304384">
<ele>1191.71</ele>
<time>2015-04-29T14:26:34Z</time>
</trkpt>
<trkpt lat="34.9419702" lon="32.9304413">
<ele>1190.75</ele>
<time>2015-04-29T14:26:36Z</time>
</trkpt>
<trkpt lat="34.9420181" lon="32.9304499">
<ele>1190.01</ele>
<time>2015-04-29T14:26:38Z</time>
</trkpt>
<trkpt lat="34.9420740" lon="32.9304612">
<ele>1190.17</ele>
<time>2015-04-29T14:26:41Z</time>
</trkpt>
<trkpt lat="34.9421207" lon="32.9304603">
<ele>1190.69</ele>
<time>2015-04-29T14:26:44Z</time>
</trkpt>
<trkpt lat="34.9421720" lon="32.9304458">
<ele>1189.85</ele>
<time>2015-04-29T14:26:49Z</time>
</trkpt>
<trkpt lat="34.9422175" lon="32.9304201">
<ele>1190.20</ele>
<time>2015-04-29T14:26:53Z</time>
</trkpt>
<trkpt lat="34.9422590" lon="32.9303973">
<ele>1188.20</ele>
<time>2015-04-29T14:27:05Z</time>
</trkpt>
<trkpt lat="34.9423084" lon="32.9303837">
<ele>1187.31</ele>
<time>2015-04-29T14:27:08Z</time>
</trkpt>
<trkpt lat="34.9423868" lon="32.9303968">
<ele>1187.40</ele>
<time>2015-04-29T14:27:10Z</time>
</trkpt>
<trkpt lat="34.9424370" lon="32.9304080">
<ele>1187.58</ele>
<time>2015-04-29T14:27:11Z</time>
</trkpt>
<trkpt lat="34.9425116" lon="32.9304246">
<ele>1187.67</ele>
<time>2015-04-29T14:27:12Z</time>
</trkpt>
<trkpt lat="34.9425770" lon="32.9304176">
<ele>1187.71</ele>
<time>2015-04-29T14:27:13Z</time>
</trkpt>
<trkpt lat="34.9426382" lon="32.9303908">
<ele>1187.74</ele>
<time>2015-04-29T14:27:14Z</time>
</trkpt>
<trkpt lat="34.9426874" lon="32.9303477">
<ele>1187.75</ele>
<time>2015-04-29T14:27:15Z</time>
</trkpt>
<trkpt lat="34.9427317" lon="32.9302869">
<ele>1188.25</ele>
<time>2015-04-29T14:27:16Z</time>
</trkpt>
<trkpt lat="34.9427504" lon="32.9302017">
<ele>1188.51</ele>
<time>2015-04-29T14:27:17Z</time>
</trkpt>
<trkpt lat="34.9427534" lon="32.9301132">
<ele>1188.63</ele>
<time>2015-04-29T14:27:18Z</time>
</trkpt>
<trkpt lat="34.9427517" lon="32.9300246">
<ele>1189.20</ele>
<time>2015-04-29T14:27:19Z</time>
</trkpt>
<trkpt lat="34.9427573" lon="32.9299232">
<ele>1188.98</ele>
<time>2015-04-29T14:27:20Z</time>
</trkpt>
<trkpt lat="34.9427399" lon="32.9298129">
<ele>1188.37</ele>
<time>2015-04-29T14:27:21Z</time>
</trkpt>
<trkpt lat="34.9427316" lon="32.9297057">
<ele>1187.56</ele>
<time>2015-04-29T14:27:22Z</time>
</trkpt>
<trkpt lat="34.9427185" lon="32.9296032">
<ele>1187.16</ele>
<time>2015-04-29T14:27:23Z</time>
</trkpt>
<trkpt lat="34.9427124" lon="32.9295014">
<ele>1186.46</ele>
<time>2015-04-29T14:27:24Z</time>
</trkpt>
<trkpt lat="34.9427149" lon="32.9294027">
<ele>1186.11</ele>
<time>2015-04-29T14:27:25Z</time>
</trkpt>
<trkpt lat="34.9427278" lon="32.9293089">
<ele>1185.44</ele>
<time>2015-04-29T14:27:26Z</time>
</trkpt>
<trkpt lat="34.9427384" lon="32.9292192">
<ele>1184.60</ele>
<time>2015-04-29T14:27:27Z</time>
</trkpt>
<trkpt lat="34.9427740" lon="32.9291388">
<ele>1183.68</ele>
<time>2015-04-29T14:27:28Z</time>
</trkpt>
<trkpt lat="34.9428245" lon="32.9290600">
<ele>1182.72</ele>
<time>2015-04-29T14:27:29Z</time>
</trkpt>
<trkpt lat="34.9428857" lon="32.9289968">
<ele>1182.24</ele>
<time>2015-04-29T14:27:30Z</time>
</trkpt>
<trkpt lat="34.9429560" lon="32.9289506">
<ele>1182.00</ele>
<time>2015-04-29T14:27:31Z</time>
</trkpt>
<trkpt lat="34.9430434" lon="32.9288954">
<ele>1182.38</ele>
<time>2015-04-29T14:27:32Z</time>
</trkpt>
<trkpt lat="34.9431348" lon="32.9288554">
<ele>1182.07</ele>
<time>2015-04-29T14:27:33Z</time>
</trkpt>
<trkpt lat="34.9432287" lon="32.9288135">
<ele>1181.92</ele>
<time>2015-04-29T14:27:34Z</time>
</trkpt>
<trkpt lat="34.9433146" lon="32.9287574">
<ele>1181.34</ele>
<time>2015-04-29T14:27:35Z</time>
</trkpt>
<trkpt lat="34.9434109" lon="32.9286996">
<ele>1181.55</ele>
<time>2015-04-29T14:27:36Z</time>
</trkpt>
<trkpt lat="34.9434980" lon="32.9286569">
<ele>1181.65</ele>
<time>2015-04-29T14:27:37Z</time>
</trkpt>
<trkpt lat="34.9435972" lon="32.9286123">
<ele>1181.71</ele>
<time>2015-04-29T14:27:38Z</time>
</trkpt>
<trkpt lat="34.9436991" lon="32.9285671">
<ele>1181.23</ele>
<time>2015-04-29T14:27:39Z</time>
</trkpt>
<trkpt lat="34.9438057" lon="32.9285152">
<ele>1181.00</ele>
<time>2015-04-29T14:27:40Z</time>
</trkpt>
<trkpt lat="34.9438930" lon="32.9284396">
<ele>1180.38</ele>
<time>2015-04-29T14:27:41Z</time>
</trkpt>
<trkpt lat="34.9439903" lon="32.9283774">
<ele>1180.07</ele>
<time>2015-04-29T14:27:42Z</time>
</trkpt>
<trkpt lat="34.9440823" lon="32.9283067">
<ele>1179.41</ele>
<time>2015-04-29T14:27:43Z</time>
</trkpt>
<trkpt lat="34.9441985" lon="32.9282335">
<ele>1178.09</ele>
<time>2015-04-29T14:27:44Z</time>
</trkpt>
<trkpt lat="34.9443016" lon="32.9281538">
<ele>1176.92</ele>
<time>2015-04-29T14:27:45Z</time>
</trkpt>
<trkpt lat="34.9444129" lon="32.9280778">
<ele>1175.84</ele>
<time>2015-04-29T14:27:46Z</time>
</trkpt>
<trkpt lat="34.9445131" lon="32.9279922">
<ele>1175.30</ele>
<time>2015-04-29T14:27:47Z</time>
</trkpt>
<trkpt lat="34.9446031" lon="32.9278697">
<ele>1173.03</ele>
<time>2015-04-29T14:27:48Z</time>
</trkpt>
<trkpt lat="34.9446946" lon="32.9277465">
<ele>1170.90</ele>
<time>2015-04-29T14:27:49Z</time>
</trkpt>
<trkpt lat="34.9447836" lon="32.9276220">
<ele>1168.83</ele>
<time>2015-04-29T14:27:50Z</time>
</trkpt>
<trkpt lat="34.9448619" lon="32.9275038">
<ele>1167.29</ele>
<time>2015-04-29T14:27:51Z</time>
</trkpt>
<trkpt lat="34.9449530" lon="32.9273644">
<ele>1165.53</ele>
<time>2015-04-29T14:27:52Z</time>
</trkpt>
<trkpt lat="34.9450249" lon="32.9272310">
<ele>1164.14</ele>
<time>2015-04-29T14:27:53Z</time>
</trkpt>
<trkpt lat="34.9450938" lon="32.9270956">
<ele>1163.45</ele>
<time>2015-04-29T14:27:54Z</time>
</trkpt>
<trkpt lat="34.9451480" lon="32.9269558">
<ele>1162.61</ele>
<time>2015-04-29T14:27:55Z</time>
</trkpt>
<trkpt lat="34.9452182" lon="32.9268118">
<ele>1161.68</ele>
<time>2015-04-29T14:27:56Z</time>
</trkpt>
<trkpt lat="34.9452754" lon="32.9266770">
<ele>1160.72</ele>
<time>2015-04-29T14:27:57Z</time>
</trkpt>
<trkpt lat="34.9453486" lon="32.9265596">
<ele>1160.24</ele>
<time>2015-04-29T14:27:58Z</time>
</trkpt>
<trkpt lat="34.9454231" lon="32.9264482">
<ele>1159.50</ele>
<time>2015-04-29T14:27:59Z</time>
</trkpt>
<trkpt lat="34.9455090" lon="32.9263361">
<ele>1159.13</ele>
<time>2015-04-29T14:28:00Z</time>
</trkpt>
<trkpt lat="34.9456157" lon="32.9262539">
<ele>1158.95</ele>
<time>2015-04-29T14:28:01Z</time>
</trkpt>
<trkpt lat="34.9457149" lon="32.9261792">
<ele>1158.85</ele>
<time>2015-04-29T14:28:02Z</time>
</trkpt>
<trkpt lat="34.9458140" lon="32.9261189">
<ele>1158.31</ele>
<time>2015-04-29T14:28:03Z</time>
</trkpt>
<trkpt lat="34.9459397" lon="32.9261066">
<ele>1158.53</ele>
<time>2015-04-29T14:28:04Z</time>
</trkpt>
<trkpt lat="34.9460569" lon="32.9261173">
<ele>1158.65</ele>
<time>2015-04-29T14:28:05Z</time>
</trkpt>
<trkpt lat="34.9461706" lon="32.9261474">
<ele>1158.70</ele>
<time>2015-04-29T14:28:06Z</time>
</trkpt>
<trkpt lat="34.9462999" lon="32.9262006">
<ele>1158.23</ele>
<time>2015-04-29T14:28:07Z</time>
</trkpt>
<trkpt lat="34.9463716" lon="32.9262809">
<ele>1157.50</ele>
<time>2015-04-29T14:28:08Z</time>
</trkpt>
<trkpt lat="34.9464432" lon="32.9263607">
<ele>1157.63</ele>
<time>2015-04-29T14:28:09Z</time>
</trkpt>
<trkpt lat="34.9464875" lon="32.9264426">
<ele>1156.69</ele>
<time>2015-04-29T14:28:10Z</time>
</trkpt>
<trkpt lat="34.9465328" lon="32.9265510">
<ele>1155.73</ele>
<time>2015-04-29T14:28:11Z</time>
</trkpt>
<trkpt lat="34.9465516" lon="32.9266593">
<ele>1155.24</ele>
<time>2015-04-29T14:28:12Z</time>
</trkpt>
<trkpt lat="34.9465260" lon="32.9267339">
<ele>1152.50</ele>
<time>2015-04-29T14:28:13Z</time>
</trkpt>
<trkpt lat="34.9465183" lon="32.9268401">
<ele>1150.63</ele>
<time>2015-04-29T14:28:14Z</time>
</trkpt>
<trkpt lat="34.9465090" lon="32.9269548">
<ele>1149.70</ele>
<time>2015-04-29T14:28:15Z</time>
</trkpt>
<trkpt lat="34.9464789" lon="32.9270708">
<ele>1149.23</ele>
<time>2015-04-29T14:28:16Z</time>
</trkpt>
<trkpt lat="34.9464429" lon="32.9271822">
<ele>1148.99</ele>
<time>2015-04-29T14:28:17Z</time>
</trkpt>
<trkpt lat="34.9464081" lon="32.9272924">
<ele>1148.88</ele>
<time>2015-04-29T14:28:18Z</time>
</trkpt>
<trkpt lat="34.9463705" lon="32.9274085">
<ele>1148.32</ele>
<time>2015-04-29T14:28:19Z</time>
</trkpt>
<trkpt lat="34.9463211" lon="32.9275126">
<ele>1146.54</ele>
<time>2015-04-29T14:28:20Z</time>
</trkpt>
<trkpt lat="34.9462695" lon="32.9276292">
<ele>1145.15</ele>
<time>2015-04-29T14:28:21Z</time>
</trkpt>
<trkpt lat="34.9462270" lon="32.9277514">
<ele>1144.45</ele>
<time>2015-04-29T14:28:22Z</time>
</trkpt>
<trkpt lat="34.9461895" lon="32.9278702">
<ele>1143.61</ele>
<time>2015-04-29T14:28:23Z</time>
</trkpt>
<trkpt lat="34.9461445" lon="32.9279926">
<ele>1143.18</ele>
<time>2015-04-29T14:28:24Z</time>
</trkpt>
<trkpt lat="34.9461017" lon="32.9281014">
<ele>1142.47</ele>
<time>2015-04-29T14:28:25Z</time>
</trkpt>
<trkpt lat="34.9460564" lon="32.9282091">
<ele>1142.12</ele>
<time>2015-04-29T14:28:26Z</time>
</trkpt>
<trkpt lat="34.9460066" lon="32.9283098">
<ele>1141.94</ele>
<time>2015-04-29T14:28:27Z</time>
</trkpt>
<trkpt lat="34.9459752" lon="32.9283894">
<ele>1141.35</ele>
<time>2015-04-29T14:28:28Z</time>
</trkpt>
<trkpt lat="34.9459519" lon="32.9284636">
<ele>1140.55</ele>
<time>2015-04-29T14:28:29Z</time>
</trkpt>
<trkpt lat="34.9459290" lon="32.9285146">
<ele>1137.93</ele>
<time>2015-04-29T14:28:33Z</time>
</trkpt>
<trkpt lat="34.9458989" lon="32.9285770">
<ele>1138.14</ele>
<time>2015-04-29T14:28:56Z</time>
</trkpt>
<trkpt lat="34.9458798" lon="32.9286562">
<ele>1137.85</ele>
<time>2015-04-29T14:28:58Z</time>
</trkpt>
<trkpt lat="34.9458548" lon="32.9287326">
<ele>1137.03</ele>
<time>2015-04-29T14:29:00Z</time>
</trkpt>
<trkpt lat="34.9458398" lon="32.9288278">
<ele>1136.33</ele>
<time>2015-04-29T14:29:02Z</time>
</trkpt>
<trkpt lat="34.9458420" lon="32.9288963">
<ele>1135.54</ele>
<time>2015-04-29T14:29:03Z</time>
</trkpt>
<trkpt lat="34.9458856" lon="32.9290001">
<ele>1134.15</ele>
<time>2015-04-29T14:29:04Z</time>
</trkpt>
<trkpt lat="34.9459148" lon="32.9290865">
<ele>1133.46</ele>
<time>2015-04-29T14:29:05Z</time>
</trkpt>
<trkpt lat="34.9459332" lon="32.9291606">
<ele>1133.11</ele>
<time>2015-04-29T14:29:06Z</time>
</trkpt>
<trkpt lat="34.9459641" lon="32.9292353">
<ele>1132.43</ele>
<time>2015-04-29T14:29:07Z</time>
</trkpt>
<trkpt lat="34.9459717" lon="32.9293067">
<ele>1130.60</ele>
<time>2015-04-29T14:29:08Z</time>
</trkpt>
<trkpt lat="34.9460231" lon="32.9293961">
<ele>1128.68</ele>
<time>2015-04-29T14:29:09Z</time>
</trkpt>
<trkpt lat="34.9460745" lon="32.9294748">
<ele>1127.72</ele>
<time>2015-04-29T14:29:10Z</time>
</trkpt>
<trkpt lat="34.9461257" lon="32.9295444">
<ele>1127.24</ele>
<time>2015-04-29T14:29:11Z</time>
</trkpt>
<trkpt lat="34.9462059" lon="32.9296113">
<ele>1127.50</ele>
<time>2015-04-29T14:29:12Z</time>
</trkpt>
<trkpt lat="34.9462803" lon="32.9296729">
<ele>1127.63</ele>
<time>2015-04-29T14:29:13Z</time>
</trkpt>
<trkpt lat="34.9463675" lon="32.9297208">
<ele>1127.19</ele>
<time>2015-04-29T14:29:14Z</time>
</trkpt>
<trkpt lat="34.9464466" lon="32.9297633">
<ele>1126.48</ele>
<time>2015-04-29T14:29:15Z</time>
</trkpt>
<trkpt lat="34.9465438" lon="32.9297994">
<ele>1126.12</ele>
<time>2015-04-29T14:29:16Z</time>
</trkpt>
<trkpt lat="34.9466406" lon="32.9298014">
<ele>1125.94</ele>
<time>2015-04-29T14:29:17Z</time>
</trkpt>
<trkpt lat="34.9467241" lon="32.9297999">
<ele>1124.85</ele>
<time>2015-04-29T14:29:18Z</time>
</trkpt>
<trkpt lat="34.9468235" lon="32.9298040">
<ele>1124.30</ele>
<time>2015-04-29T14:29:19Z</time>
</trkpt>
<trkpt lat="34.9469143" lon="32.9297999">
<ele>1124.03</ele>
<time>2015-04-29T14:29:20Z</time>
</trkpt>
<trkpt lat="34.9469968" lon="32.9297937">
<ele>1122.90</ele>
<time>2015-04-29T14:29:21Z</time>
</trkpt>
<trkpt lat="34.9470568" lon="32.9297493">
<ele>1121.83</ele>
<time>2015-04-29T14:29:22Z</time>
</trkpt>
<trkpt lat="34.9471071" lon="32.9296948">
<ele>1120.79</ele>
<time>2015-04-29T14:29:23Z</time>
</trkpt>
<trkpt lat="34.9471779" lon="32.9296477">
<ele>1120.28</ele>
<time>2015-04-29T14:29:24Z</time>
</trkpt>
<trkpt lat="34.9472646" lon="32.9296152">
<ele>1120.02</ele>
<time>2015-04-29T14:29:25Z</time>
</trkpt>
<trkpt lat="34.9473521" lon="32.9295703">
<ele>1119.89</ele>
<time>2015-04-29T14:29:26Z</time>
</trkpt>
<trkpt lat="34.9474521" lon="32.9295418">
<ele>1119.82</ele>
<time>2015-04-29T14:29:27Z</time>
</trkpt>
<trkpt lat="34.9475414" lon="32.9294841">
<ele>1119.29</ele>
<time>2015-04-29T14:29:28Z</time>
</trkpt>
<trkpt lat="34.9476381" lon="32.9294384">
<ele>1118.53</ele>
<time>2015-04-29T14:29:29Z</time>
</trkpt>
<trkpt lat="34.9477387" lon="32.9293946">
<ele>1118.14</ele>
<time>2015-04-29T14:29:30Z</time>
</trkpt>
<trkpt lat="34.9478403" lon="32.9293473">
<ele>1117.95</ele>
<time>2015-04-29T14:29:31Z</time>
</trkpt>
<trkpt lat="34.9479600" lon="32.9293121">
<ele>1117.36</ele>
<time>2015-04-29T14:29:32Z</time>
</trkpt>
<trkpt lat="34.9480566" lon="32.9292460">
<ele>1116.56</ele>
<time>2015-04-29T14:29:33Z</time>
</trkpt>
<trkpt lat="34.9481615" lon="32.9291861">
<ele>1115.66</ele>
<time>2015-04-29T14:29:34Z</time>
</trkpt>
<trkpt lat="34.9482680" lon="32.9291242">
<ele>1114.71</ele>
<time>2015-04-29T14:29:35Z</time>
</trkpt>
<trkpt lat="34.9483705" lon="32.9290462">
<ele>1114.23</ele>
<time>2015-04-29T14:29:36Z</time>
</trkpt>
<trkpt lat="34.9484780" lon="32.9289711">
<ele>1113.50</ele>
<time>2015-04-29T14:29:37Z</time>
</trkpt>
<trkpt lat="34.9485951" lon="32.9289019">
<ele>1113.13</ele>
<time>2015-04-29T14:29:38Z</time>
</trkpt>
<trkpt lat="34.9486907" lon="32.9288174">
<ele>1111.94</ele>
<time>2015-04-29T14:29:39Z</time>
</trkpt>
<trkpt lat="34.9488006" lon="32.9287320">
<ele>1111.35</ele>
<time>2015-04-29T14:29:40Z</time>
</trkpt>
<trkpt lat="34.9489032" lon="32.9286268">
<ele>1110.06</ele>
<time>2015-04-29T14:29:41Z</time>
</trkpt>
<trkpt lat="34.9489940" lon="32.9285168">
<ele>1108.91</ele>
<time>2015-04-29T14:29:42Z</time>
</trkpt>
<trkpt lat="34.9490916" lon="32.9284000">
<ele>1107.33</ele>
<time>2015-04-29T14:29:43Z</time>
</trkpt>
<trkpt lat="34.9491847" lon="32.9282792">
<ele>1105.55</ele>
<time>2015-04-29T14:29:44Z</time>
</trkpt>
<trkpt lat="34.9492668" lon="32.9281625">
<ele>1104.65</ele>
<time>2015-04-29T14:29:45Z</time>
</trkpt>
<trkpt lat="34.9493628" lon="32.9280349">
<ele>1104.21</ele>
<time>2015-04-29T14:29:46Z</time>
</trkpt>
<trkpt lat="34.9494594" lon="32.9279270">
<ele>1103.48</ele>
<time>2015-04-29T14:29:47Z</time>
</trkpt>
<trkpt lat="34.9495469" lon="32.9277993">
<ele>1102.62</ele>
<time>2015-04-29T14:29:48Z</time>
</trkpt>
<trkpt lat="34.9495865" lon="32.9276488">
<ele>1100.69</ele>
<time>2015-04-29T14:29:49Z</time>
</trkpt>
<trkpt lat="34.9496629" lon="32.9275182">
<ele>1099.73</ele>
<time>2015-04-29T14:29:50Z</time>
</trkpt>
<trkpt lat="34.9497328" lon="32.9273925">
<ele>1098.24</ele>
<time>2015-04-29T14:29:51Z</time>
</trkpt>
<trkpt lat="34.9498030" lon="32.9272435">
<ele>1096.50</ele>
<time>2015-04-29T14:29:52Z</time>
</trkpt>
<trkpt lat="34.9498628" lon="32.9271040">
<ele>1095.63</ele>
<time>2015-04-29T14:29:53Z</time>
</trkpt>
<trkpt lat="34.9499324" lon="32.9269682">
<ele>1095.20</ele>
<time>2015-04-29T14:29:54Z</time>
</trkpt>
<trkpt lat="34.9500029" lon="32.9268420">
<ele>1094.48</ele>
<time>2015-04-29T14:29:55Z</time>
</trkpt>
<trkpt lat="34.9500704" lon="32.9267294">
<ele>1093.12</ele>
<time>2015-04-29T14:29:56Z</time>
</trkpt>
<trkpt lat="34.9501285" lon="32.9266223">
<ele>1092.44</ele>
<time>2015-04-29T14:29:57Z</time>
</trkpt>
<trkpt lat="34.9501855" lon="32.9265012">
<ele>1092.10</ele>
<time>2015-04-29T14:29:58Z</time>
</trkpt>
<trkpt lat="34.9502503" lon="32.9263856">
<ele>1091.93</ele>
<time>2015-04-29T14:29:59Z</time>
</trkpt>
<trkpt lat="34.9503220" lon="32.9262602">
<ele>1090.84</ele>
<time>2015-04-29T14:30:00Z</time>
</trkpt>
<trkpt lat="34.9503796" lon="32.9261447">
<ele>1090.30</ele>
<time>2015-04-29T14:30:01Z</time>
</trkpt>
<trkpt lat="34.9504664" lon="32.9260467">
<ele>1090.03</ele>
<time>2015-04-29T14:30:02Z</time>
</trkpt>
<trkpt lat="34.9505557" lon="32.9259551">
<ele>1089.40</ele>
<time>2015-04-29T14:30:03Z</time>
</trkpt>
<trkpt lat="34.9506695" lon="32.9258638">
<ele>1089.58</ele>
<time>2015-04-29T14:30:04Z</time>
</trkpt>
<trkpt lat="34.9507660" lon="32.9257860">
<ele>1089.67</ele>
<time>2015-04-29T14:30:05Z</time>
</trkpt>
<trkpt lat="34.9508739" lon="32.9257214">
<ele>1089.21</ele>
<time>2015-04-29T14:30:06Z</time>
</trkpt>
<trkpt lat="34.9509954" lon="32.9256799">
<ele>1088.99</ele>
<time>2015-04-29T14:30:07Z</time>
</trkpt>
<trkpt lat="34.9511107" lon="32.9256323">
<ele>1088.37</ele>
<time>2015-04-29T14:30:08Z</time>
</trkpt>
<trkpt lat="34.9512120" lon="32.9255954">
<ele>1087.57</ele>
<time>2015-04-29T14:30:09Z</time>
</trkpt>
<trkpt lat="34.9513232" lon="32.9256068">
<ele>1086.16</ele>
<time>2015-04-29T14:30:10Z</time>
</trkpt>
<trkpt lat="34.9514185" lon="32.9256111">
<ele>1084.46</ele>
<time>2015-04-29T14:30:11Z</time>
</trkpt>
<trkpt lat="34.9515143" lon="32.9256428">
<ele>1083.61</ele>
<time>2015-04-29T14:30:12Z</time>
</trkpt>
<trkpt lat="34.9515905" lon="32.9256708">
<ele>1083.19</ele>
<time>2015-04-29T14:30:13Z</time>
</trkpt>
<trkpt lat="34.9516660" lon="32.9257148">
<ele>1081.47</ele>
<time>2015-04-29T14:30:14Z</time>
</trkpt>
<trkpt lat="34.9517142" lon="32.9257402">
<ele>1080.62</ele>
<time>2015-04-29T14:30:15Z</time>
</trkpt>
<trkpt lat="34.9517686" lon="32.9257275">
<ele>1076.97</ele>
<time>2015-04-29T14:30:17Z</time>
</trkpt>
<trkpt lat="34.9517845" lon="32.9256754">
<ele>1070.89</ele>
<time>2015-04-29T14:30:22Z</time>
</trkpt>
<trkpt lat="34.9517980" lon="32.9256201">
<ele>1064.99</ele>
<time>2015-04-29T14:31:08Z</time>
</trkpt>
<trkpt lat="34.9518166" lon="32.9255491">
<ele>1063.84</ele>
<time>2015-04-29T14:31:12Z</time>
</trkpt>
<trkpt lat="34.9518099" lon="32.9254737">
<ele>1064.27</ele>
<time>2015-04-29T14:31:15Z</time>
</trkpt>
<trkpt lat="34.9517903" lon="32.9254098">
<ele>1063.57</ele>
<time>2015-04-29T14:31:18Z</time>
</trkpt>
<trkpt lat="34.9517782" lon="32.9253418">
<ele>1064.24</ele>
<time>2015-04-29T14:31:21Z</time>
</trkpt>
<trkpt lat="34.9517774" lon="32.9252810">
<ele>1064.63</ele>
<time>2015-04-29T14:31:23Z</time>
</trkpt>
<trkpt lat="34.9517958" lon="32.9252207">
<ele>1064.23</ele>
<time>2015-04-29T14:31:25Z</time>
</trkpt>
<trkpt lat="34.9518441" lon="32.9251742">
<ele>1064.69</ele>
<time>2015-04-29T14:31:28Z</time>
</trkpt>
<trkpt lat="34.9519094" lon="32.9251616">
<ele>1065.63</ele>
<time>2015-04-29T14:31:31Z</time>
</trkpt>
<trkpt lat="34.9519743" lon="32.9251571">
<ele>1066.48</ele>
<time>2015-04-29T14:31:33Z</time>
</trkpt>
<trkpt lat="34.9520383" lon="32.9251473">
<ele>1066.19</ele>
<time>2015-04-29T14:31:35Z</time>
</trkpt>
<trkpt lat="34.9520956" lon="32.9251403">
<ele>1065.62</ele>
<time>2015-04-29T14:31:37Z</time>
</trkpt>
<trkpt lat="34.9521434" lon="32.9251112">
<ele>1065.74</ele>
<time>2015-04-29T14:31:40Z</time>
</trkpt>
<trkpt lat="34.9521802" lon="32.9250742">
<ele>1065.01</ele>
<time>2015-04-29T14:31:42Z</time>
</trkpt>
<trkpt lat="34.9522261" lon="32.9250128">
<ele>1064.82</ele>
<time>2015-04-29T14:31:44Z</time>
</trkpt>
<trkpt lat="34.9522700" lon="32.9249547">
<ele>1064.28</ele>
<time>2015-04-29T14:31:46Z</time>
</trkpt>
<trkpt lat="34.9523047" lon="32.9248958">
<ele>1063.89</ele>
<time>2015-04-29T14:31:48Z</time>
</trkpt>
<trkpt lat="34.9523346" lon="32.9248484">
<ele>1063.79</ele>
<time>2015-04-29T14:31:50Z</time>
</trkpt>
<trkpt lat="34.9523558" lon="32.9247918">
<ele>1063.77</ele>
<time>2015-04-29T14:31:52Z</time>
</trkpt>
<trkpt lat="34.9523536" lon="32.9247291">
<ele>1064.26</ele>
<time>2015-04-29T14:31:54Z</time>
</trkpt>
<trkpt lat="34.9523358" lon="32.9246677">
<ele>1064.14</ele>
<time>2015-04-29T14:31:56Z</time>
</trkpt>
<trkpt lat="34.9522924" lon="32.9246068">
<ele>1064.60</ele>
<time>2015-04-29T14:31:58Z</time>
</trkpt>
<trkpt lat="34.9522507" lon="32.9245406">
<ele>1064.47</ele>
<time>2015-04-29T14:32:00Z</time>
</trkpt>
<trkpt lat="34.9522237" lon="32.9244713">
<ele>1063.94</ele>
<time>2015-04-29T14:32:02Z</time>
</trkpt>
<trkpt lat="34.9522192" lon="32.9243971">
<ele>1064.05</ele>
<time>2015-04-29T14:32:04Z</time>
</trkpt>
<trkpt lat="34.9522354" lon="32.9243230">
<ele>1063.83</ele>
<time>2015-04-29T14:32:06Z</time>
</trkpt>
<trkpt lat="34.9522672" lon="32.9242594">
<ele>1063.53</ele>
<time>2015-04-29T14:32:08Z</time>
</trkpt>
<trkpt lat="34.9523045" lon="32.9242059">
<ele>1063.70</ele>
<time>2015-04-29T14:32:10Z</time>
</trkpt>
<trkpt lat="34.9523366" lon="32.9241489">
<ele>1064.25</ele>
<time>2015-04-29T14:32:12Z</time>
</trkpt>
<trkpt lat="34.9523438" lon="32.9240801">
<ele>1064.63</ele>
<time>2015-04-29T14:32:14Z</time>
</trkpt>
<trkpt lat="34.9523480" lon="32.9240064">
<ele>1064.23</ele>
<time>2015-04-29T14:32:16Z</time>
</trkpt>
<trkpt lat="34.9523576" lon="32.9239212">
<ele>1063.88</ele>
<time>2015-04-29T14:32:18Z</time>
</trkpt>
<trkpt lat="34.9523706" lon="32.9238302">
<ele>1063.79</ele>
<time>2015-04-29T14:32:20Z</time>
</trkpt>
<trkpt lat="34.9523845" lon="32.9237426">
<ele>1064.27</ele>
<time>2015-04-29T14:32:22Z</time>
</trkpt>
<trkpt lat="34.9523918" lon="32.9236641">
<ele>1063.89</ele>
<time>2015-04-29T14:32:24Z</time>
</trkpt>
<trkpt lat="34.9523965" lon="32.9235977">
<ele>1065.15</ele>
<time>2015-04-29T14:32:27Z</time>
</trkpt>
<trkpt lat="34.9524041" lon="32.9235182">
<ele>1064.18</ele>
<time>2015-04-29T14:32:30Z</time>
</trkpt>
<trkpt lat="34.9524336" lon="32.9234470">
<ele>1063.81</ele>
<time>2015-04-29T14:32:33Z</time>
</trkpt>
<trkpt lat="34.9524830" lon="32.9233964">
<ele>1064.27</ele>
<time>2015-04-29T14:32:36Z</time>
</trkpt>
<trkpt lat="34.9525370" lon="32.9233633">
<ele>1064.95</ele>
<time>2015-04-29T14:32:39Z</time>
</trkpt>
<trkpt lat="34.9526012" lon="32.9233594">
<ele>1065.28</ele>
<time>2015-04-29T14:32:42Z</time>
</trkpt>
<trkpt lat="34.9526570" lon="32.9233703">
<ele>1066.14</ele>
<time>2015-04-29T14:32:44Z</time>
</trkpt>
<trkpt lat="34.9527136" lon="32.9233955">
<ele>1067.86</ele>
<time>2015-04-29T14:32:46Z</time>
</trkpt>
<trkpt lat="34.9527665" lon="32.9234270">
<ele>1069.03</ele>
<time>2015-04-29T14:32:48Z</time>
</trkpt>
<trkpt lat="34.9528175" lon="32.9234611">
<ele>1068.83</ele>
<time>2015-04-29T14:32:50Z</time>
</trkpt>
<trkpt lat="34.9528638" lon="32.9234931">
<ele>1066.27</ele>
<time>2015-04-29T14:32:53Z</time>
</trkpt>
<trkpt lat="34.9529212" lon="32.9235012">
<ele>1064.82</ele>
<time>2015-04-29T14:32:56Z</time>
</trkpt>
<trkpt lat="34.9529791" lon="32.9234718">
<ele>1064.39</ele>
<time>2015-04-29T14:32:59Z</time>
</trkpt>
<trkpt lat="34.9530263" lon="32.9234298">
<ele>1064.17</ele>
<time>2015-04-29T14:33:01Z</time>
</trkpt>
<trkpt lat="34.9530944" lon="32.9233547">
<ele>1063.36</ele>
<time>2015-04-29T14:33:03Z</time>
</trkpt>
<trkpt lat="34.9531327" lon="32.9233153">
<ele>1064.56</ele>
<time>2015-04-29T14:33:04Z</time>
</trkpt>
<trkpt lat="34.9531808" lon="32.9232674">
<ele>1065.16</ele>
<time>2015-04-29T14:33:05Z</time>
</trkpt>
<trkpt lat="34.9532544" lon="32.9232322">
<ele>1066.36</ele>
<time>2015-04-29T14:33:07Z</time>
</trkpt>
<trkpt lat="34.9533246" lon="32.9231986">
<ele>1067.41</ele>
<time>2015-04-29T14:33:09Z</time>
</trkpt>
<trkpt lat="34.9533863" lon="32.9231667">
<ele>1067.67</ele>
<time>2015-04-29T14:33:11Z</time>
</trkpt>
<trkpt lat="34.9534464" lon="32.9231444">
<ele>1066.99</ele>
<time>2015-04-29T14:33:13Z</time>
</trkpt>
<trkpt lat="34.9535133" lon="32.9231224">
<ele>1066.82</ele>
<time>2015-04-29T14:33:15Z</time>
</trkpt>
<trkpt lat="34.9535652" lon="32.9230892">
<ele>1067.02</ele>
<time>2015-04-29T14:33:17Z</time>
</trkpt>
<trkpt lat="34.9536089" lon="32.9230464">
<ele>1066.08</ele>
<time>2015-04-29T14:33:19Z</time>
</trkpt>
<trkpt lat="34.9536475" lon="32.9229848">
<ele>1066.09</ele>
<time>2015-04-29T14:33:21Z</time>
</trkpt>
<trkpt lat="34.9536644" lon="32.9229034">
<ele>1065.84</ele>
<time>2015-04-29T14:33:23Z</time>
</trkpt>
<trkpt lat="34.9536608" lon="32.9228192">
<ele>1065.78</ele>
<time>2015-04-29T14:33:25Z</time>
</trkpt>
<trkpt lat="34.9536394" lon="32.9227465">
<ele>1065.77</ele>
<time>2015-04-29T14:33:27Z</time>
</trkpt>
<trkpt lat="34.9536118" lon="32.9226742">
<ele>1066.26</ele>
<time>2015-04-29T14:33:29Z</time>
</trkpt>
<trkpt lat="34.9535747" lon="32.9225970">
<ele>1065.89</ele>
<time>2015-04-29T14:33:31Z</time>
</trkpt>
<trkpt lat="34.9535318" lon="32.9225088">
<ele>1065.29</ele>
<time>2015-04-29T14:33:33Z</time>
</trkpt>
<trkpt lat="34.9534853" lon="32.9224314">
<ele>1065.64</ele>
<time>2015-04-29T14:33:35Z</time>
</trkpt>
<trkpt lat="34.9534116" lon="32.9223891">
<ele>1065.73</ele>
<time>2015-04-29T14:33:37Z</time>
</trkpt>
<trkpt lat="34.9533266" lon="32.9223762">
<ele>1065.75</ele>
<time>2015-04-29T14:33:39Z</time>
</trkpt>
<trkpt lat="34.9532816" lon="32.9223722">
<ele>1065.26</ele>
<time>2015-04-29T14:33:40Z</time>
</trkpt>
<trkpt lat="34.9531900" lon="32.9223560">
<ele>1064.88</ele>
<time>2015-04-29T14:33:42Z</time>
</trkpt>
<trkpt lat="34.9531138" lon="32.9223093">
<ele>1065.79</ele>
<time>2015-04-29T14:33:44Z</time>
</trkpt>
<trkpt lat="34.9530831" lon="32.9222233">
<ele>1066.52</ele>
<time>2015-04-29T14:33:46Z</time>
</trkpt>
<trkpt lat="34.9531732" lon="32.9221267">
<ele>1065.95</ele>
<time>2015-04-29T14:33:48Z</time>
</trkpt>
<trkpt lat="34.9532350" lon="32.9220893">
<ele>1065.56</ele>
<time>2015-04-29T14:33:50Z</time>
</trkpt>
<trkpt lat="34.9532876" lon="32.9220349">
<ele>1063.96</ele>
<time>2015-04-29T14:33:52Z</time>
</trkpt>
<trkpt lat="34.9533426" lon="32.9219678">
<ele>1062.56</ele>
<time>2015-04-29T14:33:54Z</time>
</trkpt>
<trkpt lat="34.9533907" lon="32.9218990">
<ele>1060.71</ele>
<time>2015-04-29T14:33:56Z</time>
</trkpt>
<trkpt lat="34.9534376" lon="32.9218326">
<ele>1060.25</ele>
<time>2015-04-29T14:33:58Z</time>
</trkpt>
<trkpt lat="34.9534693" lon="32.9217626">
<ele>1059.38</ele>
<time>2015-04-29T14:34:00Z</time>
</trkpt>
<trkpt lat="34.9534695" lon="32.9216806">
<ele>1058.92</ele>
<time>2015-04-29T14:34:02Z</time>
</trkpt>
<trkpt lat="34.9534344" lon="32.9216030">
<ele>1059.55</ele>
<time>2015-04-29T14:34:04Z</time>
</trkpt>
<trkpt lat="34.9533732" lon="32.9215427">
<ele>1059.71</ele>
<time>2015-04-29T14:34:06Z</time>
</trkpt>
<trkpt lat="34.9533077" lon="32.9214766">
<ele>1059.75</ele>
<time>2015-04-29T14:34:08Z</time>
</trkpt>
<trkpt lat="34.9532701" lon="32.9213912">
<ele>1059.76</ele>
<time>2015-04-29T14:34:10Z</time>
</trkpt>
<trkpt lat="34.9532587" lon="32.9212992">
<ele>1059.26</ele>
<time>2015-04-29T14:34:12Z</time>
</trkpt>
<trkpt lat="34.9532475" lon="32.9212094">
<ele>1059.13</ele>
<time>2015-04-29T14:34:14Z</time>
</trkpt>
<trkpt lat="34.9532185" lon="32.9211241">
<ele>1058.85</ele>
<time>2015-04-29T14:34:16Z</time>
</trkpt>
<trkpt lat="34.9531739" lon="32.9210532">
<ele>1059.03</ele>
<time>2015-04-29T14:34:18Z</time>
</trkpt>
<trkpt lat="34.9531497" lon="32.9209647">
<ele>1059.58</ele>
<time>2015-04-29T14:34:20Z</time>
</trkpt>
<trkpt lat="34.9531878" lon="32.9208866">
<ele>1059.67</ele>
<time>2015-04-29T14:34:21Z</time>
</trkpt>
<trkpt lat="34.9532130" lon="32.9208329">
<ele>1059.71</ele>
<time>2015-04-29T14:34:22Z</time>
</trkpt>
<trkpt lat="34.9532727" lon="32.9207463">
<ele>1059.00</ele>
<time>2015-04-29T14:34:24Z</time>
</trkpt>
<trkpt lat="34.9532954" lon="32.9206969">
<ele>1058.88</ele>
<time>2015-04-29T14:34:25Z</time>
</trkpt>
<trkpt lat="34.9533560" lon="32.9206192">
<ele>1058.54</ele>
<time>2015-04-29T14:34:27Z</time>
</trkpt>
<trkpt lat="34.9533908" lon="32.9205715">
<ele>1058.65</ele>
<time>2015-04-29T14:34:28Z</time>
</trkpt>
<trkpt lat="34.9534368" lon="32.9205377">
<ele>1058.70</ele>
<time>2015-04-29T14:34:29Z</time>
</trkpt>
<trkpt lat="34.9534731" lon="32.9204980">
<ele>1058.73</ele>
<time>2015-04-29T14:34:30Z</time>
</trkpt>
<trkpt lat="34.9535330" lon="32.9203953">
<ele>1059.00</ele>
<time>2015-04-29T14:34:32Z</time>
</trkpt>
<trkpt lat="34.9535709" lon="32.9203415">
<ele>1058.38</ele>
<time>2015-04-29T14:34:33Z</time>
</trkpt>
<trkpt lat="34.9535967" lon="32.9202811">
<ele>1058.07</ele>
<time>2015-04-29T14:34:34Z</time>
</trkpt>
<trkpt lat="34.9536202" lon="32.9202245">
<ele>1058.42</ele>
<time>2015-04-29T14:34:35Z</time>
</trkpt>
<trkpt lat="34.9536388" lon="32.9201578">
<ele>1058.59</ele>
<time>2015-04-29T14:34:36Z</time>
</trkpt>
<trkpt lat="34.9536543" lon="32.9200964">
<ele>1059.17</ele>
<time>2015-04-29T14:34:37Z</time>
</trkpt>
<trkpt lat="34.9536575" lon="32.9200363">
<ele>1059.47</ele>
<time>2015-04-29T14:34:38Z</time>
</trkpt>
<trkpt lat="34.9536573" lon="32.9199381">
<ele>1060.44</ele>
<time>2015-04-29T14:34:40Z</time>
</trkpt>
<trkpt lat="34.9536544" lon="32.9198763">
<ele>1060.60</ele>
<time>2015-04-29T14:34:41Z</time>
</trkpt>
<trkpt lat="34.9536471" lon="32.9198150">
<ele>1060.18</ele>
<time>2015-04-29T14:34:42Z</time>
</trkpt>
<trkpt lat="34.9536292" lon="32.9197545">
<ele>1059.47</ele>
<time>2015-04-29T14:34:43Z</time>
</trkpt>
<trkpt lat="34.9536099" lon="32.9196911">
<ele>1059.11</ele>
<time>2015-04-29T14:34:44Z</time>
</trkpt>
<trkpt lat="34.9535805" lon="32.9196222">
<ele>1057.94</ele>
<time>2015-04-29T14:34:45Z</time>
</trkpt>
<trkpt lat="34.9535550" lon="32.9195664">
<ele>1057.35</ele>
<time>2015-04-29T14:34:46Z</time>
</trkpt>
<trkpt lat="34.9535234" lon="32.9195115">
<ele>1056.05</ele>
<time>2015-04-29T14:34:47Z</time>
</trkpt>
<trkpt lat="34.9534774" lon="32.9194312">
<ele>1055.58</ele>
<time>2015-04-29T14:34:49Z</time>
</trkpt>
<trkpt lat="34.9534495" lon="32.9193639">
<ele>1056.47</ele>
<time>2015-04-29T14:34:51Z</time>
</trkpt>
<trkpt lat="34.9534666" lon="32.9192948">
<ele>1055.94</ele>
<time>2015-04-29T14:34:53Z</time>
</trkpt>
<trkpt lat="34.9534770" lon="32.9193526">
<ele>1063.82</ele>
<time>2015-04-29T14:35:18Z</time>
</trkpt>
<trkpt lat="34.9534745" lon="32.9194155">
<ele>1065.89</ele>
<time>2015-04-29T14:35:21Z</time>
</trkpt>
<trkpt lat="34.9534541" lon="32.9193530">
<ele>1067.14</ele>
<time>2015-04-29T14:35:25Z</time>
</trkpt>
<trkpt lat="34.9534817" lon="32.9192617">
<ele>1066.36</ele>
<time>2015-04-29T14:35:27Z</time>
</trkpt>
<trkpt lat="34.9535248" lon="32.9191888">
<ele>1065.06</ele>
<time>2015-04-29T14:35:28Z</time>
</trkpt>
<trkpt lat="34.9535944" lon="32.9191742">
<ele>1063.33</ele>
<time>2015-04-29T14:35:30Z</time>
</trkpt>
<trkpt lat="34.9536154" lon="32.9192326">
<ele>1065.15</ele>
<time>2015-04-29T14:35:32Z</time>
</trkpt>
<trkpt lat="34.9535841" lon="32.9191820">
<ele>1056.75</ele>
<time>2015-04-29T14:35:41Z</time>
</trkpt>
<trkpt lat="34.9536072" lon="32.9192442">
<ele>1050.76</ele>
<time>2015-04-29T14:44:06Z</time>
</trkpt>
<trkpt lat="34.9536555" lon="32.9193017">
<ele>1050.76</ele>
<time>2015-04-29T14:44:08Z</time>
</trkpt>
<trkpt lat="34.9537069" lon="32.9193588">
<ele>1051.26</ele>
<time>2015-04-29T14:44:10Z</time>
</trkpt>
<trkpt lat="34.9537572" lon="32.9194182">
<ele>1052.14</ele>
<time>2015-04-29T14:44:12Z</time>
</trkpt>
<trkpt lat="34.9538070" lon="32.9194802">
<ele>1052.60</ele>
<time>2015-04-29T14:44:14Z</time>
</trkpt>
<trkpt lat="34.9538692" lon="32.9195403">
<ele>1052.72</ele>
<time>2015-04-29T14:44:16Z</time>
</trkpt>
<trkpt lat="34.9539470" lon="32.9195885">
<ele>1052.75</ele>
<time>2015-04-29T14:44:18Z</time>
</trkpt>
<trkpt lat="34.9540333" lon="32.9196264">
<ele>1053.51</ele>
<time>2015-04-29T14:44:20Z</time>
</trkpt>
<trkpt lat="34.9540751" lon="32.9196533">
<ele>1053.63</ele>
<time>2015-04-29T14:44:21Z</time>
</trkpt>
<trkpt lat="34.9541144" lon="32.9196854">
<ele>1054.20</ele>
<time>2015-04-29T14:44:22Z</time>
</trkpt>
<trkpt lat="34.9541494" lon="32.9197236">
<ele>1054.48</ele>
<time>2015-04-29T14:44:23Z</time>
</trkpt>
<trkpt lat="34.9541843" lon="32.9197665">
<ele>1054.62</ele>
<time>2015-04-29T14:44:24Z</time>
</trkpt>
<trkpt lat="34.9542075" lon="32.9198213">
<ele>1056.69</ele>
<time>2015-04-29T14:44:25Z</time>
</trkpt>
<trkpt lat="34.9542189" lon="32.9198792">
<ele>1056.72</ele>
<time>2015-04-29T14:44:26Z</time>
</trkpt>
<trkpt lat="34.9542026" lon="32.9199766">
<ele>1056.74</ele>
<time>2015-04-29T14:44:27Z</time>
</trkpt>
<trkpt lat="34.9542152" lon="32.9200920">
<ele>1054.76</ele>
<time>2015-04-29T14:44:29Z</time>
</trkpt>
<trkpt lat="34.9542124" lon="32.9201574">
<ele>1053.76</ele>
<time>2015-04-29T14:44:30Z</time>
</trkpt>
<trkpt lat="34.9542092" lon="32.9202187">
<ele>1052.26</ele>
<time>2015-04-29T14:44:31Z</time>
</trkpt>
<trkpt lat="34.9542075" lon="32.9202913">
<ele>1052.01</ele>
<time>2015-04-29T14:44:32Z</time>
</trkpt>
<trkpt lat="34.9542008" lon="32.9203501">
<ele>1051.38</ele>
<time>2015-04-29T14:44:33Z</time>
</trkpt>
<trkpt lat="34.9541930" lon="32.9204124">
<ele>1051.07</ele>
<time>2015-04-29T14:44:34Z</time>
</trkpt>
<trkpt lat="34.9541802" lon="32.9204727">
<ele>1051.42</ele>
<time>2015-04-29T14:44:35Z</time>
</trkpt>
<trkpt lat="34.9541829" lon="32.9205452">
<ele>1052.09</ele>
<time>2015-04-29T14:44:36Z</time>
</trkpt>
<trkpt lat="34.9541595" lon="32.9206144">
<ele>1052.42</ele>
<time>2015-04-29T14:44:37Z</time>
</trkpt>
<trkpt lat="34.9541381" lon="32.9206747">
<ele>1049.93</ele>
<time>2015-04-29T14:44:39Z</time>
</trkpt>
<trkpt lat="34.9541626" lon="32.9207334">
<ele>1049.84</ele>
<time>2015-04-29T14:44:40Z</time>
</trkpt>
<trkpt lat="34.9541962" lon="32.9207880">
<ele>1050.80</ele>
<time>2015-04-29T14:44:41Z</time>
</trkpt>
<trkpt lat="34.9542325" lon="32.9208362">
<ele>1050.78</ele>
<time>2015-04-29T14:44:42Z</time>
</trkpt>
<trkpt lat="34.9542765" lon="32.9208823">
<ele>1051.77</ele>
<time>2015-04-29T14:44:43Z</time>
</trkpt>
<trkpt lat="34.9543388" lon="32.9209215">
<ele>1052.27</ele>
<time>2015-04-29T14:44:44Z</time>
</trkpt>
<trkpt lat="34.9544001" lon="32.9209546">
<ele>1052.51</ele>
<time>2015-04-29T14:44:45Z</time>
</trkpt>
<trkpt lat="34.9544652" lon="32.9209846">
<ele>1052.64</ele>
<time>2015-04-29T14:44:46Z</time>
</trkpt>
<trkpt lat="34.9545272" lon="32.9210072">
<ele>1053.20</ele>
<time>2015-04-29T14:44:47Z</time>
</trkpt>
<trkpt lat="34.9545996" lon="32.9210584">
<ele>1052.98</ele>
<time>2015-04-29T14:44:48Z</time>
</trkpt>
<trkpt lat="34.9546549" lon="32.9210880">
<ele>1052.37</ele>
<time>2015-04-29T14:44:49Z</time>
</trkpt>
<trkpt lat="34.9547196" lon="32.9211278">
<ele>1052.06</ele>
<time>2015-04-29T14:44:50Z</time>
</trkpt>
<trkpt lat="34.9547892" lon="32.9211610">
<ele>1051.41</ele>
<time>2015-04-29T14:44:51Z</time>
</trkpt>
<trkpt lat="34.9548690" lon="32.9211860">
<ele>1051.59</ele>
<time>2015-04-29T14:44:52Z</time>
</trkpt>
<trkpt lat="34.9549170" lon="32.9211614">
<ele>1048.67</ele>
<time>2015-04-29T14:44:53Z</time>
</trkpt>
<trkpt lat="34.9549897" lon="32.9211715">
<ele>1046.72</ele>
<time>2015-04-29T14:44:54Z</time>
</trkpt>
<trkpt lat="34.9550546" lon="32.9211657">
<ele>1044.74</ele>
<time>2015-04-29T14:44:55Z</time>
</trkpt>
<trkpt lat="34.9551382" lon="32.9211903">
<ele>1043.25</ele>
<time>2015-04-29T14:44:56Z</time>
</trkpt>
<trkpt lat="34.9552140" lon="32.9212193">
<ele>1042.50</ele>
<time>2015-04-29T14:44:57Z</time>
</trkpt>
<trkpt lat="34.9552854" lon="32.9212566">
<ele>1042.63</ele>
<time>2015-04-29T14:44:58Z</time>
</trkpt>
<trkpt lat="34.9553582" lon="32.9212761">
<ele>1042.70</ele>
<time>2015-04-29T14:44:59Z</time>
</trkpt>
<trkpt lat="34.9554505" lon="32.9213183">
<ele>1042.23</ele>
<time>2015-04-29T14:45:00Z</time>
</trkpt>
<trkpt lat="34.9555237" lon="32.9213584">
<ele>1041.49</ele>
<time>2015-04-29T14:45:01Z</time>
</trkpt>
<trkpt lat="34.9555802" lon="32.9214226">
<ele>1041.63</ele>
<time>2015-04-29T14:45:02Z</time>
</trkpt>
<trkpt lat="34.9556135" lon="32.9214828">
<ele>1040.69</ele>
<time>2015-04-29T14:45:03Z</time>
</trkpt>
<trkpt lat="34.9556471" lon="32.9215400">
<ele>1038.73</ele>
<time>2015-04-29T14:45:04Z</time>
</trkpt>
<trkpt lat="34.9556852" lon="32.9216230">
<ele>1037.24</ele>
<time>2015-04-29T14:45:05Z</time>
</trkpt>
<trkpt lat="34.9557220" lon="32.9216991">
<ele>1035.50</ele>
<time>2015-04-29T14:45:06Z</time>
</trkpt>
<trkpt lat="34.9557691" lon="32.9217820">
<ele>1034.63</ele>
<time>2015-04-29T14:45:07Z</time>
</trkpt>
<trkpt lat="34.9558174" lon="32.9218683">
<ele>1033.70</ele>
<time>2015-04-29T14:45:08Z</time>
</trkpt>
<trkpt lat="34.9558567" lon="32.9219378">
<ele>1032.23</ele>
<time>2015-04-29T14:45:09Z</time>
</trkpt>
<trkpt lat="34.9559007" lon="32.9220050">
<ele>1030.99</ele>
<time>2015-04-29T14:45:10Z</time>
</trkpt>
<trkpt lat="34.9559404" lon="32.9220662">
<ele>1030.38</ele>
<time>2015-04-29T14:45:11Z</time>
</trkpt>
<trkpt lat="34.9559895" lon="32.9221316">
<ele>1030.07</ele>
<time>2015-04-29T14:45:12Z</time>
</trkpt>
<trkpt lat="34.9560429" lon="32.9221954">
<ele>1029.91</ele>
<time>2015-04-29T14:45:13Z</time>
</trkpt>
<trkpt lat="34.9561027" lon="32.9222465">
<ele>1029.84</ele>
<time>2015-04-29T14:45:14Z</time>
</trkpt>
<trkpt lat="34.9561651" lon="32.9222905">
<ele>1029.80</ele>
<time>2015-04-29T14:45:15Z</time>
</trkpt>
<trkpt lat="34.9562388" lon="32.9223315">
<ele>1029.78</ele>
<time>2015-04-29T14:45:16Z</time>
</trkpt>
<trkpt lat="34.9563192" lon="32.9223633">
<ele>1030.27</ele>
<time>2015-04-29T14:45:17Z</time>
</trkpt>
<trkpt lat="34.9564005" lon="32.9223784">
<ele>1030.01</ele>
<time>2015-04-29T14:45:18Z</time>
</trkpt>
<trkpt lat="34.9564757" lon="32.9223911">
<ele>1029.89</ele>
<time>2015-04-29T14:45:19Z</time>
</trkpt>
<trkpt lat="34.9565562" lon="32.9224057">
<ele>1029.82</ele>
<time>2015-04-29T14:45:20Z</time>
</trkpt>
<trkpt lat="34.9566388" lon="32.9224027">
<ele>1029.29</ele>
<time>2015-04-29T14:45:21Z</time>
</trkpt>
<trkpt lat="34.9567054" lon="32.9223784">
<ele>1029.03</ele>
<time>2015-04-29T14:45:22Z</time>
</trkpt>
<trkpt lat="34.9567736" lon="32.9223591">
<ele>1029.39</ele>
<time>2015-04-29T14:45:23Z</time>
</trkpt>
<trkpt lat="34.9568478" lon="32.9223116">
<ele>1029.08</ele>
<time>2015-04-29T14:45:24Z</time>
</trkpt>
<trkpt lat="34.9569232" lon="32.9222794">
<ele>1028.92</ele>
<time>2015-04-29T14:45:25Z</time>
</trkpt>
<trkpt lat="34.9569962" lon="32.9222337">
<ele>1029.34</ele>
<time>2015-04-29T14:45:26Z</time>
</trkpt>
<trkpt lat="34.9570644" lon="32.9221855">
<ele>1029.55</ele>
<time>2015-04-29T14:45:27Z</time>
</trkpt>
<trkpt lat="34.9571272" lon="32.9221200">
<ele>1028.15</ele>
<time>2015-04-29T14:45:28Z</time>
</trkpt>
<trkpt lat="34.9571968" lon="32.9220902">
<ele>1027.46</ele>
<time>2015-04-29T14:45:29Z</time>
</trkpt>
<trkpt lat="34.9572648" lon="32.9220594">
<ele>1026.61</ele>
<time>2015-04-29T14:45:30Z</time>
</trkpt>
<trkpt lat="34.9573348" lon="32.9220394">
<ele>1026.68</ele>
<time>2015-04-29T14:45:31Z</time>
</trkpt>
<trkpt lat="34.9574094" lon="32.9220363">
<ele>1026.72</ele>
<time>2015-04-29T14:45:32Z</time>
</trkpt>
<trkpt lat="34.9574803" lon="32.9220209">
<ele>1026.74</ele>
<time>2015-04-29T14:45:33Z</time>
</trkpt>
<trkpt lat="34.9575376" lon="32.9220101">
<ele>1025.75</ele>
<time>2015-04-29T14:45:34Z</time>
</trkpt>
<trkpt lat="34.9576046" lon="32.9220146">
<ele>1025.26</ele>
<time>2015-04-29T14:45:35Z</time>
</trkpt>
<trkpt lat="34.9576754" lon="32.9219938">
<ele>1025.01</ele>
<time>2015-04-29T14:45:36Z</time>
</trkpt>
<trkpt lat="34.9577433" lon="32.9219694">
<ele>1024.38</ele>
<time>2015-04-29T14:45:37Z</time>
</trkpt>
<trkpt lat="34.9578197" lon="32.9219455">
<ele>1024.07</ele>
<time>2015-04-29T14:45:38Z</time>
</trkpt>
<trkpt lat="34.9578961" lon="32.9219277">
<ele>1023.92</ele>
<time>2015-04-29T14:45:39Z</time>
</trkpt>
<trkpt lat="34.9579646" lon="32.9218950">
<ele>1024.34</ele>
<time>2015-04-29T14:45:40Z</time>
</trkpt>
<trkpt lat="34.9580443" lon="32.9218648">
<ele>1024.55</ele>
<time>2015-04-29T14:45:41Z</time>
</trkpt>
<trkpt lat="34.9581091" lon="32.9218213">
<ele>1025.15</ele>
<time>2015-04-29T14:45:42Z</time>
</trkpt>
<trkpt lat="34.9581596" lon="32.9217560">
<ele>1024.96</ele>
<time>2015-04-29T14:45:43Z</time>
</trkpt>
<trkpt lat="34.9582306" lon="32.9217161">
<ele>1025.86</ele>
<time>2015-04-29T14:45:44Z</time>
</trkpt>
<trkpt lat="34.9582886" lon="32.9216849">
<ele>1026.31</ele>
<time>2015-04-29T14:45:45Z</time>
</trkpt>
<trkpt lat="34.9583269" lon="32.9216435">
<ele>1026.03</ele>
<time>2015-04-29T14:45:46Z</time>
</trkpt>
<trkpt lat="34.9583670" lon="32.9216076">
<ele>1024.83</ele>
<time>2015-04-29T14:45:48Z</time>
</trkpt>
<trkpt lat="34.9584106" lon="32.9215744">
<ele>1023.45</ele>
<time>2015-04-29T14:45:53Z</time>
</trkpt>
<trkpt lat="34.9584576" lon="32.9215331">
<ele>1024.60</ele>
<time>2015-04-29T14:45:56Z</time>
</trkpt>
<trkpt lat="34.9585161" lon="32.9214889">
<ele>1025.47</ele>
<time>2015-04-29T14:45:58Z</time>
</trkpt>
<trkpt lat="34.9585871" lon="32.9214295">
<ele>1022.44</ele>
<time>2015-04-29T14:46:00Z</time>
</trkpt>
<trkpt lat="34.9586140" lon="32.9213812">
<ele>1021.10</ele>
<time>2015-04-29T14:46:01Z</time>
</trkpt>
<trkpt lat="34.9586617" lon="32.9213579">
<ele>1020.43</ele>
<time>2015-04-29T14:46:02Z</time>
</trkpt>
<trkpt lat="34.9587173" lon="32.9213230">
<ele>1019.59</ele>
<time>2015-04-29T14:46:03Z</time>
</trkpt>
<trkpt lat="34.9587701" lon="32.9213054">
<ele>1020.18</ele>
<time>2015-04-29T14:46:04Z</time>
</trkpt>
<trkpt lat="34.9587967" lon="32.9212535">
<ele>1018.47</ele>
<time>2015-04-29T14:46:05Z</time>
</trkpt>
<trkpt lat="34.9588516" lon="32.9212316">
<ele>1017.61</ele>
<time>2015-04-29T14:46:06Z</time>
</trkpt>
<trkpt lat="34.9588950" lon="32.9211996">
<ele>1017.19</ele>
<time>2015-04-29T14:46:07Z</time>
</trkpt>
<trkpt lat="34.9589560" lon="32.9211394">
<ele>1016.97</ele>
<time>2015-04-29T14:46:08Z</time>
</trkpt>
<trkpt lat="34.9590114" lon="32.9210911">
<ele>1016.87</ele>
<time>2015-04-29T14:46:09Z</time>
</trkpt>
<trkpt lat="34.9590539" lon="32.9210390">
<ele>1017.31</ele>
<time>2015-04-29T14:46:10Z</time>
</trkpt>
<trkpt lat="34.9591017" lon="32.9209834">
<ele>1017.54</ele>
<time>2015-04-29T14:46:11Z</time>
</trkpt>
<trkpt lat="34.9591479" lon="32.9209312">
<ele>1017.65</ele>
<time>2015-04-29T14:46:12Z</time>
</trkpt>
<trkpt lat="34.9591996" lon="32.9208801">
<ele>1018.70</ele>
<time>2015-04-29T14:46:13Z</time>
</trkpt>
<trkpt lat="34.9592436" lon="32.9208458">
<ele>1019.23</ele>
<time>2015-04-29T14:46:14Z</time>
</trkpt>
<trkpt lat="34.9592831" lon="32.9208143">
<ele>1019.50</ele>
<time>2015-04-29T14:46:15Z</time>
</trkpt>
<trkpt lat="34.9593341" lon="32.9208045">
<ele>1019.63</ele>
<time>2015-04-29T14:46:16Z</time>
</trkpt>
<trkpt lat="34.9593874" lon="32.9208375">
<ele>1019.69</ele>
<time>2015-04-29T14:46:17Z</time>
</trkpt>
<trkpt lat="34.9594319" lon="32.9208717">
<ele>1019.73</ele>
<time>2015-04-29T14:46:18Z</time>
</trkpt>
<trkpt lat="34.9594788" lon="32.9209240">
<ele>1019.74</ele>
<time>2015-04-29T14:46:19Z</time>
</trkpt>
<trkpt lat="34.9595059" lon="32.9209896">
<ele>1019.75</ele>
<time>2015-04-29T14:46:20Z</time>
</trkpt>
<trkpt lat="34.9595264" lon="32.9210455">
<ele>1019.26</ele>
<time>2015-04-29T14:46:21Z</time>
</trkpt>
<trkpt lat="34.9595294" lon="32.9211274">
<ele>1015.63</ele>
<time>2015-04-29T14:46:23Z</time>
</trkpt>
<trkpt lat="34.9595578" lon="32.9211975">
<ele>1012.98</ele>
<time>2015-04-29T14:46:25Z</time>
</trkpt>
<trkpt lat="34.9596008" lon="32.9212579">
<ele>1013.31</ele>
<time>2015-04-29T14:46:27Z</time>
</trkpt>
<trkpt lat="34.9596640" lon="32.9212985">
<ele>1013.65</ele>
<time>2015-04-29T14:46:29Z</time>
</trkpt>
<trkpt lat="34.9597371" lon="32.9213316">
<ele>1012.48</ele>
<time>2015-04-29T14:46:31Z</time>
</trkpt>
<trkpt lat="34.9597874" lon="32.9213418">
<ele>1012.12</ele>
<time>2015-04-29T14:46:32Z</time>
</trkpt>
<trkpt lat="34.9598341" lon="32.9213485">
<ele>1011.94</ele>
<time>2015-04-29T14:46:33Z</time>
</trkpt>
<trkpt lat="34.9598858" lon="32.9213486">
<ele>1011.85</ele>
<time>2015-04-29T14:46:34Z</time>
</trkpt>
<trkpt lat="34.9599461" lon="32.9213597">
<ele>1011.31</ele>
<time>2015-04-29T14:46:35Z</time>
</trkpt>
<trkpt lat="34.9600051" lon="32.9213683">
<ele>1010.53</ele>
<time>2015-04-29T14:46:36Z</time>
</trkpt>
<trkpt lat="34.9600647" lon="32.9213702">
<ele>1009.65</ele>
<time>2015-04-29T14:46:37Z</time>
</trkpt>
<trkpt lat="34.9601236" lon="32.9213746">
<ele>1009.20</ele>
<time>2015-04-29T14:46:38Z</time>
</trkpt>
<trkpt lat="34.9601795" lon="32.9213687">
<ele>1008.98</ele>
<time>2015-04-29T14:46:39Z</time>
</trkpt>
<trkpt lat="34.9602557" lon="32.9213866">
<ele>1008.87</ele>
<time>2015-04-29T14:46:40Z</time>
</trkpt>
<trkpt lat="34.9603175" lon="32.9213992">
<ele>1008.82</ele>
<time>2015-04-29T14:46:41Z</time>
</trkpt>
<trkpt lat="34.9603699" lon="32.9214120">
<ele>1009.29</ele>
<time>2015-04-29T14:46:42Z</time>
</trkpt>
<trkpt lat="34.9604151" lon="32.9214064">
<ele>1009.52</ele>
<time>2015-04-29T14:46:43Z</time>
</trkpt>
<trkpt lat="34.9604653" lon="32.9213948">
<ele>1009.14</ele>
<time>2015-04-29T14:46:44Z</time>
</trkpt>
<trkpt lat="34.9605093" lon="32.9213764">
<ele>1009.45</ele>
<time>2015-04-29T14:46:45Z</time>
</trkpt>
<trkpt lat="34.9605546" lon="32.9212871">
<ele>1007.68</ele>
<time>2015-04-29T14:46:47Z</time>
</trkpt>
<trkpt lat="34.9605861" lon="32.9212422">
<ele>1007.72</ele>
<time>2015-04-29T14:46:48Z</time>
</trkpt>
<trkpt lat="34.9606104" lon="32.9211867">
<ele>1006.24</ele>
<time>2015-04-29T14:46:49Z</time>
</trkpt>
<trkpt lat="34.9606771" lon="32.9211446">
<ele>1002.88</ele>
<time>2015-04-29T14:46:51Z</time>
</trkpt>
<trkpt lat="34.9607344" lon="32.9211613">
<ele>1001.82</ele>
<time>2015-04-29T14:46:52Z</time>
</trkpt>
<trkpt lat="34.9607769" lon="32.9211792">
<ele>1001.29</ele>
<time>2015-04-29T14:46:53Z</time>
</trkpt>
<trkpt lat="34.9608228" lon="32.9211893">
<ele>1001.53</ele>
<time>2015-04-29T14:46:54Z</time>
</trkpt>
<trkpt lat="34.9609157" lon="32.9211969">
<ele>1001.70</ele>
<time>2015-04-29T14:46:56Z</time>
</trkpt>
<trkpt lat="34.9609992" lon="32.9211590">
<ele>1001.25</ele>
<time>2015-04-29T14:46:58Z</time>
</trkpt>
<trkpt lat="34.9610837" lon="32.9211218">
<ele>1001.38</ele>
<time>2015-04-29T14:47:00Z</time>
</trkpt>
<trkpt lat="34.9611240" lon="32.9210933">
<ele>1001.57</ele>
<time>2015-04-29T14:47:01Z</time>
</trkpt>
<trkpt lat="34.9611728" lon="32.9210535">
<ele>1001.67</ele>
<time>2015-04-29T14:47:02Z</time>
</trkpt>
<trkpt lat="34.9612147" lon="32.9210240">
<ele>1001.71</ele>
<time>2015-04-29T14:47:03Z</time>
</trkpt>
<trkpt lat="34.9612615" lon="32.9209994">
<ele>1002.74</ele>
<time>2015-04-29T14:47:04Z</time>
</trkpt>
<trkpt lat="34.9613193" lon="32.9209773">
<ele>1003.75</ele>
<time>2015-04-29T14:47:05Z</time>
</trkpt>
<trkpt lat="34.9613728" lon="32.9209580">
<ele>1004.25</ele>
<time>2015-04-29T14:47:06Z</time>
</trkpt>
<trkpt lat="34.9614319" lon="32.9209338">
<ele>1004.51</ele>
<time>2015-04-29T14:47:07Z</time>
</trkpt>
<trkpt lat="34.9614862" lon="32.9208951">
<ele>1003.63</ele>
<time>2015-04-29T14:47:08Z</time>
</trkpt>
<trkpt lat="34.9615327" lon="32.9208465">
<ele>1002.70</ele>
<time>2015-04-29T14:47:09Z</time>
</trkpt>
<trkpt lat="34.9615898" lon="32.9208015">
<ele>1002.23</ele>
<time>2015-04-29T14:47:10Z</time>
</trkpt>
<trkpt lat="34.9616388" lon="32.9207500">
<ele>1001.99</ele>
<time>2015-04-29T14:47:11Z</time>
</trkpt>
<trkpt lat="34.9616868" lon="32.9206910">
<ele>1001.38</ele>
<time>2015-04-29T14:47:12Z</time>
</trkpt>
<trkpt lat="34.9617327" lon="32.9206449">
<ele>1000.57</ele>
<time>2015-04-29T14:47:13Z</time>
</trkpt>
<trkpt lat="34.9617884" lon="32.9206160">
<ele>1000.16</ele>
<time>2015-04-29T14:47:14Z</time>
</trkpt>
<trkpt lat="34.9618536" lon="32.9205251">
<ele>998.86</ele>
<time>2015-04-29T14:47:16Z</time>
</trkpt>
<trkpt lat="34.9618852" lon="32.9204642">
<ele>998.31</ele>
<time>2015-04-29T14:47:17Z</time>
</trkpt>
<trkpt lat="34.9619053" lon="32.9204011">
<ele>998.04</ele>
<time>2015-04-29T14:47:18Z</time>
</trkpt>
<trkpt lat="34.9619194" lon="32.9203390">
<ele>997.90</ele>
<time>2015-04-29T14:47:19Z</time>
</trkpt>
<trkpt lat="34.9619427" lon="32.9202835">
<ele>997.83</ele>
<time>2015-04-29T14:47:20Z</time>
</trkpt>
<trkpt lat="34.9620054" lon="32.9202143">
<ele>996.53</ele>
<time>2015-04-29T14:47:22Z</time>
</trkpt>
<trkpt lat="34.9620784" lon="32.9201972">
<ele>995.45</ele>
<time>2015-04-29T14:47:24Z</time>
</trkpt>
<trkpt lat="34.9621339" lon="32.9202066">
<ele>995.18</ele>
<time>2015-04-29T14:47:26Z</time>
</trkpt>
<trkpt lat="34.9621951" lon="32.9202332">
<ele>996.19</ele>
<time>2015-04-29T14:47:29Z</time>
</trkpt>
<trkpt lat="34.9622570" lon="32.9202156">
<ele>995.94</ele>
<time>2015-04-29T14:47:32Z</time>
</trkpt>
<trkpt lat="34.9622971" lon="32.9201729">
<ele>994.30</ele>
<time>2015-04-29T14:47:34Z</time>
</trkpt>
<trkpt lat="34.9623354" lon="32.9200974">
<ele>995.15</ele>
<time>2015-04-29T14:47:36Z</time>
</trkpt>
<trkpt lat="34.9623502" lon="32.9199983">
<ele>993.86</ele>
<time>2015-04-29T14:47:38Z</time>
</trkpt>
<trkpt lat="34.9623341" lon="32.9198953">
<ele>992.78</ele>
<time>2015-04-29T14:47:40Z</time>
</trkpt>
<trkpt lat="34.9622942" lon="32.9197991">
<ele>991.27</ele>
<time>2015-04-29T14:47:42Z</time>
</trkpt>
<trkpt lat="34.9622409" lon="32.9196745">
<ele>991.14</ele>
<time>2015-04-29T14:47:44Z</time>
</trkpt>
<trkpt lat="34.9622528" lon="32.9196147">
<ele>991.45</ele>
<time>2015-04-29T14:47:45Z</time>
</trkpt>
<trkpt lat="34.9622667" lon="32.9195514">
<ele>991.10</ele>
<time>2015-04-29T14:47:46Z</time>
</trkpt>
<trkpt lat="34.9622819" lon="32.9194994">
<ele>990.93</ele>
<time>2015-04-29T14:47:47Z</time>
</trkpt>
<trkpt lat="34.9622974" lon="32.9194326">
<ele>990.85</ele>
<time>2015-04-29T14:47:48Z</time>
</trkpt>
<trkpt lat="34.9623234" lon="32.9193758">
<ele>990.30</ele>
<time>2015-04-29T14:47:49Z</time>
</trkpt>
<trkpt lat="34.9623553" lon="32.9193180">
<ele>990.03</ele>
<time>2015-04-29T14:47:50Z</time>
</trkpt>
<trkpt lat="34.9623841" lon="32.9192617">
<ele>989.90</ele>
<time>2015-04-29T14:47:51Z</time>
</trkpt>
<trkpt lat="34.9623936" lon="32.9192069">
<ele>989.33</ele>
<time>2015-04-29T14:47:52Z</time>
</trkpt>
<trkpt lat="34.9624257" lon="32.9191153">
<ele>988.90</ele>
<time>2015-04-29T14:47:54Z</time>
</trkpt>
<trkpt lat="34.9624922" lon="32.9190485">
<ele>989.55</ele>
<time>2015-04-29T14:47:56Z</time>
</trkpt>
<trkpt lat="34.9625710" lon="32.9190284">
<ele>989.71</ele>
<time>2015-04-29T14:47:58Z</time>
</trkpt>
<trkpt lat="34.9626173" lon="32.9190775">
<ele>990.23</ele>
<time>2015-04-29T14:47:59Z</time>
</trkpt>
<trkpt lat="34.9626593" lon="32.9191165">
<ele>990.50</ele>
<time>2015-04-29T14:48:00Z</time>
</trkpt>
<trkpt lat="34.9626996" lon="32.9191698">
<ele>990.63</ele>
<time>2015-04-29T14:48:01Z</time>
</trkpt>
<trkpt lat="34.9627428" lon="32.9192164">
<ele>990.69</ele>
<time>2015-04-29T14:48:02Z</time>
</trkpt>
<trkpt lat="34.9627891" lon="32.9192484">
<ele>991.23</ele>
<time>2015-04-29T14:48:03Z</time>
</trkpt>
<trkpt lat="34.9628371" lon="32.9192683">
<ele>991.49</ele>
<time>2015-04-29T14:48:04Z</time>
</trkpt>
<trkpt lat="34.9628897" lon="32.9192707">
<ele>991.63</ele>
<time>2015-04-29T14:48:05Z</time>
</trkpt>
<trkpt lat="34.9629658" lon="32.9192316">
<ele>990.98</ele>
<time>2015-04-29T14:48:07Z</time>
</trkpt>
<trkpt lat="34.9630120" lon="32.9191927">
<ele>990.37</ele>
<time>2015-04-29T14:48:08Z</time>
</trkpt>
<trkpt lat="34.9630378" lon="32.9191379">
<ele>989.56</ele>
<time>2015-04-29T14:48:09Z</time>
</trkpt>
<trkpt lat="34.9630755" lon="32.9190897">
<ele>988.66</ele>
<time>2015-04-29T14:48:10Z</time>
</trkpt>
<trkpt lat="34.9631003" lon="32.9190342">
<ele>988.21</ele>
<time>2015-04-29T14:48:11Z</time>
</trkpt>
<trkpt lat="34.9631314" lon="32.9189802">
<ele>987.49</ele>
<time>2015-04-29T14:48:12Z</time>
</trkpt>
<trkpt lat="34.9631626" lon="32.9189218">
<ele>986.62</ele>
<time>2015-04-29T14:48:13Z</time>
</trkpt>
<trkpt lat="34.9632003" lon="32.9188781">
<ele>986.19</ele>
<time>2015-04-29T14:48:14Z</time>
</trkpt>
<trkpt lat="34.9632806" lon="32.9188162">
<ele>985.87</ele>
<time>2015-04-29T14:48:16Z</time>
</trkpt>
<trkpt lat="34.9633286" lon="32.9188233">
<ele>986.31</ele>
<time>2015-04-29T14:48:17Z</time>
</trkpt>
<trkpt lat="34.9633928" lon="32.9188510">
<ele>987.54</ele>
<time>2015-04-29T14:48:18Z</time>
</trkpt>
<trkpt lat="34.9634444" lon="32.9188608">
<ele>988.15</ele>
<time>2015-04-29T14:48:19Z</time>
</trkpt>
<trkpt lat="34.9634832" lon="32.9188941">
<ele>988.95</ele>
<time>2015-04-29T14:48:20Z</time>
</trkpt>
<trkpt lat="34.9635215" lon="32.9189277">
<ele>988.86</ele>
<time>2015-04-29T14:48:21Z</time>
</trkpt>
<trkpt lat="34.9635689" lon="32.9189736">
<ele>988.81</ele>
<time>2015-04-29T14:48:22Z</time>
</trkpt>
<trkpt lat="34.9636120" lon="32.9190114">
<ele>988.78</ele>
<time>2015-04-29T14:48:23Z</time>
</trkpt>
<trkpt lat="34.9636565" lon="32.9190404">
<ele>988.27</ele>
<time>2015-04-29T14:48:24Z</time>
</trkpt>
<trkpt lat="34.9636978" lon="32.9190624">
<ele>988.02</ele>
<time>2015-04-29T14:48:25Z</time>
</trkpt>
<trkpt lat="34.9637540" lon="32.9190784">
<ele>987.32</ele>
<time>2015-04-29T14:48:27Z</time>
</trkpt>
<trkpt lat="34.9638398" lon="32.9190505">
<ele>986.90</ele>
<time>2015-04-29T14:48:29Z</time>
</trkpt>
<trkpt lat="34.9639107" lon="32.9189966">
<ele>985.80</ele>
<time>2015-04-29T14:48:31Z</time>
</trkpt>
<trkpt lat="34.9639610" lon="32.9189769">
<ele>985.28</ele>
<time>2015-04-29T14:48:32Z</time>
</trkpt>
<trkpt lat="34.9640213" lon="32.9189594">
<ele>985.02</ele>
<time>2015-04-29T14:48:33Z</time>
</trkpt>
<trkpt lat="34.9640754" lon="32.9189340">
<ele>984.39</ele>
<time>2015-04-29T14:48:34Z</time>
</trkpt>
<trkpt lat="34.9641282" lon="32.9189245">
<ele>984.57</ele>
<time>2015-04-29T14:48:35Z</time>
</trkpt>
<trkpt lat="34.9641730" lon="32.9189154">
<ele>984.67</ele>
<time>2015-04-29T14:48:36Z</time>
</trkpt>
<trkpt lat="34.9642643" lon="32.9189331">
<ele>985.49</ele>
<time>2015-04-29T14:48:38Z</time>
</trkpt>
<trkpt lat="34.9643424" lon="32.9189244">
<ele>984.19</ele>
<time>2015-04-29T14:48:40Z</time>
</trkpt>
<trkpt lat="34.9644060" lon="32.9188842">
<ele>982.12</ele>
<time>2015-04-29T14:48:42Z</time>
</trkpt>
<trkpt lat="34.9644690" lon="32.9188326">
<ele>980.35</ele>
<time>2015-04-29T14:48:44Z</time>
</trkpt>
<trkpt lat="34.9645317" lon="32.9187674">
<ele>979.16</ele>
<time>2015-04-29T14:48:46Z</time>
</trkpt>
<trkpt lat="34.9645811" lon="32.9186911">
<ele>978.86</ele>
<time>2015-04-29T14:48:48Z</time>
</trkpt>
<trkpt lat="34.9646070" lon="32.9186013">
<ele>978.28</ele>
<time>2015-04-29T14:48:50Z</time>
</trkpt>
<trkpt lat="34.9645988" lon="32.9185091">
<ele>978.14</ele>
<time>2015-04-29T14:48:52Z</time>
</trkpt>
<trkpt lat="34.9645709" lon="32.9184607">
<ele>977.86</ele>
<time>2015-04-29T14:48:54Z</time>
</trkpt>
<trkpt lat="34.9645466" lon="32.9184075">
<ele>977.77</ele>
<time>2015-04-29T14:48:57Z</time>
</trkpt>
<trkpt lat="34.9645457" lon="32.9183392">
<ele>976.76</ele>
<time>2015-04-29T14:49:00Z</time>
</trkpt>
<trkpt lat="34.9645600" lon="32.9182827">
<ele>976.76</ele>
<time>2015-04-29T14:49:02Z</time>
</trkpt>
<trkpt lat="34.9645842" lon="32.9182153">
<ele>976.76</ele>
<time>2015-04-29T14:49:04Z</time>
</trkpt>
<trkpt lat="34.9646095" lon="32.9181425">
<ele>975.51</ele>
<time>2015-04-29T14:49:06Z</time>
</trkpt>
<trkpt lat="34.9646395" lon="32.9180689">
<ele>974.95</ele>
<time>2015-04-29T14:49:08Z</time>
</trkpt>
<trkpt lat="34.9646758" lon="32.9179983">
<ele>975.06</ele>
<time>2015-04-29T14:49:10Z</time>
</trkpt>
<trkpt lat="34.9647046" lon="32.9179253">
<ele>974.83</ele>
<time>2015-04-29T14:49:12Z</time>
</trkpt>
<trkpt lat="34.9647190" lon="32.9178495">
<ele>974.78</ele>
<time>2015-04-29T14:49:14Z</time>
</trkpt>
<trkpt lat="34.9647284" lon="32.9177776">
<ele>976.01</ele>
<time>2015-04-29T14:49:16Z</time>
</trkpt>
<trkpt lat="34.9647235" lon="32.9177049">
<ele>975.82</ele>
<time>2015-04-29T14:49:18Z</time>
</trkpt>
<trkpt lat="34.9647009" lon="32.9176343">
<ele>975.28</ele>
<time>2015-04-29T14:49:20Z</time>
</trkpt>
<trkpt lat="34.9646724" lon="32.9175672">
<ele>976.14</ele>
<time>2015-04-29T14:49:22Z</time>
</trkpt>
<trkpt lat="34.9646391" lon="32.9175016">
<ele>975.85</ele>
<time>2015-04-29T14:49:24Z</time>
</trkpt>
<trkpt lat="34.9646040" lon="32.9174367">
<ele>976.28</ele>
<time>2015-04-29T14:49:26Z</time>
</trkpt>
<trkpt lat="34.9645688" lon="32.9173768">
<ele>976.64</ele>
<time>2015-04-29T14:49:28Z</time>
</trkpt>
<trkpt lat="34.9645343" lon="32.9173192">
<ele>976.73</ele>
<time>2015-04-29T14:49:30Z</time>
</trkpt>
<trkpt lat="34.9644935" lon="32.9172677">
<ele>976.75</ele>
<time>2015-04-29T14:49:32Z</time>
</trkpt>
<trkpt lat="34.9644435" lon="32.9172353">
<ele>977.26</ele>
<time>2015-04-29T14:49:34Z</time>
</trkpt>
<trkpt lat="34.9643889" lon="32.9172263">
<ele>977.63</ele>
<time>2015-04-29T14:49:36Z</time>
</trkpt>
<trkpt lat="34.9643311" lon="32.9172339">
<ele>976.98</ele>
<time>2015-04-29T14:49:38Z</time>
</trkpt>
<trkpt lat="34.9642647" lon="32.9172385">
<ele>975.56</ele>
<time>2015-04-29T14:49:40Z</time>
</trkpt>
<trkpt lat="34.9641860" lon="32.9172366">
<ele>974.71</ele>
<time>2015-04-29T14:49:42Z</time>
</trkpt>
<trkpt lat="34.9641138" lon="32.9172348">
<ele>974.75</ele>
<time>2015-04-29T14:49:44Z</time>
</trkpt>
<trkpt lat="34.9640547" lon="32.9172127">
<ele>974.76</ele>
<time>2015-04-29T14:49:46Z</time>
</trkpt>
<trkpt lat="34.9640043" lon="32.9171702">
<ele>974.26</ele>
<time>2015-04-29T14:49:48Z</time>
</trkpt>
<trkpt lat="34.9639737" lon="32.9170966">
<ele>973.88</ele>
<time>2015-04-29T14:49:50Z</time>
</trkpt>
<trkpt lat="34.9639643" lon="32.9170034">
<ele>974.54</ele>
<time>2015-04-29T14:49:52Z</time>
</trkpt>
<trkpt lat="34.9639590" lon="32.9169138">
<ele>975.96</ele>
<time>2015-04-29T14:49:54Z</time>
</trkpt>
<trkpt lat="34.9639377" lon="32.9168351">
<ele>976.56</ele>
<time>2015-04-29T14:49:56Z</time>
</trkpt>
<trkpt lat="34.9638963" lon="32.9167670">
<ele>976.21</ele>
<time>2015-04-29T14:49:58Z</time>
</trkpt>
<trkpt lat="34.9638404" lon="32.9167111">
<ele>976.62</ele>
<time>2015-04-29T14:50:00Z</time>
</trkpt>
<trkpt lat="34.9637859" lon="32.9166515">
<ele>976.73</ele>
<time>2015-04-29T14:50:02Z</time>
</trkpt>
<trkpt lat="34.9637547" lon="32.9165657">
<ele>975.75</ele>
<time>2015-04-29T14:50:04Z</time>
</trkpt>
<trkpt lat="34.9637706" lon="32.9164785">
<ele>976.51</ele>
<time>2015-04-29T14:50:06Z</time>
</trkpt>
<trkpt lat="34.9638034" lon="32.9164197">
<ele>977.20</ele>
<time>2015-04-29T14:50:08Z</time>
</trkpt>
<trkpt lat="34.9638247" lon="32.9163652">
<ele>977.62</ele>
<time>2015-04-29T14:50:10Z</time>
</trkpt>
<trkpt lat="34.9638120" lon="32.9163020">
<ele>977.72</ele>
<time>2015-04-29T14:50:12Z</time>
</trkpt>
<trkpt lat="34.9637743" lon="32.9162444">
<ele>977.75</ele>
<time>2015-04-29T14:50:14Z</time>
</trkpt>
<trkpt lat="34.9637210" lon="32.9162097">
<ele>978.51</ele>
<time>2015-04-29T14:50:16Z</time>
</trkpt>
<trkpt lat="34.9636678" lon="32.9161808">
<ele>978.70</ele>
<time>2015-04-29T14:50:18Z</time>
</trkpt>
<trkpt lat="34.9636229" lon="32.9161458">
<ele>979.99</ele>
<time>2015-04-29T14:50:20Z</time>
</trkpt>
<trkpt lat="34.9635965" lon="32.9160952">
<ele>981.41</ele>
<time>2015-04-29T14:50:23Z</time>
</trkpt>
<trkpt lat="34.9636052" lon="32.9160287">
<ele>980.97</ele>
<time>2015-04-29T14:50:26Z</time>
</trkpt>
<trkpt lat="34.9636230" lon="32.9159651">
<ele>981.56</ele>
<time>2015-04-29T14:50:28Z</time>
</trkpt>
<trkpt lat="34.9636524" lon="32.9159036">
<ele>980.71</ele>
<time>2015-04-29T14:50:30Z</time>
</trkpt>
<trkpt lat="34.9636882" lon="32.9158415">
<ele>981.25</ele>
<time>2015-04-29T14:50:32Z</time>
</trkpt>
<trkpt lat="34.9637247" lon="32.9157800">
<ele>981.63</ele>
<time>2015-04-29T14:50:34Z</time>
</trkpt>
<trkpt lat="34.9637648" lon="32.9157222">
<ele>982.23</ele>
<time>2015-04-29T14:50:36Z</time>
</trkpt>
<trkpt lat="34.9638094" lon="32.9156716">
<ele>982.38</ele>
<time>2015-04-29T14:50:38Z</time>
</trkpt>
<trkpt lat="34.9638715" lon="32.9156413">
<ele>982.66</ele>
<time>2015-04-29T14:50:40Z</time>
</trkpt>
<trkpt lat="34.9639408" lon="32.9156160">
<ele>982.24</ele>
<time>2015-04-29T14:50:42Z</time>
</trkpt>
<trkpt lat="34.9640167" lon="32.9155952">
<ele>981.88</ele>
<time>2015-04-29T14:50:44Z</time>
</trkpt>
<trkpt lat="34.9641003" lon="32.9155860">
<ele>981.79</ele>
<time>2015-04-29T14:50:46Z</time>
</trkpt>
<trkpt lat="34.9641783" lon="32.9155790">
<ele>981.27</ele>
<time>2015-04-29T14:50:48Z</time>
</trkpt>
<trkpt lat="34.9642574" lon="32.9155491">
<ele>981.39</ele>
<time>2015-04-29T14:50:50Z</time>
</trkpt>
<trkpt lat="34.9643376" lon="32.9155086">
<ele>980.67</ele>
<time>2015-04-29T14:50:52Z</time>
</trkpt>
<trkpt lat="34.9644155" lon="32.9154685">
<ele>979.99</ele>
<time>2015-04-29T14:50:54Z</time>
</trkpt>
<trkpt lat="34.9644908" lon="32.9154356">
<ele>979.82</ele>
<time>2015-04-29T14:50:56Z</time>
</trkpt>
<trkpt lat="34.9645693" lon="32.9154119">
<ele>979.77</ele>
<time>2015-04-29T14:50:58Z</time>
</trkpt>
<trkpt lat="34.9646553" lon="32.9154279">
<ele>980.51</ele>
<time>2015-04-29T14:51:00Z</time>
</trkpt>
<trkpt lat="34.9647304" lon="32.9154664">
<ele>979.70</ele>
<time>2015-04-29T14:51:02Z</time>
</trkpt>
<trkpt lat="34.9647881" lon="32.9155056">
<ele>980.74</ele>
<time>2015-04-29T14:51:04Z</time>
</trkpt>
<trkpt lat="34.9648487" lon="32.9155375">
<ele>980.76</ele>
<time>2015-04-29T14:51:06Z</time>
</trkpt>
<trkpt lat="34.9649245" lon="32.9155490">
<ele>981.26</ele>
<time>2015-04-29T14:51:08Z</time>
</trkpt>
<trkpt lat="34.9649913" lon="32.9155101">
<ele>980.38</ele>
<time>2015-04-29T14:51:10Z</time>
</trkpt>
<trkpt lat="34.9650575" lon="32.9153969">
<ele>979.17</ele>
<time>2015-04-29T14:51:12Z</time>
</trkpt>
<trkpt lat="34.9650917" lon="32.9153588">
<ele>978.96</ele>
<time>2015-04-29T14:51:13Z</time>
</trkpt>
<trkpt lat="34.9651266" lon="32.9153148">
<ele>978.86</ele>
<time>2015-04-29T14:51:14Z</time>
</trkpt>
<trkpt lat="34.9651679" lon="32.9152813">
<ele>978.81</ele>
<time>2015-04-29T14:51:15Z</time>
</trkpt>
<trkpt lat="34.9652099" lon="32.9152410">
<ele>979.29</ele>
<time>2015-04-29T14:51:16Z</time>
</trkpt>
<trkpt lat="34.9652543" lon="32.9152078">
<ele>979.52</ele>
<time>2015-04-29T14:51:17Z</time>
</trkpt>
<trkpt lat="34.9653367" lon="32.9151720">
<ele>979.70</ele>
<time>2015-04-29T14:51:19Z</time>
</trkpt>
<trkpt lat="34.9654235" lon="32.9151339">
<ele>979.75</ele>
<time>2015-04-29T14:51:21Z</time>
</trkpt>
<trkpt lat="34.9654745" lon="32.9151147">
<ele>979.76</ele>
<time>2015-04-29T14:51:23Z</time>
</trkpt>
<trkpt lat="34.9655242" lon="32.9150708">
<ele>980.51</ele>
<time>2015-04-29T14:51:26Z</time>
</trkpt>
<trkpt lat="34.9655433" lon="32.9150194">
<ele>979.95</ele>
<time>2015-04-29T14:51:28Z</time>
</trkpt>
<trkpt lat="34.9655509" lon="32.9149557">
<ele>980.31</ele>
<time>2015-04-29T14:51:30Z</time>
</trkpt>
<trkpt lat="34.9655595" lon="32.9148813">
<ele>980.65</ele>
<time>2015-04-29T14:51:32Z</time>
</trkpt>
<trkpt lat="34.9655762" lon="32.9147852">
<ele>980.23</ele>
<time>2015-04-29T14:51:34Z</time>
</trkpt>
<trkpt lat="34.9656004" lon="32.9146939">
<ele>979.88</ele>
<time>2015-04-29T14:51:36Z</time>
</trkpt>
<trkpt lat="34.9656124" lon="32.9145996">
<ele>979.79</ele>
<time>2015-04-29T14:51:38Z</time>
</trkpt>
<trkpt lat="34.9655916" lon="32.9145041">
<ele>979.27</ele>
<time>2015-04-29T14:51:40Z</time>
</trkpt>
<trkpt lat="34.9655551" lon="32.9144114">
<ele>978.89</ele>
<time>2015-04-29T14:51:42Z</time>
</trkpt>
<trkpt lat="34.9655283" lon="32.9143261">
<ele>978.29</ele>
<time>2015-04-29T14:51:44Z</time>
</trkpt>
<trkpt lat="34.9655418" lon="32.9142526">
<ele>978.14</ele>
<time>2015-04-29T14:51:46Z</time>
</trkpt>
<trkpt lat="34.9655849" lon="32.9141868">
<ele>977.86</ele>
<time>2015-04-29T14:51:48Z</time>
</trkpt>
<trkpt lat="34.9656307" lon="32.9141189">
<ele>977.78</ele>
<time>2015-04-29T14:51:50Z</time>
</trkpt>
<trkpt lat="34.9656518" lon="32.9140400">
<ele>978.27</ele>
<time>2015-04-29T14:51:52Z</time>
</trkpt>
<trkpt lat="34.9656380" lon="32.9139644">
<ele>979.89</ele>
<time>2015-04-29T14:51:54Z</time>
</trkpt>
<trkpt lat="34.9656049" lon="32.9138930">
<ele>979.79</ele>
<time>2015-04-29T14:51:56Z</time>
</trkpt>
<trkpt lat="34.9655550" lon="32.9138152">
<ele>979.77</ele>
<time>2015-04-29T14:51:58Z</time>
</trkpt>
<trkpt lat="34.9654973" lon="32.9137278">
<ele>979.26</ele>
<time>2015-04-29T14:52:00Z</time>
</trkpt>
<trkpt lat="34.9654709" lon="32.9136825">
<ele>979.01</ele>
<time>2015-04-29T14:52:01Z</time>
</trkpt>
<trkpt lat="34.9654485" lon="32.9136334">
<ele>978.89</ele>
<time>2015-04-29T14:52:02Z</time>
</trkpt>
<trkpt lat="34.9654172" lon="32.9135357">
<ele>978.04</ele>
<time>2015-04-29T14:52:04Z</time>
</trkpt>
<trkpt lat="34.9653995" lon="32.9134401">
<ele>977.83</ele>
<time>2015-04-29T14:52:06Z</time>
</trkpt>
<trkpt lat="34.9654069" lon="32.9133579">
<ele>977.28</ele>
<time>2015-04-29T14:52:08Z</time>
</trkpt>
<trkpt lat="34.9654437" lon="32.9132775">
<ele>976.89</ele>
<time>2015-04-29T14:52:10Z</time>
</trkpt>
<trkpt lat="34.9655058" lon="32.9132240">
<ele>977.54</ele>
<time>2015-04-29T14:52:12Z</time>
</trkpt>
<trkpt lat="34.9655831" lon="32.9132014">
<ele>977.46</ele>
<time>2015-04-29T14:52:14Z</time>
</trkpt>
<trkpt lat="34.9656576" lon="32.9131891">
<ele>976.93</ele>
<time>2015-04-29T14:52:16Z</time>
</trkpt>
<trkpt lat="34.9657347" lon="32.9131975">
<ele>977.30</ele>
<time>2015-04-29T14:52:18Z</time>
</trkpt>
<trkpt lat="34.9658111" lon="32.9132022">
<ele>978.15</ele>
<time>2015-04-29T14:52:20Z</time>
</trkpt>
<trkpt lat="34.9658853" lon="32.9131891">
<ele>980.11</ele>
<time>2015-04-29T14:52:22Z</time>
</trkpt>
<trkpt lat="34.9659618" lon="32.9131804">
<ele>980.60</ele>
<time>2015-04-29T14:52:24Z</time>
</trkpt>
<trkpt lat="34.9660452" lon="32.9131739">
<ele>980.22</ele>
<time>2015-04-29T14:52:26Z</time>
</trkpt>
<trkpt lat="34.9661327" lon="32.9131762">
<ele>980.62</ele>
<time>2015-04-29T14:52:28Z</time>
</trkpt>
<trkpt lat="34.9662123" lon="32.9131639">
<ele>980.73</ele>
<time>2015-04-29T14:52:30Z</time>
</trkpt>
<trkpt lat="34.9662651" lon="32.9131144">
<ele>980.75</ele>
<time>2015-04-29T14:52:32Z</time>
</trkpt>
<trkpt lat="34.9662952" lon="32.9130481">
<ele>981.01</ele>
<time>2015-04-29T14:52:34Z</time>
</trkpt>
<trkpt lat="34.9663236" lon="32.9129756">
<ele>980.82</ele>
<time>2015-04-29T14:52:36Z</time>
</trkpt>
<trkpt lat="34.9663601" lon="32.9128979">
<ele>980.28</ele>
<time>2015-04-29T14:52:38Z</time>
</trkpt>
<trkpt lat="34.9663881" lon="32.9128118">
<ele>979.89</ele>
<time>2015-04-29T14:52:40Z</time>
</trkpt>
<trkpt lat="34.9663958" lon="32.9127177">
<ele>980.29</ele>
<time>2015-04-29T14:52:42Z</time>
</trkpt>
<trkpt lat="34.9663775" lon="32.9126214">
<ele>980.64</ele>
<time>2015-04-29T14:52:44Z</time>
</trkpt>
<trkpt lat="34.9663486" lon="32.9125242">
<ele>980.73</ele>
<time>2015-04-29T14:52:46Z</time>
</trkpt>
<trkpt lat="34.9663263" lon="32.9124276">
<ele>980.75</ele>
<time>2015-04-29T14:52:48Z</time>
</trkpt>
<trkpt lat="34.9663100" lon="32.9123326">
<ele>980.76</ele>
<time>2015-04-29T14:52:50Z</time>
</trkpt>
<trkpt lat="34.9662980" lon="32.9122408">
<ele>980.26</ele>
<time>2015-04-29T14:52:52Z</time>
</trkpt>
<trkpt lat="34.9662759" lon="32.9121557">
<ele>981.13</ele>
<time>2015-04-29T14:52:54Z</time>
</trkpt>
<trkpt lat="34.9662409" lon="32.9120779">
<ele>981.35</ele>
<time>2015-04-29T14:52:56Z</time>
</trkpt>
<trkpt lat="34.9661905" lon="32.9120149">
<ele>981.66</ele>
<time>2015-04-29T14:52:58Z</time>
</trkpt>
<trkpt lat="34.9661356" lon="32.9119548">
<ele>981.23</ele>
<time>2015-04-29T14:53:00Z</time>
</trkpt>
<trkpt lat="34.9660846" lon="32.9118907">
<ele>980.38</ele>
<time>2015-04-29T14:53:02Z</time>
</trkpt>
<trkpt lat="34.9660694" lon="32.9118133">
<ele>978.66</ele>
<time>2015-04-29T14:53:04Z</time>
</trkpt>
<trkpt lat="34.9660794" lon="32.9117422">
<ele>977.74</ele>
<time>2015-04-29T14:53:06Z</time>
</trkpt>
<trkpt lat="34.9661002" lon="32.9116733">
<ele>977.00</ele>
<time>2015-04-29T14:53:08Z</time>
</trkpt>
<trkpt lat="34.9661481" lon="32.9116065">
<ele>976.82</ele>
<time>2015-04-29T14:53:10Z</time>
</trkpt>
<trkpt lat="34.9662159" lon="32.9115424">
<ele>978.28</ele>
<time>2015-04-29T14:53:12Z</time>
</trkpt>
<trkpt lat="34.9662862" lon="32.9114880">
<ele>979.89</ele>
<time>2015-04-29T14:53:14Z</time>
</trkpt>
<trkpt lat="34.9663409" lon="32.9114324">
<ele>980.54</ele>
<time>2015-04-29T14:53:16Z</time>
</trkpt>
<trkpt lat="34.9663809" lon="32.9113644">
<ele>980.71</ele>
<time>2015-04-29T14:53:18Z</time>
</trkpt>
<trkpt lat="34.9664038" lon="32.9112750">
<ele>981.50</ele>
<time>2015-04-29T14:53:20Z</time>
</trkpt>
<trkpt lat="34.9664059" lon="32.9111730">
<ele>981.19</ele>
<time>2015-04-29T14:53:22Z</time>
</trkpt>
<trkpt lat="34.9663790" lon="32.9110714">
<ele>980.12</ele>
<time>2015-04-29T14:53:24Z</time>
</trkpt>
<trkpt lat="34.9663600" lon="32.9110210">
<ele>979.94</ele>
<time>2015-04-29T14:53:25Z</time>
</trkpt>
<trkpt lat="34.9663417" lon="32.9109705">
<ele>979.85</ele>
<time>2015-04-29T14:53:26Z</time>
</trkpt>
<trkpt lat="34.9663242" lon="32.9108653">
<ele>979.78</ele>
<time>2015-04-29T14:53:28Z</time>
</trkpt>
<trkpt lat="34.9663491" lon="32.9107704">
<ele>980.52</ele>
<time>2015-04-29T14:53:30Z</time>
</trkpt>
<trkpt lat="34.9663881" lon="32.9106834">
<ele>981.45</ele>
<time>2015-04-29T14:53:32Z</time>
</trkpt>
<trkpt lat="34.9664050" lon="32.9105968">
<ele>982.43</ele>
<time>2015-04-29T14:53:34Z</time>
</trkpt>
<trkpt lat="34.9663969" lon="32.9105217">
<ele>983.43</ele>
<time>2015-04-29T14:53:36Z</time>
</trkpt>
<trkpt lat="34.9663801" lon="32.9104321">
<ele>983.68</ele>
<time>2015-04-29T14:53:38Z</time>
</trkpt>
<trkpt lat="34.9663716" lon="32.9103392">
<ele>984.49</ele>
<time>2015-04-29T14:53:40Z</time>
</trkpt>
<trkpt lat="34.9663966" lon="32.9102563">
<ele>984.19</ele>
<time>2015-04-29T14:53:42Z</time>
</trkpt>
<trkpt lat="34.9664566" lon="32.9102130">
<ele>983.12</ele>
<time>2015-04-29T14:53:44Z</time>
</trkpt>
<trkpt lat="34.9665391" lon="32.9102077">
<ele>983.85</ele>
<time>2015-04-29T14:53:46Z</time>
</trkpt>
<trkpt lat="34.9666206" lon="32.9102127">
<ele>984.53</ele>
<time>2015-04-29T14:53:48Z</time>
</trkpt>
<trkpt lat="34.9667074" lon="32.9102242">
<ele>983.45</ele>
<time>2015-04-29T14:53:50Z</time>
</trkpt>
<trkpt lat="34.9667893" lon="32.9102716">
<ele>982.68</ele>
<time>2015-04-29T14:53:52Z</time>
</trkpt>
<trkpt lat="34.9668570" lon="32.9103386">
<ele>983.99</ele>
<time>2015-04-29T14:53:54Z</time>
</trkpt>
<trkpt lat="34.9669226" lon="32.9104034">
<ele>985.32</ele>
<time>2015-04-29T14:53:56Z</time>
</trkpt>
<trkpt lat="34.9669643" lon="32.9104745">
<ele>986.04</ele>
<time>2015-04-29T14:53:57Z</time>
</trkpt>
<trkpt lat="34.9670108" lon="32.9105120">
<ele>987.40</ele>
<time>2015-04-29T14:53:58Z</time>
</trkpt>
<trkpt lat="34.9670799" lon="32.9105634">
<ele>988.17</ele>
<time>2015-04-29T14:54:00Z</time>
</trkpt>
<trkpt lat="34.9671187" lon="32.9106004">
<ele>989.46</ele>
<time>2015-04-29T14:54:01Z</time>
</trkpt>
<trkpt lat="34.9671567" lon="32.9106352">
<ele>990.61</ele>
<time>2015-04-29T14:54:02Z</time>
</trkpt>
<trkpt lat="34.9672062" lon="32.9107129">
<ele>990.72</ele>
<time>2015-04-29T14:54:04Z</time>
</trkpt>
<trkpt lat="34.9672379" lon="32.9107530">
<ele>991.24</ele>
<time>2015-04-29T14:54:05Z</time>
</trkpt>
<trkpt lat="34.9672884" lon="32.9108379">
<ele>992.38</ele>
<time>2015-04-29T14:54:07Z</time>
</trkpt>
<trkpt lat="34.9673336" lon="32.9109338">
<ele>994.17</ele>
<time>2015-04-29T14:54:09Z</time>
</trkpt>
<trkpt lat="34.9673559" lon="32.9109933">
<ele>994.11</ele>
<time>2015-04-29T14:54:11Z</time>
</trkpt>
<trkpt lat="34.9673994" lon="32.9110760">
<ele>992.35</ele>
<time>2015-04-29T14:54:13Z</time>
</trkpt>
<trkpt lat="34.9674258" lon="32.9111652">
<ele>991.16</ele>
<time>2015-04-29T14:54:15Z</time>
</trkpt>
<trkpt lat="34.9674452" lon="32.9112543">
<ele>988.61</ele>
<time>2015-04-29T14:54:17Z</time>
</trkpt>
<trkpt lat="34.9674763" lon="32.9113372">
<ele>987.97</ele>
<time>2015-04-29T14:54:19Z</time>
</trkpt>
<trkpt lat="34.9675306" lon="32.9114067">
<ele>988.31</ele>
<time>2015-04-29T14:54:21Z</time>
</trkpt>
<trkpt lat="34.9675909" lon="32.9114573">
<ele>988.65</ele>
<time>2015-04-29T14:54:23Z</time>
</trkpt>
<trkpt lat="34.9676612" lon="32.9114956">
<ele>989.48</ele>
<time>2015-04-29T14:54:25Z</time>
</trkpt>
<trkpt lat="34.9677350" lon="32.9114831">
<ele>989.44</ele>
<time>2015-04-29T14:54:27Z</time>
</trkpt>
<trkpt lat="34.9677912" lon="32.9114034">
<ele>988.93</ele>
<time>2015-04-29T14:54:29Z</time>
</trkpt>
<trkpt lat="34.9678119" lon="32.9113535">
<ele>988.85</ele>
<time>2015-04-29T14:54:30Z</time>
</trkpt>
<trkpt lat="34.9678271" lon="32.9112591">
<ele>988.80</ele>
<time>2015-04-29T14:54:31Z</time>
</trkpt>
<trkpt lat="34.9678513" lon="32.9111586">
<ele>988.52</ele>
<time>2015-04-29T14:54:33Z</time>
</trkpt>
<trkpt lat="34.9678725" lon="32.9110601">
<ele>988.70</ele>
<time>2015-04-29T14:54:35Z</time>
</trkpt>
<trkpt lat="34.9678829" lon="32.9109696">
<ele>988.50</ele>
<time>2015-04-29T14:54:37Z</time>
</trkpt>
<trkpt lat="34.9679012" lon="32.9108774">
<ele>988.19</ele>
<time>2015-04-29T14:54:39Z</time>
</trkpt>
<trkpt lat="34.9679285" lon="32.9107895">
<ele>988.12</ele>
<time>2015-04-29T14:54:41Z</time>
</trkpt>
<trkpt lat="34.9679806" lon="32.9107185">
<ele>987.85</ele>
<time>2015-04-29T14:54:43Z</time>
</trkpt>
<trkpt lat="34.9680310" lon="32.9106404">
<ele>987.78</ele>
<time>2015-04-29T14:54:45Z</time>
</trkpt>
<trkpt lat="34.9680680" lon="32.9105579">
<ele>988.52</ele>
<time>2015-04-29T14:54:47Z</time>
</trkpt>
<trkpt lat="34.9681001" lon="32.9104648">
<ele>988.70</ele>
<time>2015-04-29T14:54:49Z</time>
</trkpt>
<trkpt lat="34.9681194" lon="32.9104134">
<ele>989.23</ele>
<time>2015-04-29T14:54:50Z</time>
</trkpt>
<trkpt lat="34.9681549" lon="32.9103154">
<ele>989.63</ele>
<time>2015-04-29T14:54:52Z</time>
</trkpt>
<trkpt lat="34.9681834" lon="32.9102302">
<ele>989.73</ele>
<time>2015-04-29T14:54:54Z</time>
</trkpt>
<trkpt lat="34.9682016" lon="32.9101429">
<ele>988.25</ele>
<time>2015-04-29T14:54:56Z</time>
</trkpt>
<trkpt lat="34.9682162" lon="32.9100536">
<ele>987.88</ele>
<time>2015-04-29T14:54:58Z</time>
</trkpt>
<trkpt lat="34.9682165" lon="32.9099586">
<ele>986.54</ele>
<time>2015-04-29T14:55:00Z</time>
</trkpt>
<trkpt lat="34.9682183" lon="32.9098622">
<ele>986.71</ele>
<time>2015-04-29T14:55:02Z</time>
</trkpt>
<trkpt lat="34.9682217" lon="32.9097612">
<ele>986.75</ele>
<time>2015-04-29T14:55:04Z</time>
</trkpt>
<trkpt lat="34.9682386" lon="32.9096636">
<ele>986.76</ele>
<time>2015-04-29T14:55:06Z</time>
</trkpt>
<trkpt lat="34.9683014" lon="32.9095939">
<ele>985.76</ele>
<time>2015-04-29T14:55:08Z</time>
</trkpt>
<trkpt lat="34.9683829" lon="32.9095870">
<ele>985.76</ele>
<time>2015-04-29T14:55:10Z</time>
</trkpt>
<trkpt lat="34.9684481" lon="32.9096356">
<ele>987.76</ele>
<time>2015-04-29T14:55:12Z</time>
</trkpt>
<trkpt lat="34.9685029" lon="32.9096784">
<ele>987.76</ele>
<time>2015-04-29T14:55:14Z</time>
</trkpt>
<trkpt lat="34.9685586" lon="32.9097060">
<ele>988.26</ele>
<time>2015-04-29T14:55:16Z</time>
</trkpt>
<trkpt lat="34.9686071" lon="32.9097241">
<ele>989.39</ele>
<time>2015-04-29T14:55:18Z</time>
</trkpt>
<trkpt lat="34.9686675" lon="32.9097199">
<ele>990.21</ele>
<time>2015-04-29T14:55:21Z</time>
</trkpt>
<trkpt lat="34.9687186" lon="32.9096993">
<ele>990.69</ele>
<time>2015-04-29T14:55:24Z</time>
</trkpt>
<trkpt lat="34.9687706" lon="32.9096776">
<ele>990.75</ele>
<time>2015-04-29T14:55:27Z</time>
</trkpt>
<trkpt lat="34.9688198" lon="32.9096513">
<ele>989.38</ele>
<time>2015-04-29T14:55:30Z</time>
</trkpt>
<trkpt lat="34.9688651" lon="32.9096002">
<ele>988.84</ele>
<time>2015-04-29T14:55:33Z</time>
</trkpt>
<trkpt lat="34.9688977" lon="32.9095442">
<ele>988.78</ele>
<time>2015-04-29T14:55:35Z</time>
</trkpt>
<trkpt lat="34.9689318" lon="32.9094745">
<ele>988.26</ele>
<time>2015-04-29T14:55:37Z</time>
</trkpt>
<trkpt lat="34.9689652" lon="32.9094068">
<ele>988.14</ele>
<time>2015-04-29T14:55:39Z</time>
</trkpt>
<trkpt lat="34.9690049" lon="32.9093524">
<ele>987.85</ele>
<time>2015-04-29T14:55:41Z</time>
</trkpt>
<trkpt lat="34.9690542" lon="32.9093232">
<ele>987.77</ele>
<time>2015-04-29T14:55:45Z</time>
</trkpt>
<trkpt lat="34.9690623" lon="32.9093776">
<ele>984.83</ele>
<time>2015-04-29T14:57:11Z</time>
</trkpt>
<trkpt lat="34.9690900" lon="32.9093134">
<ele>985.25</ele>
<time>2015-04-29T14:58:20Z</time>
</trkpt>
<trkpt lat="34.9691076" lon="32.9092450">
<ele>984.88</ele>
<time>2015-04-29T14:58:22Z</time>
</trkpt>
<trkpt lat="34.9691189" lon="32.9091616">
<ele>984.79</ele>
<time>2015-04-29T14:58:24Z</time>
</trkpt>
<trkpt lat="34.9691221" lon="32.9090808">
<ele>984.77</ele>
<time>2015-04-29T14:58:26Z</time>
</trkpt>
<trkpt lat="34.9691047" lon="32.9089843">
<ele>984.76</ele>
<time>2015-04-29T14:58:28Z</time>
</trkpt>
<trkpt lat="34.9690820" lon="32.9088942">
<ele>985.51</ele>
<time>2015-04-29T14:58:30Z</time>
</trkpt>
<trkpt lat="34.9690836" lon="32.9087960">
<ele>984.70</ele>
<time>2015-04-29T14:58:32Z</time>
</trkpt>
<trkpt lat="34.9691080" lon="32.9087062">
<ele>985.49</ele>
<time>2015-04-29T14:58:34Z</time>
</trkpt>
<trkpt lat="34.9691686" lon="32.9086363">
<ele>987.69</ele>
<time>2015-04-29T14:58:36Z</time>
</trkpt>
<trkpt lat="34.9692339" lon="32.9085804">
<ele>988.99</ele>
<time>2015-04-29T14:58:38Z</time>
</trkpt>
<trkpt lat="34.9692944" lon="32.9085135">
<ele>990.82</ele>
<time>2015-04-29T14:58:40Z</time>
</trkpt>
<trkpt lat="34.9693628" lon="32.9084578">
<ele>992.77</ele>
<time>2015-04-29T14:58:42Z</time>
</trkpt>
<trkpt lat="34.9694294" lon="32.9084114">
<ele>992.76</ele>
<time>2015-04-29T14:58:44Z</time>
</trkpt>
<trkpt lat="34.9695023" lon="32.9083719">
<ele>995.76</ele>
<time>2015-04-29T14:58:46Z</time>
</trkpt>
<trkpt lat="34.9695741" lon="32.9083792">
<ele>996.26</ele>
<time>2015-04-29T14:58:48Z</time>
</trkpt>
<trkpt lat="34.9696277" lon="32.9083998">
<ele>995.39</ele>
<time>2015-04-29T14:58:50Z</time>
</trkpt>
<trkpt lat="34.9696838" lon="32.9084342">
<ele>995.71</ele>
<time>2015-04-29T14:58:53Z</time>
</trkpt>
<trkpt lat="34.9697359" lon="32.9084452">
<ele>996.25</ele>
<time>2015-04-29T14:58:56Z</time>
</trkpt>
<trkpt lat="34.9697772" lon="32.9084108">
<ele>998.32</ele>
<time>2015-04-29T14:58:59Z</time>
</trkpt>
<trkpt lat="34.9697633" lon="32.9083442">
<ele>999.57</ele>
<time>2015-04-29T15:01:46Z</time>
</trkpt>
<trkpt lat="34.9697362" lon="32.9082990">
<ele>999.74</ele>
<time>2015-04-29T15:01:49Z</time>
</trkpt>
<trkpt lat="34.9697126" lon="32.9082434">
<ele>996.95</ele>
<time>2015-04-29T15:01:53Z</time>
</trkpt>
<trkpt lat="34.9696812" lon="32.9081820">
<ele>994.46</ele>
<time>2015-04-29T15:01:57Z</time>
</trkpt>
<trkpt lat="34.9696343" lon="32.9081224">
<ele>993.85</ele>
<time>2015-04-29T15:02:00Z</time>
</trkpt>
<trkpt lat="34.9695783" lon="32.9080892">
<ele>994.27</ele>
<time>2015-04-29T15:02:03Z</time>
</trkpt>
<trkpt lat="34.9695344" lon="32.9080606">
<ele>994.20</ele>
<time>2015-04-29T15:02:06Z</time>
</trkpt>
<trkpt lat="34.9694865" lon="32.9080159">
<ele>996.06</ele>
<time>2015-04-29T15:02:09Z</time>
</trkpt>
<trkpt lat="34.9694583" lon="32.9079703">
<ele>996.59</ele>
<time>2015-04-29T15:02:11Z</time>
</trkpt>
<trkpt lat="34.9694290" lon="32.9079154">
<ele>996.72</ele>
<time>2015-04-29T15:02:13Z</time>
</trkpt>
<trkpt lat="34.9693959" lon="32.9078589">
<ele>996.25</ele>
<time>2015-04-29T15:02:15Z</time>
</trkpt>
<trkpt lat="34.9693622" lon="32.9077974">
<ele>995.88</ele>
<time>2015-04-29T15:02:17Z</time>
</trkpt>
<trkpt lat="34.9693439" lon="32.9077318">
<ele>995.54</ele>
<time>2015-04-29T15:02:19Z</time>
</trkpt>
<trkpt lat="34.9693469" lon="32.9076605">
<ele>995.46</ele>
<time>2015-04-29T15:02:21Z</time>
</trkpt>
<trkpt lat="34.9693744" lon="32.9075941">
<ele>995.18</ele>
<time>2015-04-29T15:02:23Z</time>
</trkpt>
<trkpt lat="34.9694169" lon="32.9075324">
<ele>993.87</ele>
<time>2015-04-29T15:02:25Z</time>
</trkpt>
<trkpt lat="34.9694585" lon="32.9074724">
<ele>993.04</ele>
<time>2015-04-29T15:02:27Z</time>
</trkpt>
<trkpt lat="34.9694962" lon="32.9073866">
<ele>992.33</ele>
<time>2015-04-29T15:02:29Z</time>
</trkpt>
<trkpt lat="34.9695268" lon="32.9072938">
<ele>992.65</ele>
<time>2015-04-29T15:02:31Z</time>
</trkpt>
<trkpt lat="34.9695507" lon="32.9072071">
<ele>992.73</ele>
<time>2015-04-29T15:02:33Z</time>
</trkpt>
<trkpt lat="34.9695703" lon="32.9071547">
<ele>993.25</ele>
<time>2015-04-29T15:02:34Z</time>
</trkpt>
<trkpt lat="34.9696355" lon="32.9070892">
<ele>996.13</ele>
<time>2015-04-29T15:02:36Z</time>
</trkpt>
<trkpt lat="34.9697157" lon="32.9070622">
<ele>998.10</ele>
<time>2015-04-29T15:02:38Z</time>
</trkpt>
<trkpt lat="34.9698003" lon="32.9070455">
<ele>999.85</ele>
<time>2015-04-29T15:02:40Z</time>
</trkpt>
<trkpt lat="34.9698803" lon="32.9070203">
<ele>999.28</ele>
<time>2015-04-29T15:02:42Z</time>
</trkpt>
<trkpt lat="34.9699519" lon="32.9069673">
<ele>997.89</ele>
<time>2015-04-29T15:02:44Z</time>
</trkpt>
<trkpt lat="34.9700168" lon="32.9069080">
<ele>997.54</ele>
<time>2015-04-29T15:02:46Z</time>
</trkpt>
<trkpt lat="34.9700950" lon="32.9068731">
<ele>996.96</ele>
<time>2015-04-29T15:02:48Z</time>
</trkpt>
<trkpt lat="34.9701684" lon="32.9068467">
<ele>997.31</ele>
<time>2015-04-29T15:02:50Z</time>
</trkpt>
<trkpt lat="34.9702389" lon="32.9068150">
<ele>998.40</ele>
<time>2015-04-29T15:02:52Z</time>
</trkpt>
<trkpt lat="34.9703027" lon="32.9067721">
<ele>998.92</ele>
<time>2015-04-29T15:02:54Z</time>
</trkpt>
<trkpt lat="34.9703566" lon="32.9067021">
<ele>998.55</ele>
<time>2015-04-29T15:02:56Z</time>
</trkpt>
<trkpt lat="34.9704188" lon="32.9065991">
<ele>1000.46</ele>
<time>2015-04-29T15:02:58Z</time>
</trkpt>
<trkpt lat="34.9704581" lon="32.9065234">
<ele>999.18</ele>
<time>2015-04-29T15:03:00Z</time>
</trkpt>
<trkpt lat="34.9704852" lon="32.9064678">
<ele>998.47</ele>
<time>2015-04-29T15:03:01Z</time>
</trkpt>
<trkpt lat="34.9704982" lon="32.9064094">
<ele>998.62</ele>
<time>2015-04-29T15:03:02Z</time>
</trkpt>
<trkpt lat="34.9705436" lon="32.9063194">
<ele>997.47</ele>
<time>2015-04-29T15:03:04Z</time>
</trkpt>
<trkpt lat="34.9705614" lon="32.9062429">
<ele>996.94</ele>
<time>2015-04-29T15:03:06Z</time>
</trkpt>
<trkpt lat="34.9705454" lon="32.9061834">
<ele>997.55</ele>
<time>2015-04-29T15:03:08Z</time>
</trkpt>
<trkpt lat="34.9704839" lon="32.9061514">
<ele>996.71</ele>
<time>2015-04-29T15:03:10Z</time>
</trkpt>
<trkpt lat="34.9704156" lon="32.9061438">
<ele>995.00</ele>
<time>2015-04-29T15:03:12Z</time>
</trkpt>
<trkpt lat="34.9703407" lon="32.9061328">
<ele>992.57</ele>
<time>2015-04-29T15:03:14Z</time>
</trkpt>
<trkpt lat="34.9702658" lon="32.9061147">
<ele>990.46</ele>
<time>2015-04-29T15:03:16Z</time>
</trkpt>
<trkpt lat="34.9701910" lon="32.9060837">
<ele>990.44</ele>
<time>2015-04-29T15:03:18Z</time>
</trkpt>
<trkpt lat="34.9701125" lon="32.9060661">
<ele>990.68</ele>
<time>2015-04-29T15:03:20Z</time>
</trkpt>
<trkpt lat="34.9700564" lon="32.9060654">
<ele>990.72</ele>
<time>2015-04-29T15:03:21Z</time>
</trkpt>
<trkpt lat="34.9699765" lon="32.9060560">
<ele>990.75</ele>
<time>2015-04-29T15:03:23Z</time>
</trkpt>
<trkpt lat="34.9699251" lon="32.9059780">
<ele>990.01</ele>
<time>2015-04-29T15:03:25Z</time>
</trkpt>
<trkpt lat="34.9699194" lon="32.9059152">
<ele>989.32</ele>
<time>2015-04-29T15:03:27Z</time>
</trkpt>
<trkpt lat="34.9699624" lon="32.9058411">
<ele>989.15</ele>
<time>2015-04-29T15:03:29Z</time>
</trkpt>
<trkpt lat="34.9700014" lon="32.9057938">
<ele>988.96</ele>
<time>2015-04-29T15:03:30Z</time>
</trkpt>
<trkpt lat="34.9700646" lon="32.9057431">
<ele>988.31</ele>
<time>2015-04-29T15:03:32Z</time>
</trkpt>
<trkpt lat="34.9701302" lon="32.9056856">
<ele>986.65</ele>
<time>2015-04-29T15:03:34Z</time>
</trkpt>
<trkpt lat="34.9701802" lon="32.9056114">
<ele>985.98</ele>
<time>2015-04-29T15:03:36Z</time>
</trkpt>
<trkpt lat="34.9701843" lon="32.9055189">
<ele>987.07</ele>
<time>2015-04-29T15:03:38Z</time>
</trkpt>
<trkpt lat="34.9701590" lon="32.9054273">
<ele>987.59</ele>
<time>2015-04-29T15:03:40Z</time>
</trkpt>
<trkpt lat="34.9701268" lon="32.9053440">
<ele>987.72</ele>
<time>2015-04-29T15:03:42Z</time>
</trkpt>
<trkpt lat="34.9701036" lon="32.9052561">
<ele>987.00</ele>
<time>2015-04-29T15:03:44Z</time>
</trkpt>
<trkpt lat="34.9701247" lon="32.9051754">
<ele>986.82</ele>
<time>2015-04-29T15:03:46Z</time>
</trkpt>
<trkpt lat="34.9701845" lon="32.9051427">
<ele>986.27</ele>
<time>2015-04-29T15:03:48Z</time>
</trkpt>
<trkpt lat="34.9702602" lon="32.9051718">
<ele>986.39</ele>
<time>2015-04-29T15:03:50Z</time>
</trkpt>
<trkpt lat="34.9703436" lon="32.9051990">
<ele>987.17</ele>
<time>2015-04-29T15:03:52Z</time>
</trkpt>
<trkpt lat="34.9703943" lon="32.9052054">
<ele>986.96</ele>
<time>2015-04-29T15:03:53Z</time>
</trkpt>
<trkpt lat="34.9704567" lon="32.9051871">
<ele>986.36</ele>
<time>2015-04-29T15:03:54Z</time>
</trkpt>
<trkpt lat="34.9705017" lon="32.9051734">
<ele>986.56</ele>
<time>2015-04-29T15:03:55Z</time>
</trkpt>
<trkpt lat="34.9705461" lon="32.9051518">
<ele>987.16</ele>
<time>2015-04-29T15:03:56Z</time>
</trkpt>
<trkpt lat="34.9706281" lon="32.9050890">
<ele>987.61</ele>
<time>2015-04-29T15:03:58Z</time>
</trkpt>
<trkpt lat="34.9706698" lon="32.9050551">
<ele>987.69</ele>
<time>2015-04-29T15:03:59Z</time>
</trkpt>
<trkpt lat="34.9707190" lon="32.9050165">
<ele>987.72</ele>
<time>2015-04-29T15:04:00Z</time>
</trkpt>
<trkpt lat="34.9707563" lon="32.9049724">
<ele>987.74</ele>
<time>2015-04-29T15:04:01Z</time>
</trkpt>
<trkpt lat="34.9708002" lon="32.9048957">
<ele>986.51</ele>
<time>2015-04-29T15:04:03Z</time>
</trkpt>
<trkpt lat="34.9708092" lon="32.9048066">
<ele>986.70</ele>
<time>2015-04-29T15:04:05Z</time>
</trkpt>
<trkpt lat="34.9708012" lon="32.9047054">
<ele>986.74</ele>
<time>2015-04-29T15:04:07Z</time>
</trkpt>
<trkpt lat="34.9707948" lon="32.9046480">
<ele>986.75</ele>
<time>2015-04-29T15:04:08Z</time>
</trkpt>
<trkpt lat="34.9708031" lon="32.9045922">
<ele>986.76</ele>
<time>2015-04-29T15:04:09Z</time>
</trkpt>
<trkpt lat="34.9708030" lon="32.9045307">
<ele>986.76</ele>
<time>2015-04-29T15:04:10Z</time>
</trkpt>
<trkpt lat="34.9708096" lon="32.9044722">
<ele>986.76</ele>
<time>2015-04-29T15:04:11Z</time>
</trkpt>
<trkpt lat="34.9708299" lon="32.9043642">
<ele>986.26</ele>
<time>2015-04-29T15:04:13Z</time>
</trkpt>
<trkpt lat="34.9708470" lon="32.9042602">
<ele>985.88</ele>
<time>2015-04-29T15:04:15Z</time>
</trkpt>
<trkpt lat="34.9708579" lon="32.9042008">
<ele>985.82</ele>
<time>2015-04-29T15:04:16Z</time>
</trkpt>
<trkpt lat="34.9708781" lon="32.9041459">
<ele>985.29</ele>
<time>2015-04-29T15:04:17Z</time>
</trkpt>
<trkpt lat="34.9709164" lon="32.9041006">
<ele>985.53</ele>
<time>2015-04-29T15:04:18Z</time>
</trkpt>
<trkpt lat="34.9709618" lon="32.9040701">
<ele>985.14</ele>
<time>2015-04-29T15:04:19Z</time>
</trkpt>
<trkpt lat="34.9710168" lon="32.9040498">
<ele>985.45</ele>
<time>2015-04-29T15:04:20Z</time>
</trkpt>
<trkpt lat="34.9710661" lon="32.9040418">
<ele>985.61</ele>
<time>2015-04-29T15:04:21Z</time>
</trkpt>
<trkpt lat="34.9711198" lon="32.9040306">
<ele>986.18</ele>
<time>2015-04-29T15:04:22Z</time>
</trkpt>
<trkpt lat="34.9711680" lon="32.9040204">
<ele>986.47</ele>
<time>2015-04-29T15:04:23Z</time>
</trkpt>
<trkpt lat="34.9712019" lon="32.9039802">
<ele>986.62</ele>
<time>2015-04-29T15:04:24Z</time>
</trkpt>
<trkpt lat="34.9712380" lon="32.9039398">
<ele>986.69</ele>
<time>2015-04-29T15:04:25Z</time>
</trkpt>
<trkpt lat="34.9712586" lon="32.9038864">
<ele>986.72</ele>
<time>2015-04-29T15:04:26Z</time>
</trkpt>
<trkpt lat="34.9712788" lon="32.9038279">
<ele>986.24</ele>
<time>2015-04-29T15:04:27Z</time>
</trkpt>
<trkpt lat="34.9712894" lon="32.9037714">
<ele>986.00</ele>
<time>2015-04-29T15:04:28Z</time>
</trkpt>
<trkpt lat="34.9712855" lon="32.9037039">
<ele>985.38</ele>
<time>2015-04-29T15:04:29Z</time>
</trkpt>
<trkpt lat="34.9712714" lon="32.9036458">
<ele>986.07</ele>
<time>2015-04-29T15:04:30Z</time>
</trkpt>
<trkpt lat="34.9712299" lon="32.9035676">
<ele>986.59</ele>
<time>2015-04-29T15:04:32Z</time>
</trkpt>
<trkpt lat="34.9711469" lon="32.9035574">
<ele>985.97</ele>
<time>2015-04-29T15:04:34Z</time>
</trkpt>
<trkpt lat="34.9711016" lon="32.9035565">
<ele>985.86</ele>
<time>2015-04-29T15:04:35Z</time>
</trkpt>
<trkpt lat="34.9710531" lon="32.9035442">
<ele>985.81</ele>
<time>2015-04-29T15:04:36Z</time>
</trkpt>
<trkpt lat="34.9710048" lon="32.9035172">
<ele>985.79</ele>
<time>2015-04-29T15:04:37Z</time>
</trkpt>
<trkpt lat="34.9709595" lon="32.9034706">
<ele>985.77</ele>
<time>2015-04-29T15:04:38Z</time>
</trkpt>
<trkpt lat="34.9709378" lon="32.9034057">
<ele>985.77</ele>
<time>2015-04-29T15:04:39Z</time>
</trkpt>
<trkpt lat="34.9709243" lon="32.9033367">
<ele>985.76</ele>
<time>2015-04-29T15:04:40Z</time>
</trkpt>
<trkpt lat="34.9709068" lon="32.9032664">
<ele>985.26</ele>
<time>2015-04-29T15:04:41Z</time>
</trkpt>
<trkpt lat="34.9708976" lon="32.9032082">
<ele>985.01</ele>
<time>2015-04-29T15:04:42Z</time>
</trkpt>
<trkpt lat="34.9708758" lon="32.9031486">
<ele>984.89</ele>
<time>2015-04-29T15:04:43Z</time>
</trkpt>
<trkpt lat="34.9708125" lon="32.9030571">
<ele>984.54</ele>
<time>2015-04-29T15:04:45Z</time>
</trkpt>
<trkpt lat="34.9707099" lon="32.9030318">
<ele>983.46</ele>
<time>2015-04-29T15:04:47Z</time>
</trkpt>
<trkpt lat="34.9706546" lon="32.9030312">
<ele>983.11</ele>
<time>2015-04-29T15:04:48Z</time>
</trkpt>
<trkpt lat="34.9706076" lon="32.9030303">
<ele>982.43</ele>
<time>2015-04-29T15:04:49Z</time>
</trkpt>
<trkpt lat="34.9705314" lon="32.9029964">
<ele>981.93</ele>
<time>2015-04-29T15:04:51Z</time>
</trkpt>
<trkpt lat="34.9704934" lon="32.9029419">
<ele>981.84</ele>
<time>2015-04-29T15:04:52Z</time>
</trkpt>
<trkpt lat="34.9704703" lon="32.9028825">
<ele>981.30</ele>
<time>2015-04-29T15:04:53Z</time>
</trkpt>
<trkpt lat="34.9704671" lon="32.9028233">
<ele>981.53</ele>
<time>2015-04-29T15:04:54Z</time>
</trkpt>
<trkpt lat="34.9704740" lon="32.9027649">
<ele>981.65</ele>
<time>2015-04-29T15:04:55Z</time>
</trkpt>
<trkpt lat="34.9704854" lon="32.9027077">
<ele>981.70</ele>
<time>2015-04-29T15:04:56Z</time>
</trkpt>
<trkpt lat="34.9705186" lon="32.9026078">
<ele>981.25</ele>
<time>2015-04-29T15:04:58Z</time>
</trkpt>
<trkpt lat="34.9705457" lon="32.9025207">
<ele>978.88</ele>
<time>2015-04-29T15:05:00Z</time>
</trkpt>
<trkpt lat="34.9705743" lon="32.9024751">
<ele>978.32</ele>
<time>2015-04-29T15:05:01Z</time>
</trkpt>
<trkpt lat="34.9706122" lon="32.9023848">
<ele>977.90</ele>
<time>2015-04-29T15:05:03Z</time>
</trkpt>
<trkpt lat="34.9706150" lon="32.9022781">
<ele>978.30</ele>
<time>2015-04-29T15:05:05Z</time>
</trkpt>
<trkpt lat="34.9705962" lon="32.9021747">
<ele>979.14</ele>
<time>2015-04-29T15:05:07Z</time>
</trkpt>
<trkpt lat="34.9705567" lon="32.9021424">
<ele>978.95</ele>
<time>2015-04-29T15:05:08Z</time>
</trkpt>
<trkpt lat="34.9704927" lon="32.9020949">
<ele>978.56</ele>
<time>2015-04-29T15:05:10Z</time>
</trkpt>
<trkpt lat="34.9704514" lon="32.9020417">
<ele>977.66</ele>
<time>2015-04-29T15:05:11Z</time>
</trkpt>
<trkpt lat="34.9704000" lon="32.9020033">
<ele>977.21</ele>
<time>2015-04-29T15:05:12Z</time>
</trkpt>
<trkpt lat="34.9703583" lon="32.9019687">
<ele>976.98</ele>
<time>2015-04-29T15:05:13Z</time>
</trkpt>
<trkpt lat="34.9703321" lon="32.9019201">
<ele>977.87</ele>
<time>2015-04-29T15:05:14Z</time>
</trkpt>
<trkpt lat="34.9702982" lon="32.9018661">
<ele>978.32</ele>
<time>2015-04-29T15:05:15Z</time>
</trkpt>
<trkpt lat="34.9703022" lon="32.9017984">
<ele>978.54</ele>
<time>2015-04-29T15:05:16Z</time>
</trkpt>
<trkpt lat="34.9703184" lon="32.9016859">
<ele>978.20</ele>
<time>2015-04-29T15:05:18Z</time>
</trkpt>
<trkpt lat="34.9703573" lon="32.9016271">
<ele>977.48</ele>
<time>2015-04-29T15:05:19Z</time>
</trkpt>
<trkpt lat="34.9703938" lon="32.9015790">
<ele>977.62</ele>
<time>2015-04-29T15:05:20Z</time>
</trkpt>
<trkpt lat="34.9704577" lon="32.9015530">
<ele>978.19</ele>
<time>2015-04-29T15:05:21Z</time>
</trkpt>
<trkpt lat="34.9705107" lon="32.9015524">
<ele>977.98</ele>
<time>2015-04-29T15:05:22Z</time>
</trkpt>
<trkpt lat="34.9705610" lon="32.9015476">
<ele>978.87</ele>
<time>2015-04-29T15:05:23Z</time>
</trkpt>
<trkpt lat="34.9706589" lon="32.9015357">
<ele>978.79</ele>
<time>2015-04-29T15:05:25Z</time>
</trkpt>
<trkpt lat="34.9707122" lon="32.9015252">
<ele>979.27</ele>
<time>2015-04-29T15:05:26Z</time>
</trkpt>
<trkpt lat="34.9707776" lon="32.9015140">
<ele>978.52</ele>
<time>2015-04-29T15:05:27Z</time>
</trkpt>
<trkpt lat="34.9708302" lon="32.9014960">
<ele>978.14</ele>
<time>2015-04-29T15:05:28Z</time>
</trkpt>
<trkpt lat="34.9708826" lon="32.9014947">
<ele>977.95</ele>
<time>2015-04-29T15:05:29Z</time>
</trkpt>
<trkpt lat="34.9709336" lon="32.9014754">
<ele>977.85</ele>
<time>2015-04-29T15:05:30Z</time>
</trkpt>
<trkpt lat="34.9709961" lon="32.9014716">
<ele>977.31</ele>
<time>2015-04-29T15:05:31Z</time>
</trkpt>
<trkpt lat="34.9710588" lon="32.9014752">
<ele>976.53</ele>
<time>2015-04-29T15:05:32Z</time>
</trkpt>
<trkpt lat="34.9711200" lon="32.9014962">
<ele>976.15</ele>
<time>2015-04-29T15:05:33Z</time>
</trkpt>
<trkpt lat="34.9711670" lon="32.9015340">
<ele>975.95</ele>
<time>2015-04-29T15:05:34Z</time>
</trkpt>
<trkpt lat="34.9712148" lon="32.9015622">
<ele>975.86</ele>
<time>2015-04-29T15:05:35Z</time>
</trkpt>
<trkpt lat="34.9712710" lon="32.9015823">
<ele>976.31</ele>
<time>2015-04-29T15:05:36Z</time>
</trkpt>
<trkpt lat="34.9713264" lon="32.9015948">
<ele>976.53</ele>
<time>2015-04-29T15:05:37Z</time>
</trkpt>
<trkpt lat="34.9713739" lon="32.9016049">
<ele>976.65</ele>
<time>2015-04-29T15:05:38Z</time>
</trkpt>
<trkpt lat="34.9714185" lon="32.9015937">
<ele>976.20</ele>
<time>2015-04-29T15:05:39Z</time>
</trkpt>
<trkpt lat="34.9714574" lon="32.9015587">
<ele>975.48</ele>
<time>2015-04-29T15:05:40Z</time>
</trkpt>
<trkpt lat="34.9715060" lon="32.9014683">
<ele>974.19</ele>
<time>2015-04-29T15:05:42Z</time>
</trkpt>
<trkpt lat="34.9715321" lon="32.9013689">
<ele>973.37</ele>
<time>2015-04-29T15:05:44Z</time>
</trkpt>
<trkpt lat="34.9715234" lon="32.9013091">
<ele>973.06</ele>
<time>2015-04-29T15:05:45Z</time>
</trkpt>
<trkpt lat="34.9714877" lon="32.9012088">
<ele>972.09</ele>
<time>2015-04-29T15:05:47Z</time>
</trkpt>
<trkpt lat="34.9714587" lon="32.9011644">
<ele>971.92</ele>
<time>2015-04-29T15:05:48Z</time>
</trkpt>
<trkpt lat="34.9714232" lon="32.9011240">
<ele>972.34</ele>
<time>2015-04-29T15:05:49Z</time>
</trkpt>
<trkpt lat="34.9713840" lon="32.9010841">
<ele>972.05</ele>
<time>2015-04-29T15:05:50Z</time>
</trkpt>
<trkpt lat="34.9713414" lon="32.9010443">
<ele>971.91</ele>
<time>2015-04-29T15:05:51Z</time>
</trkpt>
<trkpt lat="34.9713003" lon="32.9009898">
<ele>971.83</ele>
<time>2015-04-29T15:05:52Z</time>
</trkpt>
<trkpt lat="34.9712621" lon="32.9009378">
<ele>972.30</ele>
<time>2015-04-29T15:05:53Z</time>
</trkpt>
<trkpt lat="34.9712244" lon="32.9008948">
<ele>972.53</ele>
<time>2015-04-29T15:05:54Z</time>
</trkpt>
<trkpt lat="34.9712015" lon="32.9008445">
<ele>972.64</ele>
<time>2015-04-29T15:05:55Z</time>
</trkpt>
<trkpt lat="34.9712025" lon="32.9007316">
<ele>971.98</ele>
<time>2015-04-29T15:05:57Z</time>
</trkpt>
<trkpt lat="34.9712158" lon="32.9006740">
<ele>971.87</ele>
<time>2015-04-29T15:05:58Z</time>
</trkpt>
<trkpt lat="34.9712336" lon="32.9006209">
<ele>971.32</ele>
<time>2015-04-29T15:05:59Z</time>
</trkpt>
<trkpt lat="34.9712509" lon="32.9005678">
<ele>971.04</ele>
<time>2015-04-29T15:06:00Z</time>
</trkpt>
<trkpt lat="34.9712783" lon="32.9004570">
<ele>971.08</ele>
<time>2015-04-29T15:06:02Z</time>
</trkpt>
<trkpt lat="34.9713046" lon="32.9003982">
<ele>970.92</ele>
<time>2015-04-29T15:06:03Z</time>
</trkpt>
<trkpt lat="34.9713354" lon="32.9003474">
<ele>970.34</ele>
<time>2015-04-29T15:06:04Z</time>
</trkpt>
<trkpt lat="34.9713810" lon="32.9003131">
<ele>969.55</ele>
<time>2015-04-29T15:06:05Z</time>
</trkpt>
<trkpt lat="34.9714244" lon="32.9002725">
<ele>969.65</ele>
<time>2015-04-29T15:06:06Z</time>
</trkpt>
<trkpt lat="34.9714676" lon="32.9002375">
<ele>969.21</ele>
<time>2015-04-29T15:06:07Z</time>
</trkpt>
<trkpt lat="34.9715288" lon="32.9001938">
<ele>968.87</ele>
<time>2015-04-29T15:06:09Z</time>
</trkpt>
<trkpt lat="34.9715678" lon="32.9001547">
<ele>968.02</ele>
<time>2015-04-29T15:06:12Z</time>
</trkpt>
<trkpt lat="34.9715914" lon="32.9001008">
<ele>968.46</ele>
<time>2015-04-29T15:06:16Z</time>
</trkpt>
<trkpt lat="34.9715668" lon="32.9000474">
<ele>970.03</ele>
<time>2015-04-29T15:07:10Z</time>
</trkpt>
<trkpt lat="34.9715276" lon="32.9000146">
<ele>971.33</ele>
<time>2015-04-29T15:07:12Z</time>
</trkpt>
<trkpt lat="34.9714783" lon="32.8999717">
<ele>970.40</ele>
<time>2015-04-29T15:07:14Z</time>
</trkpt>
<trkpt lat="34.9714285" lon="32.8999328">
<ele>969.92</ele>
<time>2015-04-29T15:07:16Z</time>
</trkpt>
<trkpt lat="34.9713765" lon="32.8999085">
<ele>968.55</ele>
<time>2015-04-29T15:07:18Z</time>
</trkpt>
<trkpt lat="34.9713231" lon="32.8998932">
<ele>968.46</ele>
<time>2015-04-29T15:07:20Z</time>
</trkpt>
<trkpt lat="34.9712720" lon="32.8998809">
<ele>968.18</ele>
<time>2015-04-29T15:07:22Z</time>
</trkpt>
<trkpt lat="34.9712200" lon="32.8998642">
<ele>968.37</ele>
<time>2015-04-29T15:07:24Z</time>
</trkpt>
<trkpt lat="34.9711692" lon="32.8998412">
<ele>967.91</ele>
<time>2015-04-29T15:07:26Z</time>
</trkpt>
<trkpt lat="34.9711209" lon="32.8998136">
<ele>967.05</ele>
<time>2015-04-29T15:07:28Z</time>
</trkpt>
<trkpt lat="34.9710783" lon="32.8997542">
<ele>968.08</ele>
<time>2015-04-29T15:07:30Z</time>
</trkpt>
<trkpt lat="34.9710683" lon="32.8996639">
<ele>968.34</ele>
<time>2015-04-29T15:07:32Z</time>
</trkpt>
<trkpt lat="34.9710852" lon="32.8995641">
<ele>967.91</ele>
<time>2015-04-29T15:07:34Z</time>
</trkpt>
<trkpt lat="34.9711106" lon="32.8994576">
<ele>967.30</ele>
<time>2015-04-29T15:07:36Z</time>
</trkpt>
<trkpt lat="34.9711254" lon="32.8994048">
<ele>966.03</ele>
<time>2015-04-29T15:07:37Z</time>
</trkpt>
<trkpt lat="34.9711529" lon="32.8993580">
<ele>966.39</ele>
<time>2015-04-29T15:07:38Z</time>
</trkpt>
<trkpt lat="34.9712677" lon="32.8992579">
<ele>967.42</ele>
<time>2015-04-29T15:07:40Z</time>
</trkpt>
<trkpt lat="34.9713536" lon="32.8992025">
<ele>967.67</ele>
<time>2015-04-29T15:07:42Z</time>
</trkpt>
<trkpt lat="34.9714294" lon="32.8992240">
<ele>968.99</ele>
<time>2015-04-29T15:07:44Z</time>
</trkpt>
<trkpt lat="34.9714808" lon="32.8992346">
<ele>968.37</ele>
<time>2015-04-29T15:07:45Z</time>
</trkpt>
<trkpt lat="34.9715239" lon="32.8992536">
<ele>968.07</ele>
<time>2015-04-29T15:07:46Z</time>
</trkpt>
<trkpt lat="34.9716044" lon="32.8992330">
<ele>967.34</ele>
<time>2015-04-29T15:07:48Z</time>
</trkpt>
<trkpt lat="34.9716848" lon="32.8992138">
<ele>967.65</ele>
<time>2015-04-29T15:07:50Z</time>
</trkpt>
<trkpt lat="34.9717542" lon="32.8991710">
<ele>968.48</ele>
<time>2015-04-29T15:07:52Z</time>
</trkpt>
<trkpt lat="34.9718267" lon="32.8991095">
<ele>967.94</ele>
<time>2015-04-29T15:07:54Z</time>
</trkpt>
<trkpt lat="34.9718958" lon="32.8990580">
<ele>968.06</ele>
<time>2015-04-29T15:07:56Z</time>
</trkpt>
<trkpt lat="34.9719615" lon="32.8990045">
<ele>966.33</ele>
<time>2015-04-29T15:07:58Z</time>
</trkpt>
<trkpt lat="34.9720220" lon="32.8989412">
<ele>965.40</ele>
<time>2015-04-29T15:08:00Z</time>
</trkpt>
<trkpt lat="34.9720709" lon="32.8988631">
<ele>965.42</ele>
<time>2015-04-29T15:08:02Z</time>
</trkpt>
<trkpt lat="34.9721087" lon="32.8987785">
<ele>964.93</ele>
<time>2015-04-29T15:08:04Z</time>
</trkpt>
<trkpt lat="34.9721299" lon="32.8987078">
<ele>964.05</ele>
<time>2015-04-29T15:08:06Z</time>
</trkpt>
<trkpt lat="34.9721489" lon="32.8986541">
<ele>961.27</ele>
<time>2015-04-29T15:08:31Z</time>
</trkpt>
<trkpt lat="34.9721478" lon="32.8985681">
<ele>961.20</ele>
<time>2015-04-29T15:08:34Z</time>
</trkpt>
<trkpt lat="34.9721338" lon="32.8984884">
<ele>960.12</ele>
<time>2015-04-29T15:08:36Z</time>
</trkpt>
<trkpt lat="34.9720943" lon="32.8984010">
<ele>958.85</ele>
<time>2015-04-29T15:08:38Z</time>
</trkpt>
<trkpt lat="34.9720468" lon="32.8983211">
<ele>958.30</ele>
<time>2015-04-29T15:08:39Z</time>
</trkpt>
<trkpt lat="34.9720013" lon="32.8982347">
<ele>957.15</ele>
<time>2015-04-29T15:08:41Z</time>
</trkpt>
<trkpt lat="34.9719840" lon="32.8981802">
<ele>957.95</ele>
<time>2015-04-29T15:08:42Z</time>
</trkpt>
<trkpt lat="34.9719521" lon="32.8980765">
<ele>957.81</ele>
<time>2015-04-29T15:08:44Z</time>
</trkpt>
<trkpt lat="34.9718988" lon="32.8980012">
<ele>958.52</ele>
<time>2015-04-29T15:08:46Z</time>
</trkpt>
<trkpt lat="34.9718710" lon="32.8979100">
<ele>959.45</ele>
<time>2015-04-29T15:08:48Z</time>
</trkpt>
<trkpt lat="34.9718751" lon="32.8978123">
<ele>958.18</ele>
<time>2015-04-29T15:08:50Z</time>
</trkpt>
<trkpt lat="34.9719275" lon="32.8977921">
<ele>958.97</ele>
<time>2015-04-29T15:08:51Z</time>
</trkpt>
<trkpt lat="34.9719958" lon="32.8977512">
<ele>959.81</ele>
<time>2015-04-29T15:08:53Z</time>
</trkpt>
<trkpt lat="34.9720585" lon="32.8977198">
<ele>959.27</ele>
<time>2015-04-29T15:08:55Z</time>
</trkpt>
<trkpt lat="34.9721208" lon="32.8976724">
<ele>961.14</ele>
<time>2015-04-29T15:08:57Z</time>
</trkpt>
<trkpt lat="34.9721937" lon="32.8976376">
<ele>960.60</ele>
<time>2015-04-29T15:08:59Z</time>
</trkpt>
<trkpt lat="34.9722558" lon="32.8976114">
<ele>960.18</ele>
<time>2015-04-29T15:09:00Z</time>
</trkpt>
<trkpt lat="34.9722990" lon="32.8975893">
<ele>959.97</ele>
<time>2015-04-29T15:09:01Z</time>
</trkpt>
<trkpt lat="34.9723610" lon="32.8975508">
<ele>960.06</ele>
<time>2015-04-29T15:09:03Z</time>
</trkpt>
<trkpt lat="34.9724029" lon="32.8975291">
<ele>959.41</ele>
<time>2015-04-29T15:09:04Z</time>
</trkpt>
<trkpt lat="34.9724803" lon="32.8975229">
<ele>958.17</ele>
<time>2015-04-29T15:09:06Z</time>
</trkpt>
<trkpt lat="34.9725618" lon="32.8975009">
<ele>956.61</ele>
<time>2015-04-29T15:09:08Z</time>
</trkpt>
<trkpt lat="34.9726453" lon="32.8974643">
<ele>955.97</ele>
<time>2015-04-29T15:09:10Z</time>
</trkpt>
<trkpt lat="34.9726856" lon="32.8974342">
<ele>955.37</ele>
<time>2015-04-29T15:09:11Z</time>
</trkpt>
<trkpt lat="34.9727212" lon="32.8973931">
<ele>955.06</ele>
<time>2015-04-29T15:09:12Z</time>
</trkpt>
<trkpt lat="34.9727541" lon="32.8973379">
<ele>954.41</ele>
<time>2015-04-29T15:09:13Z</time>
</trkpt>
<trkpt lat="34.9727870" lon="32.8972849">
<ele>954.09</ele>
<time>2015-04-29T15:09:14Z</time>
</trkpt>
<trkpt lat="34.9728182" lon="32.8972282">
<ele>953.42</ele>
<time>2015-04-29T15:09:15Z</time>
</trkpt>
<trkpt lat="34.9728501" lon="32.8971640">
<ele>952.59</ele>
<time>2015-04-29T15:09:16Z</time>
</trkpt>
<trkpt lat="34.9728935" lon="32.8971083">
<ele>952.18</ele>
<time>2015-04-29T15:09:17Z</time>
</trkpt>
<trkpt lat="34.9729334" lon="32.8970532">
<ele>951.97</ele>
<time>2015-04-29T15:09:18Z</time>
</trkpt>
<trkpt lat="34.9729724" lon="32.8970107">
<ele>952.36</ele>
<time>2015-04-29T15:09:19Z</time>
</trkpt>
<trkpt lat="34.9730208" lon="32.8969630">
<ele>952.56</ele>
<time>2015-04-29T15:09:20Z</time>
</trkpt>
<trkpt lat="34.9730542" lon="32.8969106">
<ele>953.16</ele>
<time>2015-04-29T15:09:21Z</time>
</trkpt>
<trkpt lat="34.9730831" lon="32.8968546">
<ele>953.46</ele>
<time>2015-04-29T15:09:22Z</time>
</trkpt>
<trkpt lat="34.9731032" lon="32.8967508">
<ele>953.69</ele>
<time>2015-04-29T15:09:24Z</time>
</trkpt>
<trkpt lat="34.9731042" lon="32.8966576">
<ele>953.74</ele>
<time>2015-04-29T15:09:26Z</time>
</trkpt>
<trkpt lat="34.9730994" lon="32.8965564">
<ele>954.51</ele>
<time>2015-04-29T15:09:28Z</time>
</trkpt>
<trkpt lat="34.9730786" lon="32.8964789">
<ele>954.70</ele>
<time>2015-04-29T15:09:30Z</time>
</trkpt>
<trkpt lat="34.9730404" lon="32.8964209">
<ele>954.24</ele>
<time>2015-04-29T15:09:32Z</time>
</trkpt>
<trkpt lat="34.9729826" lon="32.8963589">
<ele>955.38</ele>
<time>2015-04-29T15:09:34Z</time>
</trkpt>
<trkpt lat="34.9729228" lon="32.8963058">
<ele>955.67</ele>
<time>2015-04-29T15:09:36Z</time>
</trkpt>
<trkpt lat="34.9728630" lon="32.8962402">
<ele>956.99</ele>
<time>2015-04-29T15:09:38Z</time>
</trkpt>
<trkpt lat="34.9728322" lon="32.8961935">
<ele>957.87</ele>
<time>2015-04-29T15:09:39Z</time>
</trkpt>
<trkpt lat="34.9728042" lon="32.8961240">
<ele>958.82</ele>
<time>2015-04-29T15:09:40Z</time>
</trkpt>
<trkpt lat="34.9727709" lon="32.8960250">
<ele>959.52</ele>
<time>2015-04-29T15:09:42Z</time>
</trkpt>
<trkpt lat="34.9727738" lon="32.8959362">
<ele>958.95</ele>
<time>2015-04-29T15:09:44Z</time>
</trkpt>
<trkpt lat="34.9727882" lon="32.8958560">
<ele>958.81</ele>
<time>2015-04-29T15:09:46Z</time>
</trkpt>
<trkpt lat="34.9728026" lon="32.8957827">
<ele>958.27</ele>
<time>2015-04-29T15:09:48Z</time>
</trkpt>
<trkpt lat="34.9728242" lon="32.8957127">
<ele>958.64</ele>
<time>2015-04-29T15:09:50Z</time>
</trkpt>
<trkpt lat="34.9728406" lon="32.8956576">
<ele>957.98</ele>
<time>2015-04-29T15:09:52Z</time>
</trkpt>
<trkpt lat="34.9728504" lon="32.8955905">
<ele>958.66</ele>
<time>2015-04-29T15:09:55Z</time>
</trkpt>
<trkpt lat="34.9728629" lon="32.8955211">
<ele>958.75</ele>
<time>2015-04-29T15:09:58Z</time>
</trkpt>
<trkpt lat="34.9728746" lon="32.8954474">
<ele>959.26</ele>
<time>2015-04-29T15:10:01Z</time>
</trkpt>
<trkpt lat="34.9728871" lon="32.8953678">
<ele>959.70</ele>
<time>2015-04-29T15:10:04Z</time>
</trkpt>
<trkpt lat="34.9728884" lon="32.8953124">
<ele>959.74</ele>
<time>2015-04-29T15:10:06Z</time>
</trkpt>
<trkpt lat="34.9728977" lon="32.8952555">
<ele>959.51</ele>
<time>2015-04-29T15:10:08Z</time>
</trkpt>
<trkpt lat="34.9729159" lon="32.8951970">
<ele>959.70</ele>
<time>2015-04-29T15:10:10Z</time>
</trkpt>
<trkpt lat="34.9729469" lon="32.8951360">
<ele>958.99</ele>
<time>2015-04-29T15:10:12Z</time>
</trkpt>
<trkpt lat="34.9729879" lon="32.8950927">
<ele>958.07</ele>
<time>2015-04-29T15:10:14Z</time>
</trkpt>
<trkpt lat="34.9730339" lon="32.8950538">
<ele>957.84</ele>
<time>2015-04-29T15:10:16Z</time>
</trkpt>
<trkpt lat="34.9730833" lon="32.8950190">
<ele>959.03</ele>
<time>2015-04-29T15:10:18Z</time>
</trkpt>
<trkpt lat="34.9731370" lon="32.8949873">
<ele>959.58</ele>
<time>2015-04-29T15:10:20Z</time>
</trkpt>
<trkpt lat="34.9731850" lon="32.8949516">
<ele>959.71</ele>
<time>2015-04-29T15:10:22Z</time>
</trkpt>
<trkpt lat="34.9732294" lon="32.8949122">
<ele>959.75</ele>
<time>2015-04-29T15:10:24Z</time>
</trkpt>
<trkpt lat="34.9732572" lon="32.8948599">
<ele>959.76</ele>
<time>2015-04-29T15:10:26Z</time>
</trkpt>
<trkpt lat="34.9732570" lon="32.8947970">
<ele>960.26</ele>
<time>2015-04-29T15:10:28Z</time>
</trkpt>
<trkpt lat="34.9732380" lon="32.8947228">
<ele>960.70</ele>
<time>2015-04-29T15:10:31Z</time>
</trkpt>
<trkpt lat="34.9732159" lon="32.8946742">
<ele>960.74</ele>
<time>2015-04-29T15:10:33Z</time>
</trkpt>
<trkpt lat="34.9731926" lon="32.8946226">
<ele>961.51</ele>
<time>2015-04-29T15:10:35Z</time>
</trkpt>
<trkpt lat="34.9731696" lon="32.8945634">
<ele>962.95</ele>
<time>2015-04-29T15:10:37Z</time>
</trkpt>
<trkpt lat="34.9731488" lon="32.8945024">
<ele>964.81</ele>
<time>2015-04-29T15:10:39Z</time>
</trkpt>
<trkpt lat="34.9731267" lon="32.8944435">
<ele>966.02</ele>
<time>2015-04-29T15:10:41Z</time>
</trkpt>
<trkpt lat="34.9731079" lon="32.8943821">
<ele>965.78</ele>
<time>2015-04-29T15:10:45Z</time>
</trkpt>
<trkpt lat="34.9731093" lon="32.8943077">
<ele>964.89</ele>
<time>2015-04-29T15:10:48Z</time>
</trkpt>
<trkpt lat="34.9731215" lon="32.8942385">
<ele>964.29</ele>
<time>2015-04-29T15:10:50Z</time>
</trkpt>
<trkpt lat="34.9731433" lon="32.8941732">
<ele>964.14</ele>
<time>2015-04-29T15:10:52Z</time>
</trkpt>
<trkpt lat="34.9731742" lon="32.8941166">
<ele>963.86</ele>
<time>2015-04-29T15:10:54Z</time>
</trkpt>
<trkpt lat="34.9732060" lon="32.8940638">
<ele>963.78</ele>
<time>2015-04-29T15:10:56Z</time>
</trkpt>
<trkpt lat="34.9732375" lon="32.8940091">
<ele>963.52</ele>
<time>2015-04-29T15:10:58Z</time>
</trkpt>
<trkpt lat="34.9732699" lon="32.8939529">
<ele>963.45</ele>
<time>2015-04-29T15:11:00Z</time>
</trkpt>
<trkpt lat="34.9733009" lon="32.8938954">
<ele>963.68</ele>
<time>2015-04-29T15:11:02Z</time>
</trkpt>
<trkpt lat="34.9733309" lon="32.8938394">
<ele>963.74</ele>
<time>2015-04-29T15:11:04Z</time>
</trkpt>
<trkpt lat="34.9733579" lon="32.8937818">
<ele>963.76</ele>
<time>2015-04-29T15:11:06Z</time>
</trkpt>
<trkpt lat="34.9733670" lon="32.8937208">
<ele>964.51</ele>
<time>2015-04-29T15:11:08Z</time>
</trkpt>
<trkpt lat="34.9733386" lon="32.8936698">
<ele>963.81</ele>
<time>2015-04-29T15:11:12Z</time>
</trkpt>
<trkpt lat="34.9732890" lon="32.8936823">
<ele>963.27</ele>
<time>2015-04-29T15:11:15Z</time>
</trkpt>
<trkpt lat="34.9732339" lon="32.8937024">
<ele>962.82</ele>
<time>2015-04-29T15:11:18Z</time>
</trkpt>
<trkpt lat="34.9731916" lon="32.8937286">
<ele>962.51</ele>
<time>2015-04-29T15:11:54Z</time>
</trkpt>
<trkpt lat="34.9731478" lon="32.8937515">
<ele>962.85</ele>
<time>2015-04-29T15:11:57Z</time>
</trkpt>
<trkpt lat="34.9730882" lon="32.8937678">
<ele>961.15</ele>
<time>2015-04-29T15:12:00Z</time>
</trkpt>
<trkpt lat="34.9730346" lon="32.8937879">
<ele>961.89</ele>
<time>2015-04-29T15:12:26Z</time>
</trkpt>
<trkpt lat="34.9729767" lon="32.8938203">
<ele>961.29</ele>
<time>2015-04-29T15:12:28Z</time>
</trkpt>
<trkpt lat="34.9729211" lon="32.8938642">
<ele>960.89</ele>
<time>2015-04-29T15:12:30Z</time>
</trkpt>
<trkpt lat="34.9728679" lon="32.8939100">
<ele>960.29</ele>
<time>2015-04-29T15:12:32Z</time>
</trkpt>
<trkpt lat="34.9728134" lon="32.8939474">
<ele>959.14</ele>
<time>2015-04-29T15:12:34Z</time>
</trkpt>
<trkpt lat="34.9727480" lon="32.8939653">
<ele>958.86</ele>
<time>2015-04-29T15:12:36Z</time>
</trkpt>
<trkpt lat="34.9726774" lon="32.8939743">
<ele>959.53</ele>
<time>2015-04-29T15:12:38Z</time>
</trkpt>
<trkpt lat="34.9726036" lon="32.8939771">
<ele>959.70</ele>
<time>2015-04-29T15:12:40Z</time>
</trkpt>
<trkpt lat="34.9725293" lon="32.8939677">
<ele>959.25</ele>
<time>2015-04-29T15:12:42Z</time>
</trkpt>
<trkpt lat="34.9724482" lon="32.8939567">
<ele>958.13</ele>
<time>2015-04-29T15:12:44Z</time>
</trkpt>
<trkpt lat="34.9723209" lon="32.8939341">
<ele>957.85</ele>
<time>2015-04-29T15:12:46Z</time>
</trkpt>
<trkpt lat="34.9722347" lon="32.8939326">
<ele>957.03</ele>
<time>2015-04-29T15:12:48Z</time>
</trkpt>
<trkpt lat="34.9721653" lon="32.8939475">
<ele>956.58</ele>
<time>2015-04-29T15:12:50Z</time>
</trkpt>
<trkpt lat="34.9721107" lon="32.8939849">
<ele>955.96</ele>
<time>2015-04-29T15:12:52Z</time>
</trkpt>
<trkpt lat="34.9720496" lon="32.8940201">
<ele>955.31</ele>
<time>2015-04-29T15:12:54Z</time>
</trkpt>
<trkpt lat="34.9719973" lon="32.8940941">
<ele>953.90</ele>
<time>2015-04-29T15:12:56Z</time>
</trkpt>
<trkpt lat="34.9719367" lon="32.8941603">
<ele>951.04</ele>
<time>2015-04-29T15:12:58Z</time>
</trkpt>
<trkpt lat="34.9718763" lon="32.8942168">
<ele>949.08</ele>
<time>2015-04-29T15:13:00Z</time>
</trkpt>
<trkpt lat="34.9718127" lon="32.8942522">
<ele>948.84</ele>
<time>2015-04-29T15:13:02Z</time>
</trkpt>
<trkpt lat="34.9717472" lon="32.8942796">
<ele>949.53</ele>
<time>2015-04-29T15:13:04Z</time>
</trkpt>
<trkpt lat="34.9716845" lon="32.8942873">
<ele>950.45</ele>
<time>2015-04-29T15:13:06Z</time>
</trkpt>
<trkpt lat="34.9716192" lon="32.8942954">
<ele>950.93</ele>
<time>2015-04-29T15:13:08Z</time>
</trkpt>
<trkpt lat="34.9715516" lon="32.8943235">
<ele>949.80</ele>
<time>2015-04-29T15:13:10Z</time>
</trkpt>
<trkpt lat="34.9714839" lon="32.8943630">
<ele>948.27</ele>
<time>2015-04-29T15:13:12Z</time>
</trkpt>
<trkpt lat="34.9714226" lon="32.8944092">
<ele>946.64</ele>
<time>2015-04-29T15:13:14Z</time>
</trkpt>
<trkpt lat="34.9713515" lon="32.8944414">
<ele>944.98</ele>
<time>2015-04-29T15:13:16Z</time>
</trkpt>
<trkpt lat="34.9712812" lon="32.8944504">
<ele>944.06</ele>
<time>2015-04-29T15:13:18Z</time>
</trkpt>
<trkpt lat="34.9712394" lon="32.8943786">
<ele>942.59</ele>
<time>2015-04-29T15:13:20Z</time>
</trkpt>
<trkpt lat="34.9712231" lon="32.8942890">
<ele>940.97</ele>
<time>2015-04-29T15:13:22Z</time>
</trkpt>
<trkpt lat="34.9712440" lon="32.8942052">
<ele>939.36</ele>
<time>2015-04-29T15:13:23Z</time>
</trkpt>
<trkpt lat="34.9712468" lon="32.8941471">
<ele>938.06</ele>
<time>2015-04-29T15:13:24Z</time>
</trkpt>
<trkpt lat="34.9712682" lon="32.8940794">
<ele>936.91</ele>
<time>2015-04-29T15:13:25Z</time>
</trkpt>
<trkpt lat="34.9712767" lon="32.8940154">
<ele>936.34</ele>
<time>2015-04-29T15:13:26Z</time>
</trkpt>
<trkpt lat="34.9712739" lon="32.8939465">
<ele>935.05</ele>
<time>2015-04-29T15:13:27Z</time>
</trkpt>
<trkpt lat="34.9712738" lon="32.8938805">
<ele>934.90</ele>
<time>2015-04-29T15:13:28Z</time>
</trkpt>
<trkpt lat="34.9712735" lon="32.8938203">
<ele>934.83</ele>
<time>2015-04-29T15:13:29Z</time>
</trkpt>
<trkpt lat="34.9712636" lon="32.8937358">
<ele>933.53</ele>
<time>2015-04-29T15:13:31Z</time>
</trkpt>
<trkpt lat="34.9712246" lon="32.8936676">
<ele>932.95</ele>
<time>2015-04-29T15:13:33Z</time>
</trkpt>
<trkpt lat="34.9711827" lon="32.8936109">
<ele>932.06</ele>
<time>2015-04-29T15:13:35Z</time>
</trkpt>
<trkpt lat="34.9711650" lon="32.8935472">
<ele>931.08</ele>
<time>2015-04-29T15:13:37Z</time>
</trkpt>
<trkpt lat="34.9712069" lon="32.8934974">
<ele>929.09</ele>
<time>2015-04-29T15:13:41Z</time>
</trkpt>
<trkpt lat="34.9712665" lon="32.8935377">
<ele>928.30</ele>
<time>2015-04-29T15:13:44Z</time>
</trkpt>
<trkpt lat="34.9713036" lon="32.8935800">
<ele>927.15</ele>
<time>2015-04-29T15:13:46Z</time>
</trkpt>
<trkpt lat="34.9713438" lon="32.8936278">
<ele>926.86</ele>
<time>2015-04-29T15:13:48Z</time>
</trkpt>
<trkpt lat="34.9713734" lon="32.8936818">
<ele>926.03</ele>
<time>2015-04-29T15:13:50Z</time>
</trkpt>
<trkpt lat="34.9713940" lon="32.8937385">
<ele>925.58</ele>
<time>2015-04-29T15:13:52Z</time>
</trkpt>
<trkpt lat="34.9714356" lon="32.8937803">
<ele>927.21</ele>
<time>2015-04-29T15:13:54Z</time>
</trkpt>
<trkpt lat="34.9715053" lon="32.8937897">
<ele>928.12</ele>
<time>2015-04-29T15:13:56Z</time>
</trkpt>
<trkpt lat="34.9715766" lon="32.8937366">
<ele>928.60</ele>
<time>2015-04-29T15:13:58Z</time>
</trkpt>
<trkpt lat="34.9716227" lon="32.8936486">
<ele>929.18</ele>
<time>2015-04-29T15:13:59Z</time>
</trkpt>
<trkpt lat="34.9716522" lon="32.8936066">
<ele>928.97</ele>
<time>2015-04-29T15:14:00Z</time>
</trkpt>
<trkpt lat="34.9716887" lon="32.8935553">
<ele>928.87</ele>
<time>2015-04-29T15:14:01Z</time>
</trkpt>
<trkpt lat="34.9717282" lon="32.8935073">
<ele>928.81</ele>
<time>2015-04-29T15:14:02Z</time>
</trkpt>
<trkpt lat="34.9717622" lon="32.8934440">
<ele>929.29</ele>
<time>2015-04-29T15:14:03Z</time>
</trkpt>
<trkpt lat="34.9717984" lon="32.8933916">
<ele>929.52</ele>
<time>2015-04-29T15:14:04Z</time>
</trkpt>
<trkpt lat="34.9718436" lon="32.8933495">
<ele>929.64</ele>
<time>2015-04-29T15:14:05Z</time>
</trkpt>
<trkpt lat="34.9718889" lon="32.8933089">
<ele>929.20</ele>
<time>2015-04-29T15:14:06Z</time>
</trkpt>
<trkpt lat="34.9719392" lon="32.8932760">
<ele>928.98</ele>
<time>2015-04-29T15:14:07Z</time>
</trkpt>
<trkpt lat="34.9719989" lon="32.8932316">
<ele>929.37</ele>
<time>2015-04-29T15:14:08Z</time>
</trkpt>
<trkpt lat="34.9720502" lon="32.8931940">
<ele>929.57</ele>
<time>2015-04-29T15:14:09Z</time>
</trkpt>
<trkpt lat="34.9721121" lon="32.8931591">
<ele>929.71</ele>
<time>2015-04-29T15:14:11Z</time>
</trkpt>
<trkpt lat="34.9721673" lon="32.8931364">
<ele>928.25</ele>
<time>2015-04-29T15:14:13Z</time>
</trkpt>
<trkpt lat="34.9722162" lon="32.8931278">
<ele>926.88</ele>
<time>2015-04-29T15:14:15Z</time>
</trkpt>
<trkpt lat="34.9722862" lon="32.8931015">
<ele>924.54</ele>
<time>2015-04-29T15:14:17Z</time>
</trkpt>
<trkpt lat="34.9723324" lon="32.8930946">
<ele>923.15</ele>
<time>2015-04-29T15:14:18Z</time>
</trkpt>
<trkpt lat="34.9723804" lon="32.8930676">
<ele>921.96</ele>
<time>2015-04-29T15:14:19Z</time>
</trkpt>
<trkpt lat="34.9724238" lon="32.8930339">
<ele>920.36</ele>
<time>2015-04-29T15:14:20Z</time>
</trkpt>
<trkpt lat="34.9724613" lon="32.8930007">
<ele>919.56</ele>
<time>2015-04-29T15:14:21Z</time>
</trkpt>
<trkpt lat="34.9724748" lon="32.8929444">
<ele>918.66</ele>
<time>2015-04-29T15:14:22Z</time>
</trkpt>
<trkpt lat="34.9724754" lon="32.8928674">
<ele>916.48</ele>
<time>2015-04-29T15:14:24Z</time>
</trkpt>
<trkpt lat="34.9724227" lon="32.8927966">
<ele>915.94</ele>
<time>2015-04-29T15:14:26Z</time>
</trkpt>
<trkpt lat="34.9723626" lon="32.8927378">
<ele>915.06</ele>
<time>2015-04-29T15:14:28Z</time>
</trkpt>
<trkpt lat="34.9722944" lon="32.8926791">
<ele>914.08</ele>
<time>2015-04-29T15:14:30Z</time>
</trkpt>
<trkpt lat="34.9722317" lon="32.8926122">
<ele>912.59</ele>
<time>2015-04-29T15:14:32Z</time>
</trkpt>
<trkpt lat="34.9721939" lon="32.8925546">
<ele>909.97</ele>
<time>2015-04-29T15:14:34Z</time>
</trkpt>
<trkpt lat="34.9721752" lon="32.8924906">
<ele>907.31</ele>
<time>2015-04-29T15:14:36Z</time>
</trkpt>
<trkpt lat="34.9721921" lon="32.8924056">
<ele>905.40</ele>
<time>2015-04-29T15:14:38Z</time>
</trkpt>
<trkpt lat="34.9722527" lon="32.8923228">
<ele>905.08</ele>
<time>2015-04-29T15:14:39Z</time>
</trkpt>
<trkpt lat="34.9722797" lon="32.8922509">
<ele>904.42</ele>
<time>2015-04-29T15:14:40Z</time>
</trkpt>
<trkpt lat="34.9723037" lon="32.8921946">
<ele>904.09</ele>
<time>2015-04-29T15:14:41Z</time>
</trkpt>
<trkpt lat="34.9723413" lon="32.8921532">
<ele>903.42</ele>
<time>2015-04-29T15:14:42Z</time>
</trkpt>
<trkpt lat="34.9723870" lon="32.8921199">
<ele>903.59</ele>
<time>2015-04-29T15:14:43Z</time>
</trkpt>
<trkpt lat="34.9724297" lon="32.8920930">
<ele>903.68</ele>
<time>2015-04-29T15:14:44Z</time>
</trkpt>
<trkpt lat="34.9724783" lon="32.8920957">
<ele>903.22</ele>
<time>2015-04-29T15:14:45Z</time>
</trkpt>
<trkpt lat="34.9725318" lon="32.8921275">
<ele>902.49</ele>
<time>2015-04-29T15:14:46Z</time>
</trkpt>
<trkpt lat="34.9725890" lon="32.8921343">
<ele>902.12</ele>
<time>2015-04-29T15:14:47Z</time>
</trkpt>
<trkpt lat="34.9726344" lon="32.8921430">
<ele>901.94</ele>
<time>2015-04-29T15:14:48Z</time>
</trkpt>
<trkpt lat="34.9726847" lon="32.8921213">
<ele>901.85</ele>
<time>2015-04-29T15:14:49Z</time>
</trkpt>
<trkpt lat="34.9727358" lon="32.8920699">
<ele>900.81</ele>
<time>2015-04-29T15:14:50Z</time>
</trkpt>
<trkpt lat="34.9727809" lon="32.8920185">
<ele>900.28</ele>
<time>2015-04-29T15:14:51Z</time>
</trkpt>
<trkpt lat="34.9728149" lon="32.8919716">
<ele>900.02</ele>
<time>2015-04-29T15:14:52Z</time>
</trkpt>
<trkpt lat="34.9728508" lon="32.8919008">
<ele>899.39</ele>
<time>2015-04-29T15:14:53Z</time>
</trkpt>
<trkpt lat="34.9728744" lon="32.8918428">
<ele>899.08</ele>
<time>2015-04-29T15:14:54Z</time>
</trkpt>
<trkpt lat="34.9729084" lon="32.8917762">
<ele>898.92</ele>
<time>2015-04-29T15:14:55Z</time>
</trkpt>
<trkpt lat="34.9729274" lon="32.8916991">
<ele>898.34</ele>
<time>2015-04-29T15:14:56Z</time>
</trkpt>
<trkpt lat="34.9729620" lon="32.8915887">
<ele>896.40</ele>
<time>2015-04-29T15:14:58Z</time>
</trkpt>
<trkpt lat="34.9730013" lon="32.8915226">
<ele>895.58</ele>
<time>2015-04-29T15:14:59Z</time>
</trkpt>
<trkpt lat="34.9730438" lon="32.8914617">
<ele>894.67</ele>
<time>2015-04-29T15:15:00Z</time>
</trkpt>
<trkpt lat="34.9730927" lon="32.8914035">
<ele>893.22</ele>
<time>2015-04-29T15:15:01Z</time>
</trkpt>
<trkpt lat="34.9731435" lon="32.8913535">
<ele>892.49</ele>
<time>2015-04-29T15:15:02Z</time>
</trkpt>
<trkpt lat="34.9731802" lon="32.8912877">
<ele>892.62</ele>
<time>2015-04-29T15:15:03Z</time>
</trkpt>
<trkpt lat="34.9732314" lon="32.8912102">
<ele>892.69</ele>
<time>2015-04-29T15:15:04Z</time>
</trkpt>
<trkpt lat="34.9732657" lon="32.8911340">
<ele>893.23</ele>
<time>2015-04-29T15:15:05Z</time>
</trkpt>
<trkpt lat="34.9732974" lon="32.8910617">
<ele>893.49</ele>
<time>2015-04-29T15:15:06Z</time>
</trkpt>
<trkpt lat="34.9733279" lon="32.8909979">
<ele>893.63</ele>
<time>2015-04-29T15:15:07Z</time>
</trkpt>
<trkpt lat="34.9733756" lon="32.8908857">
<ele>892.48</ele>
<time>2015-04-29T15:15:09Z</time>
</trkpt>
<trkpt lat="34.9733851" lon="32.8908314">
<ele>891.62</ele>
<time>2015-04-29T15:15:10Z</time>
</trkpt>
<trkpt lat="34.9733986" lon="32.8907727">
<ele>890.69</ele>
<time>2015-04-29T15:15:11Z</time>
</trkpt>
<trkpt lat="34.9734065" lon="32.8907053">
<ele>889.22</ele>
<time>2015-04-29T15:15:12Z</time>
</trkpt>
<trkpt lat="34.9734253" lon="32.8906425">
<ele>887.99</ele>
<time>2015-04-29T15:15:13Z</time>
</trkpt>
<trkpt lat="34.9734546" lon="32.8905661">
<ele>887.38</ele>
<time>2015-04-29T15:15:14Z</time>
</trkpt>
<trkpt lat="34.9734838" lon="32.8904990">
<ele>887.07</ele>
<time>2015-04-29T15:15:15Z</time>
</trkpt>
<trkpt lat="34.9735058" lon="32.8904387">
<ele>886.91</ele>
<time>2015-04-29T15:15:16Z</time>
</trkpt>
<trkpt lat="34.9735373" lon="32.8903618">
<ele>887.34</ele>
<time>2015-04-29T15:15:17Z</time>
</trkpt>
<trkpt lat="34.9735726" lon="32.8902939">
<ele>887.55</ele>
<time>2015-04-29T15:15:18Z</time>
</trkpt>
<trkpt lat="34.9736181" lon="32.8902349">
<ele>886.65</ele>
<time>2015-04-29T15:15:19Z</time>
</trkpt>
<trkpt lat="34.9736523" lon="32.8901615">
<ele>885.21</ele>
<time>2015-04-29T15:15:20Z</time>
</trkpt>
<trkpt lat="34.9736888" lon="32.8900957">
<ele>883.98</ele>
<time>2015-04-29T15:15:21Z</time>
</trkpt>
<trkpt lat="34.9737256" lon="32.8900350">
<ele>882.37</ele>
<time>2015-04-29T15:15:22Z</time>
</trkpt>
<trkpt lat="34.9737545" lon="32.8899736">
<ele>881.07</ele>
<time>2015-04-29T15:15:23Z</time>
</trkpt>
<trkpt lat="34.9737800" lon="32.8899140">
<ele>879.41</ele>
<time>2015-04-29T15:15:24Z</time>
</trkpt>
<trkpt lat="34.9738086" lon="32.8898659">
<ele>878.59</ele>
<time>2015-04-29T15:15:25Z</time>
</trkpt>
<trkpt lat="34.9738464" lon="32.8898264">
<ele>877.67</ele>
<time>2015-04-29T15:15:26Z</time>
</trkpt>
<trkpt lat="34.9738926" lon="32.8897907">
<ele>876.72</ele>
<time>2015-04-29T15:15:27Z</time>
</trkpt>
<trkpt lat="34.9739534" lon="32.8897242">
<ele>875.74</ele>
<time>2015-04-29T15:15:28Z</time>
</trkpt>
<trkpt lat="34.9739940" lon="32.8896641">
<ele>874.75</ele>
<time>2015-04-29T15:15:29Z</time>
</trkpt>
<trkpt lat="34.9740384" lon="32.8896156">
<ele>873.75</ele>
<time>2015-04-29T15:15:30Z</time>
</trkpt>
<trkpt lat="34.9740861" lon="32.8895755">
<ele>872.76</ele>
<time>2015-04-29T15:15:31Z</time>
</trkpt>
<trkpt lat="34.9741394" lon="32.8895496">
<ele>871.26</ele>
<time>2015-04-29T15:15:32Z</time>
</trkpt>
<trkpt lat="34.9741849" lon="32.8894997">
<ele>870.01</ele>
<time>2015-04-29T15:15:33Z</time>
</trkpt>
<trkpt lat="34.9742410" lon="32.8894740">
<ele>868.88</ele>
<time>2015-04-29T15:15:34Z</time>
</trkpt>
<trkpt lat="34.9742910" lon="32.8894539">
<ele>868.32</ele>
<time>2015-04-29T15:15:35Z</time>
</trkpt>
<trkpt lat="34.9743363" lon="32.8894364">
<ele>868.04</ele>
<time>2015-04-29T15:15:36Z</time>
</trkpt>
<trkpt lat="34.9743965" lon="32.8894344">
<ele>867.40</ele>
<time>2015-04-29T15:15:37Z</time>
</trkpt>
<trkpt lat="34.9744509" lon="32.8894523">
<ele>867.58</ele>
<time>2015-04-29T15:15:38Z</time>
</trkpt>
<trkpt lat="34.9744978" lon="32.8894748">
<ele>867.67</ele>
<time>2015-04-29T15:15:39Z</time>
</trkpt>
<trkpt lat="34.9745610" lon="32.8895428">
<ele>866.72</ele>
<time>2015-04-29T15:15:40Z</time>
</trkpt>
<trkpt lat="34.9746220" lon="32.8896183">
<ele>865.74</ele>
<time>2015-04-29T15:15:41Z</time>
</trkpt>
<trkpt lat="34.9746764" lon="32.8896871">
<ele>864.75</ele>
<time>2015-04-29T15:15:42Z</time>
</trkpt>
<trkpt lat="34.9747244" lon="32.8897563">
<ele>864.25</ele>
<time>2015-04-29T15:15:43Z</time>
</trkpt>
<trkpt lat="34.9747796" lon="32.8898252">
<ele>863.51</ele>
<time>2015-04-29T15:15:44Z</time>
</trkpt>
<trkpt lat="34.9748282" lon="32.8899009">
<ele>863.13</ele>
<time>2015-04-29T15:15:45Z</time>
</trkpt>
<trkpt lat="34.9748859" lon="32.8899606">
<ele>861.95</ele>
<time>2015-04-29T15:15:46Z</time>
</trkpt>
<trkpt lat="34.9749407" lon="32.8900190">
<ele>860.85</ele>
<time>2015-04-29T15:15:47Z</time>
</trkpt>
<trkpt lat="34.9749976" lon="32.8900680">
<ele>859.81</ele>
<time>2015-04-29T15:15:48Z</time>
</trkpt>
<trkpt lat="34.9750703" lon="32.8901056">
<ele>858.78</ele>
<time>2015-04-29T15:15:49Z</time>
</trkpt>
<trkpt lat="34.9751386" lon="32.8901416">
<ele>857.27</ele>
<time>2015-04-29T15:15:50Z</time>
</trkpt>
<trkpt lat="34.9752024" lon="32.8901780">
<ele>856.02</ele>
<time>2015-04-29T15:15:51Z</time>
</trkpt>
<trkpt lat="34.9752610" lon="32.8902068">
<ele>854.39</ele>
<time>2015-04-29T15:15:52Z</time>
</trkpt>
<trkpt lat="34.9753182" lon="32.8902409">
<ele>853.07</ele>
<time>2015-04-29T15:15:53Z</time>
</trkpt>
<trkpt lat="34.9753764" lon="32.8902879">
<ele>852.92</ele>
<time>2015-04-29T15:15:54Z</time>
</trkpt>
<trkpt lat="34.9754321" lon="32.8903474">
<ele>852.34</ele>
<time>2015-04-29T15:15:55Z</time>
</trkpt>
<trkpt lat="34.9754958" lon="32.8904126">
<ele>851.55</ele>
<time>2015-04-29T15:15:56Z</time>
</trkpt>
<trkpt lat="34.9755450" lon="32.8904654">
<ele>851.15</ele>
<time>2015-04-29T15:15:57Z</time>
</trkpt>
<trkpt lat="34.9755900" lon="32.8905192">
<ele>850.46</ele>
<time>2015-04-29T15:15:58Z</time>
</trkpt>
<trkpt lat="34.9756406" lon="32.8905635">
<ele>849.61</ele>
<time>2015-04-29T15:15:59Z</time>
</trkpt>
<trkpt lat="34.9757040" lon="32.8905933">
<ele>848.68</ele>
<time>2015-04-29T15:16:00Z</time>
</trkpt>
<trkpt lat="34.9757650" lon="32.8906133">
<ele>847.72</ele>
<time>2015-04-29T15:16:01Z</time>
</trkpt>
<trkpt lat="34.9758294" lon="32.8906110">
<ele>847.24</ele>
<time>2015-04-29T15:16:02Z</time>
</trkpt>
<trkpt lat="34.9758877" lon="32.8905501">
<ele>846.88</ele>
<time>2015-04-29T15:16:04Z</time>
</trkpt>
<trkpt lat="34.9759374" lon="32.8904779">
<ele>848.04</ele>
<time>2015-04-29T15:16:06Z</time>
</trkpt>
<trkpt lat="34.9759717" lon="32.8904341">
<ele>847.90</ele>
<time>2015-04-29T15:16:07Z</time>
</trkpt>
<trkpt lat="34.9760024" lon="32.8903930">
<ele>847.83</ele>
<time>2015-04-29T15:16:08Z</time>
</trkpt>
<trkpt lat="34.9760421" lon="32.8903097">
<ele>847.78</ele>
<time>2015-04-29T15:16:10Z</time>
</trkpt>
<trkpt lat="34.9760789" lon="32.8902766">
<ele>847.77</ele>
<time>2015-04-29T15:16:11Z</time>
</trkpt>
<trkpt lat="34.9761247" lon="32.8902645">
<ele>846.26</ele>
<time>2015-04-29T15:16:12Z</time>
</trkpt>
<trkpt lat="34.9761748" lon="32.8902544">
<ele>845.01</ele>
<time>2015-04-29T15:16:13Z</time>
</trkpt>
<trkpt lat="34.9762241" lon="32.8902657">
<ele>844.39</ele>
<time>2015-04-29T15:16:14Z</time>
</trkpt>
<trkpt lat="34.9762814" lon="32.8902852">
<ele>844.07</ele>
<time>2015-04-29T15:16:15Z</time>
</trkpt>
<trkpt lat="34.9763608" lon="32.8903397">
<ele>843.84</ele>
<time>2015-04-29T15:16:17Z</time>
</trkpt>
<trkpt lat="34.9764280" lon="32.8903993">
<ele>842.53</ele>
<time>2015-04-29T15:16:19Z</time>
</trkpt>
<trkpt lat="34.9764627" lon="32.8904349">
<ele>841.64</ele>
<time>2015-04-29T15:16:20Z</time>
</trkpt>
<trkpt lat="34.9764990" lon="32.8904684">
<ele>840.20</ele>
<time>2015-04-29T15:16:21Z</time>
</trkpt>
<trkpt lat="34.9765816" lon="32.8905255">
<ele>837.87</ele>
<time>2015-04-29T15:16:23Z</time>
</trkpt>
<trkpt lat="34.9766375" lon="32.8905503">
<ele>837.32</ele>
<time>2015-04-29T15:16:24Z</time>
</trkpt>
<trkpt lat="34.9766907" lon="32.8905788">
<ele>836.54</ele>
<time>2015-04-29T15:16:25Z</time>
</trkpt>
<trkpt lat="34.9767540" lon="32.8906110">
<ele>836.15</ele>
<time>2015-04-29T15:16:26Z</time>
</trkpt>
<trkpt lat="34.9768151" lon="32.8906340">
<ele>835.95</ele>
<time>2015-04-29T15:16:27Z</time>
</trkpt>
<trkpt lat="34.9768929" lon="32.8906592">
<ele>835.36</ele>
<time>2015-04-29T15:16:28Z</time>
</trkpt>
<trkpt lat="34.9769783" lon="32.8906792">
<ele>834.56</ele>
<time>2015-04-29T15:16:29Z</time>
</trkpt>
<trkpt lat="34.9770549" lon="32.8906966">
<ele>834.16</ele>
<time>2015-04-29T15:16:30Z</time>
</trkpt>
<trkpt lat="34.9771214" lon="32.8907197">
<ele>833.96</ele>
<time>2015-04-29T15:16:31Z</time>
</trkpt>
<trkpt lat="34.9771844" lon="32.8907360">
<ele>832.86</ele>
<time>2015-04-29T15:16:32Z</time>
</trkpt>
<trkpt lat="34.9772342" lon="32.8907385">
<ele>832.31</ele>
<time>2015-04-29T15:16:33Z</time>
</trkpt>
<trkpt lat="34.9772791" lon="32.8907144">
<ele>831.53</ele>
<time>2015-04-29T15:16:34Z</time>
</trkpt>
<trkpt lat="34.9773213" lon="32.8906705">
<ele>831.15</ele>
<time>2015-04-29T15:16:35Z</time>
</trkpt>
<trkpt lat="34.9773641" lon="32.8906052">
<ele>830.45</ele>
<time>2015-04-29T15:16:36Z</time>
</trkpt>
<trkpt lat="34.9773983" lon="32.8905425">
<ele>829.11</ele>
<time>2015-04-29T15:16:37Z</time>
</trkpt>
<trkpt lat="34.9774298" lon="32.8904734">
<ele>827.43</ele>
<time>2015-04-29T15:16:38Z</time>
</trkpt>
<trkpt lat="34.9774692" lon="32.8904089">
<ele>826.10</ele>
<time>2015-04-29T15:16:39Z</time>
</trkpt>
<trkpt lat="34.9775135" lon="32.8903540">
<ele>824.93</ele>
<time>2015-04-29T15:16:40Z</time>
</trkpt>
<trkpt lat="34.9775634" lon="32.8903229">
<ele>824.34</ele>
<time>2015-04-29T15:16:41Z</time>
</trkpt>
<trkpt lat="34.9776109" lon="32.8902998">
<ele>823.05</ele>
<time>2015-04-29T15:16:42Z</time>
</trkpt>
<trkpt lat="34.9776682" lon="32.8902371">
<ele>822.08</ele>
<time>2015-04-29T15:16:44Z</time>
</trkpt>
<trkpt lat="34.9777017" lon="32.8901869">
<ele>821.34</ele>
<time>2015-04-29T15:16:46Z</time>
</trkpt>
<trkpt lat="34.9776935" lon="32.8901329">
<ele>822.76</ele>
<time>2015-04-29T15:17:18Z</time>
</trkpt>
<trkpt lat="34.9777330" lon="32.8900981">
<ele>822.51</ele>
<time>2015-04-29T15:17:24Z</time>
</trkpt>
<trkpt lat="34.9777728" lon="32.8900626">
<ele>821.35</ele>
<time>2015-04-29T15:17:27Z</time>
</trkpt>
<trkpt lat="34.9778264" lon="32.8900038">
<ele>819.58</ele>
<time>2015-04-29T15:17:30Z</time>
</trkpt>
<trkpt lat="34.9778901" lon="32.8899562">
<ele>817.72</ele>
<time>2015-04-29T15:17:32Z</time>
</trkpt>
<trkpt lat="34.9779694" lon="32.8899338">
<ele>814.75</ele>
<time>2015-04-29T15:17:34Z</time>
</trkpt>
<trkpt lat="34.9780548" lon="32.8899227">
<ele>813.51</ele>
<time>2015-04-29T15:17:36Z</time>
</trkpt>
<trkpt lat="34.9781300" lon="32.8899427">
<ele>812.13</ele>
<time>2015-04-29T15:17:37Z</time>
</trkpt>
<trkpt lat="34.9781776" lon="32.8899517">
<ele>810.45</ele>
<time>2015-04-29T15:17:38Z</time>
</trkpt>
<trkpt lat="34.9782267" lon="32.8899581">
<ele>809.60</ele>
<time>2015-04-29T15:17:39Z</time>
</trkpt>
<trkpt lat="34.9782755" lon="32.8899786">
<ele>807.68</ele>
<time>2015-04-29T15:17:40Z</time>
</trkpt>
<trkpt lat="34.9783546" lon="32.8900132">
<ele>805.99</ele>
<time>2015-04-29T15:17:42Z</time>
</trkpt>
<trkpt lat="34.9784334" lon="32.8900500">
<ele>805.07</ele>
<time>2015-04-29T15:17:44Z</time>
</trkpt>
<trkpt lat="34.9784793" lon="32.8900735">
<ele>804.91</ele>
<time>2015-04-29T15:17:45Z</time>
</trkpt>
<trkpt lat="34.9785692" lon="32.8901013">
<ele>804.80</ele>
<time>2015-04-29T15:17:47Z</time>
</trkpt>
<trkpt lat="34.9786207" lon="32.8901133">
<ele>804.78</ele>
<time>2015-04-29T15:17:48Z</time>
</trkpt>
<trkpt lat="34.9787015" lon="32.8901384">
<ele>805.51</ele>
<time>2015-04-29T15:17:50Z</time>
</trkpt>
<trkpt lat="34.9787726" lon="32.8901614">
<ele>804.95</ele>
<time>2015-04-29T15:17:52Z</time>
</trkpt>
<trkpt lat="34.9788110" lon="32.8901224">
<ele>806.03</ele>
<time>2015-04-29T15:17:55Z</time>
</trkpt>
<trkpt lat="34.9788362" lon="32.8900674">
<ele>804.58</ele>
<time>2015-04-29T15:17:57Z</time>
</trkpt>
<trkpt lat="34.9788454" lon="32.8899995">
<ele>803.36</ele>
<time>2015-04-29T15:18:00Z</time>
</trkpt>
<trkpt lat="34.9788498" lon="32.8899381">
<ele>802.96</ele>
<time>2015-04-29T15:18:03Z</time>
</trkpt>
<trkpt lat="34.9788642" lon="32.8898681">
<ele>801.59</ele>
<time>2015-04-29T15:18:07Z</time>
</trkpt>
<trkpt lat="34.9788942" lon="32.8898206">
<ele>801.74</ele>
<time>2015-04-29T15:18:10Z</time>
</trkpt>
<trkpt lat="34.9789304" lon="32.8897730">
<ele>801.88</ele>
<time>2015-04-29T15:18:13Z</time>
</trkpt>
<trkpt lat="34.9789438" lon="32.8897136">
<ele>802.64</ele>
<time>2015-04-29T15:18:17Z</time>
</trkpt>
<trkpt lat="34.9789900" lon="32.8897124">
<ele>807.31</ele>
<time>2015-04-29T15:18:32Z</time>
</trkpt>
<trkpt lat="34.9790255" lon="32.8896668">
<ele>808.61</ele>
<time>2015-04-29T15:18:36Z</time>
</trkpt>
<trkpt lat="34.9790539" lon="32.8896163">
<ele>810.24</ele>
<time>2015-04-29T15:18:39Z</time>
</trkpt>
<trkpt lat="34.9790807" lon="32.8895690">
<ele>810.45</ele>
<time>2015-04-29T15:18:42Z</time>
</trkpt>
<trkpt lat="34.9791003" lon="32.8895140">
<ele>809.97</ele>
<time>2015-04-29T15:18:45Z</time>
</trkpt>
<trkpt lat="34.9791192" lon="32.8894548">
<ele>807.21</ele>
<time>2015-04-29T15:18:49Z</time>
</trkpt>
<trkpt lat="34.9791195" lon="32.8893998">
<ele>806.34</ele>
<time>2015-04-29T15:18:54Z</time>
</trkpt>
<trkpt lat="34.9791171" lon="32.8893368">
<ele>806.75</ele>
<time>2015-04-29T15:19:00Z</time>
</trkpt>
<trkpt lat="34.9790812" lon="32.8892989">
<ele>806.76</ele>
<time>2015-04-29T15:19:04Z</time>
</trkpt>
<trkpt lat="34.9790415" lon="32.8892656">
<ele>806.76</ele>
<time>2015-04-29T15:19:08Z</time>
</trkpt>
<trkpt lat="34.9790046" lon="32.8892299">
<ele>808.14</ele>
<time>2015-04-29T15:19:12Z</time>
</trkpt>
<trkpt lat="34.9789613" lon="32.8892005">
<ele>809.60</ele>
<time>2015-04-29T15:19:16Z</time>
</trkpt>
<trkpt lat="34.9789132" lon="32.8891629">
<ele>808.81</ele>
<time>2015-04-29T15:19:20Z</time>
</trkpt>
<trkpt lat="34.9788659" lon="32.8891389">
<ele>809.26</ele>
<time>2015-04-29T15:19:24Z</time>
</trkpt>
<trkpt lat="34.9788182" lon="32.8891104">
<ele>808.84</ele>
<time>2015-04-29T15:19:29Z</time>
</trkpt>
<trkpt lat="34.9787812" lon="32.8890667">
<ele>808.95</ele>
<time>2015-04-29T15:19:34Z</time>
</trkpt>
<trkpt lat="34.9787460" lon="32.8890282">
<ele>812.96</ele>
<time>2015-04-29T15:19:38Z</time>
</trkpt>
<trkpt lat="34.9787034" lon="32.8890025">
<ele>816.33</ele>
<time>2015-04-29T15:19:42Z</time>
</trkpt>
<trkpt lat="34.9786899" lon="32.8889398">
<ele>816.89</ele>
<time>2015-04-29T15:20:31Z</time>
</trkpt>
<trkpt lat="34.9786444" lon="32.8889002">
<ele>817.52</ele>
<time>2015-04-29T15:20:35Z</time>
</trkpt>
<trkpt lat="34.9785915" lon="32.8888748">
<ele>816.81</ele>
<time>2015-04-29T15:20:39Z</time>
</trkpt>
<trkpt lat="34.9785484" lon="32.8888292">
<ele>817.51</ele>
<time>2015-04-29T15:20:43Z</time>
</trkpt>
<trkpt lat="34.9785032" lon="32.8887921">
<ele>816.99</ele>
<time>2015-04-29T15:20:47Z</time>
</trkpt>
<trkpt lat="34.9784658" lon="32.8887446">
<ele>816.09</ele>
<time>2015-04-29T15:20:51Z</time>
</trkpt>
<trkpt lat="34.9784327" lon="32.8886912">
<ele>815.84</ele>
<time>2015-04-29T15:20:55Z</time>
</trkpt>
<trkpt lat="34.9783967" lon="32.8886403">
<ele>815.77</ele>
<time>2015-04-29T15:20:59Z</time>
</trkpt>
<trkpt lat="34.9783787" lon="32.8885757">
<ele>816.64</ele>
<time>2015-04-29T15:21:03Z</time>
</trkpt>
<trkpt lat="34.9783665" lon="32.8885103">
<ele>817.25</ele>
<time>2015-04-29T15:21:07Z</time>
</trkpt>
<trkpt lat="34.9783588" lon="32.8884444">
<ele>817.73</ele>
<time>2015-04-29T15:21:11Z</time>
</trkpt>
<trkpt lat="34.9783531" lon="32.8883831">
<ele>817.95</ele>
<time>2015-04-29T15:21:15Z</time>
</trkpt>
<trkpt lat="34.9783484" lon="32.8883208">
<ele>816.83</ele>
<time>2015-04-29T15:21:19Z</time>
</trkpt>
<trkpt lat="34.9783353" lon="32.8882582">
<ele>817.51</ele>
<time>2015-04-29T15:21:23Z</time>
</trkpt>
<trkpt lat="34.9783281" lon="32.8881966">
<ele>816.87</ele>
<time>2015-04-29T15:21:27Z</time>
</trkpt>
<trkpt lat="34.9783190" lon="32.8881367">
<ele>818.14</ele>
<time>2015-04-29T15:21:31Z</time>
</trkpt>
<trkpt lat="34.9783160" lon="32.8880715">
<ele>817.85</ele>
<time>2015-04-29T15:21:35Z</time>
</trkpt>
<trkpt lat="34.9783120" lon="32.8880068">
<ele>817.77</ele>
<time>2015-04-29T15:21:39Z</time>
</trkpt>
<trkpt lat="34.9783018" lon="32.8879451">
<ele>819.45</ele>
<time>2015-04-29T15:21:43Z</time>
</trkpt>
<trkpt lat="34.9782772" lon="32.8878930">
<ele>819.49</ele>
<time>2015-04-29T15:21:47Z</time>
</trkpt>
<trkpt lat="34.9782438" lon="32.8878404">
<ele>818.81</ele>
<time>2015-04-29T15:21:52Z</time>
</trkpt>
<trkpt lat="34.9782432" lon="32.8877762">
<ele>818.71</ele>
<time>2015-04-29T15:21:58Z</time>
</trkpt>
<trkpt lat="34.9782225" lon="32.8877152">
<ele>820.20</ele>
<time>2015-04-29T15:22:03Z</time>
</trkpt>
<trkpt lat="34.9781688" lon="32.8877078">
<ele>819.77</ele>
<time>2015-04-29T15:22:08Z</time>
</trkpt>
<trkpt lat="34.9781203" lon="32.8877120">
<ele>819.76</ele>
<time>2015-04-29T15:22:13Z</time>
</trkpt>
<trkpt lat="34.9780703" lon="32.8877311">
<ele>820.70</ele>
<time>2015-04-29T15:22:18Z</time>
</trkpt>
<trkpt lat="34.9780280" lon="32.8877722">
<ele>821.26</ele>
<time>2015-04-29T15:22:23Z</time>
</trkpt>
<trkpt lat="34.9779961" lon="32.8878116">
<ele>822.17</ele>
<time>2015-04-29T15:22:27Z</time>
</trkpt>
<trkpt lat="34.9779608" lon="32.8878474">
<ele>822.72</ele>
<time>2015-04-29T15:22:31Z</time>
</trkpt>
<trkpt lat="34.9779337" lon="32.8878939">
<ele>822.76</ele>
<time>2015-04-29T15:22:35Z</time>
</trkpt>
<trkpt lat="34.9778986" lon="32.8879477">
<ele>822.76</ele>
<time>2015-04-29T15:22:40Z</time>
</trkpt>
<trkpt lat="34.9778775" lon="32.8879971">
<ele>822.76</ele>
<time>2015-04-29T15:22:44Z</time>
</trkpt>
<trkpt lat="34.9778507" lon="32.8880490">
<ele>823.64</ele>
<time>2015-04-29T15:22:48Z</time>
</trkpt>
<trkpt lat="34.9778280" lon="32.8881034">
<ele>824.25</ele>
<time>2015-04-29T15:22:52Z</time>
</trkpt>
<trkpt lat="34.9777953" lon="32.8881524">
<ele>824.73</ele>
<time>2015-04-29T15:22:56Z</time>
</trkpt>
<trkpt lat="34.9777638" lon="32.8882041">
<ele>824.76</ele>
<time>2015-04-29T15:23:00Z</time>
</trkpt>
<trkpt lat="34.9777237" lon="32.8882429">
<ele>825.63</ele>
<time>2015-04-29T15:23:04Z</time>
</trkpt>
<trkpt lat="34.9776815" lon="32.8882783">
<ele>826.56</ele>
<time>2015-04-29T15:23:08Z</time>
</trkpt>
<trkpt lat="34.9776375" lon="32.8883048">
<ele>828.19</ele>
<time>2015-04-29T15:23:12Z</time>
</trkpt>
<trkpt lat="34.9775838" lon="32.8883156">
<ele>828.24</ele>
<time>2015-04-29T15:23:17Z</time>
</trkpt>
<trkpt lat="34.9775373" lon="32.8883226">
<ele>828.60</ele>
<time>2015-04-29T15:23:21Z</time>
</trkpt>
<trkpt lat="34.9774915" lon="32.8883367">
<ele>828.31</ele>
<time>2015-04-29T15:23:25Z</time>
</trkpt>
<trkpt lat="34.9774427" lon="32.8883396">
<ele>829.67</ele>
<time>2015-04-29T15:23:29Z</time>
</trkpt>
<trkpt lat="34.9773910" lon="32.8883448">
<ele>830.25</ele>
<time>2015-04-29T15:23:33Z</time>
</trkpt>
<trkpt lat="34.9773365" lon="32.8883440">
<ele>831.67</ele>
<time>2015-04-29T15:23:37Z</time>
</trkpt>
<trkpt lat="34.9772852" lon="32.8883479">
<ele>832.75</ele>
<time>2015-04-29T15:23:41Z</time>
</trkpt>
<trkpt lat="34.9772348" lon="32.8883655">
<ele>832.76</ele>
<time>2015-04-29T15:23:45Z</time>
</trkpt>
<trkpt lat="34.9771923" lon="32.8883861">
<ele>833.63</ele>
<time>2015-04-29T15:23:49Z</time>
</trkpt>
<trkpt lat="34.9771495" lon="32.8884224">
<ele>834.00</ele>
<time>2015-04-29T15:23:53Z</time>
</trkpt>
<trkpt lat="34.9771091" lon="32.8884513">
<ele>834.15</ele>
<time>2015-04-29T15:23:57Z</time>
</trkpt>
<trkpt lat="34.9770688" lon="32.8884821">
<ele>834.28</ele>
<time>2015-04-29T15:24:01Z</time>
</trkpt>
<trkpt lat="34.9770305" lon="32.8885243">
<ele>835.71</ele>
<time>2015-04-29T15:24:06Z</time>
</trkpt>
<trkpt lat="34.9769979" lon="32.8885669">
<ele>837.44</ele>
<time>2015-04-29T15:24:10Z</time>
</trkpt>
<trkpt lat="34.9769640" lon="32.8886045">
<ele>836.37</ele>
<time>2015-04-29T15:24:14Z</time>
</trkpt>
<trkpt lat="34.9769131" lon="32.8886306">
<ele>837.55</ele>
<time>2015-04-29T15:24:18Z</time>
</trkpt>
<trkpt lat="34.9768740" lon="32.8886639">
<ele>841.06</ele>
<time>2015-04-29T15:24:22Z</time>
</trkpt>
<trkpt lat="34.9768316" lon="32.8886965">
<ele>841.09</ele>
<time>2015-04-29T15:24:26Z</time>
</trkpt>
<trkpt lat="34.9767915" lon="32.8887398">
<ele>841.28</ele>
<time>2015-04-29T15:24:30Z</time>
</trkpt>
<trkpt lat="34.9767478" lon="32.8887807">
<ele>842.67</ele>
<time>2015-04-29T15:24:34Z</time>
</trkpt>
<trkpt lat="34.9767036" lon="32.8888261">
<ele>841.38</ele>
<time>2015-04-29T15:24:38Z</time>
</trkpt>
<trkpt lat="34.9766661" lon="32.8888570">
<ele>841.71</ele>
<time>2015-04-29T15:24:41Z</time>
</trkpt>
<trkpt lat="34.9766218" lon="32.8888729">
<ele>841.50</ele>
<time>2015-04-29T15:24:44Z</time>
</trkpt>
<trkpt lat="34.9765735" lon="32.8888760">
<ele>841.23</ele>
<time>2015-04-29T15:24:47Z</time>
</trkpt>
<trkpt lat="34.9765182" lon="32.8888835">
<ele>842.91</ele>
<time>2015-04-29T15:24:51Z</time>
</trkpt>
<trkpt lat="34.9764725" lon="32.8888903">
<ele>843.40</ele>
<time>2015-04-29T15:24:54Z</time>
</trkpt>
<trkpt lat="34.9764246" lon="32.8888978">
<ele>842.09</ele>
<time>2015-04-29T15:24:57Z</time>
</trkpt>
<trkpt lat="34.9763763" lon="32.8889018">
<ele>841.93</ele>
<time>2015-04-29T15:25:00Z</time>
</trkpt>
<trkpt lat="34.9763252" lon="32.8888895">
<ele>843.41</ele>
<time>2015-04-29T15:25:03Z</time>
</trkpt>
<trkpt lat="34.9762786" lon="32.8888770">
<ele>843.72</ele>
<time>2015-04-29T15:25:06Z</time>
</trkpt>
<trkpt lat="34.9762330" lon="32.8888585">
<ele>844.25</ele>
<time>2015-04-29T15:25:09Z</time>
</trkpt>
<trkpt lat="34.9761888" lon="32.8888403">
<ele>845.45</ele>
<time>2015-04-29T15:25:12Z</time>
</trkpt>
<trkpt lat="34.9761443" lon="32.8888284">
<ele>846.47</ele>
<time>2015-04-29T15:25:15Z</time>
</trkpt>
<trkpt lat="34.9760930" lon="32.8888040">
<ele>846.74</ele>
<time>2015-04-29T15:25:19Z</time>
</trkpt>
<trkpt lat="34.9760413" lon="32.8887865">
<ele>847.26</ele>
<time>2015-04-29T15:25:23Z</time>
</trkpt>
<trkpt lat="34.9759906" lon="32.8887726">
<ele>846.73</ele>
<time>2015-04-29T15:25:27Z</time>
</trkpt>
<trkpt lat="34.9759395" lon="32.8887435">
<ele>845.82</ele>
<time>2015-04-29T15:25:31Z</time>
</trkpt>
<trkpt lat="34.9758872" lon="32.8887320">
<ele>845.20</ele>
<time>2015-04-29T15:25:35Z</time>
</trkpt>
<trkpt lat="34.9758384" lon="32.8887106">
<ele>844.85</ele>
<time>2015-04-29T15:25:39Z</time>
</trkpt>
<trkpt lat="34.9757836" lon="32.8886850">
<ele>844.27</ele>
<time>2015-04-29T15:25:43Z</time>
</trkpt>
<trkpt lat="34.9757346" lon="32.8886603">
<ele>845.48</ele>
<time>2015-04-29T15:25:47Z</time>
</trkpt>
<trkpt lat="34.9757120" lon="32.8886086">
<ele>845.72</ele>
<time>2015-04-29T15:25:50Z</time>
</trkpt>
<trkpt lat="34.9757052" lon="32.8885495">
<ele>846.01</ele>
<time>2015-04-29T15:25:53Z</time>
</trkpt>
<trkpt lat="34.9757096" lon="32.8884929">
<ele>847.92</ele>
<time>2015-04-29T15:25:56Z</time>
</trkpt>
<trkpt lat="34.9757362" lon="32.8884410">
<ele>850.65</ele>
<time>2015-04-29T15:25:59Z</time>
</trkpt>
<trkpt lat="34.9757612" lon="32.8883935">
<ele>852.37</ele>
<time>2015-04-29T15:26:02Z</time>
</trkpt>
<trkpt lat="34.9757940" lon="32.8883406">
<ele>852.74</ele>
<time>2015-04-29T15:26:06Z</time>
</trkpt>
<trkpt lat="34.9758440" lon="32.8883527">
<ele>852.38</ele>
<time>2015-04-29T15:26:09Z</time>
</trkpt>
<trkpt lat="34.9758944" lon="32.8883609">
<ele>852.34</ele>
<time>2015-04-29T15:26:12Z</time>
</trkpt>
<trkpt lat="34.9759436" lon="32.8883807">
<ele>852.21</ele>
<time>2015-04-29T15:26:15Z</time>
</trkpt>
<trkpt lat="34.9759908" lon="32.8884101">
<ele>852.57</ele>
<time>2015-04-29T15:26:18Z</time>
</trkpt>
<trkpt lat="34.9760415" lon="32.8884342">
<ele>852.61</ele>
<time>2015-04-29T15:26:21Z</time>
</trkpt>
<trkpt lat="34.9760897" lon="32.8884623">
<ele>852.87</ele>
<time>2015-04-29T15:26:24Z</time>
</trkpt>
<trkpt lat="34.9761355" lon="32.8884880">
<ele>852.77</ele>
<time>2015-04-29T15:26:27Z</time>
</trkpt>
<trkpt lat="34.9761810" lon="32.8885159">
<ele>852.01</ele>
<time>2015-04-29T15:26:30Z</time>
</trkpt>
<trkpt lat="34.9762219" lon="32.8885578">
<ele>851.79</ele>
<time>2015-04-29T15:26:33Z</time>
</trkpt>
<trkpt lat="34.9762611" lon="32.8885955">
<ele>851.76</ele>
<time>2015-04-29T15:26:36Z</time>
</trkpt>
<trkpt lat="34.9763048" lon="32.8886096">
<ele>852.64</ele>
<time>2015-04-29T15:26:39Z</time>
</trkpt>
<trkpt lat="34.9763524" lon="32.8886159">
<ele>851.99</ele>
<time>2015-04-29T15:26:42Z</time>
</trkpt>
<trkpt lat="34.9763981" lon="32.8886140">
<ele>853.04</ele>
<time>2015-04-29T15:26:45Z</time>
</trkpt>
<trkpt lat="34.9764456" lon="32.8886010">
<ele>854.54</ele>
<time>2015-04-29T15:26:48Z</time>
</trkpt>
<trkpt lat="34.9764903" lon="32.8885938">
<ele>851.36</ele>
<time>2015-04-29T15:26:51Z</time>
</trkpt>
<trkpt lat="34.9765373" lon="32.8885546">
<ele>849.67</ele>
<time>2015-04-29T15:26:55Z</time>
</trkpt>
<trkpt lat="34.9765712" lon="32.8885106">
<ele>850.44</ele>
<time>2015-04-29T15:26:59Z</time>
</trkpt>
<trkpt lat="34.9766075" lon="32.8884652">
<ele>851.53</ele>
<time>2015-04-29T15:27:04Z</time>
</trkpt>
<trkpt lat="34.9766387" lon="32.8884120">
<ele>850.53</ele>
<time>2015-04-29T15:27:09Z</time>
</trkpt>
<trkpt lat="34.9766663" lon="32.8883682">
<ele>849.75</ele>
<time>2015-04-29T15:27:13Z</time>
</trkpt>
<trkpt lat="34.9766928" lon="32.8883132">
<ele>849.42</ele>
<time>2015-04-29T15:27:18Z</time>
</trkpt>
<trkpt lat="34.9767097" lon="32.8882568">
<ele>850.18</ele>
<time>2015-04-29T15:27:22Z</time>
</trkpt>
<trkpt lat="34.9767338" lon="32.8882038">
<ele>851.10</ele>
<time>2015-04-29T15:27:26Z</time>
</trkpt>
<trkpt lat="34.9767568" lon="32.8881472">
<ele>850.28</ele>
<time>2015-04-29T15:27:30Z</time>
</trkpt>
<trkpt lat="34.9767642" lon="32.8880795">
<ele>850.29</ele>
<time>2015-04-29T15:27:34Z</time>
</trkpt>
<trkpt lat="34.9767806" lon="32.8880157">
<ele>851.48</ele>
<time>2015-04-29T15:27:38Z</time>
</trkpt>
<trkpt lat="34.9768009" lon="32.8879521">
<ele>853.18</ele>
<time>2015-04-29T15:27:42Z</time>
</trkpt>
<trkpt lat="34.9768214" lon="32.8878895">
<ele>854.85</ele>
<time>2015-04-29T15:27:46Z</time>
</trkpt>
<trkpt lat="34.9768434" lon="32.8878278">
<ele>854.04</ele>
<time>2015-04-29T15:27:51Z</time>
</trkpt>
<trkpt lat="34.9768593" lon="32.8877673">
<ele>856.21</ele>
<time>2015-04-29T15:27:56Z</time>
</trkpt>
<trkpt lat="34.9768836" lon="32.8877202">
<ele>856.85</ele>
<time>2015-04-29T15:28:00Z</time>
</trkpt>
<trkpt lat="34.9769117" lon="32.8876771">
<ele>857.33</ele>
<time>2015-04-29T15:28:04Z</time>
</trkpt>
<trkpt lat="34.9769332" lon="32.8876244">
<ele>858.36</ele>
<time>2015-04-29T15:28:08Z</time>
</trkpt>
<trkpt lat="34.9769522" lon="32.8875659">
<ele>857.73</ele>
<time>2015-04-29T15:28:12Z</time>
</trkpt>
<trkpt lat="34.9769699" lon="32.8875124">
<ele>857.76</ele>
<time>2015-04-29T15:28:16Z</time>
</trkpt>
<trkpt lat="34.9769909" lon="32.8874590">
<ele>859.20</ele>
<time>2015-04-29T15:28:20Z</time>
</trkpt>
<trkpt lat="34.9770115" lon="32.8874030">
<ele>858.97</ele>
<time>2015-04-29T15:28:24Z</time>
</trkpt>
<trkpt lat="34.9770245" lon="32.8873410">
<ele>859.15</ele>
<time>2015-04-29T15:28:28Z</time>
</trkpt>
<trkpt lat="34.9770530" lon="32.8872852">
<ele>859.68</ele>
<time>2015-04-29T15:28:33Z</time>
</trkpt>
<trkpt lat="34.9770858" lon="32.8872452">
<ele>857.44</ele>
<time>2015-04-29T15:28:37Z</time>
</trkpt>
<trkpt lat="34.9771053" lon="32.8871883">
<ele>858.24</ele>
<time>2015-04-29T15:28:41Z</time>
</trkpt>
<trkpt lat="34.9771300" lon="32.8871301">
<ele>858.23</ele>
<time>2015-04-29T15:28:45Z</time>
</trkpt>
<trkpt lat="34.9771492" lon="32.8870632">
<ele>857.66</ele>
<time>2015-04-29T15:28:49Z</time>
</trkpt>
<trkpt lat="34.9771665" lon="32.8870074">
<ele>859.44</ele>
<time>2015-04-29T15:28:53Z</time>
</trkpt>
<trkpt lat="34.9771890" lon="32.8869470">
<ele>860.68</ele>
<time>2015-04-29T15:28:57Z</time>
</trkpt>
<trkpt lat="34.9772071" lon="32.8868897">
<ele>862.19</ele>
<time>2015-04-29T15:29:01Z</time>
</trkpt>
<trkpt lat="34.9772280" lon="32.8868347">
<ele>863.66</ele>
<time>2015-04-29T15:29:05Z</time>
</trkpt>
<trkpt lat="34.9772496" lon="32.8867832">
<ele>862.88</ele>
<time>2015-04-29T15:29:09Z</time>
</trkpt>
<trkpt lat="34.9772762" lon="32.8867370">
<ele>862.27</ele>
<time>2015-04-29T15:29:13Z</time>
</trkpt>
<trkpt lat="34.9772978" lon="32.8866837">
<ele>860.92</ele>
<time>2015-04-29T15:29:17Z</time>
</trkpt>
<trkpt lat="34.9773096" lon="32.8866224">
<ele>861.52</ele>
<time>2015-04-29T15:29:21Z</time>
</trkpt>
<trkpt lat="34.9773306" lon="32.8865610">
<ele>862.68</ele>
<time>2015-04-29T15:29:25Z</time>
</trkpt>
<trkpt lat="34.9773523" lon="32.8864972">
<ele>863.57</ele>
<time>2015-04-29T15:29:29Z</time>
</trkpt>
<trkpt lat="34.9773708" lon="32.8864457">
<ele>863.36</ele>
<time>2015-04-29T15:29:32Z</time>
</trkpt>
<trkpt lat="34.9773868" lon="32.8863924">
<ele>863.34</ele>
<time>2015-04-29T15:29:35Z</time>
</trkpt>
<trkpt lat="34.9774167" lon="32.8863304">
<ele>865.11</ele>
<time>2015-04-29T15:29:39Z</time>
</trkpt>
<trkpt lat="34.9774378" lon="32.8862671">
<ele>866.66</ele>
<time>2015-04-29T15:29:43Z</time>
</trkpt>
<trkpt lat="34.9774537" lon="32.8862099">
<ele>868.24</ele>
<time>2015-04-29T15:29:49Z</time>
</trkpt>
<trkpt lat="34.9774669" lon="32.8861498">
<ele>867.56</ele>
<time>2015-04-29T15:29:54Z</time>
</trkpt>
<trkpt lat="34.9774917" lon="32.8861004">
<ele>868.50</ele>
<time>2015-04-29T15:29:58Z</time>
</trkpt>
<trkpt lat="34.9775092" lon="32.8860397">
<ele>868.74</ele>
<time>2015-04-29T15:30:02Z</time>
</trkpt>
<trkpt lat="34.9775227" lon="32.8859656">
<ele>868.76</ele>
<time>2015-04-29T15:30:05Z</time>
</trkpt>
<trkpt lat="34.9775413" lon="32.8859136">
<ele>869.26</ele>
<time>2015-04-29T15:30:07Z</time>
</trkpt>
<trkpt lat="34.9775635" lon="32.8858510">
<ele>870.38</ele>
<time>2015-04-29T15:30:09Z</time>
</trkpt>
<trkpt lat="34.9775864" lon="32.8857894">
<ele>870.67</ele>
<time>2015-04-29T15:30:11Z</time>
</trkpt>
<trkpt lat="34.9776073" lon="32.8857270">
<ele>870.99</ele>
<time>2015-04-29T15:30:13Z</time>
</trkpt>
<trkpt lat="34.9776262" lon="32.8856695">
<ele>871.32</ele>
<time>2015-04-29T15:30:15Z</time>
</trkpt>
<trkpt lat="34.9776455" lon="32.8856119">
<ele>871.65</ele>
<time>2015-04-29T15:30:17Z</time>
</trkpt>
<trkpt lat="34.9776705" lon="32.8855477">
<ele>871.75</ele>
<time>2015-04-29T15:30:20Z</time>
</trkpt>
<trkpt lat="34.9776961" lon="32.8854968">
<ele>872.63</ele>
<time>2015-04-29T15:30:23Z</time>
</trkpt>
<trkpt lat="34.9777205" lon="32.8854346">
<ele>872.74</ele>
<time>2015-04-29T15:30:26Z</time>
</trkpt>
<trkpt lat="34.9777458" lon="32.8853854">
<ele>873.23</ele>
<time>2015-04-29T15:30:31Z</time>
</trkpt>
<trkpt lat="34.9777798" lon="32.8853436">
<ele>874.48</ele>
<time>2015-04-29T15:30:35Z</time>
</trkpt>
<trkpt lat="34.9778132" lon="32.8853005">
<ele>876.37</ele>
<time>2015-04-29T15:30:39Z</time>
</trkpt>
<trkpt lat="34.9778488" lon="32.8852574">
<ele>875.80</ele>
<time>2015-04-29T15:30:43Z</time>
</trkpt>
<trkpt lat="34.9779006" lon="32.8852451">
<ele>875.01</ele>
<time>2015-04-29T15:30:47Z</time>
</trkpt>
<trkpt lat="34.9779504" lon="32.8852247">
<ele>874.03</ele>
<time>2015-04-29T15:30:51Z</time>
</trkpt>
<trkpt lat="34.9780065" lon="32.8851997">
<ele>874.90</ele>
<time>2015-04-29T15:30:55Z</time>
</trkpt>
<trkpt lat="34.9780582" lon="32.8851894">
<ele>874.90</ele>
<time>2015-04-29T15:30:58Z</time>
</trkpt>
<trkpt lat="34.9781126" lon="32.8851871">
<ele>876.03</ele>
<time>2015-04-29T15:31:01Z</time>
</trkpt>
<trkpt lat="34.9781669" lon="32.8851871">
<ele>876.67</ele>
<time>2015-04-29T15:31:04Z</time>
</trkpt>
<trkpt lat="34.9782227" lon="32.8852040">
<ele>875.87</ele>
<time>2015-04-29T15:31:07Z</time>
</trkpt>
<trkpt lat="34.9782817" lon="32.8852360">
<ele>875.52</ele>
<time>2015-04-29T15:31:10Z</time>
</trkpt>
<trkpt lat="34.9783210" lon="32.8852648">
<ele>875.70</ele>
<time>2015-04-29T15:31:12Z</time>
</trkpt>
<trkpt lat="34.9783698" lon="32.8853132">
<ele>877.13</ele>
<time>2015-04-29T15:31:15Z</time>
</trkpt>
<trkpt lat="34.9784170" lon="32.8853642">
<ele>878.18</ele>
<time>2015-04-29T15:31:18Z</time>
</trkpt>
<trkpt lat="34.9784621" lon="32.8854192">
<ele>878.69</ele>
<time>2015-04-29T15:31:21Z</time>
</trkpt>
<trkpt lat="34.9784958" lon="32.8854798">
<ele>879.25</ele>
<time>2015-04-29T15:31:24Z</time>
</trkpt>
<trkpt lat="34.9785391" lon="32.8855298">
<ele>879.70</ele>
<time>2015-04-29T15:31:27Z</time>
</trkpt>
<trkpt lat="34.9785821" lon="32.8855797">
<ele>880.50</ele>
<time>2015-04-29T15:31:30Z</time>
</trkpt>
<trkpt lat="34.9786126" lon="32.8856229">
<ele>879.85</ele>
<time>2015-04-29T15:31:33Z</time>
</trkpt>
<trkpt lat="34.9786536" lon="32.8856729">
<ele>880.52</ele>
<time>2015-04-29T15:31:37Z</time>
</trkpt>
<trkpt lat="34.9786912" lon="32.8857130">
<ele>881.60</ele>
<time>2015-04-29T15:31:40Z</time>
</trkpt>
<trkpt lat="34.9787279" lon="32.8857540">
<ele>882.62</ele>
<time>2015-04-29T15:31:43Z</time>
</trkpt>
<trkpt lat="34.9787682" lon="32.8857954">
<ele>884.87</ele>
<time>2015-04-29T15:31:46Z</time>
</trkpt>
<trkpt lat="34.9788344" lon="32.8858205">
<ele>885.15</ele>
<time>2015-04-29T15:31:49Z</time>
</trkpt>
<trkpt lat="34.9788908" lon="32.8858314">
<ele>884.86</ele>
<time>2015-04-29T15:31:51Z</time>
</trkpt>
<trkpt lat="34.9789539" lon="32.8858332">
<ele>885.53</ele>
<time>2015-04-29T15:31:53Z</time>
</trkpt>
<trkpt lat="34.9790136" lon="32.8858183">
<ele>885.70</ele>
<time>2015-04-29T15:31:55Z</time>
</trkpt>
<trkpt lat="34.9790714" lon="32.8857899">
<ele>885.75</ele>
<time>2015-04-29T15:31:57Z</time>
</trkpt>
<trkpt lat="34.9791151" lon="32.8857573">
<ele>886.26</ele>
<time>2015-04-29T15:31:59Z</time>
</trkpt>
<trkpt lat="34.9791550" lon="32.8857011">
<ele>887.23</ele>
<time>2015-04-29T15:32:03Z</time>
</trkpt>
<trkpt lat="34.9792025" lon="32.8856483">
<ele>885.57</ele>
<time>2015-04-29T15:32:06Z</time>
</trkpt>
<trkpt lat="34.9792389" lon="32.8856007">
<ele>886.21</ele>
<time>2015-04-29T15:32:08Z</time>
</trkpt>
<trkpt lat="34.9792680" lon="32.8855557">
<ele>887.12</ele>
<time>2015-04-29T15:32:10Z</time>
</trkpt>
<trkpt lat="34.9793108" lon="32.8855052">
<ele>887.68</ele>
<time>2015-04-29T15:32:13Z</time>
</trkpt>
<trkpt lat="34.9793456" lon="32.8854655">
<ele>888.25</ele>
<time>2015-04-29T15:32:16Z</time>
</trkpt>
<trkpt lat="34.9793873" lon="32.8854141">
<ele>887.54</ele>
<time>2015-04-29T15:32:20Z</time>
</trkpt>
<trkpt lat="34.9794307" lon="32.8853672">
<ele>888.25</ele>
<time>2015-04-29T15:32:24Z</time>
</trkpt>
<trkpt lat="34.9794619" lon="32.8853274">
<ele>889.20</ele>
<time>2015-04-29T15:32:27Z</time>
</trkpt>
<trkpt lat="34.9794982" lon="32.8852686">
<ele>890.22</ele>
<time>2015-04-29T15:32:31Z</time>
</trkpt>
<trkpt lat="34.9795504" lon="32.8852520">
<ele>887.40</ele>
<time>2015-04-29T15:32:46Z</time>
</trkpt>
<trkpt lat="34.9795780" lon="32.8851979">
<ele>887.36</ele>
<time>2015-04-29T15:32:50Z</time>
</trkpt>
<trkpt lat="34.9796120" lon="32.8851446">
<ele>886.84</ele>
<time>2015-04-29T15:32:53Z</time>
</trkpt>
<trkpt lat="34.9796633" lon="32.8851111">
<ele>886.77</ele>
<time>2015-04-29T15:32:56Z</time>
</trkpt>
<trkpt lat="34.9797095" lon="32.8850793">
<ele>887.01</ele>
<time>2015-04-29T15:32:59Z</time>
</trkpt>
<trkpt lat="34.9797541" lon="32.8850512">
<ele>886.29</ele>
<time>2015-04-29T15:33:02Z</time>
</trkpt>
<trkpt lat="34.9798011" lon="32.8850240">
<ele>887.20</ele>
<time>2015-04-29T15:33:05Z</time>
</trkpt>
<trkpt lat="34.9798462" lon="32.8849883">
<ele>887.69</ele>
<time>2015-04-29T15:33:08Z</time>
</trkpt>
<trkpt lat="34.9798909" lon="32.8849588">
<ele>887.75</ele>
<time>2015-04-29T15:33:11Z</time>
</trkpt>
<trkpt lat="34.9799332" lon="32.8849276">
<ele>889.13</ele>
<time>2015-04-29T15:33:14Z</time>
</trkpt>
<trkpt lat="34.9799775" lon="32.8849022">
<ele>888.81</ele>
<time>2015-04-29T15:33:17Z</time>
</trkpt>
<trkpt lat="34.9800237" lon="32.8848766">
<ele>889.52</ele>
<time>2015-04-29T15:33:20Z</time>
</trkpt>
<trkpt lat="34.9800614" lon="32.8848391">
<ele>890.23</ele>
<time>2015-04-29T15:33:23Z</time>
</trkpt>
<trkpt lat="34.9800997" lon="32.8848014">
<ele>890.69</ele>
<time>2015-04-29T15:33:26Z</time>
</trkpt>
<trkpt lat="34.9801408" lon="32.8847714">
<ele>890.25</ele>
<time>2015-04-29T15:33:29Z</time>
</trkpt>
<trkpt lat="34.9801816" lon="32.8847443">
<ele>890.45</ele>
<time>2015-04-29T15:33:32Z</time>
</trkpt>
<trkpt lat="34.9802284" lon="32.8847272">
<ele>892.18</ele>
<time>2015-04-29T15:33:36Z</time>
</trkpt>
<trkpt lat="34.9802848" lon="32.8847081">
<ele>892.16</ele>
<time>2015-04-29T15:33:40Z</time>
</trkpt>
<trkpt lat="34.9803407" lon="32.8846803">
<ele>891.79</ele>
<time>2015-04-29T15:33:44Z</time>
</trkpt>
<trkpt lat="34.9803812" lon="32.8846541">
<ele>893.51</ele>
<time>2015-04-29T15:33:47Z</time>
</trkpt>
<trkpt lat="34.9804260" lon="32.8846288">
<ele>895.73</ele>
<time>2015-04-29T15:33:50Z</time>
</trkpt>
<trkpt lat="34.9804769" lon="32.8846118">
<ele>897.38</ele>
<time>2015-04-29T15:33:53Z</time>
</trkpt>
<trkpt lat="34.9805276" lon="32.8845952">
<ele>898.96</ele>
<time>2015-04-29T15:33:56Z</time>
</trkpt>
<trkpt lat="34.9805812" lon="32.8845828">
<ele>899.16</ele>
<time>2015-04-29T15:33:59Z</time>
</trkpt>
<trkpt lat="34.9806395" lon="32.8845742">
<ele>900.44</ele>
<time>2015-04-29T15:34:02Z</time>
</trkpt>
<trkpt lat="34.9807005" lon="32.8845776">
<ele>899.97</ele>
<time>2015-04-29T15:34:05Z</time>
</trkpt>
<trkpt lat="34.9807604" lon="32.8845889">
<ele>900.66</ele>
<time>2015-04-29T15:34:08Z</time>
</trkpt>
<trkpt lat="34.9808184" lon="32.8845970">
<ele>900.50</ele>
<time>2015-04-29T15:34:11Z</time>
</trkpt>
<trkpt lat="34.9808728" lon="32.8846151">
<ele>899.85</ele>
<time>2015-04-29T15:34:14Z</time>
</trkpt>
<trkpt lat="34.9809281" lon="32.8846340">
<ele>899.77</ele>
<time>2015-04-29T15:34:17Z</time>
</trkpt>
<trkpt lat="34.9809796" lon="32.8846600">
<ele>899.76</ele>
<time>2015-04-29T15:34:20Z</time>
</trkpt>
<trkpt lat="34.9810302" lon="32.8846864">
<ele>900.51</ele>
<time>2015-04-29T15:34:23Z</time>
</trkpt>
<trkpt lat="34.9810782" lon="32.8847172">
<ele>901.23</ele>
<time>2015-04-29T15:34:26Z</time>
</trkpt>
<trkpt lat="34.9811301" lon="32.8847478">
<ele>902.44</ele>
<time>2015-04-29T15:34:29Z</time>
</trkpt>
<trkpt lat="34.9811785" lon="32.8847840">
<ele>902.72</ele>
<time>2015-04-29T15:34:32Z</time>
</trkpt>
<trkpt lat="34.9812251" lon="32.8848199">
<ele>903.88</ele>
<time>2015-04-29T15:34:35Z</time>
</trkpt>
<trkpt lat="34.9812749" lon="32.8848526">
<ele>904.53</ele>
<time>2015-04-29T15:34:38Z</time>
</trkpt>
<trkpt lat="34.9813246" lon="32.8848894">
<ele>904.73</ele>
<time>2015-04-29T15:34:41Z</time>
</trkpt>
<trkpt lat="34.9813740" lon="32.8849253">
<ele>905.63</ele>
<time>2015-04-29T15:34:44Z</time>
</trkpt>
<trkpt lat="34.9814212" lon="32.8849619">
<ele>906.49</ele>
<time>2015-04-29T15:34:47Z</time>
</trkpt>
<trkpt lat="34.9814707" lon="32.8849993">
<ele>906.73</ele>
<time>2015-04-29T15:34:50Z</time>
</trkpt>
<trkpt lat="34.9815200" lon="32.8850329">
<ele>907.63</ele>
<time>2015-04-29T15:34:53Z</time>
</trkpt>
<trkpt lat="34.9815685" lon="32.8850646">
<ele>909.12</ele>
<time>2015-04-29T15:34:56Z</time>
</trkpt>
<trkpt lat="34.9816165" lon="32.8850974">
<ele>909.68</ele>
<time>2015-04-29T15:34:59Z</time>
</trkpt>
<trkpt lat="34.9816639" lon="32.8851256">
<ele>910.62</ele>
<time>2015-04-29T15:35:02Z</time>
</trkpt>
<trkpt lat="34.9817127" lon="32.8851491">
<ele>910.74</ele>
<time>2015-04-29T15:35:05Z</time>
</trkpt>
<trkpt lat="34.9817621" lon="32.8851726">
<ele>910.76</ele>
<time>2015-04-29T15:35:08Z</time>
</trkpt>
<trkpt lat="34.9818120" lon="32.8851887">
<ele>910.76</ele>
<time>2015-04-29T15:35:11Z</time>
</trkpt>
<trkpt lat="34.9818677" lon="32.8852110">
<ele>910.76</ele>
<time>2015-04-29T15:35:15Z</time>
</trkpt>
<trkpt lat="34.9819188" lon="32.8852243">
<ele>910.76</ele>
<time>2015-04-29T15:35:18Z</time>
</trkpt>
<trkpt lat="34.9819718" lon="32.8852344">
<ele>910.76</ele>
<time>2015-04-29T15:35:21Z</time>
</trkpt>
<trkpt lat="34.9820271" lon="32.8852477">
<ele>911.51</ele>
<time>2015-04-29T15:35:24Z</time>
</trkpt>
<trkpt lat="34.9820844" lon="32.8852596">
<ele>911.73</ele>
<time>2015-04-29T15:35:27Z</time>
</trkpt>
<trkpt lat="34.9821380" lon="32.8852723">
<ele>911.76</ele>
<time>2015-04-29T15:35:30Z</time>
</trkpt>
<trkpt lat="34.9821851" lon="32.8852771">
<ele>912.73</ele>
<time>2015-04-29T15:35:35Z</time>
</trkpt>
<trkpt lat="34.9822375" lon="32.8852832">
<ele>913.70</ele>
<time>2015-04-29T15:35:39Z</time>
</trkpt>
<trkpt lat="34.9822830" lon="32.8852887">
<ele>914.63</ele>
<time>2015-04-29T15:35:43Z</time>
</trkpt>
<trkpt lat="34.9823359" lon="32.8853040">
<ele>914.74</ele>
<time>2015-04-29T15:35:46Z</time>
</trkpt>
<trkpt lat="34.9823820" lon="32.8853152">
<ele>914.76</ele>
<time>2015-04-29T15:35:49Z</time>
</trkpt>
<trkpt lat="34.9824384" lon="32.8853196">
<ele>913.88</ele>
<time>2015-04-29T15:35:53Z</time>
</trkpt>
<trkpt lat="34.9824887" lon="32.8853301">
<ele>913.78</ele>
<time>2015-04-29T15:35:56Z</time>
</trkpt>
<trkpt lat="34.9825338" lon="32.8853439">
<ele>914.64</ele>
<time>2015-04-29T15:35:59Z</time>
</trkpt>
<trkpt lat="34.9825822" lon="32.8853640">
<ele>914.74</ele>
<time>2015-04-29T15:36:02Z</time>
</trkpt>
<trkpt lat="34.9826380" lon="32.8853789">
<ele>915.63</ele>
<time>2015-04-29T15:36:05Z</time>
</trkpt>
<trkpt lat="34.9826945" lon="32.8853786">
<ele>915.74</ele>
<time>2015-04-29T15:36:08Z</time>
</trkpt>
<trkpt lat="34.9827466" lon="32.8853791">
<ele>915.76</ele>
<time>2015-04-29T15:36:11Z</time>
</trkpt>
<trkpt lat="34.9827938" lon="32.8853920">
<ele>916.51</ele>
<time>2015-04-29T15:36:14Z</time>
</trkpt>
<trkpt lat="34.9828417" lon="32.8853969">
<ele>916.73</ele>
<time>2015-04-29T15:36:17Z</time>
</trkpt>
<trkpt lat="34.9828885" lon="32.8854104">
<ele>917.63</ele>
<time>2015-04-29T15:36:20Z</time>
</trkpt>
<trkpt lat="34.9829382" lon="32.8854054">
<ele>917.74</ele>
<time>2015-04-29T15:36:23Z</time>
</trkpt>
<trkpt lat="34.9829912" lon="32.8854006">
<ele>918.51</ele>
<time>2015-04-29T15:36:26Z</time>
</trkpt>
<trkpt lat="34.9830451" lon="32.8853891">
<ele>918.73</ele>
<time>2015-04-29T15:36:29Z</time>
</trkpt>
<trkpt lat="34.9830917" lon="32.8853643">
<ele>919.54</ele>
<time>2015-04-29T15:36:34Z</time>
</trkpt>
<trkpt lat="34.9831381" lon="32.8853309">
<ele>920.61</ele>
<time>2015-04-29T15:36:37Z</time>
</trkpt>
<trkpt lat="34.9831797" lon="32.8852898">
<ele>920.74</ele>
<time>2015-04-29T15:36:40Z</time>
</trkpt>
<trkpt lat="34.9832157" lon="32.8852497">
<ele>919.88</ele>
<time>2015-04-29T15:36:43Z</time>
</trkpt>
<trkpt lat="34.9832518" lon="32.8852025">
<ele>920.65</ele>
<time>2015-04-29T15:36:46Z</time>
</trkpt>
<trkpt lat="34.9832868" lon="32.8851479">
<ele>921.25</ele>
<time>2015-04-29T15:36:49Z</time>
</trkpt>
<trkpt lat="34.9833260" lon="32.8851049">
<ele>921.70</ele>
<time>2015-04-29T15:36:52Z</time>
</trkpt>
<trkpt lat="34.9833559" lon="32.8850604">
<ele>921.75</ele>
<time>2015-04-29T15:36:55Z</time>
</trkpt>
<trkpt lat="34.9833728" lon="32.8850040">
<ele>922.26</ele>
<time>2015-04-29T15:36:59Z</time>
</trkpt>
<trkpt lat="34.9833870" lon="32.8849456">
<ele>922.48</ele>
<time>2015-04-29T15:37:03Z</time>
</trkpt>
<trkpt lat="34.9833558" lon="32.8848965">
<ele>920.54</ele>
<time>2015-04-29T15:45:13Z</time>
</trkpt>
<trkpt lat="34.9833360" lon="32.8848444">
<ele>921.19</ele>
<time>2015-04-29T15:45:18Z</time>
</trkpt>
<trkpt lat="34.9833076" lon="32.8847867">
<ele>919.87</ele>
<time>2015-04-29T15:45:23Z</time>
</trkpt>
<trkpt lat="34.9832862" lon="32.8847348">
<ele>917.92</ele>
<time>2015-04-29T15:45:28Z</time>
</trkpt>
<trkpt lat="34.9832532" lon="32.8846884">
<ele>919.80</ele>
<time>2015-04-29T15:45:33Z</time>
</trkpt>
<trkpt lat="34.9832257" lon="32.8846416">
<ele>921.57</ele>
<time>2015-04-29T15:45:37Z</time>
</trkpt>
<trkpt lat="34.9831929" lon="32.8845959">
<ele>923.50</ele>
<time>2015-04-29T15:45:41Z</time>
</trkpt>
<trkpt lat="34.9831449" lon="32.8845580">
<ele>922.66</ele>
<time>2015-04-29T15:45:46Z</time>
</trkpt>
<trkpt lat="34.9831018" lon="32.8845278">
<ele>921.69</ele>
<time>2015-04-29T15:45:50Z</time>
</trkpt>
<trkpt lat="34.9830480" lon="32.8844990">
<ele>921.82</ele>
<time>2015-04-29T15:45:54Z</time>
</trkpt>
<trkpt lat="34.9829993" lon="32.8844735">
<ele>922.39</ele>
<time>2015-04-29T15:45:58Z</time>
</trkpt>
<trkpt lat="34.9829482" lon="32.8844605">
<ele>921.11</ele>
<time>2015-04-29T15:46:02Z</time>
</trkpt>
<trkpt lat="34.9829034" lon="32.8844261">
<ele>921.84</ele>
<time>2015-04-29T15:46:06Z</time>
</trkpt>
<trkpt lat="34.9828537" lon="32.8843879">
<ele>922.52</ele>
<time>2015-04-29T15:46:10Z</time>
</trkpt>
<trkpt lat="34.9827989" lon="32.8843678">
<ele>922.74</ele>
<time>2015-04-29T15:46:14Z</time>
</trkpt>
<trkpt lat="34.9827438" lon="32.8843448">
<ele>923.82</ele>
<time>2015-04-29T15:46:18Z</time>
</trkpt>
<trkpt lat="34.9826934" lon="32.8843288">
<ele>920.70</ele>
<time>2015-04-29T15:46:22Z</time>
</trkpt>
<trkpt lat="34.9826450" lon="32.8843061">
<ele>919.44</ele>
<time>2015-04-29T15:46:26Z</time>
</trkpt>
<trkpt lat="34.9825916" lon="32.8842717">
<ele>920.93</ele>
<time>2015-04-29T15:46:30Z</time>
</trkpt>
<trkpt lat="34.9825466" lon="32.8842434">
<ele>922.78</ele>
<time>2015-04-29T15:46:33Z</time>
</trkpt>
<trkpt lat="34.9825056" lon="32.8842174">
<ele>923.39</ele>
<time>2015-04-29T15:46:36Z</time>
</trkpt>
<trkpt lat="34.9824636" lon="32.8841930">
<ele>922.84</ele>
<time>2015-04-29T15:46:39Z</time>
</trkpt>
<trkpt lat="34.9824226" lon="32.8841662">
<ele>921.89</ele>
<time>2015-04-29T15:46:42Z</time>
</trkpt>
<trkpt lat="34.9823791" lon="32.8841340">
<ele>922.65</ele>
<time>2015-04-29T15:46:45Z</time>
</trkpt>
<trkpt lat="34.9823352" lon="32.8840942">
<ele>922.00</ele>
<time>2015-04-29T15:46:48Z</time>
</trkpt>
<trkpt lat="34.9822878" lon="32.8840575">
<ele>923.41</ele>
<time>2015-04-29T15:46:51Z</time>
</trkpt>
<trkpt lat="34.9822536" lon="32.8840014">
<ele>924.09</ele>
<time>2015-04-29T15:46:54Z</time>
</trkpt>
<trkpt lat="34.9822097" lon="32.8839558">
<ele>923.80</ele>
<time>2015-04-29T15:46:57Z</time>
</trkpt>
<trkpt lat="34.9821603" lon="32.8839108">
<ele>923.27</ele>
<time>2015-04-29T15:47:00Z</time>
</trkpt>
<trkpt lat="34.9821212" lon="32.8838603">
<ele>923.45</ele>
<time>2015-04-29T15:47:03Z</time>
</trkpt>
<trkpt lat="34.9820994" lon="32.8838057">
<ele>923.85</ele>
<time>2015-04-29T15:47:06Z</time>
</trkpt>
<trkpt lat="34.9820720" lon="32.8837515">
<ele>925.15</ele>
<time>2015-04-29T15:47:09Z</time>
</trkpt>
<trkpt lat="34.9820321" lon="32.8836992">
<ele>927.18</ele>
<time>2015-04-29T15:47:12Z</time>
</trkpt>
<trkpt lat="34.9819880" lon="32.8836494">
<ele>929.06</ele>
<time>2015-04-29T15:47:15Z</time>
</trkpt>
<trkpt lat="34.9819515" lon="32.8836061">
<ele>929.92</ele>
<time>2015-04-29T15:47:18Z</time>
</trkpt>
<trkpt lat="34.9819097" lon="32.8835738">
<ele>928.16</ele>
<time>2015-04-29T15:47:21Z</time>
</trkpt>
<trkpt lat="34.9818690" lon="32.8835415">
<ele>926.93</ele>
<time>2015-04-29T15:47:24Z</time>
</trkpt>
<trkpt lat="34.9818313" lon="32.8835098">
<ele>926.91</ele>
<time>2015-04-29T15:47:27Z</time>
</trkpt>
<trkpt lat="34.9817987" lon="32.8834684">
<ele>927.65</ele>
<time>2015-04-29T15:47:30Z</time>
</trkpt>
<trkpt lat="34.9817588" lon="32.8834428">
<ele>926.25</ele>
<time>2015-04-29T15:47:33Z</time>
</trkpt>
<trkpt lat="34.9817079" lon="32.8834060">
<ele>926.04</ele>
<time>2015-04-29T15:47:37Z</time>
</trkpt>
<trkpt lat="34.9816622" lon="32.8833719">
<ele>926.05</ele>
<time>2015-04-29T15:47:40Z</time>
</trkpt>
<trkpt lat="34.9816188" lon="32.8833379">
<ele>926.55</ele>
<time>2015-04-29T15:47:43Z</time>
</trkpt>
<trkpt lat="34.9815679" lon="32.8832982">
<ele>928.00</ele>
<time>2015-04-29T15:47:47Z</time>
</trkpt>
<trkpt lat="34.9815304" lon="32.8832666">
<ele>928.04</ele>
<time>2015-04-29T15:47:50Z</time>
</trkpt>
<trkpt lat="34.9814891" lon="32.8832358">
<ele>929.04</ele>
<time>2015-04-29T15:47:53Z</time>
</trkpt>
<trkpt lat="34.9814471" lon="32.8831969">
<ele>930.42</ele>
<time>2015-04-29T15:47:56Z</time>
</trkpt>
<trkpt lat="34.9814058" lon="32.8831581">
<ele>930.72</ele>
<time>2015-04-29T15:47:59Z</time>
</trkpt>
<trkpt lat="34.9813686" lon="32.8831128">
<ele>933.13</ele>
<time>2015-04-29T15:48:02Z</time>
</trkpt>
<trkpt lat="34.9813330" lon="32.8830675">
<ele>933.31</ele>
<time>2015-04-29T15:48:05Z</time>
</trkpt>
<trkpt lat="34.9812933" lon="32.8830232">
<ele>932.58</ele>
<time>2015-04-29T15:48:08Z</time>
</trkpt>
<trkpt lat="34.9812626" lon="32.8829652">
<ele>932.24</ele>
<time>2015-04-29T15:48:11Z</time>
</trkpt>
<trkpt lat="34.9812170" lon="32.8829255">
<ele>932.57</ele>
<time>2015-04-29T15:48:14Z</time>
</trkpt>
<trkpt lat="34.9811696" lon="32.8828906">
<ele>932.36</ele>
<time>2015-04-29T15:48:17Z</time>
</trkpt>
<trkpt lat="34.9811379" lon="32.8828420">
<ele>929.59</ele>
<time>2015-04-29T15:48:20Z</time>
</trkpt>
<trkpt lat="34.9811006" lon="32.8827967">
<ele>929.24</ele>
<time>2015-04-29T15:48:23Z</time>
</trkpt>
<trkpt lat="34.9810753" lon="32.8827428">
<ele>930.94</ele>
<time>2015-04-29T15:48:26Z</time>
</trkpt>
<trkpt lat="34.9810559" lon="32.8826898">
<ele>931.66</ele>
<time>2015-04-29T15:48:29Z</time>
</trkpt>
<trkpt lat="34.9810415" lon="32.8826373">
<ele>932.62</ele>
<time>2015-04-29T15:48:32Z</time>
</trkpt>
<trkpt lat="34.9810502" lon="32.8825788">
<ele>933.62</ele>
<time>2015-04-29T15:48:35Z</time>
</trkpt>
<trkpt lat="34.9810524" lon="32.8825195">
<ele>933.74</ele>
<time>2015-04-29T15:48:38Z</time>
</trkpt>
<trkpt lat="34.9810457" lon="32.8824587">
<ele>934.51</ele>
<time>2015-04-29T15:48:41Z</time>
</trkpt>
<trkpt lat="34.9810430" lon="32.8823978">
<ele>935.23</ele>
<time>2015-04-29T15:48:44Z</time>
</trkpt>
<trkpt lat="34.9810656" lon="32.8823396">
<ele>933.07</ele>
<time>2015-04-29T15:48:47Z</time>
</trkpt>
<trkpt lat="34.9810901" lon="32.8822784">
<ele>932.05</ele>
<time>2015-04-29T15:48:50Z</time>
</trkpt>
<trkpt lat="34.9811184" lon="32.8822227">
<ele>931.92</ele>
<time>2015-04-29T15:48:53Z</time>
</trkpt>
<trkpt lat="34.9811515" lon="32.8821637">
<ele>931.53</ele>
<time>2015-04-29T15:48:56Z</time>
</trkpt>
<trkpt lat="34.9811851" lon="32.8821127">
<ele>932.61</ele>
<time>2015-04-29T15:48:59Z</time>
</trkpt>
<trkpt lat="34.9812214" lon="32.8820675">
<ele>934.99</ele>
<time>2015-04-29T15:49:02Z</time>
</trkpt>
<trkpt lat="34.9812555" lon="32.8820262">
<ele>936.16</ele>
<time>2015-04-29T15:49:05Z</time>
</trkpt>
<trkpt lat="34.9812792" lon="32.8819725">
<ele>937.44</ele>
<time>2015-04-29T15:49:08Z</time>
</trkpt>
<trkpt lat="34.9813053" lon="32.8819215">
<ele>939.34</ele>
<time>2015-04-29T15:49:11Z</time>
</trkpt>
<trkpt lat="34.9813400" lon="32.8818750">
<ele>939.71</ele>
<time>2015-04-29T15:49:14Z</time>
</trkpt>
<trkpt lat="34.9813747" lon="32.8818256">
<ele>941.75</ele>
<time>2015-04-29T15:49:17Z</time>
</trkpt>
<trkpt lat="34.9814087" lon="32.8817769">
<ele>941.63</ele>
<time>2015-04-29T15:49:20Z</time>
</trkpt>
<trkpt lat="34.9814479" lon="32.8817377">
<ele>942.49</ele>
<time>2015-04-29T15:49:23Z</time>
</trkpt>
<trkpt lat="34.9814857" lon="32.8817012">
<ele>939.48</ele>
<time>2015-04-29T15:49:26Z</time>
</trkpt>
<trkpt lat="34.9815235" lon="32.8816657">
<ele>936.97</ele>
<time>2015-04-29T15:49:29Z</time>
</trkpt>
<trkpt lat="34.9815581" lon="32.8816162">
<ele>938.16</ele>
<time>2015-04-29T15:49:32Z</time>
</trkpt>
<trkpt lat="34.9815917" lon="32.8815676">
<ele>938.56</ele>
<time>2015-04-29T15:49:35Z</time>
</trkpt>
<trkpt lat="34.9816237" lon="32.8815142">
<ele>939.61</ele>
<time>2015-04-29T15:49:38Z</time>
</trkpt>
<trkpt lat="34.9816539" lon="32.8814623">
<ele>940.24</ele>
<time>2015-04-29T15:49:41Z</time>
</trkpt>
<trkpt lat="34.9816925" lon="32.8814216">
<ele>940.57</ele>
<time>2015-04-29T15:49:44Z</time>
</trkpt>
<trkpt lat="34.9817225" lon="32.8813799">
<ele>942.11</ele>
<time>2015-04-29T15:49:47Z</time>
</trkpt>
<trkpt lat="34.9817548" lon="32.8813388">
<ele>943.18</ele>
<time>2015-04-29T15:49:50Z</time>
</trkpt>
<trkpt lat="34.9817987" lon="32.8812874">
<ele>945.04</ele>
<time>2015-04-29T15:49:54Z</time>
</trkpt>
<trkpt lat="34.9818367" lon="32.8812354">
<ele>945.28</ele>
<time>2015-04-29T15:49:58Z</time>
</trkpt>
<trkpt lat="34.9818770" lon="32.8811915">
<ele>946.04</ele>
<time>2015-04-29T15:50:02Z</time>
</trkpt>
<trkpt lat="34.9819222" lon="32.8811456">
<ele>947.22</ele>
<time>2015-04-29T15:50:06Z</time>
</trkpt>
<trkpt lat="34.9819646" lon="32.8811123">
<ele>947.19</ele>
<time>2015-04-29T15:50:09Z</time>
</trkpt>
<trkpt lat="34.9820130" lon="32.8810889">
<ele>947.69</ele>
<time>2015-04-29T15:50:12Z</time>
</trkpt>
<trkpt lat="34.9820560" lon="32.8810495">
<ele>948.25</ele>
<time>2015-04-29T15:50:15Z</time>
</trkpt>
<trkpt lat="34.9820950" lon="32.8810079">
<ele>948.45</ele>
<time>2015-04-29T15:50:18Z</time>
</trkpt>
<trkpt lat="34.9821362" lon="32.8809685">
<ele>948.97</ele>
<time>2015-04-29T15:50:21Z</time>
</trkpt>
<trkpt lat="34.9821734" lon="32.8809285">
<ele>948.04</ele>
<time>2015-04-29T15:50:24Z</time>
</trkpt>
<trkpt lat="34.9822130" lon="32.8808860">
<ele>947.40</ele>
<time>2015-04-29T15:50:28Z</time>
</trkpt>
<trkpt lat="34.9822509" lon="32.8808564">
<ele>947.74</ele>
<time>2015-04-29T15:50:32Z</time>
</trkpt>
<trkpt lat="34.9822897" lon="32.8808154">
<ele>947.76</ele>
<time>2015-04-29T15:50:36Z</time>
</trkpt>
<trkpt lat="34.9823280" lon="32.8807688">
<ele>948.51</ele>
<time>2015-04-29T15:50:40Z</time>
</trkpt>
<trkpt lat="34.9823460" lon="32.8807142">
<ele>949.31</ele>
<time>2015-04-29T15:50:44Z</time>
</trkpt>
<trkpt lat="34.9823670" lon="32.8806466">
<ele>950.17</ele>
<time>2015-04-29T15:50:48Z</time>
</trkpt>
<trkpt lat="34.9823909" lon="32.8805804">
<ele>950.72</ele>
<time>2015-04-29T15:50:52Z</time>
</trkpt>
<trkpt lat="34.9824038" lon="32.8805116">
<ele>951.70</ele>
<time>2015-04-29T15:50:56Z</time>
</trkpt>
<trkpt lat="34.9824179" lon="32.8804446">
<ele>951.76</ele>
<time>2015-04-29T15:51:00Z</time>
</trkpt>
<trkpt lat="34.9824347" lon="32.8803749">
<ele>952.26</ele>
<time>2015-04-29T15:51:04Z</time>
</trkpt>
<trkpt lat="34.9824365" lon="32.8803159">
<ele>952.23</ele>
<time>2015-04-29T15:51:08Z</time>
</trkpt>
<trkpt lat="34.9824372" lon="32.8802525">
<ele>949.79</ele>
<time>2015-04-29T15:51:12Z</time>
</trkpt>
<trkpt lat="34.9824457" lon="32.8801867">
<ele>949.57</ele>
<time>2015-04-29T15:51:16Z</time>
</trkpt>
<trkpt lat="34.9824276" lon="32.8801324">
<ele>950.61</ele>
<time>2015-04-29T15:51:19Z</time>
</trkpt>
<trkpt lat="34.9824074" lon="32.8800774">
<ele>950.74</ele>
<time>2015-04-29T15:51:22Z</time>
</trkpt>
<trkpt lat="34.9823954" lon="32.8800222">
<ele>951.63</ele>
<time>2015-04-29T15:51:25Z</time>
</trkpt>
<trkpt lat="34.9823760" lon="32.8799640">
<ele>952.12</ele>
<time>2015-04-29T15:51:28Z</time>
</trkpt>
<trkpt lat="34.9823493" lon="32.8799170">
<ele>952.68</ele>
<time>2015-04-29T15:51:31Z</time>
</trkpt>
<trkpt lat="34.9823089" lon="32.8798746">
<ele>952.76</ele>
<time>2015-04-29T15:51:35Z</time>
</trkpt>
<trkpt lat="34.9822830" lon="32.8798207">
<ele>953.51</ele>
<time>2015-04-29T15:51:39Z</time>
</trkpt>
<trkpt lat="34.9822547" lon="32.8797645">
<ele>954.62</ele>
<time>2015-04-29T15:51:43Z</time>
</trkpt>
<trkpt lat="34.9822120" lon="32.8797166">
<ele>955.50</ele>
<time>2015-04-29T15:51:47Z</time>
</trkpt>
<trkpt lat="34.9821757" lon="32.8796681">
<ele>956.43</ele>
<time>2015-04-29T15:51:51Z</time>
</trkpt>
<trkpt lat="34.9821543" lon="32.8796062">
<ele>955.99</ele>
<time>2015-04-29T15:51:55Z</time>
</trkpt>
<trkpt lat="34.9821263" lon="32.8795425">
<ele>955.77</ele>
<time>2015-04-29T15:51:59Z</time>
</trkpt>
<trkpt lat="34.9820927" lon="32.8795003">
<ele>954.01</ele>
<time>2015-04-29T15:52:02Z</time>
</trkpt>
<trkpt lat="34.9820803" lon="32.8794337">
<ele>954.09</ele>
<time>2015-04-29T15:52:06Z</time>
</trkpt>
<trkpt lat="34.9820845" lon="32.8793610">
<ele>955.22</ele>
<time>2015-04-29T15:52:10Z</time>
</trkpt>
<trkpt lat="34.9820918" lon="32.8792994">
<ele>956.44</ele>
<time>2015-04-29T15:52:13Z</time>
</trkpt>
<trkpt lat="34.9820970" lon="32.8792424">
<ele>957.22</ele>
<time>2015-04-29T15:52:16Z</time>
</trkpt>
<trkpt lat="34.9821049" lon="32.8791880">
<ele>957.69</ele>
<time>2015-04-29T15:52:19Z</time>
</trkpt>
<trkpt lat="34.9821236" lon="32.8791314">
<ele>958.51</ele>
<time>2015-04-29T15:52:23Z</time>
</trkpt>
<trkpt lat="34.9821534" lon="32.8790846">
<ele>958.37</ele>
<time>2015-04-29T15:52:27Z</time>
</trkpt>
<trkpt lat="34.9821903" lon="32.8790451">
<ele>960.11</ele>
<time>2015-04-29T15:52:31Z</time>
</trkpt>
<trkpt lat="34.9822252" lon="32.8789954">
<ele>962.41</ele>
<time>2015-04-29T15:52:35Z</time>
</trkpt>
<trkpt lat="34.9822371" lon="32.8789413">
<ele>963.09</ele>
<time>2015-04-29T15:52:38Z</time>
</trkpt>
<trkpt lat="34.9822592" lon="32.8788922">
<ele>964.05</ele>
<time>2015-04-29T15:52:41Z</time>
</trkpt>
<trkpt lat="34.9822789" lon="32.8788241">
<ele>963.84</ele>
<time>2015-04-29T15:52:45Z</time>
</trkpt>
<trkpt lat="34.9822873" lon="32.8787663">
<ele>964.58</ele>
<time>2015-04-29T15:52:49Z</time>
</trkpt>
<trkpt lat="34.9823017" lon="32.8787036">
<ele>964.81</ele>
<time>2015-04-29T15:52:53Z</time>
</trkpt>
<trkpt lat="34.9823114" lon="32.8786313">
<ele>965.64</ele>
<time>2015-04-29T15:52:57Z</time>
</trkpt>
<trkpt lat="34.9822964" lon="32.8785795">
<ele>966.24</ele>
<time>2015-04-29T15:53:00Z</time>
</trkpt>
<trkpt lat="34.9822726" lon="32.8785141">
<ele>965.48</ele>
<time>2015-04-29T15:53:04Z</time>
</trkpt>
<trkpt lat="34.9822532" lon="32.8784574">
<ele>963.43</ele>
<time>2015-04-29T15:53:08Z</time>
</trkpt>
<trkpt lat="34.9822257" lon="32.8784061">
<ele>964.49</ele>
<time>2015-04-29T15:53:12Z</time>
</trkpt>
<trkpt lat="34.9822012" lon="32.8783470">
<ele>965.93</ele>
<time>2015-04-29T15:53:16Z</time>
</trkpt>
<trkpt lat="34.9821798" lon="32.8782869">
<ele>969.58</ele>
<time>2015-04-29T15:53:20Z</time>
</trkpt>
<trkpt lat="34.9821601" lon="32.8782310">
<ele>969.72</ele>
<time>2015-04-29T15:53:25Z</time>
</trkpt>
<trkpt lat="34.9821240" lon="32.8781894">
<ele>968.45</ele>
<time>2015-04-29T15:53:29Z</time>
</trkpt>
<trkpt lat="34.9820961" lon="32.8781344">
<ele>966.84</ele>
<time>2015-04-29T15:53:34Z</time>
</trkpt>
<trkpt lat="34.9820777" lon="32.8780803">
<ele>965.14</ele>
<time>2015-04-29T15:53:38Z</time>
</trkpt>
<trkpt lat="34.9820533" lon="32.8780211">
<ele>963.62</ele>
<time>2015-04-29T15:53:43Z</time>
</trkpt>
<trkpt lat="34.9820385" lon="32.8779620">
<ele>964.69</ele>
<time>2015-04-29T15:53:47Z</time>
</trkpt>
<trkpt lat="34.9820044" lon="32.8779176">
<ele>965.13</ele>
<time>2015-04-29T15:53:51Z</time>
</trkpt>
<trkpt lat="34.9819775" lon="32.8778649">
<ele>964.97</ele>
<time>2015-04-29T15:53:55Z</time>
</trkpt>
<trkpt lat="34.9819566" lon="32.8778099">
<ele>965.09</ele>
<time>2015-04-29T15:53:59Z</time>
</trkpt>
<trkpt lat="34.9819341" lon="32.8777526">
<ele>968.16</ele>
<time>2015-04-29T15:54:03Z</time>
</trkpt>
<trkpt lat="34.9819006" lon="32.8776957">
<ele>969.41</ele>
<time>2015-04-29T15:54:07Z</time>
</trkpt>
<trkpt lat="34.9818766" lon="32.8776434">
<ele>973.59</ele>
<time>2015-04-29T15:54:10Z</time>
</trkpt>
<trkpt lat="34.9818542" lon="32.8775822">
<ele>974.74</ele>
<time>2015-04-29T15:54:13Z</time>
</trkpt>
<trkpt lat="34.9818282" lon="32.8775241">
<ele>974.26</ele>
<time>2015-04-29T15:54:16Z</time>
</trkpt>
<trkpt lat="34.9817964" lon="32.8774673">
<ele>973.95</ele>
<time>2015-04-29T15:54:19Z</time>
</trkpt>
<trkpt lat="34.9817643" lon="32.8773953">
<ele>974.03</ele>
<time>2015-04-29T15:54:22Z</time>
</trkpt>
<trkpt lat="34.9817406" lon="32.8773406">
<ele>974.58</ele>
<time>2015-04-29T15:54:24Z</time>
</trkpt>
<trkpt lat="34.9817173" lon="32.8772874">
<ele>973.46</ele>
<time>2015-04-29T15:54:26Z</time>
</trkpt>
<trkpt lat="34.9816943" lon="32.8772370">
<ele>973.69</ele>
<time>2015-04-29T15:54:28Z</time>
</trkpt>
<trkpt lat="34.9816760" lon="32.8771686">
<ele>975.00</ele>
<time>2015-04-29T15:54:31Z</time>
</trkpt>
<trkpt lat="34.9816588" lon="32.8771073">
<ele>975.59</ele>
<time>2015-04-29T15:54:35Z</time>
</trkpt>
<trkpt lat="34.9816239" lon="32.8770716">
<ele>973.62</ele>
<time>2015-04-29T15:54:39Z</time>
</trkpt>
<trkpt lat="34.9816099" lon="32.8770032">
<ele>973.19</ele>
<time>2015-04-29T15:54:44Z</time>
</trkpt>
<trkpt lat="34.9815966" lon="32.8769450">
<ele>973.72</ele>
<time>2015-04-29T15:54:48Z</time>
</trkpt>
<trkpt lat="34.9815854" lon="32.8768905">
<ele>972.51</ele>
<time>2015-04-29T15:54:52Z</time>
</trkpt>
<trkpt lat="34.9816188" lon="32.8768522">
<ele>972.95</ele>
<time>2015-04-29T15:55:04Z</time>
</trkpt>
<trkpt lat="34.9816179" lon="32.8767920">
<ele>975.02</ele>
<time>2015-04-29T15:55:08Z</time>
</trkpt>
<trkpt lat="34.9815953" lon="32.8767361">
<ele>976.53</ele>
<time>2015-04-29T15:55:12Z</time>
</trkpt>
<trkpt lat="34.9815841" lon="32.8766694">
<ele>978.93</ele>
<time>2015-04-29T15:55:16Z</time>
</trkpt>
<trkpt lat="34.9815742" lon="32.8766027">
<ele>980.21</ele>
<time>2015-04-29T15:55:20Z</time>
</trkpt>
<trkpt lat="34.9815631" lon="32.8765356">
<ele>979.91</ele>
<time>2015-04-29T15:55:24Z</time>
</trkpt>
<trkpt lat="34.9815574" lon="32.8764783">
<ele>981.14</ele>
<time>2015-04-29T15:55:28Z</time>
</trkpt>
<trkpt lat="34.9815431" lon="32.8764258">
<ele>980.03</ele>
<time>2015-04-29T15:55:32Z</time>
</trkpt>
<trkpt lat="34.9815394" lon="32.8763650">
<ele>979.78</ele>
<time>2015-04-29T15:55:36Z</time>
</trkpt>
<trkpt lat="34.9815393" lon="32.8763090">
<ele>979.26</ele>
<time>2015-04-29T15:55:40Z</time>
</trkpt>
<trkpt lat="34.9815205" lon="32.8762439">
<ele>980.71</ele>
<time>2015-04-29T15:55:45Z</time>
</trkpt>
<trkpt lat="34.9815238" lon="32.8761868">
<ele>981.69</ele>
<time>2015-04-29T15:55:49Z</time>
</trkpt>
<trkpt lat="34.9815162" lon="32.8761326">
<ele>980.44</ele>
<time>2015-04-29T15:55:53Z</time>
</trkpt>
<trkpt lat="34.9815201" lon="32.8760710">
<ele>979.87</ele>
<time>2015-04-29T15:55:57Z</time>
</trkpt>
<trkpt lat="34.9815236" lon="32.8760162">
<ele>981.52</ele>
<time>2015-04-29T15:56:00Z</time>
</trkpt>
<trkpt lat="34.9815204" lon="32.8759436">
<ele>982.12</ele>
<time>2015-04-29T15:56:04Z</time>
</trkpt>
<trkpt lat="34.9815138" lon="32.8758709">
<ele>981.85</ele>
<time>2015-04-29T15:56:08Z</time>
</trkpt>
<trkpt lat="34.9815088" lon="32.8758007">
<ele>982.70</ele>
<time>2015-04-29T15:56:12Z</time>
</trkpt>
<trkpt lat="34.9815038" lon="32.8757348">
<ele>983.26</ele>
<time>2015-04-29T15:56:16Z</time>
</trkpt>
<trkpt lat="34.9814949" lon="32.8756754">
<ele>985.10</ele>
<time>2015-04-29T15:56:20Z</time>
</trkpt>
<trkpt lat="34.9815002" lon="32.8756188">
<ele>987.16</ele>
<time>2015-04-29T15:56:24Z</time>
</trkpt>
<trkpt lat="34.9815020" lon="32.8755551">
<ele>986.46</ele>
<time>2015-04-29T15:56:29Z</time>
</trkpt>
<trkpt lat="34.9814900" lon="32.8754980">
<ele>985.87</ele>
<time>2015-04-29T15:56:33Z</time>
</trkpt>
<trkpt lat="34.9814860" lon="32.8754349">
<ele>985.83</ele>
<time>2015-04-29T15:56:37Z</time>
</trkpt>
<trkpt lat="34.9814795" lon="32.8753754">
<ele>988.08</ele>
<time>2015-04-29T15:56:41Z</time>
</trkpt>
<trkpt lat="34.9814758" lon="32.8753117">
<ele>989.47</ele>
<time>2015-04-29T15:56:45Z</time>
</trkpt>
<trkpt lat="34.9814652" lon="32.8752555">
<ele>988.24</ele>
<time>2015-04-29T15:56:49Z</time>
</trkpt>
<trkpt lat="34.9814649" lon="32.8751963">
<ele>988.23</ele>
<time>2015-04-29T15:56:53Z</time>
</trkpt>
<trkpt lat="34.9814878" lon="32.8751369">
<ele>987.54</ele>
<time>2015-04-29T15:56:57Z</time>
</trkpt>
<trkpt lat="34.9814994" lon="32.8750770">
<ele>988.50</ele>
<time>2015-04-29T15:57:01Z</time>
</trkpt>
<trkpt lat="34.9815089" lon="32.8750149">
<ele>990.43</ele>
<time>2015-04-29T15:57:05Z</time>
</trkpt>
<trkpt lat="34.9815283" lon="32.8749568">
<ele>991.61</ele>
<time>2015-04-29T15:57:09Z</time>
</trkpt>
<trkpt lat="34.9815444" lon="32.8748923">
<ele>990.63</ele>
<time>2015-04-29T15:57:13Z</time>
</trkpt>
<trkpt lat="34.9815613" lon="32.8748344">
<ele>991.69</ele>
<time>2015-04-29T15:57:17Z</time>
</trkpt>
<trkpt lat="34.9815901" lon="32.8747865">
<ele>993.38</ele>
<time>2015-04-29T15:57:21Z</time>
</trkpt>
<trkpt lat="34.9816207" lon="32.8747400">
<ele>995.42</ele>
<time>2015-04-29T15:57:25Z</time>
</trkpt>
<trkpt lat="34.9816553" lon="32.8747002">
<ele>997.36</ele>
<time>2015-04-29T15:57:29Z</time>
</trkpt>
<trkpt lat="34.9816987" lon="32.8746622">
<ele>997.75</ele>
<time>2015-04-29T15:57:34Z</time>
</trkpt>
<trkpt lat="34.9817337" lon="32.8746246">
<ele>996.82</ele>
<time>2015-04-29T15:57:38Z</time>
</trkpt>
<trkpt lat="34.9817724" lon="32.8745872">
<ele>997.26</ele>
<time>2015-04-29T15:57:42Z</time>
</trkpt>
<trkpt lat="34.9818202" lon="32.8745580">
<ele>996.85</ele>
<time>2015-04-29T15:57:46Z</time>
</trkpt>
<trkpt lat="34.9818626" lon="32.8745350">
<ele>997.64</ele>
<time>2015-04-29T15:57:50Z</time>
</trkpt>
<trkpt lat="34.9819111" lon="32.8745182">
<ele>998.32</ele>
<time>2015-04-29T15:57:55Z</time>
</trkpt>
<trkpt lat="34.9819606" lon="32.8745023">
<ele>1001.78</ele>
<time>2015-04-29T15:58:00Z</time>
</trkpt>
<trkpt lat="34.9820099" lon="32.8745026">
<ele>1001.64</ele>
<time>2015-04-29T15:58:04Z</time>
</trkpt>
<trkpt lat="34.9820630" lon="32.8745120">
<ele>1002.41</ele>
<time>2015-04-29T15:58:09Z</time>
</trkpt>
<trkpt lat="34.9821074" lon="32.8745222">
<ele>1002.74</ele>
<time>2015-04-29T15:58:13Z</time>
</trkpt>
<trkpt lat="34.9821618" lon="32.8745258">
<ele>1001.13</ele>
<time>2015-04-29T15:58:17Z</time>
</trkpt>
<trkpt lat="34.9822124" lon="32.8745438">
<ele>1001.66</ele>
<time>2015-04-29T15:58:21Z</time>
</trkpt>
<trkpt lat="34.9822559" lon="32.8745621">
<ele>1001.57</ele>
<time>2015-04-29T15:58:25Z</time>
</trkpt>
<trkpt lat="34.9823046" lon="32.8745649">
<ele>1000.79</ele>
<time>2015-04-29T15:58:30Z</time>
</trkpt>
<trkpt lat="34.9823571" lon="32.8745771">
<ele>1000.64</ele>
<time>2015-04-29T15:58:35Z</time>
</trkpt>
<trkpt lat="34.9824056" lon="32.8745921">
<ele>1000.01</ele>
<time>2015-04-29T15:58:40Z</time>
</trkpt>
<trkpt lat="34.9824496" lon="32.8745735">
<ele>1000.65</ele>
<time>2015-04-29T15:58:44Z</time>
</trkpt>
<trkpt lat="34.9824958" lon="32.8745700">
<ele>999.82</ele>
<time>2015-04-29T15:58:48Z</time>
</trkpt>
<trkpt lat="34.9825377" lon="32.8745468">
<ele>1001.33</ele>
<time>2015-04-29T15:58:52Z</time>
</trkpt>
<trkpt lat="34.9825858" lon="32.8745386">
<ele>1002.23</ele>
<time>2015-04-29T15:58:56Z</time>
</trkpt>
<trkpt lat="34.9826395" lon="32.8745202">
<ele>1004.59</ele>
<time>2015-04-29T15:59:01Z</time>
</trkpt>
<trkpt lat="34.9826849" lon="32.8744991">
<ele>1005.00</ele>
<time>2015-04-29T15:59:06Z</time>
</trkpt>
<trkpt lat="34.9827313" lon="32.8744690">
<ele>1005.52</ele>
<time>2015-04-29T15:59:11Z</time>
</trkpt>
<trkpt lat="34.9827711" lon="32.8744217">
<ele>1006.50</ele>
<time>2015-04-29T15:59:16Z</time>
</trkpt>
<trkpt lat="34.9828123" lon="32.8743835">
<ele>1006.31</ele>
<time>2015-04-29T15:59:21Z</time>
</trkpt>
<trkpt lat="34.9828312" lon="32.8743236">
<ele>1005.68</ele>
<time>2015-04-29T15:59:26Z</time>
</trkpt>
<trkpt lat="34.9828465" lon="32.8742707">
<ele>1006.32</ele>
<time>2015-04-29T15:59:30Z</time>
</trkpt>
<trkpt lat="34.9828606" lon="32.8742087">
<ele>1007.11</ele>
<time>2015-04-29T15:59:34Z</time>
</trkpt>
<trkpt lat="34.9828791" lon="32.8741515">
<ele>1009.34</ele>
<time>2015-04-29T15:59:38Z</time>
</trkpt>
<trkpt lat="34.9828996" lon="32.8740945">
<ele>1010.25</ele>
<time>2015-04-29T15:59:43Z</time>
</trkpt>
<trkpt lat="34.9829070" lon="32.8740294">
<ele>1010.74</ele>
<time>2015-04-29T15:59:48Z</time>
</trkpt>
<trkpt lat="34.9829145" lon="32.8739650">
<ele>1010.63</ele>
<time>2015-04-29T15:59:53Z</time>
</trkpt>
<trkpt lat="34.9829063" lon="32.8739060">
<ele>1011.69</ele>
<time>2015-04-29T15:59:57Z</time>
</trkpt>
<trkpt lat="34.9829019" lon="32.8738475">
<ele>1011.76</ele>
<time>2015-04-29T16:00:01Z</time>
</trkpt>
<trkpt lat="34.9829016" lon="32.8737921">
<ele>1011.51</ele>
<time>2015-04-29T16:00:05Z</time>
</trkpt>
<trkpt lat="34.9828984" lon="32.8737310">
<ele>1013.56</ele>
<time>2015-04-29T16:00:09Z</time>
</trkpt>
<trkpt lat="34.9828886" lon="32.8736691">
<ele>1013.75</ele>
<time>2015-04-29T16:00:13Z</time>
</trkpt>
<trkpt lat="34.9828846" lon="32.8736065">
<ele>1015.13</ele>
<time>2015-04-29T16:00:17Z</time>
</trkpt>
<trkpt lat="34.9828771" lon="32.8735374">
<ele>1015.53</ele>
<time>2015-04-29T16:00:21Z</time>
</trkpt>
<trkpt lat="34.9828742" lon="32.8734678">
<ele>1017.43</ele>
<time>2015-04-29T16:00:25Z</time>
</trkpt>
<trkpt lat="34.9828894" lon="32.8734106">
<ele>1018.30</ele>
<time>2015-04-29T16:00:29Z</time>
</trkpt>
<trkpt lat="34.9828967" lon="32.8733539">
<ele>1019.67</ele>
<time>2015-04-29T16:00:33Z</time>
</trkpt>
<trkpt lat="34.9829034" lon="32.8732922">
<ele>1019.00</ele>
<time>2015-04-29T16:00:37Z</time>
</trkpt>
<trkpt lat="34.9829116" lon="32.8732309">
<ele>1019.65</ele>
<time>2015-04-29T16:00:41Z</time>
</trkpt>
<trkpt lat="34.9829224" lon="32.8731767">
<ele>1019.75</ele>
<time>2015-04-29T16:00:45Z</time>
</trkpt>
<trkpt lat="34.9829252" lon="32.8731210">
<ele>1019.26</ele>
<time>2015-04-29T16:00:49Z</time>
</trkpt>
<trkpt lat="34.9829296" lon="32.8730547">
<ele>1017.81</ele>
<time>2015-04-29T16:00:54Z</time>
</trkpt>
<trkpt lat="34.9829338" lon="32.8729884">
<ele>1019.01</ele>
<time>2015-04-29T16:00:59Z</time>
</trkpt>
<trkpt lat="34.9829529" lon="32.8729352">
<ele>1018.65</ele>
<time>2015-04-29T16:01:03Z</time>
</trkpt>
<trkpt lat="34.9829785" lon="32.8728771">
<ele>1018.75</ele>
<time>2015-04-29T16:01:07Z</time>
</trkpt>
<trkpt lat="34.9830060" lon="32.8728265">
<ele>1018.32</ele>
<time>2015-04-29T16:01:11Z</time>
</trkpt>
<trkpt lat="34.9830325" lon="32.8727746">
<ele>1018.73</ele>
<time>2015-04-29T16:01:15Z</time>
</trkpt>
<trkpt lat="34.9830603" lon="32.8727211">
<ele>1017.88</ele>
<time>2015-04-29T16:01:19Z</time>
</trkpt>
<trkpt lat="34.9830780" lon="32.8726657">
<ele>1017.77</ele>
<time>2015-04-29T16:01:23Z</time>
</trkpt>
<trkpt lat="34.9830842" lon="32.8725975">
<ele>1018.51</ele>
<time>2015-04-29T16:01:28Z</time>
</trkpt>
<trkpt lat="34.9830782" lon="32.8725429">
<ele>1019.37</ele>
<time>2015-04-29T16:01:32Z</time>
</trkpt>
<trkpt lat="34.9830711" lon="32.8724858">
<ele>1020.36</ele>
<time>2015-04-29T16:01:36Z</time>
</trkpt>
<trkpt lat="34.9830545" lon="32.8724192">
<ele>1022.11</ele>
<time>2015-04-29T16:01:40Z</time>
</trkpt>
<trkpt lat="34.9830346" lon="32.8723580">
<ele>1023.22</ele>
<time>2015-04-29T16:01:44Z</time>
</trkpt>
<trkpt lat="34.9829982" lon="32.8723114">
<ele>1023.98</ele>
<time>2015-04-29T16:01:48Z</time>
</trkpt>
<trkpt lat="34.9829596" lon="32.8722723">
<ele>1023.65</ele>
<time>2015-04-29T16:01:52Z</time>
</trkpt>
<trkpt lat="34.9829106" lon="32.8722466">
<ele>1022.88</ele>
<time>2015-04-29T16:01:56Z</time>
</trkpt>
<trkpt lat="34.9828654" lon="32.8722138">
<ele>1022.77</ele>
<time>2015-04-29T16:02:00Z</time>
</trkpt>
<trkpt lat="34.9828192" lon="32.8721822">
<ele>1024.45</ele>
<time>2015-04-29T16:02:04Z</time>
</trkpt>
<trkpt lat="34.9827705" lon="32.8721550">
<ele>1023.49</ele>
<time>2015-04-29T16:02:08Z</time>
</trkpt>
<trkpt lat="34.9827513" lon="32.8721024">
<ele>1025.65</ele>
<time>2015-04-29T16:10:15Z</time>
</trkpt>
<trkpt lat="34.9827012" lon="32.8720714">
<ele>1027.60</ele>
<time>2015-04-29T16:10:20Z</time>
</trkpt>
<trkpt lat="34.9826681" lon="32.8720312">
<ele>1029.44</ele>
<time>2015-04-29T16:10:24Z</time>
</trkpt>
<trkpt lat="34.9826532" lon="32.8719766">
<ele>1029.74</ele>
<time>2015-04-29T16:10:28Z</time>
</trkpt>
<trkpt lat="34.9826291" lon="32.8719174">
<ele>1029.76</ele>
<time>2015-04-29T16:10:33Z</time>
</trkpt>
<trkpt lat="34.9826003" lon="32.8718719">
<ele>1030.51</ele>
<time>2015-04-29T16:10:37Z</time>
</trkpt>
<trkpt lat="34.9825912" lon="32.8718080">
<ele>1030.38</ele>
<time>2015-04-29T16:10:42Z</time>
</trkpt>
<trkpt lat="34.9825927" lon="32.8717518">
<ele>1030.74</ele>
<time>2015-04-29T16:10:46Z</time>
</trkpt>
<trkpt lat="34.9825943" lon="32.8716933">
<ele>1031.63</ele>
<time>2015-04-29T16:10:50Z</time>
</trkpt>
<trkpt lat="34.9825998" lon="32.8716351">
<ele>1030.88</ele>
<time>2015-04-29T16:10:54Z</time>
</trkpt>
<trkpt lat="34.9826019" lon="32.8715796">
<ele>1031.70</ele>
<time>2015-04-29T16:10:58Z</time>
</trkpt>
<trkpt lat="34.9826036" lon="32.8715130">
<ele>1031.76</ele>
<time>2015-04-29T16:11:03Z</time>
</trkpt>
<trkpt lat="34.9826233" lon="32.8714491">
<ele>1032.51</ele>
<time>2015-04-29T16:11:08Z</time>
</trkpt>
<trkpt lat="34.9826344" lon="32.8713830">
<ele>1032.75</ele>
<time>2015-04-29T16:11:13Z</time>
</trkpt>
<trkpt lat="34.9826432" lon="32.8713160">
<ele>1033.26</ele>
<time>2015-04-29T16:11:18Z</time>
</trkpt>
<trkpt lat="34.9826712" lon="32.8712676">
<ele>1034.60</ele>
<time>2015-04-29T16:11:22Z</time>
</trkpt>
<trkpt lat="34.9826828" lon="32.8712084">
<ele>1034.75</ele>
<time>2015-04-29T16:11:26Z</time>
</trkpt>
<trkpt lat="34.9827000" lon="32.8711534">
<ele>1035.57</ele>
<time>2015-04-29T16:11:30Z</time>
</trkpt>
<trkpt lat="34.9827148" lon="32.8710976">
<ele>1036.50</ele>
<time>2015-04-29T16:11:34Z</time>
</trkpt>
<trkpt lat="34.9827235" lon="32.8710393">
<ele>1036.74</ele>
<time>2015-04-29T16:11:38Z</time>
</trkpt>
<trkpt lat="34.9827353" lon="32.8709827">
<ele>1037.26</ele>
<time>2015-04-29T16:11:42Z</time>
</trkpt>
<trkpt lat="34.9827484" lon="32.8709278">
<ele>1037.73</ele>
<time>2015-04-29T16:11:46Z</time>
</trkpt>
<trkpt lat="34.9827583" lon="32.8708702">
<ele>1037.76</ele>
<time>2015-04-29T16:11:50Z</time>
</trkpt>
<trkpt lat="34.9827578" lon="32.8708094">
<ele>1038.70</ele>
<time>2015-04-29T16:11:54Z</time>
</trkpt>
<trkpt lat="34.9827661" lon="32.8707476">
<ele>1039.26</ele>
<time>2015-04-29T16:11:58Z</time>
</trkpt>
<trkpt lat="34.9827693" lon="32.8706904">
<ele>1039.73</ele>
<time>2015-04-29T16:12:02Z</time>
</trkpt>
<trkpt lat="34.9827676" lon="32.8706326">
<ele>1039.76</ele>
<time>2015-04-29T16:12:06Z</time>
</trkpt>
<trkpt lat="34.9827730" lon="32.8705762">
<ele>1040.32</ele>
<time>2015-04-29T16:12:10Z</time>
</trkpt>
<trkpt lat="34.9827854" lon="32.8705228">
<ele>1040.73</ele>
<time>2015-04-29T16:12:14Z</time>
</trkpt>
<trkpt lat="34.9827970" lon="32.8704621">
<ele>1041.26</ele>
<time>2015-04-29T16:12:19Z</time>
</trkpt>
<trkpt lat="34.9828280" lon="32.8704209">
<ele>1042.23</ele>
<time>2015-04-29T16:12:23Z</time>
</trkpt>
<trkpt lat="34.9828278" lon="32.8703644">
<ele>1041.79</ele>
<time>2015-04-29T16:12:27Z</time>
</trkpt>
<trkpt lat="34.9828772" lon="32.8703342">
<ele>1041.76</ele>
<time>2015-04-29T16:12:32Z</time>
</trkpt>
<trkpt lat="34.9828954" lon="32.8702799">
<ele>1041.76</ele>
<time>2015-04-29T16:12:36Z</time>
</trkpt>
<trkpt lat="34.9829172" lon="32.8702232">
<ele>1041.76</ele>
<time>2015-04-29T16:12:40Z</time>
</trkpt>
<trkpt lat="34.9829442" lon="32.8701714">
<ele>1042.26</ele>
<time>2015-04-29T16:12:44Z</time>
</trkpt>
<trkpt lat="34.9829827" lon="32.8701324">
<ele>1042.73</ele>
<time>2015-04-29T16:12:48Z</time>
</trkpt>
<trkpt lat="34.9830184" lon="32.8700872">
<ele>1043.51</ele>
<time>2015-04-29T16:12:52Z</time>
</trkpt>
<trkpt lat="34.9830494" lon="32.8700435">
<ele>1043.74</ele>
<time>2015-04-29T16:12:56Z</time>
</trkpt>
<trkpt lat="34.9830902" lon="32.8699970">
<ele>1043.76</ele>
<time>2015-04-29T16:13:01Z</time>
</trkpt>
<trkpt lat="34.9831311" lon="32.8699569">
<ele>1043.76</ele>
<time>2015-04-29T16:13:06Z</time>
</trkpt>
<trkpt lat="34.9831556" lon="32.8699039">
<ele>1044.67</ele>
<time>2015-04-29T16:13:12Z</time>
</trkpt>
<trkpt lat="34.9831791" lon="32.8698481">
<ele>1045.63</ele>
<time>2015-04-29T16:13:18Z</time>
</trkpt>
<trkpt lat="34.9832045" lon="32.8697982">
<ele>1046.26</ele>
<time>2015-04-29T16:13:24Z</time>
</trkpt>
<trkpt lat="34.9832296" lon="32.8697454">
<ele>1047.38</ele>
<time>2015-04-29T16:13:30Z</time>
</trkpt>
<trkpt lat="34.9832524" lon="32.8696917">
<ele>1048.25</ele>
<time>2015-04-29T16:13:36Z</time>
</trkpt>
<trkpt lat="34.9832846" lon="32.8696456">
<ele>1049.69</ele>
<time>2015-04-29T16:13:42Z</time>
</trkpt>
<trkpt lat="34.9832932" lon="32.8695836">
<ele>1049.38</ele>
<time>2015-04-29T16:13:48Z</time>
</trkpt>
<trkpt lat="34.9833069" lon="32.8695310">
<ele>1049.75</ele>
<time>2015-04-29T16:13:53Z</time>
</trkpt>
<trkpt lat="34.9833325" lon="32.8694813">
<ele>1050.70</ele>
<time>2015-04-29T16:13:58Z</time>
</trkpt>
<trkpt lat="34.9833525" lon="32.8694319">
<ele>1051.26</ele>
<time>2015-04-29T16:14:03Z</time>
</trkpt>
<trkpt lat="34.9833626" lon="32.8693779">
<ele>1050.81</ele>
<time>2015-04-29T16:14:08Z</time>
</trkpt>
<trkpt lat="34.9833814" lon="32.8693229">
<ele>1051.67</ele>
<time>2015-04-29T16:14:13Z</time>
</trkpt>
<trkpt lat="34.9833967" lon="32.8692694">
<ele>1051.76</ele>
<time>2015-04-29T16:14:18Z</time>
</trkpt>
<trkpt lat="34.9833964" lon="32.8692108">
<ele>1052.01</ele>
<time>2015-04-29T16:14:23Z</time>
</trkpt>
<trkpt lat="34.9834054" lon="32.8691471">
<ele>1053.00</ele>
<time>2015-04-29T16:14:29Z</time>
</trkpt>
<trkpt lat="34.9834022" lon="32.8690879">
<ele>1052.80</ele>
<time>2015-04-29T16:14:34Z</time>
</trkpt>
<trkpt lat="34.9834017" lon="32.8690259">
<ele>1053.39</ele>
<time>2015-04-29T16:14:39Z</time>
</trkpt>
<trkpt lat="34.9833816" lon="32.8689654">
<ele>1053.75</ele>
<time>2015-04-29T16:14:44Z</time>
</trkpt>
<trkpt lat="34.9833661" lon="32.8689001">
<ele>1054.64</ele>
<time>2015-04-29T16:14:54Z</time>
</trkpt>
<trkpt lat="34.9833478" lon="32.8688387">
<ele>1054.75</ele>
<time>2015-04-29T16:14:58Z</time>
</trkpt>
<trkpt lat="34.9833315" lon="32.8687787">
<ele>1055.70</ele>
<time>2015-04-29T16:15:02Z</time>
</trkpt>
<trkpt lat="34.9833103" lon="32.8687230">
<ele>1055.76</ele>
<time>2015-04-29T16:15:06Z</time>
</trkpt>
<trkpt lat="34.9832888" lon="32.8686693">
<ele>1056.70</ele>
<time>2015-04-29T16:15:10Z</time>
</trkpt>
<trkpt lat="34.9832713" lon="32.8686163">
<ele>1057.69</ele>
<time>2015-04-29T16:15:14Z</time>
</trkpt>
<trkpt lat="34.9832441" lon="32.8685668">
<ele>1057.76</ele>
<time>2015-04-29T16:15:18Z</time>
</trkpt>
<trkpt lat="34.9832180" lon="32.8685168">
<ele>1058.51</ele>
<time>2015-04-29T16:15:22Z</time>
</trkpt>
<trkpt lat="34.9831944" lon="32.8684656">
<ele>1058.74</ele>
<time>2015-04-29T16:15:26Z</time>
</trkpt>
<trkpt lat="34.9831702" lon="32.8684177">
<ele>1058.76</ele>
<time>2015-04-29T16:15:30Z</time>
</trkpt>
<trkpt lat="34.9831391" lon="32.8683751">
<ele>1059.63</ele>
<time>2015-04-29T16:15:34Z</time>
</trkpt>
<trkpt lat="34.9830967" lon="32.8683310">
<ele>1059.76</ele>
<time>2015-04-29T16:15:39Z</time>
</trkpt>
<trkpt lat="34.9830582" lon="32.8683017">
<ele>1060.63</ele>
<time>2015-04-29T16:15:43Z</time>
</trkpt>
<trkpt lat="34.9830136" lon="32.8682794">
<ele>1060.75</ele>
<time>2015-04-29T16:15:47Z</time>
</trkpt>
<trkpt lat="34.9829676" lon="32.8682580">
<ele>1061.26</ele>
<time>2015-04-29T16:15:51Z</time>
</trkpt>
<trkpt lat="34.9829229" lon="32.8682344">
<ele>1061.73</ele>
<time>2015-04-29T16:15:55Z</time>
</trkpt>
<trkpt lat="34.9828757" lon="32.8682162">
<ele>1062.70</ele>
<time>2015-04-29T16:15:59Z</time>
</trkpt>
<trkpt lat="34.9828314" lon="32.8681952">
<ele>1063.19</ele>
<time>2015-04-29T16:16:03Z</time>
</trkpt>
<trkpt lat="34.9827854" lon="32.8681758">
<ele>1063.72</ele>
<time>2015-04-29T16:16:07Z</time>
</trkpt>
<trkpt lat="34.9827380" lon="32.8681537">
<ele>1064.26</ele>
<time>2015-04-29T16:16:11Z</time>
</trkpt>
<trkpt lat="34.9826888" lon="32.8681390">
<ele>1065.60</ele>
<time>2015-04-29T16:16:15Z</time>
</trkpt>
<trkpt lat="34.9826419" lon="32.8681203">
<ele>1066.25</ele>
<time>2015-04-29T16:16:19Z</time>
</trkpt>
<trkpt lat="34.9825920" lon="32.8681129">
<ele>1067.48</ele>
<time>2015-04-29T16:16:23Z</time>
</trkpt>
<trkpt lat="34.9825459" lon="32.8681029">
<ele>1068.12</ele>
<time>2015-04-29T16:16:27Z</time>
</trkpt>
<trkpt lat="34.9824969" lon="32.8680971">
<ele>1068.72</ele>
<time>2015-04-29T16:16:31Z</time>
</trkpt>
<trkpt lat="34.9824461" lon="32.8680866">
<ele>1070.38</ele>
<time>2015-04-29T16:16:35Z</time>
</trkpt>
<trkpt lat="34.9823962" lon="32.8680698">
<ele>1071.24</ele>
<time>2015-04-29T16:16:39Z</time>
</trkpt>
<trkpt lat="34.9823511" lon="32.8680511">
<ele>1071.66</ele>
<time>2015-04-29T16:16:43Z</time>
</trkpt>
<trkpt lat="34.9823100" lon="32.8680220">
<ele>1072.25</ele>
<time>2015-04-29T16:16:47Z</time>
</trkpt>
<trkpt lat="34.9822657" lon="32.8679981">
<ele>1072.42</ele>
<time>2015-04-29T16:16:51Z</time>
</trkpt>
<trkpt lat="34.9822196" lon="32.8679834">
<ele>1070.93</ele>
<time>2015-04-29T16:16:55Z</time>
</trkpt>
<trkpt lat="34.9821753" lon="32.8679617">
<ele>1070.77</ele>
<time>2015-04-29T16:16:59Z</time>
</trkpt>
<trkpt lat="34.9821232" lon="32.8679363">
<ele>1068.73</ele>
<time>2015-04-29T16:17:04Z</time>
</trkpt>
<trkpt lat="34.9820801" lon="32.8679079">
<ele>1069.63</ele>
<time>2015-04-29T16:17:08Z</time>
</trkpt>
<trkpt lat="34.9820420" lon="32.8678768">
<ele>1069.75</ele>
<time>2015-04-29T16:17:12Z</time>
</trkpt>
<trkpt lat="34.9820017" lon="32.8678498">
<ele>1069.76</ele>
<time>2015-04-29T16:17:16Z</time>
</trkpt>
<trkpt lat="34.9819648" lon="32.8678151">
<ele>1071.39</ele>
<time>2015-04-29T16:17:20Z</time>
</trkpt>
<trkpt lat="34.9819241" lon="32.8677862">
<ele>1071.74</ele>
<time>2015-04-29T16:17:24Z</time>
</trkpt>
<trkpt lat="34.9818815" lon="32.8677437">
<ele>1071.95</ele>
<time>2015-04-29T16:17:29Z</time>
</trkpt>
<trkpt lat="34.9818410" lon="32.8676999">
<ele>1072.70</ele>
<time>2015-04-29T16:17:34Z</time>
</trkpt>
<trkpt lat="34.9818116" lon="32.8676466">
<ele>1074.32</ele>
<time>2015-04-29T16:17:39Z</time>
</trkpt>
<trkpt lat="34.9817884" lon="32.8675896">
<ele>1075.62</ele>
<time>2015-04-29T16:17:44Z</time>
</trkpt>
<trkpt lat="34.9817656" lon="32.8675304">
<ele>1076.47</ele>
<time>2015-04-29T16:17:49Z</time>
</trkpt>
<trkpt lat="34.9817499" lon="32.8674644">
<ele>1077.06</ele>
<time>2015-04-29T16:17:54Z</time>
</trkpt>
<trkpt lat="34.9817435" lon="32.8674090">
<ele>1078.88</ele>
<time>2015-04-29T16:18:01Z</time>
</trkpt>
<trkpt lat="34.9817635" lon="32.8673478">
<ele>1078.77</ele>
<time>2015-04-29T16:18:05Z</time>
</trkpt>
<trkpt lat="34.9817682" lon="32.8672892">
<ele>1078.01</ele>
<time>2015-04-29T16:18:08Z</time>
</trkpt>
<trkpt lat="34.9817675" lon="32.8672146">
<ele>1078.65</ele>
<time>2015-04-29T16:18:12Z</time>
</trkpt>
<trkpt lat="34.9817787" lon="32.8671540">
<ele>1079.25</ele>
<time>2015-04-29T16:18:15Z</time>
</trkpt>
<trkpt lat="34.9818066" lon="32.8670943">
<ele>1079.70</ele>
<time>2015-04-29T16:18:18Z</time>
</trkpt>
<trkpt lat="34.9818315" lon="32.8670361">
<ele>1079.50</ele>
<time>2015-04-29T16:18:21Z</time>
</trkpt>
<trkpt lat="34.9818635" lon="32.8669796">
<ele>1080.23</ele>
<time>2015-04-29T16:18:24Z</time>
</trkpt>
<trkpt lat="34.9818978" lon="32.8669280">
<ele>1080.07</ele>
<time>2015-04-29T16:18:27Z</time>
</trkpt>
<trkpt lat="34.9819288" lon="32.8668764">
<ele>1079.80</ele>
<time>2015-04-29T16:18:30Z</time>
</trkpt>
<trkpt lat="34.9819638" lon="32.8668302">
<ele>1079.01</ele>
<time>2015-04-29T16:18:33Z</time>
</trkpt>
<trkpt lat="34.9820012" lon="32.8667848">
<ele>1079.67</ele>
<time>2015-04-29T16:18:36Z</time>
</trkpt>
<trkpt lat="34.9820405" lon="32.8667394">
<ele>1080.50</ele>
<time>2015-04-29T16:18:39Z</time>
</trkpt>
<trkpt lat="34.9820804" lon="32.8666945">
<ele>1080.73</ele>
<time>2015-04-29T16:18:42Z</time>
</trkpt>
<trkpt lat="34.9821194" lon="32.8666582">
<ele>1080.26</ele>
<time>2015-04-29T16:18:45Z</time>
</trkpt>
<trkpt lat="34.9821567" lon="32.8666195">
<ele>1080.70</ele>
<time>2015-04-29T16:18:48Z</time>
</trkpt>
<trkpt lat="34.9821924" lon="32.8665842">
<ele>1080.38</ele>
<time>2015-04-29T16:18:51Z</time>
</trkpt>
<trkpt lat="34.9822229" lon="32.8665397">
<ele>1080.71</ele>
<time>2015-04-29T16:18:54Z</time>
</trkpt>
<trkpt lat="34.9822574" lon="32.8665013">
<ele>1080.88</ele>
<time>2015-04-29T16:18:57Z</time>
</trkpt>
<trkpt lat="34.9823008" lon="32.8664528">
<ele>1080.02</ele>
<time>2015-04-29T16:19:01Z</time>
</trkpt>
<trkpt lat="34.9823366" lon="32.8664192">
<ele>1079.92</ele>
<time>2015-04-29T16:19:04Z</time>
</trkpt>
<trkpt lat="34.9823823" lon="32.8663755">
<ele>1080.71</ele>
<time>2015-04-29T16:19:08Z</time>
</trkpt>
<trkpt lat="34.9824275" lon="32.8663300">
<ele>1081.26</ele>
<time>2015-04-29T16:19:12Z</time>
</trkpt>
<trkpt lat="34.9824614" lon="32.8662928">
<ele>1082.20</ele>
<time>2015-04-29T16:19:15Z</time>
</trkpt>
<trkpt lat="34.9824918" lon="32.8662509">
<ele>1082.69</ele>
<time>2015-04-29T16:19:18Z</time>
</trkpt>
<trkpt lat="34.9825340" lon="32.8661999">
<ele>1083.69</ele>
<time>2015-04-29T16:19:22Z</time>
</trkpt>
<trkpt lat="34.9825716" lon="32.8661694">
<ele>1083.75</ele>
<time>2015-04-29T16:19:25Z</time>
</trkpt>
<trkpt lat="34.9826176" lon="32.8661240">
<ele>1084.26</ele>
<time>2015-04-29T16:19:29Z</time>
</trkpt>
<trkpt lat="34.9826611" lon="32.8660788">
<ele>1084.85</ele>
<time>2015-04-29T16:19:33Z</time>
</trkpt>
<trkpt lat="34.9827035" lon="32.8660308">
<ele>1085.70</ele>
<time>2015-04-29T16:19:37Z</time>
</trkpt>
<trkpt lat="34.9827420" lon="32.8659792">
<ele>1086.51</ele>
<time>2015-04-29T16:19:41Z</time>
</trkpt>
<trkpt lat="34.9827744" lon="32.8659205">
<ele>1086.74</ele>
<time>2015-04-29T16:19:45Z</time>
</trkpt>
<trkpt lat="34.9827954" lon="32.8658715">
<ele>1086.76</ele>
<time>2015-04-29T16:19:48Z</time>
</trkpt>
<trkpt lat="34.9828144" lon="32.8658203">
<ele>1087.63</ele>
<time>2015-04-29T16:19:51Z</time>
</trkpt>
<trkpt lat="34.9828365" lon="32.8657695">
<ele>1087.75</ele>
<time>2015-04-29T16:19:55Z</time>
</trkpt>
<trkpt lat="34.9828692" lon="32.8657237">
<ele>1088.70</ele>
<time>2015-04-29T16:19:59Z</time>
</trkpt>
<trkpt lat="34.9828910" lon="32.8656692">
<ele>1088.76</ele>
<time>2015-04-29T16:20:03Z</time>
</trkpt>
<trkpt lat="34.9829167" lon="32.8656160">
<ele>1089.26</ele>
<time>2015-04-29T16:20:07Z</time>
</trkpt>
<trkpt lat="34.9829473" lon="32.8655571">
<ele>1090.24</ele>
<time>2015-04-29T16:20:12Z</time>
</trkpt>
<trkpt lat="34.9829758" lon="32.8655072">
<ele>1090.73</ele>
<time>2015-04-29T16:20:16Z</time>
</trkpt>
<trkpt lat="34.9830142" lon="32.8654629">
<ele>1091.26</ele>
<time>2015-04-29T16:20:22Z</time>
</trkpt>
<trkpt lat="34.9830302" lon="32.8654069">
<ele>1092.49</ele>
<time>2015-04-29T16:20:27Z</time>
</trkpt>
<trkpt lat="34.9830601" lon="32.8653602">
<ele>1092.72</ele>
<time>2015-04-29T16:20:32Z</time>
</trkpt>
<trkpt lat="34.9830802" lon="32.8653027">
<ele>1092.76</ele>
<time>2015-04-29T16:20:37Z</time>
</trkpt>
<trkpt lat="34.9831117" lon="32.8652496">
<ele>1092.76</ele>
<time>2015-04-29T16:20:42Z</time>
</trkpt>
<trkpt lat="34.9831368" lon="32.8651922">
<ele>1092.76</ele>
<time>2015-04-29T16:20:47Z</time>
</trkpt>
<trkpt lat="34.9831532" lon="32.8651300">
<ele>1093.64</ele>
<time>2015-04-29T16:20:52Z</time>
</trkpt>
<trkpt lat="34.9831644" lon="32.8650635">
<ele>1094.69</ele>
<time>2015-04-29T16:20:57Z</time>
</trkpt>
<trkpt lat="34.9831680" lon="32.8650057">
<ele>1095.69</ele>
<time>2015-04-29T16:21:01Z</time>
</trkpt>
<trkpt lat="34.9831730" lon="32.8649427">
<ele>1096.51</ele>
<time>2015-04-29T16:21:05Z</time>
</trkpt>
<trkpt lat="34.9831689" lon="32.8648776">
<ele>1097.24</ele>
<time>2015-04-29T16:21:09Z</time>
</trkpt>
<trkpt lat="34.9831611" lon="32.8648152">
<ele>1097.73</ele>
<time>2015-04-29T16:21:13Z</time>
</trkpt>
<trkpt lat="34.9831622" lon="32.8647552">
<ele>1097.76</ele>
<time>2015-04-29T16:21:17Z</time>
</trkpt>
<trkpt lat="34.9831430" lon="32.8646975">
<ele>1099.45</ele>
<time>2015-04-29T16:21:21Z</time>
</trkpt>
<trkpt lat="34.9831284" lon="32.8646383">
<ele>1098.99</ele>
<time>2015-04-29T16:21:25Z</time>
</trkpt>
<trkpt lat="34.9831158" lon="32.8645807">
<ele>1100.46</ele>
<time>2015-04-29T16:21:29Z</time>
</trkpt>
<trkpt lat="34.9830958" lon="32.8645266">
<ele>1101.49</ele>
<time>2015-04-29T16:21:33Z</time>
</trkpt>
<trkpt lat="34.9830945" lon="32.8644688">
<ele>1100.88</ele>
<time>2015-04-29T16:21:38Z</time>
</trkpt>
<trkpt lat="34.9830672" lon="32.8644092">
<ele>1101.64</ele>
<time>2015-04-29T16:21:44Z</time>
</trkpt>
<trkpt lat="34.9830588" lon="32.8643490">
<ele>1102.24</ele>
<time>2015-04-29T16:21:47Z</time>
</trkpt>
<trkpt lat="34.9830453" lon="32.8642856">
<ele>1102.73</ele>
<time>2015-04-29T16:21:51Z</time>
</trkpt>
<trkpt lat="34.9830186" lon="32.8642333">
<ele>1103.20</ele>
<time>2015-04-29T16:21:55Z</time>
</trkpt>
<trkpt lat="34.9830066" lon="32.8641764">
<ele>1104.60</ele>
<time>2015-04-29T16:21:59Z</time>
</trkpt>
<trkpt lat="34.9829968" lon="32.8641176">
<ele>1105.25</ele>
<time>2015-04-29T16:22:03Z</time>
</trkpt>
<trkpt lat="34.9829825" lon="32.8640580">
<ele>1106.23</ele>
<time>2015-04-29T16:22:07Z</time>
</trkpt>
<trkpt lat="34.9829578" lon="32.8640014">
<ele>1106.73</ele>
<time>2015-04-29T16:22:11Z</time>
</trkpt>
<trkpt lat="34.9829398" lon="32.8639441">
<ele>1107.63</ele>
<time>2015-04-29T16:22:15Z</time>
</trkpt>
<trkpt lat="34.9829396" lon="32.8638801">
<ele>1108.63</ele>
<time>2015-04-29T16:22:19Z</time>
</trkpt>
<trkpt lat="34.9829362" lon="32.8638226">
<ele>1109.00</ele>
<time>2015-04-29T16:22:23Z</time>
</trkpt>
<trkpt lat="34.9829164" lon="32.8637710">
<ele>1108.78</ele>
<time>2015-04-29T16:22:27Z</time>
</trkpt>
<trkpt lat="34.9828951" lon="32.8637121">
<ele>1109.26</ele>
<time>2015-04-29T16:22:31Z</time>
</trkpt>
<trkpt lat="34.9828756" lon="32.8636573">
<ele>1109.73</ele>
<time>2015-04-29T16:22:35Z</time>
</trkpt>
<trkpt lat="34.9828499" lon="32.8636011">
<ele>1110.63</ele>
<time>2015-04-29T16:22:40Z</time>
</trkpt>
<trkpt lat="34.9828323" lon="32.8635483">
<ele>1110.75</ele>
<time>2015-04-29T16:22:44Z</time>
</trkpt>
<trkpt lat="34.9828142" lon="32.8634946">
<ele>1111.26</ele>
<time>2015-04-29T16:22:48Z</time>
</trkpt>
<trkpt lat="34.9827936" lon="32.8634386">
<ele>1111.73</ele>
<time>2015-04-29T16:22:52Z</time>
</trkpt>
<trkpt lat="34.9827733" lon="32.8633808">
<ele>1111.76</ele>
<time>2015-04-29T16:22:56Z</time>
</trkpt>
<trkpt lat="34.9827606" lon="32.8633232">
<ele>1111.76</ele>
<time>2015-04-29T16:23:00Z</time>
</trkpt>
<trkpt lat="34.9827496" lon="32.8632670">
<ele>1111.76</ele>
<time>2015-04-29T16:23:04Z</time>
</trkpt>
<trkpt lat="34.9827467" lon="32.8632069">
<ele>1111.76</ele>
<time>2015-04-29T16:23:08Z</time>
</trkpt>
<trkpt lat="34.9827426" lon="32.8631485">
<ele>1111.76</ele>
<time>2015-04-29T16:23:12Z</time>
</trkpt>
<trkpt lat="34.9827362" lon="32.8630921">
<ele>1111.76</ele>
<time>2015-04-29T16:23:16Z</time>
</trkpt>
<trkpt lat="34.9827363" lon="32.8630323">
<ele>1112.64</ele>
<time>2015-04-29T16:23:20Z</time>
</trkpt>
<trkpt lat="34.9827312" lon="32.8629746">
<ele>1112.75</ele>
<time>2015-04-29T16:23:24Z</time>
</trkpt>
<trkpt lat="34.9827250" lon="32.8629132">
<ele>1113.70</ele>
<time>2015-04-29T16:23:28Z</time>
</trkpt>
<trkpt lat="34.9827233" lon="32.8628493">
<ele>1114.57</ele>
<time>2015-04-29T16:23:32Z</time>
</trkpt>
<trkpt lat="34.9827266" lon="32.8627842">
<ele>1113.97</ele>
<time>2015-04-29T16:23:37Z</time>
</trkpt>
<trkpt lat="34.9827322" lon="32.8627176">
<ele>1113.58</ele>
<time>2015-04-29T16:23:42Z</time>
</trkpt>
<trkpt lat="34.9827348" lon="32.8626626">
<ele>1114.74</ele>
<time>2015-04-29T16:23:53Z</time>
</trkpt>
<trkpt lat="34.9827382" lon="32.8626077">
<ele>1114.82</ele>
<time>2015-04-29T16:23:57Z</time>
</trkpt>
<trkpt lat="34.9827370" lon="32.8625500">
<ele>1114.76</ele>
<time>2015-04-29T16:24:01Z</time>
</trkpt>
<trkpt lat="34.9827420" lon="32.8624822">
<ele>1115.51</ele>
<time>2015-04-29T16:24:05Z</time>
</trkpt>
<trkpt lat="34.9827528" lon="32.8624190">
<ele>1115.74</ele>
<time>2015-04-29T16:24:09Z</time>
</trkpt>
<trkpt lat="34.9827632" lon="32.8623625">
<ele>1116.67</ele>
<time>2015-04-29T16:24:14Z</time>
</trkpt>
<trkpt lat="34.9827765" lon="32.8623048">
<ele>1117.63</ele>
<time>2015-04-29T16:24:19Z</time>
</trkpt>
<trkpt lat="34.9827818" lon="32.8622486">
<ele>1117.76</ele>
<time>2015-04-29T16:24:24Z</time>
</trkpt>
<trkpt lat="34.9827972" lon="32.8621887">
<ele>1118.51</ele>
<time>2015-04-29T16:24:31Z</time>
</trkpt>
<trkpt lat="34.9828083" lon="32.8621318">
<ele>1119.00</ele>
<time>2015-04-29T16:24:36Z</time>
</trkpt>
<trkpt lat="34.9828188" lon="32.8620725">
<ele>1119.74</ele>
<time>2015-04-29T16:24:41Z</time>
</trkpt>
<trkpt lat="34.9828150" lon="32.8620078">
<ele>1119.82</ele>
<time>2015-04-29T16:24:46Z</time>
</trkpt>
<trkpt lat="34.9828267" lon="32.8619525">
<ele>1120.64</ele>
<time>2015-04-29T16:24:50Z</time>
</trkpt>
<trkpt lat="34.9828406" lon="32.8618920">
<ele>1121.26</ele>
<time>2015-04-29T16:24:55Z</time>
</trkpt>
<trkpt lat="34.9828601" lon="32.8618302">
<ele>1122.49</ele>
<time>2015-04-29T16:25:00Z</time>
</trkpt>
<trkpt lat="34.9828709" lon="32.8617667">
<ele>1122.00</ele>
<time>2015-04-29T16:25:05Z</time>
</trkpt>
<trkpt lat="34.9828771" lon="32.8617072">
<ele>1122.71</ele>
<time>2015-04-29T16:25:09Z</time>
</trkpt>
<trkpt lat="34.9828822" lon="32.8616485">
<ele>1122.76</ele>
<time>2015-04-29T16:25:13Z</time>
</trkpt>
<trkpt lat="34.9828949" lon="32.8615870">
<ele>1122.76</ele>
<time>2015-04-29T16:25:17Z</time>
</trkpt>
<trkpt lat="34.9828924" lon="32.8615280">
<ele>1123.01</ele>
<time>2015-04-29T16:25:21Z</time>
</trkpt>
<trkpt lat="34.9828930" lon="32.8614712">
<ele>1123.53</ele>
<time>2015-04-29T16:25:25Z</time>
</trkpt>
<trkpt lat="34.9829014" lon="32.8614132">
<ele>1124.70</ele>
<time>2015-04-29T16:25:34Z</time>
</trkpt>
<trkpt lat="34.9829093" lon="32.8613590">
<ele>1124.76</ele>
<time>2015-04-29T16:25:38Z</time>
</trkpt>
<trkpt lat="34.9829142" lon="32.8612946">
<ele>1125.70</ele>
<time>2015-04-29T16:25:43Z</time>
</trkpt>
<trkpt lat="34.9829210" lon="32.8612308">
<ele>1125.76</ele>
<time>2015-04-29T16:25:48Z</time>
</trkpt>
<trkpt lat="34.9829215" lon="32.8611663">
<ele>1126.51</ele>
<time>2015-04-29T16:25:53Z</time>
</trkpt>
<trkpt lat="34.9829226" lon="32.8611045">
<ele>1126.75</ele>
<time>2015-04-29T16:25:58Z</time>
</trkpt>
<trkpt lat="34.9829238" lon="32.8610416">
<ele>1127.70</ele>
<time>2015-04-29T16:26:03Z</time>
</trkpt>
<trkpt lat="34.9829248" lon="32.8609751">
<ele>1127.76</ele>
<time>2015-04-29T16:26:12Z</time>
</trkpt>
<trkpt lat="34.9829298" lon="32.8609143">
<ele>1128.64</ele>
<time>2015-04-29T16:26:17Z</time>
</trkpt>
<trkpt lat="34.9829296" lon="32.8608524">
<ele>1129.26</ele>
<time>2015-04-29T16:26:22Z</time>
</trkpt>
<trkpt lat="34.9829280" lon="32.8607881">
<ele>1129.74</ele>
<time>2015-04-29T16:26:27Z</time>
</trkpt>
<trkpt lat="34.9829193" lon="32.8607223">
<ele>1130.01</ele>
<time>2015-04-29T16:26:32Z</time>
</trkpt>
<trkpt lat="34.9829230" lon="32.8606544">
<ele>1130.99</ele>
<time>2015-04-29T16:26:37Z</time>
</trkpt>
<trkpt lat="34.9829308" lon="32.8605884">
<ele>1130.77</ele>
<time>2015-04-29T16:26:42Z</time>
</trkpt>
<trkpt lat="34.9829289" lon="32.8605330">
<ele>1130.82</ele>
<time>2015-04-29T16:26:47Z</time>
</trkpt>
<trkpt lat="34.9829327" lon="32.8604733">
<ele>1131.51</ele>
<time>2015-04-29T16:26:52Z</time>
</trkpt>
<trkpt lat="34.9829269" lon="32.8604134">
<ele>1132.63</ele>
<time>2015-04-29T16:26:57Z</time>
</trkpt>
<trkpt lat="34.9829267" lon="32.8603465">
<ele>1134.60</ele>
<time>2015-04-29T16:27:02Z</time>
</trkpt>
<trkpt lat="34.9829219" lon="32.8602834">
<ele>1133.88</ele>
<time>2015-04-29T16:27:07Z</time>
</trkpt>
<trkpt lat="34.9829123" lon="32.8602176">
<ele>1133.86</ele>
<time>2015-04-29T16:27:12Z</time>
</trkpt>
<trkpt lat="34.9829084" lon="32.8601605">
<ele>1135.20</ele>
<time>2015-04-29T16:27:16Z</time>
</trkpt>
<trkpt lat="34.9829102" lon="32.8601002">
<ele>1136.23</ele>
<time>2015-04-29T16:27:20Z</time>
</trkpt>
<trkpt lat="34.9829126" lon="32.8600334">
<ele>1136.74</ele>
<time>2015-04-29T16:27:25Z</time>
</trkpt>
<trkpt lat="34.9829128" lon="32.8599732">
<ele>1138.45</ele>
<time>2015-04-29T16:27:30Z</time>
</trkpt>
<trkpt lat="34.9829025" lon="32.8599166">
<ele>1138.75</ele>
<time>2015-04-29T16:27:35Z</time>
</trkpt>
<trkpt lat="34.9828990" lon="32.8598501">
<ele>1140.60</ele>
<time>2015-04-29T16:27:40Z</time>
</trkpt>
<trkpt lat="34.9829052" lon="32.8597880">
<ele>1140.72</ele>
<time>2015-04-29T16:27:45Z</time>
</trkpt>
<trkpt lat="34.9828837" lon="32.8597318">
<ele>1139.79</ele>
<time>2015-04-29T16:27:50Z</time>
</trkpt>
<trkpt lat="34.9828634" lon="32.8596767">
<ele>1140.14</ele>
<time>2015-04-29T16:27:55Z</time>
</trkpt>
<trkpt lat="34.9828586" lon="32.8596122">
<ele>1139.52</ele>
<time>2015-04-29T16:28:01Z</time>
</trkpt>
<trkpt lat="34.9828561" lon="32.8595552">
<ele>1138.81</ele>
<time>2015-04-29T16:28:06Z</time>
</trkpt>
<trkpt lat="34.9828611" lon="32.8594924">
<ele>1140.61</ele>
<time>2015-04-29T16:28:11Z</time>
</trkpt>
<trkpt lat="34.9828637" lon="32.8594289">
<ele>1140.57</ele>
<time>2015-04-29T16:28:16Z</time>
</trkpt>
<trkpt lat="34.9828600" lon="32.8593606">
<ele>1141.63</ele>
<time>2015-04-29T16:28:21Z</time>
</trkpt>
<trkpt lat="34.9828602" lon="32.8593037">
<ele>1142.50</ele>
<time>2015-04-29T16:28:25Z</time>
</trkpt>
<trkpt lat="34.9828509" lon="32.8592490">
<ele>1143.68</ele>
<time>2015-04-29T16:28:29Z</time>
</trkpt>
<trkpt lat="34.9828367" lon="32.8591876">
<ele>1143.76</ele>
<time>2015-04-29T16:28:34Z</time>
</trkpt>
<trkpt lat="34.9828247" lon="32.8591292">
<ele>1145.13</ele>
<time>2015-04-29T16:28:39Z</time>
</trkpt>
<trkpt lat="34.9828185" lon="32.8590689">
<ele>1146.24</ele>
<time>2015-04-29T16:28:44Z</time>
</trkpt>
<trkpt lat="34.9828136" lon="32.8590084">
<ele>1147.49</ele>
<time>2015-04-29T16:28:49Z</time>
</trkpt>
<trkpt lat="34.9828088" lon="32.8589471">
<ele>1148.50</ele>
<time>2015-04-29T16:28:54Z</time>
</trkpt>
<trkpt lat="34.9827961" lon="32.8588889">
<ele>1148.81</ele>
<time>2015-04-29T16:28:59Z</time>
</trkpt>
<trkpt lat="34.9827866" lon="32.8588275">
<ele>1149.26</ele>
<time>2015-04-29T16:29:04Z</time>
</trkpt>
<trkpt lat="34.9827680" lon="32.8587678">
<ele>1149.74</ele>
<time>2015-04-29T16:29:09Z</time>
</trkpt>
<trkpt lat="34.9827584" lon="32.8587130">
<ele>1150.63</ele>
<time>2015-04-29T16:29:13Z</time>
</trkpt>
<trkpt lat="34.9827398" lon="32.8586566">
<ele>1150.76</ele>
<time>2015-04-29T16:29:18Z</time>
</trkpt>
<trkpt lat="34.9827246" lon="32.8585934">
<ele>1151.73</ele>
<time>2015-04-29T16:29:24Z</time>
</trkpt>
<trkpt lat="34.9827074" lon="32.8585390">
<ele>1151.76</ele>
<time>2015-04-29T16:29:29Z</time>
</trkpt>
<trkpt lat="34.9826994" lon="32.8584770">
<ele>1151.76</ele>
<time>2015-04-29T16:29:34Z</time>
</trkpt>
<trkpt lat="34.9826717" lon="32.8584199">
<ele>1151.01</ele>
<time>2015-04-29T16:29:39Z</time>
</trkpt>
<trkpt lat="34.9826491" lon="32.8583659">
<ele>1150.77</ele>
<time>2015-04-29T16:29:44Z</time>
</trkpt>
<trkpt lat="34.9826287" lon="32.8583063">
<ele>1150.76</ele>
<time>2015-04-29T16:29:49Z</time>
</trkpt>
<trkpt lat="34.9826454" lon="32.8582486">
<ele>1151.14</ele>
<time>2015-04-29T16:29:54Z</time>
</trkpt>
<trkpt lat="34.9826469" lon="32.8581936">
<ele>1152.30</ele>
<time>2015-04-29T16:29:59Z</time>
</trkpt>
<trkpt lat="34.9826357" lon="32.8581327">
<ele>1152.75</ele>
<time>2015-04-29T16:30:05Z</time>
</trkpt>
<trkpt lat="34.9826160" lon="32.8580774">
<ele>1154.26</ele>
<time>2015-04-29T16:31:57Z</time>
</trkpt>
<trkpt lat="34.9825912" lon="32.8580301">
<ele>1154.49</ele>
<time>2015-04-29T16:32:02Z</time>
</trkpt>
<trkpt lat="34.9825570" lon="32.8579797">
<ele>1155.12</ele>
<time>2015-04-29T16:32:08Z</time>
</trkpt>
<trkpt lat="34.9825244" lon="32.8579373">
<ele>1154.97</ele>
<time>2015-04-29T16:32:14Z</time>
</trkpt>
<trkpt lat="34.9824716" lon="32.8579454">
<ele>1153.51</ele>
<time>2015-04-29T16:35:32Z</time>
</trkpt>
<trkpt lat="34.9824246" lon="32.8579563">
<ele>1154.12</ele>
<time>2015-04-29T16:35:36Z</time>
</trkpt>
<trkpt lat="34.9823765" lon="32.8579406">
<ele>1154.53</ele>
<time>2015-04-29T16:35:40Z</time>
</trkpt>
<trkpt lat="34.9823209" lon="32.8579168">
<ele>1154.18</ele>
<time>2015-04-29T16:35:44Z</time>
</trkpt>
<trkpt lat="34.9822733" lon="32.8579052">
<ele>1153.81</ele>
<time>2015-04-29T16:35:47Z</time>
</trkpt>
<trkpt lat="34.9822281" lon="32.8578886">
<ele>1154.89</ele>
<time>2015-04-29T16:35:50Z</time>
</trkpt>
<trkpt lat="34.9821864" lon="32.8578613">
<ele>1154.78</ele>
<time>2015-04-29T16:35:53Z</time>
</trkpt>
<trkpt lat="34.9821333" lon="32.8578476">
<ele>1154.76</ele>
<time>2015-04-29T16:35:57Z</time>
</trkpt>
<trkpt lat="34.9820783" lon="32.8578286">
<ele>1157.07</ele>
<time>2015-04-29T16:36:01Z</time>
</trkpt>
<trkpt lat="34.9820256" lon="32.8578137">
<ele>1156.78</ele>
<time>2015-04-29T16:36:05Z</time>
</trkpt>
<trkpt lat="34.9819712" lon="32.8577941">
<ele>1157.51</ele>
<time>2015-04-29T16:36:09Z</time>
</trkpt>
<trkpt lat="34.9819168" lon="32.8577733">
<ele>1158.62</ele>
<time>2015-04-29T16:36:13Z</time>
</trkpt>
<trkpt lat="34.9818613" lon="32.8577630">
<ele>1158.75</ele>
<time>2015-04-29T16:36:17Z</time>
</trkpt>
<trkpt lat="34.9818115" lon="32.8577556">
<ele>1158.01</ele>
<time>2015-04-29T16:36:21Z</time>
</trkpt>
<trkpt lat="34.9817606" lon="32.8577521">
<ele>1157.99</ele>
<time>2015-04-29T16:36:26Z</time>
</trkpt>
<trkpt lat="34.9817089" lon="32.8577626">
<ele>1157.61</ele>
<time>2015-04-29T16:36:31Z</time>
</trkpt>
<trkpt lat="34.9816692" lon="32.8577933">
<ele>1157.75</ele>
<time>2015-04-29T16:36:35Z</time>
</trkpt>
<trkpt lat="34.9816217" lon="32.8578152">
<ele>1157.38</ele>
<time>2015-04-29T16:36:39Z</time>
</trkpt>
<trkpt lat="34.9815679" lon="32.8578265">
<ele>1158.67</ele>
<time>2015-04-29T16:36:43Z</time>
</trkpt>
<trkpt lat="34.9815129" lon="32.8578465">
<ele>1159.50</ele>
<time>2015-04-29T16:36:47Z</time>
</trkpt>
<trkpt lat="34.9814652" lon="32.8578576">
<ele>1159.73</ele>
<time>2015-04-29T16:36:50Z</time>
</trkpt>
<trkpt lat="34.9814098" lon="32.8578832">
<ele>1159.82</ele>
<time>2015-04-29T16:36:54Z</time>
</trkpt>
<trkpt lat="34.9813663" lon="32.8578985">
<ele>1158.89</ele>
<time>2015-04-29T16:36:57Z</time>
</trkpt>
<trkpt lat="34.9813156" lon="32.8579163">
<ele>1158.39</ele>
<time>2015-04-29T16:37:01Z</time>
</trkpt>
<trkpt lat="34.9812594" lon="32.8579331">
<ele>1159.49</ele>
<time>2015-04-29T16:37:05Z</time>
</trkpt>
<trkpt lat="34.9812095" lon="32.8579385">
<ele>1160.60</ele>
<time>2015-04-29T16:37:08Z</time>
</trkpt>
<trkpt lat="34.9811603" lon="32.8579453">
<ele>1161.24</ele>
<time>2015-04-29T16:37:11Z</time>
</trkpt>
<trkpt lat="34.9811030" lon="32.8579384">
<ele>1161.73</ele>
<time>2015-04-29T16:37:15Z</time>
</trkpt>
<trkpt lat="34.9810433" lon="32.8579308">
<ele>1161.63</ele>
<time>2015-04-29T16:37:19Z</time>
</trkpt>
<trkpt lat="34.9809958" lon="32.8579269">
<ele>1162.49</ele>
<time>2015-04-29T16:37:22Z</time>
</trkpt>
<trkpt lat="34.9809531" lon="32.8579061">
<ele>1161.23</ele>
<time>2015-04-29T16:37:25Z</time>
</trkpt>
<trkpt lat="34.9809092" lon="32.8578597">
<ele>1159.66</ele>
<time>2015-04-29T16:37:29Z</time>
</trkpt>
<trkpt lat="34.9808775" lon="32.8578203">
<ele>1159.37</ele>
<time>2015-04-29T16:37:32Z</time>
</trkpt>
<trkpt lat="34.9808561" lon="32.8577708">
<ele>1160.71</ele>
<time>2015-04-29T16:37:35Z</time>
</trkpt>
<trkpt lat="34.9808204" lon="32.8577252">
<ele>1162.19</ele>
<time>2015-04-29T16:37:39Z</time>
</trkpt>
<trkpt lat="34.9807998" lon="32.8576749">
<ele>1163.22</ele>
<time>2015-04-29T16:37:43Z</time>
</trkpt>
<trkpt lat="34.9807735" lon="32.8576233">
<ele>1163.29</ele>
<time>2015-04-29T16:37:47Z</time>
</trkpt>
<trkpt lat="34.9807648" lon="32.8575634">
<ele>1164.23</ele>
<time>2015-04-29T16:37:51Z</time>
</trkpt>
<trkpt lat="34.9807617" lon="32.8575011">
<ele>1164.79</ele>
<time>2015-04-29T16:37:55Z</time>
</trkpt>
<trkpt lat="34.9807663" lon="32.8574456">
<ele>1165.26</ele>
<time>2015-04-29T16:37:59Z</time>
</trkpt>
<trkpt lat="34.9807654" lon="32.8573846">
<ele>1167.10</ele>
<time>2015-04-29T16:38:03Z</time>
</trkpt>
<trkpt lat="34.9807614" lon="32.8573242">
<ele>1166.97</ele>
<time>2015-04-29T16:38:07Z</time>
</trkpt>
<trkpt lat="34.9807684" lon="32.8572619">
<ele>1167.51</ele>
<time>2015-04-29T16:38:13Z</time>
</trkpt>
<trkpt lat="34.9807634" lon="32.8571959">
<ele>1167.74</ele>
<time>2015-04-29T16:38:17Z</time>
</trkpt>
<trkpt lat="34.9807493" lon="32.8571416">
<ele>1167.76</ele>
<time>2015-04-29T16:38:21Z</time>
</trkpt>
<trkpt lat="34.9807294" lon="32.8570803">
<ele>1167.82</ele>
<time>2015-04-29T16:38:25Z</time>
</trkpt>
<trkpt lat="34.9807089" lon="32.8570246">
<ele>1167.76</ele>
<time>2015-04-29T16:38:29Z</time>
</trkpt>
<trkpt lat="34.9806798" lon="32.8569707">
<ele>1168.70</ele>
<time>2015-04-29T16:38:34Z</time>
</trkpt>
<trkpt lat="34.9806361" lon="32.8569281">
<ele>1169.26</ele>
<time>2015-04-29T16:38:39Z</time>
</trkpt>
<trkpt lat="34.9805969" lon="32.8568958">
<ele>1170.60</ele>
<time>2015-04-29T16:38:43Z</time>
</trkpt>
<trkpt lat="34.9805519" lon="32.8568719">
<ele>1169.88</ele>
<time>2015-04-29T16:38:47Z</time>
</trkpt>
<trkpt lat="34.9804990" lon="32.8568557">
<ele>1170.27</ele>
<time>2015-04-29T16:38:51Z</time>
</trkpt>
<trkpt lat="34.9804523" lon="32.8568375">
<ele>1170.74</ele>
<time>2015-04-29T16:38:56Z</time>
</trkpt>
<trkpt lat="34.9804087" lon="32.8568029">
<ele>1171.13</ele>
<time>2015-04-29T16:39:01Z</time>
</trkpt>
<trkpt lat="34.9803727" lon="32.8567545">
<ele>1173.37</ele>
<time>2015-04-29T16:39:06Z</time>
</trkpt>
<trkpt lat="34.9803448" lon="32.8566968">
<ele>1174.62</ele>
<time>2015-04-29T16:39:11Z</time>
</trkpt>
<trkpt lat="34.9803172" lon="32.8566483">
<ele>1175.50</ele>
<time>2015-04-29T16:39:15Z</time>
</trkpt>
<trkpt lat="34.9802932" lon="32.8566018">
<ele>1175.35</ele>
<time>2015-04-29T16:39:18Z</time>
</trkpt>
<trkpt lat="34.9802699" lon="32.8565402">
<ele>1175.17</ele>
<time>2015-04-29T16:39:22Z</time>
</trkpt>
<trkpt lat="34.9802436" lon="32.8564854">
<ele>1175.66</ele>
<time>2015-04-29T16:39:26Z</time>
</trkpt>
<trkpt lat="34.9802155" lon="32.8564232">
<ele>1175.75</ele>
<time>2015-04-29T16:39:30Z</time>
</trkpt>
<trkpt lat="34.9802016" lon="32.8563700">
<ele>1176.63</ele>
<time>2015-04-29T16:39:33Z</time>
</trkpt>
<trkpt lat="34.9801760" lon="32.8563064">
<ele>1176.75</ele>
<time>2015-04-29T16:39:37Z</time>
</trkpt>
<trkpt lat="34.9801498" lon="32.8562421">
<ele>1177.51</ele>
<time>2015-04-29T16:39:41Z</time>
</trkpt>
<trkpt lat="34.9801181" lon="32.8561840">
<ele>1177.74</ele>
<time>2015-04-29T16:39:45Z</time>
</trkpt>
<trkpt lat="34.9800858" lon="32.8561388">
<ele>1177.76</ele>
<time>2015-04-29T16:39:49Z</time>
</trkpt>
<trkpt lat="34.9800467" lon="32.8560957">
<ele>1178.51</ele>
<time>2015-04-29T16:39:54Z</time>
</trkpt>
<trkpt lat="34.9800094" lon="32.8560625">
<ele>1177.81</ele>
<time>2015-04-29T16:39:58Z</time>
</trkpt>
<trkpt lat="34.9799588" lon="32.8560416">
<ele>1177.20</ele>
<time>2015-04-29T16:40:02Z</time>
</trkpt>
<trkpt lat="34.9799143" lon="32.8560187">
<ele>1177.72</ele>
<time>2015-04-29T16:40:06Z</time>
</trkpt>
<trkpt lat="34.9798695" lon="32.8559811">
<ele>1177.85</ele>
<time>2015-04-29T16:40:11Z</time>
</trkpt>
<trkpt lat="34.9798279" lon="32.8559498">
<ele>1177.77</ele>
<time>2015-04-29T16:40:15Z</time>
</trkpt>
<trkpt lat="34.9797857" lon="32.8559138">
<ele>1178.20</ele>
<time>2015-04-29T16:40:19Z</time>
</trkpt>
<trkpt lat="34.9797543" lon="32.8558606">
<ele>1179.16</ele>
<time>2015-04-29T16:40:23Z</time>
</trkpt>
<trkpt lat="34.9797229" lon="32.8558059">
<ele>1180.60</ele>
<time>2015-04-29T16:40:27Z</time>
</trkpt>
<trkpt lat="34.9796954" lon="32.8557443">
<ele>1180.81</ele>
<time>2015-04-29T16:40:31Z</time>
</trkpt>
<trkpt lat="34.9796760" lon="32.8556774">
<ele>1182.45</ele>
<time>2015-04-29T16:40:35Z</time>
</trkpt>
<trkpt lat="34.9796648" lon="32.8556071">
<ele>1183.24</ele>
<time>2015-04-29T16:40:39Z</time>
</trkpt>
<trkpt lat="34.9796437" lon="32.8555410">
<ele>1184.60</ele>
<time>2015-04-29T16:40:43Z</time>
</trkpt>
<trkpt lat="34.9796298" lon="32.8554744">
<ele>1183.38</ele>
<time>2015-04-29T16:40:47Z</time>
</trkpt>
<trkpt lat="34.9796146" lon="32.8554044">
<ele>1182.86</ele>
<time>2015-04-29T16:40:51Z</time>
</trkpt>
<trkpt lat="34.9795977" lon="32.8553516">
<ele>1183.70</ele>
<time>2015-04-29T16:40:56Z</time>
</trkpt>
<trkpt lat="34.9795682" lon="32.8553013">
<ele>1183.76</ele>
<time>2015-04-29T16:41:01Z</time>
</trkpt>
<trkpt lat="34.9795333" lon="32.8552520">
<ele>1182.82</ele>
<time>2015-04-29T16:41:05Z</time>
</trkpt>
<trkpt lat="34.9795009" lon="32.8551913">
<ele>1181.64</ele>
<time>2015-04-29T16:41:09Z</time>
</trkpt>
<trkpt lat="34.9794606" lon="32.8551430">
<ele>1182.63</ele>
<time>2015-04-29T16:41:13Z</time>
</trkpt>
<trkpt lat="34.9794116" lon="32.8551192">
<ele>1183.25</ele>
<time>2015-04-29T16:41:17Z</time>
</trkpt>
<trkpt lat="34.9793616" lon="32.8550957">
<ele>1182.79</ele>
<time>2015-04-29T16:41:21Z</time>
</trkpt>
<trkpt lat="34.9793085" lon="32.8550633">
<ele>1183.70</ele>
<time>2015-04-29T16:41:25Z</time>
</trkpt>
<trkpt lat="34.9792639" lon="32.8550456">
<ele>1183.00</ele>
<time>2015-04-29T16:41:28Z</time>
</trkpt>
<trkpt lat="34.9792170" lon="32.8550371">
<ele>1183.04</ele>
<time>2015-04-29T16:41:31Z</time>
</trkpt>
<trkpt lat="34.9791679" lon="32.8550326">
<ele>1182.80</ele>
<time>2015-04-29T16:41:34Z</time>
</trkpt>
<trkpt lat="34.9791199" lon="32.8550331">
<ele>1182.76</ele>
<time>2015-04-29T16:41:37Z</time>
</trkpt>
<trkpt lat="34.9790634" lon="32.8550330">
<ele>1182.76</ele>
<time>2015-04-29T16:41:41Z</time>
</trkpt>
<trkpt lat="34.9790040" lon="32.8550395">
<ele>1182.70</ele>
<time>2015-04-29T16:41:45Z</time>
</trkpt>
<trkpt lat="34.9789526" lon="32.8550571">
<ele>1182.76</ele>
<time>2015-04-29T16:41:49Z</time>
</trkpt>
<trkpt lat="34.9788998" lon="32.8550862">
<ele>1184.67</ele>
<time>2015-04-29T16:42:30Z</time>
</trkpt>
<trkpt lat="34.9788560" lon="32.8551096">
<ele>1184.75</ele>
<time>2015-04-29T16:42:33Z</time>
</trkpt>
<trkpt lat="34.9788134" lon="32.8551441">
<ele>1185.63</ele>
<time>2015-04-29T16:42:36Z</time>
</trkpt>
<trkpt lat="34.9787770" lon="32.8551842">
<ele>1184.99</ele>
<time>2015-04-29T16:42:39Z</time>
</trkpt>
<trkpt lat="34.9787411" lon="32.8552243">
<ele>1185.66</ele>
<time>2015-04-29T16:42:42Z</time>
</trkpt>
<trkpt lat="34.9787140" lon="32.8552812">
<ele>1185.94</ele>
<time>2015-04-29T16:42:46Z</time>
</trkpt>
<trkpt lat="34.9786942" lon="32.8553349">
<ele>1186.27</ele>
<time>2015-04-29T16:42:50Z</time>
</trkpt>
<trkpt lat="34.9786677" lon="32.8553992">
<ele>1186.73</ele>
<time>2015-04-29T16:42:54Z</time>
</trkpt>
<trkpt lat="34.9786460" lon="32.8554515">
<ele>1187.51</ele>
<time>2015-04-29T16:42:57Z</time>
</trkpt>
<trkpt lat="34.9786302" lon="32.8555039">
<ele>1187.10</ele>
<time>2015-04-29T16:43:00Z</time>
</trkpt>
<trkpt lat="34.9786183" lon="32.8555748">
<ele>1187.41</ele>
<time>2015-04-29T16:43:04Z</time>
</trkpt>
<trkpt lat="34.9786105" lon="32.8556319">
<ele>1187.22</ele>
<time>2015-04-29T16:43:07Z</time>
</trkpt>
<trkpt lat="34.9785983" lon="32.8556928">
<ele>1188.32</ele>
<time>2015-04-29T16:43:10Z</time>
</trkpt>
<trkpt lat="34.9785802" lon="32.8557587">
<ele>1190.54</ele>
<time>2015-04-29T16:43:14Z</time>
</trkpt>
<trkpt lat="34.9785696" lon="32.8558293">
<ele>1192.93</ele>
<time>2015-04-29T16:43:18Z</time>
</trkpt>
<trkpt lat="34.9785713" lon="32.8558925">
<ele>1194.41</ele>
<time>2015-04-29T16:43:21Z</time>
</trkpt>
<trkpt lat="34.9785776" lon="32.8559526">
<ele>1192.84</ele>
<time>2015-04-29T16:43:24Z</time>
</trkpt>
<trkpt lat="34.9785862" lon="32.8560095">
<ele>1191.40</ele>
<time>2015-04-29T16:43:27Z</time>
</trkpt>
<trkpt lat="34.9785867" lon="32.8560674">
<ele>1192.46</ele>
<time>2015-04-29T16:43:30Z</time>
</trkpt>
<trkpt lat="34.9785873" lon="32.8561268">
<ele>1191.97</ele>
<time>2015-04-29T16:43:33Z</time>
</trkpt>
<trkpt lat="34.9785889" lon="32.8561908">
<ele>1190.91</ele>
<time>2015-04-29T16:43:36Z</time>
</trkpt>
<trkpt lat="34.9785771" lon="32.8562552">
<ele>1189.40</ele>
<time>2015-04-29T16:43:39Z</time>
</trkpt>
<trkpt lat="34.9785528" lon="32.8563100">
<ele>1191.72</ele>
<time>2015-04-29T16:43:42Z</time>
</trkpt>
<trkpt lat="34.9785374" lon="32.8563628">
<ele>1191.63</ele>
<time>2015-04-29T16:43:45Z</time>
</trkpt>
<trkpt lat="34.9785362" lon="32.8564328">
<ele>1195.06</ele>
<time>2015-04-29T16:43:49Z</time>
</trkpt>
<trkpt lat="34.9785248" lon="32.8564869">
<ele>1194.55</ele>
<time>2015-04-29T16:43:52Z</time>
</trkpt>
<trkpt lat="34.9785209" lon="32.8565429">
<ele>1194.36</ele>
<time>2015-04-29T16:43:55Z</time>
</trkpt>
<trkpt lat="34.9785023" lon="32.8566030">
<ele>1195.61</ele>
<time>2015-04-29T16:43:59Z</time>
</trkpt>
<trkpt lat="34.9784705" lon="32.8566618">
<ele>1194.06</ele>
<time>2015-04-29T16:44:03Z</time>
</trkpt>
<trkpt lat="34.9784262" lon="32.8567039">
<ele>1196.42</ele>
<time>2015-04-29T16:44:06Z</time>
</trkpt>
<trkpt lat="34.9783768" lon="32.8567408">
<ele>1196.72</ele>
<time>2015-04-29T16:44:09Z</time>
</trkpt>
<trkpt lat="34.9783292" lon="32.8567742">
<ele>1199.13</ele>
<time>2015-04-29T16:44:12Z</time>
</trkpt>
<trkpt lat="34.9782724" lon="32.8568058">
<ele>1196.31</ele>
<time>2015-04-29T16:44:15Z</time>
</trkpt>
<trkpt lat="34.9782207" lon="32.8568252">
<ele>1196.33</ele>
<time>2015-04-29T16:44:18Z</time>
</trkpt>
<trkpt lat="34.9781664" lon="32.8568320">
<ele>1198.08</ele>
<time>2015-04-29T16:44:21Z</time>
</trkpt>
<trkpt lat="34.9781125" lon="32.8568247">
<ele>1198.68</ele>
<time>2015-04-29T16:44:24Z</time>
</trkpt>
<trkpt lat="34.9780630" lon="32.8568158">
<ele>1200.12</ele>
<time>2015-04-29T16:44:27Z</time>
</trkpt>
<trkpt lat="34.9780145" lon="32.8568061">
<ele>1199.93</ele>
<time>2015-04-29T16:44:30Z</time>
</trkpt>
<trkpt lat="34.9779709" lon="32.8567765">
<ele>1200.91</ele>
<time>2015-04-29T16:44:33Z</time>
</trkpt>
<trkpt lat="34.9779287" lon="32.8567450">
<ele>1201.53</ele>
<time>2015-04-29T16:44:36Z</time>
</trkpt>
<trkpt lat="34.9778842" lon="32.8567124">
<ele>1202.48</ele>
<time>2015-04-29T16:44:39Z</time>
</trkpt>
<trkpt lat="34.9778451" lon="32.8566844">
<ele>1202.23</ele>
<time>2015-04-29T16:44:42Z</time>
</trkpt>
<trkpt lat="34.9778088" lon="32.8566436">
<ele>1203.19</ele>
<time>2015-04-29T16:44:45Z</time>
</trkpt>
<trkpt lat="34.9777759" lon="32.8565992">
<ele>1201.94</ele>
<time>2015-04-29T16:44:48Z</time>
</trkpt>
<trkpt lat="34.9777290" lon="32.8565576">
<ele>1203.15</ele>
<time>2015-04-29T16:44:52Z</time>
</trkpt>
<trkpt lat="34.9776892" lon="32.8565198">
<ele>1203.53</ele>
<time>2015-04-29T16:44:56Z</time>
</trkpt>
<trkpt lat="34.9776514" lon="32.8564869">
<ele>1202.24</ele>
<time>2015-04-29T16:45:07Z</time>
</trkpt>
<trkpt lat="34.9776068" lon="32.8564641">
<ele>1200.85</ele>
<time>2015-04-29T16:45:11Z</time>
</trkpt>
<trkpt lat="34.9775584" lon="32.8564556">
<ele>1200.77</ele>
<time>2015-04-29T16:45:15Z</time>
</trkpt>
<trkpt lat="34.9775147" lon="32.8564261">
<ele>1201.76</ele>
<time>2015-04-29T16:45:19Z</time>
</trkpt>
<trkpt lat="34.9774676" lon="32.8564119">
<ele>1202.39</ele>
<time>2015-04-29T16:45:24Z</time>
</trkpt>
<trkpt lat="34.9774288" lon="32.8564400">
<ele>1203.24</ele>
<time>2015-04-29T16:45:28Z</time>
</trkpt>
<trkpt lat="34.9773801" lon="32.8564512">
<ele>1205.41</ele>
<time>2015-04-29T16:45:32Z</time>
</trkpt>
<trkpt lat="34.9773331" lon="32.8564664">
<ele>1205.18</ele>
<time>2015-04-29T16:45:36Z</time>
</trkpt>
<trkpt lat="34.9772964" lon="32.8565129">
<ele>1205.96</ele>
<time>2015-04-29T16:45:41Z</time>
</trkpt>
<trkpt lat="34.9772689" lon="32.8565613">
<ele>1205.96</ele>
<time>2015-04-29T16:45:45Z</time>
</trkpt>
<trkpt lat="34.9772330" lon="32.8566088">
<ele>1204.80</ele>
<time>2015-04-29T16:45:50Z</time>
</trkpt>
<trkpt lat="34.9772104" lon="32.8566582">
<ele>1204.01</ele>
<time>2015-04-29T16:45:55Z</time>
</trkpt>
<trkpt lat="34.9771766" lon="32.8566978">
<ele>1204.64</ele>
<time>2015-04-29T16:46:00Z</time>
</trkpt>
<trkpt lat="34.9771633" lon="32.8567539">
<ele>1204.32</ele>
<time>2015-04-29T16:46:05Z</time>
</trkpt>
<trkpt lat="34.9771394" lon="32.8568098">
<ele>1206.00</ele>
<time>2015-04-29T16:46:10Z</time>
</trkpt>
<trkpt lat="34.9771214" lon="32.8568673">
<ele>1207.67</ele>
<time>2015-04-29T16:46:15Z</time>
</trkpt>
<trkpt lat="34.9771087" lon="32.8569330">
<ele>1209.38</ele>
<time>2015-04-29T16:46:19Z</time>
</trkpt>
<trkpt lat="34.9770955" lon="32.8569937">
<ele>1210.61</ele>
<time>2015-04-29T16:46:23Z</time>
</trkpt>
<trkpt lat="34.9770838" lon="32.8570522">
<ele>1213.06</ele>
<time>2015-04-29T16:46:27Z</time>
</trkpt>
<trkpt lat="34.9770700" lon="32.8571126">
<ele>1213.90</ele>
<time>2015-04-29T16:46:31Z</time>
</trkpt>
<trkpt lat="34.9770607" lon="32.8571724">
<ele>1213.77</ele>
<time>2015-04-29T16:46:35Z</time>
</trkpt>
<trkpt lat="34.9770489" lon="32.8572274">
<ele>1213.82</ele>
<time>2015-04-29T16:46:39Z</time>
</trkpt>
<trkpt lat="34.9770581" lon="32.8572924">
<ele>1212.89</ele>
<time>2015-04-29T16:46:44Z</time>
</trkpt>
<trkpt lat="34.9770533" lon="32.8573497">
<ele>1212.52</ele>
<time>2015-04-29T16:46:48Z</time>
</trkpt>
<trkpt lat="34.9770328" lon="32.8574116">
<ele>1213.69</ele>
<time>2015-04-29T16:46:53Z</time>
</trkpt>
<trkpt lat="34.9770226" lon="32.8574747">
<ele>1215.01</ele>
<time>2015-04-29T16:46:58Z</time>
</trkpt>
<trkpt lat="34.9770090" lon="32.8575339">
<ele>1216.65</ele>
<time>2015-04-29T16:47:02Z</time>
</trkpt>
<trkpt lat="34.9769843" lon="32.8575938">
<ele>1217.50</ele>
<time>2015-04-29T16:47:06Z</time>
</trkpt>
<trkpt lat="34.9769618" lon="32.8576560">
<ele>1217.74</ele>
<time>2015-04-29T16:47:10Z</time>
</trkpt>
<trkpt lat="34.9769584" lon="32.8577134">
<ele>1218.26</ele>
<time>2015-04-29T16:47:13Z</time>
</trkpt>
<trkpt lat="34.9769578" lon="32.8577731">
<ele>1220.32</ele>
<time>2015-04-29T16:47:16Z</time>
</trkpt>
<trkpt lat="34.9769465" lon="32.8578341">
<ele>1219.73</ele>
<time>2015-04-29T16:47:20Z</time>
</trkpt>
<trkpt lat="34.9769418" lon="32.8578935">
<ele>1220.26</ele>
<time>2015-04-29T16:47:24Z</time>
</trkpt>
<trkpt lat="34.9769271" lon="32.8579573">
<ele>1221.23</ele>
<time>2015-04-29T16:47:28Z</time>
</trkpt>
<trkpt lat="34.9769103" lon="32.8580259">
<ele>1220.48</ele>
<time>2015-04-29T16:47:32Z</time>
</trkpt>
<trkpt lat="34.9769083" lon="32.8580975">
<ele>1222.30</ele>
<time>2015-04-29T16:47:36Z</time>
</trkpt>
<trkpt lat="34.9768948" lon="32.8581516">
<ele>1222.83</ele>
<time>2015-04-29T16:47:39Z</time>
</trkpt>
<trkpt lat="34.9768652" lon="32.8582015">
<ele>1223.52</ele>
<time>2015-04-29T16:47:42Z</time>
</trkpt>
<trkpt lat="34.9768349" lon="32.8582483">
<ele>1224.48</ele>
<time>2015-04-29T16:47:45Z</time>
</trkpt>
<trkpt lat="34.9768049" lon="32.8582957">
<ele>1223.22</ele>
<time>2015-04-29T16:47:48Z</time>
</trkpt>
<trkpt lat="34.9767678" lon="32.8583348">
<ele>1223.69</ele>
<time>2015-04-29T16:47:51Z</time>
</trkpt>
<trkpt lat="34.9767208" lon="32.8583791">
<ele>1222.50</ele>
<time>2015-04-29T16:47:54Z</time>
</trkpt>
<trkpt lat="34.9766650" lon="32.8583966">
<ele>1221.37</ele>
<time>2015-04-29T16:47:58Z</time>
</trkpt>
<trkpt lat="34.9766247" lon="32.8584229">
<ele>1219.96</ele>
<time>2015-04-29T16:48:01Z</time>
</trkpt>
<trkpt lat="34.9765795" lon="32.8584634">
<ele>1219.04</ele>
<time>2015-04-29T16:48:04Z</time>
</trkpt>
<trkpt lat="34.9765293" lon="32.8584986">
<ele>1218.29</ele>
<time>2015-04-29T16:48:07Z</time>
</trkpt>
<trkpt lat="34.9764768" lon="32.8585215">
<ele>1215.98</ele>
<time>2015-04-29T16:48:11Z</time>
</trkpt>
<trkpt lat="34.9764181" lon="32.8585177">
<ele>1217.90</ele>
<time>2015-04-29T16:48:15Z</time>
</trkpt>
<trkpt lat="34.9763729" lon="32.8585045">
<ele>1220.28</ele>
<time>2015-04-29T16:48:18Z</time>
</trkpt>
<trkpt lat="34.9763208" lon="32.8584965">
<ele>1221.45</ele>
<time>2015-04-29T16:48:21Z</time>
</trkpt>
<trkpt lat="34.9762678" lon="32.8584835">
<ele>1221.72</ele>
<time>2015-04-29T16:48:24Z</time>
</trkpt>
<trkpt lat="34.9762156" lon="32.8584615">
<ele>1221.26</ele>
<time>2015-04-29T16:48:27Z</time>
</trkpt>
<trkpt lat="34.9761693" lon="32.8584391">
<ele>1222.07</ele>
<time>2015-04-29T16:48:30Z</time>
</trkpt>
<trkpt lat="34.9761173" lon="32.8584122">
<ele>1222.67</ele>
<time>2015-04-29T16:48:33Z</time>
</trkpt>
<trkpt lat="34.9760782" lon="32.8583748">
<ele>1224.00</ele>
<time>2015-04-29T16:48:36Z</time>
</trkpt>
<trkpt lat="34.9760335" lon="32.8583479">
<ele>1225.04</ele>
<time>2015-04-29T16:48:39Z</time>
</trkpt>
<trkpt lat="34.9759879" lon="32.8583124">
<ele>1225.55</ele>
<time>2015-04-29T16:48:42Z</time>
</trkpt>
<trkpt lat="34.9759462" lon="32.8582674">
<ele>1227.36</ele>
<time>2015-04-29T16:48:45Z</time>
</trkpt>
<trkpt lat="34.9759034" lon="32.8582240">
<ele>1227.33</ele>
<time>2015-04-29T16:48:48Z</time>
</trkpt>
<trkpt lat="34.9758568" lon="32.8581801">
<ele>1229.21</ele>
<time>2015-04-29T16:48:51Z</time>
</trkpt>
<trkpt lat="34.9758064" lon="32.8581495">
<ele>1229.57</ele>
<time>2015-04-29T16:48:54Z</time>
</trkpt>
<trkpt lat="34.9757615" lon="32.8581003">
<ele>1231.24</ele>
<time>2015-04-29T16:48:57Z</time>
</trkpt>
<trkpt lat="34.9757141" lon="32.8580433">
<ele>1231.07</ele>
<time>2015-04-29T16:49:00Z</time>
</trkpt>
<trkpt lat="34.9756713" lon="32.8580219">
<ele>1230.84</ele>
<time>2015-04-29T16:49:02Z</time>
</trkpt>
<trkpt lat="34.9756173" lon="32.8580173">
<ele>1230.77</ele>
<time>2015-04-29T16:49:05Z</time>
</trkpt>
<trkpt lat="34.9755641" lon="32.8580242">
<ele>1230.95</ele>
<time>2015-04-29T16:49:09Z</time>
</trkpt>
<trkpt lat="34.9755099" lon="32.8580070">
<ele>1229.78</ele>
<time>2015-04-29T16:49:12Z</time>
</trkpt>
<trkpt lat="34.9754544" lon="32.8579873">
<ele>1229.01</ele>
<time>2015-04-29T16:49:15Z</time>
</trkpt>
<trkpt lat="34.9753983" lon="32.8579704">
<ele>1229.67</ele>
<time>2015-04-29T16:49:18Z</time>
</trkpt>
<trkpt lat="34.9753344" lon="32.8579636">
<ele>1229.87</ele>
<time>2015-04-29T16:49:21Z</time>
</trkpt>
<trkpt lat="34.9752767" lon="32.8579635">
<ele>1230.04</ele>
<time>2015-04-29T16:49:23Z</time>
</trkpt>
<trkpt lat="34.9752079" lon="32.8579582">
<ele>1230.08</ele>
<time>2015-04-29T16:49:25Z</time>
</trkpt>
<trkpt lat="34.9751509" lon="32.8579558">
<ele>1229.84</ele>
<time>2015-04-29T16:49:27Z</time>
</trkpt>
<trkpt lat="34.9750940" lon="32.8579598">
<ele>1230.65</ele>
<time>2015-04-29T16:49:30Z</time>
</trkpt>
<trkpt lat="34.9750490" lon="32.8579631">
<ele>1229.50</ele>
<time>2015-04-29T16:49:33Z</time>
</trkpt>
<trkpt lat="34.9749997" lon="32.8579588">
<ele>1228.87</ele>
<time>2015-04-29T16:49:37Z</time>
</trkpt>
<trkpt lat="34.9749470" lon="32.8579725">
<ele>1228.64</ele>
<time>2015-04-29T16:49:41Z</time>
</trkpt>
<trkpt lat="34.9748998" lon="32.8579860">
<ele>1229.50</ele>
<time>2015-04-29T16:49:44Z</time>
</trkpt>
<trkpt lat="34.9748522" lon="32.8579819">
<ele>1230.48</ele>
<time>2015-04-29T16:49:47Z</time>
</trkpt>
<trkpt lat="34.9748127" lon="32.8579513">
<ele>1232.10</ele>
<time>2015-04-29T16:49:50Z</time>
</trkpt>
<trkpt lat="34.9747553" lon="32.8579600">
<ele>1234.53</ele>
<time>2015-04-29T16:49:54Z</time>
</trkpt>
<trkpt lat="34.9747232" lon="32.8580077">
<ele>1235.14</ele>
<time>2015-04-29T16:55:53Z</time>
</trkpt>
<trkpt lat="34.9746946" lon="32.8580604">
<ele>1235.47</ele>
<time>2015-04-29T16:55:57Z</time>
</trkpt>
<trkpt lat="34.9746591" lon="32.8580979">
<ele>1235.30</ele>
<time>2015-04-29T16:56:01Z</time>
</trkpt>
<trkpt lat="34.9746101" lon="32.8581400">
<ele>1235.17</ele>
<time>2015-04-29T16:56:05Z</time>
</trkpt>
<trkpt lat="34.9745713" lon="32.8581828">
<ele>1235.06</ele>
<time>2015-04-29T16:56:08Z</time>
</trkpt>
<trkpt lat="34.9745286" lon="32.8582219">
<ele>1236.17</ele>
<time>2015-04-29T16:56:11Z</time>
</trkpt>
<trkpt lat="34.9744827" lon="32.8582526">
<ele>1235.94</ele>
<time>2015-04-29T16:56:14Z</time>
</trkpt>
<trkpt lat="34.9744370" lon="32.8582925">
<ele>1235.03</ele>
<time>2015-04-29T16:56:17Z</time>
</trkpt>
<trkpt lat="34.9743844" lon="32.8583320">
<ele>1235.29</ele>
<time>2015-04-29T16:56:20Z</time>
</trkpt>
<trkpt lat="34.9743300" lon="32.8583609">
<ele>1235.08</ele>
<time>2015-04-29T16:56:23Z</time>
</trkpt>
<trkpt lat="34.9742707" lon="32.8583877">
<ele>1236.17</ele>
<time>2015-04-29T16:56:26Z</time>
</trkpt>
<trkpt lat="34.9742060" lon="32.8584038">
<ele>1237.44</ele>
<time>2015-04-29T16:56:29Z</time>
</trkpt>
<trkpt lat="34.9741500" lon="32.8584377">
<ele>1237.84</ele>
<time>2015-04-29T16:56:32Z</time>
</trkpt>
<trkpt lat="34.9740949" lon="32.8584633">
<ele>1238.90</ele>
<time>2015-04-29T16:56:35Z</time>
</trkpt>
<trkpt lat="34.9740443" lon="32.8584868">
<ele>1237.15</ele>
<time>2015-04-29T16:56:38Z</time>
</trkpt>
<trkpt lat="34.9739878" lon="32.8585069">
<ele>1236.93</ele>
<time>2015-04-29T16:56:41Z</time>
</trkpt>
<trkpt lat="34.9739372" lon="32.8585289">
<ele>1236.28</ele>
<time>2015-04-29T16:56:44Z</time>
</trkpt>
<trkpt lat="34.9738852" lon="32.8585442">
<ele>1234.95</ele>
<time>2015-04-29T16:56:47Z</time>
</trkpt>
<trkpt lat="34.9738322" lon="32.8585713">
<ele>1235.53</ele>
<time>2015-04-29T16:56:50Z</time>
</trkpt>
<trkpt lat="34.9737845" lon="32.8586060">
<ele>1235.48</ele>
<time>2015-04-29T16:56:53Z</time>
</trkpt>
<trkpt lat="34.9737356" lon="32.8586432">
<ele>1235.60</ele>
<time>2015-04-29T16:56:56Z</time>
</trkpt>
<trkpt lat="34.9736826" lon="32.8586619">
<ele>1236.49</ele>
<time>2015-04-29T16:56:59Z</time>
</trkpt>
<trkpt lat="34.9736346" lon="32.8586727">
<ele>1236.60</ele>
<time>2015-04-29T16:57:02Z</time>
</trkpt>
<trkpt lat="34.9735897" lon="32.8587146">
<ele>1237.94</ele>
<time>2015-04-29T16:57:06Z</time>
</trkpt>
<trkpt lat="34.9735410" lon="32.8587584">
<ele>1236.15</ele>
<time>2015-04-29T16:57:10Z</time>
</trkpt>
<trkpt lat="34.9735028" lon="32.8587980">
<ele>1236.81</ele>
<time>2015-04-29T16:57:13Z</time>
</trkpt>
<trkpt lat="34.9734678" lon="32.8588449">
<ele>1239.14</ele>
<time>2015-04-29T16:57:16Z</time>
</trkpt>
<trkpt lat="34.9734316" lon="32.8588863">
<ele>1238.68</ele>
<time>2015-04-29T16:57:19Z</time>
</trkpt>
<trkpt lat="34.9733890" lon="32.8589186">
<ele>1240.38</ele>
<time>2015-04-29T16:57:22Z</time>
</trkpt>
<trkpt lat="34.9733466" lon="32.8589493">
<ele>1242.09</ele>
<time>2015-04-29T16:57:25Z</time>
</trkpt>
<trkpt lat="34.9733144" lon="32.8589929">
<ele>1242.55</ele>
<time>2015-04-29T16:57:28Z</time>
</trkpt>
<trkpt lat="34.9732864" lon="32.8590397">
<ele>1243.61</ele>
<time>2015-04-29T16:57:31Z</time>
</trkpt>
<trkpt lat="34.9732520" lon="32.8590873">
<ele>1243.24</ele>
<time>2015-04-29T16:57:34Z</time>
</trkpt>
<trkpt lat="34.9732350" lon="32.8591448">
<ele>1244.95</ele>
<time>2015-04-29T16:57:37Z</time>
</trkpt>
<trkpt lat="34.9732189" lon="32.8592137">
<ele>1245.41</ele>
<time>2015-04-29T16:57:40Z</time>
</trkpt>
<trkpt lat="34.9732055" lon="32.8592852">
<ele>1245.34</ele>
<time>2015-04-29T16:57:43Z</time>
</trkpt>
<trkpt lat="34.9731949" lon="32.8593589">
<ele>1245.71</ele>
<time>2015-04-29T16:57:46Z</time>
</trkpt>
<trkpt lat="34.9731891" lon="32.8594333">
<ele>1246.88</ele>
<time>2015-04-29T16:57:49Z</time>
</trkpt>
<trkpt lat="34.9731925" lon="32.8595130">
<ele>1247.27</ele>
<time>2015-04-29T16:57:52Z</time>
</trkpt>
<trkpt lat="34.9731992" lon="32.8595919">
<ele>1246.82</ele>
<time>2015-04-29T16:57:55Z</time>
</trkpt>
<trkpt lat="34.9732143" lon="32.8596682">
<ele>1244.64</ele>
<time>2015-04-29T16:57:58Z</time>
</trkpt>
<trkpt lat="34.9732354" lon="32.8597364">
<ele>1243.87</ele>
<time>2015-04-29T16:58:01Z</time>
</trkpt>
<trkpt lat="34.9732575" lon="32.8598128">
<ele>1244.27</ele>
<time>2015-04-29T16:58:04Z</time>
</trkpt>
<trkpt lat="34.9732725" lon="32.8598704">
<ele>1244.39</ele>
<time>2015-04-29T16:58:06Z</time>
</trkpt>
<trkpt lat="34.9732919" lon="32.8599297">
<ele>1243.92</ele>
<time>2015-04-29T16:58:08Z</time>
</trkpt>
<trkpt lat="34.9733200" lon="32.8599867">
<ele>1242.55</ele>
<time>2015-04-29T16:58:10Z</time>
</trkpt>
<trkpt lat="34.9733546" lon="32.8600507">
<ele>1241.21</ele>
<time>2015-04-29T16:58:12Z</time>
</trkpt>
<trkpt lat="34.9733842" lon="32.8601076">
<ele>1240.87</ele>
<time>2015-04-29T16:58:14Z</time>
</trkpt>
<trkpt lat="34.9734033" lon="32.8601847">
<ele>1242.15</ele>
<time>2015-04-29T16:58:17Z</time>
</trkpt>
<trkpt lat="34.9734100" lon="32.8602417">
<ele>1241.86</ele>
<time>2015-04-29T16:58:19Z</time>
</trkpt>
<trkpt lat="34.9734220" lon="32.8603216">
<ele>1241.52</ele>
<time>2015-04-29T16:58:22Z</time>
</trkpt>
<trkpt lat="34.9734225" lon="32.8603947">
<ele>1242.36</ele>
<time>2015-04-29T16:58:25Z</time>
</trkpt>
<trkpt lat="34.9734298" lon="32.8604605">
<ele>1242.58</ele>
<time>2015-04-29T16:58:28Z</time>
</trkpt>
<trkpt lat="34.9734417" lon="32.8605253">
<ele>1240.74</ele>
<time>2015-04-29T16:58:31Z</time>
</trkpt>
<trkpt lat="34.9734390" lon="32.8605880">
<ele>1242.01</ele>
<time>2015-04-29T16:58:34Z</time>
</trkpt>
<trkpt lat="34.9734308" lon="32.8606530">
<ele>1243.42</ele>
<time>2015-04-29T16:58:37Z</time>
</trkpt>
<trkpt lat="34.9734302" lon="32.8607161">
<ele>1242.09</ele>
<time>2015-04-29T16:58:40Z</time>
</trkpt>
<trkpt lat="34.9734254" lon="32.8607895">
<ele>1241.55</ele>
<time>2015-04-29T16:58:43Z</time>
</trkpt>
<trkpt lat="34.9734142" lon="32.8608659">
<ele>1243.11</ele>
<time>2015-04-29T16:58:46Z</time>
</trkpt>
<trkpt lat="34.9734016" lon="32.8609310">
<ele>1243.93</ele>
<time>2015-04-29T16:58:49Z</time>
</trkpt>
<trkpt lat="34.9733962" lon="32.8610024">
<ele>1243.78</ele>
<time>2015-04-29T16:58:52Z</time>
</trkpt>
<trkpt lat="34.9733961" lon="32.8610715">
<ele>1244.39</ele>
<time>2015-04-29T16:58:55Z</time>
</trkpt>
<trkpt lat="34.9733998" lon="32.8611328">
<ele>1245.09</ele>
<time>2015-04-29T16:58:58Z</time>
</trkpt>
<trkpt lat="34.9734079" lon="32.8611956">
<ele>1244.93</ele>
<time>2015-04-29T16:59:01Z</time>
</trkpt>
<trkpt lat="34.9734119" lon="32.8612660">
<ele>1245.66</ele>
<time>2015-04-29T16:59:04Z</time>
</trkpt>
<trkpt lat="34.9734167" lon="32.8613346">
<ele>1245.37</ele>
<time>2015-04-29T16:59:07Z</time>
</trkpt>
<trkpt lat="34.9734180" lon="32.8613962">
<ele>1243.96</ele>
<time>2015-04-29T16:59:10Z</time>
</trkpt>
<trkpt lat="34.9734017" lon="32.8614547">
<ele>1245.04</ele>
<time>2015-04-29T16:59:13Z</time>
</trkpt>
<trkpt lat="34.9733794" lon="32.8615148">
<ele>1247.04</ele>
<time>2015-04-29T16:59:16Z</time>
</trkpt>
<trkpt lat="34.9733515" lon="32.8615760">
<ele>1247.05</ele>
<time>2015-04-29T16:59:19Z</time>
</trkpt>
<trkpt lat="34.9733366" lon="32.8616422">
<ele>1246.42</ele>
<time>2015-04-29T16:59:22Z</time>
</trkpt>
<trkpt lat="34.9733024" lon="32.8617003">
<ele>1248.09</ele>
<time>2015-04-29T16:59:25Z</time>
</trkpt>
<trkpt lat="34.9732779" lon="32.8617642">
<ele>1249.43</ele>
<time>2015-04-29T16:59:28Z</time>
</trkpt>
<trkpt lat="34.9732392" lon="32.8618243">
<ele>1250.72</ele>
<time>2015-04-29T16:59:31Z</time>
</trkpt>
<trkpt lat="34.9732019" lon="32.8618790">
<ele>1249.38</ele>
<time>2015-04-29T16:59:34Z</time>
</trkpt>
<trkpt lat="34.9731674" lon="32.8619366">
<ele>1248.84</ele>
<time>2015-04-29T16:59:37Z</time>
</trkpt>
<trkpt lat="34.9731285" lon="32.8619967">
<ele>1250.89</ele>
<time>2015-04-29T16:59:40Z</time>
</trkpt>
<trkpt lat="34.9731022" lon="32.8620693">
<ele>1250.28</ele>
<time>2015-04-29T16:59:43Z</time>
</trkpt>
<trkpt lat="34.9730811" lon="32.8621238">
<ele>1249.14</ele>
<time>2015-04-29T16:59:45Z</time>
</trkpt>
<trkpt lat="34.9730516" lon="32.8621892">
<ele>1249.35</ele>
<time>2015-04-29T16:59:47Z</time>
</trkpt>
<trkpt lat="34.9730174" lon="32.8622628">
<ele>1250.41</ele>
<time>2015-04-29T16:59:49Z</time>
</trkpt>
<trkpt lat="34.9729935" lon="32.8623261">
<ele>1251.17</ele>
<time>2015-04-29T16:59:51Z</time>
</trkpt>
<trkpt lat="34.9729692" lon="32.8623753">
<ele>1251.61</ele>
<time>2015-04-29T16:59:53Z</time>
</trkpt>
<trkpt lat="34.9729641" lon="32.8624458">
<ele>1252.24</ele>
<time>2015-04-29T16:59:56Z</time>
</trkpt>
<trkpt lat="34.9729827" lon="32.8625203">
<ele>1254.32</ele>
<time>2015-04-29T16:59:59Z</time>
</trkpt>
<trkpt lat="34.9729955" lon="32.8625947">
<ele>1254.71</ele>
<time>2015-04-29T17:00:02Z</time>
</trkpt>
<trkpt lat="34.9730090" lon="32.8626619">
<ele>1255.50</ele>
<time>2015-04-29T17:00:05Z</time>
</trkpt>
<trkpt lat="34.9730245" lon="32.8627286">
<ele>1254.98</ele>
<time>2015-04-29T17:00:08Z</time>
</trkpt>
<trkpt lat="34.9730326" lon="32.8627993">
<ele>1254.79</ele>
<time>2015-04-29T17:00:11Z</time>
</trkpt>
<trkpt lat="34.9730266" lon="32.8628782">
<ele>1256.26</ele>
<time>2015-04-29T17:00:14Z</time>
</trkpt>
<trkpt lat="34.9730141" lon="32.8629572">
<ele>1257.20</ele>
<time>2015-04-29T17:00:17Z</time>
</trkpt>
<trkpt lat="34.9730124" lon="32.8630335">
<ele>1257.69</ele>
<time>2015-04-29T17:00:20Z</time>
</trkpt>
<trkpt lat="34.9729772" lon="32.8630985">
<ele>1259.13</ele>
<time>2015-04-29T17:00:23Z</time>
</trkpt>
<trkpt lat="34.9729341" lon="32.8631555">
<ele>1260.06</ele>
<time>2015-04-29T17:00:26Z</time>
</trkpt>
<trkpt lat="34.9728907" lon="32.8631820">
<ele>1260.30</ele>
<time>2015-04-29T17:00:29Z</time>
</trkpt>
<trkpt lat="34.9728499" lon="32.8632134">
<ele>1260.58</ele>
<time>2015-04-29T17:00:32Z</time>
</trkpt>
<trkpt lat="34.9728147" lon="32.8632489">
<ele>1259.99</ele>
<time>2015-04-29T17:00:35Z</time>
</trkpt>
<trkpt lat="34.9727703" lon="32.8632813">
<ele>1256.84</ele>
<time>2015-04-29T17:00:39Z</time>
</trkpt>
<trkpt lat="34.9727097" lon="32.8632774">
<ele>1255.45</ele>
<time>2015-04-29T17:00:43Z</time>
</trkpt>
<trkpt lat="34.9726468" lon="32.8632671">
<ele>1256.85</ele>
<time>2015-04-29T17:00:46Z</time>
</trkpt>
<trkpt lat="34.9726013" lon="32.8632612">
<ele>1258.03</ele>
<time>2015-04-29T17:00:48Z</time>
</trkpt>
<trkpt lat="34.9725576" lon="32.8632472">
<ele>1259.33</ele>
<time>2015-04-29T17:00:50Z</time>
</trkpt>
<trkpt lat="34.9725138" lon="32.8632324">
<ele>1259.65</ele>
<time>2015-04-29T17:00:52Z</time>
</trkpt>
<trkpt lat="34.9724708" lon="32.8632126">
<ele>1259.73</ele>
<time>2015-04-29T17:00:54Z</time>
</trkpt>
<trkpt lat="34.9724273" lon="32.8631841">
<ele>1261.75</ele>
<time>2015-04-29T17:00:56Z</time>
</trkpt>
<trkpt lat="34.9723716" lon="32.8631484">
<ele>1263.51</ele>
<time>2015-04-29T17:00:59Z</time>
</trkpt>
<trkpt lat="34.9723214" lon="32.8631162">
<ele>1262.98</ele>
<time>2015-04-29T17:01:02Z</time>
</trkpt>
<trkpt lat="34.9722774" lon="32.8630822">
<ele>1263.04</ele>
<time>2015-04-29T17:01:05Z</time>
</trkpt>
<trkpt lat="34.9722343" lon="32.8630552">
<ele>1263.29</ele>
<time>2015-04-29T17:01:08Z</time>
</trkpt>
<trkpt lat="34.9721928" lon="32.8630255">
<ele>1264.20</ele>
<time>2015-04-29T17:01:11Z</time>
</trkpt>
<trkpt lat="34.9721419" lon="32.8630043">
<ele>1265.82</ele>
<time>2015-04-29T17:01:14Z</time>
</trkpt>
<trkpt lat="34.9720864" lon="32.8629909">
<ele>1267.89</ele>
<time>2015-04-29T17:01:17Z</time>
</trkpt>
<trkpt lat="34.9720257" lon="32.8629784">
<ele>1270.78</ele>
<time>2015-04-29T17:01:20Z</time>
</trkpt>
<trkpt lat="34.9719773" lon="32.8629631">
<ele>1272.26</ele>
<time>2015-04-29T17:01:23Z</time>
</trkpt>
<trkpt lat="34.9719152" lon="32.8629519">
<ele>1271.23</ele>
<time>2015-04-29T17:01:27Z</time>
</trkpt>
<trkpt lat="34.9718662" lon="32.8629588">
<ele>1269.44</ele>
<time>2015-04-29T17:01:30Z</time>
</trkpt>
<trkpt lat="34.9718133" lon="32.8629564">
<ele>1268.35</ele>
<time>2015-04-29T17:01:33Z</time>
</trkpt>
<trkpt lat="34.9717590" lon="32.8629449">
<ele>1268.58</ele>
<time>2015-04-29T17:01:36Z</time>
</trkpt>
<trkpt lat="34.9717001" lon="32.8629003">
<ele>1268.24</ele>
<time>2015-04-29T17:01:39Z</time>
</trkpt>
<trkpt lat="34.9716587" lon="32.8628424">
<ele>1268.44</ele>
<time>2015-04-29T17:01:42Z</time>
</trkpt>
<trkpt lat="34.9716202" lon="32.8628083">
<ele>1268.72</ele>
<time>2015-04-29T17:01:45Z</time>
</trkpt>
<trkpt lat="34.9715739" lon="32.8627996">
<ele>1269.63</ele>
<time>2015-04-29T17:01:48Z</time>
</trkpt>
<trkpt lat="34.9715202" lon="32.8627634">
<ele>1269.49</ele>
<time>2015-04-29T17:01:51Z</time>
</trkpt>
<trkpt lat="34.9714882" lon="32.8627078">
<ele>1270.60</ele>
<time>2015-04-29T17:01:54Z</time>
</trkpt>
<trkpt lat="34.9714680" lon="32.8626482">
<ele>1270.74</ele>
<time>2015-04-29T17:01:57Z</time>
</trkpt>
<trkpt lat="34.9714486" lon="32.8625840">
<ele>1273.26</ele>
<time>2015-04-29T17:02:00Z</time>
</trkpt>
<trkpt lat="34.9714474" lon="32.8625138">
<ele>1273.20</ele>
<time>2015-04-29T17:02:03Z</time>
</trkpt>
<trkpt lat="34.9714365" lon="32.8624356">
<ele>1270.44</ele>
<time>2015-04-29T17:02:06Z</time>
</trkpt>
<trkpt lat="34.9714311" lon="32.8623808">
<ele>1269.93</ele>
<time>2015-04-29T17:02:08Z</time>
</trkpt>
<trkpt lat="34.9714306" lon="32.8623053">
<ele>1270.16</ele>
<time>2015-04-29T17:02:11Z</time>
</trkpt>
<trkpt lat="34.9714254" lon="32.8622387">
<ele>1270.68</ele>
<time>2015-04-29T17:02:14Z</time>
</trkpt>
<trkpt lat="34.9714100" lon="32.8621682">
<ele>1270.13</ele>
<time>2015-04-29T17:02:17Z</time>
</trkpt>
<trkpt lat="34.9713961" lon="32.8621042">
<ele>1269.43</ele>
<time>2015-04-29T17:02:20Z</time>
</trkpt>
<trkpt lat="34.9713852" lon="32.8620468">
<ele>1268.97</ele>
<time>2015-04-29T17:02:23Z</time>
</trkpt>
<trkpt lat="34.9713563" lon="32.8620003">
<ele>1269.41</ele>
<time>2015-04-29T17:02:26Z</time>
</trkpt>
<trkpt lat="34.9713143" lon="32.8619607">
<ele>1269.34</ele>
<time>2015-04-29T17:02:29Z</time>
</trkpt>
<trkpt lat="34.9712608" lon="32.8619305">
<ele>1269.46</ele>
<time>2015-04-29T17:02:32Z</time>
</trkpt>
<trkpt lat="34.9712000" lon="32.8619136">
<ele>1270.10</ele>
<time>2015-04-29T17:02:35Z</time>
</trkpt>
<trkpt lat="34.9711405" lon="32.8618918">
<ele>1271.93</ele>
<time>2015-04-29T17:02:38Z</time>
</trkpt>
<trkpt lat="34.9710831" lon="32.8618708">
<ele>1273.41</ele>
<time>2015-04-29T17:02:41Z</time>
</trkpt>
<trkpt lat="34.9710204" lon="32.8618565">
<ele>1273.34</ele>
<time>2015-04-29T17:02:44Z</time>
</trkpt>
<trkpt lat="34.9709629" lon="32.8618316">
<ele>1273.83</ele>
<time>2015-04-29T17:02:47Z</time>
</trkpt>
<trkpt lat="34.9709065" lon="32.8617971">
<ele>1273.27</ele>
<time>2015-04-29T17:02:50Z</time>
</trkpt>
<trkpt lat="34.9708460" lon="32.8617677">
<ele>1273.45</ele>
<time>2015-04-29T17:02:53Z</time>
</trkpt>
<trkpt lat="34.9707922" lon="32.8617322">
<ele>1274.85</ele>
<time>2015-04-29T17:02:56Z</time>
</trkpt>
<trkpt lat="34.9707452" lon="32.8616836">
<ele>1276.15</ele>
<time>2015-04-29T17:02:59Z</time>
</trkpt>
<trkpt lat="34.9707121" lon="32.8616454">
<ele>1276.11</ele>
<time>2015-04-29T17:03:01Z</time>
</trkpt>
<trkpt lat="34.9706840" lon="32.8616014">
<ele>1275.60</ele>
<time>2015-04-29T17:03:03Z</time>
</trkpt>
<trkpt lat="34.9706590" lon="32.8615297">
<ele>1275.36</ele>
<time>2015-04-29T17:03:06Z</time>
</trkpt>
<trkpt lat="34.9706262" lon="32.8614600">
<ele>1275.71</ele>
<time>2015-04-29T17:03:09Z</time>
</trkpt>
<trkpt lat="34.9706031" lon="32.8614125">
<ele>1275.75</ele>
<time>2015-04-29T17:03:11Z</time>
</trkpt>
<trkpt lat="34.9705681" lon="32.8613452">
<ele>1275.88</ele>
<time>2015-04-29T17:03:14Z</time>
</trkpt>
<trkpt lat="34.9705317" lon="32.8612765">
<ele>1275.65</ele>
<time>2015-04-29T17:03:17Z</time>
</trkpt>
<trkpt lat="34.9705121" lon="32.8612266">
<ele>1274.73</ele>
<time>2015-04-29T17:03:19Z</time>
</trkpt>
<trkpt lat="34.9704725" lon="32.8611623">
<ele>1275.38</ele>
<time>2015-04-29T17:03:22Z</time>
</trkpt>
<trkpt lat="34.9704336" lon="32.8611018">
<ele>1274.84</ele>
<time>2015-04-29T17:03:25Z</time>
</trkpt>
<trkpt lat="34.9703801" lon="32.8610708">
<ele>1274.52</ele>
<time>2015-04-29T17:03:28Z</time>
</trkpt>
<trkpt lat="34.9703283" lon="32.8610537">
<ele>1274.35</ele>
<time>2015-04-29T17:03:31Z</time>
</trkpt>
<trkpt lat="34.9702771" lon="32.8610579">
<ele>1276.82</ele>
<time>2015-04-29T17:05:22Z</time>
</trkpt>
<trkpt lat="34.9702219" lon="32.8610563">
<ele>1278.14</ele>
<time>2015-04-29T17:05:25Z</time>
</trkpt>
<trkpt lat="34.9701688" lon="32.8610618">
<ele>1278.68</ele>
<time>2015-04-29T17:05:28Z</time>
</trkpt>
<trkpt lat="34.9701256" lon="32.8610799">
<ele>1279.25</ele>
<time>2015-04-29T17:05:31Z</time>
</trkpt>
<trkpt lat="34.9700745" lon="32.8610919">
<ele>1279.45</ele>
<time>2015-04-29T17:05:34Z</time>
</trkpt>
<trkpt lat="34.9700259" lon="32.8611002">
<ele>1278.97</ele>
<time>2015-04-29T17:05:37Z</time>
</trkpt>
<trkpt lat="34.9699782" lon="32.8611024">
<ele>1279.29</ele>
<time>2015-04-29T17:05:40Z</time>
</trkpt>
<trkpt lat="34.9699307" lon="32.8611181">
<ele>1279.83</ele>
<time>2015-04-29T17:05:43Z</time>
</trkpt>
<trkpt lat="34.9698799" lon="32.8611251">
<ele>1281.52</ele>
<time>2015-04-29T17:05:46Z</time>
</trkpt>
<trkpt lat="34.9698274" lon="32.8611390">
<ele>1281.73</ele>
<time>2015-04-29T17:05:49Z</time>
</trkpt>
<trkpt lat="34.9697750" lon="32.8611456">
<ele>1281.01</ele>
<time>2015-04-29T17:05:52Z</time>
</trkpt>
<trkpt lat="34.9697196" lon="32.8611613">
<ele>1281.04</ele>
<time>2015-04-29T17:05:55Z</time>
</trkpt>
<trkpt lat="34.9696607" lon="32.8611480">
<ele>1281.67</ele>
<time>2015-04-29T17:05:58Z</time>
</trkpt>
<trkpt lat="34.9696086" lon="32.8611250">
<ele>1280.00</ele>
<time>2015-04-29T17:06:01Z</time>
</trkpt>
<trkpt lat="34.9695548" lon="32.8610945">
<ele>1279.91</ele>
<time>2015-04-29T17:06:04Z</time>
</trkpt>
<trkpt lat="34.9694964" lon="32.8610525">
<ele>1279.65</ele>
<time>2015-04-29T17:06:07Z</time>
</trkpt>
<trkpt lat="34.9694525" lon="32.8610204">
<ele>1280.23</ele>
<time>2015-04-29T17:06:09Z</time>
</trkpt>
<trkpt lat="34.9694005" lon="32.8609796">
<ele>1281.13</ele>
<time>2015-04-29T17:06:11Z</time>
</trkpt>
<trkpt lat="34.9693476" lon="32.8609351">
<ele>1281.85</ele>
<time>2015-04-29T17:06:13Z</time>
</trkpt>
<trkpt lat="34.9692933" lon="32.8608967">
<ele>1282.53</ele>
<time>2015-04-29T17:06:15Z</time>
</trkpt>
<trkpt lat="34.9692381" lon="32.8608682">
<ele>1283.20</ele>
<time>2015-04-29T17:06:17Z</time>
</trkpt>
<trkpt lat="34.9691856" lon="32.8608434">
<ele>1282.87</ele>
<time>2015-04-29T17:06:19Z</time>
</trkpt>
<trkpt lat="34.9691353" lon="32.8608220">
<ele>1282.79</ele>
<time>2015-04-29T17:06:21Z</time>
</trkpt>
<trkpt lat="34.9690699" lon="32.8608055">
<ele>1281.89</ele>
<time>2015-04-29T17:06:24Z</time>
</trkpt>
<trkpt lat="34.9690072" lon="32.8607993">
<ele>1281.78</ele>
<time>2015-04-29T17:06:27Z</time>
</trkpt>
<trkpt lat="34.9689436" lon="32.8607894">
<ele>1281.76</ele>
<time>2015-04-29T17:06:30Z</time>
</trkpt>
<trkpt lat="34.9688812" lon="32.8607842">
<ele>1281.76</ele>
<time>2015-04-29T17:06:33Z</time>
</trkpt>
<trkpt lat="34.9688233" lon="32.8607638">
<ele>1281.39</ele>
<time>2015-04-29T17:06:36Z</time>
</trkpt>
<trkpt lat="34.9687817" lon="32.8607430">
<ele>1284.84</ele>
<time>2015-04-29T17:06:39Z</time>
</trkpt>
<trkpt lat="34.9687331" lon="32.8606899">
<ele>1286.26</ele>
<time>2015-04-29T17:06:44Z</time>
</trkpt>
<trkpt lat="34.9686937" lon="32.8606330">
<ele>1286.57</ele>
<time>2015-04-29T17:06:47Z</time>
</trkpt>
<trkpt lat="34.9686671" lon="32.8605627">
<ele>1286.24</ele>
<time>2015-04-29T17:06:50Z</time>
</trkpt>
<trkpt lat="34.9686535" lon="32.8604960">
<ele>1286.38</ele>
<time>2015-04-29T17:06:52Z</time>
</trkpt>
<trkpt lat="34.9686426" lon="32.8604144">
<ele>1286.66</ele>
<time>2015-04-29T17:06:54Z</time>
</trkpt>
<trkpt lat="34.9686374" lon="32.8603176">
<ele>1287.24</ele>
<time>2015-04-29T17:06:56Z</time>
</trkpt>
<trkpt lat="34.9686469" lon="32.8602180">
<ele>1287.63</ele>
<time>2015-04-29T17:06:58Z</time>
</trkpt>
<trkpt lat="34.9686611" lon="32.8601222">
<ele>1288.23</ele>
<time>2015-04-29T17:07:00Z</time>
</trkpt>
<trkpt lat="34.9686815" lon="32.8600277">
<ele>1289.38</ele>
<time>2015-04-29T17:07:02Z</time>
</trkpt>
<trkpt lat="34.9687027" lon="32.8599306">
<ele>1287.91</ele>
<time>2015-04-29T17:07:04Z</time>
</trkpt>
<trkpt lat="34.9687153" lon="32.8598777">
<ele>1288.34</ele>
<time>2015-04-29T17:07:05Z</time>
</trkpt>
<trkpt lat="34.9687385" lon="32.8597754">
<ele>1287.90</ele>
<time>2015-04-29T17:07:07Z</time>
</trkpt>
<trkpt lat="34.9687503" lon="32.8597222">
<ele>1287.83</ele>
<time>2015-04-29T17:07:08Z</time>
</trkpt>
<trkpt lat="34.9687720" lon="32.8596099">
<ele>1287.78</ele>
<time>2015-04-29T17:07:10Z</time>
</trkpt>
<trkpt lat="34.9687878" lon="32.8595090">
<ele>1287.26</ele>
<time>2015-04-29T17:07:12Z</time>
</trkpt>
<trkpt lat="34.9687997" lon="32.8594293">
<ele>1287.14</ele>
<time>2015-04-29T17:07:14Z</time>
</trkpt>
<trkpt lat="34.9688057" lon="32.8593596">
<ele>1287.60</ele>
<time>2015-04-29T17:07:16Z</time>
</trkpt>
<trkpt lat="34.9688181" lon="32.8592814">
<ele>1288.22</ele>
<time>2015-04-29T17:07:18Z</time>
</trkpt>
<trkpt lat="34.9688236" lon="32.8591981">
<ele>1288.63</ele>
<time>2015-04-29T17:07:20Z</time>
</trkpt>
<trkpt lat="34.9688251" lon="32.8591103">
<ele>1288.73</ele>
<time>2015-04-29T17:07:22Z</time>
</trkpt>
<trkpt lat="34.9688307" lon="32.8590219">
<ele>1290.00</ele>
<time>2015-04-29T17:07:24Z</time>
</trkpt>
<trkpt lat="34.9688259" lon="32.8589306">
<ele>1291.07</ele>
<time>2015-04-29T17:07:26Z</time>
</trkpt>
<trkpt lat="34.9688166" lon="32.8588422">
<ele>1290.09</ele>
<time>2015-04-29T17:07:28Z</time>
</trkpt>
<trkpt lat="34.9688247" lon="32.8587712">
<ele>1290.59</ele>
<time>2015-04-29T17:07:30Z</time>
</trkpt>
<trkpt lat="34.9688297" lon="32.8586981">
<ele>1291.47</ele>
<time>2015-04-29T17:07:32Z</time>
</trkpt>
<trkpt lat="34.9688312" lon="32.8586216">
<ele>1292.94</ele>
<time>2015-04-29T17:07:34Z</time>
</trkpt>
<trkpt lat="34.9688293" lon="32.8585497">
<ele>1294.30</ele>
<time>2015-04-29T17:07:36Z</time>
</trkpt>
<trkpt lat="34.9688194" lon="32.8584879">
<ele>1294.40</ele>
<time>2015-04-29T17:07:38Z</time>
</trkpt>
<trkpt lat="34.9688040" lon="32.8584248">
<ele>1295.17</ele>
<time>2015-04-29T17:07:40Z</time>
</trkpt>
<trkpt lat="34.9687854" lon="32.8583506">
<ele>1296.11</ele>
<time>2015-04-29T17:07:42Z</time>
</trkpt>
<trkpt lat="34.9687608" lon="32.8582680">
<ele>1296.10</ele>
<time>2015-04-29T17:07:44Z</time>
</trkpt>
<trkpt lat="34.9687346" lon="32.8581788">
<ele>1295.34</ele>
<time>2015-04-29T17:07:46Z</time>
</trkpt>
<trkpt lat="34.9687083" lon="32.8580955">
<ele>1295.41</ele>
<time>2015-04-29T17:07:48Z</time>
</trkpt>
<trkpt lat="34.9686779" lon="32.8580281">
<ele>1295.67</ele>
<time>2015-04-29T17:07:50Z</time>
</trkpt>
<trkpt lat="34.9686540" lon="32.8579619">
<ele>1295.25</ele>
<time>2015-04-29T17:07:53Z</time>
</trkpt>
<trkpt lat="34.9686376" lon="32.8579090">
<ele>1295.88</ele>
<time>2015-04-29T17:07:55Z</time>
</trkpt>
<trkpt lat="34.9686077" lon="32.8578513">
<ele>1297.04</ele>
<time>2015-04-29T17:07:57Z</time>
</trkpt>
<trkpt lat="34.9685781" lon="32.8577839">
<ele>1295.58</ele>
<time>2015-04-29T17:07:59Z</time>
</trkpt>
<trkpt lat="34.9685482" lon="32.8577162">
<ele>1296.47</ele>
<time>2015-04-29T17:08:01Z</time>
</trkpt>
<trkpt lat="34.9685152" lon="32.8576459">
<ele>1297.44</ele>
<time>2015-04-29T17:08:03Z</time>
</trkpt>
<trkpt lat="34.9684869" lon="32.8575655">
<ele>1297.18</ele>
<time>2015-04-29T17:08:05Z</time>
</trkpt>
<trkpt lat="34.9684633" lon="32.8574959">
<ele>1297.11</ele>
<time>2015-04-29T17:08:07Z</time>
</trkpt>
<trkpt lat="34.9684416" lon="32.8574088">
<ele>1297.35</ele>
<time>2015-04-29T17:08:09Z</time>
</trkpt>
<trkpt lat="34.9684228" lon="32.8573326">
<ele>1296.66</ele>
<time>2015-04-29T17:08:11Z</time>
</trkpt>
<trkpt lat="34.9684130" lon="32.8572597">
<ele>1297.23</ele>
<time>2015-04-29T17:08:13Z</time>
</trkpt>
<trkpt lat="34.9684139" lon="32.8572035">
<ele>1296.38</ele>
<time>2015-04-29T17:08:15Z</time>
</trkpt>
<trkpt lat="34.9684303" lon="32.8571389">
<ele>1295.16</ele>
<time>2015-04-29T17:08:17Z</time>
</trkpt>
<trkpt lat="34.9684672" lon="32.8570767">
<ele>1294.86</ele>
<time>2015-04-29T17:08:19Z</time>
</trkpt>
<trkpt lat="34.9685152" lon="32.8570210">
<ele>1294.79</ele>
<time>2015-04-29T17:08:21Z</time>
</trkpt>
<trkpt lat="34.9685572" lon="32.8569640">
<ele>1294.77</ele>
<time>2015-04-29T17:08:23Z</time>
</trkpt>
<trkpt lat="34.9686099" lon="32.8569152">
<ele>1293.76</ele>
<time>2015-04-29T17:08:25Z</time>
</trkpt>
<trkpt lat="34.9686670" lon="32.8568769">
<ele>1294.26</ele>
<time>2015-04-29T17:08:27Z</time>
</trkpt>
<trkpt lat="34.9687308" lon="32.8568557">
<ele>1295.14</ele>
<time>2015-04-29T17:08:29Z</time>
</trkpt>
<trkpt lat="34.9687982" lon="32.8568430">
<ele>1295.60</ele>
<time>2015-04-29T17:08:31Z</time>
</trkpt>
<trkpt lat="34.9688706" lon="32.8568292">
<ele>1296.72</ele>
<time>2015-04-29T17:08:33Z</time>
</trkpt>
<trkpt lat="34.9689401" lon="32.8568134">
<ele>1298.00</ele>
<time>2015-04-29T17:08:35Z</time>
</trkpt>
<trkpt lat="34.9690124" lon="32.8568024">
<ele>1298.32</ele>
<time>2015-04-29T17:08:37Z</time>
</trkpt>
<trkpt lat="34.9690818" lon="32.8567879">
<ele>1298.15</ele>
<time>2015-04-29T17:08:39Z</time>
</trkpt>
<trkpt lat="34.9691545" lon="32.8567637">
<ele>1296.61</ele>
<time>2015-04-29T17:08:41Z</time>
</trkpt>
<trkpt lat="34.9692259" lon="32.8567323">
<ele>1296.22</ele>
<time>2015-04-29T17:08:43Z</time>
</trkpt>
<trkpt lat="34.9692928" lon="32.8566899">
<ele>1295.88</ele>
<time>2015-04-29T17:08:45Z</time>
</trkpt>
<trkpt lat="34.9693448" lon="32.8566314">
<ele>1295.54</ele>
<time>2015-04-29T17:08:47Z</time>
</trkpt>
<trkpt lat="34.9693878" lon="32.8565591">
<ele>1296.20</ele>
<time>2015-04-29T17:08:49Z</time>
</trkpt>
<trkpt lat="34.9694256" lon="32.8564834">
<ele>1295.87</ele>
<time>2015-04-29T17:08:51Z</time>
</trkpt>
<trkpt lat="34.9694588" lon="32.8564032">
<ele>1296.54</ele>
<time>2015-04-29T17:08:53Z</time>
</trkpt>
<trkpt lat="34.9694790" lon="32.8563188">
<ele>1296.20</ele>
<time>2015-04-29T17:08:55Z</time>
</trkpt>
<trkpt lat="34.9694997" lon="32.8562268">
<ele>1296.37</ele>
<time>2015-04-29T17:08:57Z</time>
</trkpt>
<trkpt lat="34.9695250" lon="32.8561423">
<ele>1296.66</ele>
<time>2015-04-29T17:08:59Z</time>
</trkpt>
<trkpt lat="34.9695526" lon="32.8560631">
<ele>1295.74</ele>
<time>2015-04-29T17:09:01Z</time>
</trkpt>
<trkpt lat="34.9695853" lon="32.8559908">
<ele>1296.50</ele>
<time>2015-04-29T17:09:03Z</time>
</trkpt>
<trkpt lat="34.9696192" lon="32.8559135">
<ele>1295.70</ele>
<time>2015-04-29T17:09:05Z</time>
</trkpt>
<trkpt lat="34.9696534" lon="32.8558368">
<ele>1296.49</ele>
<time>2015-04-29T17:09:07Z</time>
</trkpt>
<trkpt lat="34.9696963" lon="32.8557634">
<ele>1297.19</ele>
<time>2015-04-29T17:09:09Z</time>
</trkpt>
<trkpt lat="34.9697469" lon="32.8557089">
<ele>1299.12</ele>
<time>2015-04-29T17:09:11Z</time>
</trkpt>
<trkpt lat="34.9697877" lon="32.8556527">
<ele>1299.60</ele>
<time>2015-04-29T17:09:13Z</time>
</trkpt>
<trkpt lat="34.9698204" lon="32.8555890">
<ele>1300.22</ele>
<time>2015-04-29T17:09:15Z</time>
</trkpt>
<trkpt lat="34.9698485" lon="32.8555201">
<ele>1300.62</ele>
<time>2015-04-29T17:09:17Z</time>
</trkpt>
<trkpt lat="34.9698735" lon="32.8554565">
<ele>1299.73</ele>
<time>2015-04-29T17:09:19Z</time>
</trkpt>
<trkpt lat="34.9699003" lon="32.8553928">
<ele>1299.75</ele>
<time>2015-04-29T17:09:21Z</time>
</trkpt>
<trkpt lat="34.9699167" lon="32.8553243">
<ele>1299.51</ele>
<time>2015-04-29T17:09:23Z</time>
</trkpt>
<trkpt lat="34.9699393" lon="32.8552526">
<ele>1300.95</ele>
<time>2015-04-29T17:09:25Z</time>
</trkpt>
<trkpt lat="34.9699578" lon="32.8551785">
<ele>1301.56</ele>
<time>2015-04-29T17:09:27Z</time>
</trkpt>
<trkpt lat="34.9699767" lon="32.8551013">
<ele>1302.46</ele>
<time>2015-04-29T17:09:29Z</time>
</trkpt>
<trkpt lat="34.9699873" lon="32.8550233">
<ele>1303.18</ele>
<time>2015-04-29T17:09:31Z</time>
</trkpt>
<trkpt lat="34.9699895" lon="32.8549438">
<ele>1302.87</ele>
<time>2015-04-29T17:09:33Z</time>
</trkpt>
<trkpt lat="34.9699862" lon="32.8548668">
<ele>1303.54</ele>
<time>2015-04-29T17:09:35Z</time>
</trkpt>
<trkpt lat="34.9699722" lon="32.8547895">
<ele>1304.20</ele>
<time>2015-04-29T17:09:37Z</time>
</trkpt>
<trkpt lat="34.9699476" lon="32.8547223">
<ele>1305.12</ele>
<time>2015-04-29T17:09:39Z</time>
</trkpt>
<trkpt lat="34.9699101" lon="32.8546580">
<ele>1305.10</ele>
<time>2015-04-29T17:09:41Z</time>
</trkpt>
<trkpt lat="34.9698542" lon="32.8545942">
<ele>1305.60</ele>
<time>2015-04-29T17:09:43Z</time>
</trkpt>
<trkpt lat="34.9698139" lon="32.8545598">
<ele>1305.68</ele>
<time>2015-04-29T17:09:44Z</time>
</trkpt>
<trkpt lat="34.9697658" lon="32.8545397">
<ele>1306.22</ele>
<time>2015-04-29T17:09:45Z</time>
</trkpt>
<trkpt lat="34.9696988" lon="32.8544872">
<ele>1307.12</ele>
<time>2015-04-29T17:09:47Z</time>
</trkpt>
<trkpt lat="34.9696507" lon="32.8544644">
<ele>1306.85</ele>
<time>2015-04-29T17:09:49Z</time>
</trkpt>
<trkpt lat="34.9695925" lon="32.8544333">
<ele>1306.78</ele>
<time>2015-04-29T17:09:51Z</time>
</trkpt>
<trkpt lat="34.9695334" lon="32.8544026">
<ele>1306.77</ele>
<time>2015-04-29T17:09:53Z</time>
</trkpt>
<trkpt lat="34.9694827" lon="32.8543725">
<ele>1307.51</ele>
<time>2015-04-29T17:09:55Z</time>
</trkpt>
<trkpt lat="34.9694240" lon="32.8543418">
<ele>1307.70</ele>
<time>2015-04-29T17:09:57Z</time>
</trkpt>
<trkpt lat="34.9693731" lon="32.8543080">
<ele>1307.74</ele>
<time>2015-04-29T17:09:59Z</time>
</trkpt>
<trkpt lat="34.9693231" lon="32.8542780">
<ele>1307.26</ele>
<time>2015-04-29T17:10:01Z</time>
</trkpt>
<trkpt lat="34.9692728" lon="32.8542567">
<ele>1306.88</ele>
<time>2015-04-29T17:10:03Z</time>
</trkpt>
<trkpt lat="34.9692172" lon="32.8542342">
<ele>1307.29</ele>
<time>2015-04-29T17:10:05Z</time>
</trkpt>
<trkpt lat="34.9691629" lon="32.8542092">
<ele>1307.14</ele>
<time>2015-04-29T17:10:07Z</time>
</trkpt>
<trkpt lat="34.9691111" lon="32.8541865">
<ele>1306.86</ele>
<time>2015-04-29T17:10:09Z</time>
</trkpt>
<trkpt lat="34.9690649" lon="32.8541754">
<ele>1306.78</ele>
<time>2015-04-29T17:10:11Z</time>
</trkpt>
<trkpt lat="34.9690095" lon="32.8541653">
<ele>1307.52</ele>
<time>2015-04-29T17:10:13Z</time>
</trkpt>
<trkpt lat="34.9689516" lon="32.8541577">
<ele>1307.70</ele>
<time>2015-04-29T17:10:15Z</time>
</trkpt>
<trkpt lat="34.9688968" lon="32.8541467">
<ele>1307.74</ele>
<time>2015-04-29T17:10:17Z</time>
</trkpt>
<trkpt lat="34.9688487" lon="32.8541350">
<ele>1308.26</ele>
<time>2015-04-29T17:10:19Z</time>
</trkpt>
<trkpt lat="34.9688022" lon="32.8541149">
<ele>1308.63</ele>
<time>2015-04-29T17:10:21Z</time>
</trkpt>
<trkpt lat="34.9687568" lon="32.8540938">
<ele>1307.48</ele>
<time>2015-04-29T17:10:23Z</time>
</trkpt>
<trkpt lat="34.9687099" lon="32.8540728">
<ele>1306.94</ele>
<time>2015-04-29T17:10:25Z</time>
</trkpt>
<trkpt lat="34.9686628" lon="32.8540457">
<ele>1307.55</ele>
<time>2015-04-29T17:10:27Z</time>
</trkpt>
<trkpt lat="34.9686174" lon="32.8540075">
<ele>1307.71</ele>
<time>2015-04-29T17:10:29Z</time>
</trkpt>
<trkpt lat="34.9685785" lon="32.8539571">
<ele>1308.50</ele>
<time>2015-04-29T17:10:31Z</time>
</trkpt>
<trkpt lat="34.9685408" lon="32.8539016">
<ele>1308.69</ele>
<time>2015-04-29T17:10:33Z</time>
</trkpt>
<trkpt lat="34.9685034" lon="32.8538501">
<ele>1309.24</ele>
<time>2015-04-29T17:10:35Z</time>
</trkpt>
<trkpt lat="34.9684649" lon="32.8537930">
<ele>1310.13</ele>
<time>2015-04-29T17:10:37Z</time>
</trkpt>
<trkpt lat="34.9684298" lon="32.8537334">
<ele>1310.85</ele>
<time>2015-04-29T17:10:39Z</time>
</trkpt>
<trkpt lat="34.9683842" lon="32.8536724">
<ele>1310.28</ele>
<time>2015-04-29T17:10:41Z</time>
</trkpt>
<trkpt lat="34.9683416" lon="32.8536134">
<ele>1310.39</ele>
<time>2015-04-29T17:10:43Z</time>
</trkpt>
<trkpt lat="34.9683008" lon="32.8535674">
<ele>1311.42</ele>
<time>2015-04-29T17:10:45Z</time>
</trkpt>
<trkpt lat="34.9682488" lon="32.8535226">
<ele>1311.72</ele>
<time>2015-04-29T17:10:48Z</time>
</trkpt>
<trkpt lat="34.9682092" lon="32.8534892">
<ele>1311.75</ele>
<time>2015-04-29T17:10:51Z</time>
</trkpt>
<trkpt lat="34.9681584" lon="32.8534518">
<ele>1310.88</ele>
<time>2015-04-29T17:10:54Z</time>
</trkpt>
<trkpt lat="34.9680998" lon="32.8534060">
<ele>1311.03</ele>
<time>2015-04-29T17:10:57Z</time>
</trkpt>
<trkpt lat="34.9680606" lon="32.8533756">
<ele>1311.33</ele>
<time>2015-04-29T17:10:59Z</time>
</trkpt>
<trkpt lat="34.9680239" lon="32.8533390">
<ele>1312.15</ele>
<time>2015-04-29T17:11:01Z</time>
</trkpt>
<trkpt lat="34.9679938" lon="32.8532981">
<ele>1312.61</ele>
<time>2015-04-29T17:11:03Z</time>
</trkpt>
<trkpt lat="34.9679738" lon="32.8532293">
<ele>1314.24</ele>
<time>2015-04-29T17:11:06Z</time>
</trkpt>
<trkpt lat="34.9679580" lon="32.8531561">
<ele>1316.07</ele>
<time>2015-04-29T17:11:09Z</time>
</trkpt>
<trkpt lat="34.9679378" lon="32.8530732">
<ele>1316.67</ele>
<time>2015-04-29T17:11:12Z</time>
</trkpt>
<trkpt lat="34.9679344" lon="32.8529854">
<ele>1315.24</ele>
<time>2015-04-29T17:11:14Z</time>
</trkpt>
<trkpt lat="34.9679450" lon="32.8529046">
<ele>1314.63</ele>
<time>2015-04-29T17:11:16Z</time>
</trkpt>
<trkpt lat="34.9679626" lon="32.8528325">
<ele>1315.48</ele>
<time>2015-04-29T17:11:18Z</time>
</trkpt>
<trkpt lat="34.9679994" lon="32.8527733">
<ele>1315.94</ele>
<time>2015-04-29T17:11:20Z</time>
</trkpt>
<trkpt lat="34.9680345" lon="32.8527132">
<ele>1314.55</ele>
<time>2015-04-29T17:11:22Z</time>
</trkpt>
<trkpt lat="34.9680717" lon="32.8526595">
<ele>1313.46</ele>
<time>2015-04-29T17:11:24Z</time>
</trkpt>
<trkpt lat="34.9681111" lon="32.8526077">
<ele>1312.93</ele>
<time>2015-04-29T17:11:26Z</time>
</trkpt>
<trkpt lat="34.9681576" lon="32.8525566">
<ele>1314.05</ele>
<time>2015-04-29T17:11:28Z</time>
</trkpt>
<trkpt lat="34.9682141" lon="32.8525214">
<ele>1314.58</ele>
<time>2015-04-29T17:11:30Z</time>
</trkpt>
<trkpt lat="34.9682707" lon="32.8524890">
<ele>1314.97</ele>
<time>2015-04-29T17:11:32Z</time>
</trkpt>
<trkpt lat="34.9683090" lon="32.8524345">
<ele>1315.31</ele>
<time>2015-04-29T17:11:34Z</time>
</trkpt>
<trkpt lat="34.9683472" lon="32.8523749">
<ele>1315.15</ele>
<time>2015-04-29T17:11:36Z</time>
</trkpt>
<trkpt lat="34.9683867" lon="32.8523127">
<ele>1315.11</ele>
<time>2015-04-29T17:11:38Z</time>
</trkpt>
<trkpt lat="34.9684286" lon="32.8522493">
<ele>1314.85</ele>
<time>2015-04-29T17:11:40Z</time>
</trkpt>
<trkpt lat="34.9684654" lon="32.8521886">
<ele>1314.78</ele>
<time>2015-04-29T17:11:42Z</time>
</trkpt>
<trkpt lat="34.9684839" lon="32.8521159">
<ele>1313.77</ele>
<time>2015-04-29T17:11:44Z</time>
</trkpt>
<trkpt lat="34.9684839" lon="32.8520396">
<ele>1313.76</ele>
<time>2015-04-29T17:11:46Z</time>
</trkpt>
<trkpt lat="34.9684758" lon="32.8519661">
<ele>1314.51</ele>
<time>2015-04-29T17:11:48Z</time>
</trkpt>
<trkpt lat="34.9684457" lon="32.8518970">
<ele>1315.20</ele>
<time>2015-04-29T17:11:50Z</time>
</trkpt>
<trkpt lat="34.9684089" lon="32.8518321">
<ele>1316.12</ele>
<time>2015-04-29T17:11:52Z</time>
</trkpt>
<trkpt lat="34.9683747" lon="32.8517684">
<ele>1318.10</ele>
<time>2015-04-29T17:11:54Z</time>
</trkpt>
<trkpt lat="34.9683370" lon="32.8517054">
<ele>1318.59</ele>
<time>2015-04-29T17:11:56Z</time>
</trkpt>
<trkpt lat="34.9682966" lon="32.8516426">
<ele>1318.72</ele>
<time>2015-04-29T17:11:58Z</time>
</trkpt>
<trkpt lat="34.9682602" lon="32.8515788">
<ele>1318.75</ele>
<time>2015-04-29T17:12:00Z</time>
</trkpt>
<trkpt lat="34.9682232" lon="32.8515095">
<ele>1319.76</ele>
<time>2015-04-29T17:12:02Z</time>
</trkpt>
<trkpt lat="34.9681816" lon="32.8514363">
<ele>1320.26</ele>
<time>2015-04-29T17:12:04Z</time>
</trkpt>
<trkpt lat="34.9681500" lon="32.8513625">
<ele>1321.13</ele>
<time>2015-04-29T17:12:06Z</time>
</trkpt>
<trkpt lat="34.9681205" lon="32.8512882">
<ele>1320.85</ele>
<time>2015-04-29T17:12:08Z</time>
</trkpt>
<trkpt lat="34.9680887" lon="32.8512278">
<ele>1320.78</ele>
<time>2015-04-29T17:12:10Z</time>
</trkpt>
<trkpt lat="34.9680688" lon="32.8511638">
<ele>1319.52</ele>
<time>2015-04-29T17:12:12Z</time>
</trkpt>
<trkpt lat="34.9680496" lon="32.8510921">
<ele>1318.95</ele>
<time>2015-04-29T17:12:14Z</time>
</trkpt>
<trkpt lat="34.9680370" lon="32.8510199">
<ele>1319.06</ele>
<time>2015-04-29T17:12:16Z</time>
</trkpt>
<trkpt lat="34.9680254" lon="32.8509452">
<ele>1319.33</ele>
<time>2015-04-29T17:12:18Z</time>
</trkpt>
<trkpt lat="34.9680010" lon="32.8508597">
<ele>1321.15</ele>
<time>2015-04-29T17:12:20Z</time>
</trkpt>
<trkpt lat="34.9679772" lon="32.8507739">
<ele>1322.86</ele>
<time>2015-04-29T17:12:22Z</time>
</trkpt>
<trkpt lat="34.9679528" lon="32.8506913">
<ele>1322.53</ele>
<time>2015-04-29T17:12:24Z</time>
</trkpt>
<trkpt lat="34.9679292" lon="32.8506127">
<ele>1321.95</ele>
<time>2015-04-29T17:12:26Z</time>
</trkpt>
<trkpt lat="34.9679037" lon="32.8505325">
<ele>1322.56</ele>
<time>2015-04-29T17:12:28Z</time>
</trkpt>
<trkpt lat="34.9678797" lon="32.8504466">
<ele>1321.71</ele>
<time>2015-04-29T17:12:30Z</time>
</trkpt>
<trkpt lat="34.9678493" lon="32.8503598">
<ele>1322.25</ele>
<time>2015-04-29T17:12:32Z</time>
</trkpt>
<trkpt lat="34.9678201" lon="32.8502697">
<ele>1321.13</ele>
<time>2015-04-29T17:12:34Z</time>
</trkpt>
<trkpt lat="34.9677953" lon="32.8501732">
<ele>1319.10</ele>
<time>2015-04-29T17:12:36Z</time>
</trkpt>
<trkpt lat="34.9677804" lon="32.8500825">
<ele>1319.10</ele>
<time>2015-04-29T17:12:38Z</time>
</trkpt>
<trkpt lat="34.9677689" lon="32.8499986">
<ele>1319.34</ele>
<time>2015-04-29T17:12:40Z</time>
</trkpt>
<trkpt lat="34.9677520" lon="32.8499225">
<ele>1320.91</ele>
<time>2015-04-29T17:12:42Z</time>
</trkpt>
<trkpt lat="34.9677255" lon="32.8498497">
<ele>1322.30</ele>
<time>2015-04-29T17:12:44Z</time>
</trkpt>
<trkpt lat="34.9676982" lon="32.8497796">
<ele>1322.14</ele>
<time>2015-04-29T17:12:46Z</time>
</trkpt>
<trkpt lat="34.9676618" lon="32.8497124">
<ele>1321.86</ele>
<time>2015-04-29T17:12:48Z</time>
</trkpt>
<trkpt lat="34.9676147" lon="32.8496524">
<ele>1321.78</ele>
<time>2015-04-29T17:12:50Z</time>
</trkpt>
<trkpt lat="34.9675624" lon="32.8495963">
<ele>1322.27</ele>
<time>2015-04-29T17:12:52Z</time>
</trkpt>
<trkpt lat="34.9675134" lon="32.8495524">
<ele>1323.64</ele>
<time>2015-04-29T17:12:54Z</time>
</trkpt>
<trkpt lat="34.9674588" lon="32.8495530">
<ele>1328.20</ele>
<time>2015-04-29T17:13:55Z</time>
</trkpt>
<trkpt lat="34.9674081" lon="32.8496089">
<ele>1328.06</ele>
<time>2015-04-29T17:13:58Z</time>
</trkpt>
<trkpt lat="34.9673545" lon="32.8496733">
<ele>1327.84</ele>
<time>2015-04-29T17:14:00Z</time>
</trkpt>
<trkpt lat="34.9673037" lon="32.8497446">
<ele>1327.28</ele>
<time>2015-04-29T17:14:02Z</time>
</trkpt>
<trkpt lat="34.9672587" lon="32.8498313">
<ele>1326.39</ele>
<time>2015-04-29T17:14:04Z</time>
</trkpt>
<trkpt lat="34.9672245" lon="32.8499178">
<ele>1326.07</ele>
<time>2015-04-29T17:14:05Z</time>
</trkpt>
<trkpt lat="34.9671765" lon="32.8500111">
<ele>1325.09</ele>
<time>2015-04-29T17:14:07Z</time>
</trkpt>
<trkpt lat="34.9671616" lon="32.8500737">
<ele>1324.92</ele>
<time>2015-04-29T17:14:08Z</time>
</trkpt>
<trkpt lat="34.9671332" lon="32.8501933">
<ele>1324.30</ele>
<time>2015-04-29T17:14:10Z</time>
</trkpt>
<trkpt lat="34.9671111" lon="32.8502552">
<ele>1324.53</ele>
<time>2015-04-29T17:14:11Z</time>
</trkpt>
<trkpt lat="34.9670826" lon="32.8503239">
<ele>1324.15</ele>
<time>2015-04-29T17:14:12Z</time>
</trkpt>
<trkpt lat="34.9670655" lon="32.8503907">
<ele>1324.45</ele>
<time>2015-04-29T17:14:13Z</time>
</trkpt>
<trkpt lat="34.9670468" lon="32.8504588">
<ele>1324.11</ele>
<time>2015-04-29T17:14:14Z</time>
</trkpt>
<trkpt lat="34.9670148" lon="32.8505128">
<ele>1323.93</ele>
<time>2015-04-29T17:14:15Z</time>
</trkpt>
<trkpt lat="34.9669995" lon="32.8505743">
<ele>1323.35</ele>
<time>2015-04-29T17:14:16Z</time>
</trkpt>
<trkpt lat="34.9669893" lon="32.8506454">
<ele>1323.05</ele>
<time>2015-04-29T17:14:17Z</time>
</trkpt>
<trkpt lat="34.9669647" lon="32.8507060">
<ele>1322.91</ele>
<time>2015-04-29T17:14:18Z</time>
</trkpt>
<trkpt lat="34.9669457" lon="32.8507628">
<ele>1322.33</ele>
<time>2015-04-29T17:14:19Z</time>
</trkpt>
<trkpt lat="34.9669202" lon="32.8508207">
<ele>1321.55</ele>
<time>2015-04-29T17:14:20Z</time>
</trkpt>
<trkpt lat="34.9668958" lon="32.8508906">
<ele>1321.15</ele>
<time>2015-04-29T17:14:21Z</time>
</trkpt>
<trkpt lat="34.9668854" lon="32.8509577">
<ele>1320.46</ele>
<time>2015-04-29T17:14:22Z</time>
</trkpt>
<trkpt lat="34.9668739" lon="32.8510240">
<ele>1320.11</ele>
<time>2015-04-29T17:14:23Z</time>
</trkpt>
<trkpt lat="34.9668612" lon="32.8510825">
<ele>1319.43</ele>
<time>2015-04-29T17:14:24Z</time>
</trkpt>
<trkpt lat="34.9668407" lon="32.8511478">
<ele>1319.10</ele>
<time>2015-04-29T17:14:25Z</time>
</trkpt>
<trkpt lat="34.9668210" lon="32.8512064">
<ele>1318.43</ele>
<time>2015-04-29T17:14:26Z</time>
</trkpt>
<trkpt lat="34.9667959" lon="32.8512678">
<ele>1317.59</ele>
<time>2015-04-29T17:14:27Z</time>
</trkpt>
<trkpt lat="34.9667766" lon="32.8513317">
<ele>1316.68</ele>
<time>2015-04-29T17:14:28Z</time>
</trkpt>
<trkpt lat="34.9667449" lon="32.8513894">
<ele>1316.22</ele>
<time>2015-04-29T17:14:29Z</time>
</trkpt>
<trkpt lat="34.9667231" lon="32.8514686">
<ele>1316.49</ele>
<time>2015-04-29T17:14:30Z</time>
</trkpt>
<trkpt lat="34.9666951" lon="32.8515516">
<ele>1316.62</ele>
<time>2015-04-29T17:14:31Z</time>
</trkpt>
<trkpt lat="34.9666461" lon="32.8516224">
<ele>1316.69</ele>
<time>2015-04-29T17:14:32Z</time>
</trkpt>
<trkpt lat="34.9666027" lon="32.8516766">
<ele>1317.23</ele>
<time>2015-04-29T17:14:33Z</time>
</trkpt>
<trkpt lat="34.9665706" lon="32.8517395">
<ele>1317.49</ele>
<time>2015-04-29T17:14:34Z</time>
</trkpt>
<trkpt lat="34.9665327" lon="32.8517897">
<ele>1317.13</ele>
<time>2015-04-29T17:14:35Z</time>
</trkpt>
<trkpt lat="34.9664843" lon="32.8518304">
<ele>1316.94</ele>
<time>2015-04-29T17:14:36Z</time>
</trkpt>
<trkpt lat="34.9664300" lon="32.8518694">
<ele>1316.85</ele>
<time>2015-04-29T17:14:37Z</time>
</trkpt>
<trkpt lat="34.9663757" lon="32.8518950">
<ele>1316.81</ele>
<time>2015-04-29T17:14:38Z</time>
</trkpt>
<trkpt lat="34.9663134" lon="32.8519057">
<ele>1316.28</ele>
<time>2015-04-29T17:14:39Z</time>
</trkpt>
<trkpt lat="34.9662611" lon="32.8519203">
<ele>1316.02</ele>
<time>2015-04-29T17:14:40Z</time>
</trkpt>
<trkpt lat="34.9662066" lon="32.8519132">
<ele>1316.39</ele>
<time>2015-04-29T17:14:41Z</time>
</trkpt>
<trkpt lat="34.9661457" lon="32.8518884">
<ele>1316.08</ele>
<time>2015-04-29T17:14:42Z</time>
</trkpt>
<trkpt lat="34.9660854" lon="32.8518652">
<ele>1316.42</ele>
<time>2015-04-29T17:14:43Z</time>
</trkpt>
<trkpt lat="34.9660262" lon="32.8518266">
<ele>1317.09</ele>
<time>2015-04-29T17:14:44Z</time>
</trkpt>
<trkpt lat="34.9659701" lon="32.8517834">
<ele>1316.92</ele>
<time>2015-04-29T17:14:45Z</time>
</trkpt>
<trkpt lat="34.9659171" lon="32.8517305">
<ele>1317.84</ele>
<time>2015-04-29T17:14:46Z</time>
</trkpt>
<trkpt lat="34.9658638" lon="32.8516765">
<ele>1318.30</ele>
<time>2015-04-29T17:14:47Z</time>
</trkpt>
<trkpt lat="34.9658312" lon="32.8515948">
<ele>1319.03</ele>
<time>2015-04-29T17:14:48Z</time>
</trkpt>
<trkpt lat="34.9657982" lon="32.8515350">
<ele>1318.90</ele>
<time>2015-04-29T17:14:49Z</time>
</trkpt>
<trkpt lat="34.9657788" lon="32.8514489">
<ele>1318.83</ele>
<time>2015-04-29T17:14:50Z</time>
</trkpt>
<trkpt lat="34.9657402" lon="32.8513790">
<ele>1318.79</ele>
<time>2015-04-29T17:14:51Z</time>
</trkpt>
<trkpt lat="34.9657042" lon="32.8513166">
<ele>1318.78</ele>
<time>2015-04-29T17:14:52Z</time>
</trkpt>
<trkpt lat="34.9656644" lon="32.8512374">
<ele>1319.77</ele>
<time>2015-04-29T17:14:53Z</time>
</trkpt>
<trkpt lat="34.9656387" lon="32.8511670">
<ele>1319.26</ele>
<time>2015-04-29T17:14:54Z</time>
</trkpt>
<trkpt lat="34.9655950" lon="32.8511086">
<ele>1319.01</ele>
<time>2015-04-29T17:14:55Z</time>
</trkpt>
<trkpt lat="34.9655598" lon="32.8510397">
<ele>1318.89</ele>
<time>2015-04-29T17:14:56Z</time>
</trkpt>
<trkpt lat="34.9655225" lon="32.8509663">
<ele>1318.82</ele>
<time>2015-04-29T17:14:57Z</time>
</trkpt>
<trkpt lat="34.9654716" lon="32.8509256">
<ele>1319.29</ele>
<time>2015-04-29T17:14:58Z</time>
</trkpt>
<trkpt lat="34.9654123" lon="32.8508842">
<ele>1319.53</ele>
<time>2015-04-29T17:14:59Z</time>
</trkpt>
<trkpt lat="34.9653581" lon="32.8508439">
<ele>1319.14</ele>
<time>2015-04-29T17:15:00Z</time>
</trkpt>
<trkpt lat="34.9653066" lon="32.8508234">
<ele>1318.95</ele>
<time>2015-04-29T17:15:01Z</time>
</trkpt>
<trkpt lat="34.9652428" lon="32.8508236">
<ele>1318.86</ele>
<time>2015-04-29T17:15:02Z</time>
</trkpt>
<trkpt lat="34.9651778" lon="32.8508354">
<ele>1318.31</ele>
<time>2015-04-29T17:15:03Z</time>
</trkpt>
<trkpt lat="34.9651068" lon="32.8508614">
<ele>1318.03</ele>
<time>2015-04-29T17:15:04Z</time>
</trkpt>
<trkpt lat="34.9650455" lon="32.8508921">
<ele>1318.40</ele>
<time>2015-04-29T17:15:05Z</time>
</trkpt>
<trkpt lat="34.9649865" lon="32.8509210">
<ele>1318.08</ele>
<time>2015-04-29T17:15:06Z</time>
</trkpt>
<trkpt lat="34.9649250" lon="32.8509502">
<ele>1318.42</ele>
<time>2015-04-29T17:15:07Z</time>
</trkpt>
<trkpt lat="34.9648789" lon="32.8509769">
<ele>1318.59</ele>
<time>2015-04-29T17:15:08Z</time>
</trkpt>
<trkpt lat="34.9648161" lon="32.8509988">
<ele>1319.17</ele>
<time>2015-04-29T17:15:09Z</time>
</trkpt>
<trkpt lat="34.9647640" lon="32.8510016">
<ele>1319.47</ele>
<time>2015-04-29T17:15:10Z</time>
</trkpt>
<trkpt lat="34.9647144" lon="32.8510007">
<ele>1319.61</ele>
<time>2015-04-29T17:15:11Z</time>
</trkpt>
<trkpt lat="34.9646701" lon="32.8509901">
<ele>1320.19</ele>
<time>2015-04-29T17:15:12Z</time>
</trkpt>
<trkpt lat="34.9646181" lon="32.8509724">
<ele>1319.97</ele>
<time>2015-04-29T17:15:13Z</time>
</trkpt>
<trkpt lat="34.9645799" lon="32.8509313">
<ele>1319.37</ele>
<time>2015-04-29T17:15:14Z</time>
</trkpt>
<trkpt lat="34.9645378" lon="32.8508947">
<ele>1319.06</ele>
<time>2015-04-29T17:15:15Z</time>
</trkpt>
<trkpt lat="34.9644970" lon="32.8508550">
<ele>1318.91</ele>
<time>2015-04-29T17:15:16Z</time>
</trkpt>
<trkpt lat="34.9644542" lon="32.8508051">
<ele>1318.84</ele>
<time>2015-04-29T17:15:17Z</time>
</trkpt>
<trkpt lat="34.9644198" lon="32.8507455">
<ele>1318.30</ele>
<time>2015-04-29T17:15:18Z</time>
</trkpt>
<trkpt lat="34.9643886" lon="32.8506837">
<ele>1318.53</ele>
<time>2015-04-29T17:15:19Z</time>
</trkpt>
<trkpt lat="34.9643549" lon="32.8506218">
<ele>1319.14</ele>
<time>2015-04-29T17:15:20Z</time>
</trkpt>
<trkpt lat="34.9643206" lon="32.8505423">
<ele>1319.95</ele>
<time>2015-04-29T17:15:21Z</time>
</trkpt>
<trkpt lat="34.9642868" lon="32.8504913">
<ele>1320.36</ele>
<time>2015-04-29T17:15:22Z</time>
</trkpt>
<trkpt lat="34.9642549" lon="32.8504443">
<ele>1320.56</ele>
<time>2015-04-29T17:15:23Z</time>
</trkpt>
<trkpt lat="34.9642111" lon="32.8503908">
<ele>1321.16</ele>
<time>2015-04-29T17:15:24Z</time>
</trkpt>
<trkpt lat="34.9641691" lon="32.8503354">
<ele>1321.46</ele>
<time>2015-04-29T17:15:25Z</time>
</trkpt>
<trkpt lat="34.9641359" lon="32.8502878">
<ele>1321.11</ele>
<time>2015-04-29T17:15:26Z</time>
</trkpt>
<trkpt lat="34.9640894" lon="32.8502477">
<ele>1320.93</ele>
<time>2015-04-29T17:15:27Z</time>
</trkpt>
<trkpt lat="34.9640511" lon="32.8501816">
<ele>1320.35</ele>
<time>2015-04-29T17:15:28Z</time>
</trkpt>
<trkpt lat="34.9640027" lon="32.8501504">
<ele>1319.55</ele>
<time>2015-04-29T17:15:29Z</time>
</trkpt>
<trkpt lat="34.9639438" lon="32.8501206">
<ele>1319.66</ele>
<time>2015-04-29T17:15:30Z</time>
</trkpt>
<trkpt lat="34.9638872" lon="32.8500796">
<ele>1320.21</ele>
<time>2015-04-29T17:15:31Z</time>
</trkpt>
<trkpt lat="34.9638241" lon="32.8500506">
<ele>1320.48</ele>
<time>2015-04-29T17:15:32Z</time>
</trkpt>
<trkpt lat="34.9637675" lon="32.8500143">
<ele>1320.12</ele>
<time>2015-04-29T17:15:33Z</time>
</trkpt>
<trkpt lat="34.9637069" lon="32.8499975">
<ele>1319.94</ele>
<time>2015-04-29T17:15:34Z</time>
</trkpt>
<trkpt lat="34.9636534" lon="32.8499809">
<ele>1319.85</ele>
<time>2015-04-29T17:15:35Z</time>
</trkpt>
<trkpt lat="34.9635930" lon="32.8499694">
<ele>1319.81</ele>
<time>2015-04-29T17:15:36Z</time>
</trkpt>
<trkpt lat="34.9635344" lon="32.8499490">
<ele>1319.28</ele>
<time>2015-04-29T17:15:37Z</time>
</trkpt>
<trkpt lat="34.9634774" lon="32.8499344">
<ele>1319.52</ele>
<time>2015-04-29T17:15:38Z</time>
</trkpt>
<trkpt lat="34.9634256" lon="32.8499110">
<ele>1319.64</ele>
<time>2015-04-29T17:15:39Z</time>
</trkpt>
<trkpt lat="34.9633605" lon="32.8498914">
<ele>1319.70</ele>
<time>2015-04-29T17:15:40Z</time>
</trkpt>
<trkpt lat="34.9633009" lon="32.8498762">
<ele>1319.73</ele>
<time>2015-04-29T17:15:41Z</time>
</trkpt>
<trkpt lat="34.9632389" lon="32.8498503">
<ele>1319.25</ele>
<time>2015-04-29T17:15:42Z</time>
</trkpt>
<trkpt lat="34.9631821" lon="32.8498358">
<ele>1319.00</ele>
<time>2015-04-29T17:15:43Z</time>
</trkpt>
<trkpt lat="34.9631302" lon="32.8498044">
<ele>1318.88</ele>
<time>2015-04-29T17:15:44Z</time>
</trkpt>
<trkpt lat="34.9630784" lon="32.8497748">
<ele>1318.82</ele>
<time>2015-04-29T17:15:45Z</time>
</trkpt>
<trkpt lat="34.9630302" lon="32.8497463">
<ele>1318.79</ele>
<time>2015-04-29T17:15:46Z</time>
</trkpt>
<trkpt lat="34.9629816" lon="32.8497053">
<ele>1318.78</ele>
<time>2015-04-29T17:15:47Z</time>
</trkpt>
<trkpt lat="34.9629237" lon="32.8496763">
<ele>1317.77</ele>
<time>2015-04-29T17:15:48Z</time>
</trkpt>
<trkpt lat="34.9628643" lon="32.8496532">
<ele>1317.26</ele>
<time>2015-04-29T17:15:49Z</time>
</trkpt>
<trkpt lat="34.9628042" lon="32.8496142">
<ele>1317.01</ele>
<time>2015-04-29T17:15:50Z</time>
</trkpt>
<trkpt lat="34.9627450" lon="32.8495778">
<ele>1316.89</ele>
<time>2015-04-29T17:15:51Z</time>
</trkpt>
<trkpt lat="34.9626902" lon="32.8495273">
<ele>1317.32</ele>
<time>2015-04-29T17:15:52Z</time>
</trkpt>
<trkpt lat="34.9626233" lon="32.8494847">
<ele>1317.54</ele>
<time>2015-04-29T17:15:53Z</time>
</trkpt>
<trkpt lat="34.9625662" lon="32.8494417">
<ele>1317.65</ele>
<time>2015-04-29T17:15:54Z</time>
</trkpt>
<trkpt lat="34.9625094" lon="32.8493725">
<ele>1318.71</ele>
<time>2015-04-29T17:15:55Z</time>
</trkpt>
<trkpt lat="34.9624600" lon="32.8493161">
<ele>1318.73</ele>
<time>2015-04-29T17:15:56Z</time>
</trkpt>
<trkpt lat="34.9624173" lon="32.8492746">
<ele>1318.25</ele>
<time>2015-04-29T17:15:57Z</time>
</trkpt>
<trkpt lat="34.9623744" lon="32.8492114">
<ele>1317.00</ele>
<time>2015-04-29T17:15:58Z</time>
</trkpt>
<trkpt lat="34.9623114" lon="32.8491434">
<ele>1316.88</ele>
<time>2015-04-29T17:15:59Z</time>
</trkpt>
<trkpt lat="34.9622569" lon="32.8490800">
<ele>1316.82</ele>
<time>2015-04-29T17:16:00Z</time>
</trkpt>
<trkpt lat="34.9622086" lon="32.8490180">
<ele>1316.79</ele>
<time>2015-04-29T17:16:01Z</time>
</trkpt>
<trkpt lat="34.9621607" lon="32.8489555">
<ele>1316.28</ele>
<time>2015-04-29T17:16:02Z</time>
</trkpt>
<trkpt lat="34.9621225" lon="32.8488841">
<ele>1315.52</ele>
<time>2015-04-29T17:16:03Z</time>
</trkpt>
<trkpt lat="34.9620826" lon="32.8488094">
<ele>1315.14</ele>
<time>2015-04-29T17:16:04Z</time>
</trkpt>
<trkpt lat="34.9620417" lon="32.8487412">
<ele>1314.45</ele>
<time>2015-04-29T17:16:05Z</time>
</trkpt>
<trkpt lat="34.9620007" lon="32.8486754">
<ele>1314.10</ele>
<time>2015-04-29T17:16:06Z</time>
</trkpt>
<trkpt lat="34.9619598" lon="32.8486137">
<ele>1314.43</ele>
<time>2015-04-29T17:16:07Z</time>
</trkpt>
<trkpt lat="34.9619282" lon="32.8485390">
<ele>1316.10</ele>
<time>2015-04-29T17:16:08Z</time>
</trkpt>
<trkpt lat="34.9619069" lon="32.8484761">
<ele>1316.43</ele>
<time>2015-04-29T17:16:09Z</time>
</trkpt>
<trkpt lat="34.9618747" lon="32.8484129">
<ele>1316.59</ele>
<time>2015-04-29T17:16:10Z</time>
</trkpt>
<trkpt lat="34.9618482" lon="32.8483489">
<ele>1316.18</ele>
<time>2015-04-29T17:16:11Z</time>
</trkpt>
<trkpt lat="34.9618047" lon="32.8482842">
<ele>1315.97</ele>
<time>2015-04-29T17:16:12Z</time>
</trkpt>
<trkpt lat="34.9617590" lon="32.8482113">
<ele>1316.86</ele>
<time>2015-04-29T17:16:13Z</time>
</trkpt>
<trkpt lat="34.9617213" lon="32.8481513">
<ele>1317.31</ele>
<time>2015-04-29T17:16:14Z</time>
</trkpt>
<trkpt lat="34.9616860" lon="32.8480911">
<ele>1318.04</ele>
<time>2015-04-29T17:16:15Z</time>
</trkpt>
<trkpt lat="34.9616412" lon="32.8480184">
<ele>1318.90</ele>
<time>2015-04-29T17:16:16Z</time>
</trkpt>
<trkpt lat="34.9616062" lon="32.8479401">
<ele>1319.33</ele>
<time>2015-04-29T17:16:17Z</time>
</trkpt>
<trkpt lat="34.9615710" lon="32.8478639">
<ele>1320.04</ele>
<time>2015-04-29T17:16:18Z</time>
</trkpt>
<trkpt lat="34.9615326" lon="32.8477852">
<ele>1320.40</ele>
<time>2015-04-29T17:16:19Z</time>
</trkpt>
<trkpt lat="34.9614998" lon="32.8477044">
<ele>1320.58</ele>
<time>2015-04-29T17:16:20Z</time>
</trkpt>
<trkpt lat="34.9614649" lon="32.8476276">
<ele>1320.17</ele>
<time>2015-04-29T17:16:21Z</time>
</trkpt>
<trkpt lat="34.9614307" lon="32.8475656">
<ele>1319.47</ele>
<time>2015-04-29T17:16:22Z</time>
</trkpt>
<trkpt lat="34.9614031" lon="32.8474862">
<ele>1319.11</ele>
<time>2015-04-29T17:16:23Z</time>
</trkpt>
<trkpt lat="34.9613866" lon="32.8474102">
<ele>1318.44</ele>
<time>2015-04-29T17:16:24Z</time>
</trkpt>
<trkpt lat="34.9613739" lon="32.8473324">
<ele>1317.60</ele>
<time>2015-04-29T17:16:25Z</time>
</trkpt>
<trkpt lat="34.9613742" lon="32.8472478">
<ele>1316.68</ele>
<time>2015-04-29T17:16:26Z</time>
</trkpt>
<trkpt lat="34.9613808" lon="32.8471684">
<ele>1316.22</ele>
<time>2015-04-29T17:16:27Z</time>
</trkpt>
<trkpt lat="34.9613903" lon="32.8470844">
<ele>1316.49</ele>
<time>2015-04-29T17:16:28Z</time>
</trkpt>
<trkpt lat="34.9614108" lon="32.8469964">
<ele>1316.62</ele>
<time>2015-04-29T17:16:29Z</time>
</trkpt>
<trkpt lat="34.9614296" lon="32.8469110">
<ele>1316.69</ele>
<time>2015-04-29T17:16:30Z</time>
</trkpt>
<trkpt lat="34.9614734" lon="32.8468471">
<ele>1317.23</ele>
<time>2015-04-29T17:16:31Z</time>
</trkpt>
<trkpt lat="34.9615227" lon="32.8467832">
<ele>1316.99</ele>
<time>2015-04-29T17:16:32Z</time>
</trkpt>
<trkpt lat="34.9616037" lon="32.8467334">
<ele>1316.38</ele>
<time>2015-04-29T17:16:33Z</time>
</trkpt>
<trkpt lat="34.9616551" lon="32.8466744">
<ele>1316.07</ele>
<time>2015-04-29T17:16:34Z</time>
</trkpt>
<trkpt lat="34.9617197" lon="32.8466253">
<ele>1315.91</ele>
<time>2015-04-29T17:16:35Z</time>
</trkpt>
<trkpt lat="34.9617926" lon="32.8465828">
<ele>1315.34</ele>
<time>2015-04-29T17:16:36Z</time>
</trkpt>
<trkpt lat="34.9618690" lon="32.8465472">
<ele>1315.05</ele>
<time>2015-04-29T17:16:37Z</time>
</trkpt>
<trkpt lat="34.9619297" lon="32.8465042">
<ele>1315.40</ele>
<time>2015-04-29T17:16:38Z</time>
</trkpt>
<trkpt lat="34.9619788" lon="32.8464479">
<ele>1315.58</ele>
<time>2015-04-29T17:16:39Z</time>
</trkpt>
<trkpt lat="34.9620551" lon="32.8464143">
<ele>1315.67</ele>
<time>2015-04-29T17:16:40Z</time>
</trkpt>
<trkpt lat="34.9621070" lon="32.8463584">
<ele>1315.72</ele>
<time>2015-04-29T17:16:41Z</time>
</trkpt>
<trkpt lat="34.9621623" lon="32.8463034">
<ele>1315.24</ele>
<time>2015-04-29T17:16:42Z</time>
</trkpt>
<trkpt lat="34.9622144" lon="32.8462395">
<ele>1315.00</ele>
<time>2015-04-29T17:16:43Z</time>
</trkpt>
<trkpt lat="34.9622712" lon="32.8461742">
<ele>1314.88</ele>
<time>2015-04-29T17:16:44Z</time>
</trkpt>
<trkpt lat="34.9623401" lon="32.8461150">
<ele>1314.32</ele>
<time>2015-04-29T17:16:45Z</time>
</trkpt>
<trkpt lat="34.9623963" lon="32.8460444">
<ele>1313.54</ele>
<time>2015-04-29T17:16:46Z</time>
</trkpt>
<trkpt lat="34.9624273" lon="32.8459610">
<ele>1313.65</ele>
<time>2015-04-29T17:16:47Z</time>
</trkpt>
<trkpt lat="34.9624852" lon="32.8458860">
<ele>1313.70</ele>
<time>2015-04-29T17:16:48Z</time>
</trkpt>
<trkpt lat="34.9625271" lon="32.8458133">
<ele>1313.73</ele>
<time>2015-04-29T17:16:49Z</time>
</trkpt>
<trkpt lat="34.9625826" lon="32.8457526">
<ele>1313.75</ele>
<time>2015-04-29T17:16:50Z</time>
</trkpt>
<trkpt lat="34.9626403" lon="32.8456826">
<ele>1313.75</ele>
<time>2015-04-29T17:16:51Z</time>
</trkpt>
<trkpt lat="34.9626837" lon="32.8456158">
<ele>1314.26</ele>
<time>2015-04-29T17:16:52Z</time>
</trkpt>
<trkpt lat="34.9627356" lon="32.8455447">
<ele>1314.01</ele>
<time>2015-04-29T17:16:53Z</time>
</trkpt>
<trkpt lat="34.9627870" lon="32.8454680">
<ele>1313.88</ele>
<time>2015-04-29T17:16:54Z</time>
</trkpt>
<trkpt lat="34.9627995" lon="32.8453617">
<ele>1313.32</ele>
<time>2015-04-29T17:16:55Z</time>
</trkpt>
<trkpt lat="34.9628192" lon="32.8452584">
<ele>1313.04</ele>
<time>2015-04-29T17:16:56Z</time>
</trkpt>
<trkpt lat="34.9628360" lon="32.8451680">
<ele>1312.90</ele>
<time>2015-04-29T17:16:57Z</time>
</trkpt>
<trkpt lat="34.9628349" lon="32.8450680">
<ele>1312.33</ele>
<time>2015-04-29T17:16:58Z</time>
</trkpt>
<trkpt lat="34.9628324" lon="32.8449745">
<ele>1311.55</ele>
<time>2015-04-29T17:16:59Z</time>
</trkpt>
<trkpt lat="34.9628325" lon="32.8448952">
<ele>1311.65</ele>
<time>2015-04-29T17:17:00Z</time>
</trkpt>
<trkpt lat="34.9628216" lon="32.8448134">
<ele>1311.71</ele>
<time>2015-04-29T17:17:01Z</time>
</trkpt>
<trkpt lat="34.9628011" lon="32.8447378">
<ele>1311.73</ele>
<time>2015-04-29T17:17:02Z</time>
</trkpt>
<trkpt lat="34.9627697" lon="32.8446638">
<ele>1311.75</ele>
<time>2015-04-29T17:17:03Z</time>
</trkpt>
<trkpt lat="34.9627375" lon="32.8445914">
<ele>1311.75</ele>
<time>2015-04-29T17:17:04Z</time>
</trkpt>
<trkpt lat="34.9626979" lon="32.8445160">
<ele>1311.26</ele>
<time>2015-04-29T17:17:05Z</time>
</trkpt>
<trkpt lat="34.9626659" lon="32.8444557">
<ele>1310.51</ele>
<time>2015-04-29T17:17:06Z</time>
</trkpt>
<trkpt lat="34.9626338" lon="32.8443798">
<ele>1310.13</ele>
<time>2015-04-29T17:17:07Z</time>
</trkpt>
<trkpt lat="34.9625961" lon="32.8443145">
<ele>1309.95</ele>
<time>2015-04-29T17:17:08Z</time>
</trkpt>
<trkpt lat="34.9625530" lon="32.8442394">
<ele>1309.85</ele>
<time>2015-04-29T17:17:09Z</time>
</trkpt>
<trkpt lat="34.9625158" lon="32.8441589">
<ele>1310.31</ele>
<time>2015-04-29T17:17:10Z</time>
</trkpt>
<trkpt lat="34.9624779" lon="32.8440925">
<ele>1311.03</ele>
<time>2015-04-29T17:17:11Z</time>
</trkpt>
<trkpt lat="34.9624361" lon="32.8440348">
<ele>1310.90</ele>
<time>2015-04-29T17:17:12Z</time>
</trkpt>
<trkpt lat="34.9623910" lon="32.8439782">
<ele>1310.33</ele>
<time>2015-04-29T17:17:13Z</time>
</trkpt>
<trkpt lat="34.9623567" lon="32.8439156">
<ele>1309.54</ele>
<time>2015-04-29T17:17:14Z</time>
</trkpt>
<trkpt lat="34.9623166" lon="32.8438331">
<ele>1309.15</ele>
<time>2015-04-29T17:17:15Z</time>
</trkpt>
<trkpt lat="34.9622628" lon="32.8437521">
<ele>1309.96</ele>
<time>2015-04-29T17:17:16Z</time>
</trkpt>
<trkpt lat="34.9622137" lon="32.8436806">
<ele>1310.36</ele>
<time>2015-04-29T17:17:17Z</time>
</trkpt>
<trkpt lat="34.9621660" lon="32.8435848">
<ele>1311.06</ele>
<time>2015-04-29T17:17:18Z</time>
</trkpt>
<trkpt lat="34.9621158" lon="32.8434997">
<ele>1311.41</ele>
<time>2015-04-29T17:17:19Z</time>
</trkpt>
<trkpt lat="34.9620655" lon="32.8434165">
<ele>1311.58</ele>
<time>2015-04-29T17:17:20Z</time>
</trkpt>
<trkpt lat="34.9620202" lon="32.8433433">
<ele>1311.17</ele>
<time>2015-04-29T17:17:21Z</time>
</trkpt>
<trkpt lat="34.9619774" lon="32.8432701">
<ele>1311.47</ele>
<time>2015-04-29T17:17:22Z</time>
</trkpt>
<trkpt lat="34.9619357" lon="32.8431998">
<ele>1311.61</ele>
<time>2015-04-29T17:17:23Z</time>
</trkpt>
<trkpt lat="34.9619107" lon="32.8431185">
<ele>1310.69</ele>
<time>2015-04-29T17:17:24Z</time>
</trkpt>
<trkpt lat="34.9618678" lon="32.8430603">
<ele>1310.22</ele>
<time>2015-04-29T17:17:25Z</time>
</trkpt>
<trkpt lat="34.9618269" lon="32.8429988">
<ele>1310.49</ele>
<time>2015-04-29T17:17:26Z</time>
</trkpt>
<trkpt lat="34.9617831" lon="32.8429408">
<ele>1310.63</ele>
<time>2015-04-29T17:17:27Z</time>
</trkpt>
<trkpt lat="34.9617422" lon="32.8428847">
<ele>1310.69</ele>
<time>2015-04-29T17:17:28Z</time>
</trkpt>
<trkpt lat="34.9616921" lon="32.8428396">
<ele>1310.73</ele>
<time>2015-04-29T17:17:29Z</time>
</trkpt>
<trkpt lat="34.9616504" lon="32.8427939">
<ele>1310.74</ele>
<time>2015-04-29T17:17:30Z</time>
</trkpt>
<trkpt lat="34.9616054" lon="32.8427542">
<ele>1310.75</ele>
<time>2015-04-29T17:17:31Z</time>
</trkpt>
<trkpt lat="34.9615377" lon="32.8427105">
<ele>1310.76</ele>
<time>2015-04-29T17:17:32Z</time>
</trkpt>
<trkpt lat="34.9614800" lon="32.8426805">
<ele>1310.76</ele>
<time>2015-04-29T17:17:33Z</time>
</trkpt>
<trkpt lat="34.9614195" lon="32.8426485">
<ele>1310.76</ele>
<time>2015-04-29T17:17:34Z</time>
</trkpt>
<trkpt lat="34.9613593" lon="32.8426360">
<ele>1310.76</ele>
<time>2015-04-29T17:17:35Z</time>
</trkpt>
<trkpt lat="34.9612943" lon="32.8426172">
<ele>1310.26</ele>
<time>2015-04-29T17:17:36Z</time>
</trkpt>
<trkpt lat="34.9612358" lon="32.8425960">
<ele>1311.01</ele>
<time>2015-04-29T17:17:37Z</time>
</trkpt>
<trkpt lat="34.9611776" lon="32.8425847">
<ele>1311.38</ele>
<time>2015-04-29T17:17:38Z</time>
</trkpt>
<trkpt lat="34.9611102" lon="32.8425865">
<ele>1311.57</ele>
<time>2015-04-29T17:17:39Z</time>
</trkpt>
<trkpt lat="34.9610465" lon="32.8425875">
<ele>1311.17</ele>
<time>2015-04-29T17:17:40Z</time>
</trkpt>
<trkpt lat="34.9609781" lon="32.8425852">
<ele>1310.46</ele>
<time>2015-04-29T17:17:41Z</time>
</trkpt>
<trkpt lat="34.9609132" lon="32.8425841">
<ele>1310.61</ele>
<time>2015-04-29T17:17:42Z</time>
</trkpt>
<trkpt lat="34.9608487" lon="32.8425925">
<ele>1310.19</ele>
<time>2015-04-29T17:17:43Z</time>
</trkpt>
<trkpt lat="34.9607698" lon="32.8425872">
<ele>1310.47</ele>
<time>2015-04-29T17:17:44Z</time>
</trkpt>
<trkpt lat="34.9607000" lon="32.8425796">
<ele>1310.62</ele>
<time>2015-04-29T17:17:45Z</time>
</trkpt>
<trkpt lat="34.9606387" lon="32.8425814">
<ele>1310.69</ele>
<time>2015-04-29T17:17:46Z</time>
</trkpt>
<trkpt lat="34.9605766" lon="32.8425872">
<ele>1310.22</ele>
<time>2015-04-29T17:17:47Z</time>
</trkpt>
<trkpt lat="34.9605148" lon="32.8425881">
<ele>1309.99</ele>
<time>2015-04-29T17:17:48Z</time>
</trkpt>
<trkpt lat="34.9604521" lon="32.8425890">
<ele>1309.38</ele>
<time>2015-04-29T17:17:49Z</time>
</trkpt>
<trkpt lat="34.9603824" lon="32.8425850">
<ele>1308.57</ele>
<time>2015-04-29T17:17:50Z</time>
</trkpt>
<trkpt lat="34.9603146" lon="32.8425874">
<ele>1308.66</ele>
<time>2015-04-29T17:17:51Z</time>
</trkpt>
<trkpt lat="34.9602486" lon="32.8425842">
<ele>1308.71</ele>
<time>2015-04-29T17:17:52Z</time>
</trkpt>
<trkpt lat="34.9601770" lon="32.8425851">
<ele>1309.24</ele>
<time>2015-04-29T17:17:53Z</time>
</trkpt>
<trkpt lat="34.9601058" lon="32.8425789">
<ele>1309.50</ele>
<time>2015-04-29T17:17:54Z</time>
</trkpt>
<trkpt lat="34.9600357" lon="32.8425770">
<ele>1309.63</ele>
<time>2015-04-29T17:17:55Z</time>
</trkpt>
<trkpt lat="34.9599689" lon="32.8425882">
<ele>1309.19</ele>
<time>2015-04-29T17:17:56Z</time>
</trkpt>
<trkpt lat="34.9599010" lon="32.8425806">
<ele>1308.48</ele>
<time>2015-04-29T17:17:57Z</time>
</trkpt>
<trkpt lat="34.9598362" lon="32.8425675">
<ele>1308.62</ele>
<time>2015-04-29T17:17:58Z</time>
</trkpt>
<trkpt lat="34.9597730" lon="32.8425557">
<ele>1308.69</ele>
<time>2015-04-29T17:17:59Z</time>
</trkpt>
<trkpt lat="34.9597180" lon="32.8425099">
<ele>1308.22</ele>
<time>2015-04-29T17:18:00Z</time>
</trkpt>
<trkpt lat="34.9596556" lon="32.8424762">
<ele>1307.99</ele>
<time>2015-04-29T17:18:01Z</time>
</trkpt>
<trkpt lat="34.9596003" lon="32.8424389">
<ele>1307.88</ele>
<time>2015-04-29T17:18:02Z</time>
</trkpt>
<trkpt lat="34.9595458" lon="32.8423924">
<ele>1308.32</ele>
<time>2015-04-29T17:18:03Z</time>
</trkpt>
<trkpt lat="34.9594890" lon="32.8423425">
<ele>1308.54</ele>
<time>2015-04-29T17:18:04Z</time>
</trkpt>
<trkpt lat="34.9594332" lon="32.8422934">
<ele>1309.15</ele>
<time>2015-04-29T17:18:05Z</time>
</trkpt>
<trkpt lat="34.9593816" lon="32.8422424">
<ele>1308.95</ele>
<time>2015-04-29T17:18:06Z</time>
</trkpt>
<trkpt lat="34.9593324" lon="32.8421808">
<ele>1308.86</ele>
<time>2015-04-29T17:18:07Z</time>
</trkpt>
<trkpt lat="34.9592651" lon="32.8421226">
<ele>1308.31</ele>
<time>2015-04-29T17:18:08Z</time>
</trkpt>
<trkpt lat="34.9592070" lon="32.8420573">
<ele>1308.53</ele>
<time>2015-04-29T17:18:09Z</time>
</trkpt>
<trkpt lat="34.9591524" lon="32.8420028">
<ele>1308.15</ele>
<time>2015-04-29T17:18:10Z</time>
</trkpt>
<trkpt lat="34.9590964" lon="32.8419683">
<ele>1307.95</ele>
<time>2015-04-29T17:18:11Z</time>
</trkpt>
<trkpt lat="34.9590350" lon="32.8419059">
<ele>1309.36</ele>
<time>2015-04-29T17:18:12Z</time>
</trkpt>
<trkpt lat="34.9589671" lon="32.8418625">
<ele>1310.06</ele>
<time>2015-04-29T17:18:13Z</time>
</trkpt>
<trkpt lat="34.9589191" lon="32.8418184">
<ele>1310.41</ele>
<time>2015-04-29T17:18:14Z</time>
</trkpt>
<trkpt lat="34.9588668" lon="32.8417697">
<ele>1311.08</ele>
<time>2015-04-29T17:18:15Z</time>
</trkpt>
<trkpt lat="34.9588122" lon="32.8417078">
<ele>1310.42</ele>
<time>2015-04-29T17:18:16Z</time>
</trkpt>
<trkpt lat="34.9587454" lon="32.8416546">
<ele>1310.59</ele>
<time>2015-04-29T17:18:17Z</time>
</trkpt>
<trkpt lat="34.9586889" lon="32.8416258">
<ele>1310.18</ele>
<time>2015-04-29T17:18:18Z</time>
</trkpt>
<trkpt lat="34.9586187" lon="32.8415778">
<ele>1309.47</ele>
<time>2015-04-29T17:18:19Z</time>
</trkpt>
<trkpt lat="34.9585497" lon="32.8415397">
<ele>1309.61</ele>
<time>2015-04-29T17:18:20Z</time>
</trkpt>
<trkpt lat="34.9584786" lon="32.8415121">
<ele>1310.19</ele>
<time>2015-04-29T17:18:21Z</time>
</trkpt>
<trkpt lat="34.9584106" lon="32.8414923">
<ele>1309.97</ele>
<time>2015-04-29T17:18:22Z</time>
</trkpt>
<trkpt lat="34.9583415" lon="32.8414711">
<ele>1309.37</ele>
<time>2015-04-29T17:18:23Z</time>
</trkpt>
<trkpt lat="34.9582704" lon="32.8414531">
<ele>1309.06</ele>
<time>2015-04-29T17:18:24Z</time>
</trkpt>
<trkpt lat="34.9581883" lon="32.8414256">
<ele>1309.41</ele>
<time>2015-04-29T17:18:25Z</time>
</trkpt>
<trkpt lat="34.9581167" lon="32.8414109">
<ele>1309.09</ele>
<time>2015-04-29T17:18:26Z</time>
</trkpt>
<trkpt lat="34.9580402" lon="32.8413866">
<ele>1308.42</ele>
<time>2015-04-29T17:18:27Z</time>
</trkpt>
<trkpt lat="34.9579810" lon="32.8413890">
<ele>1307.59</ele>
<time>2015-04-29T17:18:28Z</time>
</trkpt>
<trkpt lat="34.9579248" lon="32.8413645">
<ele>1307.68</ele>
<time>2015-04-29T17:18:29Z</time>
</trkpt>
<trkpt lat="34.9578720" lon="32.8413451">
<ele>1308.22</ele>
<time>2015-04-29T17:18:30Z</time>
</trkpt>
<trkpt lat="34.9578238" lon="32.8413079">
<ele>1307.99</ele>
<time>2015-04-29T17:18:31Z</time>
</trkpt>
<trkpt lat="34.9577828" lon="32.8412497">
<ele>1307.37</ele>
<time>2015-04-29T17:18:32Z</time>
</trkpt>
<trkpt lat="34.9577481" lon="32.8411931">
<ele>1307.07</ele>
<time>2015-04-29T17:18:33Z</time>
</trkpt>
<trkpt lat="34.9577338" lon="32.8411076">
<ele>1307.34</ele>
<time>2015-04-29T17:18:35Z</time>
</trkpt>
<trkpt lat="34.9577338" lon="32.8410519">
<ele>1307.55</ele>
<time>2015-04-29T17:18:36Z</time>
</trkpt>
<trkpt lat="34.9577470" lon="32.8409502">
<ele>1306.96</ele>
<time>2015-04-29T17:18:38Z</time>
</trkpt>
<trkpt lat="34.9577934" lon="32.8408791">
<ele>1307.81</ele>
<time>2015-04-29T17:18:40Z</time>
</trkpt>
<trkpt lat="34.9578242" lon="32.8408333">
<ele>1308.78</ele>
<time>2015-04-29T17:18:41Z</time>
</trkpt>
<trkpt lat="34.9578580" lon="32.8407581">
<ele>1307.52</ele>
<time>2015-04-29T17:18:43Z</time>
</trkpt>
<trkpt lat="34.9579129" lon="32.8406983">
<ele>1305.70</ele>
<time>2015-04-29T17:18:45Z</time>
</trkpt>
<trkpt lat="34.9579546" lon="32.8406394">
<ele>1304.24</ele>
<time>2015-04-29T17:18:47Z</time>
</trkpt>
<trkpt lat="34.9580222" lon="32.8405887">
<ele>1304.38</ele>
<time>2015-04-29T17:18:49Z</time>
</trkpt>
<trkpt lat="34.9581013" lon="32.8405386">
<ele>1304.67</ele>
<time>2015-04-29T17:18:51Z</time>
</trkpt>
<trkpt lat="34.9581410" lon="32.8405104">
<ele>1304.71</ele>
<time>2015-04-29T17:18:52Z</time>
</trkpt>
<trkpt lat="34.9582094" lon="32.8404884">
<ele>1304.74</ele>
<time>2015-04-29T17:18:53Z</time>
</trkpt>
<trkpt lat="34.9582908" lon="32.8404536">
<ele>1304.00</ele>
<time>2015-04-29T17:18:55Z</time>
</trkpt>
<trkpt lat="34.9583536" lon="32.8403816">
<ele>1305.82</ele>
<time>2015-04-29T17:18:57Z</time>
</trkpt>
<trkpt lat="34.9583928" lon="32.8403458">
<ele>1306.29</ele>
<time>2015-04-29T17:18:58Z</time>
</trkpt>
<trkpt lat="34.9584219" lon="32.8403033">
<ele>1307.03</ele>
<time>2015-04-29T17:18:59Z</time>
</trkpt>
<trkpt lat="34.9584412" lon="32.8402529">
<ele>1306.89</ele>
<time>2015-04-29T17:19:00Z</time>
</trkpt>
<trkpt lat="34.9584467" lon="32.8401965">
<ele>1306.83</ele>
<time>2015-04-29T17:19:01Z</time>
</trkpt>
<trkpt lat="34.9584852" lon="32.8401109">
<ele>1307.28</ele>
<time>2015-04-29T17:19:03Z</time>
</trkpt>
<trkpt lat="34.9585182" lon="32.8400369">
<ele>1307.89</ele>
<time>2015-04-29T17:19:05Z</time>
</trkpt>
<trkpt lat="34.9585238" lon="32.8399584">
<ele>1309.04</ele>
<time>2015-04-29T17:19:07Z</time>
</trkpt>
<trkpt lat="34.9585010" lon="32.8398893">
<ele>1309.58</ele>
<time>2015-04-29T17:19:09Z</time>
</trkpt>
<trkpt lat="34.9584629" lon="32.8398105">
<ele>1309.47</ele>
<time>2015-04-29T17:19:11Z</time>
</trkpt>
<trkpt lat="34.9584373" lon="32.8397359">
<ele>1310.94</ele>
<time>2015-04-29T17:19:13Z</time>
</trkpt>
<trkpt lat="34.9584179" lon="32.8396550">
<ele>1312.80</ele>
<time>2015-04-29T17:19:15Z</time>
</trkpt>
<trkpt lat="34.9583925" lon="32.8395815">
<ele>1314.27</ele>
<time>2015-04-29T17:19:17Z</time>
</trkpt>
<trkpt lat="34.9583687" lon="32.8395186">
<ele>1314.39</ele>
<time>2015-04-29T17:19:19Z</time>
</trkpt>
<trkpt lat="34.9583430" lon="32.8394602">
<ele>1315.42</ele>
<time>2015-04-29T17:19:21Z</time>
</trkpt>
<trkpt lat="34.9583167" lon="32.8394039">
<ele>1314.92</ele>
<time>2015-04-29T17:19:23Z</time>
</trkpt>
<trkpt lat="34.9582854" lon="32.8393442">
<ele>1314.80</ele>
<time>2015-04-29T17:19:25Z</time>
</trkpt>
<trkpt lat="34.9582553" lon="32.8392836">
<ele>1315.52</ele>
<time>2015-04-29T17:19:27Z</time>
</trkpt>
<trkpt lat="34.9582221" lon="32.8392145">
<ele>1316.95</ele>
<time>2015-04-29T17:19:29Z</time>
</trkpt>
<trkpt lat="34.9581869" lon="32.8391445">
<ele>1318.06</ele>
<time>2015-04-29T17:19:31Z</time>
</trkpt>
<trkpt lat="34.9581501" lon="32.8390745">
<ele>1318.08</ele>
<time>2015-04-29T17:19:33Z</time>
</trkpt>
<trkpt lat="34.9581154" lon="32.8390133">
<ele>1317.84</ele>
<time>2015-04-29T17:19:35Z</time>
</trkpt>
<trkpt lat="34.9580787" lon="32.8389513">
<ele>1318.53</ele>
<time>2015-04-29T17:19:37Z</time>
</trkpt>
<trkpt lat="34.9580430" lon="32.8388790">
<ele>1318.70</ele>
<time>2015-04-29T17:19:39Z</time>
</trkpt>
<trkpt lat="34.9580124" lon="32.8388058">
<ele>1319.25</ele>
<time>2015-04-29T17:19:41Z</time>
</trkpt>
<trkpt lat="34.9579818" lon="32.8387402">
<ele>1318.88</ele>
<time>2015-04-29T17:19:43Z</time>
</trkpt>
<trkpt lat="34.9579473" lon="32.8386793">
<ele>1320.04</ele>
<time>2015-04-29T17:19:45Z</time>
</trkpt>
<trkpt lat="34.9579185" lon="32.8386197">
<ele>1321.33</ele>
<time>2015-04-29T17:19:47Z</time>
</trkpt>
<trkpt lat="34.9578910" lon="32.8385618">
<ele>1322.90</ele>
<time>2015-04-29T17:19:49Z</time>
</trkpt>
<trkpt lat="34.9578616" lon="32.8385074">
<ele>1324.05</ele>
<time>2015-04-29T17:19:51Z</time>
</trkpt>
<trkpt lat="34.9578374" lon="32.8384510">
<ele>1325.33</ele>
<time>2015-04-29T17:19:53Z</time>
</trkpt>
<trkpt lat="34.9578164" lon="32.8383955">
<ele>1325.65</ele>
<time>2015-04-29T17:19:55Z</time>
</trkpt>
<trkpt lat="34.9577983" lon="32.8383314">
<ele>1326.48</ele>
<time>2015-04-29T17:19:57Z</time>
</trkpt>
<trkpt lat="34.9577805" lon="32.8382676">
<ele>1326.69</ele>
<time>2015-04-29T17:19:59Z</time>
</trkpt>
<trkpt lat="34.9577566" lon="32.8382069">
<ele>1325.99</ele>
<time>2015-04-29T17:20:01Z</time>
</trkpt>
<trkpt lat="34.9577338" lon="32.8381457">
<ele>1326.32</ele>
<time>2015-04-29T17:20:03Z</time>
</trkpt>
<trkpt lat="34.9577184" lon="32.8380811">
<ele>1325.15</ele>
<time>2015-04-29T17:20:05Z</time>
</trkpt>
<trkpt lat="34.9577177" lon="32.8380112">
<ele>1325.11</ele>
<time>2015-04-29T17:20:07Z</time>
</trkpt>
<trkpt lat="34.9577201" lon="32.8379367">
<ele>1326.10</ele>
<time>2015-04-29T17:20:09Z</time>
</trkpt>
<trkpt lat="34.9577227" lon="32.8378649">
<ele>1326.59</ele>
<time>2015-04-29T17:20:11Z</time>
</trkpt>
<trkpt lat="34.9577187" lon="32.8377939">
<ele>1326.47</ele>
<time>2015-04-29T17:20:13Z</time>
</trkpt>
<trkpt lat="34.9577220" lon="32.8377206">
<ele>1326.69</ele>
<time>2015-04-29T17:20:15Z</time>
</trkpt>
<trkpt lat="34.9577331" lon="32.8376404">
<ele>1326.49</ele>
<time>2015-04-29T17:20:17Z</time>
</trkpt>
<trkpt lat="34.9577489" lon="32.8375667">
<ele>1326.19</ele>
<time>2015-04-29T17:20:19Z</time>
</trkpt>
<trkpt lat="34.9577751" lon="32.8375044">
<ele>1325.12</ele>
<time>2015-04-29T17:20:21Z</time>
</trkpt>
<trkpt lat="34.9577832" lon="32.8374363">
<ele>1325.10</ele>
<time>2015-04-29T17:20:23Z</time>
</trkpt>
<trkpt lat="34.9577872" lon="32.8373668">
<ele>1324.84</ele>
<time>2015-04-29T17:20:25Z</time>
</trkpt>
<trkpt lat="34.9577903" lon="32.8373023">
<ele>1325.03</ele>
<time>2015-04-29T17:20:27Z</time>
</trkpt>
<trkpt lat="34.9577964" lon="32.8372429">
<ele>1325.58</ele>
<time>2015-04-29T17:20:29Z</time>
</trkpt>
<trkpt lat="34.9578106" lon="32.8371857">
<ele>1325.46</ele>
<time>2015-04-29T17:20:31Z</time>
</trkpt>
<trkpt lat="34.9578265" lon="32.8371268">
<ele>1324.94</ele>
<time>2015-04-29T17:20:33Z</time>
</trkpt>
<trkpt lat="34.9578351" lon="32.8370708">
<ele>1324.80</ele>
<time>2015-04-29T17:20:35Z</time>
</trkpt>
<trkpt lat="34.9578576" lon="32.8370057">
<ele>1324.77</ele>
<time>2015-04-29T17:20:38Z</time>
</trkpt>
<trkpt lat="34.9578928" lon="32.8369593">
<ele>1324.26</ele>
<time>2015-04-29T17:20:42Z</time>
</trkpt>
<trkpt lat="34.9579430" lon="32.8369627">
<ele>1327.79</ele>
<time>2015-04-29T17:20:46Z</time>
</trkpt>
<trkpt lat="34.9580006" lon="32.8369722">
<ele>1328.51</ele>
<time>2015-04-29T17:20:49Z</time>
</trkpt>
<trkpt lat="34.9580506" lon="32.8369848">
<ele>1328.70</ele>
<time>2015-04-29T17:20:51Z</time>
</trkpt>
<trkpt lat="34.9581185" lon="32.8370052">
<ele>1328.24</ele>
<time>2015-04-29T17:20:53Z</time>
</trkpt>
<trkpt lat="34.9582471" lon="32.8370519">
<ele>1327.13</ele>
<time>2015-04-29T17:20:55Z</time>
</trkpt>
<trkpt lat="34.9583223" lon="32.8370728">
<ele>1325.85</ele>
<time>2015-04-29T17:20:57Z</time>
</trkpt>
<trkpt lat="34.9583900" lon="32.8371134">
<ele>1325.53</ele>
<time>2015-04-29T17:20:59Z</time>
</trkpt>
<trkpt lat="34.9584600" lon="32.8371271">
<ele>1325.95</ele>
<time>2015-04-29T17:21:01Z</time>
</trkpt>
<trkpt lat="34.9585053" lon="32.8371351">
<ele>1325.86</ele>
<time>2015-04-29T17:21:02Z</time>
</trkpt>
<trkpt lat="34.9585916" lon="32.8371673">
<ele>1325.03</ele>
<time>2015-04-29T17:21:04Z</time>
</trkpt>
<trkpt lat="34.9586498" lon="32.8371709">
<ele>1323.90</ele>
<time>2015-04-29T17:21:05Z</time>
</trkpt>
<trkpt lat="34.9587130" lon="32.8371890">
<ele>1323.33</ele>
<time>2015-04-29T17:21:06Z</time>
</trkpt>
<trkpt lat="34.9587684" lon="32.8372063">
<ele>1323.04</ele>
<time>2015-04-29T17:21:07Z</time>
</trkpt>
<trkpt lat="34.9588269" lon="32.8372102">
<ele>1321.90</ele>
<time>2015-04-29T17:21:08Z</time>
</trkpt>
<trkpt lat="34.9588814" lon="32.8371991">
<ele>1321.83</ele>
<time>2015-04-29T17:21:09Z</time>
</trkpt>
<trkpt lat="34.9589462" lon="32.8371977">
<ele>1321.80</ele>
<time>2015-04-29T17:21:10Z</time>
</trkpt>
<trkpt lat="34.9590243" lon="32.8372103">
<ele>1321.28</ele>
<time>2015-04-29T17:21:11Z</time>
</trkpt>
<trkpt lat="34.9590992" lon="32.8372008">
<ele>1321.02</ele>
<time>2015-04-29T17:21:12Z</time>
</trkpt>
<trkpt lat="34.9591710" lon="32.8371927">
<ele>1320.39</ele>
<time>2015-04-29T17:21:13Z</time>
</trkpt>
<trkpt lat="34.9592271" lon="32.8371864">
<ele>1320.07</ele>
<time>2015-04-29T17:21:14Z</time>
</trkpt>
<trkpt lat="34.9592852" lon="32.8371680">
<ele>1319.42</ele>
<time>2015-04-29T17:21:15Z</time>
</trkpt>
<trkpt lat="34.9593475" lon="32.8371462">
<ele>1319.09</ele>
<time>2015-04-29T17:21:16Z</time>
</trkpt>
<trkpt lat="34.9593908" lon="32.8370964">
<ele>1317.92</ele>
<time>2015-04-29T17:21:17Z</time>
</trkpt>
<trkpt lat="34.9594147" lon="32.8370405">
<ele>1317.34</ele>
<time>2015-04-29T17:21:18Z</time>
</trkpt>
<trkpt lat="34.9594370" lon="32.8369636">
<ele>1316.05</ele>
<time>2015-04-29T17:21:19Z</time>
</trkpt>
<trkpt lat="34.9594497" lon="32.8368909">
<ele>1314.91</ele>
<time>2015-04-29T17:21:20Z</time>
</trkpt>
<trkpt lat="34.9594531" lon="32.8368213">
<ele>1313.83</ele>
<time>2015-04-29T17:21:21Z</time>
</trkpt>
<trkpt lat="34.9594702" lon="32.8367554">
<ele>1313.30</ele>
<time>2015-04-29T17:21:22Z</time>
</trkpt>
<trkpt lat="34.9594647" lon="32.8366840">
<ele>1313.03</ele>
<time>2015-04-29T17:21:23Z</time>
</trkpt>
<trkpt lat="34.9594677" lon="32.8365986">
<ele>1312.39</ele>
<time>2015-04-29T17:21:24Z</time>
</trkpt>
<trkpt lat="34.9594716" lon="32.8365106">
<ele>1311.08</ele>
<time>2015-04-29T17:21:25Z</time>
</trkpt>
<trkpt lat="34.9594645" lon="32.8364220">
<ele>1310.42</ele>
<time>2015-04-29T17:21:26Z</time>
</trkpt>
<trkpt lat="34.9594656" lon="32.8363454">
<ele>1310.59</ele>
<time>2015-04-29T17:21:27Z</time>
</trkpt>
<trkpt lat="34.9594663" lon="32.8362624">
<ele>1310.67</ele>
<time>2015-04-29T17:21:28Z</time>
</trkpt>
<trkpt lat="34.9594353" lon="32.8361764">
<ele>1310.22</ele>
<time>2015-04-29T17:21:29Z</time>
</trkpt>
<trkpt lat="34.9593933" lon="32.8360869">
<ele>1309.49</ele>
<time>2015-04-29T17:21:30Z</time>
</trkpt>
<trkpt lat="34.9593397" lon="32.8360102">
<ele>1308.62</ele>
<time>2015-04-29T17:21:31Z</time>
</trkpt>
<trkpt lat="34.9592721" lon="32.8359415">
<ele>1307.19</ele>
<time>2015-04-29T17:21:32Z</time>
</trkpt>
<trkpt lat="34.9591949" lon="32.8358906">
<ele>1306.48</ele>
<time>2015-04-29T17:21:33Z</time>
</trkpt>
<trkpt lat="34.9590914" lon="32.8358450">
<ele>1305.62</ele>
<time>2015-04-29T17:21:34Z</time>
</trkpt>
<trkpt lat="34.9589916" lon="32.8358226">
<ele>1304.69</ele>
<time>2015-04-29T17:21:35Z</time>
</trkpt>
<trkpt lat="34.9589015" lon="32.8358013">
<ele>1304.22</ele>
<time>2015-04-29T17:21:36Z</time>
</trkpt>
<trkpt lat="34.9588151" lon="32.8357744">
<ele>1303.49</ele>
<time>2015-04-29T17:21:37Z</time>
</trkpt>
<trkpt lat="34.9587302" lon="32.8357518">
<ele>1302.63</ele>
<time>2015-04-29T17:21:38Z</time>
</trkpt>
<trkpt lat="34.9586482" lon="32.8357065">
<ele>1302.19</ele>
<time>2015-04-29T17:21:39Z</time>
</trkpt>
<trkpt lat="34.9585824" lon="32.8356535">
<ele>1302.98</ele>
<time>2015-04-29T17:21:40Z</time>
</trkpt>
<trkpt lat="34.9585296" lon="32.8355915">
<ele>1302.87</ele>
<time>2015-04-29T17:21:41Z</time>
</trkpt>
<trkpt lat="34.9584957" lon="32.8355095">
<ele>1302.31</ele>
<time>2015-04-29T17:21:42Z</time>
</trkpt>
<trkpt lat="34.9584782" lon="32.8354323">
<ele>1301.54</ele>
<time>2015-04-29T17:21:43Z</time>
</trkpt>
<trkpt lat="34.9584644" lon="32.8353478">
<ele>1300.65</ele>
<time>2015-04-29T17:21:44Z</time>
</trkpt>
<trkpt lat="34.9585186" lon="32.8352776">
<ele>1299.70</ele>
<time>2015-04-29T17:21:45Z</time>
</trkpt>
<trkpt lat="34.9585437" lon="32.8352207">
<ele>1297.73</ele>
<time>2015-04-29T17:21:46Z</time>
</trkpt>
<trkpt lat="34.9585722" lon="32.8351558">
<ele>1296.25</ele>
<time>2015-04-29T17:21:47Z</time>
</trkpt>
<trkpt lat="34.9586129" lon="32.8350928">
<ele>1295.00</ele>
<time>2015-04-29T17:21:48Z</time>
</trkpt>
<trkpt lat="34.9586545" lon="32.8350318">
<ele>1294.38</ele>
<time>2015-04-29T17:21:49Z</time>
</trkpt>
<trkpt lat="34.9586949" lon="32.8349734">
<ele>1293.57</ele>
<time>2015-04-29T17:21:50Z</time>
</trkpt>
<trkpt lat="34.9587260" lon="32.8348968">
<ele>1292.67</ele>
<time>2015-04-29T17:21:51Z</time>
</trkpt>
<trkpt lat="34.9587529" lon="32.8348420">
<ele>1292.21</ele>
<time>2015-04-29T17:21:52Z</time>
</trkpt>
<trkpt lat="34.9587901" lon="32.8347802">
<ele>1291.49</ele>
<time>2015-04-29T17:21:53Z</time>
</trkpt>
<trkpt lat="34.9587926" lon="32.8347171">
<ele>1290.62</ele>
<time>2015-04-29T17:21:54Z</time>
</trkpt>
<trkpt lat="34.9587932" lon="32.8346581">
<ele>1289.69</ele>
<time>2015-04-29T17:21:55Z</time>
</trkpt>
<trkpt lat="34.9588188" lon="32.8346113">
<ele>1288.23</ele>
<time>2015-04-29T17:21:56Z</time>
</trkpt>
<trkpt lat="34.9588654" lon="32.8345347">
<ele>1287.13</ele>
<time>2015-04-29T17:21:58Z</time>
</trkpt>
<trkpt lat="34.9588825" lon="32.8344253">
<ele>1285.85</ele>
<time>2015-04-29T17:22:00Z</time>
</trkpt>
<trkpt lat="34.9588931" lon="32.8343649">
<ele>1285.31</ele>
<time>2015-04-29T17:22:01Z</time>
</trkpt>
<trkpt lat="34.9589108" lon="32.8343036">
<ele>1285.03</ele>
<time>2015-04-29T17:22:02Z</time>
</trkpt>
<trkpt lat="34.9589230" lon="32.8342301">
<ele>1284.90</ele>
<time>2015-04-29T17:22:03Z</time>
</trkpt>
<trkpt lat="34.9589275" lon="32.8341535">
<ele>1284.33</ele>
<time>2015-04-29T17:22:04Z</time>
</trkpt>
<trkpt lat="34.9589308" lon="32.8340624">
<ele>1283.54</ele>
<time>2015-04-29T17:22:05Z</time>
</trkpt>
<trkpt lat="34.9589167" lon="32.8339645">
<ele>1282.65</ele>
<time>2015-04-29T17:22:06Z</time>
</trkpt>
<trkpt lat="34.9589052" lon="32.8338793">
<ele>1282.21</ele>
<time>2015-04-29T17:22:07Z</time>
</trkpt>
<trkpt lat="34.9588998" lon="32.8337861">
<ele>1282.48</ele>
<time>2015-04-29T17:22:08Z</time>
</trkpt>
<trkpt lat="34.9589003" lon="32.8337031">
<ele>1282.62</ele>
<time>2015-04-29T17:22:09Z</time>
</trkpt>
<trkpt lat="34.9588914" lon="32.8336132">
<ele>1282.69</ele>
<time>2015-04-29T17:22:10Z</time>
</trkpt>
<trkpt lat="34.9588712" lon="32.8335114">
<ele>1282.23</ele>
<time>2015-04-29T17:22:11Z</time>
</trkpt>
<trkpt lat="34.9588547" lon="32.8334108">
<ele>1281.49</ele>
<time>2015-04-29T17:22:12Z</time>
</trkpt>
<trkpt lat="34.9588357" lon="32.8333154">
<ele>1281.13</ele>
<time>2015-04-29T17:22:13Z</time>
</trkpt>
<trkpt lat="34.9588294" lon="32.8332290">
<ele>1281.44</ele>
<time>2015-04-29T17:22:14Z</time>
</trkpt>
<trkpt lat="34.9588067" lon="32.8331242">
<ele>1281.10</ele>
<time>2015-04-29T17:22:15Z</time>
</trkpt>
<trkpt lat="34.9587639" lon="32.8330205">
<ele>1280.43</ele>
<time>2015-04-29T17:22:16Z</time>
</trkpt>
<trkpt lat="34.9587257" lon="32.8329329">
<ele>1279.10</ele>
<time>2015-04-29T17:22:17Z</time>
</trkpt>
<trkpt lat="34.9586699" lon="32.8328694">
<ele>1278.43</ele>
<time>2015-04-29T17:22:18Z</time>
</trkpt>
<trkpt lat="34.9586066" lon="32.8327930">
<ele>1278.09</ele>
<time>2015-04-29T17:22:19Z</time>
</trkpt>
<trkpt lat="34.9585444" lon="32.8327214">
<ele>1277.93</ele>
<time>2015-04-29T17:22:20Z</time>
</trkpt>
<trkpt lat="34.9584746" lon="32.8326286">
<ele>1277.84</ele>
<time>2015-04-29T17:22:21Z</time>
</trkpt>
<trkpt lat="34.9584135" lon="32.8325580">
<ele>1277.80</ele>
<time>2015-04-29T17:22:22Z</time>
</trkpt>
<trkpt lat="34.9583642" lon="32.8324597">
<ele>1277.78</ele>
<time>2015-04-29T17:22:23Z</time>
</trkpt>
<trkpt lat="34.9582918" lon="32.8323795">
<ele>1278.27</ele>
<time>2015-04-29T17:22:24Z</time>
</trkpt>
<trkpt lat="34.9582286" lon="32.8323070">
<ele>1278.02</ele>
<time>2015-04-29T17:22:25Z</time>
</trkpt>
<trkpt lat="34.9581616" lon="32.8322395">
<ele>1277.39</ele>
<time>2015-04-29T17:22:26Z</time>
</trkpt>
<trkpt lat="34.9580951" lon="32.8321814">
<ele>1276.57</ele>
<time>2015-04-29T17:22:27Z</time>
</trkpt>
<trkpt lat="34.9580161" lon="32.8321381">
<ele>1275.67</ele>
<time>2015-04-29T17:22:28Z</time>
</trkpt>
<trkpt lat="34.9579519" lon="32.8321156">
<ele>1274.71</ele>
<time>2015-04-29T17:22:29Z</time>
</trkpt>
<trkpt lat="34.9578888" lon="32.8321267">
<ele>1274.24</ele>
<time>2015-04-29T17:22:30Z</time>
</trkpt>
<trkpt lat="34.9578101" lon="32.8321484">
<ele>1273.50</ele>
<time>2015-04-29T17:22:31Z</time>
</trkpt>
<trkpt lat="34.9577392" lon="32.8321617">
<ele>1273.13</ele>
<time>2015-04-29T17:22:32Z</time>
</trkpt>
<trkpt lat="34.9576698" lon="32.8321777">
<ele>1272.44</ele>
<time>2015-04-29T17:22:33Z</time>
</trkpt>
<trkpt lat="34.9576057" lon="32.8321825">
<ele>1272.10</ele>
<time>2015-04-29T17:22:34Z</time>
</trkpt>
<trkpt lat="34.9575529" lon="32.8321808">
<ele>1271.93</ele>
<time>2015-04-29T17:22:35Z</time>
</trkpt>
<trkpt lat="34.9574956" lon="32.8321798">
<ele>1271.85</ele>
<time>2015-04-29T17:22:36Z</time>
</trkpt>
<trkpt lat="34.9574569" lon="32.8321320">
<ele>1272.30</ele>
<time>2015-04-29T17:22:37Z</time>
</trkpt>
<trkpt lat="34.9574156" lon="32.8320981">
<ele>1272.53</ele>
<time>2015-04-29T17:22:38Z</time>
</trkpt>
<trkpt lat="34.9574118" lon="32.8319970">
<ele>1272.70</ele>
<time>2015-04-29T17:22:40Z</time>
</trkpt>
<trkpt lat="34.9574246" lon="32.8319302">
<ele>1272.73</ele>
<time>2015-04-29T17:22:41Z</time>
</trkpt>
<trkpt lat="34.9574328" lon="32.8318522">
<ele>1272.75</ele>
<time>2015-04-29T17:22:42Z</time>
</trkpt>
<trkpt lat="34.9574559" lon="32.8317784">
<ele>1272.75</ele>
<time>2015-04-29T17:22:43Z</time>
</trkpt>
<trkpt lat="34.9574659" lon="32.8316919">
<ele>1271.76</ele>
<time>2015-04-29T17:22:44Z</time>
</trkpt>
<trkpt lat="34.9574645" lon="32.8316133">
<ele>1269.76</ele>
<time>2015-04-29T17:22:45Z</time>
</trkpt>
<trkpt lat="34.9574883" lon="32.8315245">
<ele>1268.76</ele>
<time>2015-04-29T17:22:46Z</time>
</trkpt>
<trkpt lat="34.9575075" lon="32.8314348">
<ele>1267.76</ele>
<time>2015-04-29T17:22:47Z</time>
</trkpt>
<trkpt lat="34.9575294" lon="32.8313440">
<ele>1267.26</ele>
<time>2015-04-29T17:22:48Z</time>
</trkpt>
<trkpt lat="34.9575678" lon="32.8312616">
<ele>1266.51</ele>
<time>2015-04-29T17:22:49Z</time>
</trkpt>
<trkpt lat="34.9575892" lon="32.8311732">
<ele>1265.13</ele>
<time>2015-04-29T17:22:50Z</time>
</trkpt>
<trkpt lat="34.9576447" lon="32.8311144">
<ele>1263.95</ele>
<time>2015-04-29T17:22:51Z</time>
</trkpt>
<trkpt lat="34.9577075" lon="32.8310609">
<ele>1263.35</ele>
<time>2015-04-29T17:22:52Z</time>
</trkpt>
<trkpt lat="34.9577673" lon="32.8310116">
<ele>1262.56</ele>
<time>2015-04-29T17:22:53Z</time>
</trkpt>
<trkpt lat="34.9578426" lon="32.8309722">
<ele>1261.66</ele>
<time>2015-04-29T17:22:54Z</time>
</trkpt>
<trkpt lat="34.9579115" lon="32.8309167">
<ele>1261.21</ele>
<time>2015-04-29T17:22:55Z</time>
</trkpt>
<trkpt lat="34.9579796" lon="32.8308738">
<ele>1260.98</ele>
<time>2015-04-29T17:22:56Z</time>
</trkpt>
<trkpt lat="34.9580516" lon="32.8308028">
<ele>1260.87</ele>
<time>2015-04-29T17:22:57Z</time>
</trkpt>
<trkpt lat="34.9581178" lon="32.8307480">
<ele>1260.82</ele>
<time>2015-04-29T17:22:58Z</time>
</trkpt>
<trkpt lat="34.9581796" lon="32.8306864">
<ele>1260.79</ele>
<time>2015-04-29T17:22:59Z</time>
</trkpt>
<trkpt lat="34.9581983" lon="32.8305968">
<ele>1260.27</ele>
<time>2015-04-29T17:23:00Z</time>
</trkpt>
<trkpt lat="34.9582432" lon="32.8305355">
<ele>1260.02</ele>
<time>2015-04-29T17:23:01Z</time>
</trkpt>
<trkpt lat="34.9582552" lon="32.8304506">
<ele>1258.89</ele>
<time>2015-04-29T17:23:02Z</time>
</trkpt>
<trkpt lat="34.9582393" lon="32.8303708">
<ele>1257.82</ele>
<time>2015-04-29T17:23:03Z</time>
</trkpt>
<trkpt lat="34.9582196" lon="32.8302917">
<ele>1257.29</ele>
<time>2015-04-29T17:23:04Z</time>
</trkpt>
<trkpt lat="34.9581879" lon="32.8302179">
<ele>1257.03</ele>
<time>2015-04-29T17:23:05Z</time>
</trkpt>
<trkpt lat="34.9581514" lon="32.8301389">
<ele>1256.39</ele>
<time>2015-04-29T17:23:06Z</time>
</trkpt>
<trkpt lat="34.9581106" lon="32.8300588">
<ele>1256.08</ele>
<time>2015-04-29T17:23:07Z</time>
</trkpt>
<trkpt lat="34.9580712" lon="32.8299681">
<ele>1255.42</ele>
<time>2015-04-29T17:23:08Z</time>
</trkpt>
<trkpt lat="34.9580314" lon="32.8298824">
<ele>1254.59</ele>
<time>2015-04-29T17:23:09Z</time>
</trkpt>
<trkpt lat="34.9579923" lon="32.8297991">
<ele>1254.67</ele>
<time>2015-04-29T17:23:10Z</time>
</trkpt>
<trkpt lat="34.9579628" lon="32.8297026">
<ele>1254.72</ele>
<time>2015-04-29T17:23:11Z</time>
</trkpt>
<trkpt lat="34.9579468" lon="32.8296127">
<ele>1254.74</ele>
<time>2015-04-29T17:23:12Z</time>
</trkpt>
<trkpt lat="34.9579560" lon="32.8295142">
<ele>1254.25</ele>
<time>2015-04-29T17:23:13Z</time>
</trkpt>
<trkpt lat="34.9579769" lon="32.8294207">
<ele>1253.50</ele>
<time>2015-04-29T17:23:14Z</time>
</trkpt>
<trkpt lat="34.9580053" lon="32.8293468">
<ele>1252.63</ele>
<time>2015-04-29T17:23:15Z</time>
</trkpt>
<trkpt lat="34.9580530" lon="32.8292740">
<ele>1252.20</ele>
<time>2015-04-29T17:23:16Z</time>
</trkpt>
<trkpt lat="34.9581065" lon="32.8292185">
<ele>1251.48</ele>
<time>2015-04-29T17:23:17Z</time>
</trkpt>
<trkpt lat="34.9581651" lon="32.8291794">
<ele>1250.62</ele>
<time>2015-04-29T17:23:18Z</time>
</trkpt>
<trkpt lat="34.9582411" lon="32.8291554">
<ele>1249.69</ele>
<time>2015-04-29T17:23:19Z</time>
</trkpt>
<trkpt lat="34.9583221" lon="32.8291439">
<ele>1249.22</ele>
<time>2015-04-29T17:23:20Z</time>
</trkpt>
<trkpt lat="34.9584072" lon="32.8291333">
<ele>1248.99</ele>
<time>2015-04-29T17:23:21Z</time>
</trkpt>
<trkpt lat="34.9584737" lon="32.8291204">
<ele>1248.88</ele>
<time>2015-04-29T17:23:22Z</time>
</trkpt>
<trkpt lat="34.9585587" lon="32.8291192">
<ele>1248.32</ele>
<time>2015-04-29T17:23:23Z</time>
</trkpt>
<trkpt lat="34.9586271" lon="32.8291098">
<ele>1248.04</ele>
<time>2015-04-29T17:23:24Z</time>
</trkpt>
<trkpt lat="34.9586880" lon="32.8290808">
<ele>1246.90</ele>
<time>2015-04-29T17:23:25Z</time>
</trkpt>
<trkpt lat="34.9587611" lon="32.8290791">
<ele>1245.83</ele>
<time>2015-04-29T17:23:26Z</time>
</trkpt>
<trkpt lat="34.9588348" lon="32.8290811">
<ele>1244.79</ele>
<time>2015-04-29T17:23:27Z</time>
</trkpt>
<trkpt lat="34.9588992" lon="32.8290658">
<ele>1244.28</ele>
<time>2015-04-29T17:23:28Z</time>
</trkpt>
<trkpt lat="34.9589404" lon="32.8290236">
<ele>1242.52</ele>
<time>2015-04-29T17:23:29Z</time>
</trkpt>
<trkpt lat="34.9590323" lon="32.8289558">
<ele>1239.95</ele>
<time>2015-04-29T17:23:31Z</time>
</trkpt>
<trkpt lat="34.9590897" lon="32.8289122">
<ele>1239.35</ele>
<time>2015-04-29T17:23:32Z</time>
</trkpt>
<trkpt lat="34.9590990" lon="32.8288460">
<ele>1238.56</ele>
<time>2015-04-29T17:23:33Z</time>
</trkpt>
<trkpt lat="34.9590903" lon="32.8287764">
<ele>1237.66</ele>
<time>2015-04-29T17:23:34Z</time>
</trkpt>
<trkpt lat="34.9590922" lon="32.8287102">
<ele>1237.71</ele>
<time>2015-04-29T17:23:35Z</time>
</trkpt>
<trkpt lat="34.9590836" lon="32.8286456">
<ele>1237.73</ele>
<time>2015-04-29T17:23:36Z</time>
</trkpt>
<trkpt lat="34.9590663" lon="32.8285821">
<ele>1238.75</ele>
<time>2015-04-29T17:23:37Z</time>
</trkpt>
<trkpt lat="34.9590638" lon="32.8284961">
<ele>1238.25</ele>
<time>2015-04-29T17:23:38Z</time>
</trkpt>
<trkpt lat="34.9590648" lon="32.8284194">
<ele>1237.51</ele>
<time>2015-04-29T17:23:39Z</time>
</trkpt>
<trkpt lat="34.9590990" lon="32.8283545">
<ele>1236.13</ele>
<time>2015-04-29T17:23:40Z</time>
</trkpt>
<trkpt lat="34.9591607" lon="32.8282953">
<ele>1234.45</ele>
<time>2015-04-29T17:23:41Z</time>
</trkpt>
<trkpt lat="34.9592235" lon="32.8282389">
<ele>1234.10</ele>
<time>2015-04-29T17:23:42Z</time>
</trkpt>
<trkpt lat="34.9592708" lon="32.8281975">
<ele>1233.43</ele>
<time>2015-04-29T17:23:43Z</time>
</trkpt>
<trkpt lat="34.9593300" lon="32.8281501">
<ele>1232.60</ele>
<time>2015-04-29T17:23:44Z</time>
</trkpt>
<trkpt lat="34.9593963" lon="32.8281000">
<ele>1232.18</ele>
<time>2015-04-29T17:23:45Z</time>
</trkpt>
<trkpt lat="34.9594900" lon="32.8280572">
<ele>1231.47</ele>
<time>2015-04-29T17:23:46Z</time>
</trkpt>
<trkpt lat="34.9595287" lon="32.8279838">
<ele>1231.11</ele>
<time>2015-04-29T17:23:47Z</time>
</trkpt>
<trkpt lat="34.9595388" lon="32.8279048">
<ele>1230.44</ele>
<time>2015-04-29T17:23:48Z</time>
</trkpt>
<trkpt lat="34.9595493" lon="32.8278153">
<ele>1230.10</ele>
<time>2015-04-29T17:23:49Z</time>
</trkpt>
<trkpt lat="34.9595572" lon="32.8277462">
<ele>1229.93</ele>
<time>2015-04-29T17:23:50Z</time>
</trkpt>
<trkpt lat="34.9595356" lon="32.8276543">
<ele>1229.84</ele>
<time>2015-04-29T17:23:51Z</time>
</trkpt>
<trkpt lat="34.9595170" lon="32.8275656">
<ele>1229.30</ele>
<time>2015-04-29T17:23:52Z</time>
</trkpt>
<trkpt lat="34.9594985" lon="32.8274813">
<ele>1229.03</ele>
<time>2015-04-29T17:23:53Z</time>
</trkpt>
<trkpt lat="34.9594914" lon="32.8273900">
<ele>1228.40</ele>
<time>2015-04-29T17:23:54Z</time>
</trkpt>
<trkpt lat="34.9594946" lon="32.8273032">
<ele>1227.58</ele>
<time>2015-04-29T17:23:55Z</time>
</trkpt>
<trkpt lat="34.9595053" lon="32.8272168">
<ele>1226.67</ele>
<time>2015-04-29T17:23:56Z</time>
</trkpt>
<trkpt lat="34.9595140" lon="32.8271182">
<ele>1225.71</ele>
<time>2015-04-29T17:23:57Z</time>
</trkpt>
<trkpt lat="34.9595788" lon="32.8270500">
<ele>1224.74</ele>
<time>2015-04-29T17:23:58Z</time>
</trkpt>
<trkpt lat="34.9596314" lon="32.8270079">
<ele>1224.25</ele>
<time>2015-04-29T17:23:59Z</time>
</trkpt>
<trkpt lat="34.9596972" lon="32.8269797">
<ele>1224.00</ele>
<time>2015-04-29T17:24:00Z</time>
</trkpt>
<trkpt lat="34.9597695" lon="32.8269717">
<ele>1223.38</ele>
<time>2015-04-29T17:24:01Z</time>
</trkpt>
<trkpt lat="34.9598447" lon="32.8269633">
<ele>1223.07</ele>
<time>2015-04-29T17:24:02Z</time>
</trkpt>
<trkpt lat="34.9599277" lon="32.8269687">
<ele>1222.42</ele>
<time>2015-04-29T17:24:03Z</time>
</trkpt>
<trkpt lat="34.9600067" lon="32.8269848">
<ele>1222.09</ele>
<time>2015-04-29T17:24:04Z</time>
</trkpt>
<trkpt lat="34.9600939" lon="32.8270112">
<ele>1221.42</ele>
<time>2015-04-29T17:24:05Z</time>
</trkpt>
<trkpt lat="34.9601762" lon="32.8270309">
<ele>1221.09</ele>
<time>2015-04-29T17:24:06Z</time>
</trkpt>
<trkpt lat="34.9602582" lon="32.8270389">
<ele>1220.43</ele>
<time>2015-04-29T17:24:07Z</time>
</trkpt>
<trkpt lat="34.9603394" lon="32.8270534">
<ele>1220.09</ele>
<time>2015-04-29T17:24:08Z</time>
</trkpt>
<trkpt lat="34.9604110" lon="32.8270511">
<ele>1220.43</ele>
<time>2015-04-29T17:24:09Z</time>
</trkpt>
<trkpt lat="34.9604807" lon="32.8270506">
<ele>1220.59</ele>
<time>2015-04-29T17:24:10Z</time>
</trkpt>
<trkpt lat="34.9605505" lon="32.8270447">
<ele>1220.68</ele>
<time>2015-04-29T17:24:11Z</time>
</trkpt>
<trkpt lat="34.9606173" lon="32.8270580">
<ele>1220.72</ele>
<time>2015-04-29T17:24:12Z</time>
</trkpt>
<trkpt lat="34.9606709" lon="32.8270656">
<ele>1220.74</ele>
<time>2015-04-29T17:24:13Z</time>
</trkpt>
<trkpt lat="34.9607171" lon="32.8270927">
<ele>1220.25</ele>
<time>2015-04-29T17:24:14Z</time>
</trkpt>
<trkpt lat="34.9607719" lon="32.8271503">
<ele>1217.88</ele>
<time>2015-04-29T17:24:16Z</time>
</trkpt>
<trkpt lat="34.9608487" lon="32.8272101">
<ele>1217.04</ele>
<time>2015-04-29T17:24:18Z</time>
</trkpt>
<trkpt lat="34.9608800" lon="32.8272530">
<ele>1216.90</ele>
<time>2015-04-29T17:24:19Z</time>
</trkpt>
<trkpt lat="34.9609472" lon="32.8273231">
<ele>1216.80</ele>
<time>2015-04-29T17:24:21Z</time>
</trkpt>
<trkpt lat="34.9609856" lon="32.8273754">
<ele>1216.28</ele>
<time>2015-04-29T17:24:22Z</time>
</trkpt>
<trkpt lat="34.9610161" lon="32.8274173">
<ele>1216.02</ele>
<time>2015-04-29T17:24:23Z</time>
</trkpt>
<trkpt lat="34.9610693" lon="32.8274604">
<ele>1215.89</ele>
<time>2015-04-29T17:24:24Z</time>
</trkpt>
<trkpt lat="34.9611169" lon="32.8275111">
<ele>1215.32</ele>
<time>2015-04-29T17:24:25Z</time>
</trkpt>
<trkpt lat="34.9611718" lon="32.8275689">
<ele>1215.04</ele>
<time>2015-04-29T17:24:26Z</time>
</trkpt>
<trkpt lat="34.9612258" lon="32.8276274">
<ele>1214.90</ele>
<time>2015-04-29T17:24:27Z</time>
</trkpt>
<trkpt lat="34.9612814" lon="32.8276764">
<ele>1214.33</ele>
<time>2015-04-29T17:24:28Z</time>
</trkpt>
<trkpt lat="34.9613321" lon="32.8277140">
<ele>1213.55</ele>
<time>2015-04-29T17:24:29Z</time>
</trkpt>
<trkpt lat="34.9613934" lon="32.8277534">
<ele>1212.65</ele>
<time>2015-04-29T17:24:30Z</time>
</trkpt>
<trkpt lat="34.9614627" lon="32.8278005">
<ele>1212.21</ele>
<time>2015-04-29T17:24:31Z</time>
</trkpt>
<trkpt lat="34.9615410" lon="32.8278354">
<ele>1210.98</ele>
<time>2015-04-29T17:24:32Z</time>
</trkpt>
<trkpt lat="34.9616192" lon="32.8278720">
<ele>1209.37</ele>
<time>2015-04-29T17:24:33Z</time>
</trkpt>
<trkpt lat="34.9616988" lon="32.8279062">
<ele>1208.57</ele>
<time>2015-04-29T17:24:34Z</time>
</trkpt>
<trkpt lat="34.9617837" lon="32.8279401">
<ele>1207.66</ele>
<time>2015-04-29T17:24:35Z</time>
</trkpt>
<trkpt lat="34.9618863" lon="32.8279519">
<ele>1206.71</ele>
<time>2015-04-29T17:24:36Z</time>
</trkpt>
<trkpt lat="34.9619774" lon="32.8279621">
<ele>1206.24</ele>
<time>2015-04-29T17:24:37Z</time>
</trkpt>
<trkpt lat="34.9620692" lon="32.8279628">
<ele>1206.00</ele>
<time>2015-04-29T17:24:38Z</time>
</trkpt>
<trkpt lat="34.9621791" lon="32.8279450">
<ele>1205.38</ele>
<time>2015-04-29T17:24:39Z</time>
</trkpt>
<trkpt lat="34.9622757" lon="32.8279228">
<ele>1203.57</ele>
<time>2015-04-29T17:24:40Z</time>
</trkpt>
<trkpt lat="34.9623672" lon="32.8279269">
<ele>1201.16</ele>
<time>2015-04-29T17:24:41Z</time>
</trkpt>
<trkpt lat="34.9624486" lon="32.8279418">
<ele>1199.46</ele>
<time>2015-04-29T17:24:42Z</time>
</trkpt>
<trkpt lat="34.9625367" lon="32.8279729">
<ele>1198.11</ele>
<time>2015-04-29T17:24:43Z</time>
</trkpt>
<trkpt lat="34.9626157" lon="32.8280082">
<ele>1197.44</ele>
<time>2015-04-29T17:24:44Z</time>
</trkpt>
<trkpt lat="34.9626951" lon="32.8280446">
<ele>1196.60</ele>
<time>2015-04-29T17:24:45Z</time>
</trkpt>
<trkpt lat="34.9627673" lon="32.8280852">
<ele>1196.18</ele>
<time>2015-04-29T17:24:46Z</time>
</trkpt>
<trkpt lat="34.9628471" lon="32.8281182">
<ele>1195.47</ele>
<time>2015-04-29T17:24:47Z</time>
</trkpt>
<trkpt lat="34.9629290" lon="32.8281523">
<ele>1195.11</ele>
<time>2015-04-29T17:24:48Z</time>
</trkpt>
<trkpt lat="34.9629998" lon="32.8281843">
<ele>1194.44</ele>
<time>2015-04-29T17:24:49Z</time>
</trkpt>
<trkpt lat="34.9630731" lon="32.8281956">
<ele>1193.60</ele>
<time>2015-04-29T17:24:50Z</time>
</trkpt>
<trkpt lat="34.9631488" lon="32.8282069">
<ele>1193.18</ele>
<time>2015-04-29T17:24:51Z</time>
</trkpt>
<trkpt lat="34.9632321" lon="32.8282232">
<ele>1192.97</ele>
<time>2015-04-29T17:24:52Z</time>
</trkpt>
<trkpt lat="34.9633166" lon="32.8282304">
<ele>1192.36</ele>
<time>2015-04-29T17:24:53Z</time>
</trkpt>
<trkpt lat="34.9634065" lon="32.8282419">
<ele>1191.56</ele>
<time>2015-04-29T17:24:54Z</time>
</trkpt>
<trkpt lat="34.9634997" lon="32.8282334">
<ele>1190.66</ele>
<time>2015-04-29T17:24:55Z</time>
</trkpt>
<trkpt lat="34.9636004" lon="32.8282293">
<ele>1189.21</ele>
<time>2015-04-29T17:24:56Z</time>
</trkpt>
<trkpt lat="34.9636895" lon="32.8282258">
<ele>1188.49</ele>
<time>2015-04-29T17:24:57Z</time>
</trkpt>
<trkpt lat="34.9637763" lon="32.8282365">
<ele>1187.62</ele>
<time>2015-04-29T17:24:58Z</time>
</trkpt>
<trkpt lat="34.9638389" lon="32.8282561">
<ele>1186.69</ele>
<time>2015-04-29T17:24:59Z</time>
</trkpt>
<trkpt lat="34.9639049" lon="32.8282802">
<ele>1186.23</ele>
<time>2015-04-29T17:25:00Z</time>
</trkpt>
<trkpt lat="34.9639637" lon="32.8283002">
<ele>1185.99</ele>
<time>2015-04-29T17:25:01Z</time>
</trkpt>
<trkpt lat="34.9640202" lon="32.8283054">
<ele>1185.88</ele>
<time>2015-04-29T17:25:02Z</time>
</trkpt>
<trkpt lat="34.9640695" lon="32.8283048">
<ele>1185.82</ele>
<time>2015-04-29T17:25:03Z</time>
</trkpt>
<trkpt lat="34.9641312" lon="32.8282903">
<ele>1185.79</ele>
<time>2015-04-29T17:25:04Z</time>
</trkpt>
<trkpt lat="34.9641791" lon="32.8282620">
<ele>1185.27</ele>
<time>2015-04-29T17:25:05Z</time>
</trkpt>
<trkpt lat="34.9642328" lon="32.8282343">
<ele>1184.52</ele>
<time>2015-04-29T17:25:06Z</time>
</trkpt>
<trkpt lat="34.9642835" lon="32.8282177">
<ele>1184.14</ele>
<time>2015-04-29T17:25:07Z</time>
</trkpt>
<trkpt lat="34.9643496" lon="32.8281739">
<ele>1183.45</ele>
<time>2015-04-29T17:25:08Z</time>
</trkpt>
<trkpt lat="34.9644098" lon="32.8281639">
<ele>1183.10</ele>
<time>2015-04-29T17:25:09Z</time>
</trkpt>
<trkpt lat="34.9644734" lon="32.8281605">
<ele>1182.93</ele>
<time>2015-04-29T17:25:10Z</time>
</trkpt>
<trkpt lat="34.9645420" lon="32.8281617">
<ele>1182.85</ele>
<time>2015-04-29T17:25:11Z</time>
</trkpt>
<trkpt lat="34.9646090" lon="32.8281597">
<ele>1182.30</ele>
<time>2015-04-29T17:25:12Z</time>
</trkpt>
<trkpt lat="34.9646736" lon="32.8281576">
<ele>1182.03</ele>
<time>2015-04-29T17:25:13Z</time>
</trkpt>
<trkpt lat="34.9647486" lon="32.8281434">
<ele>1181.90</ele>
<time>2015-04-29T17:25:14Z</time>
</trkpt>
<trkpt lat="34.9648136" lon="32.8281103">
<ele>1181.83</ele>
<time>2015-04-29T17:25:15Z</time>
</trkpt>
<trkpt lat="34.9648856" lon="32.8280665">
<ele>1181.29</ele>
<time>2015-04-29T17:25:16Z</time>
</trkpt>
<trkpt lat="34.9649512" lon="32.8280159">
<ele>1181.03</ele>
<time>2015-04-29T17:25:17Z</time>
</trkpt>
<trkpt lat="34.9650302" lon="32.8279651">
<ele>1180.39</ele>
<time>2015-04-29T17:25:18Z</time>
</trkpt>
<trkpt lat="34.9650975" lon="32.8279101">
<ele>1179.58</ele>
<time>2015-04-29T17:25:19Z</time>
</trkpt>
<trkpt lat="34.9651746" lon="32.8278598">
<ele>1179.17</ele>
<time>2015-04-29T17:25:20Z</time>
</trkpt>
<trkpt lat="34.9652575" lon="32.8278047">
<ele>1178.96</ele>
<time>2015-04-29T17:25:21Z</time>
</trkpt>
<trkpt lat="34.9653360" lon="32.8277426">
<ele>1178.86</ele>
<time>2015-04-29T17:25:22Z</time>
</trkpt>
<trkpt lat="34.9654064" lon="32.8276831">
<ele>1178.31</ele>
<time>2015-04-29T17:25:23Z</time>
</trkpt>
<trkpt lat="34.9654374" lon="32.8275894">
<ele>1178.54</ele>
<time>2015-04-29T17:25:24Z</time>
</trkpt>
<trkpt lat="34.9655116" lon="32.8275328">
<ele>1178.65</ele>
<time>2015-04-29T17:25:25Z</time>
</trkpt>
<trkpt lat="34.9655878" lon="32.8274845">
<ele>1179.20</ele>
<time>2015-04-29T17:25:26Z</time>
</trkpt>
<trkpt lat="34.9656597" lon="32.8274480">
<ele>1178.98</ele>
<time>2015-04-29T17:25:27Z</time>
</trkpt>
<trkpt lat="34.9657344" lon="32.8274027">
<ele>1178.37</ele>
<time>2015-04-29T17:25:28Z</time>
</trkpt>
<trkpt lat="34.9658073" lon="32.8273571">
<ele>1178.07</ele>
<time>2015-04-29T17:25:29Z</time>
</trkpt>
<trkpt lat="34.9658818" lon="32.8272897">
<ele>1177.41</ele>
<time>2015-04-29T17:25:30Z</time>
</trkpt>
<trkpt lat="34.9659554" lon="32.8272255">
<ele>1176.59</ele>
<time>2015-04-29T17:25:31Z</time>
</trkpt>
<trkpt lat="34.9660289" lon="32.8271623">
<ele>1175.67</ele>
<time>2015-04-29T17:25:32Z</time>
</trkpt>
<trkpt lat="34.9661007" lon="32.8270994">
<ele>1175.22</ele>
<time>2015-04-29T17:25:33Z</time>
</trkpt>
<trkpt lat="34.9661803" lon="32.8270444">
<ele>1174.49</ele>
<time>2015-04-29T17:25:34Z</time>
</trkpt>
<trkpt lat="34.9662543" lon="32.8269810">
<ele>1173.62</ele>
<time>2015-04-29T17:25:35Z</time>
</trkpt>
<trkpt lat="34.9663242" lon="32.8269109">
<ele>1172.69</ele>
<time>2015-04-29T17:25:36Z</time>
</trkpt>
<trkpt lat="34.9663890" lon="32.8268435">
<ele>1172.23</ele>
<time>2015-04-29T17:25:37Z</time>
</trkpt>
<trkpt lat="34.9664724" lon="32.8267814">
<ele>1171.99</ele>
<time>2015-04-29T17:25:38Z</time>
</trkpt>
<trkpt lat="34.9665316" lon="32.8267133">
<ele>1171.88</ele>
<time>2015-04-29T17:25:39Z</time>
</trkpt>
<trkpt lat="34.9665934" lon="32.8266652">
<ele>1172.32</ele>
<time>2015-04-29T17:25:40Z</time>
</trkpt>
<trkpt lat="34.9666358" lon="32.8266227">
<ele>1172.04</ele>
<time>2015-04-29T17:25:41Z</time>
</trkpt>
<trkpt lat="34.9666962" lon="32.8265628">
<ele>1171.08</ele>
<time>2015-04-29T17:25:43Z</time>
</trkpt>
<trkpt lat="34.9667510" lon="32.8265217">
<ele>1170.84</ele>
<time>2015-04-29T17:25:45Z</time>
</trkpt>
<trkpt lat="34.9667974" lon="32.8264753">
<ele>1169.53</ele>
<time>2015-04-29T17:25:47Z</time>
</trkpt>
<trkpt lat="34.9668452" lon="32.8264366">
<ele>1168.95</ele>
<time>2015-04-29T17:25:49Z</time>
</trkpt>
<trkpt lat="34.9668653" lon="32.8263788">
<ele>1173.63</ele>
<time>2015-04-29T17:26:11Z</time>
</trkpt>
<trkpt lat="34.9669131" lon="32.8263432">
<ele>1172.98</ele>
<time>2015-04-29T17:26:13Z</time>
</trkpt>
<trkpt lat="34.9669875" lon="32.8262873">
<ele>1172.81</ele>
<time>2015-04-29T17:26:15Z</time>
</trkpt>
<trkpt lat="34.9670277" lon="32.8262600">
<ele>1172.79</ele>
<time>2015-04-29T17:26:16Z</time>
</trkpt>
<trkpt lat="34.9671384" lon="32.8261964">
<ele>1172.02</ele>
<time>2015-04-29T17:26:18Z</time>
</trkpt>
<trkpt lat="34.9671783" lon="32.8261616">
<ele>1171.39</ele>
<time>2015-04-29T17:26:19Z</time>
</trkpt>
<trkpt lat="34.9672288" lon="32.8261278">
<ele>1171.57</ele>
<time>2015-04-29T17:26:20Z</time>
</trkpt>
<trkpt lat="34.9672746" lon="32.8260985">
<ele>1171.67</ele>
<time>2015-04-29T17:26:21Z</time>
</trkpt>
<trkpt lat="34.9673160" lon="32.8260731">
<ele>1171.71</ele>
<time>2015-04-29T17:26:22Z</time>
</trkpt>
<trkpt lat="34.9673594" lon="32.8260396">
<ele>1171.74</ele>
<time>2015-04-29T17:26:23Z</time>
</trkpt>
<trkpt lat="34.9674014" lon="32.8260053">
<ele>1171.75</ele>
<time>2015-04-29T17:26:24Z</time>
</trkpt>
<trkpt lat="34.9674472" lon="32.8259654">
<ele>1171.25</ele>
<time>2015-04-29T17:26:25Z</time>
</trkpt>
<trkpt lat="34.9674984" lon="32.8259366">
<ele>1171.01</ele>
<time>2015-04-29T17:26:26Z</time>
</trkpt>
<trkpt lat="34.9675519" lon="32.8258985">
<ele>1170.88</ele>
<time>2015-04-29T17:26:27Z</time>
</trkpt>
<trkpt lat="34.9676095" lon="32.8258714">
<ele>1170.82</ele>
<time>2015-04-29T17:26:28Z</time>
</trkpt>
<trkpt lat="34.9676422" lon="32.8258327">
<ele>1170.79</ele>
<time>2015-04-29T17:26:29Z</time>
</trkpt>
<trkpt lat="34.9676935" lon="32.8258012">
<ele>1170.78</ele>
<time>2015-04-29T17:26:30Z</time>
</trkpt>
<trkpt lat="34.9677422" lon="32.8257686">
<ele>1170.77</ele>
<time>2015-04-29T17:26:31Z</time>
</trkpt>
<trkpt lat="34.9678027" lon="32.8257356">
<ele>1170.76</ele>
<time>2015-04-29T17:26:32Z</time>
</trkpt>
<trkpt lat="34.9678377" lon="32.8256884">
<ele>1170.26</ele>
<time>2015-04-29T17:26:33Z</time>
</trkpt>
<trkpt lat="34.9678861" lon="32.8256523">
<ele>1170.01</ele>
<time>2015-04-29T17:26:34Z</time>
</trkpt>
<trkpt lat="34.9679452" lon="32.8256298">
<ele>1169.89</ele>
<time>2015-04-29T17:26:35Z</time>
</trkpt>
<trkpt lat="34.9679987" lon="32.8255997">
<ele>1169.82</ele>
<time>2015-04-29T17:26:36Z</time>
</trkpt>
<trkpt lat="34.9680616" lon="32.8255691">
<ele>1170.79</ele>
<time>2015-04-29T17:26:37Z</time>
</trkpt>
<trkpt lat="34.9681251" lon="32.8255608">
<ele>1171.28</ele>
<time>2015-04-29T17:26:38Z</time>
</trkpt>
<trkpt lat="34.9681894" lon="32.8255408">
<ele>1172.52</ele>
<time>2015-04-29T17:26:39Z</time>
</trkpt>
<trkpt lat="34.9682539" lon="32.8255322">
<ele>1173.14</ele>
<time>2015-04-29T17:26:40Z</time>
</trkpt>
<trkpt lat="34.9683059" lon="32.8255244">
<ele>1173.45</ele>
<time>2015-04-29T17:26:41Z</time>
</trkpt>
<trkpt lat="34.9683630" lon="32.8255167">
<ele>1173.10</ele>
<time>2015-04-29T17:26:42Z</time>
</trkpt>
<trkpt lat="34.9684242" lon="32.8255044">
<ele>1173.43</ele>
<time>2015-04-29T17:26:43Z</time>
</trkpt>
<trkpt lat="34.9684855" lon="32.8254806">
<ele>1173.10</ele>
<time>2015-04-29T17:26:44Z</time>
</trkpt>
<trkpt lat="34.9685443" lon="32.8254578">
<ele>1172.93</ele>
<time>2015-04-29T17:26:45Z</time>
</trkpt>
<trkpt lat="34.9686012" lon="32.8254269">
<ele>1172.34</ele>
<time>2015-04-29T17:26:46Z</time>
</trkpt>
<trkpt lat="34.9686442" lon="32.8253803">
<ele>1172.05</ele>
<time>2015-04-29T17:26:47Z</time>
</trkpt>
<trkpt lat="34.9686868" lon="32.8253225">
<ele>1171.91</ele>
<time>2015-04-29T17:26:48Z</time>
</trkpt>
<trkpt lat="34.9687411" lon="32.8252776">
<ele>1171.83</ele>
<time>2015-04-29T17:26:49Z</time>
</trkpt>
<trkpt lat="34.9687918" lon="32.8252273">
<ele>1171.30</ele>
<time>2015-04-29T17:26:50Z</time>
</trkpt>
<trkpt lat="34.9688360" lon="32.8251733">
<ele>1170.03</ele>
<time>2015-04-29T17:26:51Z</time>
</trkpt>
<trkpt lat="34.9688701" lon="32.8251160">
<ele>1169.39</ele>
<time>2015-04-29T17:26:52Z</time>
</trkpt>
<trkpt lat="34.9689255" lon="32.8250630">
<ele>1169.58</ele>
<time>2015-04-29T17:26:53Z</time>
</trkpt>
<trkpt lat="34.9689636" lon="32.8250104">
<ele>1169.17</ele>
<time>2015-04-29T17:26:54Z</time>
</trkpt>
<trkpt lat="34.9689981" lon="32.8249570">
<ele>1168.96</ele>
<time>2015-04-29T17:26:55Z</time>
</trkpt>
<trkpt lat="34.9690506" lon="32.8249050">
<ele>1168.86</ele>
<time>2015-04-29T17:26:56Z</time>
</trkpt>
<trkpt lat="34.9690929" lon="32.8248445">
<ele>1168.31</ele>
<time>2015-04-29T17:26:57Z</time>
</trkpt>
<trkpt lat="34.9691198" lon="32.8247799">
<ele>1168.04</ele>
<time>2015-04-29T17:26:58Z</time>
</trkpt>
<trkpt lat="34.9691695" lon="32.8247348">
<ele>1167.90</ele>
<time>2015-04-29T17:26:59Z</time>
</trkpt>
<trkpt lat="34.9692280" lon="32.8246856">
<ele>1167.83</ele>
<time>2015-04-29T17:27:00Z</time>
</trkpt>
<trkpt lat="34.9692406" lon="32.8246201">
<ele>1167.79</ele>
<time>2015-04-29T17:27:01Z</time>
</trkpt>
<trkpt lat="34.9693053" lon="32.8245790">
<ele>1167.78</ele>
<time>2015-04-29T17:27:02Z</time>
</trkpt>
<trkpt lat="34.9693601" lon="32.8245455">
<ele>1167.77</ele>
<time>2015-04-29T17:27:03Z</time>
</trkpt>
<trkpt lat="34.9694171" lon="32.8245082">
<ele>1167.76</ele>
<time>2015-04-29T17:27:04Z</time>
</trkpt>
<trkpt lat="34.9694750" lon="32.8244765">
<ele>1167.26</ele>
<time>2015-04-29T17:27:05Z</time>
</trkpt>
<trkpt lat="34.9695362" lon="32.8244618">
<ele>1167.01</ele>
<time>2015-04-29T17:27:06Z</time>
</trkpt>
<trkpt lat="34.9695924" lon="32.8244534">
<ele>1166.39</ele>
<time>2015-04-29T17:27:07Z</time>
</trkpt>
<trkpt lat="34.9696818" lon="32.8244605">
<ele>1166.42</ele>
<time>2015-04-29T17:27:09Z</time>
</trkpt>
<trkpt lat="34.9697293" lon="32.8244625">
<ele>1166.09</ele>
<time>2015-04-29T17:27:10Z</time>
</trkpt>
<trkpt lat="34.9698090" lon="32.8244839">
<ele>1166.34</ele>
<time>2015-04-29T17:27:12Z</time>
</trkpt>
<trkpt lat="34.9698949" lon="32.8245137">
<ele>1166.66</ele>
<time>2015-04-29T17:27:14Z</time>
</trkpt>
<trkpt lat="34.9699382" lon="32.8245304">
<ele>1166.71</ele>
<time>2015-04-29T17:27:15Z</time>
</trkpt>
<trkpt lat="34.9699817" lon="32.8245459">
<ele>1166.73</ele>
<time>2015-04-29T17:27:16Z</time>
</trkpt>
<trkpt lat="34.9700514" lon="32.8245836">
<ele>1166.75</ele>
<time>2015-04-29T17:27:18Z</time>
</trkpt>
<trkpt lat="34.9701089" lon="32.8246380">
<ele>1167.26</ele>
<time>2015-04-29T17:27:20Z</time>
</trkpt>
<trkpt lat="34.9701728" lon="32.8246852">
<ele>1167.13</ele>
<time>2015-04-29T17:27:22Z</time>
</trkpt>
<trkpt lat="34.9702405" lon="32.8247317">
<ele>1166.85</ele>
<time>2015-04-29T17:27:24Z</time>
</trkpt>
<trkpt lat="34.9703154" lon="32.8247656">
<ele>1166.53</ele>
<time>2015-04-29T17:27:26Z</time>
</trkpt>
<trkpt lat="34.9704122" lon="32.8247640">
<ele>1166.20</ele>
<time>2015-04-29T17:27:28Z</time>
</trkpt>
<trkpt lat="34.9704605" lon="32.8247517">
<ele>1165.98</ele>
<time>2015-04-29T17:27:29Z</time>
</trkpt>
<trkpt lat="34.9705063" lon="32.8247222">
<ele>1164.87</ele>
<time>2015-04-29T17:27:30Z</time>
</trkpt>
<trkpt lat="34.9705542" lon="32.8246935">
<ele>1163.82</ele>
<time>2015-04-29T17:27:31Z</time>
</trkpt>
<trkpt lat="34.9706163" lon="32.8246704">
<ele>1163.29</ele>
<time>2015-04-29T17:27:32Z</time>
</trkpt>
<trkpt lat="34.9706802" lon="32.8246516">
<ele>1163.02</ele>
<time>2015-04-29T17:27:33Z</time>
</trkpt>
<trkpt lat="34.9707445" lon="32.8246263">
<ele>1162.39</ele>
<time>2015-04-29T17:27:34Z</time>
</trkpt>
<trkpt lat="34.9708138" lon="32.8245929">
<ele>1162.08</ele>
<time>2015-04-29T17:27:35Z</time>
</trkpt>
<trkpt lat="34.9708846" lon="32.8245574">
<ele>1161.92</ele>
<time>2015-04-29T17:27:36Z</time>
</trkpt>
<trkpt lat="34.9709594" lon="32.8245240">
<ele>1162.34</ele>
<time>2015-04-29T17:27:37Z</time>
</trkpt>
<trkpt lat="34.9710367" lon="32.8244848">
<ele>1163.05</ele>
<time>2015-04-29T17:27:38Z</time>
</trkpt>
<trkpt lat="34.9710977" lon="32.8244377">
<ele>1163.40</ele>
<time>2015-04-29T17:27:39Z</time>
</trkpt>
<trkpt lat="34.9711590" lon="32.8243952">
<ele>1163.58</ele>
<time>2015-04-29T17:27:40Z</time>
</trkpt>
<trkpt lat="34.9712178" lon="32.8243652">
<ele>1163.67</ele>
<time>2015-04-29T17:27:41Z</time>
</trkpt>
<trkpt lat="34.9712757" lon="32.8243339">
<ele>1163.22</ele>
<time>2015-04-29T17:27:42Z</time>
</trkpt>
<trkpt lat="34.9713335" lon="32.8243091">
<ele>1162.99</ele>
<time>2015-04-29T17:27:43Z</time>
</trkpt>
<trkpt lat="34.9713910" lon="32.8242976">
<ele>1163.37</ele>
<time>2015-04-29T17:27:44Z</time>
</trkpt>
<trkpt lat="34.9714456" lon="32.8242991">
<ele>1163.57</ele>
<time>2015-04-29T17:27:45Z</time>
</trkpt>
<trkpt lat="34.9714996" lon="32.8243119">
<ele>1163.16</ele>
<time>2015-04-29T17:27:46Z</time>
</trkpt>
<trkpt lat="34.9715462" lon="32.8243294">
<ele>1162.46</ele>
<time>2015-04-29T17:27:47Z</time>
</trkpt>
<trkpt lat="34.9716020" lon="32.8243510">
<ele>1161.61</ele>
<time>2015-04-29T17:27:48Z</time>
</trkpt>
<trkpt lat="34.9716540" lon="32.8243752">
<ele>1160.69</ele>
<time>2015-04-29T17:27:49Z</time>
</trkpt>
<trkpt lat="34.9717085" lon="32.8243951">
<ele>1159.72</ele>
<time>2015-04-29T17:27:50Z</time>
</trkpt>
<trkpt lat="34.9717531" lon="32.8243822">
<ele>1159.24</ele>
<time>2015-04-29T17:27:51Z</time>
</trkpt>
<trkpt lat="34.9718080" lon="32.8243747">
<ele>1158.50</ele>
<time>2015-04-29T17:27:52Z</time>
</trkpt>
<trkpt lat="34.9718540" lon="32.8243471">
<ele>1157.63</ele>
<time>2015-04-29T17:27:53Z</time>
</trkpt>
<trkpt lat="34.9719020" lon="32.8243166">
<ele>1156.20</ele>
<time>2015-04-29T17:27:54Z</time>
</trkpt>
<trkpt lat="34.9719483" lon="32.8242785">
<ele>1154.98</ele>
<time>2015-04-29T17:27:55Z</time>
</trkpt>
<trkpt lat="34.9719984" lon="32.8242406">
<ele>1154.37</ele>
<time>2015-04-29T17:27:56Z</time>
</trkpt>
<trkpt lat="34.9720416" lon="32.8242139">
<ele>1153.06</ele>
<time>2015-04-29T17:27:57Z</time>
</trkpt>
<trkpt lat="34.9721088" lon="32.8242023">
<ele>1151.34</ele>
<time>2015-04-29T17:27:59Z</time>
</trkpt>
<trkpt lat="34.9721014" lon="32.8242819">
<ele>1148.61</ele>
<time>2015-04-29T17:28:03Z</time>
</trkpt>
<trkpt lat="34.9720567" lon="32.8243166">
<ele>1147.22</ele>
<time>2015-04-29T17:28:05Z</time>
</trkpt>
<trkpt lat="34.9720014" lon="32.8243710">
<ele>1146.88</ele>
<time>2015-04-29T17:28:07Z</time>
</trkpt>
<trkpt lat="34.9719387" lon="32.8244362">
<ele>1146.79</ele>
<time>2015-04-29T17:28:09Z</time>
</trkpt>
<trkpt lat="34.9718800" lon="32.8245018">
<ele>1145.52</ele>
<time>2015-04-29T17:28:11Z</time>
</trkpt>
<trkpt lat="34.9718234" lon="32.8245610">
<ele>1144.45</ele>
<time>2015-04-29T17:28:13Z</time>
</trkpt>
<trkpt lat="34.9717650" lon="32.8245988">
<ele>1144.43</ele>
<time>2015-04-29T17:28:15Z</time>
</trkpt>
<trkpt lat="34.9716918" lon="32.8246074">
<ele>1143.68</ele>
<time>2015-04-29T17:28:17Z</time>
</trkpt>
<trkpt lat="34.9716206" lon="32.8246021">
<ele>1143.49</ele>
<time>2015-04-29T17:28:19Z</time>
</trkpt>
<trkpt lat="34.9715405" lon="32.8245895">
<ele>1143.19</ele>
<time>2015-04-29T17:28:21Z</time>
</trkpt>
<trkpt lat="34.9714168" lon="32.8245760">
<ele>1142.62</ele>
<time>2015-04-29T17:28:23Z</time>
</trkpt>
<trkpt lat="34.9713635" lon="32.8245961">
<ele>1142.69</ele>
<time>2015-04-29T17:28:24Z</time>
</trkpt>
<trkpt lat="34.9713228" lon="32.8246196">
<ele>1143.22</ele>
<time>2015-04-29T17:28:25Z</time>
</trkpt>
<trkpt lat="34.9712784" lon="32.8246446">
<ele>1142.99</ele>
<time>2015-04-29T17:28:26Z</time>
</trkpt>
<trkpt lat="34.9712324" lon="32.8246746">
<ele>1142.88</ele>
<time>2015-04-29T17:28:27Z</time>
</trkpt>
<trkpt lat="34.9711756" lon="32.8247123">
<ele>1142.82</ele>
<time>2015-04-29T17:28:28Z</time>
</trkpt>
<trkpt lat="34.9710988" lon="32.8247687">
<ele>1142.77</ele>
<time>2015-04-29T17:28:30Z</time>
</trkpt>
<trkpt lat="34.9710616" lon="32.8248086">
<ele>1143.27</ele>
<time>2015-04-29T17:28:31Z</time>
</trkpt>
<trkpt lat="34.9709827" lon="32.8248753">
<ele>1144.14</ele>
<time>2015-04-29T17:28:33Z</time>
</trkpt>
<trkpt lat="34.9709068" lon="32.8249169">
<ele>1142.10</ele>
<time>2015-04-29T17:28:35Z</time>
</trkpt>
<trkpt lat="34.9708503" lon="32.8249934">
<ele>1141.10</ele>
<time>2015-04-29T17:28:37Z</time>
</trkpt>
<trkpt lat="34.9707931" lon="32.8250527">
<ele>1142.09</ele>
<time>2015-04-29T17:28:39Z</time>
</trkpt>
<trkpt lat="34.9707264" lon="32.8250920">
<ele>1142.09</ele>
<time>2015-04-29T17:28:41Z</time>
</trkpt>
<trkpt lat="34.9706727" lon="32.8251470">
<ele>1142.09</ele>
<time>2015-04-29T17:28:43Z</time>
</trkpt>
<trkpt lat="34.9706096" lon="32.8251858">
<ele>1142.84</ele>
<time>2015-04-29T17:28:45Z</time>
</trkpt>
<trkpt lat="34.9705373" lon="32.8252082">
<ele>1142.78</ele>
<time>2015-04-29T17:28:47Z</time>
</trkpt>
<trkpt lat="34.9704515" lon="32.8252167">
<ele>1140.77</ele>
<time>2015-04-29T17:28:49Z</time>
</trkpt>
<trkpt lat="34.9703864" lon="32.8252130">
<ele>1139.76</ele>
<time>2015-04-29T17:28:50Z</time>
</trkpt>
<trkpt lat="34.9703386" lon="32.8252078">
<ele>1138.76</ele>
<time>2015-04-29T17:28:51Z</time>
</trkpt>
<trkpt lat="34.9702882" lon="32.8252180">
<ele>1137.76</ele>
<time>2015-04-29T17:28:52Z</time>
</trkpt>
<trkpt lat="34.9701881" lon="32.8252277">
<ele>1136.26</ele>
<time>2015-04-29T17:28:54Z</time>
</trkpt>
<trkpt lat="34.9701411" lon="32.8252221">
<ele>1136.01</ele>
<time>2015-04-29T17:28:55Z</time>
</trkpt>
<trkpt lat="34.9700865" lon="32.8252217">
<ele>1135.89</ele>
<time>2015-04-29T17:28:56Z</time>
</trkpt>
<trkpt lat="34.9700414" lon="32.8252071">
<ele>1136.82</ele>
<time>2015-04-29T17:28:57Z</time>
</trkpt>
<trkpt lat="34.9699901" lon="32.8251981">
<ele>1137.29</ele>
<time>2015-04-29T17:28:58Z</time>
</trkpt>
<trkpt lat="34.9699469" lon="32.8251798">
<ele>1137.53</ele>
<time>2015-04-29T17:28:59Z</time>
</trkpt>
<trkpt lat="34.9698872" lon="32.8251643">
<ele>1137.14</ele>
<time>2015-04-29T17:29:00Z</time>
</trkpt>
<trkpt lat="34.9698370" lon="32.8251556">
<ele>1136.45</ele>
<time>2015-04-29T17:29:01Z</time>
</trkpt>
<trkpt lat="34.9697832" lon="32.8251547">
<ele>1136.11</ele>
<time>2015-04-29T17:29:02Z</time>
</trkpt>
<trkpt lat="34.9697258" lon="32.8251629">
<ele>1135.93</ele>
<time>2015-04-29T17:29:03Z</time>
</trkpt>
<trkpt lat="34.9696770" lon="32.8251800">
<ele>1135.35</ele>
<time>2015-04-29T17:29:04Z</time>
</trkpt>
<trkpt lat="34.9696049" lon="32.8252165">
<ele>1134.66</ele>
<time>2015-04-29T17:29:06Z</time>
</trkpt>
<trkpt lat="34.9695275" lon="32.8252716">
<ele>1133.48</ele>
<time>2015-04-29T17:29:08Z</time>
</trkpt>
<trkpt lat="34.9694971" lon="32.8253127">
<ele>1133.12</ele>
<time>2015-04-29T17:29:09Z</time>
</trkpt>
<trkpt lat="34.9694325" lon="32.8253650">
<ele>1131.60</ele>
<time>2015-04-29T17:29:11Z</time>
</trkpt>
<trkpt lat="34.9693739" lon="32.8254267">
<ele>1129.47</ele>
<time>2015-04-29T17:29:13Z</time>
</trkpt>
<trkpt lat="34.9693194" lon="32.8254804">
<ele>1127.69</ele>
<time>2015-04-29T17:29:15Z</time>
</trkpt>
<trkpt lat="34.9692664" lon="32.8255502">
<ele>1127.24</ele>
<time>2015-04-29T17:29:17Z</time>
</trkpt>
<trkpt lat="34.9692165" lon="32.8256138">
<ele>1126.13</ele>
<time>2015-04-29T17:29:19Z</time>
</trkpt>
<trkpt lat="34.9691622" lon="32.8256840">
<ele>1125.85</ele>
<time>2015-04-29T17:29:21Z</time>
</trkpt>
<trkpt lat="34.9691078" lon="32.8257709">
<ele>1125.78</ele>
<time>2015-04-29T17:29:23Z</time>
</trkpt>
<trkpt lat="34.9690688" lon="32.8258556">
<ele>1125.77</ele>
<time>2015-04-29T17:29:24Z</time>
</trkpt>
<trkpt lat="34.9690472" lon="32.8259118">
<ele>1125.77</ele>
<time>2015-04-29T17:29:25Z</time>
</trkpt>
<trkpt lat="34.9690307" lon="32.8259738">
<ele>1125.76</ele>
<time>2015-04-29T17:29:26Z</time>
</trkpt>
<trkpt lat="34.9690143" lon="32.8260373">
<ele>1125.76</ele>
<time>2015-04-29T17:29:27Z</time>
</trkpt>
<trkpt lat="34.9690031" lon="32.8260961">
<ele>1126.26</ele>
<time>2015-04-29T17:29:28Z</time>
</trkpt>
<trkpt lat="34.9689846" lon="32.8261494">
<ele>1126.51</ele>
<time>2015-04-29T17:29:29Z</time>
</trkpt>
<trkpt lat="34.9689631" lon="32.8262255">
<ele>1126.20</ele>
<time>2015-04-29T17:29:31Z</time>
</trkpt>
<trkpt lat="34.9689181" lon="32.8262494">
<ele>1124.98</ele>
<time>2015-04-29T17:29:32Z</time>
</trkpt>
<trkpt lat="34.9688502" lon="32.8263090">
<ele>1122.81</ele>
<time>2015-04-29T17:29:34Z</time>
</trkpt>
<trkpt lat="34.9688159" lon="32.8263457">
<ele>1121.79</ele>
<time>2015-04-29T17:29:35Z</time>
</trkpt>
<trkpt lat="34.9687863" lon="32.8263937">
<ele>1121.27</ele>
<time>2015-04-29T17:29:36Z</time>
</trkpt>
<trkpt lat="34.9687313" lon="32.8264501">
<ele>1120.14</ele>
<time>2015-04-29T17:29:38Z</time>
</trkpt>
<trkpt lat="34.9687032" lon="32.8265178">
<ele>1121.10</ele>
<time>2015-04-29T17:29:40Z</time>
</trkpt>
<trkpt lat="34.9686488" lon="32.8265215">
<ele>1120.10</ele>
<time>2015-04-29T17:29:42Z</time>
</trkpt>
<trkpt lat="34.9685994" lon="32.8265594">
<ele>1118.34</ele>
<time>2015-04-29T17:29:44Z</time>
</trkpt>
<trkpt lat="34.9685449" lon="32.8266070">
<ele>1118.41</ele>
<time>2015-04-29T17:29:46Z</time>
</trkpt>
<trkpt lat="34.9684844" lon="32.8266661">
<ele>1118.42</ele>
<time>2015-04-29T17:29:48Z</time>
</trkpt>
<trkpt lat="34.9684508" lon="32.8267378">
<ele>1115.18</ele>
<time>2015-04-29T17:29:50Z</time>
</trkpt>
<trkpt lat="34.9684528" lon="32.8268314">
<ele>1113.11</ele>
<time>2015-04-29T17:29:52Z</time>
</trkpt>
<trkpt lat="34.9684732" lon="32.8270055">
<ele>1111.60</ele>
<time>2015-04-29T17:29:54Z</time>
</trkpt>
<trkpt lat="34.9684913" lon="32.8270939">
<ele>1111.18</ele>
<time>2015-04-29T17:29:55Z</time>
</trkpt>
<trkpt lat="34.9684908" lon="32.8271608">
<ele>1110.97</ele>
<time>2015-04-29T17:29:56Z</time>
</trkpt>
<trkpt lat="34.9685113" lon="32.8272342">
<ele>1110.86</ele>
<time>2015-04-29T17:29:57Z</time>
</trkpt>
<trkpt lat="34.9685241" lon="32.8273028">
<ele>1110.31</ele>
<time>2015-04-29T17:29:58Z</time>
</trkpt>
<trkpt lat="34.9685437" lon="32.8273605">
<ele>1109.54</ele>
<time>2015-04-29T17:29:59Z</time>
</trkpt>
<trkpt lat="34.9685708" lon="32.8274336">
<ele>1109.65</ele>
<time>2015-04-29T17:30:00Z</time>
</trkpt>
<trkpt lat="34.9685834" lon="32.8274913">
<ele>1109.20</ele>
<time>2015-04-29T17:30:01Z</time>
</trkpt>
<trkpt lat="34.9685823" lon="32.8275559">
<ele>1108.48</ele>
<time>2015-04-29T17:30:02Z</time>
</trkpt>
<trkpt lat="34.9686087" lon="32.8276079">
<ele>1108.12</ele>
<time>2015-04-29T17:30:03Z</time>
</trkpt>
<trkpt lat="34.9686025" lon="32.8277004">
<ele>1109.60</ele>
<time>2015-04-29T17:30:05Z</time>
</trkpt>
<trkpt lat="34.9686060" lon="32.8277688">
<ele>1109.72</ele>
<time>2015-04-29T17:30:07Z</time>
</trkpt>
<trkpt lat="34.9685770" lon="32.8278280">
<ele>1111.25</ele>
<time>2015-04-29T17:30:09Z</time>
</trkpt>
<trkpt lat="34.9685211" lon="32.8278507">
<ele>1110.63</ele>
<time>2015-04-29T17:30:11Z</time>
</trkpt>
<trkpt lat="34.9684793" lon="32.8278910">
<ele>1108.48</ele>
<time>2015-04-29T17:30:13Z</time>
</trkpt>
<trkpt lat="34.9684335" lon="32.8279387">
<ele>1105.94</ele>
<time>2015-04-29T17:30:15Z</time>
</trkpt>
<trkpt lat="34.9683897" lon="32.8279860">
<ele>1105.80</ele>
<time>2015-04-29T17:30:17Z</time>
</trkpt>
<trkpt lat="34.9683418" lon="32.8280036">
<ele>1107.02</ele>
<time>2015-04-29T17:30:19Z</time>
</trkpt>
<trkpt lat="34.9682940" lon="32.8279952">
<ele>1106.83</ele>
<time>2015-04-29T17:30:21Z</time>
</trkpt>
<trkpt lat="34.9682297" lon="32.8279703">
<ele>1110.14</ele>
<time>2015-04-29T17:30:24Z</time>
</trkpt>
<trkpt lat="34.9681726" lon="32.8279334">
<ele>1110.68</ele>
<time>2015-04-29T17:30:27Z</time>
</trkpt>
<trkpt lat="34.9681170" lon="32.8279038">
<ele>1112.00</ele>
<time>2015-04-29T17:30:30Z</time>
</trkpt>
<trkpt lat="34.9680633" lon="32.8278806">
<ele>1112.78</ele>
<time>2015-04-29T17:30:36Z</time>
</trkpt>
<trkpt lat="34.9680256" lon="32.8278486">
<ele>1112.76</ele>
<time>2015-04-29T17:30:38Z</time>
</trkpt>
<trkpt lat="34.9679764" lon="32.8278123">
<ele>1112.76</ele>
<time>2015-04-29T17:30:40Z</time>
</trkpt>
<trkpt lat="34.9679226" lon="32.8277795">
<ele>1114.26</ele>
<time>2015-04-29T17:30:42Z</time>
</trkpt>
<trkpt lat="34.9678626" lon="32.8277572">
<ele>1114.64</ele>
<time>2015-04-29T17:30:44Z</time>
</trkpt>
<trkpt lat="34.9678127" lon="32.8277266">
<ele>1114.98</ele>
<time>2015-04-29T17:30:46Z</time>
</trkpt>
<trkpt lat="34.9677780" lon="32.8276821">
<ele>1115.31</ele>
<time>2015-04-29T17:30:48Z</time>
</trkpt>
<trkpt lat="34.9677431" lon="32.8276288">
<ele>1113.58</ele>
<time>2015-04-29T17:30:51Z</time>
</trkpt>
<trkpt lat="34.9677140" lon="32.8275815">
<ele>1112.99</ele>
<time>2015-04-29T17:30:54Z</time>
</trkpt>
</trkseg>
</trk>
</gpx>
